<?xml version="1.0" encoding="UTF-8" standalone="no" ?>
<gpx xmlns="http://www.topografix.com/GPX/1/1" xmlns:xsi="http://www.w3.org/2001/XMLSchema-instance" xsi:schemaLocation="http://www.topografix.com/GPX/1/1 http://www.topografix.com/GPX/1/1/gpx.xsd" version="1.1" creator="VisuGPX - https://www.visugpx.com">
  <metadata>
    <name>Tour Vercors etape 4/5</name>
  </metadata>
  <trk>
    <name><![CDATA[Tour Vercors etape 4/5_1]]></name>
    <trkseg>
      <trkpt lat="44.87484" lon="5.4231">
        <ele>1033</ele>
        <time>2021-10-09T07:46:55Z</time>
      </trkpt>
      <trkpt lat="44.87485" lon="5.42312">
        <ele>1033</ele>
        <time>2021-10-09T07:46:56Z</time>
      </trkpt>
      <trkpt lat="44.87486" lon="5.42314">
        <ele>1033</ele>
        <time>2021-10-09T07:46:57Z</time>
      </trkpt>
      <trkpt lat="44.87487" lon="5.42316">
        <ele>1033</ele>
        <time>2021-10-09T07:46:58Z</time>
      </trkpt>
      <trkpt lat="44.87488" lon="5.42318">
        <ele>1033.4</ele>
        <time>2021-10-09T07:46:59Z</time>
      </trkpt>
      <trkpt lat="44.87489" lon="5.42319">
        <ele>1033.4</ele>
        <time>2021-10-09T07:47:00Z</time>
      </trkpt>
      <trkpt lat="44.87491" lon="5.42321">
        <ele>1033.4</ele>
        <time>2021-10-09T07:47:01Z</time>
      </trkpt>
      <trkpt lat="44.87492" lon="5.42323">
        <ele>1033.4</ele>
        <time>2021-10-09T07:47:02Z</time>
      </trkpt>
      <trkpt lat="44.87493" lon="5.42325">
        <ele>1034.2</ele>
        <time>2021-10-09T07:47:03Z</time>
      </trkpt>
      <trkpt lat="44.87494" lon="5.42326">
        <ele>1034.2</ele>
        <time>2021-10-09T07:47:04Z</time>
      </trkpt>
      <trkpt lat="44.87495" lon="5.42328">
        <ele>1034.2</ele>
        <time>2021-10-09T07:47:05Z</time>
      </trkpt>
      <trkpt lat="44.87496" lon="5.42329">
        <ele>1034.2</ele>
        <time>2021-10-09T07:47:06Z</time>
      </trkpt>
      <trkpt lat="44.87497" lon="5.42331">
        <ele>1035</ele>
        <time>2021-10-09T07:47:07Z</time>
      </trkpt>
      <trkpt lat="44.87498" lon="5.42332">
        <ele>1035</ele>
        <time>2021-10-09T07:47:08Z</time>
      </trkpt>
      <trkpt lat="44.875" lon="5.42333">
        <ele>1035</ele>
        <time>2021-10-09T07:47:09Z</time>
      </trkpt>
      <trkpt lat="44.875" lon="5.42334">
        <ele>1036</ele>
        <time>2021-10-09T07:47:10Z</time>
      </trkpt>
      <trkpt lat="44.87501" lon="5.42335">
        <ele>1036.4</ele>
        <time>2021-10-09T07:47:11Z</time>
      </trkpt>
      <trkpt lat="44.87502" lon="5.42336">
        <ele>1036.4</ele>
        <time>2021-10-09T07:47:12Z</time>
      </trkpt>
      <trkpt lat="44.87502" lon="5.42337">
        <ele>1036.4</ele>
        <time>2021-10-09T07:47:13Z</time>
      </trkpt>
      <trkpt lat="44.87503" lon="5.42338">
        <ele>1037</ele>
        <time>2021-10-09T07:47:14Z</time>
      </trkpt>
      <trkpt lat="44.87504" lon="5.4234">
        <ele>1037</ele>
        <time>2021-10-09T07:47:15Z</time>
      </trkpt>
      <trkpt lat="44.87506" lon="5.42341">
        <ele>1037</ele>
        <time>2021-10-09T07:47:16Z</time>
      </trkpt>
      <trkpt lat="44.87507" lon="5.42342">
        <ele>1037</ele>
        <time>2021-10-09T07:47:17Z</time>
      </trkpt>
      <trkpt lat="44.87508" lon="5.42344">
        <ele>1037</ele>
        <time>2021-10-09T07:47:18Z</time>
      </trkpt>
      <trkpt lat="44.87509" lon="5.42345">
        <ele>1037.6</ele>
        <time>2021-10-09T07:47:19Z</time>
      </trkpt>
      <trkpt lat="44.87511" lon="5.42346">
        <ele>1037.6</ele>
        <time>2021-10-09T07:47:20Z</time>
      </trkpt>
      <trkpt lat="44.87512" lon="5.42347">
        <ele>1037.6</ele>
        <time>2021-10-09T07:47:21Z</time>
      </trkpt>
      <trkpt lat="44.87513" lon="5.42348">
        <ele>1038.4</ele>
        <time>2021-10-09T07:47:22Z</time>
      </trkpt>
      <trkpt lat="44.87515" lon="5.42349">
        <ele>1038.8</ele>
        <time>2021-10-09T07:47:23Z</time>
      </trkpt>
      <trkpt lat="44.87516" lon="5.4235">
        <ele>1038.8</ele>
        <time>2021-10-09T07:47:24Z</time>
      </trkpt>
      <trkpt lat="44.87516" lon="5.42351">
        <ele>1038.8</ele>
        <time>2021-10-09T07:47:25Z</time>
      </trkpt>
      <trkpt lat="44.87517" lon="5.42352">
        <ele>1039.8</ele>
        <time>2021-10-09T07:47:26Z</time>
      </trkpt>
      <trkpt lat="44.87518" lon="5.42352">
        <ele>1040</ele>
        <time>2021-10-09T07:47:27Z</time>
      </trkpt>
      <trkpt lat="44.87519" lon="5.42353">
        <ele>1040</ele>
        <time>2021-10-09T07:47:28Z</time>
      </trkpt>
      <trkpt lat="44.87519" lon="5.42354">
        <ele>1040</ele>
        <time>2021-10-09T07:47:29Z</time>
      </trkpt>
      <trkpt lat="44.87521" lon="5.42355">
        <ele>1040</ele>
        <time>2021-10-09T07:47:30Z</time>
      </trkpt>
      <trkpt lat="44.87522" lon="5.42355">
        <ele>1041.2</ele>
        <time>2021-10-09T07:47:31Z</time>
      </trkpt>
      <trkpt lat="44.87522" lon="5.42356">
        <ele>1041.2</ele>
        <time>2021-10-09T07:47:32Z</time>
      </trkpt>
      <trkpt lat="44.87523" lon="5.42357">
        <ele>1041.2</ele>
        <time>2021-10-09T07:47:33Z</time>
      </trkpt>
      <trkpt lat="44.87524" lon="5.42358">
        <ele>1041.8</ele>
        <time>2021-10-09T07:47:34Z</time>
      </trkpt>
      <trkpt lat="44.87525" lon="5.42358">
        <ele>1042.4</ele>
        <time>2021-10-09T07:47:35Z</time>
      </trkpt>
      <trkpt lat="44.87526" lon="5.42358">
        <ele>1042.4</ele>
        <time>2021-10-09T07:47:36Z</time>
      </trkpt>
      <trkpt lat="44.87527" lon="5.42358">
        <ele>1042.4</ele>
        <time>2021-10-09T07:47:37Z</time>
      </trkpt>
      <trkpt lat="44.87529" lon="5.42358">
        <ele>1042.4</ele>
        <time>2021-10-09T07:47:38Z</time>
      </trkpt>
      <trkpt lat="44.87532" lon="5.42359">
        <ele>1042.8</ele>
        <time>2021-10-09T07:47:39Z</time>
      </trkpt>
      <trkpt lat="44.87533" lon="5.42359">
        <ele>1042.8</ele>
        <time>2021-10-09T07:47:40Z</time>
      </trkpt>
      <trkpt lat="44.87534" lon="5.42359">
        <ele>1042.8</ele>
        <time>2021-10-09T07:47:41Z</time>
      </trkpt>
      <trkpt lat="44.87535" lon="5.42359">
        <ele>1043.6</ele>
        <time>2021-10-09T07:47:42Z</time>
      </trkpt>
      <trkpt lat="44.87536" lon="5.42359">
        <ele>1044</ele>
        <time>2021-10-09T07:47:43Z</time>
      </trkpt>
      <trkpt lat="44.87538" lon="5.42359">
        <ele>1044</ele>
        <time>2021-10-09T07:47:44Z</time>
      </trkpt>
      <trkpt lat="44.87539" lon="5.42359">
        <ele>1044</ele>
        <time>2021-10-09T07:47:45Z</time>
      </trkpt>
      <trkpt lat="44.8754" lon="5.42359">
        <ele>1044.2</ele>
        <time>2021-10-09T07:47:46Z</time>
      </trkpt>
      <trkpt lat="44.87543" lon="5.42359">
        <ele>1044.4</ele>
        <time>2021-10-09T07:47:47Z</time>
      </trkpt>
      <trkpt lat="44.87544" lon="5.42359">
        <ele>1044.4</ele>
        <time>2021-10-09T07:47:48Z</time>
      </trkpt>
      <trkpt lat="44.87544" lon="5.42358">
        <ele>1044.4</ele>
        <time>2021-10-09T07:47:49Z</time>
      </trkpt>
      <trkpt lat="44.87545" lon="5.42357">
        <ele>1044.4</ele>
        <time>2021-10-09T07:47:50Z</time>
      </trkpt>
      <trkpt lat="44.87546" lon="5.42357">
        <ele>1044.8</ele>
        <time>2021-10-09T07:47:51Z</time>
      </trkpt>
      <trkpt lat="44.87547" lon="5.42357">
        <ele>1044.8</ele>
        <time>2021-10-09T07:47:52Z</time>
      </trkpt>
      <trkpt lat="44.87548" lon="5.42357">
        <ele>1044.8</ele>
        <time>2021-10-09T07:47:53Z</time>
      </trkpt>
      <trkpt lat="44.8755" lon="5.42357">
        <ele>1045.4</ele>
        <time>2021-10-09T07:47:54Z</time>
      </trkpt>
      <trkpt lat="44.87551" lon="5.42357">
        <ele>1045.2</ele>
        <time>2021-10-09T07:47:55Z</time>
      </trkpt>
      <trkpt lat="44.87552" lon="5.42357">
        <ele>1045.2</ele>
        <time>2021-10-09T07:47:56Z</time>
      </trkpt>
      <trkpt lat="44.87553" lon="5.42357">
        <ele>1045.2</ele>
        <time>2021-10-09T07:47:57Z</time>
      </trkpt>
      <trkpt lat="44.87554" lon="5.42357">
        <ele>1046</ele>
        <time>2021-10-09T07:47:58Z</time>
      </trkpt>
      <trkpt lat="44.87556" lon="5.42357">
        <ele>1046.2</ele>
        <time>2021-10-09T07:47:59Z</time>
      </trkpt>
      <trkpt lat="44.87557" lon="5.42357">
        <ele>1046.2</ele>
        <time>2021-10-09T07:48:00Z</time>
      </trkpt>
      <trkpt lat="44.87558" lon="5.42358">
        <ele>1046.2</ele>
        <time>2021-10-09T07:48:01Z</time>
      </trkpt>
      <trkpt lat="44.87559" lon="5.42358">
        <ele>1046.6</ele>
        <time>2021-10-09T07:48:02Z</time>
      </trkpt>
      <trkpt lat="44.8756" lon="5.42358">
        <ele>1046.6</ele>
        <time>2021-10-09T07:48:03Z</time>
      </trkpt>
      <trkpt lat="44.87562" lon="5.42358">
        <ele>1046.6</ele>
        <time>2021-10-09T07:48:04Z</time>
      </trkpt>
      <trkpt lat="44.87564" lon="5.42358">
        <ele>1046.6</ele>
        <time>2021-10-09T07:48:05Z</time>
      </trkpt>
      <trkpt lat="44.87565" lon="5.42358">
        <ele>1047</ele>
        <time>2021-10-09T07:48:06Z</time>
      </trkpt>
      <trkpt lat="44.87566" lon="5.42358">
        <ele>1047.8</ele>
        <time>2021-10-09T07:48:07Z</time>
      </trkpt>
      <trkpt lat="44.87567" lon="5.42358">
        <ele>1047.8</ele>
        <time>2021-10-09T07:48:08Z</time>
      </trkpt>
      <trkpt lat="44.87568" lon="5.42359">
        <ele>1047.8</ele>
        <time>2021-10-09T07:48:09Z</time>
      </trkpt>
      <trkpt lat="44.87569" lon="5.42359">
        <ele>1047.8</ele>
        <time>2021-10-09T07:48:10Z</time>
      </trkpt>
      <trkpt lat="44.8757" lon="5.42359">
        <ele>1048.8</ele>
        <time>2021-10-09T07:48:11Z</time>
      </trkpt>
      <trkpt lat="44.87571" lon="5.42359">
        <ele>1048.8</ele>
        <time>2021-10-09T07:48:12Z</time>
      </trkpt>
      <trkpt lat="44.87572" lon="5.4236">
        <ele>1048.8</ele>
        <time>2021-10-09T07:48:13Z</time>
      </trkpt>
      <trkpt lat="44.87573" lon="5.42361">
        <ele>1048.8</ele>
        <time>2021-10-09T07:48:14Z</time>
      </trkpt>
      <trkpt lat="44.87575" lon="5.42361">
        <ele>1049.4</ele>
        <time>2021-10-09T07:48:15Z</time>
      </trkpt>
      <trkpt lat="44.87576" lon="5.42362">
        <ele>1049.4</ele>
        <time>2021-10-09T07:48:16Z</time>
      </trkpt>
      <trkpt lat="44.87577" lon="5.42362">
        <ele>1049.4</ele>
        <time>2021-10-09T07:48:17Z</time>
      </trkpt>
      <trkpt lat="44.87578" lon="5.42363">
        <ele>1049.4</ele>
        <time>2021-10-09T07:48:18Z</time>
      </trkpt>
      <trkpt lat="44.87579" lon="5.42364">
        <ele>1049.6</ele>
        <time>2021-10-09T07:48:19Z</time>
      </trkpt>
      <trkpt lat="44.87581" lon="5.42364">
        <ele>1049.6</ele>
        <time>2021-10-09T07:48:20Z</time>
      </trkpt>
      <trkpt lat="44.87582" lon="5.42365">
        <ele>1049.6</ele>
        <time>2021-10-09T07:48:21Z</time>
      </trkpt>
      <trkpt lat="44.87583" lon="5.42365">
        <ele>1049.6</ele>
        <time>2021-10-09T07:48:22Z</time>
      </trkpt>
      <trkpt lat="44.87583" lon="5.42366">
        <ele>1049.8</ele>
        <time>2021-10-09T07:48:23Z</time>
      </trkpt>
      <trkpt lat="44.87584" lon="5.42367">
        <ele>1049.8</ele>
        <time>2021-10-09T07:48:24Z</time>
      </trkpt>
      <trkpt lat="44.87585" lon="5.42367">
        <ele>1049.8</ele>
        <time>2021-10-09T07:48:25Z</time>
      </trkpt>
      <trkpt lat="44.87586" lon="5.42368">
        <ele>1049.8</ele>
        <time>2021-10-09T07:48:26Z</time>
      </trkpt>
      <trkpt lat="44.87587" lon="5.42369">
        <ele>1050.6</ele>
        <time>2021-10-09T07:48:27Z</time>
      </trkpt>
      <trkpt lat="44.87589" lon="5.42369">
        <ele>1050.6</ele>
        <time>2021-10-09T07:48:28Z</time>
      </trkpt>
      <trkpt lat="44.8759" lon="5.42369">
        <ele>1050.6</ele>
        <time>2021-10-09T07:48:29Z</time>
      </trkpt>
      <trkpt lat="44.87591" lon="5.4237">
        <ele>1050.6</ele>
        <time>2021-10-09T07:48:30Z</time>
      </trkpt>
      <trkpt lat="44.87593" lon="5.42372">
        <ele>1051</ele>
        <time>2021-10-09T07:48:31Z</time>
      </trkpt>
      <trkpt lat="44.87594" lon="5.42372">
        <ele>1051</ele>
        <time>2021-10-09T07:48:32Z</time>
      </trkpt>
      <trkpt lat="44.87596" lon="5.42372">
        <ele>1051</ele>
        <time>2021-10-09T07:48:33Z</time>
      </trkpt>
      <trkpt lat="44.87598" lon="5.42374">
        <ele>1051</ele>
        <time>2021-10-09T07:48:34Z</time>
      </trkpt>
      <trkpt lat="44.87599" lon="5.42374">
        <ele>1051</ele>
        <time>2021-10-09T07:48:35Z</time>
      </trkpt>
      <trkpt lat="44.876" lon="5.42375">
        <ele>1051</ele>
        <time>2021-10-09T07:48:36Z</time>
      </trkpt>
      <trkpt lat="44.876" lon="5.42375">
        <ele>1051</ele>
        <time>2021-10-09T07:48:37Z</time>
      </trkpt>
      <trkpt lat="44.87601" lon="5.42376">
        <ele>1051.6</ele>
        <time>2021-10-09T07:48:38Z</time>
      </trkpt>
      <trkpt lat="44.87603" lon="5.42376">
        <ele>1052</ele>
        <time>2021-10-09T07:48:39Z</time>
      </trkpt>
      <trkpt lat="44.87604" lon="5.42377">
        <ele>1052</ele>
        <time>2021-10-09T07:48:40Z</time>
      </trkpt>
      <trkpt lat="44.87605" lon="5.42377">
        <ele>1052</ele>
        <time>2021-10-09T07:48:41Z</time>
      </trkpt>
      <trkpt lat="44.87606" lon="5.42378">
        <ele>1052</ele>
        <time>2021-10-09T07:48:42Z</time>
      </trkpt>
      <trkpt lat="44.87608" lon="5.42379">
        <ele>1052.2</ele>
        <time>2021-10-09T07:48:43Z</time>
      </trkpt>
      <trkpt lat="44.87609" lon="5.42379">
        <ele>1052.2</ele>
        <time>2021-10-09T07:48:44Z</time>
      </trkpt>
      <trkpt lat="44.8761" lon="5.42379">
        <ele>1052.2</ele>
        <time>2021-10-09T07:48:45Z</time>
      </trkpt>
      <trkpt lat="44.87611" lon="5.4238">
        <ele>1052.2</ele>
        <time>2021-10-09T07:48:46Z</time>
      </trkpt>
      <trkpt lat="44.87612" lon="5.4238">
        <ele>1052.6</ele>
        <time>2021-10-09T07:48:47Z</time>
      </trkpt>
      <trkpt lat="44.87613" lon="5.42381">
        <ele>1052.6</ele>
        <time>2021-10-09T07:48:48Z</time>
      </trkpt>
      <trkpt lat="44.87614" lon="5.42382">
        <ele>1052.6</ele>
        <time>2021-10-09T07:48:49Z</time>
      </trkpt>
      <trkpt lat="44.87615" lon="5.42382">
        <ele>1053.4</ele>
        <time>2021-10-09T07:48:50Z</time>
      </trkpt>
      <trkpt lat="44.87616" lon="5.42383">
        <ele>1053.6</ele>
        <time>2021-10-09T07:48:51Z</time>
      </trkpt>
      <trkpt lat="44.87617" lon="5.42383">
        <ele>1053.6</ele>
        <time>2021-10-09T07:48:52Z</time>
      </trkpt>
      <trkpt lat="44.87618" lon="5.42384">
        <ele>1053.6</ele>
        <time>2021-10-09T07:48:53Z</time>
      </trkpt>
      <trkpt lat="44.87621" lon="5.42385">
        <ele>1053.6</ele>
        <time>2021-10-09T07:48:54Z</time>
      </trkpt>
      <trkpt lat="44.87622" lon="5.42385">
        <ele>1054</ele>
        <time>2021-10-09T07:48:55Z</time>
      </trkpt>
      <trkpt lat="44.87623" lon="5.42385">
        <ele>1054</ele>
        <time>2021-10-09T07:48:56Z</time>
      </trkpt>
      <trkpt lat="44.87625" lon="5.42386">
        <ele>1054</ele>
        <time>2021-10-09T07:48:57Z</time>
      </trkpt>
      <trkpt lat="44.87626" lon="5.42386">
        <ele>1054</ele>
        <time>2021-10-09T07:48:58Z</time>
      </trkpt>
      <trkpt lat="44.87628" lon="5.42386">
        <ele>1054.6</ele>
        <time>2021-10-09T07:48:59Z</time>
      </trkpt>
      <trkpt lat="44.87629" lon="5.42387">
        <ele>1054.6</ele>
        <time>2021-10-09T07:49:00Z</time>
      </trkpt>
      <trkpt lat="44.8763" lon="5.42388">
        <ele>1054.6</ele>
        <time>2021-10-09T07:49:01Z</time>
      </trkpt>
      <trkpt lat="44.87631" lon="5.42388">
        <ele>1054.6</ele>
        <time>2021-10-09T07:49:02Z</time>
      </trkpt>
      <trkpt lat="44.87633" lon="5.42388">
        <ele>1055.4</ele>
        <time>2021-10-09T07:49:03Z</time>
      </trkpt>
      <trkpt lat="44.87634" lon="5.42388">
        <ele>1055.4</ele>
        <time>2021-10-09T07:49:04Z</time>
      </trkpt>
      <trkpt lat="44.87635" lon="5.42388">
        <ele>1055.4</ele>
        <time>2021-10-09T07:49:05Z</time>
      </trkpt>
      <trkpt lat="44.87637" lon="5.42388">
        <ele>1055.4</ele>
        <time>2021-10-09T07:49:06Z</time>
      </trkpt>
      <trkpt lat="44.87639" lon="5.42389">
        <ele>1056</ele>
        <time>2021-10-09T07:49:07Z</time>
      </trkpt>
      <trkpt lat="44.87639" lon="5.42389">
        <ele>1056</ele>
        <time>2021-10-09T07:49:08Z</time>
      </trkpt>
      <trkpt lat="44.8764" lon="5.4239">
        <ele>1056</ele>
        <time>2021-10-09T07:49:09Z</time>
      </trkpt>
      <trkpt lat="44.87641" lon="5.4239">
        <ele>1056</ele>
        <time>2021-10-09T07:49:10Z</time>
      </trkpt>
      <trkpt lat="44.87642" lon="5.4239">
        <ele>1056.8</ele>
        <time>2021-10-09T07:49:11Z</time>
      </trkpt>
      <trkpt lat="44.87643" lon="5.42389">
        <ele>1056.8</ele>
        <time>2021-10-09T07:49:12Z</time>
      </trkpt>
      <trkpt lat="44.87645" lon="5.4239">
        <ele>1056.8</ele>
        <time>2021-10-09T07:49:13Z</time>
      </trkpt>
      <trkpt lat="44.87645" lon="5.4239">
        <ele>1057</ele>
        <time>2021-10-09T07:49:14Z</time>
      </trkpt>
      <trkpt lat="44.87647" lon="5.4239">
        <ele>1057.2</ele>
        <time>2021-10-09T07:49:15Z</time>
      </trkpt>
      <trkpt lat="44.87649" lon="5.42389">
        <ele>1057.2</ele>
        <time>2021-10-09T07:49:16Z</time>
      </trkpt>
      <trkpt lat="44.87651" lon="5.42389">
        <ele>1057.2</ele>
        <time>2021-10-09T07:49:17Z</time>
      </trkpt>
      <trkpt lat="44.87652" lon="5.4239">
        <ele>1057.4</ele>
        <time>2021-10-09T07:49:18Z</time>
      </trkpt>
      <trkpt lat="44.87653" lon="5.4239">
        <ele>1057.6</ele>
        <time>2021-10-09T07:49:19Z</time>
      </trkpt>
      <trkpt lat="44.87741" lon="5.42477">
        <ele>1071</ele>
        <time>2021-10-09T07:50:42Z</time>
      </trkpt>
      <trkpt lat="44.87742" lon="5.42478">
        <ele>1071.6</ele>
        <time>2021-10-09T07:50:43Z</time>
      </trkpt>
      <trkpt lat="44.87742" lon="5.42477">
        <ele>1071.6</ele>
        <time>2021-10-09T07:50:44Z</time>
      </trkpt>
      <trkpt lat="44.87744" lon="5.42478">
        <ele>1071.6</ele>
        <time>2021-10-09T07:50:45Z</time>
      </trkpt>
      <trkpt lat="44.87745" lon="5.42478">
        <ele>1071.6</ele>
        <time>2021-10-09T07:50:46Z</time>
      </trkpt>
      <trkpt lat="44.87746" lon="5.42479">
        <ele>1072.2</ele>
        <time>2021-10-09T07:50:47Z</time>
      </trkpt>
      <trkpt lat="44.87747" lon="5.4248">
        <ele>1072.2</ele>
        <time>2021-10-09T07:50:48Z</time>
      </trkpt>
      <trkpt lat="44.87748" lon="5.4248">
        <ele>1072.2</ele>
        <time>2021-10-09T07:50:49Z</time>
      </trkpt>
      <trkpt lat="44.87749" lon="5.4248">
        <ele>1072.6</ele>
        <time>2021-10-09T07:50:50Z</time>
      </trkpt>
      <trkpt lat="44.8775" lon="5.42481">
        <ele>1072.6</ele>
        <time>2021-10-09T07:50:51Z</time>
      </trkpt>
      <trkpt lat="44.87751" lon="5.42481">
        <ele>1072.6</ele>
        <time>2021-10-09T07:50:52Z</time>
      </trkpt>
      <trkpt lat="44.87752" lon="5.42483">
        <ele>1072.6</ele>
        <time>2021-10-09T07:50:53Z</time>
      </trkpt>
      <trkpt lat="44.87754" lon="5.42485">
        <ele>1073.2</ele>
        <time>2021-10-09T07:50:54Z</time>
      </trkpt>
      <trkpt lat="44.87756" lon="5.42485">
        <ele>1073.2</ele>
        <time>2021-10-09T07:50:55Z</time>
      </trkpt>
      <trkpt lat="44.87757" lon="5.42486">
        <ele>1073.2</ele>
        <time>2021-10-09T07:50:56Z</time>
      </trkpt>
      <trkpt lat="44.87758" lon="5.42487">
        <ele>1073.2</ele>
        <time>2021-10-09T07:50:57Z</time>
      </trkpt>
      <trkpt lat="44.8776" lon="5.42488">
        <ele>1073.4</ele>
        <time>2021-10-09T07:50:58Z</time>
      </trkpt>
      <trkpt lat="44.87761" lon="5.42489">
        <ele>1073.8</ele>
        <time>2021-10-09T07:50:59Z</time>
      </trkpt>
      <trkpt lat="44.87762" lon="5.42491">
        <ele>1073.8</ele>
        <time>2021-10-09T07:51:00Z</time>
      </trkpt>
      <trkpt lat="44.87764" lon="5.42492">
        <ele>1073.8</ele>
        <time>2021-10-09T07:51:01Z</time>
      </trkpt>
      <trkpt lat="44.87765" lon="5.42492">
        <ele>1073.8</ele>
        <time>2021-10-09T07:51:02Z</time>
      </trkpt>
      <trkpt lat="44.87766" lon="5.42494">
        <ele>1074.8</ele>
        <time>2021-10-09T07:51:03Z</time>
      </trkpt>
      <trkpt lat="44.87766" lon="5.42494">
        <ele>1074.8</ele>
        <time>2021-10-09T07:51:04Z</time>
      </trkpt>
      <trkpt lat="44.87767" lon="5.42495">
        <ele>1074.8</ele>
        <time>2021-10-09T07:51:05Z</time>
      </trkpt>
      <trkpt lat="44.87767" lon="5.42495">
        <ele>1074.8</ele>
        <time>2021-10-09T07:51:06Z</time>
      </trkpt>
      <trkpt lat="44.87768" lon="5.42496">
        <ele>1075.2</ele>
        <time>2021-10-09T07:51:07Z</time>
      </trkpt>
      <trkpt lat="44.87769" lon="5.42497">
        <ele>1075.2</ele>
        <time>2021-10-09T07:51:08Z</time>
      </trkpt>
      <trkpt lat="44.8777" lon="5.42497">
        <ele>1075.2</ele>
        <time>2021-10-09T07:51:09Z</time>
      </trkpt>
      <trkpt lat="44.87771" lon="5.42498">
        <ele>1075.6</ele>
        <time>2021-10-09T07:51:10Z</time>
      </trkpt>
      <trkpt lat="44.87773" lon="5.42499">
        <ele>1075.8</ele>
        <time>2021-10-09T07:51:11Z</time>
      </trkpt>
      <trkpt lat="44.87774" lon="5.425">
        <ele>1075.8</ele>
        <time>2021-10-09T07:51:12Z</time>
      </trkpt>
      <trkpt lat="44.87775" lon="5.42501">
        <ele>1075.8</ele>
        <time>2021-10-09T07:51:13Z</time>
      </trkpt>
      <trkpt lat="44.87776" lon="5.42502">
        <ele>1076.8</ele>
        <time>2021-10-09T07:51:14Z</time>
      </trkpt>
      <trkpt lat="44.87777" lon="5.42503">
        <ele>1077.2</ele>
        <time>2021-10-09T07:51:15Z</time>
      </trkpt>
      <trkpt lat="44.87778" lon="5.42504">
        <ele>1077.2</ele>
        <time>2021-10-09T07:51:16Z</time>
      </trkpt>
      <trkpt lat="44.87779" lon="5.42504">
        <ele>1077.2</ele>
        <time>2021-10-09T07:51:17Z</time>
      </trkpt>
      <trkpt lat="44.8778" lon="5.42505">
        <ele>1077.2</ele>
        <time>2021-10-09T07:51:18Z</time>
      </trkpt>
      <trkpt lat="44.87781" lon="5.42506">
        <ele>1077.6</ele>
        <time>2021-10-09T07:51:19Z</time>
      </trkpt>
      <trkpt lat="44.87782" lon="5.42507">
        <ele>1077.6</ele>
        <time>2021-10-09T07:51:20Z</time>
      </trkpt>
      <trkpt lat="44.87784" lon="5.42507">
        <ele>1077.6</ele>
        <time>2021-10-09T07:51:21Z</time>
      </trkpt>
      <trkpt lat="44.87785" lon="5.42508">
        <ele>1078.4</ele>
        <time>2021-10-09T07:51:22Z</time>
      </trkpt>
      <trkpt lat="44.87786" lon="5.42509">
        <ele>1078.4</ele>
        <time>2021-10-09T07:51:23Z</time>
      </trkpt>
      <trkpt lat="44.87788" lon="5.4251">
        <ele>1078.4</ele>
        <time>2021-10-09T07:51:24Z</time>
      </trkpt>
      <trkpt lat="44.87789" lon="5.4251">
        <ele>1078.4</ele>
        <time>2021-10-09T07:51:25Z</time>
      </trkpt>
      <trkpt lat="44.8779" lon="5.42511">
        <ele>1078.4</ele>
        <time>2021-10-09T07:51:26Z</time>
      </trkpt>
      <trkpt lat="44.87793" lon="5.42513">
        <ele>1079</ele>
        <time>2021-10-09T07:51:27Z</time>
      </trkpt>
      <trkpt lat="44.87794" lon="5.42514">
        <ele>1079</ele>
        <time>2021-10-09T07:51:28Z</time>
      </trkpt>
      <trkpt lat="44.87794" lon="5.42515">
        <ele>1079</ele>
        <time>2021-10-09T07:51:29Z</time>
      </trkpt>
      <trkpt lat="44.87796" lon="5.42517">
        <ele>1079.2</ele>
        <time>2021-10-09T07:51:30Z</time>
      </trkpt>
      <trkpt lat="44.87797" lon="5.42519">
        <ele>1079.2</ele>
        <time>2021-10-09T07:51:31Z</time>
      </trkpt>
      <trkpt lat="44.87798" lon="5.42521">
        <ele>1079.2</ele>
        <time>2021-10-09T07:51:32Z</time>
      </trkpt>
      <trkpt lat="44.87799" lon="5.42522">
        <ele>1079.2</ele>
        <time>2021-10-09T07:51:33Z</time>
      </trkpt>
      <trkpt lat="44.87799" lon="5.42523">
        <ele>1080.2</ele>
        <time>2021-10-09T07:51:34Z</time>
      </trkpt>
      <trkpt lat="44.878" lon="5.42524">
        <ele>1080.2</ele>
        <time>2021-10-09T07:51:35Z</time>
      </trkpt>
      <trkpt lat="44.87801" lon="5.42525">
        <ele>1080.2</ele>
        <time>2021-10-09T07:51:36Z</time>
      </trkpt>
      <trkpt lat="44.87802" lon="5.42526">
        <ele>1080.2</ele>
        <time>2021-10-09T07:51:37Z</time>
      </trkpt>
      <trkpt lat="44.87803" lon="5.42527">
        <ele>1080.6</ele>
        <time>2021-10-09T07:51:38Z</time>
      </trkpt>
      <trkpt lat="44.87804" lon="5.42528">
        <ele>1080.8</ele>
        <time>2021-10-09T07:51:39Z</time>
      </trkpt>
      <trkpt lat="44.87805" lon="5.42529">
        <ele>1080.8</ele>
        <time>2021-10-09T07:51:40Z</time>
      </trkpt>
      <trkpt lat="44.87806" lon="5.4253">
        <ele>1080.8</ele>
        <time>2021-10-09T07:51:41Z</time>
      </trkpt>
      <trkpt lat="44.87807" lon="5.42531">
        <ele>1081.4</ele>
        <time>2021-10-09T07:51:42Z</time>
      </trkpt>
      <trkpt lat="44.87809" lon="5.42532">
        <ele>1081.4</ele>
        <time>2021-10-09T07:51:43Z</time>
      </trkpt>
      <trkpt lat="44.8781" lon="5.42533">
        <ele>1081.4</ele>
        <time>2021-10-09T07:51:44Z</time>
      </trkpt>
      <trkpt lat="44.87811" lon="5.42534">
        <ele>1081.4</ele>
        <time>2021-10-09T07:51:45Z</time>
      </trkpt>
      <trkpt lat="44.87812" lon="5.42534">
        <ele>1081.4</ele>
        <time>2021-10-09T07:51:46Z</time>
      </trkpt>
      <trkpt lat="44.87813" lon="5.42535">
        <ele>1082</ele>
        <time>2021-10-09T07:51:47Z</time>
      </trkpt>
      <trkpt lat="44.87813" lon="5.42536">
        <ele>1082</ele>
        <time>2021-10-09T07:51:48Z</time>
      </trkpt>
      <trkpt lat="44.87814" lon="5.42537">
        <ele>1082</ele>
        <time>2021-10-09T07:51:49Z</time>
      </trkpt>
      <trkpt lat="44.87816" lon="5.42538">
        <ele>1082</ele>
        <time>2021-10-09T07:51:50Z</time>
      </trkpt>
      <trkpt lat="44.87817" lon="5.42539">
        <ele>1082.2</ele>
        <time>2021-10-09T07:51:51Z</time>
      </trkpt>
      <trkpt lat="44.87818" lon="5.4254">
        <ele>1082.2</ele>
        <time>2021-10-09T07:51:52Z</time>
      </trkpt>
      <trkpt lat="44.8782" lon="5.42541">
        <ele>1082.2</ele>
        <time>2021-10-09T07:51:53Z</time>
      </trkpt>
      <trkpt lat="44.8782" lon="5.42542">
        <ele>1082.8</ele>
        <time>2021-10-09T07:51:54Z</time>
      </trkpt>
      <trkpt lat="44.87821" lon="5.42542">
        <ele>1083.2</ele>
        <time>2021-10-09T07:51:55Z</time>
      </trkpt>
      <trkpt lat="44.87822" lon="5.42543">
        <ele>1083.2</ele>
        <time>2021-10-09T07:51:56Z</time>
      </trkpt>
      <trkpt lat="44.87823" lon="5.42544">
        <ele>1083.2</ele>
        <time>2021-10-09T07:51:57Z</time>
      </trkpt>
      <trkpt lat="44.87825" lon="5.42545">
        <ele>1083.2</ele>
        <time>2021-10-09T07:51:58Z</time>
      </trkpt>
      <trkpt lat="44.87826" lon="5.42546">
        <ele>1083.8</ele>
        <time>2021-10-09T07:51:59Z</time>
      </trkpt>
      <trkpt lat="44.87826" lon="5.42547">
        <ele>1083.8</ele>
        <time>2021-10-09T07:52:00Z</time>
      </trkpt>
      <trkpt lat="44.87827" lon="5.42548">
        <ele>1083.8</ele>
        <time>2021-10-09T07:52:01Z</time>
      </trkpt>
      <trkpt lat="44.87829" lon="5.4255">
        <ele>1083.8</ele>
        <time>2021-10-09T07:52:02Z</time>
      </trkpt>
      <trkpt lat="44.8783" lon="5.4255">
        <ele>1084.6</ele>
        <time>2021-10-09T07:52:03Z</time>
      </trkpt>
      <trkpt lat="44.87832" lon="5.42551">
        <ele>1084.6</ele>
        <time>2021-10-09T07:52:04Z</time>
      </trkpt>
      <trkpt lat="44.87834" lon="5.42553">
        <ele>1084.6</ele>
        <time>2021-10-09T07:52:05Z</time>
      </trkpt>
      <trkpt lat="44.87836" lon="5.42554">
        <ele>1085.4</ele>
        <time>2021-10-09T07:52:06Z</time>
      </trkpt>
      <trkpt lat="44.87837" lon="5.42555">
        <ele>1085.8</ele>
        <time>2021-10-09T07:52:07Z</time>
      </trkpt>
      <trkpt lat="44.87839" lon="5.42556">
        <ele>1085.8</ele>
        <time>2021-10-09T07:52:08Z</time>
      </trkpt>
      <trkpt lat="44.8784" lon="5.42556">
        <ele>1085.8</ele>
        <time>2021-10-09T07:52:09Z</time>
      </trkpt>
      <trkpt lat="44.87842" lon="5.42557">
        <ele>1085.8</ele>
        <time>2021-10-09T07:52:10Z</time>
      </trkpt>
      <trkpt lat="44.87843" lon="5.42559">
        <ele>1086.4</ele>
        <time>2021-10-09T07:52:11Z</time>
      </trkpt>
      <trkpt lat="44.87844" lon="5.4256">
        <ele>1086.4</ele>
        <time>2021-10-09T07:52:12Z</time>
      </trkpt>
      <trkpt lat="44.87844" lon="5.42562">
        <ele>1086.4</ele>
        <time>2021-10-09T07:52:13Z</time>
      </trkpt>
      <trkpt lat="44.87845" lon="5.42564">
        <ele>1086.4</ele>
        <time>2021-10-09T07:52:14Z</time>
      </trkpt>
      <trkpt lat="44.87845" lon="5.42566">
        <ele>1086.6</ele>
        <time>2021-10-09T07:52:15Z</time>
      </trkpt>
      <trkpt lat="44.87845" lon="5.42568">
        <ele>1086.6</ele>
        <time>2021-10-09T07:52:16Z</time>
      </trkpt>
      <trkpt lat="44.87844" lon="5.4257">
        <ele>1086.6</ele>
        <time>2021-10-09T07:52:17Z</time>
      </trkpt>
      <trkpt lat="44.87843" lon="5.42571">
        <ele>1086.6</ele>
        <time>2021-10-09T07:52:18Z</time>
      </trkpt>
      <trkpt lat="44.87843" lon="5.42571">
        <ele>1086.8</ele>
        <time>2021-10-09T07:52:19Z</time>
      </trkpt>
      <trkpt lat="44.87842" lon="5.42572">
        <ele>1086.8</ele>
        <time>2021-10-09T07:52:20Z</time>
      </trkpt>
      <trkpt lat="44.87842" lon="5.42572">
        <ele>1086.8</ele>
        <time>2021-10-09T07:52:21Z</time>
      </trkpt>
      <trkpt lat="44.87841" lon="5.42572">
        <ele>1086.8</ele>
        <time>2021-10-09T07:52:22Z</time>
      </trkpt>
      <trkpt lat="44.8784" lon="5.42572">
        <ele>1086.8</ele>
        <time>2021-10-09T07:52:23Z</time>
      </trkpt>
      <trkpt lat="44.87839" lon="5.42572">
        <ele>1086.8</ele>
        <time>2021-10-09T07:52:24Z</time>
      </trkpt>
      <trkpt lat="44.87838" lon="5.42571">
        <ele>1086.8</ele>
        <time>2021-10-09T07:52:25Z</time>
      </trkpt>
      <trkpt lat="44.87836" lon="5.42572">
        <ele>1087</ele>
        <time>2021-10-09T07:52:26Z</time>
      </trkpt>
      <trkpt lat="44.87835" lon="5.42571">
        <ele>1087.2</ele>
        <time>2021-10-09T07:52:27Z</time>
      </trkpt>
      <trkpt lat="44.87834" lon="5.42571">
        <ele>1087.2</ele>
        <time>2021-10-09T07:52:28Z</time>
      </trkpt>
      <trkpt lat="44.87832" lon="5.42571">
        <ele>1087.2</ele>
        <time>2021-10-09T07:52:29Z</time>
      </trkpt>
      <trkpt lat="44.87831" lon="5.4257">
        <ele>1087.8</ele>
        <time>2021-10-09T07:52:30Z</time>
      </trkpt>
      <trkpt lat="44.87829" lon="5.42569">
        <ele>1087.6</ele>
        <time>2021-10-09T07:52:31Z</time>
      </trkpt>
      <trkpt lat="44.87828" lon="5.42569">
        <ele>1087.6</ele>
        <time>2021-10-09T07:52:32Z</time>
      </trkpt>
      <trkpt lat="44.87826" lon="5.42568">
        <ele>1087.6</ele>
        <time>2021-10-09T07:52:33Z</time>
      </trkpt>
      <trkpt lat="44.87825" lon="5.42568">
        <ele>1088.2</ele>
        <time>2021-10-09T07:52:34Z</time>
      </trkpt>
      <trkpt lat="44.87823" lon="5.42568">
        <ele>1088.2</ele>
        <time>2021-10-09T07:52:35Z</time>
      </trkpt>
      <trkpt lat="44.87821" lon="5.42567">
        <ele>1088.2</ele>
        <time>2021-10-09T07:52:36Z</time>
      </trkpt>
      <trkpt lat="44.87819" lon="5.42566">
        <ele>1088.2</ele>
        <time>2021-10-09T07:52:37Z</time>
      </trkpt>
      <trkpt lat="44.87817" lon="5.42566">
        <ele>1088.8</ele>
        <time>2021-10-09T07:52:38Z</time>
      </trkpt>
      <trkpt lat="44.87816" lon="5.42565">
        <ele>1089</ele>
        <time>2021-10-09T07:52:39Z</time>
      </trkpt>
      <trkpt lat="44.87814" lon="5.42565">
        <ele>1089</ele>
        <time>2021-10-09T07:52:40Z</time>
      </trkpt>
      <trkpt lat="44.87812" lon="5.42564">
        <ele>1089</ele>
        <time>2021-10-09T07:52:41Z</time>
      </trkpt>
      <trkpt lat="44.87811" lon="5.42563">
        <ele>1089.6</ele>
        <time>2021-10-09T07:52:42Z</time>
      </trkpt>
      <trkpt lat="44.87809" lon="5.42563">
        <ele>1090</ele>
        <time>2021-10-09T07:52:43Z</time>
      </trkpt>
      <trkpt lat="44.87808" lon="5.42563">
        <ele>1090</ele>
        <time>2021-10-09T07:52:44Z</time>
      </trkpt>
      <trkpt lat="44.87806" lon="5.42562">
        <ele>1090</ele>
        <time>2021-10-09T07:52:45Z</time>
      </trkpt>
      <trkpt lat="44.87805" lon="5.42562">
        <ele>1090</ele>
        <time>2021-10-09T07:52:46Z</time>
      </trkpt>
      <trkpt lat="44.87803" lon="5.42562">
        <ele>1090.2</ele>
        <time>2021-10-09T07:52:47Z</time>
      </trkpt>
      <trkpt lat="44.87801" lon="5.42561">
        <ele>1090.2</ele>
        <time>2021-10-09T07:52:48Z</time>
      </trkpt>
      <trkpt lat="44.878" lon="5.42561">
        <ele>1090.2</ele>
        <time>2021-10-09T07:52:49Z</time>
      </trkpt>
      <trkpt lat="44.87798" lon="5.4256">
        <ele>1090.8</ele>
        <time>2021-10-09T07:52:50Z</time>
      </trkpt>
      <trkpt lat="44.87797" lon="5.4256">
        <ele>1090.6</ele>
        <time>2021-10-09T07:52:51Z</time>
      </trkpt>
      <trkpt lat="44.87796" lon="5.42559">
        <ele>1090.6</ele>
        <time>2021-10-09T07:52:52Z</time>
      </trkpt>
      <trkpt lat="44.87794" lon="5.42559">
        <ele>1090.6</ele>
        <time>2021-10-09T07:52:53Z</time>
      </trkpt>
      <trkpt lat="44.87792" lon="5.42558">
        <ele>1091.2</ele>
        <time>2021-10-09T07:52:54Z</time>
      </trkpt>
      <trkpt lat="44.8779" lon="5.42558">
        <ele>1091.2</ele>
        <time>2021-10-09T07:52:55Z</time>
      </trkpt>
      <trkpt lat="44.87789" lon="5.42557">
        <ele>1091.2</ele>
        <time>2021-10-09T07:52:56Z</time>
      </trkpt>
      <trkpt lat="44.87787" lon="5.42557">
        <ele>1091.2</ele>
        <time>2021-10-09T07:52:57Z</time>
      </trkpt>
      <trkpt lat="44.87786" lon="5.42556">
        <ele>1091.8</ele>
        <time>2021-10-09T07:52:58Z</time>
      </trkpt>
      <trkpt lat="44.87784" lon="5.42556">
        <ele>1091.6</ele>
        <time>2021-10-09T07:52:59Z</time>
      </trkpt>
      <trkpt lat="44.87783" lon="5.42555">
        <ele>1091.6</ele>
        <time>2021-10-09T07:53:00Z</time>
      </trkpt>
      <trkpt lat="44.87781" lon="5.42554">
        <ele>1091.6</ele>
        <time>2021-10-09T07:53:01Z</time>
      </trkpt>
      <trkpt lat="44.8778" lon="5.42554">
        <ele>1092</ele>
        <time>2021-10-09T07:53:02Z</time>
      </trkpt>
      <trkpt lat="44.87778" lon="5.42553">
        <ele>1091.8</ele>
        <time>2021-10-09T07:53:03Z</time>
      </trkpt>
      <trkpt lat="44.87777" lon="5.42553">
        <ele>1091.8</ele>
        <time>2021-10-09T07:53:04Z</time>
      </trkpt>
      <trkpt lat="44.87775" lon="5.42552">
        <ele>1091.8</ele>
        <time>2021-10-09T07:53:05Z</time>
      </trkpt>
      <trkpt lat="44.87773" lon="5.42553">
        <ele>1092.4</ele>
        <time>2021-10-09T07:53:06Z</time>
      </trkpt>
      <trkpt lat="44.87771" lon="5.42552">
        <ele>1092.8</ele>
        <time>2021-10-09T07:53:07Z</time>
      </trkpt>
      <trkpt lat="44.8777" lon="5.42551">
        <ele>1092.8</ele>
        <time>2021-10-09T07:53:08Z</time>
      </trkpt>
      <trkpt lat="44.87768" lon="5.4255">
        <ele>1092.8</ele>
        <time>2021-10-09T07:53:09Z</time>
      </trkpt>
      <trkpt lat="44.87766" lon="5.42549">
        <ele>1092.8</ele>
        <time>2021-10-09T07:53:10Z</time>
      </trkpt>
      <trkpt lat="44.87764" lon="5.42549">
        <ele>1093.2</ele>
        <time>2021-10-09T07:53:11Z</time>
      </trkpt>
      <trkpt lat="44.87763" lon="5.42548">
        <ele>1093.2</ele>
        <time>2021-10-09T07:53:12Z</time>
      </trkpt>
      <trkpt lat="44.87761" lon="5.42548">
        <ele>1093.2</ele>
        <time>2021-10-09T07:53:13Z</time>
      </trkpt>
      <trkpt lat="44.8776" lon="5.42547">
        <ele>1093.2</ele>
        <time>2021-10-09T07:53:14Z</time>
      </trkpt>
      <trkpt lat="44.87757" lon="5.42546">
        <ele>1093.6</ele>
        <time>2021-10-09T07:53:15Z</time>
      </trkpt>
      <trkpt lat="44.87755" lon="5.42545">
        <ele>1093.6</ele>
        <time>2021-10-09T07:53:16Z</time>
      </trkpt>
      <trkpt lat="44.87754" lon="5.42545">
        <ele>1093.6</ele>
        <time>2021-10-09T07:53:17Z</time>
      </trkpt>
      <trkpt lat="44.87753" lon="5.42545">
        <ele>1094.2</ele>
        <time>2021-10-09T07:53:18Z</time>
      </trkpt>
      <trkpt lat="44.87751" lon="5.42545">
        <ele>1094</ele>
        <time>2021-10-09T07:53:19Z</time>
      </trkpt>
      <trkpt lat="44.8775" lon="5.42545">
        <ele>1094</ele>
        <time>2021-10-09T07:53:20Z</time>
      </trkpt>
      <trkpt lat="44.87748" lon="5.42545">
        <ele>1094</ele>
        <time>2021-10-09T07:53:21Z</time>
      </trkpt>
      <trkpt lat="44.87746" lon="5.42544">
        <ele>1095</ele>
        <time>2021-10-09T07:53:22Z</time>
      </trkpt>
      <trkpt lat="44.87744" lon="5.42543">
        <ele>1095.4</ele>
        <time>2021-10-09T07:53:23Z</time>
      </trkpt>
      <trkpt lat="44.87743" lon="5.42543">
        <ele>1095.4</ele>
        <time>2021-10-09T07:53:24Z</time>
      </trkpt>
      <trkpt lat="44.87741" lon="5.42542">
        <ele>1095.4</ele>
        <time>2021-10-09T07:53:25Z</time>
      </trkpt>
      <trkpt lat="44.8774" lon="5.42542">
        <ele>1095.4</ele>
        <time>2021-10-09T07:53:26Z</time>
      </trkpt>
      <trkpt lat="44.87737" lon="5.42543">
        <ele>1096</ele>
        <time>2021-10-09T07:53:27Z</time>
      </trkpt>
      <trkpt lat="44.87736" lon="5.42543">
        <ele>1096</ele>
        <time>2021-10-09T07:53:28Z</time>
      </trkpt>
      <trkpt lat="44.87735" lon="5.42543">
        <ele>1096</ele>
        <time>2021-10-09T07:53:29Z</time>
      </trkpt>
      <trkpt lat="44.87733" lon="5.42542">
        <ele>1096</ele>
        <time>2021-10-09T07:53:30Z</time>
      </trkpt>
      <trkpt lat="44.87731" lon="5.42541">
        <ele>1096</ele>
        <time>2021-10-09T07:53:31Z</time>
      </trkpt>
      <trkpt lat="44.8773" lon="5.42541">
        <ele>1096</ele>
        <time>2021-10-09T07:53:32Z</time>
      </trkpt>
      <trkpt lat="44.87728" lon="5.42541">
        <ele>1096</ele>
        <time>2021-10-09T07:53:33Z</time>
      </trkpt>
      <trkpt lat="44.87726" lon="5.42541">
        <ele>1096</ele>
        <time>2021-10-09T07:53:34Z</time>
      </trkpt>
      <trkpt lat="44.87724" lon="5.42541">
        <ele>1096.8</ele>
        <time>2021-10-09T07:53:35Z</time>
      </trkpt>
      <trkpt lat="44.87722" lon="5.42541">
        <ele>1096.8</ele>
        <time>2021-10-09T07:53:36Z</time>
      </trkpt>
      <trkpt lat="44.8772" lon="5.4254">
        <ele>1096.8</ele>
        <time>2021-10-09T07:53:37Z</time>
      </trkpt>
      <trkpt lat="44.87719" lon="5.42541">
        <ele>1097.6</ele>
        <time>2021-10-09T07:53:38Z</time>
      </trkpt>
      <trkpt lat="44.87717" lon="5.42541">
        <ele>1097.6</ele>
        <time>2021-10-09T07:53:39Z</time>
      </trkpt>
      <trkpt lat="44.87714" lon="5.42541">
        <ele>1097.6</ele>
        <time>2021-10-09T07:53:40Z</time>
      </trkpt>
      <trkpt lat="44.87712" lon="5.42541">
        <ele>1097.6</ele>
        <time>2021-10-09T07:53:41Z</time>
      </trkpt>
      <trkpt lat="44.8771" lon="5.42542">
        <ele>1098.2</ele>
        <time>2021-10-09T07:53:42Z</time>
      </trkpt>
      <trkpt lat="44.87708" lon="5.42542">
        <ele>1098</ele>
        <time>2021-10-09T07:53:43Z</time>
      </trkpt>
      <trkpt lat="44.87706" lon="5.42542">
        <ele>1098</ele>
        <time>2021-10-09T07:53:44Z</time>
      </trkpt>
      <trkpt lat="44.87705" lon="5.42541">
        <ele>1098</ele>
        <time>2021-10-09T07:53:45Z</time>
      </trkpt>
      <trkpt lat="44.87703" lon="5.42542">
        <ele>1098.8</ele>
        <time>2021-10-09T07:53:46Z</time>
      </trkpt>
      <trkpt lat="44.87701" lon="5.42542">
        <ele>1098.8</ele>
        <time>2021-10-09T07:53:47Z</time>
      </trkpt>
      <trkpt lat="44.87699" lon="5.42541">
        <ele>1098.8</ele>
        <time>2021-10-09T07:53:48Z</time>
      </trkpt>
      <trkpt lat="44.87697" lon="5.42541">
        <ele>1098.8</ele>
        <time>2021-10-09T07:53:49Z</time>
      </trkpt>
      <trkpt lat="44.87695" lon="5.42541">
        <ele>1099.4</ele>
        <time>2021-10-09T07:53:50Z</time>
      </trkpt>
      <trkpt lat="44.87693" lon="5.4254">
        <ele>1099.4</ele>
        <time>2021-10-09T07:53:51Z</time>
      </trkpt>
      <trkpt lat="44.87691" lon="5.4254">
        <ele>1099.4</ele>
        <time>2021-10-09T07:53:52Z</time>
      </trkpt>
      <trkpt lat="44.8769" lon="5.42539">
        <ele>1099.4</ele>
        <time>2021-10-09T07:53:53Z</time>
      </trkpt>
      <trkpt lat="44.87688" lon="5.42539">
        <ele>1099.6</ele>
        <time>2021-10-09T07:53:54Z</time>
      </trkpt>
      <trkpt lat="44.87687" lon="5.42539">
        <ele>1100.4</ele>
        <time>2021-10-09T07:53:55Z</time>
      </trkpt>
      <trkpt lat="44.87685" lon="5.42539">
        <ele>1100.4</ele>
        <time>2021-10-09T07:53:56Z</time>
      </trkpt>
      <trkpt lat="44.87682" lon="5.42539">
        <ele>1100.4</ele>
        <time>2021-10-09T07:53:57Z</time>
      </trkpt>
      <trkpt lat="44.8768" lon="5.42539">
        <ele>1100.8</ele>
        <time>2021-10-09T07:53:58Z</time>
      </trkpt>
      <trkpt lat="44.87679" lon="5.42539">
        <ele>1100.8</ele>
        <time>2021-10-09T07:53:59Z</time>
      </trkpt>
      <trkpt lat="44.87677" lon="5.42539">
        <ele>1100.8</ele>
        <time>2021-10-09T07:54:00Z</time>
      </trkpt>
      <trkpt lat="44.87675" lon="5.42539">
        <ele>1100.8</ele>
        <time>2021-10-09T07:54:01Z</time>
      </trkpt>
      <trkpt lat="44.87673" lon="5.42539">
        <ele>1101.4</ele>
        <time>2021-10-09T07:54:02Z</time>
      </trkpt>
      <trkpt lat="44.87671" lon="5.42539">
        <ele>1101.4</ele>
        <time>2021-10-09T07:54:03Z</time>
      </trkpt>
      <trkpt lat="44.87669" lon="5.4254">
        <ele>1101.4</ele>
        <time>2021-10-09T07:54:04Z</time>
      </trkpt>
      <trkpt lat="44.87668" lon="5.42539">
        <ele>1101.4</ele>
        <time>2021-10-09T07:54:05Z</time>
      </trkpt>
      <trkpt lat="44.87666" lon="5.42539">
        <ele>1102</ele>
        <time>2021-10-09T07:54:06Z</time>
      </trkpt>
      <trkpt lat="44.87664" lon="5.42539">
        <ele>1101.8</ele>
        <time>2021-10-09T07:54:07Z</time>
      </trkpt>
      <trkpt lat="44.87662" lon="5.42539">
        <ele>1101.8</ele>
        <time>2021-10-09T07:54:08Z</time>
      </trkpt>
      <trkpt lat="44.87661" lon="5.4254">
        <ele>1101.8</ele>
        <time>2021-10-09T07:54:09Z</time>
      </trkpt>
      <trkpt lat="44.87659" lon="5.42539">
        <ele>1102.2</ele>
        <time>2021-10-09T07:54:10Z</time>
      </trkpt>
      <trkpt lat="44.87657" lon="5.42539">
        <ele>1102.6</ele>
        <time>2021-10-09T07:54:11Z</time>
      </trkpt>
      <trkpt lat="44.87656" lon="5.42539">
        <ele>1102.6</ele>
        <time>2021-10-09T07:54:12Z</time>
      </trkpt>
      <trkpt lat="44.87654" lon="5.42539">
        <ele>1102.6</ele>
        <time>2021-10-09T07:54:13Z</time>
      </trkpt>
      <trkpt lat="44.87653" lon="5.42539">
        <ele>1102.6</ele>
        <time>2021-10-09T07:54:14Z</time>
      </trkpt>
      <trkpt lat="44.87651" lon="5.42539">
        <ele>1103.2</ele>
        <time>2021-10-09T07:54:15Z</time>
      </trkpt>
      <trkpt lat="44.8765" lon="5.42539">
        <ele>1103.2</ele>
        <time>2021-10-09T07:54:16Z</time>
      </trkpt>
      <trkpt lat="44.87648" lon="5.42539">
        <ele>1103.2</ele>
        <time>2021-10-09T07:54:17Z</time>
      </trkpt>
      <trkpt lat="44.87647" lon="5.42539">
        <ele>1103.4</ele>
        <time>2021-10-09T07:54:18Z</time>
      </trkpt>
      <trkpt lat="44.87645" lon="5.42538">
        <ele>1103.6</ele>
        <time>2021-10-09T07:54:19Z</time>
      </trkpt>
      <trkpt lat="44.87643" lon="5.42538">
        <ele>1103.6</ele>
        <time>2021-10-09T07:54:20Z</time>
      </trkpt>
      <trkpt lat="44.87642" lon="5.42538">
        <ele>1103.6</ele>
        <time>2021-10-09T07:54:21Z</time>
      </trkpt>
      <trkpt lat="44.8764" lon="5.42538">
        <ele>1104.2</ele>
        <time>2021-10-09T07:54:22Z</time>
      </trkpt>
      <trkpt lat="44.87639" lon="5.42538">
        <ele>1104.4</ele>
        <time>2021-10-09T07:54:23Z</time>
      </trkpt>
      <trkpt lat="44.87637" lon="5.42539">
        <ele>1104.4</ele>
        <time>2021-10-09T07:54:24Z</time>
      </trkpt>
      <trkpt lat="44.87636" lon="5.42539">
        <ele>1104.4</ele>
        <time>2021-10-09T07:54:25Z</time>
      </trkpt>
      <trkpt lat="44.87634" lon="5.4254">
        <ele>1105</ele>
        <time>2021-10-09T07:54:26Z</time>
      </trkpt>
      <trkpt lat="44.87632" lon="5.4254">
        <ele>1105</ele>
        <time>2021-10-09T07:54:27Z</time>
      </trkpt>
      <trkpt lat="44.8763" lon="5.4254">
        <ele>1105</ele>
        <time>2021-10-09T07:54:28Z</time>
      </trkpt>
      <trkpt lat="44.87628" lon="5.4254">
        <ele>1105</ele>
        <time>2021-10-09T07:54:29Z</time>
      </trkpt>
      <trkpt lat="44.87627" lon="5.4254">
        <ele>1105</ele>
        <time>2021-10-09T07:54:30Z</time>
      </trkpt>
      <trkpt lat="44.87625" lon="5.4254">
        <ele>1105.4</ele>
        <time>2021-10-09T07:54:31Z</time>
      </trkpt>
      <trkpt lat="44.87623" lon="5.4254">
        <ele>1105.4</ele>
        <time>2021-10-09T07:54:32Z</time>
      </trkpt>
      <trkpt lat="44.87621" lon="5.4254">
        <ele>1105.4</ele>
        <time>2021-10-09T07:54:33Z</time>
      </trkpt>
      <trkpt lat="44.87619" lon="5.4254">
        <ele>1105.4</ele>
        <time>2021-10-09T07:54:34Z</time>
      </trkpt>
      <trkpt lat="44.87618" lon="5.4254">
        <ele>1105.4</ele>
        <time>2021-10-09T07:54:35Z</time>
      </trkpt>
      <trkpt lat="44.87616" lon="5.42541">
        <ele>1105.4</ele>
        <time>2021-10-09T07:54:36Z</time>
      </trkpt>
      <trkpt lat="44.87614" lon="5.42541">
        <ele>1105.4</ele>
        <time>2021-10-09T07:54:37Z</time>
      </trkpt>
      <trkpt lat="44.87612" lon="5.42541">
        <ele>1106</ele>
        <time>2021-10-09T07:54:38Z</time>
      </trkpt>
      <trkpt lat="44.8761" lon="5.42541">
        <ele>1106.2</ele>
        <time>2021-10-09T07:54:39Z</time>
      </trkpt>
      <trkpt lat="44.87609" lon="5.4254">
        <ele>1106.2</ele>
        <time>2021-10-09T07:54:40Z</time>
      </trkpt>
      <trkpt lat="44.87607" lon="5.4254">
        <ele>1106.2</ele>
        <time>2021-10-09T07:54:41Z</time>
      </trkpt>
      <trkpt lat="44.87605" lon="5.42539">
        <ele>1106.8</ele>
        <time>2021-10-09T07:54:42Z</time>
      </trkpt>
      <trkpt lat="44.87603" lon="5.42538">
        <ele>1106.8</ele>
        <time>2021-10-09T07:54:43Z</time>
      </trkpt>
      <trkpt lat="44.87602" lon="5.42537">
        <ele>1106.8</ele>
        <time>2021-10-09T07:54:44Z</time>
      </trkpt>
      <trkpt lat="44.87599" lon="5.42537">
        <ele>1106.8</ele>
        <time>2021-10-09T07:54:45Z</time>
      </trkpt>
      <trkpt lat="44.87597" lon="5.42536">
        <ele>1107.2</ele>
        <time>2021-10-09T07:54:46Z</time>
      </trkpt>
      <trkpt lat="44.87596" lon="5.42536">
        <ele>1107.4</ele>
        <time>2021-10-09T07:54:47Z</time>
      </trkpt>
      <trkpt lat="44.87594" lon="5.42536">
        <ele>1107.4</ele>
        <time>2021-10-09T07:54:48Z</time>
      </trkpt>
      <trkpt lat="44.87591" lon="5.42537">
        <ele>1107.4</ele>
        <time>2021-10-09T07:54:49Z</time>
      </trkpt>
      <trkpt lat="44.87589" lon="5.42536">
        <ele>1107.4</ele>
        <time>2021-10-09T07:54:50Z</time>
      </trkpt>
      <trkpt lat="44.87587" lon="5.42536">
        <ele>1107.6</ele>
        <time>2021-10-09T07:54:51Z</time>
      </trkpt>
      <trkpt lat="44.87585" lon="5.42537">
        <ele>1107.6</ele>
        <time>2021-10-09T07:54:52Z</time>
      </trkpt>
      <trkpt lat="44.87582" lon="5.42537">
        <ele>1107.6</ele>
        <time>2021-10-09T07:54:53Z</time>
      </trkpt>
      <trkpt lat="44.8758" lon="5.42538">
        <ele>1108</ele>
        <time>2021-10-09T07:54:54Z</time>
      </trkpt>
      <trkpt lat="44.87578" lon="5.42538">
        <ele>1108.4</ele>
        <time>2021-10-09T07:54:55Z</time>
      </trkpt>
      <trkpt lat="44.87576" lon="5.42539">
        <ele>1108.4</ele>
        <time>2021-10-09T07:54:56Z</time>
      </trkpt>
      <trkpt lat="44.87574" lon="5.42539">
        <ele>1108.4</ele>
        <time>2021-10-09T07:54:57Z</time>
      </trkpt>
      <trkpt lat="44.87572" lon="5.42541">
        <ele>1108.4</ele>
        <time>2021-10-09T07:54:58Z</time>
      </trkpt>
      <trkpt lat="44.8757" lon="5.42541">
        <ele>1109.2</ele>
        <time>2021-10-09T07:54:59Z</time>
      </trkpt>
      <trkpt lat="44.87568" lon="5.42541">
        <ele>1109.2</ele>
        <time>2021-10-09T07:55:00Z</time>
      </trkpt>
      <trkpt lat="44.87566" lon="5.42541">
        <ele>1109.2</ele>
        <time>2021-10-09T07:55:01Z</time>
      </trkpt>
      <trkpt lat="44.87564" lon="5.42542">
        <ele>1109.2</ele>
        <time>2021-10-09T07:55:02Z</time>
      </trkpt>
      <trkpt lat="44.8756" lon="5.42544">
        <ele>1109.4</ele>
        <time>2021-10-09T07:55:03Z</time>
      </trkpt>
      <trkpt lat="44.87559" lon="5.42544">
        <ele>1109.4</ele>
        <time>2021-10-09T07:55:04Z</time>
      </trkpt>
      <trkpt lat="44.87556" lon="5.42544">
        <ele>1109.4</ele>
        <time>2021-10-09T07:55:05Z</time>
      </trkpt>
      <trkpt lat="44.87554" lon="5.42545">
        <ele>1109.8</ele>
        <time>2021-10-09T07:55:06Z</time>
      </trkpt>
      <trkpt lat="44.87552" lon="5.42546">
        <ele>1109.6</ele>
        <time>2021-10-09T07:55:07Z</time>
      </trkpt>
      <trkpt lat="44.87549" lon="5.42548">
        <ele>1109.6</ele>
        <time>2021-10-09T07:55:08Z</time>
      </trkpt>
      <trkpt lat="44.87547" lon="5.42548">
        <ele>1109.6</ele>
        <time>2021-10-09T07:55:09Z</time>
      </trkpt>
      <trkpt lat="44.87545" lon="5.42549">
        <ele>1110.6</ele>
        <time>2021-10-09T07:55:10Z</time>
      </trkpt>
      <trkpt lat="44.87543" lon="5.4255">
        <ele>1110.4</ele>
        <time>2021-10-09T07:55:11Z</time>
      </trkpt>
      <trkpt lat="44.87542" lon="5.4255">
        <ele>1110.4</ele>
        <time>2021-10-09T07:55:12Z</time>
      </trkpt>
      <trkpt lat="44.8754" lon="5.42551">
        <ele>1110.4</ele>
        <time>2021-10-09T07:55:13Z</time>
      </trkpt>
      <trkpt lat="44.87538" lon="5.4255">
        <ele>1110.8</ele>
        <time>2021-10-09T07:55:14Z</time>
      </trkpt>
      <trkpt lat="44.87536" lon="5.42551">
        <ele>1111.2</ele>
        <time>2021-10-09T07:55:15Z</time>
      </trkpt>
      <trkpt lat="44.87534" lon="5.42552">
        <ele>1111.2</ele>
        <time>2021-10-09T07:55:16Z</time>
      </trkpt>
      <trkpt lat="44.87532" lon="5.42553">
        <ele>1111.2</ele>
        <time>2021-10-09T07:55:17Z</time>
      </trkpt>
      <trkpt lat="44.8753" lon="5.42553">
        <ele>1111.6</ele>
        <time>2021-10-09T07:55:18Z</time>
      </trkpt>
      <trkpt lat="44.87529" lon="5.42555">
        <ele>1111.8</ele>
        <time>2021-10-09T07:55:19Z</time>
      </trkpt>
      <trkpt lat="44.87527" lon="5.42556">
        <ele>1111.8</ele>
        <time>2021-10-09T07:55:20Z</time>
      </trkpt>
      <trkpt lat="44.87525" lon="5.42557">
        <ele>1111.8</ele>
        <time>2021-10-09T07:55:21Z</time>
      </trkpt>
      <trkpt lat="44.87523" lon="5.42557">
        <ele>1111.8</ele>
        <time>2021-10-09T07:55:22Z</time>
      </trkpt>
      <trkpt lat="44.87521" lon="5.42557">
        <ele>1112.4</ele>
        <time>2021-10-09T07:55:23Z</time>
      </trkpt>
      <trkpt lat="44.87519" lon="5.42558">
        <ele>1112.4</ele>
        <time>2021-10-09T07:55:24Z</time>
      </trkpt>
      <trkpt lat="44.87518" lon="5.42558">
        <ele>1112.4</ele>
        <time>2021-10-09T07:55:25Z</time>
      </trkpt>
      <trkpt lat="44.87517" lon="5.4256">
        <ele>1113</ele>
        <time>2021-10-09T07:55:26Z</time>
      </trkpt>
      <trkpt lat="44.87515" lon="5.4256">
        <ele>1113.2</ele>
        <time>2021-10-09T07:55:27Z</time>
      </trkpt>
      <trkpt lat="44.87513" lon="5.42561">
        <ele>1113.2</ele>
        <time>2021-10-09T07:55:28Z</time>
      </trkpt>
      <trkpt lat="44.87511" lon="5.42561">
        <ele>1113.2</ele>
        <time>2021-10-09T07:55:29Z</time>
      </trkpt>
      <trkpt lat="44.87509" lon="5.42562">
        <ele>1113.2</ele>
        <time>2021-10-09T07:55:30Z</time>
      </trkpt>
      <trkpt lat="44.87507" lon="5.42563">
        <ele>1113.8</ele>
        <time>2021-10-09T07:55:31Z</time>
      </trkpt>
      <trkpt lat="44.87505" lon="5.42563">
        <ele>1113.8</ele>
        <time>2021-10-09T07:55:32Z</time>
      </trkpt>
      <trkpt lat="44.87503" lon="5.42564">
        <ele>1113.8</ele>
        <time>2021-10-09T07:55:33Z</time>
      </trkpt>
      <trkpt lat="44.87501" lon="5.42566">
        <ele>1113.8</ele>
        <time>2021-10-09T07:55:34Z</time>
      </trkpt>
      <trkpt lat="44.87499" lon="5.42566">
        <ele>1114</ele>
        <time>2021-10-09T07:55:35Z</time>
      </trkpt>
      <trkpt lat="44.87497" lon="5.42566">
        <ele>1114</ele>
        <time>2021-10-09T07:55:36Z</time>
      </trkpt>
      <trkpt lat="44.87495" lon="5.42567">
        <ele>1114</ele>
        <time>2021-10-09T07:55:37Z</time>
      </trkpt>
      <trkpt lat="44.87493" lon="5.42567">
        <ele>1114</ele>
        <time>2021-10-09T07:55:38Z</time>
      </trkpt>
      <trkpt lat="44.87491" lon="5.42567">
        <ele>1114.6</ele>
        <time>2021-10-09T07:55:39Z</time>
      </trkpt>
      <trkpt lat="44.87489" lon="5.42567">
        <ele>1114.6</ele>
        <time>2021-10-09T07:55:40Z</time>
      </trkpt>
      <trkpt lat="44.87487" lon="5.42567">
        <ele>1114.6</ele>
        <time>2021-10-09T07:55:41Z</time>
      </trkpt>
      <trkpt lat="44.87485" lon="5.42566">
        <ele>1114.6</ele>
        <time>2021-10-09T07:55:42Z</time>
      </trkpt>
      <trkpt lat="44.87484" lon="5.42566">
        <ele>1115.4</ele>
        <time>2021-10-09T07:55:43Z</time>
      </trkpt>
      <trkpt lat="44.87482" lon="5.42566">
        <ele>1115.4</ele>
        <time>2021-10-09T07:55:44Z</time>
      </trkpt>
      <trkpt lat="44.8748" lon="5.42566">
        <ele>1115.4</ele>
        <time>2021-10-09T07:55:45Z</time>
      </trkpt>
      <trkpt lat="44.87478" lon="5.42566">
        <ele>1115.8</ele>
        <time>2021-10-09T07:55:46Z</time>
      </trkpt>
      <trkpt lat="44.87476" lon="5.42565">
        <ele>1116.4</ele>
        <time>2021-10-09T07:55:47Z</time>
      </trkpt>
      <trkpt lat="44.87475" lon="5.42565">
        <ele>1116.4</ele>
        <time>2021-10-09T07:55:48Z</time>
      </trkpt>
      <trkpt lat="44.87474" lon="5.42565">
        <ele>1116.4</ele>
        <time>2021-10-09T07:55:49Z</time>
      </trkpt>
      <trkpt lat="44.87472" lon="5.42564">
        <ele>1116.4</ele>
        <time>2021-10-09T07:55:50Z</time>
      </trkpt>
      <trkpt lat="44.8747" lon="5.42563">
        <ele>1116.8</ele>
        <time>2021-10-09T07:55:51Z</time>
      </trkpt>
      <trkpt lat="44.87469" lon="5.42563">
        <ele>1116.8</ele>
        <time>2021-10-09T07:55:52Z</time>
      </trkpt>
      <trkpt lat="44.87467" lon="5.42562">
        <ele>1116.8</ele>
        <time>2021-10-09T07:55:53Z</time>
      </trkpt>
      <trkpt lat="44.87465" lon="5.4256">
        <ele>1116.8</ele>
        <time>2021-10-09T07:55:54Z</time>
      </trkpt>
      <trkpt lat="44.87463" lon="5.42559">
        <ele>1117</ele>
        <time>2021-10-09T07:55:55Z</time>
      </trkpt>
      <trkpt lat="44.87462" lon="5.42557">
        <ele>1117</ele>
        <time>2021-10-09T07:55:56Z</time>
      </trkpt>
      <trkpt lat="44.8746" lon="5.42556">
        <ele>1117</ele>
        <time>2021-10-09T07:55:57Z</time>
      </trkpt>
      <trkpt lat="44.87459" lon="5.42555">
        <ele>1118</ele>
        <time>2021-10-09T07:55:58Z</time>
      </trkpt>
      <trkpt lat="44.87458" lon="5.42553">
        <ele>1118</ele>
        <time>2021-10-09T07:55:59Z</time>
      </trkpt>
      <trkpt lat="44.87456" lon="5.42552">
        <ele>1118</ele>
        <time>2021-10-09T07:56:00Z</time>
      </trkpt>
      <trkpt lat="44.87454" lon="5.42552">
        <ele>1118</ele>
        <time>2021-10-09T07:56:01Z</time>
      </trkpt>
      <trkpt lat="44.87453" lon="5.4255">
        <ele>1118</ele>
        <time>2021-10-09T07:56:02Z</time>
      </trkpt>
      <trkpt lat="44.87451" lon="5.4255">
        <ele>1118.6</ele>
        <time>2021-10-09T07:56:03Z</time>
      </trkpt>
      <trkpt lat="44.8745" lon="5.42549">
        <ele>1118.6</ele>
        <time>2021-10-09T07:56:04Z</time>
      </trkpt>
      <trkpt lat="44.87448" lon="5.42549">
        <ele>1118.6</ele>
        <time>2021-10-09T07:56:05Z</time>
      </trkpt>
      <trkpt lat="44.87446" lon="5.42548">
        <ele>1118.6</ele>
        <time>2021-10-09T07:56:06Z</time>
      </trkpt>
      <trkpt lat="44.87444" lon="5.42548">
        <ele>1119</ele>
        <time>2021-10-09T07:56:07Z</time>
      </trkpt>
      <trkpt lat="44.87443" lon="5.42547">
        <ele>1119</ele>
        <time>2021-10-09T07:56:08Z</time>
      </trkpt>
      <trkpt lat="44.87441" lon="5.42547">
        <ele>1119</ele>
        <time>2021-10-09T07:56:09Z</time>
      </trkpt>
      <trkpt lat="44.87439" lon="5.42547">
        <ele>1119</ele>
        <time>2021-10-09T07:56:10Z</time>
      </trkpt>
      <trkpt lat="44.87438" lon="5.42546">
        <ele>1119.2</ele>
        <time>2021-10-09T07:56:11Z</time>
      </trkpt>
      <trkpt lat="44.87436" lon="5.42547">
        <ele>1119.2</ele>
        <time>2021-10-09T07:56:12Z</time>
      </trkpt>
      <trkpt lat="44.87435" lon="5.42546">
        <ele>1119.2</ele>
        <time>2021-10-09T07:56:13Z</time>
      </trkpt>
      <trkpt lat="44.87432" lon="5.42546">
        <ele>1119.6</ele>
        <time>2021-10-09T07:56:14Z</time>
      </trkpt>
      <trkpt lat="44.8743" lon="5.42546">
        <ele>1119.6</ele>
        <time>2021-10-09T07:56:15Z</time>
      </trkpt>
      <trkpt lat="44.87428" lon="5.42546">
        <ele>1119.6</ele>
        <time>2021-10-09T07:56:16Z</time>
      </trkpt>
      <trkpt lat="44.87426" lon="5.42547">
        <ele>1119.6</ele>
        <time>2021-10-09T07:56:17Z</time>
      </trkpt>
      <trkpt lat="44.87423" lon="5.42546">
        <ele>1119.8</ele>
        <time>2021-10-09T07:56:18Z</time>
      </trkpt>
      <trkpt lat="44.87422" lon="5.42547">
        <ele>1120.2</ele>
        <time>2021-10-09T07:56:19Z</time>
      </trkpt>
      <trkpt lat="44.8742" lon="5.42547">
        <ele>1120.2</ele>
        <time>2021-10-09T07:56:20Z</time>
      </trkpt>
      <trkpt lat="44.87418" lon="5.42548">
        <ele>1120.2</ele>
        <time>2021-10-09T07:56:21Z</time>
      </trkpt>
      <trkpt lat="44.87417" lon="5.42547">
        <ele>1120.2</ele>
        <time>2021-10-09T07:56:22Z</time>
      </trkpt>
      <trkpt lat="44.87415" lon="5.42548">
        <ele>1121</ele>
        <time>2021-10-09T07:56:23Z</time>
      </trkpt>
      <trkpt lat="44.87413" lon="5.42548">
        <ele>1121</ele>
        <time>2021-10-09T07:56:24Z</time>
      </trkpt>
      <trkpt lat="44.87411" lon="5.42549">
        <ele>1121</ele>
        <time>2021-10-09T07:56:25Z</time>
      </trkpt>
      <trkpt lat="44.87408" lon="5.42549">
        <ele>1121</ele>
        <time>2021-10-09T07:56:26Z</time>
      </trkpt>
      <trkpt lat="44.87407" lon="5.4255">
        <ele>1121.2</ele>
        <time>2021-10-09T07:56:27Z</time>
      </trkpt>
      <trkpt lat="44.87405" lon="5.42551">
        <ele>1121.2</ele>
        <time>2021-10-09T07:56:28Z</time>
      </trkpt>
      <trkpt lat="44.87403" lon="5.42552">
        <ele>1121.2</ele>
        <time>2021-10-09T07:56:29Z</time>
      </trkpt>
      <trkpt lat="44.87402" lon="5.42553">
        <ele>1121.4</ele>
        <time>2021-10-09T07:56:30Z</time>
      </trkpt>
      <trkpt lat="44.874" lon="5.42553">
        <ele>1121.2</ele>
        <time>2021-10-09T07:56:31Z</time>
      </trkpt>
      <trkpt lat="44.87398" lon="5.42552">
        <ele>1121.2</ele>
        <time>2021-10-09T07:56:32Z</time>
      </trkpt>
      <trkpt lat="44.87395" lon="5.42554">
        <ele>1121.2</ele>
        <time>2021-10-09T07:56:33Z</time>
      </trkpt>
      <trkpt lat="44.87392" lon="5.42555">
        <ele>1121.2</ele>
        <time>2021-10-09T07:56:34Z</time>
      </trkpt>
      <trkpt lat="44.87389" lon="5.42556">
        <ele>1122.8</ele>
        <time>2021-10-09T07:56:35Z</time>
      </trkpt>
      <trkpt lat="44.87386" lon="5.42557">
        <ele>1122.8</ele>
        <time>2021-10-09T07:56:36Z</time>
      </trkpt>
      <trkpt lat="44.87383" lon="5.42558">
        <ele>1122.8</ele>
        <time>2021-10-09T07:56:37Z</time>
      </trkpt>
      <trkpt lat="44.87381" lon="5.42559">
        <ele>1122.6</ele>
        <time>2021-10-09T07:56:38Z</time>
      </trkpt>
      <trkpt lat="44.87379" lon="5.4256">
        <ele>1123</ele>
        <time>2021-10-09T07:56:39Z</time>
      </trkpt>
      <trkpt lat="44.87377" lon="5.42561">
        <ele>1123</ele>
        <time>2021-10-09T07:56:40Z</time>
      </trkpt>
      <trkpt lat="44.87375" lon="5.42561">
        <ele>1123</ele>
        <time>2021-10-09T07:56:41Z</time>
      </trkpt>
      <trkpt lat="44.87373" lon="5.42562">
        <ele>1123.4</ele>
        <time>2021-10-09T07:56:42Z</time>
      </trkpt>
      <trkpt lat="44.8737" lon="5.42561">
        <ele>1123.4</ele>
        <time>2021-10-09T07:56:43Z</time>
      </trkpt>
      <trkpt lat="44.87368" lon="5.42561">
        <ele>1123.4</ele>
        <time>2021-10-09T07:56:44Z</time>
      </trkpt>
      <trkpt lat="44.87366" lon="5.42562">
        <ele>1123.4</ele>
        <time>2021-10-09T07:56:45Z</time>
      </trkpt>
      <trkpt lat="44.87365" lon="5.42561">
        <ele>1123.8</ele>
        <time>2021-10-09T07:56:46Z</time>
      </trkpt>
      <trkpt lat="44.87363" lon="5.42561">
        <ele>1124.2</ele>
        <time>2021-10-09T07:56:47Z</time>
      </trkpt>
      <trkpt lat="44.87361" lon="5.42561">
        <ele>1124.2</ele>
        <time>2021-10-09T07:56:48Z</time>
      </trkpt>
      <trkpt lat="44.87359" lon="5.42561">
        <ele>1124.2</ele>
        <time>2021-10-09T07:56:49Z</time>
      </trkpt>
      <trkpt lat="44.87357" lon="5.42561">
        <ele>1124.2</ele>
        <time>2021-10-09T07:56:50Z</time>
      </trkpt>
      <trkpt lat="44.87356" lon="5.42561">
        <ele>1124.8</ele>
        <time>2021-10-09T07:56:51Z</time>
      </trkpt>
      <trkpt lat="44.87354" lon="5.4256">
        <ele>1124.8</ele>
        <time>2021-10-09T07:56:52Z</time>
      </trkpt>
      <trkpt lat="44.87352" lon="5.4256">
        <ele>1124.8</ele>
        <time>2021-10-09T07:56:53Z</time>
      </trkpt>
      <trkpt lat="44.8735" lon="5.42559">
        <ele>1124.8</ele>
        <time>2021-10-09T07:56:54Z</time>
      </trkpt>
      <trkpt lat="44.87348" lon="5.42559">
        <ele>1125.6</ele>
        <time>2021-10-09T07:56:55Z</time>
      </trkpt>
      <trkpt lat="44.87346" lon="5.42558">
        <ele>1125.6</ele>
        <time>2021-10-09T07:56:56Z</time>
      </trkpt>
      <trkpt lat="44.87344" lon="5.42558">
        <ele>1125.6</ele>
        <time>2021-10-09T07:56:57Z</time>
      </trkpt>
      <trkpt lat="44.87342" lon="5.42558">
        <ele>1126</ele>
        <time>2021-10-09T07:56:58Z</time>
      </trkpt>
      <trkpt lat="44.8734" lon="5.42557">
        <ele>1126.2</ele>
        <time>2021-10-09T07:56:59Z</time>
      </trkpt>
      <trkpt lat="44.87339" lon="5.42556">
        <ele>1126.2</ele>
        <time>2021-10-09T07:57:00Z</time>
      </trkpt>
      <trkpt lat="44.87337" lon="5.42554">
        <ele>1126.2</ele>
        <time>2021-10-09T07:57:01Z</time>
      </trkpt>
      <trkpt lat="44.87334" lon="5.42551">
        <ele>1126.2</ele>
        <time>2021-10-09T07:57:02Z</time>
      </trkpt>
      <trkpt lat="44.87332" lon="5.42551">
        <ele>1126.8</ele>
        <time>2021-10-09T07:57:03Z</time>
      </trkpt>
      <trkpt lat="44.8733" lon="5.4255">
        <ele>1126.8</ele>
        <time>2021-10-09T07:57:04Z</time>
      </trkpt>
      <trkpt lat="44.87328" lon="5.4255">
        <ele>1126.8</ele>
        <time>2021-10-09T07:57:05Z</time>
      </trkpt>
      <trkpt lat="44.87326" lon="5.42549">
        <ele>1126.8</ele>
        <time>2021-10-09T07:57:06Z</time>
      </trkpt>
      <trkpt lat="44.87325" lon="5.42549">
        <ele>1127.6</ele>
        <time>2021-10-09T07:57:07Z</time>
      </trkpt>
      <trkpt lat="44.87323" lon="5.42548">
        <ele>1127.6</ele>
        <time>2021-10-09T07:57:08Z</time>
      </trkpt>
      <trkpt lat="44.87321" lon="5.42548">
        <ele>1127.6</ele>
        <time>2021-10-09T07:57:09Z</time>
      </trkpt>
      <trkpt lat="44.87319" lon="5.42546">
        <ele>1127.6</ele>
        <time>2021-10-09T07:57:10Z</time>
      </trkpt>
      <trkpt lat="44.87318" lon="5.42545">
        <ele>1128.2</ele>
        <time>2021-10-09T07:57:11Z</time>
      </trkpt>
      <trkpt lat="44.87316" lon="5.42544">
        <ele>1128.2</ele>
        <time>2021-10-09T07:57:12Z</time>
      </trkpt>
      <trkpt lat="44.87314" lon="5.42543">
        <ele>1128.2</ele>
        <time>2021-10-09T07:57:13Z</time>
      </trkpt>
      <trkpt lat="44.87312" lon="5.42542">
        <ele>1128.2</ele>
        <time>2021-10-09T07:57:14Z</time>
      </trkpt>
      <trkpt lat="44.8731" lon="5.42541">
        <ele>1128.4</ele>
        <time>2021-10-09T07:57:15Z</time>
      </trkpt>
      <trkpt lat="44.87309" lon="5.42541">
        <ele>1128.4</ele>
        <time>2021-10-09T07:57:16Z</time>
      </trkpt>
      <trkpt lat="44.87305" lon="5.4254">
        <ele>1128.4</ele>
        <time>2021-10-09T07:57:17Z</time>
      </trkpt>
      <trkpt lat="44.87303" lon="5.4254">
        <ele>1128.4</ele>
        <time>2021-10-09T07:57:18Z</time>
      </trkpt>
      <trkpt lat="44.873" lon="5.42539">
        <ele>1129</ele>
        <time>2021-10-09T07:57:19Z</time>
      </trkpt>
      <trkpt lat="44.87298" lon="5.42537">
        <ele>1129</ele>
        <time>2021-10-09T07:57:20Z</time>
      </trkpt>
      <trkpt lat="44.87296" lon="5.42535">
        <ele>1129</ele>
        <time>2021-10-09T07:57:21Z</time>
      </trkpt>
      <trkpt lat="44.87294" lon="5.42533">
        <ele>1129.4</ele>
        <time>2021-10-09T07:57:22Z</time>
      </trkpt>
      <trkpt lat="44.87292" lon="5.42531">
        <ele>1129.6</ele>
        <time>2021-10-09T07:57:23Z</time>
      </trkpt>
      <trkpt lat="44.87291" lon="5.4253">
        <ele>1129.6</ele>
        <time>2021-10-09T07:57:24Z</time>
      </trkpt>
      <trkpt lat="44.87289" lon="5.42529">
        <ele>1129.6</ele>
        <time>2021-10-09T07:57:25Z</time>
      </trkpt>
      <trkpt lat="44.87286" lon="5.42528">
        <ele>1130</ele>
        <time>2021-10-09T07:57:26Z</time>
      </trkpt>
      <trkpt lat="44.87284" lon="5.42527">
        <ele>1130.2</ele>
        <time>2021-10-09T07:57:27Z</time>
      </trkpt>
      <trkpt lat="44.87282" lon="5.42526">
        <ele>1130.2</ele>
        <time>2021-10-09T07:57:28Z</time>
      </trkpt>
      <trkpt lat="44.8728" lon="5.42526">
        <ele>1130.2</ele>
        <time>2021-10-09T07:57:29Z</time>
      </trkpt>
      <trkpt lat="44.87278" lon="5.42526">
        <ele>1130.2</ele>
        <time>2021-10-09T07:57:30Z</time>
      </trkpt>
      <trkpt lat="44.87277" lon="5.42528">
        <ele>1130.8</ele>
        <time>2021-10-09T07:57:31Z</time>
      </trkpt>
      <trkpt lat="44.87275" lon="5.42529">
        <ele>1130.8</ele>
        <time>2021-10-09T07:57:32Z</time>
      </trkpt>
      <trkpt lat="44.87275" lon="5.42532">
        <ele>1130.8</ele>
        <time>2021-10-09T07:57:33Z</time>
      </trkpt>
      <trkpt lat="44.87274" lon="5.42534">
        <ele>1131</ele>
        <time>2021-10-09T07:57:34Z</time>
      </trkpt>
      <trkpt lat="44.87275" lon="5.42537">
        <ele>1131.2</ele>
        <time>2021-10-09T07:57:35Z</time>
      </trkpt>
      <trkpt lat="44.87276" lon="5.42539">
        <ele>1131.2</ele>
        <time>2021-10-09T07:57:36Z</time>
      </trkpt>
      <trkpt lat="44.87277" lon="5.42541">
        <ele>1131.2</ele>
        <time>2021-10-09T07:57:37Z</time>
      </trkpt>
      <trkpt lat="44.87279" lon="5.42542">
        <ele>1131.2</ele>
        <time>2021-10-09T07:57:38Z</time>
      </trkpt>
      <trkpt lat="44.87281" lon="5.42542">
        <ele>1131.6</ele>
        <time>2021-10-09T07:57:39Z</time>
      </trkpt>
      <trkpt lat="44.87283" lon="5.42543">
        <ele>1131.6</ele>
        <time>2021-10-09T07:57:40Z</time>
      </trkpt>
      <trkpt lat="44.87285" lon="5.42544">
        <ele>1131.6</ele>
        <time>2021-10-09T07:57:41Z</time>
      </trkpt>
      <trkpt lat="44.87287" lon="5.42545">
        <ele>1132</ele>
        <time>2021-10-09T07:57:42Z</time>
      </trkpt>
      <trkpt lat="44.87289" lon="5.42546">
        <ele>1132.2</ele>
        <time>2021-10-09T07:57:43Z</time>
      </trkpt>
      <trkpt lat="44.87291" lon="5.42547">
        <ele>1132.2</ele>
        <time>2021-10-09T07:57:44Z</time>
      </trkpt>
      <trkpt lat="44.87293" lon="5.42548">
        <ele>1132.2</ele>
        <time>2021-10-09T07:57:45Z</time>
      </trkpt>
      <trkpt lat="44.87294" lon="5.4255">
        <ele>1132.2</ele>
        <time>2021-10-09T07:57:46Z</time>
      </trkpt>
      <trkpt lat="44.87296" lon="5.42551">
        <ele>1132.8</ele>
        <time>2021-10-09T07:57:47Z</time>
      </trkpt>
      <trkpt lat="44.87297" lon="5.42552">
        <ele>1132.8</ele>
        <time>2021-10-09T07:57:48Z</time>
      </trkpt>
      <trkpt lat="44.87299" lon="5.42552">
        <ele>1132.8</ele>
        <time>2021-10-09T07:57:49Z</time>
      </trkpt>
      <trkpt lat="44.873" lon="5.42553">
        <ele>1132.8</ele>
        <time>2021-10-09T07:57:50Z</time>
      </trkpt>
      <trkpt lat="44.87302" lon="5.42554">
        <ele>1133.2</ele>
        <time>2021-10-09T07:57:51Z</time>
      </trkpt>
      <trkpt lat="44.87303" lon="5.42555">
        <ele>1133.2</ele>
        <time>2021-10-09T07:57:52Z</time>
      </trkpt>
      <trkpt lat="44.87304" lon="5.42557">
        <ele>1133.2</ele>
        <time>2021-10-09T07:57:53Z</time>
      </trkpt>
      <trkpt lat="44.87306" lon="5.42558">
        <ele>1133.2</ele>
        <time>2021-10-09T07:57:54Z</time>
      </trkpt>
      <trkpt lat="44.87308" lon="5.4256">
        <ele>1134</ele>
        <time>2021-10-09T07:57:55Z</time>
      </trkpt>
      <trkpt lat="44.8731" lon="5.42562">
        <ele>1134</ele>
        <time>2021-10-09T07:57:56Z</time>
      </trkpt>
      <trkpt lat="44.87312" lon="5.42562">
        <ele>1134</ele>
        <time>2021-10-09T07:57:57Z</time>
      </trkpt>
      <trkpt lat="44.87314" lon="5.42564">
        <ele>1134.4</ele>
        <time>2021-10-09T07:57:58Z</time>
      </trkpt>
      <trkpt lat="44.87316" lon="5.42566">
        <ele>1134.8</ele>
        <time>2021-10-09T07:57:59Z</time>
      </trkpt>
      <trkpt lat="44.87318" lon="5.42567">
        <ele>1134.8</ele>
        <time>2021-10-09T07:58:00Z</time>
      </trkpt>
      <trkpt lat="44.8732" lon="5.42569">
        <ele>1134.8</ele>
        <time>2021-10-09T07:58:01Z</time>
      </trkpt>
      <trkpt lat="44.87322" lon="5.4257">
        <ele>1135.2</ele>
        <time>2021-10-09T07:58:02Z</time>
      </trkpt>
      <trkpt lat="44.87325" lon="5.42571">
        <ele>1135</ele>
        <time>2021-10-09T07:58:03Z</time>
      </trkpt>
      <trkpt lat="44.87326" lon="5.42573">
        <ele>1135</ele>
        <time>2021-10-09T07:58:04Z</time>
      </trkpt>
      <trkpt lat="44.87328" lon="5.42574">
        <ele>1135</ele>
        <time>2021-10-09T07:58:05Z</time>
      </trkpt>
      <trkpt lat="44.8733" lon="5.42575">
        <ele>1136</ele>
        <time>2021-10-09T07:58:06Z</time>
      </trkpt>
      <trkpt lat="44.87332" lon="5.42577">
        <ele>1136</ele>
        <time>2021-10-09T07:58:07Z</time>
      </trkpt>
      <trkpt lat="44.87334" lon="5.42578">
        <ele>1136</ele>
        <time>2021-10-09T07:58:08Z</time>
      </trkpt>
      <trkpt lat="44.87337" lon="5.4258">
        <ele>1136</ele>
        <time>2021-10-09T07:58:09Z</time>
      </trkpt>
      <trkpt lat="44.87338" lon="5.42581">
        <ele>1136.4</ele>
        <time>2021-10-09T07:58:10Z</time>
      </trkpt>
      <trkpt lat="44.8734" lon="5.42582">
        <ele>1136.4</ele>
        <time>2021-10-09T07:58:11Z</time>
      </trkpt>
      <trkpt lat="44.87342" lon="5.42582">
        <ele>1136.4</ele>
        <time>2021-10-09T07:58:12Z</time>
      </trkpt>
      <trkpt lat="44.87343" lon="5.42584">
        <ele>1136.4</ele>
        <time>2021-10-09T07:58:13Z</time>
      </trkpt>
      <trkpt lat="44.87345" lon="5.42585">
        <ele>1137.2</ele>
        <time>2021-10-09T07:58:14Z</time>
      </trkpt>
      <trkpt lat="44.87347" lon="5.42586">
        <ele>1137.4</ele>
        <time>2021-10-09T07:58:15Z</time>
      </trkpt>
      <trkpt lat="44.87349" lon="5.42586">
        <ele>1137.4</ele>
        <time>2021-10-09T07:58:16Z</time>
      </trkpt>
      <trkpt lat="44.87351" lon="5.42587">
        <ele>1137.4</ele>
        <time>2021-10-09T07:58:17Z</time>
      </trkpt>
      <trkpt lat="44.87353" lon="5.42587">
        <ele>1137.4</ele>
        <time>2021-10-09T07:58:18Z</time>
      </trkpt>
      <trkpt lat="44.87355" lon="5.42588">
        <ele>1137.8</ele>
        <time>2021-10-09T07:58:19Z</time>
      </trkpt>
      <trkpt lat="44.87357" lon="5.42589">
        <ele>1137.8</ele>
        <time>2021-10-09T07:58:20Z</time>
      </trkpt>
      <trkpt lat="44.87359" lon="5.4259">
        <ele>1137.8</ele>
        <time>2021-10-09T07:58:21Z</time>
      </trkpt>
      <trkpt lat="44.87361" lon="5.4259">
        <ele>1137.8</ele>
        <time>2021-10-09T07:58:22Z</time>
      </trkpt>
      <trkpt lat="44.87363" lon="5.42591">
        <ele>1138.2</ele>
        <time>2021-10-09T07:58:23Z</time>
      </trkpt>
      <trkpt lat="44.87364" lon="5.42592">
        <ele>1138.2</ele>
        <time>2021-10-09T07:58:24Z</time>
      </trkpt>
      <trkpt lat="44.87366" lon="5.42592">
        <ele>1138.2</ele>
        <time>2021-10-09T07:58:25Z</time>
      </trkpt>
      <trkpt lat="44.87368" lon="5.42593">
        <ele>1138.6</ele>
        <time>2021-10-09T07:58:26Z</time>
      </trkpt>
      <trkpt lat="44.87369" lon="5.42593">
        <ele>1138.8</ele>
        <time>2021-10-09T07:58:27Z</time>
      </trkpt>
      <trkpt lat="44.87371" lon="5.42594">
        <ele>1138.8</ele>
        <time>2021-10-09T07:58:28Z</time>
      </trkpt>
      <trkpt lat="44.87372" lon="5.42594">
        <ele>1138.8</ele>
        <time>2021-10-09T07:58:29Z</time>
      </trkpt>
      <trkpt lat="44.87373" lon="5.42596">
        <ele>1138.8</ele>
        <time>2021-10-09T07:58:30Z</time>
      </trkpt>
      <trkpt lat="44.87375" lon="5.42596">
        <ele>1139</ele>
        <time>2021-10-09T07:58:31Z</time>
      </trkpt>
      <trkpt lat="44.87376" lon="5.42596">
        <ele>1139</ele>
        <time>2021-10-09T07:58:32Z</time>
      </trkpt>
      <trkpt lat="44.87377" lon="5.42597">
        <ele>1139</ele>
        <time>2021-10-09T07:58:33Z</time>
      </trkpt>
      <trkpt lat="44.87379" lon="5.42597">
        <ele>1139.6</ele>
        <time>2021-10-09T07:58:34Z</time>
      </trkpt>
      <trkpt lat="44.87382" lon="5.42598">
        <ele>1139.4</ele>
        <time>2021-10-09T07:58:35Z</time>
      </trkpt>
      <trkpt lat="44.87384" lon="5.42599">
        <ele>1139.4</ele>
        <time>2021-10-09T07:58:36Z</time>
      </trkpt>
      <trkpt lat="44.87385" lon="5.42598">
        <ele>1139.4</ele>
        <time>2021-10-09T07:58:37Z</time>
      </trkpt>
      <trkpt lat="44.87386" lon="5.42599">
        <ele>1140.2</ele>
        <time>2021-10-09T07:58:38Z</time>
      </trkpt>
      <trkpt lat="44.87388" lon="5.426">
        <ele>1140.2</ele>
        <time>2021-10-09T07:58:39Z</time>
      </trkpt>
      <trkpt lat="44.87389" lon="5.426">
        <ele>1140.2</ele>
        <time>2021-10-09T07:58:40Z</time>
      </trkpt>
      <trkpt lat="44.87392" lon="5.42599">
        <ele>1140.2</ele>
        <time>2021-10-09T07:58:41Z</time>
      </trkpt>
      <trkpt lat="44.87394" lon="5.42599">
        <ele>1140.2</ele>
        <time>2021-10-09T07:58:42Z</time>
      </trkpt>
      <trkpt lat="44.87396" lon="5.42599">
        <ele>1140.4</ele>
        <time>2021-10-09T07:58:43Z</time>
      </trkpt>
      <trkpt lat="44.87398" lon="5.42599">
        <ele>1140.4</ele>
        <time>2021-10-09T07:58:44Z</time>
      </trkpt>
      <trkpt lat="44.874" lon="5.42599">
        <ele>1140.4</ele>
        <time>2021-10-09T07:58:45Z</time>
      </trkpt>
      <trkpt lat="44.87401" lon="5.426">
        <ele>1141.2</ele>
        <time>2021-10-09T07:58:46Z</time>
      </trkpt>
      <trkpt lat="44.87403" lon="5.426">
        <ele>1141.2</ele>
        <time>2021-10-09T07:58:47Z</time>
      </trkpt>
      <trkpt lat="44.87405" lon="5.42601">
        <ele>1141.2</ele>
        <time>2021-10-09T07:58:48Z</time>
      </trkpt>
      <trkpt lat="44.87407" lon="5.42601">
        <ele>1141.2</ele>
        <time>2021-10-09T07:58:49Z</time>
      </trkpt>
      <trkpt lat="44.8741" lon="5.42603">
        <ele>1142.2</ele>
        <time>2021-10-09T07:58:50Z</time>
      </trkpt>
      <trkpt lat="44.87411" lon="5.42603">
        <ele>1142.2</ele>
        <time>2021-10-09T07:58:51Z</time>
      </trkpt>
      <trkpt lat="44.87413" lon="5.42603">
        <ele>1142.2</ele>
        <time>2021-10-09T07:58:52Z</time>
      </trkpt>
      <trkpt lat="44.87415" lon="5.42603">
        <ele>1142.2</ele>
        <time>2021-10-09T07:58:53Z</time>
      </trkpt>
      <trkpt lat="44.87416" lon="5.42604">
        <ele>1142.2</ele>
        <time>2021-10-09T07:58:54Z</time>
      </trkpt>
      <trkpt lat="44.87418" lon="5.42603">
        <ele>1142.4</ele>
        <time>2021-10-09T07:58:55Z</time>
      </trkpt>
      <trkpt lat="44.87419" lon="5.42604">
        <ele>1142.4</ele>
        <time>2021-10-09T07:58:56Z</time>
      </trkpt>
      <trkpt lat="44.87421" lon="5.42604">
        <ele>1142.4</ele>
        <time>2021-10-09T07:58:57Z</time>
      </trkpt>
      <trkpt lat="44.87423" lon="5.42604">
        <ele>1143</ele>
        <time>2021-10-09T07:58:58Z</time>
      </trkpt>
      <trkpt lat="44.87424" lon="5.42604">
        <ele>1143.2</ele>
        <time>2021-10-09T07:58:59Z</time>
      </trkpt>
      <trkpt lat="44.87425" lon="5.42604">
        <ele>1143.2</ele>
        <time>2021-10-09T07:59:00Z</time>
      </trkpt>
      <trkpt lat="44.87428" lon="5.42605">
        <ele>1143.2</ele>
        <time>2021-10-09T07:59:01Z</time>
      </trkpt>
      <trkpt lat="44.8743" lon="5.42605">
        <ele>1143.8</ele>
        <time>2021-10-09T07:59:02Z</time>
      </trkpt>
      <trkpt lat="44.87431" lon="5.42606">
        <ele>1143.6</ele>
        <time>2021-10-09T07:59:03Z</time>
      </trkpt>
      <trkpt lat="44.87433" lon="5.42606">
        <ele>1143.6</ele>
        <time>2021-10-09T07:59:04Z</time>
      </trkpt>
      <trkpt lat="44.87434" lon="5.42607">
        <ele>1143.6</ele>
        <time>2021-10-09T07:59:05Z</time>
      </trkpt>
      <trkpt lat="44.87437" lon="5.42608">
        <ele>1143.6</ele>
        <time>2021-10-09T07:59:06Z</time>
      </trkpt>
      <trkpt lat="44.87439" lon="5.42607">
        <ele>1144.2</ele>
        <time>2021-10-09T07:59:07Z</time>
      </trkpt>
      <trkpt lat="44.87441" lon="5.42608">
        <ele>1144.2</ele>
        <time>2021-10-09T07:59:08Z</time>
      </trkpt>
      <trkpt lat="44.87443" lon="5.42609">
        <ele>1144.2</ele>
        <time>2021-10-09T07:59:09Z</time>
      </trkpt>
      <trkpt lat="44.87445" lon="5.4261">
        <ele>1144.8</ele>
        <time>2021-10-09T07:59:10Z</time>
      </trkpt>
      <trkpt lat="44.87447" lon="5.42611">
        <ele>1144.8</ele>
        <time>2021-10-09T07:59:11Z</time>
      </trkpt>
      <trkpt lat="44.87449" lon="5.42611">
        <ele>1144.8</ele>
        <time>2021-10-09T07:59:12Z</time>
      </trkpt>
      <trkpt lat="44.87451" lon="5.42612">
        <ele>1144.8</ele>
        <time>2021-10-09T07:59:13Z</time>
      </trkpt>
      <trkpt lat="44.87453" lon="5.42614">
        <ele>1144.8</ele>
        <time>2021-10-09T07:59:14Z</time>
      </trkpt>
      <trkpt lat="44.87455" lon="5.42614">
        <ele>1145.2</ele>
        <time>2021-10-09T07:59:15Z</time>
      </trkpt>
      <trkpt lat="44.87457" lon="5.42615">
        <ele>1145.2</ele>
        <time>2021-10-09T07:59:16Z</time>
      </trkpt>
      <trkpt lat="44.87459" lon="5.42616">
        <ele>1145.2</ele>
        <time>2021-10-09T07:59:17Z</time>
      </trkpt>
      <trkpt lat="44.8746" lon="5.42616">
        <ele>1146</ele>
        <time>2021-10-09T07:59:18Z</time>
      </trkpt>
      <trkpt lat="44.87462" lon="5.42617">
        <ele>1145.8</ele>
        <time>2021-10-09T07:59:19Z</time>
      </trkpt>
      <trkpt lat="44.87464" lon="5.42618">
        <ele>1145.8</ele>
        <time>2021-10-09T07:59:20Z</time>
      </trkpt>
      <trkpt lat="44.87465" lon="5.42619">
        <ele>1145.8</ele>
        <time>2021-10-09T07:59:21Z</time>
      </trkpt>
      <trkpt lat="44.87466" lon="5.4262">
        <ele>1146.2</ele>
        <time>2021-10-09T07:59:22Z</time>
      </trkpt>
      <trkpt lat="44.87468" lon="5.42621">
        <ele>1146.8</ele>
        <time>2021-10-09T07:59:23Z</time>
      </trkpt>
      <trkpt lat="44.8747" lon="5.42621">
        <ele>1146.8</ele>
        <time>2021-10-09T07:59:24Z</time>
      </trkpt>
      <trkpt lat="44.87472" lon="5.42622">
        <ele>1146.8</ele>
        <time>2021-10-09T07:59:25Z</time>
      </trkpt>
      <trkpt lat="44.87473" lon="5.42622">
        <ele>1147</ele>
        <time>2021-10-09T07:59:26Z</time>
      </trkpt>
      <trkpt lat="44.87475" lon="5.42622">
        <ele>1147.2</ele>
        <time>2021-10-09T07:59:27Z</time>
      </trkpt>
      <trkpt lat="44.87475" lon="5.42622">
        <ele>1147.2</ele>
        <time>2021-10-09T07:59:28Z</time>
      </trkpt>
      <trkpt lat="44.87476" lon="5.42622">
        <ele>1147.2</ele>
        <time>2021-10-09T07:59:29Z</time>
      </trkpt>
      <trkpt lat="44.87478" lon="5.42623">
        <ele>1147.2</ele>
        <time>2021-10-09T07:59:30Z</time>
      </trkpt>
      <trkpt lat="44.8748" lon="5.42624">
        <ele>1147.2</ele>
        <time>2021-10-09T07:59:31Z</time>
      </trkpt>
      <trkpt lat="44.87481" lon="5.42624">
        <ele>1147.2</ele>
        <time>2021-10-09T07:59:32Z</time>
      </trkpt>
      <trkpt lat="44.87483" lon="5.42625">
        <ele>1147.2</ele>
        <time>2021-10-09T07:59:33Z</time>
      </trkpt>
      <trkpt lat="44.87485" lon="5.42625">
        <ele>1147.4</ele>
        <time>2021-10-09T07:59:34Z</time>
      </trkpt>
      <trkpt lat="44.87486" lon="5.42625">
        <ele>1148.2</ele>
        <time>2021-10-09T07:59:35Z</time>
      </trkpt>
      <trkpt lat="44.87489" lon="5.42625">
        <ele>1148.2</ele>
        <time>2021-10-09T07:59:36Z</time>
      </trkpt>
      <trkpt lat="44.8749" lon="5.42624">
        <ele>1148.2</ele>
        <time>2021-10-09T07:59:37Z</time>
      </trkpt>
      <trkpt lat="44.87492" lon="5.42624">
        <ele>1148.2</ele>
        <time>2021-10-09T07:59:38Z</time>
      </trkpt>
      <trkpt lat="44.87494" lon="5.42624">
        <ele>1148.8</ele>
        <time>2021-10-09T07:59:39Z</time>
      </trkpt>
      <trkpt lat="44.87496" lon="5.42625">
        <ele>1148.8</ele>
        <time>2021-10-09T07:59:40Z</time>
      </trkpt>
      <trkpt lat="44.87498" lon="5.42625">
        <ele>1148.8</ele>
        <time>2021-10-09T07:59:41Z</time>
      </trkpt>
      <trkpt lat="44.875" lon="5.42625">
        <ele>1148.8</ele>
        <time>2021-10-09T07:59:42Z</time>
      </trkpt>
      <trkpt lat="44.87501" lon="5.42626">
        <ele>1149.2</ele>
        <time>2021-10-09T07:59:43Z</time>
      </trkpt>
      <trkpt lat="44.87503" lon="5.42626">
        <ele>1149.2</ele>
        <time>2021-10-09T07:59:44Z</time>
      </trkpt>
      <trkpt lat="44.87505" lon="5.42626">
        <ele>1149.2</ele>
        <time>2021-10-09T07:59:45Z</time>
      </trkpt>
      <trkpt lat="44.87507" lon="5.42626">
        <ele>1149.2</ele>
        <time>2021-10-09T07:59:46Z</time>
      </trkpt>
      <trkpt lat="44.87509" lon="5.42628">
        <ele>1149.4</ele>
        <time>2021-10-09T07:59:47Z</time>
      </trkpt>
      <trkpt lat="44.87511" lon="5.42629">
        <ele>1149.4</ele>
        <time>2021-10-09T07:59:48Z</time>
      </trkpt>
      <trkpt lat="44.87513" lon="5.42629">
        <ele>1149.4</ele>
        <time>2021-10-09T07:59:49Z</time>
      </trkpt>
      <trkpt lat="44.87515" lon="5.4263">
        <ele>1150</ele>
        <time>2021-10-09T07:59:50Z</time>
      </trkpt>
      <trkpt lat="44.87518" lon="5.42631">
        <ele>1149.8</ele>
        <time>2021-10-09T07:59:51Z</time>
      </trkpt>
      <trkpt lat="44.8752" lon="5.42632">
        <ele>1149.8</ele>
        <time>2021-10-09T07:59:52Z</time>
      </trkpt>
      <trkpt lat="44.87522" lon="5.42633">
        <ele>1149.8</ele>
        <time>2021-10-09T07:59:53Z</time>
      </trkpt>
      <trkpt lat="44.87525" lon="5.42633">
        <ele>1150.4</ele>
        <time>2021-10-09T07:59:54Z</time>
      </trkpt>
      <trkpt lat="44.87527" lon="5.42633">
        <ele>1150.4</ele>
        <time>2021-10-09T07:59:55Z</time>
      </trkpt>
      <trkpt lat="44.87529" lon="5.42633">
        <ele>1150.4</ele>
        <time>2021-10-09T07:59:56Z</time>
      </trkpt>
      <trkpt lat="44.8753" lon="5.42633">
        <ele>1150.4</ele>
        <time>2021-10-09T07:59:57Z</time>
      </trkpt>
      <trkpt lat="44.87533" lon="5.42633">
        <ele>1150.4</ele>
        <time>2021-10-09T07:59:58Z</time>
      </trkpt>
      <trkpt lat="44.87534" lon="5.42633">
        <ele>1151.4</ele>
        <time>2021-10-09T07:59:59Z</time>
      </trkpt>
      <trkpt lat="44.87536" lon="5.42633">
        <ele>1151.4</ele>
        <time>2021-10-09T08:00:00Z</time>
      </trkpt>
      <trkpt lat="44.87538" lon="5.42633">
        <ele>1151.4</ele>
        <time>2021-10-09T08:00:01Z</time>
      </trkpt>
      <trkpt lat="44.8754" lon="5.42633">
        <ele>1151.4</ele>
        <time>2021-10-09T08:00:02Z</time>
      </trkpt>
      <trkpt lat="44.87542" lon="5.42633">
        <ele>1151.8</ele>
        <time>2021-10-09T08:00:03Z</time>
      </trkpt>
      <trkpt lat="44.87544" lon="5.42633">
        <ele>1151.8</ele>
        <time>2021-10-09T08:00:04Z</time>
      </trkpt>
      <trkpt lat="44.87545" lon="5.42634">
        <ele>1151.8</ele>
        <time>2021-10-09T08:00:05Z</time>
      </trkpt>
      <trkpt lat="44.87547" lon="5.42634">
        <ele>1152.2</ele>
        <time>2021-10-09T08:00:06Z</time>
      </trkpt>
      <trkpt lat="44.87549" lon="5.42635">
        <ele>1152</ele>
        <time>2021-10-09T08:00:07Z</time>
      </trkpt>
      <trkpt lat="44.87551" lon="5.42636">
        <ele>1152</ele>
        <time>2021-10-09T08:00:08Z</time>
      </trkpt>
      <trkpt lat="44.87553" lon="5.42637">
        <ele>1152</ele>
        <time>2021-10-09T08:00:09Z</time>
      </trkpt>
      <trkpt lat="44.87555" lon="5.42637">
        <ele>1152.6</ele>
        <time>2021-10-09T08:00:10Z</time>
      </trkpt>
      <trkpt lat="44.87557" lon="5.42637">
        <ele>1152.6</ele>
        <time>2021-10-09T08:00:11Z</time>
      </trkpt>
      <trkpt lat="44.87557" lon="5.42638">
        <ele>1152.6</ele>
        <time>2021-10-09T08:00:12Z</time>
      </trkpt>
      <trkpt lat="44.87559" lon="5.42639">
        <ele>1152.6</ele>
        <time>2021-10-09T08:00:13Z</time>
      </trkpt>
      <trkpt lat="44.87562" lon="5.4264">
        <ele>1153.2</ele>
        <time>2021-10-09T08:00:14Z</time>
      </trkpt>
      <trkpt lat="44.87565" lon="5.4264">
        <ele>1153.2</ele>
        <time>2021-10-09T08:00:15Z</time>
      </trkpt>
      <trkpt lat="44.87567" lon="5.42641">
        <ele>1153.2</ele>
        <time>2021-10-09T08:00:16Z</time>
      </trkpt>
      <trkpt lat="44.87569" lon="5.42643">
        <ele>1153.2</ele>
        <time>2021-10-09T08:00:17Z</time>
      </trkpt>
      <trkpt lat="44.8757" lon="5.42644">
        <ele>1154</ele>
        <time>2021-10-09T08:00:18Z</time>
      </trkpt>
      <trkpt lat="44.87571" lon="5.42644">
        <ele>1154.4</ele>
        <time>2021-10-09T08:00:19Z</time>
      </trkpt>
      <trkpt lat="44.87573" lon="5.42644">
        <ele>1154.4</ele>
        <time>2021-10-09T08:00:20Z</time>
      </trkpt>
      <trkpt lat="44.87574" lon="5.42645">
        <ele>1154.4</ele>
        <time>2021-10-09T08:00:21Z</time>
      </trkpt>
      <trkpt lat="44.87575" lon="5.42647">
        <ele>1154.4</ele>
        <time>2021-10-09T08:00:22Z</time>
      </trkpt>
      <trkpt lat="44.87577" lon="5.42648">
        <ele>1154.8</ele>
        <time>2021-10-09T08:00:23Z</time>
      </trkpt>
      <trkpt lat="44.87578" lon="5.42649">
        <ele>1154.8</ele>
        <time>2021-10-09T08:00:24Z</time>
      </trkpt>
      <trkpt lat="44.87581" lon="5.42649">
        <ele>1154.8</ele>
        <time>2021-10-09T08:00:25Z</time>
      </trkpt>
      <trkpt lat="44.87583" lon="5.4265">
        <ele>1155.6</ele>
        <time>2021-10-09T08:00:26Z</time>
      </trkpt>
      <trkpt lat="44.87584" lon="5.4265">
        <ele>1155.8</ele>
        <time>2021-10-09T08:00:27Z</time>
      </trkpt>
      <trkpt lat="44.87586" lon="5.42651">
        <ele>1155.8</ele>
        <time>2021-10-09T08:00:28Z</time>
      </trkpt>
      <trkpt lat="44.87587" lon="5.42651">
        <ele>1155.8</ele>
        <time>2021-10-09T08:00:29Z</time>
      </trkpt>
      <trkpt lat="44.87589" lon="5.42651">
        <ele>1155.8</ele>
        <time>2021-10-09T08:00:30Z</time>
      </trkpt>
      <trkpt lat="44.8759" lon="5.42651">
        <ele>1156</ele>
        <time>2021-10-09T08:00:31Z</time>
      </trkpt>
      <trkpt lat="44.87591" lon="5.42652">
        <ele>1156</ele>
        <time>2021-10-09T08:00:32Z</time>
      </trkpt>
      <trkpt lat="44.87593" lon="5.42653">
        <ele>1156</ele>
        <time>2021-10-09T08:00:33Z</time>
      </trkpt>
      <trkpt lat="44.87596" lon="5.42653">
        <ele>1156</ele>
        <time>2021-10-09T08:00:34Z</time>
      </trkpt>
      <trkpt lat="44.87597" lon="5.42654">
        <ele>1156.8</ele>
        <time>2021-10-09T08:00:35Z</time>
      </trkpt>
      <trkpt lat="44.876" lon="5.42654">
        <ele>1156.8</ele>
        <time>2021-10-09T08:00:36Z</time>
      </trkpt>
      <trkpt lat="44.87602" lon="5.42655">
        <ele>1156.8</ele>
        <time>2021-10-09T08:00:37Z</time>
      </trkpt>
      <trkpt lat="44.87604" lon="5.42655">
        <ele>1157.2</ele>
        <time>2021-10-09T08:00:38Z</time>
      </trkpt>
      <trkpt lat="44.87606" lon="5.42655">
        <ele>1157.2</ele>
        <time>2021-10-09T08:00:39Z</time>
      </trkpt>
      <trkpt lat="44.87608" lon="5.42656">
        <ele>1157.2</ele>
        <time>2021-10-09T08:00:40Z</time>
      </trkpt>
      <trkpt lat="44.8761" lon="5.42657">
        <ele>1157.2</ele>
        <time>2021-10-09T08:00:41Z</time>
      </trkpt>
      <trkpt lat="44.87612" lon="5.42658">
        <ele>1157.6</ele>
        <time>2021-10-09T08:00:42Z</time>
      </trkpt>
      <trkpt lat="44.87613" lon="5.42659">
        <ele>1157.8</ele>
        <time>2021-10-09T08:00:43Z</time>
      </trkpt>
      <trkpt lat="44.87615" lon="5.4266">
        <ele>1157.8</ele>
        <time>2021-10-09T08:00:44Z</time>
      </trkpt>
      <trkpt lat="44.87617" lon="5.42661">
        <ele>1157.8</ele>
        <time>2021-10-09T08:00:45Z</time>
      </trkpt>
      <trkpt lat="44.87619" lon="5.42662">
        <ele>1157.8</ele>
        <time>2021-10-09T08:00:46Z</time>
      </trkpt>
      <trkpt lat="44.87621" lon="5.42663">
        <ele>1158.2</ele>
        <time>2021-10-09T08:00:47Z</time>
      </trkpt>
      <trkpt lat="44.87622" lon="5.42664">
        <ele>1158.2</ele>
        <time>2021-10-09T08:00:48Z</time>
      </trkpt>
      <trkpt lat="44.87625" lon="5.42665">
        <ele>1158.2</ele>
        <time>2021-10-09T08:00:49Z</time>
      </trkpt>
      <trkpt lat="44.87626" lon="5.42666">
        <ele>1158.2</ele>
        <time>2021-10-09T08:00:50Z</time>
      </trkpt>
      <trkpt lat="44.87627" lon="5.42667">
        <ele>1158.6</ele>
        <time>2021-10-09T08:00:51Z</time>
      </trkpt>
      <trkpt lat="44.87629" lon="5.42667">
        <ele>1158.6</ele>
        <time>2021-10-09T08:00:52Z</time>
      </trkpt>
      <trkpt lat="44.8763" lon="5.42668">
        <ele>1158.6</ele>
        <time>2021-10-09T08:00:53Z</time>
      </trkpt>
      <trkpt lat="44.8763" lon="5.42668">
        <ele>1159</ele>
        <time>2021-10-09T08:00:54Z</time>
      </trkpt>
      <trkpt lat="44.87631" lon="5.4267">
        <ele>1159.4</ele>
        <time>2021-10-09T08:00:55Z</time>
      </trkpt>
      <trkpt lat="44.87632" lon="5.42671">
        <ele>1159.4</ele>
        <time>2021-10-09T08:00:56Z</time>
      </trkpt>
      <trkpt lat="44.87634" lon="5.42672">
        <ele>1159.4</ele>
        <time>2021-10-09T08:00:57Z</time>
      </trkpt>
      <trkpt lat="44.87635" lon="5.42673">
        <ele>1159.4</ele>
        <time>2021-10-09T08:00:58Z</time>
      </trkpt>
      <trkpt lat="44.87637" lon="5.42674">
        <ele>1160</ele>
        <time>2021-10-09T08:00:59Z</time>
      </trkpt>
      <trkpt lat="44.87638" lon="5.42675">
        <ele>1160</ele>
        <time>2021-10-09T08:01:00Z</time>
      </trkpt>
      <trkpt lat="44.8764" lon="5.42677">
        <ele>1160</ele>
        <time>2021-10-09T08:01:01Z</time>
      </trkpt>
      <trkpt lat="44.87641" lon="5.42678">
        <ele>1160</ele>
        <time>2021-10-09T08:01:02Z</time>
      </trkpt>
      <trkpt lat="44.87642" lon="5.42679">
        <ele>1160.8</ele>
        <time>2021-10-09T08:01:03Z</time>
      </trkpt>
      <trkpt lat="44.87644" lon="5.4268">
        <ele>1160.8</ele>
        <time>2021-10-09T08:01:04Z</time>
      </trkpt>
      <trkpt lat="44.87645" lon="5.42681">
        <ele>1160.8</ele>
        <time>2021-10-09T08:01:05Z</time>
      </trkpt>
      <trkpt lat="44.87647" lon="5.42683">
        <ele>1160.8</ele>
        <time>2021-10-09T08:01:06Z</time>
      </trkpt>
      <trkpt lat="44.87647" lon="5.42684">
        <ele>1161.2</ele>
        <time>2021-10-09T08:01:07Z</time>
      </trkpt>
      <trkpt lat="44.87649" lon="5.42685">
        <ele>1161.2</ele>
        <time>2021-10-09T08:01:08Z</time>
      </trkpt>
      <trkpt lat="44.8765" lon="5.42687">
        <ele>1161.2</ele>
        <time>2021-10-09T08:01:09Z</time>
      </trkpt>
      <trkpt lat="44.87651" lon="5.42689">
        <ele>1161.2</ele>
        <time>2021-10-09T08:01:10Z</time>
      </trkpt>
      <trkpt lat="44.87653" lon="5.4269">
        <ele>1161.6</ele>
        <time>2021-10-09T08:01:11Z</time>
      </trkpt>
      <trkpt lat="44.87655" lon="5.42691">
        <ele>1161.6</ele>
        <time>2021-10-09T08:01:12Z</time>
      </trkpt>
      <trkpt lat="44.87656" lon="5.42691">
        <ele>1161.6</ele>
        <time>2021-10-09T08:01:13Z</time>
      </trkpt>
      <trkpt lat="44.87657" lon="5.42691">
        <ele>1161.8</ele>
        <time>2021-10-09T08:01:14Z</time>
      </trkpt>
      <trkpt lat="44.87659" lon="5.42691">
        <ele>1162</ele>
        <time>2021-10-09T08:01:15Z</time>
      </trkpt>
      <trkpt lat="44.87662" lon="5.42691">
        <ele>1162</ele>
        <time>2021-10-09T08:01:16Z</time>
      </trkpt>
      <trkpt lat="44.87664" lon="5.42693">
        <ele>1162</ele>
        <time>2021-10-09T08:01:17Z</time>
      </trkpt>
      <trkpt lat="44.87668" lon="5.42695">
        <ele>1162.8</ele>
        <time>2021-10-09T08:01:18Z</time>
      </trkpt>
      <trkpt lat="44.8767" lon="5.42695">
        <ele>1162.8</ele>
        <time>2021-10-09T08:01:19Z</time>
      </trkpt>
      <trkpt lat="44.87673" lon="5.42697">
        <ele>1162.8</ele>
        <time>2021-10-09T08:01:20Z</time>
      </trkpt>
      <trkpt lat="44.87676" lon="5.42698">
        <ele>1162.8</ele>
        <time>2021-10-09T08:01:21Z</time>
      </trkpt>
      <trkpt lat="44.87678" lon="5.42699">
        <ele>1163</ele>
        <time>2021-10-09T08:01:22Z</time>
      </trkpt>
      <trkpt lat="44.8768" lon="5.427">
        <ele>1163.6</ele>
        <time>2021-10-09T08:01:23Z</time>
      </trkpt>
      <trkpt lat="44.87683" lon="5.42703">
        <ele>1163.6</ele>
        <time>2021-10-09T08:01:24Z</time>
      </trkpt>
      <trkpt lat="44.87686" lon="5.42704">
        <ele>1163.6</ele>
        <time>2021-10-09T08:01:25Z</time>
      </trkpt>
      <trkpt lat="44.87689" lon="5.42705">
        <ele>1163.8</ele>
        <time>2021-10-09T08:01:26Z</time>
      </trkpt>
      <trkpt lat="44.87691" lon="5.42706">
        <ele>1164</ele>
        <time>2021-10-09T08:01:27Z</time>
      </trkpt>
      <trkpt lat="44.87692" lon="5.42708">
        <ele>1164</ele>
        <time>2021-10-09T08:01:28Z</time>
      </trkpt>
      <trkpt lat="44.87694" lon="5.42708">
        <ele>1164</ele>
        <time>2021-10-09T08:01:29Z</time>
      </trkpt>
      <trkpt lat="44.87695" lon="5.4271">
        <ele>1164.2</ele>
        <time>2021-10-09T08:01:30Z</time>
      </trkpt>
      <trkpt lat="44.87697" lon="5.42711">
        <ele>1165</ele>
        <time>2021-10-09T08:01:31Z</time>
      </trkpt>
      <trkpt lat="44.87699" lon="5.42712">
        <ele>1165</ele>
        <time>2021-10-09T08:01:32Z</time>
      </trkpt>
      <trkpt lat="44.87702" lon="5.42714">
        <ele>1165</ele>
        <time>2021-10-09T08:01:33Z</time>
      </trkpt>
      <trkpt lat="44.87703" lon="5.42714">
        <ele>1165</ele>
        <time>2021-10-09T08:01:34Z</time>
      </trkpt>
      <trkpt lat="44.87705" lon="5.42714">
        <ele>1165</ele>
        <time>2021-10-09T08:01:35Z</time>
      </trkpt>
      <trkpt lat="44.87706" lon="5.42715">
        <ele>1165</ele>
        <time>2021-10-09T08:01:36Z</time>
      </trkpt>
      <trkpt lat="44.87707" lon="5.42715">
        <ele>1165</ele>
        <time>2021-10-09T08:01:37Z</time>
      </trkpt>
      <trkpt lat="44.87708" lon="5.42716">
        <ele>1165.6</ele>
        <time>2021-10-09T08:01:38Z</time>
      </trkpt>
      <trkpt lat="44.8771" lon="5.42716">
        <ele>1165.8</ele>
        <time>2021-10-09T08:01:39Z</time>
      </trkpt>
      <trkpt lat="44.8771" lon="5.42716">
        <ele>1165.8</ele>
        <time>2021-10-09T08:01:40Z</time>
      </trkpt>
      <trkpt lat="44.87712" lon="5.42717">
        <ele>1165.8</ele>
        <time>2021-10-09T08:01:41Z</time>
      </trkpt>
      <trkpt lat="44.87714" lon="5.42717">
        <ele>1166.4</ele>
        <time>2021-10-09T08:01:42Z</time>
      </trkpt>
      <trkpt lat="44.87716" lon="5.42717">
        <ele>1166.4</ele>
        <time>2021-10-09T08:01:43Z</time>
      </trkpt>
      <trkpt lat="44.87718" lon="5.42718">
        <ele>1166.4</ele>
        <time>2021-10-09T08:01:44Z</time>
      </trkpt>
      <trkpt lat="44.87719" lon="5.42719">
        <ele>1166.4</ele>
        <time>2021-10-09T08:01:45Z</time>
      </trkpt>
      <trkpt lat="44.87721" lon="5.4272">
        <ele>1167</ele>
        <time>2021-10-09T08:01:46Z</time>
      </trkpt>
      <trkpt lat="44.87723" lon="5.42721">
        <ele>1167.2</ele>
        <time>2021-10-09T08:01:47Z</time>
      </trkpt>
      <trkpt lat="44.87725" lon="5.42723">
        <ele>1167.2</ele>
        <time>2021-10-09T08:01:48Z</time>
      </trkpt>
      <trkpt lat="44.87727" lon="5.42723">
        <ele>1167.2</ele>
        <time>2021-10-09T08:01:49Z</time>
      </trkpt>
      <trkpt lat="44.87728" lon="5.42724">
        <ele>1167.2</ele>
        <time>2021-10-09T08:01:50Z</time>
      </trkpt>
      <trkpt lat="44.8773" lon="5.42725">
        <ele>1167.6</ele>
        <time>2021-10-09T08:01:51Z</time>
      </trkpt>
      <trkpt lat="44.87731" lon="5.42726">
        <ele>1167.6</ele>
        <time>2021-10-09T08:01:52Z</time>
      </trkpt>
      <trkpt lat="44.87733" lon="5.42727">
        <ele>1167.6</ele>
        <time>2021-10-09T08:01:53Z</time>
      </trkpt>
      <trkpt lat="44.87734" lon="5.42728">
        <ele>1167.6</ele>
        <time>2021-10-09T08:01:54Z</time>
      </trkpt>
      <trkpt lat="44.87736" lon="5.42728">
        <ele>1168</ele>
        <time>2021-10-09T08:01:55Z</time>
      </trkpt>
      <trkpt lat="44.87737" lon="5.42729">
        <ele>1168</ele>
        <time>2021-10-09T08:01:56Z</time>
      </trkpt>
      <trkpt lat="44.87739" lon="5.4273">
        <ele>1168</ele>
        <time>2021-10-09T08:01:57Z</time>
      </trkpt>
      <trkpt lat="44.8774" lon="5.42732">
        <ele>1168</ele>
        <time>2021-10-09T08:01:58Z</time>
      </trkpt>
      <trkpt lat="44.87742" lon="5.42733">
        <ele>1168.4</ele>
        <time>2021-10-09T08:01:59Z</time>
      </trkpt>
      <trkpt lat="44.87743" lon="5.42734">
        <ele>1168.4</ele>
        <time>2021-10-09T08:02:00Z</time>
      </trkpt>
      <trkpt lat="44.87744" lon="5.42734">
        <ele>1168.4</ele>
        <time>2021-10-09T08:02:01Z</time>
      </trkpt>
      <trkpt lat="44.87746" lon="5.42735">
        <ele>1169</ele>
        <time>2021-10-09T08:02:02Z</time>
      </trkpt>
      <trkpt lat="44.87747" lon="5.42735">
        <ele>1168.8</ele>
        <time>2021-10-09T08:02:03Z</time>
      </trkpt>
      <trkpt lat="44.87748" lon="5.42736">
        <ele>1168.8</ele>
        <time>2021-10-09T08:02:04Z</time>
      </trkpt>
      <trkpt lat="44.87749" lon="5.42737">
        <ele>1168.8</ele>
        <time>2021-10-09T08:02:05Z</time>
      </trkpt>
      <trkpt lat="44.8775" lon="5.42737">
        <ele>1169.8</ele>
        <time>2021-10-09T08:02:06Z</time>
      </trkpt>
      <trkpt lat="44.87751" lon="5.42737">
        <ele>1169.8</ele>
        <time>2021-10-09T08:02:07Z</time>
      </trkpt>
      <trkpt lat="44.87752" lon="5.42738">
        <ele>1169.8</ele>
        <time>2021-10-09T08:02:08Z</time>
      </trkpt>
      <trkpt lat="44.87755" lon="5.4274">
        <ele>1169.8</ele>
        <time>2021-10-09T08:02:09Z</time>
      </trkpt>
      <trkpt lat="44.87756" lon="5.4274">
        <ele>1169.8</ele>
        <time>2021-10-09T08:02:10Z</time>
      </trkpt>
      <trkpt lat="44.87758" lon="5.42741">
        <ele>1170.4</ele>
        <time>2021-10-09T08:02:11Z</time>
      </trkpt>
      <trkpt lat="44.87761" lon="5.42742">
        <ele>1170.4</ele>
        <time>2021-10-09T08:02:12Z</time>
      </trkpt>
      <trkpt lat="44.87762" lon="5.42743">
        <ele>1170.4</ele>
        <time>2021-10-09T08:02:13Z</time>
      </trkpt>
      <trkpt lat="44.87765" lon="5.42745">
        <ele>1170.4</ele>
        <time>2021-10-09T08:02:14Z</time>
      </trkpt>
      <trkpt lat="44.87766" lon="5.42746">
        <ele>1170.8</ele>
        <time>2021-10-09T08:02:15Z</time>
      </trkpt>
      <trkpt lat="44.87768" lon="5.42746">
        <ele>1170.8</ele>
        <time>2021-10-09T08:02:16Z</time>
      </trkpt>
      <trkpt lat="44.87769" lon="5.42747">
        <ele>1170.8</ele>
        <time>2021-10-09T08:02:17Z</time>
      </trkpt>
      <trkpt lat="44.87772" lon="5.42748">
        <ele>1170.8</ele>
        <time>2021-10-09T08:02:18Z</time>
      </trkpt>
      <trkpt lat="44.87774" lon="5.4275">
        <ele>1171.4</ele>
        <time>2021-10-09T08:02:19Z</time>
      </trkpt>
      <trkpt lat="44.87775" lon="5.42751">
        <ele>1171.4</ele>
        <time>2021-10-09T08:02:20Z</time>
      </trkpt>
      <trkpt lat="44.87778" lon="5.42752">
        <ele>1171.4</ele>
        <time>2021-10-09T08:02:21Z</time>
      </trkpt>
      <trkpt lat="44.87779" lon="5.42753">
        <ele>1171.4</ele>
        <time>2021-10-09T08:02:22Z</time>
      </trkpt>
      <trkpt lat="44.87781" lon="5.42754">
        <ele>1172</ele>
        <time>2021-10-09T08:02:23Z</time>
      </trkpt>
      <trkpt lat="44.87783" lon="5.42755">
        <ele>1172</ele>
        <time>2021-10-09T08:02:24Z</time>
      </trkpt>
      <trkpt lat="44.87785" lon="5.42756">
        <ele>1172</ele>
        <time>2021-10-09T08:02:25Z</time>
      </trkpt>
      <trkpt lat="44.87787" lon="5.42757">
        <ele>1172</ele>
        <time>2021-10-09T08:02:26Z</time>
      </trkpt>
      <trkpt lat="44.87789" lon="5.42757">
        <ele>1172.8</ele>
        <time>2021-10-09T08:02:27Z</time>
      </trkpt>
      <trkpt lat="44.87791" lon="5.42757">
        <ele>1172.8</ele>
        <time>2021-10-09T08:02:28Z</time>
      </trkpt>
      <trkpt lat="44.87793" lon="5.42758">
        <ele>1172.8</ele>
        <time>2021-10-09T08:02:29Z</time>
      </trkpt>
      <trkpt lat="44.87795" lon="5.42759">
        <ele>1172.8</ele>
        <time>2021-10-09T08:02:30Z</time>
      </trkpt>
      <trkpt lat="44.87796" lon="5.42761">
        <ele>1173</ele>
        <time>2021-10-09T08:02:31Z</time>
      </trkpt>
      <trkpt lat="44.87799" lon="5.42762">
        <ele>1173</ele>
        <time>2021-10-09T08:02:32Z</time>
      </trkpt>
      <trkpt lat="44.878" lon="5.42764">
        <ele>1173</ele>
        <time>2021-10-09T08:02:33Z</time>
      </trkpt>
      <trkpt lat="44.87803" lon="5.42764">
        <ele>1173.4</ele>
        <time>2021-10-09T08:02:34Z</time>
      </trkpt>
      <trkpt lat="44.87805" lon="5.42765">
        <ele>1173.4</ele>
        <time>2021-10-09T08:02:35Z</time>
      </trkpt>
      <trkpt lat="44.87806" lon="5.42766">
        <ele>1173.4</ele>
        <time>2021-10-09T08:02:36Z</time>
      </trkpt>
      <trkpt lat="44.87808" lon="5.42766">
        <ele>1173.4</ele>
        <time>2021-10-09T08:02:37Z</time>
      </trkpt>
      <trkpt lat="44.8781" lon="5.42767">
        <ele>1173.4</ele>
        <time>2021-10-09T08:02:38Z</time>
      </trkpt>
      <trkpt lat="44.87812" lon="5.42768">
        <ele>1174</ele>
        <time>2021-10-09T08:02:39Z</time>
      </trkpt>
      <trkpt lat="44.87813" lon="5.42768">
        <ele>1174</ele>
        <time>2021-10-09T08:02:40Z</time>
      </trkpt>
      <trkpt lat="44.87815" lon="5.42769">
        <ele>1174</ele>
        <time>2021-10-09T08:02:41Z</time>
      </trkpt>
      <trkpt lat="44.87817" lon="5.4277">
        <ele>1174.6</ele>
        <time>2021-10-09T08:02:42Z</time>
      </trkpt>
      <trkpt lat="44.87818" lon="5.42771">
        <ele>1174.6</ele>
        <time>2021-10-09T08:02:43Z</time>
      </trkpt>
      <trkpt lat="44.8782" lon="5.42773">
        <ele>1174.6</ele>
        <time>2021-10-09T08:02:44Z</time>
      </trkpt>
      <trkpt lat="44.87822" lon="5.42775">
        <ele>1174.6</ele>
        <time>2021-10-09T08:02:45Z</time>
      </trkpt>
      <trkpt lat="44.87824" lon="5.42776">
        <ele>1174.6</ele>
        <time>2021-10-09T08:02:46Z</time>
      </trkpt>
      <trkpt lat="44.87825" lon="5.42777">
        <ele>1175</ele>
        <time>2021-10-09T08:02:47Z</time>
      </trkpt>
      <trkpt lat="44.87826" lon="5.42778">
        <ele>1175</ele>
        <time>2021-10-09T08:02:48Z</time>
      </trkpt>
      <trkpt lat="44.87828" lon="5.4278">
        <ele>1175</ele>
        <time>2021-10-09T08:02:49Z</time>
      </trkpt>
      <trkpt lat="44.87829" lon="5.42781">
        <ele>1175.4</ele>
        <time>2021-10-09T08:02:50Z</time>
      </trkpt>
      <trkpt lat="44.87831" lon="5.42782">
        <ele>1175.8</ele>
        <time>2021-10-09T08:02:51Z</time>
      </trkpt>
      <trkpt lat="44.87833" lon="5.42782">
        <ele>1175.8</ele>
        <time>2021-10-09T08:02:52Z</time>
      </trkpt>
      <trkpt lat="44.87834" lon="5.42783">
        <ele>1175.8</ele>
        <time>2021-10-09T08:02:53Z</time>
      </trkpt>
      <trkpt lat="44.87835" lon="5.42784">
        <ele>1176</ele>
        <time>2021-10-09T08:02:54Z</time>
      </trkpt>
      <trkpt lat="44.87837" lon="5.42785">
        <ele>1176.2</ele>
        <time>2021-10-09T08:02:55Z</time>
      </trkpt>
      <trkpt lat="44.87838" lon="5.42786">
        <ele>1176.2</ele>
        <time>2021-10-09T08:02:56Z</time>
      </trkpt>
      <trkpt lat="44.87839" lon="5.42786">
        <ele>1176.2</ele>
        <time>2021-10-09T08:02:57Z</time>
      </trkpt>
      <trkpt lat="44.8784" lon="5.42787">
        <ele>1176.2</ele>
        <time>2021-10-09T08:02:58Z</time>
      </trkpt>
      <trkpt lat="44.87842" lon="5.42788">
        <ele>1176.8</ele>
        <time>2021-10-09T08:02:59Z</time>
      </trkpt>
      <trkpt lat="44.87844" lon="5.42788">
        <ele>1176.8</ele>
        <time>2021-10-09T08:03:00Z</time>
      </trkpt>
      <trkpt lat="44.87846" lon="5.4279">
        <ele>1176.8</ele>
        <time>2021-10-09T08:03:01Z</time>
      </trkpt>
      <trkpt lat="44.87847" lon="5.4279">
        <ele>1176.8</ele>
        <time>2021-10-09T08:03:02Z</time>
      </trkpt>
      <trkpt lat="44.87848" lon="5.42791">
        <ele>1177.4</ele>
        <time>2021-10-09T08:03:03Z</time>
      </trkpt>
      <trkpt lat="44.87849" lon="5.42791">
        <ele>1177.4</ele>
        <time>2021-10-09T08:03:04Z</time>
      </trkpt>
      <trkpt lat="44.87851" lon="5.42793">
        <ele>1177.4</ele>
        <time>2021-10-09T08:03:05Z</time>
      </trkpt>
      <trkpt lat="44.87853" lon="5.42795">
        <ele>1177.4</ele>
        <time>2021-10-09T08:03:06Z</time>
      </trkpt>
      <trkpt lat="44.87854" lon="5.42795">
        <ele>1177.4</ele>
        <time>2021-10-09T08:03:07Z</time>
      </trkpt>
      <trkpt lat="44.87856" lon="5.42796">
        <ele>1177.4</ele>
        <time>2021-10-09T08:03:08Z</time>
      </trkpt>
      <trkpt lat="44.87857" lon="5.42796">
        <ele>1177.4</ele>
        <time>2021-10-09T08:03:09Z</time>
      </trkpt>
      <trkpt lat="44.87859" lon="5.42796">
        <ele>1178.2</ele>
        <time>2021-10-09T08:03:10Z</time>
      </trkpt>
      <trkpt lat="44.8786" lon="5.42796">
        <ele>1178.6</ele>
        <time>2021-10-09T08:03:11Z</time>
      </trkpt>
      <trkpt lat="44.87861" lon="5.42797">
        <ele>1178.6</ele>
        <time>2021-10-09T08:03:12Z</time>
      </trkpt>
      <trkpt lat="44.87863" lon="5.42797">
        <ele>1178.6</ele>
        <time>2021-10-09T08:03:13Z</time>
      </trkpt>
      <trkpt lat="44.87866" lon="5.42799">
        <ele>1178.6</ele>
        <time>2021-10-09T08:03:14Z</time>
      </trkpt>
      <trkpt lat="44.87867" lon="5.428">
        <ele>1178.8</ele>
        <time>2021-10-09T08:03:15Z</time>
      </trkpt>
      <trkpt lat="44.87868" lon="5.428">
        <ele>1178.8</ele>
        <time>2021-10-09T08:03:16Z</time>
      </trkpt>
      <trkpt lat="44.87869" lon="5.42801">
        <ele>1178.8</ele>
        <time>2021-10-09T08:03:17Z</time>
      </trkpt>
      <trkpt lat="44.8787" lon="5.42801">
        <ele>1178.8</ele>
        <time>2021-10-09T08:03:18Z</time>
      </trkpt>
      <trkpt lat="44.87871" lon="5.42801">
        <ele>1179</ele>
        <time>2021-10-09T08:03:19Z</time>
      </trkpt>
      <trkpt lat="44.87873" lon="5.42801">
        <ele>1179</ele>
        <time>2021-10-09T08:03:20Z</time>
      </trkpt>
      <trkpt lat="44.87875" lon="5.42802">
        <ele>1179</ele>
        <time>2021-10-09T08:03:21Z</time>
      </trkpt>
      <trkpt lat="44.87878" lon="5.42804">
        <ele>1180</ele>
        <time>2021-10-09T08:03:22Z</time>
      </trkpt>
      <trkpt lat="44.87879" lon="5.42805">
        <ele>1179.4</ele>
        <time>2021-10-09T08:03:23Z</time>
      </trkpt>
      <trkpt lat="44.87881" lon="5.42806">
        <ele>1179.4</ele>
        <time>2021-10-09T08:03:24Z</time>
      </trkpt>
      <trkpt lat="44.87882" lon="5.42807">
        <ele>1179.4</ele>
        <time>2021-10-09T08:03:25Z</time>
      </trkpt>
      <trkpt lat="44.87884" lon="5.42808">
        <ele>1180.4</ele>
        <time>2021-10-09T08:03:26Z</time>
      </trkpt>
      <trkpt lat="44.87886" lon="5.42808">
        <ele>1180.8</ele>
        <time>2021-10-09T08:03:27Z</time>
      </trkpt>
      <trkpt lat="44.87889" lon="5.4281">
        <ele>1180.8</ele>
        <time>2021-10-09T08:03:28Z</time>
      </trkpt>
      <trkpt lat="44.8789" lon="5.42811">
        <ele>1180.8</ele>
        <time>2021-10-09T08:03:29Z</time>
      </trkpt>
      <trkpt lat="44.87893" lon="5.42813">
        <ele>1180.8</ele>
        <time>2021-10-09T08:03:30Z</time>
      </trkpt>
      <trkpt lat="44.87894" lon="5.42814">
        <ele>1181.4</ele>
        <time>2021-10-09T08:03:31Z</time>
      </trkpt>
      <trkpt lat="44.87896" lon="5.42815">
        <ele>1181.4</ele>
        <time>2021-10-09T08:03:32Z</time>
      </trkpt>
      <trkpt lat="44.87898" lon="5.42816">
        <ele>1181.4</ele>
        <time>2021-10-09T08:03:33Z</time>
      </trkpt>
      <trkpt lat="44.879" lon="5.42818">
        <ele>1181.6</ele>
        <time>2021-10-09T08:03:34Z</time>
      </trkpt>
      <trkpt lat="44.87902" lon="5.42818">
        <ele>1181.8</ele>
        <time>2021-10-09T08:03:35Z</time>
      </trkpt>
      <trkpt lat="44.87903" lon="5.42819">
        <ele>1181.8</ele>
        <time>2021-10-09T08:03:36Z</time>
      </trkpt>
      <trkpt lat="44.87905" lon="5.42819">
        <ele>1181.8</ele>
        <time>2021-10-09T08:03:37Z</time>
      </trkpt>
      <trkpt lat="44.87907" lon="5.4282">
        <ele>1182</ele>
        <time>2021-10-09T08:03:38Z</time>
      </trkpt>
      <trkpt lat="44.87909" lon="5.42821">
        <ele>1182.2</ele>
        <time>2021-10-09T08:03:39Z</time>
      </trkpt>
      <trkpt lat="44.87911" lon="5.42821">
        <ele>1182.2</ele>
        <time>2021-10-09T08:03:40Z</time>
      </trkpt>
      <trkpt lat="44.87913" lon="5.42823">
        <ele>1182.2</ele>
        <time>2021-10-09T08:03:41Z</time>
      </trkpt>
      <trkpt lat="44.87915" lon="5.42824">
        <ele>1182.8</ele>
        <time>2021-10-09T08:03:42Z</time>
      </trkpt>
      <trkpt lat="44.87917" lon="5.42824">
        <ele>1183</ele>
        <time>2021-10-09T08:03:43Z</time>
      </trkpt>
      <trkpt lat="44.8792" lon="5.42826">
        <ele>1183</ele>
        <time>2021-10-09T08:03:44Z</time>
      </trkpt>
      <trkpt lat="44.87921" lon="5.42827">
        <ele>1183</ele>
        <time>2021-10-09T08:03:45Z</time>
      </trkpt>
      <trkpt lat="44.87922" lon="5.42827">
        <ele>1183</ele>
        <time>2021-10-09T08:03:46Z</time>
      </trkpt>
      <trkpt lat="44.87925" lon="5.42828">
        <ele>1183.6</ele>
        <time>2021-10-09T08:03:47Z</time>
      </trkpt>
      <trkpt lat="44.87926" lon="5.42828">
        <ele>1183.6</ele>
        <time>2021-10-09T08:03:48Z</time>
      </trkpt>
      <trkpt lat="44.87928" lon="5.42829">
        <ele>1183.6</ele>
        <time>2021-10-09T08:03:49Z</time>
      </trkpt>
      <trkpt lat="44.8793" lon="5.4283">
        <ele>1183.6</ele>
        <time>2021-10-09T08:03:50Z</time>
      </trkpt>
      <trkpt lat="44.87932" lon="5.42831">
        <ele>1184</ele>
        <time>2021-10-09T08:03:51Z</time>
      </trkpt>
      <trkpt lat="44.87933" lon="5.42831">
        <ele>1184</ele>
        <time>2021-10-09T08:03:52Z</time>
      </trkpt>
      <trkpt lat="44.87933" lon="5.42831">
        <ele>1184</ele>
        <time>2021-10-09T08:03:53Z</time>
      </trkpt>
      <trkpt lat="44.87935" lon="5.42831">
        <ele>1184</ele>
        <time>2021-10-09T08:03:54Z</time>
      </trkpt>
      <trkpt lat="44.87936" lon="5.42832">
        <ele>1184</ele>
        <time>2021-10-09T08:03:55Z</time>
      </trkpt>
      <trkpt lat="44.87937" lon="5.42833">
        <ele>1184</ele>
        <time>2021-10-09T08:03:56Z</time>
      </trkpt>
      <trkpt lat="44.8794" lon="5.42834">
        <ele>1184</ele>
        <time>2021-10-09T08:03:57Z</time>
      </trkpt>
      <trkpt lat="44.87943" lon="5.42834">
        <ele>1184.4</ele>
        <time>2021-10-09T08:03:58Z</time>
      </trkpt>
      <trkpt lat="44.87945" lon="5.42835">
        <ele>1184.4</ele>
        <time>2021-10-09T08:03:59Z</time>
      </trkpt>
      <trkpt lat="44.87947" lon="5.42836">
        <ele>1184.4</ele>
        <time>2021-10-09T08:04:00Z</time>
      </trkpt>
      <trkpt lat="44.87949" lon="5.42837">
        <ele>1184.4</ele>
        <time>2021-10-09T08:04:01Z</time>
      </trkpt>
      <trkpt lat="44.87952" lon="5.42838">
        <ele>1184.4</ele>
        <time>2021-10-09T08:04:02Z</time>
      </trkpt>
      <trkpt lat="44.87954" lon="5.42838">
        <ele>1184.6</ele>
        <time>2021-10-09T08:04:03Z</time>
      </trkpt>
      <trkpt lat="44.87956" lon="5.42839">
        <ele>1184.6</ele>
        <time>2021-10-09T08:04:04Z</time>
      </trkpt>
      <trkpt lat="44.87958" lon="5.4284">
        <ele>1184.6</ele>
        <time>2021-10-09T08:04:05Z</time>
      </trkpt>
      <trkpt lat="44.8796" lon="5.4284">
        <ele>1185.2</ele>
        <time>2021-10-09T08:04:06Z</time>
      </trkpt>
      <trkpt lat="44.87963" lon="5.4284">
        <ele>1185.2</ele>
        <time>2021-10-09T08:04:07Z</time>
      </trkpt>
      <trkpt lat="44.87964" lon="5.42841">
        <ele>1185.2</ele>
        <time>2021-10-09T08:04:08Z</time>
      </trkpt>
      <trkpt lat="44.87966" lon="5.42842">
        <ele>1185.2</ele>
        <time>2021-10-09T08:04:09Z</time>
      </trkpt>
      <trkpt lat="44.87968" lon="5.42843">
        <ele>1185.2</ele>
        <time>2021-10-09T08:04:10Z</time>
      </trkpt>
      <trkpt lat="44.87969" lon="5.42844">
        <ele>1185.2</ele>
        <time>2021-10-09T08:04:11Z</time>
      </trkpt>
      <trkpt lat="44.87972" lon="5.42846">
        <ele>1185.2</ele>
        <time>2021-10-09T08:04:12Z</time>
      </trkpt>
      <trkpt lat="44.87974" lon="5.42847">
        <ele>1185.2</ele>
        <time>2021-10-09T08:04:13Z</time>
      </trkpt>
      <trkpt lat="44.87976" lon="5.42849">
        <ele>1185.6</ele>
        <time>2021-10-09T08:04:14Z</time>
      </trkpt>
      <trkpt lat="44.87977" lon="5.4285">
        <ele>1185.8</ele>
        <time>2021-10-09T08:04:15Z</time>
      </trkpt>
      <trkpt lat="44.87978" lon="5.42851">
        <ele>1185.8</ele>
        <time>2021-10-09T08:04:16Z</time>
      </trkpt>
      <trkpt lat="44.87979" lon="5.42852">
        <ele>1185.8</ele>
        <time>2021-10-09T08:04:17Z</time>
      </trkpt>
      <trkpt lat="44.8798" lon="5.42853">
        <ele>1185.8</ele>
        <time>2021-10-09T08:04:18Z</time>
      </trkpt>
      <trkpt lat="44.87981" lon="5.42856">
        <ele>1185.6</ele>
        <time>2021-10-09T08:04:19Z</time>
      </trkpt>
      <trkpt lat="44.87982" lon="5.42857">
        <ele>1185.6</ele>
        <time>2021-10-09T08:04:20Z</time>
      </trkpt>
      <trkpt lat="44.87985" lon="5.4286">
        <ele>1185.6</ele>
        <time>2021-10-09T08:04:21Z</time>
      </trkpt>
      <trkpt lat="44.87986" lon="5.42862">
        <ele>1186.6</ele>
        <time>2021-10-09T08:04:22Z</time>
      </trkpt>
      <trkpt lat="44.87987" lon="5.42864">
        <ele>1186.8</ele>
        <time>2021-10-09T08:04:23Z</time>
      </trkpt>
      <trkpt lat="44.87989" lon="5.42866">
        <ele>1186.8</ele>
        <time>2021-10-09T08:04:24Z</time>
      </trkpt>
      <trkpt lat="44.87991" lon="5.42868">
        <ele>1186.8</ele>
        <time>2021-10-09T08:04:25Z</time>
      </trkpt>
      <trkpt lat="44.87993" lon="5.42869">
        <ele>1186.8</ele>
        <time>2021-10-09T08:04:26Z</time>
      </trkpt>
      <trkpt lat="44.87994" lon="5.42871">
        <ele>1187</ele>
        <time>2021-10-09T08:04:27Z</time>
      </trkpt>
      <trkpt lat="44.87996" lon="5.42873">
        <ele>1187</ele>
        <time>2021-10-09T08:04:28Z</time>
      </trkpt>
      <trkpt lat="44.87997" lon="5.42874">
        <ele>1187</ele>
        <time>2021-10-09T08:04:29Z</time>
      </trkpt>
      <trkpt lat="44.87998" lon="5.42875">
        <ele>1188</ele>
        <time>2021-10-09T08:04:30Z</time>
      </trkpt>
      <trkpt lat="44.88" lon="5.42876">
        <ele>1187.6</ele>
        <time>2021-10-09T08:04:31Z</time>
      </trkpt>
      <trkpt lat="44.88002" lon="5.42878">
        <ele>1187.6</ele>
        <time>2021-10-09T08:04:32Z</time>
      </trkpt>
      <trkpt lat="44.88004" lon="5.4288">
        <ele>1187.6</ele>
        <time>2021-10-09T08:04:33Z</time>
      </trkpt>
      <trkpt lat="44.88006" lon="5.42881">
        <ele>1187.8</ele>
        <time>2021-10-09T08:04:34Z</time>
      </trkpt>
      <trkpt lat="44.88009" lon="5.42882">
        <ele>1188</ele>
        <time>2021-10-09T08:04:35Z</time>
      </trkpt>
      <trkpt lat="44.88011" lon="5.42883">
        <ele>1188</ele>
        <time>2021-10-09T08:04:36Z</time>
      </trkpt>
      <trkpt lat="44.88013" lon="5.42884">
        <ele>1188</ele>
        <time>2021-10-09T08:04:37Z</time>
      </trkpt>
      <trkpt lat="44.88014" lon="5.42885">
        <ele>1188.6</ele>
        <time>2021-10-09T08:04:38Z</time>
      </trkpt>
      <trkpt lat="44.88016" lon="5.42885">
        <ele>1188.2</ele>
        <time>2021-10-09T08:04:39Z</time>
      </trkpt>
      <trkpt lat="44.88019" lon="5.42885">
        <ele>1188.2</ele>
        <time>2021-10-09T08:04:40Z</time>
      </trkpt>
      <trkpt lat="44.8802" lon="5.42886">
        <ele>1188.2</ele>
        <time>2021-10-09T08:04:41Z</time>
      </trkpt>
      <trkpt lat="44.88023" lon="5.42886">
        <ele>1188.6</ele>
        <time>2021-10-09T08:04:42Z</time>
      </trkpt>
      <trkpt lat="44.88025" lon="5.42887">
        <ele>1189</ele>
        <time>2021-10-09T08:04:43Z</time>
      </trkpt>
      <trkpt lat="44.88026" lon="5.42888">
        <ele>1189</ele>
        <time>2021-10-09T08:04:44Z</time>
      </trkpt>
      <trkpt lat="44.88028" lon="5.42889">
        <ele>1189</ele>
        <time>2021-10-09T08:04:45Z</time>
      </trkpt>
      <trkpt lat="44.88031" lon="5.4289">
        <ele>1189</ele>
        <time>2021-10-09T08:04:46Z</time>
      </trkpt>
      <trkpt lat="44.88032" lon="5.42889">
        <ele>1189.4</ele>
        <time>2021-10-09T08:04:47Z</time>
      </trkpt>
      <trkpt lat="44.88035" lon="5.4289">
        <ele>1189.4</ele>
        <time>2021-10-09T08:04:48Z</time>
      </trkpt>
      <trkpt lat="44.88036" lon="5.4289">
        <ele>1189.4</ele>
        <time>2021-10-09T08:04:49Z</time>
      </trkpt>
      <trkpt lat="44.88039" lon="5.42891">
        <ele>1190</ele>
        <time>2021-10-09T08:04:50Z</time>
      </trkpt>
      <trkpt lat="44.88042" lon="5.42891">
        <ele>1190</ele>
        <time>2021-10-09T08:04:51Z</time>
      </trkpt>
      <trkpt lat="44.88045" lon="5.42891">
        <ele>1190</ele>
        <time>2021-10-09T08:04:52Z</time>
      </trkpt>
      <trkpt lat="44.88047" lon="5.42891">
        <ele>1190</ele>
        <time>2021-10-09T08:04:53Z</time>
      </trkpt>
      <trkpt lat="44.8805" lon="5.42892">
        <ele>1190.4</ele>
        <time>2021-10-09T08:04:54Z</time>
      </trkpt>
      <trkpt lat="44.88053" lon="5.42893">
        <ele>1190.8</ele>
        <time>2021-10-09T08:04:55Z</time>
      </trkpt>
      <trkpt lat="44.88055" lon="5.42893">
        <ele>1190.8</ele>
        <time>2021-10-09T08:04:56Z</time>
      </trkpt>
      <trkpt lat="44.88057" lon="5.42894">
        <ele>1190.8</ele>
        <time>2021-10-09T08:04:57Z</time>
      </trkpt>
      <trkpt lat="44.8806" lon="5.42894">
        <ele>1190.8</ele>
        <time>2021-10-09T08:04:58Z</time>
      </trkpt>
      <trkpt lat="44.88063" lon="5.42895">
        <ele>1191</ele>
        <time>2021-10-09T08:04:59Z</time>
      </trkpt>
      <trkpt lat="44.88065" lon="5.42897">
        <ele>1191</ele>
        <time>2021-10-09T08:05:00Z</time>
      </trkpt>
      <trkpt lat="44.88068" lon="5.42898">
        <ele>1191</ele>
        <time>2021-10-09T08:05:01Z</time>
      </trkpt>
      <trkpt lat="44.8807" lon="5.429">
        <ele>1191.8</ele>
        <time>2021-10-09T08:05:02Z</time>
      </trkpt>
      <trkpt lat="44.88073" lon="5.42901">
        <ele>1191.6</ele>
        <time>2021-10-09T08:05:03Z</time>
      </trkpt>
      <trkpt lat="44.88075" lon="5.42904">
        <ele>1191.6</ele>
        <time>2021-10-09T08:05:04Z</time>
      </trkpt>
      <trkpt lat="44.88077" lon="5.42908">
        <ele>1191.6</ele>
        <time>2021-10-09T08:05:05Z</time>
      </trkpt>
      <trkpt lat="44.88078" lon="5.42911">
        <ele>1191.6</ele>
        <time>2021-10-09T08:05:06Z</time>
      </trkpt>
      <trkpt lat="44.88079" lon="5.42914">
        <ele>1192.4</ele>
        <time>2021-10-09T08:05:07Z</time>
      </trkpt>
      <trkpt lat="44.88081" lon="5.42917">
        <ele>1192.4</ele>
        <time>2021-10-09T08:05:08Z</time>
      </trkpt>
      <trkpt lat="44.88082" lon="5.4292">
        <ele>1192.4</ele>
        <time>2021-10-09T08:05:09Z</time>
      </trkpt>
      <trkpt lat="44.88083" lon="5.42924">
        <ele>1192.4</ele>
        <time>2021-10-09T08:05:10Z</time>
      </trkpt>
      <trkpt lat="44.88084" lon="5.42926">
        <ele>1192.8</ele>
        <time>2021-10-09T08:05:11Z</time>
      </trkpt>
      <trkpt lat="44.88085" lon="5.42929">
        <ele>1192.8</ele>
        <time>2021-10-09T08:05:12Z</time>
      </trkpt>
      <trkpt lat="44.88085" lon="5.42932">
        <ele>1192.8</ele>
        <time>2021-10-09T08:05:13Z</time>
      </trkpt>
      <trkpt lat="44.88085" lon="5.42934">
        <ele>1192.8</ele>
        <time>2021-10-09T08:05:14Z</time>
      </trkpt>
      <trkpt lat="44.88087" lon="5.42937">
        <ele>1193.4</ele>
        <time>2021-10-09T08:05:15Z</time>
      </trkpt>
      <trkpt lat="44.88089" lon="5.42939">
        <ele>1193.4</ele>
        <time>2021-10-09T08:05:16Z</time>
      </trkpt>
      <trkpt lat="44.8809" lon="5.42941">
        <ele>1193.4</ele>
        <time>2021-10-09T08:05:17Z</time>
      </trkpt>
      <trkpt lat="44.88092" lon="5.42943">
        <ele>1194</ele>
        <time>2021-10-09T08:05:18Z</time>
      </trkpt>
      <trkpt lat="44.88093" lon="5.42946">
        <ele>1193.6</ele>
        <time>2021-10-09T08:05:19Z</time>
      </trkpt>
      <trkpt lat="44.88095" lon="5.42948">
        <ele>1193.6</ele>
        <time>2021-10-09T08:05:20Z</time>
      </trkpt>
      <trkpt lat="44.88096" lon="5.4295">
        <ele>1193.6</ele>
        <time>2021-10-09T08:05:21Z</time>
      </trkpt>
      <trkpt lat="44.88097" lon="5.42953">
        <ele>1194.4</ele>
        <time>2021-10-09T08:05:22Z</time>
      </trkpt>
      <trkpt lat="44.88099" lon="5.42955">
        <ele>1194.6</ele>
        <time>2021-10-09T08:05:23Z</time>
      </trkpt>
      <trkpt lat="44.881" lon="5.42957">
        <ele>1194.6</ele>
        <time>2021-10-09T08:05:24Z</time>
      </trkpt>
      <trkpt lat="44.88102" lon="5.42959">
        <ele>1194.6</ele>
        <time>2021-10-09T08:05:25Z</time>
      </trkpt>
      <trkpt lat="44.88103" lon="5.42962">
        <ele>1194.6</ele>
        <time>2021-10-09T08:05:26Z</time>
      </trkpt>
      <trkpt lat="44.88105" lon="5.42965">
        <ele>1194.8</ele>
        <time>2021-10-09T08:05:27Z</time>
      </trkpt>
      <trkpt lat="44.88106" lon="5.42967">
        <ele>1194.8</ele>
        <time>2021-10-09T08:05:28Z</time>
      </trkpt>
      <trkpt lat="44.88106" lon="5.42971">
        <ele>1194.8</ele>
        <time>2021-10-09T08:05:29Z</time>
      </trkpt>
      <trkpt lat="44.88108" lon="5.42974">
        <ele>1195.4</ele>
        <time>2021-10-09T08:05:30Z</time>
      </trkpt>
      <trkpt lat="44.8811" lon="5.42976">
        <ele>1196</ele>
        <time>2021-10-09T08:05:31Z</time>
      </trkpt>
      <trkpt lat="44.88112" lon="5.42978">
        <ele>1196</ele>
        <time>2021-10-09T08:05:32Z</time>
      </trkpt>
      <trkpt lat="44.88113" lon="5.42979">
        <ele>1196</ele>
        <time>2021-10-09T08:05:33Z</time>
      </trkpt>
      <trkpt lat="44.88116" lon="5.4298">
        <ele>1196</ele>
        <time>2021-10-09T08:05:34Z</time>
      </trkpt>
      <trkpt lat="44.88118" lon="5.42981">
        <ele>1195.8</ele>
        <time>2021-10-09T08:05:35Z</time>
      </trkpt>
      <trkpt lat="44.88119" lon="5.42982">
        <ele>1195.8</ele>
        <time>2021-10-09T08:05:36Z</time>
      </trkpt>
      <trkpt lat="44.88122" lon="5.42984">
        <ele>1195.8</ele>
        <time>2021-10-09T08:05:37Z</time>
      </trkpt>
      <trkpt lat="44.88125" lon="5.42985">
        <ele>1196.4</ele>
        <time>2021-10-09T08:05:38Z</time>
      </trkpt>
      <trkpt lat="44.88127" lon="5.42986">
        <ele>1195.8</ele>
        <time>2021-10-09T08:05:39Z</time>
      </trkpt>
      <trkpt lat="44.8813" lon="5.42987">
        <ele>1195.8</ele>
        <time>2021-10-09T08:05:40Z</time>
      </trkpt>
      <trkpt lat="44.88132" lon="5.42988">
        <ele>1195.8</ele>
        <time>2021-10-09T08:05:41Z</time>
      </trkpt>
      <trkpt lat="44.88134" lon="5.42989">
        <ele>1196.8</ele>
        <time>2021-10-09T08:05:42Z</time>
      </trkpt>
      <trkpt lat="44.88136" lon="5.4299">
        <ele>1196.8</ele>
        <time>2021-10-09T08:05:43Z</time>
      </trkpt>
      <trkpt lat="44.88138" lon="5.42992">
        <ele>1196.8</ele>
        <time>2021-10-09T08:05:44Z</time>
      </trkpt>
      <trkpt lat="44.8814" lon="5.42993">
        <ele>1196.8</ele>
        <time>2021-10-09T08:05:45Z</time>
      </trkpt>
      <trkpt lat="44.88142" lon="5.42994">
        <ele>1196.8</ele>
        <time>2021-10-09T08:05:46Z</time>
      </trkpt>
      <trkpt lat="44.88144" lon="5.42996">
        <ele>1196.8</ele>
        <time>2021-10-09T08:05:47Z</time>
      </trkpt>
      <trkpt lat="44.88146" lon="5.42998">
        <ele>1196.8</ele>
        <time>2021-10-09T08:05:48Z</time>
      </trkpt>
      <trkpt lat="44.88148" lon="5.42999">
        <ele>1196.8</ele>
        <time>2021-10-09T08:05:49Z</time>
      </trkpt>
      <trkpt lat="44.88151" lon="5.43001">
        <ele>1197.2</ele>
        <time>2021-10-09T08:05:50Z</time>
      </trkpt>
      <trkpt lat="44.88153" lon="5.43002">
        <ele>1197.4</ele>
        <time>2021-10-09T08:05:51Z</time>
      </trkpt>
      <trkpt lat="44.88155" lon="5.43004">
        <ele>1197.4</ele>
        <time>2021-10-09T08:05:52Z</time>
      </trkpt>
      <trkpt lat="44.88156" lon="5.43006">
        <ele>1197.4</ele>
        <time>2021-10-09T08:05:53Z</time>
      </trkpt>
      <trkpt lat="44.88158" lon="5.43008">
        <ele>1197.6</ele>
        <time>2021-10-09T08:05:54Z</time>
      </trkpt>
      <trkpt lat="44.8816" lon="5.4301">
        <ele>1198.2</ele>
        <time>2021-10-09T08:05:55Z</time>
      </trkpt>
      <trkpt lat="44.88162" lon="5.43012">
        <ele>1198.2</ele>
        <time>2021-10-09T08:05:56Z</time>
      </trkpt>
      <trkpt lat="44.88163" lon="5.43014">
        <ele>1198.2</ele>
        <time>2021-10-09T08:05:57Z</time>
      </trkpt>
      <trkpt lat="44.88165" lon="5.43016">
        <ele>1198.2</ele>
        <time>2021-10-09T08:05:58Z</time>
      </trkpt>
      <trkpt lat="44.88166" lon="5.43017">
        <ele>1198.2</ele>
        <time>2021-10-09T08:05:59Z</time>
      </trkpt>
      <trkpt lat="44.88168" lon="5.43019">
        <ele>1198.2</ele>
        <time>2021-10-09T08:06:00Z</time>
      </trkpt>
      <trkpt lat="44.8817" lon="5.4302">
        <ele>1198.2</ele>
        <time>2021-10-09T08:06:01Z</time>
      </trkpt>
      <trkpt lat="44.88172" lon="5.43022">
        <ele>1198.2</ele>
        <time>2021-10-09T08:06:02Z</time>
      </trkpt>
      <trkpt lat="44.88174" lon="5.43023">
        <ele>1198.8</ele>
        <time>2021-10-09T08:06:03Z</time>
      </trkpt>
      <trkpt lat="44.88175" lon="5.43025">
        <ele>1198.8</ele>
        <time>2021-10-09T08:06:04Z</time>
      </trkpt>
      <trkpt lat="44.88177" lon="5.43026">
        <ele>1198.8</ele>
        <time>2021-10-09T08:06:05Z</time>
      </trkpt>
      <trkpt lat="44.88179" lon="5.43027">
        <ele>1199.2</ele>
        <time>2021-10-09T08:06:06Z</time>
      </trkpt>
      <trkpt lat="44.88181" lon="5.43028">
        <ele>1199.6</ele>
        <time>2021-10-09T08:06:07Z</time>
      </trkpt>
      <trkpt lat="44.88183" lon="5.43029">
        <ele>1199.6</ele>
        <time>2021-10-09T08:06:08Z</time>
      </trkpt>
      <trkpt lat="44.88185" lon="5.43029">
        <ele>1199.6</ele>
        <time>2021-10-09T08:06:09Z</time>
      </trkpt>
      <trkpt lat="44.88187" lon="5.4303">
        <ele>1199.6</ele>
        <time>2021-10-09T08:06:10Z</time>
      </trkpt>
      <trkpt lat="44.88188" lon="5.43031">
        <ele>1200.2</ele>
        <time>2021-10-09T08:06:11Z</time>
      </trkpt>
      <trkpt lat="44.88191" lon="5.43032">
        <ele>1200.2</ele>
        <time>2021-10-09T08:06:12Z</time>
      </trkpt>
      <trkpt lat="44.88192" lon="5.43032">
        <ele>1200.2</ele>
        <time>2021-10-09T08:06:13Z</time>
      </trkpt>
      <trkpt lat="44.88194" lon="5.43033">
        <ele>1200.2</ele>
        <time>2021-10-09T08:06:14Z</time>
      </trkpt>
      <trkpt lat="44.88196" lon="5.43034">
        <ele>1200.8</ele>
        <time>2021-10-09T08:06:15Z</time>
      </trkpt>
      <trkpt lat="44.88198" lon="5.43036">
        <ele>1200.8</ele>
        <time>2021-10-09T08:06:16Z</time>
      </trkpt>
      <trkpt lat="44.88199" lon="5.43037">
        <ele>1200.8</ele>
        <time>2021-10-09T08:06:17Z</time>
      </trkpt>
      <trkpt lat="44.882" lon="5.43037">
        <ele>1200.6</ele>
        <time>2021-10-09T08:06:18Z</time>
      </trkpt>
      <trkpt lat="44.88201" lon="5.43039">
        <ele>1200.8</ele>
        <time>2021-10-09T08:06:19Z</time>
      </trkpt>
      <trkpt lat="44.88202" lon="5.43039">
        <ele>1200.8</ele>
        <time>2021-10-09T08:06:20Z</time>
      </trkpt>
      <trkpt lat="44.88202" lon="5.43039">
        <ele>1200.8</ele>
        <time>2021-10-09T08:06:21Z</time>
      </trkpt>
      <trkpt lat="44.88215" lon="5.43045">
        <ele>1202</ele>
        <time>2021-10-09T08:09:21Z</time>
      </trkpt>
      <trkpt lat="44.88217" lon="5.43045">
        <ele>1202</ele>
        <time>2021-10-09T08:09:22Z</time>
      </trkpt>
      <trkpt lat="44.88218" lon="5.43046">
        <ele>1202.2</ele>
        <time>2021-10-09T08:09:23Z</time>
      </trkpt>
      <trkpt lat="44.8822" lon="5.43047">
        <ele>1202.2</ele>
        <time>2021-10-09T08:09:24Z</time>
      </trkpt>
      <trkpt lat="44.88222" lon="5.43049">
        <ele>1202.2</ele>
        <time>2021-10-09T08:09:25Z</time>
      </trkpt>
      <trkpt lat="44.88224" lon="5.43049">
        <ele>1202.2</ele>
        <time>2021-10-09T08:09:26Z</time>
      </trkpt>
      <trkpt lat="44.88226" lon="5.43051">
        <ele>1202.8</ele>
        <time>2021-10-09T08:09:27Z</time>
      </trkpt>
      <trkpt lat="44.88227" lon="5.43052">
        <ele>1202.8</ele>
        <time>2021-10-09T08:09:28Z</time>
      </trkpt>
      <trkpt lat="44.88229" lon="5.43053">
        <ele>1202.8</ele>
        <time>2021-10-09T08:09:29Z</time>
      </trkpt>
      <trkpt lat="44.88231" lon="5.43054">
        <ele>1202.8</ele>
        <time>2021-10-09T08:09:30Z</time>
      </trkpt>
      <trkpt lat="44.88233" lon="5.43055">
        <ele>1203.2</ele>
        <time>2021-10-09T08:09:31Z</time>
      </trkpt>
      <trkpt lat="44.88235" lon="5.43056">
        <ele>1203.2</ele>
        <time>2021-10-09T08:09:32Z</time>
      </trkpt>
      <trkpt lat="44.88237" lon="5.43057">
        <ele>1203.2</ele>
        <time>2021-10-09T08:09:33Z</time>
      </trkpt>
      <trkpt lat="44.88238" lon="5.43058">
        <ele>1203.2</ele>
        <time>2021-10-09T08:09:34Z</time>
      </trkpt>
      <trkpt lat="44.8824" lon="5.43059">
        <ele>1203.4</ele>
        <time>2021-10-09T08:09:35Z</time>
      </trkpt>
      <trkpt lat="44.88242" lon="5.4306">
        <ele>1203.4</ele>
        <time>2021-10-09T08:09:36Z</time>
      </trkpt>
      <trkpt lat="44.88244" lon="5.43061">
        <ele>1203.4</ele>
        <time>2021-10-09T08:09:37Z</time>
      </trkpt>
      <trkpt lat="44.88246" lon="5.43063">
        <ele>1204</ele>
        <time>2021-10-09T08:09:38Z</time>
      </trkpt>
      <trkpt lat="44.88247" lon="5.43065">
        <ele>1204.2</ele>
        <time>2021-10-09T08:09:39Z</time>
      </trkpt>
      <trkpt lat="44.88249" lon="5.43066">
        <ele>1204.2</ele>
        <time>2021-10-09T08:09:40Z</time>
      </trkpt>
      <trkpt lat="44.88251" lon="5.43067">
        <ele>1204.2</ele>
        <time>2021-10-09T08:09:41Z</time>
      </trkpt>
      <trkpt lat="44.88252" lon="5.43069">
        <ele>1204.2</ele>
        <time>2021-10-09T08:09:42Z</time>
      </trkpt>
      <trkpt lat="44.88254" lon="5.4307">
        <ele>1204.4</ele>
        <time>2021-10-09T08:09:43Z</time>
      </trkpt>
      <trkpt lat="44.88256" lon="5.43071">
        <ele>1204.4</ele>
        <time>2021-10-09T08:09:44Z</time>
      </trkpt>
      <trkpt lat="44.88258" lon="5.43072">
        <ele>1204.4</ele>
        <time>2021-10-09T08:09:45Z</time>
      </trkpt>
      <trkpt lat="44.8826" lon="5.43073">
        <ele>1204.4</ele>
        <time>2021-10-09T08:09:46Z</time>
      </trkpt>
      <trkpt lat="44.88261" lon="5.43075">
        <ele>1205.2</ele>
        <time>2021-10-09T08:09:47Z</time>
      </trkpt>
      <trkpt lat="44.88263" lon="5.43076">
        <ele>1205.2</ele>
        <time>2021-10-09T08:09:48Z</time>
      </trkpt>
      <trkpt lat="44.88264" lon="5.43076">
        <ele>1205.2</ele>
        <time>2021-10-09T08:09:49Z</time>
      </trkpt>
      <trkpt lat="44.88265" lon="5.43077">
        <ele>1205.2</ele>
        <time>2021-10-09T08:09:50Z</time>
      </trkpt>
      <trkpt lat="44.88267" lon="5.43079">
        <ele>1205.4</ele>
        <time>2021-10-09T08:09:51Z</time>
      </trkpt>
      <trkpt lat="44.88269" lon="5.4308">
        <ele>1205.4</ele>
        <time>2021-10-09T08:09:52Z</time>
      </trkpt>
      <trkpt lat="44.8827" lon="5.43081">
        <ele>1205.4</ele>
        <time>2021-10-09T08:09:53Z</time>
      </trkpt>
      <trkpt lat="44.88272" lon="5.43082">
        <ele>1205.8</ele>
        <time>2021-10-09T08:09:54Z</time>
      </trkpt>
      <trkpt lat="44.88274" lon="5.43083">
        <ele>1206.2</ele>
        <time>2021-10-09T08:09:55Z</time>
      </trkpt>
      <trkpt lat="44.88276" lon="5.43084">
        <ele>1206.2</ele>
        <time>2021-10-09T08:09:56Z</time>
      </trkpt>
      <trkpt lat="44.88278" lon="5.43084">
        <ele>1206.2</ele>
        <time>2021-10-09T08:09:57Z</time>
      </trkpt>
      <trkpt lat="44.88281" lon="5.43085">
        <ele>1206.2</ele>
        <time>2021-10-09T08:09:58Z</time>
      </trkpt>
      <trkpt lat="44.88283" lon="5.43085">
        <ele>1206.6</ele>
        <time>2021-10-09T08:09:59Z</time>
      </trkpt>
      <trkpt lat="44.88285" lon="5.43085">
        <ele>1206.6</ele>
        <time>2021-10-09T08:10:00Z</time>
      </trkpt>
      <trkpt lat="44.88287" lon="5.43085">
        <ele>1206.6</ele>
        <time>2021-10-09T08:10:01Z</time>
      </trkpt>
      <trkpt lat="44.88289" lon="5.43085">
        <ele>1206.6</ele>
        <time>2021-10-09T08:10:02Z</time>
      </trkpt>
      <trkpt lat="44.88291" lon="5.43084">
        <ele>1207</ele>
        <time>2021-10-09T08:10:03Z</time>
      </trkpt>
      <trkpt lat="44.88293" lon="5.43084">
        <ele>1207</ele>
        <time>2021-10-09T08:10:04Z</time>
      </trkpt>
      <trkpt lat="44.88294" lon="5.43085">
        <ele>1207</ele>
        <time>2021-10-09T08:10:05Z</time>
      </trkpt>
      <trkpt lat="44.88297" lon="5.43085">
        <ele>1207.6</ele>
        <time>2021-10-09T08:10:06Z</time>
      </trkpt>
      <trkpt lat="44.88299" lon="5.43086">
        <ele>1207.2</ele>
        <time>2021-10-09T08:10:07Z</time>
      </trkpt>
      <trkpt lat="44.88301" lon="5.43086">
        <ele>1207.2</ele>
        <time>2021-10-09T08:10:08Z</time>
      </trkpt>
      <trkpt lat="44.88303" lon="5.43086">
        <ele>1207.2</ele>
        <time>2021-10-09T08:10:09Z</time>
      </trkpt>
      <trkpt lat="44.88305" lon="5.43087">
        <ele>1207.8</ele>
        <time>2021-10-09T08:10:10Z</time>
      </trkpt>
      <trkpt lat="44.88306" lon="5.43088">
        <ele>1208.2</ele>
        <time>2021-10-09T08:10:11Z</time>
      </trkpt>
      <trkpt lat="44.88308" lon="5.43089">
        <ele>1208.2</ele>
        <time>2021-10-09T08:10:12Z</time>
      </trkpt>
      <trkpt lat="44.88309" lon="5.43089">
        <ele>1208.2</ele>
        <time>2021-10-09T08:10:13Z</time>
      </trkpt>
      <trkpt lat="44.88311" lon="5.4309">
        <ele>1208.2</ele>
        <time>2021-10-09T08:10:14Z</time>
      </trkpt>
      <trkpt lat="44.88313" lon="5.43091">
        <ele>1208.4</ele>
        <time>2021-10-09T08:10:15Z</time>
      </trkpt>
      <trkpt lat="44.88315" lon="5.43092">
        <ele>1208.4</ele>
        <time>2021-10-09T08:10:16Z</time>
      </trkpt>
      <trkpt lat="44.88316" lon="5.43093">
        <ele>1208.4</ele>
        <time>2021-10-09T08:10:17Z</time>
      </trkpt>
      <trkpt lat="44.88318" lon="5.43094">
        <ele>1209.2</ele>
        <time>2021-10-09T08:10:18Z</time>
      </trkpt>
      <trkpt lat="44.88319" lon="5.43096">
        <ele>1209.4</ele>
        <time>2021-10-09T08:10:19Z</time>
      </trkpt>
      <trkpt lat="44.8832" lon="5.43097">
        <ele>1209.4</ele>
        <time>2021-10-09T08:10:20Z</time>
      </trkpt>
      <trkpt lat="44.88322" lon="5.43099">
        <ele>1209.4</ele>
        <time>2021-10-09T08:10:21Z</time>
      </trkpt>
      <trkpt lat="44.88323" lon="5.431">
        <ele>1209.4</ele>
        <time>2021-10-09T08:10:22Z</time>
      </trkpt>
      <trkpt lat="44.88324" lon="5.43101">
        <ele>1210</ele>
        <time>2021-10-09T08:10:23Z</time>
      </trkpt>
      <trkpt lat="44.88325" lon="5.43102">
        <ele>1210</ele>
        <time>2021-10-09T08:10:24Z</time>
      </trkpt>
      <trkpt lat="44.88326" lon="5.43104">
        <ele>1210</ele>
        <time>2021-10-09T08:10:25Z</time>
      </trkpt>
      <trkpt lat="44.88328" lon="5.43105">
        <ele>1210</ele>
        <time>2021-10-09T08:10:26Z</time>
      </trkpt>
      <trkpt lat="44.8833" lon="5.43106">
        <ele>1210.8</ele>
        <time>2021-10-09T08:10:27Z</time>
      </trkpt>
      <trkpt lat="44.88331" lon="5.43107">
        <ele>1210.8</ele>
        <time>2021-10-09T08:10:28Z</time>
      </trkpt>
      <trkpt lat="44.88333" lon="5.43108">
        <ele>1210.8</ele>
        <time>2021-10-09T08:10:29Z</time>
      </trkpt>
      <trkpt lat="44.88335" lon="5.43109">
        <ele>1210.8</ele>
        <time>2021-10-09T08:10:30Z</time>
      </trkpt>
      <trkpt lat="44.88336" lon="5.4311">
        <ele>1211</ele>
        <time>2021-10-09T08:10:31Z</time>
      </trkpt>
      <trkpt lat="44.88338" lon="5.43111">
        <ele>1211</ele>
        <time>2021-10-09T08:10:32Z</time>
      </trkpt>
      <trkpt lat="44.8834" lon="5.43112">
        <ele>1211</ele>
        <time>2021-10-09T08:10:33Z</time>
      </trkpt>
      <trkpt lat="44.88341" lon="5.43112">
        <ele>1211.2</ele>
        <time>2021-10-09T08:10:34Z</time>
      </trkpt>
      <trkpt lat="44.88343" lon="5.43112">
        <ele>1211.6</ele>
        <time>2021-10-09T08:10:35Z</time>
      </trkpt>
      <trkpt lat="44.88345" lon="5.43113">
        <ele>1211.6</ele>
        <time>2021-10-09T08:10:36Z</time>
      </trkpt>
      <trkpt lat="44.88347" lon="5.43114">
        <ele>1211.6</ele>
        <time>2021-10-09T08:10:37Z</time>
      </trkpt>
      <trkpt lat="44.88348" lon="5.43115">
        <ele>1211.8</ele>
        <time>2021-10-09T08:10:38Z</time>
      </trkpt>
      <trkpt lat="44.8835" lon="5.43115">
        <ele>1212.2</ele>
        <time>2021-10-09T08:10:39Z</time>
      </trkpt>
      <trkpt lat="44.88352" lon="5.43116">
        <ele>1212.2</ele>
        <time>2021-10-09T08:10:40Z</time>
      </trkpt>
      <trkpt lat="44.88354" lon="5.43117">
        <ele>1212.2</ele>
        <time>2021-10-09T08:10:41Z</time>
      </trkpt>
      <trkpt lat="44.88356" lon="5.43119">
        <ele>1212.2</ele>
        <time>2021-10-09T08:10:42Z</time>
      </trkpt>
      <trkpt lat="44.88358" lon="5.4312">
        <ele>1212.4</ele>
        <time>2021-10-09T08:10:43Z</time>
      </trkpt>
      <trkpt lat="44.8836" lon="5.43121">
        <ele>1212.4</ele>
        <time>2021-10-09T08:10:44Z</time>
      </trkpt>
      <trkpt lat="44.88361" lon="5.43123">
        <ele>1212.4</ele>
        <time>2021-10-09T08:10:45Z</time>
      </trkpt>
      <trkpt lat="44.88363" lon="5.43124">
        <ele>1212.8</ele>
        <time>2021-10-09T08:10:46Z</time>
      </trkpt>
      <trkpt lat="44.88365" lon="5.43125">
        <ele>1213</ele>
        <time>2021-10-09T08:10:47Z</time>
      </trkpt>
      <trkpt lat="44.88367" lon="5.43125">
        <ele>1213</ele>
        <time>2021-10-09T08:10:48Z</time>
      </trkpt>
      <trkpt lat="44.88369" lon="5.43126">
        <ele>1213</ele>
        <time>2021-10-09T08:10:49Z</time>
      </trkpt>
      <trkpt lat="44.8837" lon="5.43127">
        <ele>1213.4</ele>
        <time>2021-10-09T08:10:50Z</time>
      </trkpt>
      <trkpt lat="44.88372" lon="5.43128">
        <ele>1213.4</ele>
        <time>2021-10-09T08:10:51Z</time>
      </trkpt>
      <trkpt lat="44.88374" lon="5.43129">
        <ele>1213.4</ele>
        <time>2021-10-09T08:10:52Z</time>
      </trkpt>
      <trkpt lat="44.88376" lon="5.43129">
        <ele>1213.4</ele>
        <time>2021-10-09T08:10:53Z</time>
      </trkpt>
      <trkpt lat="44.88377" lon="5.4313">
        <ele>1213.8</ele>
        <time>2021-10-09T08:10:54Z</time>
      </trkpt>
      <trkpt lat="44.88379" lon="5.43131">
        <ele>1214.2</ele>
        <time>2021-10-09T08:10:55Z</time>
      </trkpt>
      <trkpt lat="44.88381" lon="5.43131">
        <ele>1214.2</ele>
        <time>2021-10-09T08:10:56Z</time>
      </trkpt>
      <trkpt lat="44.88382" lon="5.43132">
        <ele>1214.2</ele>
        <time>2021-10-09T08:10:57Z</time>
      </trkpt>
      <trkpt lat="44.88384" lon="5.43133">
        <ele>1214.4</ele>
        <time>2021-10-09T08:10:58Z</time>
      </trkpt>
      <trkpt lat="44.88386" lon="5.43133">
        <ele>1215</ele>
        <time>2021-10-09T08:10:59Z</time>
      </trkpt>
      <trkpt lat="44.88388" lon="5.43132">
        <ele>1215</ele>
        <time>2021-10-09T08:11:00Z</time>
      </trkpt>
      <trkpt lat="44.88389" lon="5.43132">
        <ele>1215</ele>
        <time>2021-10-09T08:11:01Z</time>
      </trkpt>
      <trkpt lat="44.88391" lon="5.43131">
        <ele>1215</ele>
        <time>2021-10-09T08:11:02Z</time>
      </trkpt>
      <trkpt lat="44.88393" lon="5.43131">
        <ele>1215.4</ele>
        <time>2021-10-09T08:11:03Z</time>
      </trkpt>
      <trkpt lat="44.88395" lon="5.4313">
        <ele>1215.4</ele>
        <time>2021-10-09T08:11:04Z</time>
      </trkpt>
      <trkpt lat="44.88397" lon="5.43129">
        <ele>1215.4</ele>
        <time>2021-10-09T08:11:05Z</time>
      </trkpt>
      <trkpt lat="44.88399" lon="5.43129">
        <ele>1215.8</ele>
        <time>2021-10-09T08:11:06Z</time>
      </trkpt>
      <trkpt lat="44.88401" lon="5.43129">
        <ele>1216</ele>
        <time>2021-10-09T08:11:07Z</time>
      </trkpt>
      <trkpt lat="44.88403" lon="5.43128">
        <ele>1216</ele>
        <time>2021-10-09T08:11:08Z</time>
      </trkpt>
      <trkpt lat="44.88405" lon="5.43127">
        <ele>1216</ele>
        <time>2021-10-09T08:11:09Z</time>
      </trkpt>
      <trkpt lat="44.88407" lon="5.43126">
        <ele>1216.6</ele>
        <time>2021-10-09T08:11:10Z</time>
      </trkpt>
      <trkpt lat="44.88409" lon="5.43125">
        <ele>1216.6</ele>
        <time>2021-10-09T08:11:11Z</time>
      </trkpt>
      <trkpt lat="44.88411" lon="5.43124">
        <ele>1216.6</ele>
        <time>2021-10-09T08:11:12Z</time>
      </trkpt>
      <trkpt lat="44.88413" lon="5.43124">
        <ele>1216.6</ele>
        <time>2021-10-09T08:11:13Z</time>
      </trkpt>
      <trkpt lat="44.88415" lon="5.43124">
        <ele>1216.6</ele>
        <time>2021-10-09T08:11:14Z</time>
      </trkpt>
      <trkpt lat="44.88416" lon="5.43124">
        <ele>1217</ele>
        <time>2021-10-09T08:11:15Z</time>
      </trkpt>
      <trkpt lat="44.88418" lon="5.43123">
        <ele>1217</ele>
        <time>2021-10-09T08:11:16Z</time>
      </trkpt>
      <trkpt lat="44.8842" lon="5.43123">
        <ele>1217</ele>
        <time>2021-10-09T08:11:17Z</time>
      </trkpt>
      <trkpt lat="44.88422" lon="5.43123">
        <ele>1218</ele>
        <time>2021-10-09T08:11:18Z</time>
      </trkpt>
      <trkpt lat="44.88424" lon="5.43122">
        <ele>1218.2</ele>
        <time>2021-10-09T08:11:19Z</time>
      </trkpt>
      <trkpt lat="44.88426" lon="5.43122">
        <ele>1218.2</ele>
        <time>2021-10-09T08:11:20Z</time>
      </trkpt>
      <trkpt lat="44.88428" lon="5.43121">
        <ele>1218.2</ele>
        <time>2021-10-09T08:11:21Z</time>
      </trkpt>
      <trkpt lat="44.88429" lon="5.43121">
        <ele>1218.2</ele>
        <time>2021-10-09T08:11:22Z</time>
      </trkpt>
      <trkpt lat="44.88431" lon="5.43121">
        <ele>1218.6</ele>
        <time>2021-10-09T08:11:23Z</time>
      </trkpt>
      <trkpt lat="44.88433" lon="5.43121">
        <ele>1218.6</ele>
        <time>2021-10-09T08:11:24Z</time>
      </trkpt>
      <trkpt lat="44.88435" lon="5.4312">
        <ele>1218.6</ele>
        <time>2021-10-09T08:11:25Z</time>
      </trkpt>
      <trkpt lat="44.88437" lon="5.43121">
        <ele>1219.6</ele>
        <time>2021-10-09T08:11:26Z</time>
      </trkpt>
      <trkpt lat="44.88438" lon="5.4312">
        <ele>1219.6</ele>
        <time>2021-10-09T08:11:27Z</time>
      </trkpt>
      <trkpt lat="44.8844" lon="5.4312">
        <ele>1219.6</ele>
        <time>2021-10-09T08:11:28Z</time>
      </trkpt>
      <trkpt lat="44.88442" lon="5.4312">
        <ele>1219.6</ele>
        <time>2021-10-09T08:11:29Z</time>
      </trkpt>
      <trkpt lat="44.88444" lon="5.43119">
        <ele>1219.6</ele>
        <time>2021-10-09T08:11:30Z</time>
      </trkpt>
      <trkpt lat="44.88446" lon="5.4312">
        <ele>1220.2</ele>
        <time>2021-10-09T08:11:31Z</time>
      </trkpt>
      <trkpt lat="44.88448" lon="5.4312">
        <ele>1220.2</ele>
        <time>2021-10-09T08:11:32Z</time>
      </trkpt>
      <trkpt lat="44.88449" lon="5.43121">
        <ele>1220.2</ele>
        <time>2021-10-09T08:11:33Z</time>
      </trkpt>
      <trkpt lat="44.88451" lon="5.43121">
        <ele>1220.2</ele>
        <time>2021-10-09T08:11:34Z</time>
      </trkpt>
      <trkpt lat="44.88453" lon="5.43122">
        <ele>1220.4</ele>
        <time>2021-10-09T08:11:35Z</time>
      </trkpt>
      <trkpt lat="44.88455" lon="5.43122">
        <ele>1220.4</ele>
        <time>2021-10-09T08:11:36Z</time>
      </trkpt>
      <trkpt lat="44.88457" lon="5.43122">
        <ele>1220.4</ele>
        <time>2021-10-09T08:11:37Z</time>
      </trkpt>
      <trkpt lat="44.88458" lon="5.43123">
        <ele>1220.4</ele>
        <time>2021-10-09T08:11:38Z</time>
      </trkpt>
      <trkpt lat="44.8846" lon="5.43123">
        <ele>1221.2</ele>
        <time>2021-10-09T08:11:39Z</time>
      </trkpt>
      <trkpt lat="44.88462" lon="5.43123">
        <ele>1221.2</ele>
        <time>2021-10-09T08:11:40Z</time>
      </trkpt>
      <trkpt lat="44.88464" lon="5.43124">
        <ele>1221.2</ele>
        <time>2021-10-09T08:11:41Z</time>
      </trkpt>
      <trkpt lat="44.88465" lon="5.43125">
        <ele>1222.2</ele>
        <time>2021-10-09T08:11:42Z</time>
      </trkpt>
      <trkpt lat="44.88467" lon="5.43126">
        <ele>1222.6</ele>
        <time>2021-10-09T08:11:43Z</time>
      </trkpt>
      <trkpt lat="44.88468" lon="5.43127">
        <ele>1222.6</ele>
        <time>2021-10-09T08:11:44Z</time>
      </trkpt>
      <trkpt lat="44.8847" lon="5.43128">
        <ele>1222.6</ele>
        <time>2021-10-09T08:11:45Z</time>
      </trkpt>
      <trkpt lat="44.88471" lon="5.4313">
        <ele>1222.6</ele>
        <time>2021-10-09T08:11:46Z</time>
      </trkpt>
      <trkpt lat="44.88473" lon="5.43131">
        <ele>1223.2</ele>
        <time>2021-10-09T08:11:47Z</time>
      </trkpt>
      <trkpt lat="44.88474" lon="5.43133">
        <ele>1223.2</ele>
        <time>2021-10-09T08:11:48Z</time>
      </trkpt>
      <trkpt lat="44.88475" lon="5.43134">
        <ele>1223.2</ele>
        <time>2021-10-09T08:11:49Z</time>
      </trkpt>
      <trkpt lat="44.88477" lon="5.43135">
        <ele>1223.2</ele>
        <time>2021-10-09T08:11:50Z</time>
      </trkpt>
      <trkpt lat="44.88478" lon="5.43137">
        <ele>1223.6</ele>
        <time>2021-10-09T08:11:51Z</time>
      </trkpt>
      <trkpt lat="44.88479" lon="5.43139">
        <ele>1223.6</ele>
        <time>2021-10-09T08:11:52Z</time>
      </trkpt>
      <trkpt lat="44.88481" lon="5.4314">
        <ele>1223.6</ele>
        <time>2021-10-09T08:11:53Z</time>
      </trkpt>
      <trkpt lat="44.88482" lon="5.43142">
        <ele>1224.2</ele>
        <time>2021-10-09T08:11:54Z</time>
      </trkpt>
      <trkpt lat="44.88483" lon="5.43144">
        <ele>1224.6</ele>
        <time>2021-10-09T08:11:55Z</time>
      </trkpt>
      <trkpt lat="44.88485" lon="5.43145">
        <ele>1224.6</ele>
        <time>2021-10-09T08:11:56Z</time>
      </trkpt>
      <trkpt lat="44.88486" lon="5.43146">
        <ele>1224.6</ele>
        <time>2021-10-09T08:11:57Z</time>
      </trkpt>
      <trkpt lat="44.88487" lon="5.43147">
        <ele>1225.4</ele>
        <time>2021-10-09T08:11:58Z</time>
      </trkpt>
      <trkpt lat="44.88489" lon="5.43148">
        <ele>1225.8</ele>
        <time>2021-10-09T08:11:59Z</time>
      </trkpt>
      <trkpt lat="44.8849" lon="5.43149">
        <ele>1225.8</ele>
        <time>2021-10-09T08:12:00Z</time>
      </trkpt>
      <trkpt lat="44.88491" lon="5.4315">
        <ele>1225.8</ele>
        <time>2021-10-09T08:12:01Z</time>
      </trkpt>
      <trkpt lat="44.88492" lon="5.43151">
        <ele>1225.8</ele>
        <time>2021-10-09T08:12:02Z</time>
      </trkpt>
      <trkpt lat="44.88493" lon="5.43152">
        <ele>1226.4</ele>
        <time>2021-10-09T08:12:03Z</time>
      </trkpt>
      <trkpt lat="44.88494" lon="5.43152">
        <ele>1226.4</ele>
        <time>2021-10-09T08:12:04Z</time>
      </trkpt>
      <trkpt lat="44.88496" lon="5.43154">
        <ele>1226.4</ele>
        <time>2021-10-09T08:12:05Z</time>
      </trkpt>
      <trkpt lat="44.88497" lon="5.43155">
        <ele>1226.4</ele>
        <time>2021-10-09T08:12:06Z</time>
      </trkpt>
      <trkpt lat="44.88499" lon="5.43156">
        <ele>1227</ele>
        <time>2021-10-09T08:12:07Z</time>
      </trkpt>
      <trkpt lat="44.88501" lon="5.43157">
        <ele>1227</ele>
        <time>2021-10-09T08:12:08Z</time>
      </trkpt>
      <trkpt lat="44.88502" lon="5.43157">
        <ele>1227</ele>
        <time>2021-10-09T08:12:09Z</time>
      </trkpt>
      <trkpt lat="44.88503" lon="5.43158">
        <ele>1227</ele>
        <time>2021-10-09T08:12:10Z</time>
      </trkpt>
      <trkpt lat="44.88505" lon="5.43159">
        <ele>1227.8</ele>
        <time>2021-10-09T08:12:11Z</time>
      </trkpt>
      <trkpt lat="44.88506" lon="5.4316">
        <ele>1227.8</ele>
        <time>2021-10-09T08:12:12Z</time>
      </trkpt>
      <trkpt lat="44.88508" lon="5.43161">
        <ele>1227.8</ele>
        <time>2021-10-09T08:12:13Z</time>
      </trkpt>
      <trkpt lat="44.88511" lon="5.43161">
        <ele>1227.8</ele>
        <time>2021-10-09T08:12:14Z</time>
      </trkpt>
      <trkpt lat="44.88512" lon="5.43163">
        <ele>1228</ele>
        <time>2021-10-09T08:12:15Z</time>
      </trkpt>
      <trkpt lat="44.88514" lon="5.43164">
        <ele>1228</ele>
        <time>2021-10-09T08:12:16Z</time>
      </trkpt>
      <trkpt lat="44.88515" lon="5.43166">
        <ele>1228</ele>
        <time>2021-10-09T08:12:17Z</time>
      </trkpt>
      <trkpt lat="44.88516" lon="5.43167">
        <ele>1228</ele>
        <time>2021-10-09T08:12:18Z</time>
      </trkpt>
      <trkpt lat="44.88517" lon="5.43168">
        <ele>1228.6</ele>
        <time>2021-10-09T08:12:19Z</time>
      </trkpt>
      <trkpt lat="44.88518" lon="5.4317">
        <ele>1228.6</ele>
        <time>2021-10-09T08:12:20Z</time>
      </trkpt>
      <trkpt lat="44.88519" lon="5.43171">
        <ele>1228.6</ele>
        <time>2021-10-09T08:12:21Z</time>
      </trkpt>
      <trkpt lat="44.8852" lon="5.43173">
        <ele>1228.6</ele>
        <time>2021-10-09T08:12:22Z</time>
      </trkpt>
      <trkpt lat="44.88522" lon="5.43174">
        <ele>1229.2</ele>
        <time>2021-10-09T08:12:23Z</time>
      </trkpt>
      <trkpt lat="44.88524" lon="5.43176">
        <ele>1229.2</ele>
        <time>2021-10-09T08:12:24Z</time>
      </trkpt>
      <trkpt lat="44.88524" lon="5.43177">
        <ele>1229.2</ele>
        <time>2021-10-09T08:12:25Z</time>
      </trkpt>
      <trkpt lat="44.88525" lon="5.4318">
        <ele>1229.4</ele>
        <time>2021-10-09T08:12:26Z</time>
      </trkpt>
      <trkpt lat="44.88526" lon="5.43182">
        <ele>1229.2</ele>
        <time>2021-10-09T08:12:27Z</time>
      </trkpt>
      <trkpt lat="44.88528" lon="5.43188">
        <ele>1229.2</ele>
        <time>2021-10-09T08:12:28Z</time>
      </trkpt>
      <trkpt lat="44.88529" lon="5.43191">
        <ele>1229.2</ele>
        <time>2021-10-09T08:12:29Z</time>
      </trkpt>
      <trkpt lat="44.8853" lon="5.43193">
        <ele>1230.2</ele>
        <time>2021-10-09T08:12:30Z</time>
      </trkpt>
      <trkpt lat="44.88531" lon="5.43195">
        <ele>1230.2</ele>
        <time>2021-10-09T08:12:31Z</time>
      </trkpt>
      <trkpt lat="44.88532" lon="5.43198">
        <ele>1230.2</ele>
        <time>2021-10-09T08:12:32Z</time>
      </trkpt>
      <trkpt lat="44.88534" lon="5.432">
        <ele>1230.2</ele>
        <time>2021-10-09T08:12:33Z</time>
      </trkpt>
      <trkpt lat="44.88536" lon="5.43202">
        <ele>1230.2</ele>
        <time>2021-10-09T08:12:34Z</time>
      </trkpt>
      <trkpt lat="44.88538" lon="5.43205">
        <ele>1230.6</ele>
        <time>2021-10-09T08:12:35Z</time>
      </trkpt>
      <trkpt lat="44.88539" lon="5.43208">
        <ele>1230.6</ele>
        <time>2021-10-09T08:12:36Z</time>
      </trkpt>
      <trkpt lat="44.8854" lon="5.4321">
        <ele>1230.6</ele>
        <time>2021-10-09T08:12:37Z</time>
      </trkpt>
      <trkpt lat="44.88542" lon="5.43212">
        <ele>1231.2</ele>
        <time>2021-10-09T08:12:38Z</time>
      </trkpt>
      <trkpt lat="44.88542" lon="5.43215">
        <ele>1231.2</ele>
        <time>2021-10-09T08:12:39Z</time>
      </trkpt>
      <trkpt lat="44.88544" lon="5.43217">
        <ele>1231.2</ele>
        <time>2021-10-09T08:12:40Z</time>
      </trkpt>
      <trkpt lat="44.88545" lon="5.43219">
        <ele>1231.2</ele>
        <time>2021-10-09T08:12:41Z</time>
      </trkpt>
      <trkpt lat="44.88546" lon="5.43221">
        <ele>1231.8</ele>
        <time>2021-10-09T08:12:42Z</time>
      </trkpt>
      <trkpt lat="44.88547" lon="5.43223">
        <ele>1231.8</ele>
        <time>2021-10-09T08:12:43Z</time>
      </trkpt>
      <trkpt lat="44.88548" lon="5.43225">
        <ele>1231.8</ele>
        <time>2021-10-09T08:12:44Z</time>
      </trkpt>
      <trkpt lat="44.88549" lon="5.43227">
        <ele>1231.8</ele>
        <time>2021-10-09T08:12:45Z</time>
      </trkpt>
      <trkpt lat="44.88551" lon="5.43229">
        <ele>1232.4</ele>
        <time>2021-10-09T08:12:46Z</time>
      </trkpt>
      <trkpt lat="44.88551" lon="5.43231">
        <ele>1232.6</ele>
        <time>2021-10-09T08:12:47Z</time>
      </trkpt>
      <trkpt lat="44.88553" lon="5.43234">
        <ele>1232.6</ele>
        <time>2021-10-09T08:12:48Z</time>
      </trkpt>
      <trkpt lat="44.88553" lon="5.43236">
        <ele>1232.6</ele>
        <time>2021-10-09T08:12:49Z</time>
      </trkpt>
      <trkpt lat="44.88555" lon="5.43238">
        <ele>1232.6</ele>
        <time>2021-10-09T08:12:50Z</time>
      </trkpt>
      <trkpt lat="44.88556" lon="5.4324">
        <ele>1232.8</ele>
        <time>2021-10-09T08:12:51Z</time>
      </trkpt>
      <trkpt lat="44.88557" lon="5.43242">
        <ele>1232.8</ele>
        <time>2021-10-09T08:12:52Z</time>
      </trkpt>
      <trkpt lat="44.88558" lon="5.43244">
        <ele>1232.8</ele>
        <time>2021-10-09T08:12:53Z</time>
      </trkpt>
      <trkpt lat="44.88559" lon="5.43246">
        <ele>1233.2</ele>
        <time>2021-10-09T08:12:54Z</time>
      </trkpt>
      <trkpt lat="44.8856" lon="5.43248">
        <ele>1233.6</ele>
        <time>2021-10-09T08:12:55Z</time>
      </trkpt>
      <trkpt lat="44.88561" lon="5.4325">
        <ele>1233.6</ele>
        <time>2021-10-09T08:12:56Z</time>
      </trkpt>
      <trkpt lat="44.88562" lon="5.43252">
        <ele>1233.6</ele>
        <time>2021-10-09T08:12:57Z</time>
      </trkpt>
      <trkpt lat="44.88563" lon="5.43254">
        <ele>1234.4</ele>
        <time>2021-10-09T08:12:58Z</time>
      </trkpt>
      <trkpt lat="44.88564" lon="5.43256">
        <ele>1234.8</ele>
        <time>2021-10-09T08:12:59Z</time>
      </trkpt>
      <trkpt lat="44.88565" lon="5.43258">
        <ele>1234.8</ele>
        <time>2021-10-09T08:13:00Z</time>
      </trkpt>
      <trkpt lat="44.88566" lon="5.4326">
        <ele>1234.8</ele>
        <time>2021-10-09T08:13:01Z</time>
      </trkpt>
      <trkpt lat="44.88568" lon="5.4326">
        <ele>1235.2</ele>
        <time>2021-10-09T08:13:02Z</time>
      </trkpt>
      <trkpt lat="44.88569" lon="5.43263">
        <ele>1235.4</ele>
        <time>2021-10-09T08:13:03Z</time>
      </trkpt>
      <trkpt lat="44.8857" lon="5.43265">
        <ele>1235.4</ele>
        <time>2021-10-09T08:13:04Z</time>
      </trkpt>
      <trkpt lat="44.88571" lon="5.43267">
        <ele>1235.4</ele>
        <time>2021-10-09T08:13:05Z</time>
      </trkpt>
      <trkpt lat="44.88572" lon="5.43269">
        <ele>1235.8</ele>
        <time>2021-10-09T08:13:06Z</time>
      </trkpt>
      <trkpt lat="44.88574" lon="5.43271">
        <ele>1235.8</ele>
        <time>2021-10-09T08:13:07Z</time>
      </trkpt>
      <trkpt lat="44.88575" lon="5.43273">
        <ele>1235.8</ele>
        <time>2021-10-09T08:13:08Z</time>
      </trkpt>
      <trkpt lat="44.88576" lon="5.43275">
        <ele>1235.8</ele>
        <time>2021-10-09T08:13:09Z</time>
      </trkpt>
      <trkpt lat="44.88577" lon="5.43278">
        <ele>1236.4</ele>
        <time>2021-10-09T08:13:10Z</time>
      </trkpt>
      <trkpt lat="44.88578" lon="5.4328">
        <ele>1236.6</ele>
        <time>2021-10-09T08:13:11Z</time>
      </trkpt>
      <trkpt lat="44.88578" lon="5.43282">
        <ele>1236.6</ele>
        <time>2021-10-09T08:13:12Z</time>
      </trkpt>
      <trkpt lat="44.88579" lon="5.43285">
        <ele>1236.6</ele>
        <time>2021-10-09T08:13:13Z</time>
      </trkpt>
      <trkpt lat="44.8858" lon="5.43287">
        <ele>1237.2</ele>
        <time>2021-10-09T08:13:14Z</time>
      </trkpt>
      <trkpt lat="44.88581" lon="5.43289">
        <ele>1236.8</ele>
        <time>2021-10-09T08:13:15Z</time>
      </trkpt>
      <trkpt lat="44.88582" lon="5.43291">
        <ele>1236.8</ele>
        <time>2021-10-09T08:13:16Z</time>
      </trkpt>
      <trkpt lat="44.88582" lon="5.43293">
        <ele>1236.8</ele>
        <time>2021-10-09T08:13:17Z</time>
      </trkpt>
      <trkpt lat="44.88583" lon="5.43296">
        <ele>1237.4</ele>
        <time>2021-10-09T08:13:18Z</time>
      </trkpt>
      <trkpt lat="44.88584" lon="5.43298">
        <ele>1237.8</ele>
        <time>2021-10-09T08:13:19Z</time>
      </trkpt>
      <trkpt lat="44.88587" lon="5.433">
        <ele>1237.8</ele>
        <time>2021-10-09T08:13:20Z</time>
      </trkpt>
      <trkpt lat="44.88588" lon="5.43303">
        <ele>1237.8</ele>
        <time>2021-10-09T08:13:21Z</time>
      </trkpt>
      <trkpt lat="44.88588" lon="5.43305">
        <ele>1237.8</ele>
        <time>2021-10-09T08:13:22Z</time>
      </trkpt>
      <trkpt lat="44.88589" lon="5.43306">
        <ele>1238.2</ele>
        <time>2021-10-09T08:13:23Z</time>
      </trkpt>
      <trkpt lat="44.8859" lon="5.43308">
        <ele>1238.2</ele>
        <time>2021-10-09T08:13:24Z</time>
      </trkpt>
      <trkpt lat="44.88591" lon="5.4331">
        <ele>1238.2</ele>
        <time>2021-10-09T08:13:25Z</time>
      </trkpt>
      <trkpt lat="44.88591" lon="5.43312">
        <ele>1238.2</ele>
        <time>2021-10-09T08:13:26Z</time>
      </trkpt>
      <trkpt lat="44.88593" lon="5.43314">
        <ele>1238.6</ele>
        <time>2021-10-09T08:13:27Z</time>
      </trkpt>
      <trkpt lat="44.88594" lon="5.43315">
        <ele>1238.6</ele>
        <time>2021-10-09T08:13:28Z</time>
      </trkpt>
      <trkpt lat="44.88595" lon="5.43316">
        <ele>1238.6</ele>
        <time>2021-10-09T08:13:29Z</time>
      </trkpt>
      <trkpt lat="44.88597" lon="5.43317">
        <ele>1238.6</ele>
        <time>2021-10-09T08:13:30Z</time>
      </trkpt>
      <trkpt lat="44.88599" lon="5.43318">
        <ele>1239</ele>
        <time>2021-10-09T08:13:31Z</time>
      </trkpt>
      <trkpt lat="44.886" lon="5.43319">
        <ele>1239</ele>
        <time>2021-10-09T08:13:32Z</time>
      </trkpt>
      <trkpt lat="44.88601" lon="5.43319">
        <ele>1239</ele>
        <time>2021-10-09T08:13:33Z</time>
      </trkpt>
      <trkpt lat="44.88603" lon="5.4332">
        <ele>1239</ele>
        <time>2021-10-09T08:13:34Z</time>
      </trkpt>
      <trkpt lat="44.88605" lon="5.43321">
        <ele>1239.8</ele>
        <time>2021-10-09T08:13:35Z</time>
      </trkpt>
      <trkpt lat="44.88607" lon="5.43321">
        <ele>1239.8</ele>
        <time>2021-10-09T08:13:36Z</time>
      </trkpt>
      <trkpt lat="44.88608" lon="5.43321">
        <ele>1239.8</ele>
        <time>2021-10-09T08:13:37Z</time>
      </trkpt>
      <trkpt lat="44.88609" lon="5.43322">
        <ele>1239.8</ele>
        <time>2021-10-09T08:13:38Z</time>
      </trkpt>
      <trkpt lat="44.88612" lon="5.43322">
        <ele>1240.4</ele>
        <time>2021-10-09T08:13:39Z</time>
      </trkpt>
      <trkpt lat="44.88613" lon="5.43322">
        <ele>1240.4</ele>
        <time>2021-10-09T08:13:40Z</time>
      </trkpt>
      <trkpt lat="44.88615" lon="5.43323">
        <ele>1240.4</ele>
        <time>2021-10-09T08:13:41Z</time>
      </trkpt>
      <trkpt lat="44.88616" lon="5.43324">
        <ele>1240.8</ele>
        <time>2021-10-09T08:13:42Z</time>
      </trkpt>
      <trkpt lat="44.88618" lon="5.43324">
        <ele>1240.6</ele>
        <time>2021-10-09T08:13:43Z</time>
      </trkpt>
      <trkpt lat="44.8862" lon="5.43325">
        <ele>1240.6</ele>
        <time>2021-10-09T08:13:44Z</time>
      </trkpt>
      <trkpt lat="44.88622" lon="5.43326">
        <ele>1240.6</ele>
        <time>2021-10-09T08:13:45Z</time>
      </trkpt>
      <trkpt lat="44.88624" lon="5.43326">
        <ele>1241.2</ele>
        <time>2021-10-09T08:13:46Z</time>
      </trkpt>
      <trkpt lat="44.88626" lon="5.43326">
        <ele>1241.4</ele>
        <time>2021-10-09T08:13:47Z</time>
      </trkpt>
      <trkpt lat="44.88628" lon="5.43327">
        <ele>1241.4</ele>
        <time>2021-10-09T08:13:48Z</time>
      </trkpt>
      <trkpt lat="44.8863" lon="5.43329">
        <ele>1241.4</ele>
        <time>2021-10-09T08:13:49Z</time>
      </trkpt>
      <trkpt lat="44.88631" lon="5.43331">
        <ele>1242.4</ele>
        <time>2021-10-09T08:13:50Z</time>
      </trkpt>
      <trkpt lat="44.88633" lon="5.43335">
        <ele>1242.4</ele>
        <time>2021-10-09T08:13:51Z</time>
      </trkpt>
      <trkpt lat="44.88634" lon="5.43339">
        <ele>1242.4</ele>
        <time>2021-10-09T08:13:52Z</time>
      </trkpt>
      <trkpt lat="44.88635" lon="5.43341">
        <ele>1242.4</ele>
        <time>2021-10-09T08:13:53Z</time>
      </trkpt>
      <trkpt lat="44.88636" lon="5.43344">
        <ele>1242.6</ele>
        <time>2021-10-09T08:13:54Z</time>
      </trkpt>
      <trkpt lat="44.88637" lon="5.43346">
        <ele>1243.6</ele>
        <time>2021-10-09T08:13:55Z</time>
      </trkpt>
      <trkpt lat="44.88638" lon="5.4335">
        <ele>1243.6</ele>
        <time>2021-10-09T08:13:56Z</time>
      </trkpt>
      <trkpt lat="44.88638" lon="5.43354">
        <ele>1243.6</ele>
        <time>2021-10-09T08:13:57Z</time>
      </trkpt>
      <trkpt lat="44.88639" lon="5.43356">
        <ele>1243.6</ele>
        <time>2021-10-09T08:13:58Z</time>
      </trkpt>
      <trkpt lat="44.8864" lon="5.43357">
        <ele>1243.6</ele>
        <time>2021-10-09T08:13:59Z</time>
      </trkpt>
      <trkpt lat="44.8864" lon="5.43358">
        <ele>1243.6</ele>
        <time>2021-10-09T08:14:00Z</time>
      </trkpt>
      <trkpt lat="44.8864" lon="5.43359">
        <ele>1243.6</ele>
        <time>2021-10-09T08:14:01Z</time>
      </trkpt>
      <trkpt lat="44.88638" lon="5.43372">
        <ele>1244</ele>
        <time>2021-10-09T08:15:23Z</time>
      </trkpt>
      <trkpt lat="44.88638" lon="5.43375">
        <ele>1244</ele>
        <time>2021-10-09T08:15:24Z</time>
      </trkpt>
      <trkpt lat="44.88638" lon="5.43378">
        <ele>1244</ele>
        <time>2021-10-09T08:15:25Z</time>
      </trkpt>
      <trkpt lat="44.88638" lon="5.43381">
        <ele>1244.4</ele>
        <time>2021-10-09T08:15:26Z</time>
      </trkpt>
      <trkpt lat="44.88639" lon="5.43384">
        <ele>1244.4</ele>
        <time>2021-10-09T08:15:27Z</time>
      </trkpt>
      <trkpt lat="44.88639" lon="5.43387">
        <ele>1244.4</ele>
        <time>2021-10-09T08:15:28Z</time>
      </trkpt>
      <trkpt lat="44.88639" lon="5.4339">
        <ele>1244.4</ele>
        <time>2021-10-09T08:15:29Z</time>
      </trkpt>
      <trkpt lat="44.8864" lon="5.43393">
        <ele>1244.4</ele>
        <time>2021-10-09T08:15:30Z</time>
      </trkpt>
      <trkpt lat="44.8864" lon="5.43396">
        <ele>1244.8</ele>
        <time>2021-10-09T08:15:31Z</time>
      </trkpt>
      <trkpt lat="44.8864" lon="5.43398">
        <ele>1244.8</ele>
        <time>2021-10-09T08:15:32Z</time>
      </trkpt>
      <trkpt lat="44.88641" lon="5.43401">
        <ele>1244.8</ele>
        <time>2021-10-09T08:15:33Z</time>
      </trkpt>
      <trkpt lat="44.88641" lon="5.43404">
        <ele>1245.8</ele>
        <time>2021-10-09T08:15:34Z</time>
      </trkpt>
      <trkpt lat="44.8864" lon="5.43407">
        <ele>1246</ele>
        <time>2021-10-09T08:15:35Z</time>
      </trkpt>
      <trkpt lat="44.8864" lon="5.43409">
        <ele>1246</ele>
        <time>2021-10-09T08:15:36Z</time>
      </trkpt>
      <trkpt lat="44.8864" lon="5.43412">
        <ele>1246</ele>
        <time>2021-10-09T08:15:37Z</time>
      </trkpt>
      <trkpt lat="44.88641" lon="5.43415">
        <ele>1246.4</ele>
        <time>2021-10-09T08:15:38Z</time>
      </trkpt>
      <trkpt lat="44.88641" lon="5.43417">
        <ele>1246.4</ele>
        <time>2021-10-09T08:15:39Z</time>
      </trkpt>
      <trkpt lat="44.88641" lon="5.4342">
        <ele>1246.4</ele>
        <time>2021-10-09T08:15:40Z</time>
      </trkpt>
      <trkpt lat="44.88641" lon="5.43422">
        <ele>1246.4</ele>
        <time>2021-10-09T08:15:41Z</time>
      </trkpt>
      <trkpt lat="44.88643" lon="5.43424">
        <ele>1246.8</ele>
        <time>2021-10-09T08:15:42Z</time>
      </trkpt>
      <trkpt lat="44.88643" lon="5.43427">
        <ele>1247.2</ele>
        <time>2021-10-09T08:15:43Z</time>
      </trkpt>
      <trkpt lat="44.88644" lon="5.43429">
        <ele>1247.2</ele>
        <time>2021-10-09T08:15:44Z</time>
      </trkpt>
      <trkpt lat="44.88645" lon="5.43431">
        <ele>1247.2</ele>
        <time>2021-10-09T08:15:45Z</time>
      </trkpt>
      <trkpt lat="44.88646" lon="5.43434">
        <ele>1247.2</ele>
        <time>2021-10-09T08:15:46Z</time>
      </trkpt>
      <trkpt lat="44.88646" lon="5.43436">
        <ele>1247.8</ele>
        <time>2021-10-09T08:15:47Z</time>
      </trkpt>
      <trkpt lat="44.88647" lon="5.43438">
        <ele>1247.8</ele>
        <time>2021-10-09T08:15:48Z</time>
      </trkpt>
      <trkpt lat="44.88647" lon="5.43441">
        <ele>1247.8</ele>
        <time>2021-10-09T08:15:49Z</time>
      </trkpt>
      <trkpt lat="44.88648" lon="5.43444">
        <ele>1247.8</ele>
        <time>2021-10-09T08:15:50Z</time>
      </trkpt>
      <trkpt lat="44.88648" lon="5.43447">
        <ele>1248.6</ele>
        <time>2021-10-09T08:15:51Z</time>
      </trkpt>
      <trkpt lat="44.88648" lon="5.43449">
        <ele>1248.6</ele>
        <time>2021-10-09T08:15:52Z</time>
      </trkpt>
      <trkpt lat="44.88648" lon="5.43452">
        <ele>1248.6</ele>
        <time>2021-10-09T08:15:53Z</time>
      </trkpt>
      <trkpt lat="44.88648" lon="5.43454">
        <ele>1248.6</ele>
        <time>2021-10-09T08:15:54Z</time>
      </trkpt>
      <trkpt lat="44.88648" lon="5.43457">
        <ele>1249.2</ele>
        <time>2021-10-09T08:15:55Z</time>
      </trkpt>
      <trkpt lat="44.88648" lon="5.43459">
        <ele>1249.2</ele>
        <time>2021-10-09T08:15:56Z</time>
      </trkpt>
      <trkpt lat="44.88647" lon="5.43462">
        <ele>1249.2</ele>
        <time>2021-10-09T08:15:57Z</time>
      </trkpt>
      <trkpt lat="44.88647" lon="5.43464">
        <ele>1249.2</ele>
        <time>2021-10-09T08:15:58Z</time>
      </trkpt>
      <trkpt lat="44.88647" lon="5.43467">
        <ele>1249.6</ele>
        <time>2021-10-09T08:15:59Z</time>
      </trkpt>
      <trkpt lat="44.88647" lon="5.4347">
        <ele>1249.6</ele>
        <time>2021-10-09T08:16:00Z</time>
      </trkpt>
      <trkpt lat="44.88648" lon="5.43472">
        <ele>1249.6</ele>
        <time>2021-10-09T08:16:01Z</time>
      </trkpt>
      <trkpt lat="44.88648" lon="5.43475">
        <ele>1250</ele>
        <time>2021-10-09T08:16:02Z</time>
      </trkpt>
      <trkpt lat="44.88649" lon="5.43478">
        <ele>1250.2</ele>
        <time>2021-10-09T08:16:03Z</time>
      </trkpt>
      <trkpt lat="44.88649" lon="5.43481">
        <ele>1250.2</ele>
        <time>2021-10-09T08:16:04Z</time>
      </trkpt>
      <trkpt lat="44.88649" lon="5.43483">
        <ele>1250.2</ele>
        <time>2021-10-09T08:16:05Z</time>
      </trkpt>
      <trkpt lat="44.8865" lon="5.43486">
        <ele>1250.8</ele>
        <time>2021-10-09T08:16:06Z</time>
      </trkpt>
      <trkpt lat="44.88651" lon="5.43488">
        <ele>1250.4</ele>
        <time>2021-10-09T08:16:07Z</time>
      </trkpt>
      <trkpt lat="44.88651" lon="5.43491">
        <ele>1250.4</ele>
        <time>2021-10-09T08:16:08Z</time>
      </trkpt>
      <trkpt lat="44.88652" lon="5.43493">
        <ele>1250.4</ele>
        <time>2021-10-09T08:16:09Z</time>
      </trkpt>
      <trkpt lat="44.88652" lon="5.43495">
        <ele>1251.4</ele>
        <time>2021-10-09T08:16:10Z</time>
      </trkpt>
      <trkpt lat="44.88653" lon="5.43497">
        <ele>1251.6</ele>
        <time>2021-10-09T08:16:11Z</time>
      </trkpt>
      <trkpt lat="44.88653" lon="5.435">
        <ele>1251.6</ele>
        <time>2021-10-09T08:16:12Z</time>
      </trkpt>
      <trkpt lat="44.88653" lon="5.43502">
        <ele>1251.6</ele>
        <time>2021-10-09T08:16:13Z</time>
      </trkpt>
      <trkpt lat="44.88654" lon="5.43504">
        <ele>1251.6</ele>
        <time>2021-10-09T08:16:14Z</time>
      </trkpt>
      <trkpt lat="44.88655" lon="5.43506">
        <ele>1252.2</ele>
        <time>2021-10-09T08:16:15Z</time>
      </trkpt>
      <trkpt lat="44.88655" lon="5.43509">
        <ele>1252.2</ele>
        <time>2021-10-09T08:16:16Z</time>
      </trkpt>
      <trkpt lat="44.88656" lon="5.43512">
        <ele>1252.2</ele>
        <time>2021-10-09T08:16:17Z</time>
      </trkpt>
      <trkpt lat="44.88656" lon="5.43514">
        <ele>1252.6</ele>
        <time>2021-10-09T08:16:18Z</time>
      </trkpt>
      <trkpt lat="44.88657" lon="5.43517">
        <ele>1252.8</ele>
        <time>2021-10-09T08:16:19Z</time>
      </trkpt>
      <trkpt lat="44.88658" lon="5.43519">
        <ele>1252.8</ele>
        <time>2021-10-09T08:16:20Z</time>
      </trkpt>
      <trkpt lat="44.88658" lon="5.43522">
        <ele>1252.8</ele>
        <time>2021-10-09T08:16:21Z</time>
      </trkpt>
      <trkpt lat="44.88658" lon="5.43524">
        <ele>1253.4</ele>
        <time>2021-10-09T08:16:22Z</time>
      </trkpt>
      <trkpt lat="44.88659" lon="5.43526">
        <ele>1253.4</ele>
        <time>2021-10-09T08:16:23Z</time>
      </trkpt>
      <trkpt lat="44.8866" lon="5.43529">
        <ele>1253.4</ele>
        <time>2021-10-09T08:16:24Z</time>
      </trkpt>
      <trkpt lat="44.8866" lon="5.43531">
        <ele>1253.4</ele>
        <time>2021-10-09T08:16:25Z</time>
      </trkpt>
      <trkpt lat="44.88661" lon="5.43533">
        <ele>1253.8</ele>
        <time>2021-10-09T08:16:26Z</time>
      </trkpt>
      <trkpt lat="44.88662" lon="5.43536">
        <ele>1254.4</ele>
        <time>2021-10-09T08:16:27Z</time>
      </trkpt>
      <trkpt lat="44.88662" lon="5.43538">
        <ele>1254.4</ele>
        <time>2021-10-09T08:16:28Z</time>
      </trkpt>
      <trkpt lat="44.88663" lon="5.43541">
        <ele>1254.4</ele>
        <time>2021-10-09T08:16:29Z</time>
      </trkpt>
      <trkpt lat="44.88664" lon="5.43543">
        <ele>1254.4</ele>
        <time>2021-10-09T08:16:30Z</time>
      </trkpt>
      <trkpt lat="44.88665" lon="5.43545">
        <ele>1254.8</ele>
        <time>2021-10-09T08:16:31Z</time>
      </trkpt>
      <trkpt lat="44.88665" lon="5.43548">
        <ele>1254.8</ele>
        <time>2021-10-09T08:16:32Z</time>
      </trkpt>
      <trkpt lat="44.88666" lon="5.4355">
        <ele>1254.8</ele>
        <time>2021-10-09T08:16:33Z</time>
      </trkpt>
      <trkpt lat="44.88666" lon="5.43553">
        <ele>1255.2</ele>
        <time>2021-10-09T08:16:34Z</time>
      </trkpt>
      <trkpt lat="44.88667" lon="5.43555">
        <ele>1255.6</ele>
        <time>2021-10-09T08:16:35Z</time>
      </trkpt>
      <trkpt lat="44.88668" lon="5.43557">
        <ele>1255.6</ele>
        <time>2021-10-09T08:16:36Z</time>
      </trkpt>
      <trkpt lat="44.88669" lon="5.4356">
        <ele>1255.6</ele>
        <time>2021-10-09T08:16:37Z</time>
      </trkpt>
      <trkpt lat="44.88669" lon="5.43562">
        <ele>1255.6</ele>
        <time>2021-10-09T08:16:38Z</time>
      </trkpt>
      <trkpt lat="44.8867" lon="5.43564">
        <ele>1256.2</ele>
        <time>2021-10-09T08:16:39Z</time>
      </trkpt>
      <trkpt lat="44.88671" lon="5.43566">
        <ele>1256.2</ele>
        <time>2021-10-09T08:16:40Z</time>
      </trkpt>
      <trkpt lat="44.88672" lon="5.43569">
        <ele>1256.2</ele>
        <time>2021-10-09T08:16:41Z</time>
      </trkpt>
      <trkpt lat="44.88673" lon="5.43571">
        <ele>1256.2</ele>
        <time>2021-10-09T08:16:42Z</time>
      </trkpt>
      <trkpt lat="44.88673" lon="5.43573">
        <ele>1256.8</ele>
        <time>2021-10-09T08:16:43Z</time>
      </trkpt>
      <trkpt lat="44.88675" lon="5.43575">
        <ele>1256.8</ele>
        <time>2021-10-09T08:16:44Z</time>
      </trkpt>
      <trkpt lat="44.88676" lon="5.43577">
        <ele>1256.8</ele>
        <time>2021-10-09T08:16:45Z</time>
      </trkpt>
      <trkpt lat="44.88676" lon="5.4358">
        <ele>1256.8</ele>
        <time>2021-10-09T08:16:46Z</time>
      </trkpt>
      <trkpt lat="44.88677" lon="5.43582">
        <ele>1257.4</ele>
        <time>2021-10-09T08:16:47Z</time>
      </trkpt>
      <trkpt lat="44.88678" lon="5.43584">
        <ele>1257.4</ele>
        <time>2021-10-09T08:16:48Z</time>
      </trkpt>
      <trkpt lat="44.8868" lon="5.43586">
        <ele>1257.4</ele>
        <time>2021-10-09T08:16:49Z</time>
      </trkpt>
      <trkpt lat="44.88681" lon="5.43588">
        <ele>1257.6</ele>
        <time>2021-10-09T08:16:50Z</time>
      </trkpt>
      <trkpt lat="44.88682" lon="5.4359">
        <ele>1257.8</ele>
        <time>2021-10-09T08:16:51Z</time>
      </trkpt>
      <trkpt lat="44.88683" lon="5.43593">
        <ele>1257.8</ele>
        <time>2021-10-09T08:16:52Z</time>
      </trkpt>
      <trkpt lat="44.88684" lon="5.43595">
        <ele>1257.8</ele>
        <time>2021-10-09T08:16:53Z</time>
      </trkpt>
      <trkpt lat="44.88685" lon="5.43597">
        <ele>1258.4</ele>
        <time>2021-10-09T08:16:54Z</time>
      </trkpt>
      <trkpt lat="44.88686" lon="5.43599">
        <ele>1258.4</ele>
        <time>2021-10-09T08:16:55Z</time>
      </trkpt>
      <trkpt lat="44.88687" lon="5.43601">
        <ele>1258.4</ele>
        <time>2021-10-09T08:16:56Z</time>
      </trkpt>
      <trkpt lat="44.88688" lon="5.43603">
        <ele>1258.4</ele>
        <time>2021-10-09T08:16:57Z</time>
      </trkpt>
      <trkpt lat="44.88688" lon="5.43605">
        <ele>1259</ele>
        <time>2021-10-09T08:16:58Z</time>
      </trkpt>
      <trkpt lat="44.88689" lon="5.43606">
        <ele>1259.4</ele>
        <time>2021-10-09T08:16:59Z</time>
      </trkpt>
      <trkpt lat="44.88689" lon="5.43608">
        <ele>1259.4</ele>
        <time>2021-10-09T08:17:00Z</time>
      </trkpt>
      <trkpt lat="44.8869" lon="5.4361">
        <ele>1259.4</ele>
        <time>2021-10-09T08:17:01Z</time>
      </trkpt>
      <trkpt lat="44.88692" lon="5.43611">
        <ele>1259.4</ele>
        <time>2021-10-09T08:17:02Z</time>
      </trkpt>
      <trkpt lat="44.88693" lon="5.43613">
        <ele>1259.8</ele>
        <time>2021-10-09T08:17:03Z</time>
      </trkpt>
      <trkpt lat="44.88695" lon="5.43615">
        <ele>1259.8</ele>
        <time>2021-10-09T08:17:04Z</time>
      </trkpt>
      <trkpt lat="44.88696" lon="5.43617">
        <ele>1259.8</ele>
        <time>2021-10-09T08:17:05Z</time>
      </trkpt>
      <trkpt lat="44.88697" lon="5.43619">
        <ele>1260.2</ele>
        <time>2021-10-09T08:17:06Z</time>
      </trkpt>
      <trkpt lat="44.88698" lon="5.4362">
        <ele>1260.4</ele>
        <time>2021-10-09T08:17:07Z</time>
      </trkpt>
      <trkpt lat="44.887" lon="5.43621">
        <ele>1260.4</ele>
        <time>2021-10-09T08:17:08Z</time>
      </trkpt>
      <trkpt lat="44.88701" lon="5.43623">
        <ele>1260.4</ele>
        <time>2021-10-09T08:17:09Z</time>
      </trkpt>
      <trkpt lat="44.88703" lon="5.43625">
        <ele>1260.6</ele>
        <time>2021-10-09T08:17:10Z</time>
      </trkpt>
      <trkpt lat="44.88704" lon="5.43626">
        <ele>1260.8</ele>
        <time>2021-10-09T08:17:11Z</time>
      </trkpt>
      <trkpt lat="44.88706" lon="5.43628">
        <ele>1260.8</ele>
        <time>2021-10-09T08:17:12Z</time>
      </trkpt>
      <trkpt lat="44.88707" lon="5.43631">
        <ele>1260.8</ele>
        <time>2021-10-09T08:17:13Z</time>
      </trkpt>
      <trkpt lat="44.88709" lon="5.43632">
        <ele>1260.8</ele>
        <time>2021-10-09T08:17:14Z</time>
      </trkpt>
      <trkpt lat="44.8871" lon="5.43634">
        <ele>1261.4</ele>
        <time>2021-10-09T08:17:15Z</time>
      </trkpt>
      <trkpt lat="44.88711" lon="5.43637">
        <ele>1261.4</ele>
        <time>2021-10-09T08:17:16Z</time>
      </trkpt>
      <trkpt lat="44.88713" lon="5.43639">
        <ele>1261.4</ele>
        <time>2021-10-09T08:17:17Z</time>
      </trkpt>
      <trkpt lat="44.88714" lon="5.43641">
        <ele>1262</ele>
        <time>2021-10-09T08:17:18Z</time>
      </trkpt>
      <trkpt lat="44.88715" lon="5.43643">
        <ele>1262</ele>
        <time>2021-10-09T08:17:19Z</time>
      </trkpt>
      <trkpt lat="44.88716" lon="5.43645">
        <ele>1262</ele>
        <time>2021-10-09T08:17:20Z</time>
      </trkpt>
      <trkpt lat="44.88717" lon="5.43647">
        <ele>1262</ele>
        <time>2021-10-09T08:17:21Z</time>
      </trkpt>
      <trkpt lat="44.88718" lon="5.43649">
        <ele>1262.6</ele>
        <time>2021-10-09T08:17:22Z</time>
      </trkpt>
      <trkpt lat="44.88719" lon="5.43651">
        <ele>1262.8</ele>
        <time>2021-10-09T08:17:23Z</time>
      </trkpt>
      <trkpt lat="44.88721" lon="5.43653">
        <ele>1262.8</ele>
        <time>2021-10-09T08:17:24Z</time>
      </trkpt>
      <trkpt lat="44.88722" lon="5.43655">
        <ele>1262.8</ele>
        <time>2021-10-09T08:17:25Z</time>
      </trkpt>
      <trkpt lat="44.88722" lon="5.43657">
        <ele>1262.8</ele>
        <time>2021-10-09T08:17:26Z</time>
      </trkpt>
      <trkpt lat="44.88723" lon="5.43659">
        <ele>1263.4</ele>
        <time>2021-10-09T08:17:27Z</time>
      </trkpt>
      <trkpt lat="44.88724" lon="5.43661">
        <ele>1263.4</ele>
        <time>2021-10-09T08:17:28Z</time>
      </trkpt>
      <trkpt lat="44.88725" lon="5.43663">
        <ele>1263.4</ele>
        <time>2021-10-09T08:17:29Z</time>
      </trkpt>
      <trkpt lat="44.88726" lon="5.43665">
        <ele>1263.8</ele>
        <time>2021-10-09T08:17:30Z</time>
      </trkpt>
      <trkpt lat="44.88727" lon="5.43667">
        <ele>1264.6</ele>
        <time>2021-10-09T08:17:31Z</time>
      </trkpt>
      <trkpt lat="44.88728" lon="5.43669">
        <ele>1264.6</ele>
        <time>2021-10-09T08:17:32Z</time>
      </trkpt>
      <trkpt lat="44.88729" lon="5.43671">
        <ele>1264.6</ele>
        <time>2021-10-09T08:17:33Z</time>
      </trkpt>
      <trkpt lat="44.8873" lon="5.43673">
        <ele>1264.6</ele>
        <time>2021-10-09T08:17:34Z</time>
      </trkpt>
      <trkpt lat="44.88732" lon="5.43674">
        <ele>1264.6</ele>
        <time>2021-10-09T08:17:35Z</time>
      </trkpt>
      <trkpt lat="44.88733" lon="5.43676">
        <ele>1264.6</ele>
        <time>2021-10-09T08:17:36Z</time>
      </trkpt>
      <trkpt lat="44.88735" lon="5.43678">
        <ele>1264.6</ele>
        <time>2021-10-09T08:17:37Z</time>
      </trkpt>
      <trkpt lat="44.88736" lon="5.4368">
        <ele>1265.4</ele>
        <time>2021-10-09T08:17:38Z</time>
      </trkpt>
      <trkpt lat="44.88737" lon="5.43681">
        <ele>1265.6</ele>
        <time>2021-10-09T08:17:39Z</time>
      </trkpt>
      <trkpt lat="44.88738" lon="5.43682">
        <ele>1265.6</ele>
        <time>2021-10-09T08:17:40Z</time>
      </trkpt>
      <trkpt lat="44.88739" lon="5.43683">
        <ele>1265.6</ele>
        <time>2021-10-09T08:17:41Z</time>
      </trkpt>
      <trkpt lat="44.88741" lon="5.43684">
        <ele>1265.6</ele>
        <time>2021-10-09T08:17:42Z</time>
      </trkpt>
      <trkpt lat="44.88742" lon="5.43686">
        <ele>1266</ele>
        <time>2021-10-09T08:17:43Z</time>
      </trkpt>
      <trkpt lat="44.88743" lon="5.43687">
        <ele>1266</ele>
        <time>2021-10-09T08:17:44Z</time>
      </trkpt>
      <trkpt lat="44.88744" lon="5.43688">
        <ele>1266</ele>
        <time>2021-10-09T08:17:45Z</time>
      </trkpt>
      <trkpt lat="44.88746" lon="5.4369">
        <ele>1266</ele>
        <time>2021-10-09T08:17:46Z</time>
      </trkpt>
      <trkpt lat="44.88748" lon="5.4369">
        <ele>1266.6</ele>
        <time>2021-10-09T08:17:47Z</time>
      </trkpt>
      <trkpt lat="44.8875" lon="5.43691">
        <ele>1266.6</ele>
        <time>2021-10-09T08:17:48Z</time>
      </trkpt>
      <trkpt lat="44.88752" lon="5.43692">
        <ele>1266.6</ele>
        <time>2021-10-09T08:17:49Z</time>
      </trkpt>
      <trkpt lat="44.88754" lon="5.43693">
        <ele>1267.6</ele>
        <time>2021-10-09T08:17:50Z</time>
      </trkpt>
      <trkpt lat="44.88755" lon="5.43693">
        <ele>1267.8</ele>
        <time>2021-10-09T08:17:51Z</time>
      </trkpt>
      <trkpt lat="44.88757" lon="5.43693">
        <ele>1267.8</ele>
        <time>2021-10-09T08:17:52Z</time>
      </trkpt>
      <trkpt lat="44.88758" lon="5.43694">
        <ele>1267.8</ele>
        <time>2021-10-09T08:17:53Z</time>
      </trkpt>
      <trkpt lat="44.88759" lon="5.43695">
        <ele>1267.8</ele>
        <time>2021-10-09T08:17:54Z</time>
      </trkpt>
      <trkpt lat="44.88761" lon="5.43695">
        <ele>1268</ele>
        <time>2021-10-09T08:17:55Z</time>
      </trkpt>
      <trkpt lat="44.88762" lon="5.43696">
        <ele>1268</ele>
        <time>2021-10-09T08:17:56Z</time>
      </trkpt>
      <trkpt lat="44.88764" lon="5.43696">
        <ele>1268</ele>
        <time>2021-10-09T08:17:57Z</time>
      </trkpt>
      <trkpt lat="44.88766" lon="5.43697">
        <ele>1268</ele>
        <time>2021-10-09T08:17:58Z</time>
      </trkpt>
      <trkpt lat="44.88768" lon="5.43696">
        <ele>1268.8</ele>
        <time>2021-10-09T08:17:59Z</time>
      </trkpt>
      <trkpt lat="44.88769" lon="5.43697">
        <ele>1268.8</ele>
        <time>2021-10-09T08:18:00Z</time>
      </trkpt>
      <trkpt lat="44.88771" lon="5.43698">
        <ele>1268.8</ele>
        <time>2021-10-09T08:18:01Z</time>
      </trkpt>
      <trkpt lat="44.88772" lon="5.43699">
        <ele>1269.6</ele>
        <time>2021-10-09T08:18:02Z</time>
      </trkpt>
      <trkpt lat="44.88773" lon="5.437">
        <ele>1269.2</ele>
        <time>2021-10-09T08:18:03Z</time>
      </trkpt>
      <trkpt lat="44.88774" lon="5.43701">
        <ele>1269.2</ele>
        <time>2021-10-09T08:18:04Z</time>
      </trkpt>
      <trkpt lat="44.88776" lon="5.43703">
        <ele>1269.2</ele>
        <time>2021-10-09T08:18:05Z</time>
      </trkpt>
      <trkpt lat="44.88776" lon="5.43705">
        <ele>1270.2</ele>
        <time>2021-10-09T08:18:06Z</time>
      </trkpt>
      <trkpt lat="44.88777" lon="5.43707">
        <ele>1270.4</ele>
        <time>2021-10-09T08:18:07Z</time>
      </trkpt>
      <trkpt lat="44.88779" lon="5.43709">
        <ele>1270.4</ele>
        <time>2021-10-09T08:18:08Z</time>
      </trkpt>
      <trkpt lat="44.8878" lon="5.43711">
        <ele>1270.4</ele>
        <time>2021-10-09T08:18:09Z</time>
      </trkpt>
      <trkpt lat="44.88782" lon="5.43713">
        <ele>1270.6</ele>
        <time>2021-10-09T08:18:10Z</time>
      </trkpt>
      <trkpt lat="44.88784" lon="5.43715">
        <ele>1271</ele>
        <time>2021-10-09T08:18:11Z</time>
      </trkpt>
      <trkpt lat="44.88786" lon="5.43717">
        <ele>1271</ele>
        <time>2021-10-09T08:18:12Z</time>
      </trkpt>
      <trkpt lat="44.88787" lon="5.4372">
        <ele>1271</ele>
        <time>2021-10-09T08:18:13Z</time>
      </trkpt>
      <trkpt lat="44.88789" lon="5.43722">
        <ele>1271</ele>
        <time>2021-10-09T08:18:14Z</time>
      </trkpt>
      <trkpt lat="44.8879" lon="5.43724">
        <ele>1271</ele>
        <time>2021-10-09T08:18:15Z</time>
      </trkpt>
      <trkpt lat="44.88791" lon="5.43727">
        <ele>1271</ele>
        <time>2021-10-09T08:18:16Z</time>
      </trkpt>
      <trkpt lat="44.88793" lon="5.43729">
        <ele>1271</ele>
        <time>2021-10-09T08:18:17Z</time>
      </trkpt>
      <trkpt lat="44.88794" lon="5.43731">
        <ele>1272</ele>
        <time>2021-10-09T08:18:18Z</time>
      </trkpt>
      <trkpt lat="44.88796" lon="5.43733">
        <ele>1272</ele>
        <time>2021-10-09T08:18:19Z</time>
      </trkpt>
      <trkpt lat="44.88797" lon="5.43734">
        <ele>1272</ele>
        <time>2021-10-09T08:18:20Z</time>
      </trkpt>
      <trkpt lat="44.88798" lon="5.43736">
        <ele>1272</ele>
        <time>2021-10-09T08:18:21Z</time>
      </trkpt>
      <trkpt lat="44.888" lon="5.43738">
        <ele>1272.4</ele>
        <time>2021-10-09T08:18:22Z</time>
      </trkpt>
      <trkpt lat="44.88801" lon="5.4374">
        <ele>1273</ele>
        <time>2021-10-09T08:18:23Z</time>
      </trkpt>
      <trkpt lat="44.88802" lon="5.43742">
        <ele>1273</ele>
        <time>2021-10-09T08:18:24Z</time>
      </trkpt>
      <trkpt lat="44.88803" lon="5.43744">
        <ele>1273</ele>
        <time>2021-10-09T08:18:25Z</time>
      </trkpt>
      <trkpt lat="44.88804" lon="5.43746">
        <ele>1273</ele>
        <time>2021-10-09T08:18:26Z</time>
      </trkpt>
      <trkpt lat="44.88805" lon="5.43748">
        <ele>1273.2</ele>
        <time>2021-10-09T08:18:27Z</time>
      </trkpt>
      <trkpt lat="44.88807" lon="5.43749">
        <ele>1273.2</ele>
        <time>2021-10-09T08:18:28Z</time>
      </trkpt>
      <trkpt lat="44.88807" lon="5.43752">
        <ele>1273.2</ele>
        <time>2021-10-09T08:18:29Z</time>
      </trkpt>
      <trkpt lat="44.88808" lon="5.43754">
        <ele>1274</ele>
        <time>2021-10-09T08:18:30Z</time>
      </trkpt>
      <trkpt lat="44.88809" lon="5.43756">
        <ele>1274</ele>
        <time>2021-10-09T08:18:31Z</time>
      </trkpt>
      <trkpt lat="44.88809" lon="5.43759">
        <ele>1274</ele>
        <time>2021-10-09T08:18:32Z</time>
      </trkpt>
      <trkpt lat="44.88809" lon="5.43761">
        <ele>1274</ele>
        <time>2021-10-09T08:18:33Z</time>
      </trkpt>
      <trkpt lat="44.8881" lon="5.43763">
        <ele>1274.2</ele>
        <time>2021-10-09T08:18:34Z</time>
      </trkpt>
      <trkpt lat="44.8881" lon="5.43765">
        <ele>1274.4</ele>
        <time>2021-10-09T08:18:35Z</time>
      </trkpt>
      <trkpt lat="44.88811" lon="5.43767">
        <ele>1274.4</ele>
        <time>2021-10-09T08:18:36Z</time>
      </trkpt>
      <trkpt lat="44.88811" lon="5.43769">
        <ele>1274.4</ele>
        <time>2021-10-09T08:18:37Z</time>
      </trkpt>
      <trkpt lat="44.88812" lon="5.43772">
        <ele>1274.8</ele>
        <time>2021-10-09T08:18:38Z</time>
      </trkpt>
      <trkpt lat="44.88813" lon="5.43773">
        <ele>1275</ele>
        <time>2021-10-09T08:18:39Z</time>
      </trkpt>
      <trkpt lat="44.88814" lon="5.43775">
        <ele>1275</ele>
        <time>2021-10-09T08:18:40Z</time>
      </trkpt>
      <trkpt lat="44.88815" lon="5.43777">
        <ele>1275</ele>
        <time>2021-10-09T08:18:41Z</time>
      </trkpt>
      <trkpt lat="44.88816" lon="5.43779">
        <ele>1275</ele>
        <time>2021-10-09T08:18:42Z</time>
      </trkpt>
      <trkpt lat="44.88817" lon="5.43781">
        <ele>1275.2</ele>
        <time>2021-10-09T08:18:43Z</time>
      </trkpt>
      <trkpt lat="44.88818" lon="5.43783">
        <ele>1275.2</ele>
        <time>2021-10-09T08:18:44Z</time>
      </trkpt>
      <trkpt lat="44.88819" lon="5.43785">
        <ele>1275.2</ele>
        <time>2021-10-09T08:18:45Z</time>
      </trkpt>
      <trkpt lat="44.8882" lon="5.43786">
        <ele>1275.6</ele>
        <time>2021-10-09T08:18:46Z</time>
      </trkpt>
      <trkpt lat="44.88821" lon="5.43788">
        <ele>1275.8</ele>
        <time>2021-10-09T08:18:47Z</time>
      </trkpt>
      <trkpt lat="44.88822" lon="5.4379">
        <ele>1275.8</ele>
        <time>2021-10-09T08:18:48Z</time>
      </trkpt>
      <trkpt lat="44.88823" lon="5.43792">
        <ele>1275.8</ele>
        <time>2021-10-09T08:18:49Z</time>
      </trkpt>
      <trkpt lat="44.88824" lon="5.43793">
        <ele>1276.8</ele>
        <time>2021-10-09T08:18:50Z</time>
      </trkpt>
      <trkpt lat="44.88826" lon="5.43795">
        <ele>1277.2</ele>
        <time>2021-10-09T08:18:51Z</time>
      </trkpt>
      <trkpt lat="44.88827" lon="5.43797">
        <ele>1277.2</ele>
        <time>2021-10-09T08:18:52Z</time>
      </trkpt>
      <trkpt lat="44.88828" lon="5.43798">
        <ele>1277.2</ele>
        <time>2021-10-09T08:18:53Z</time>
      </trkpt>
      <trkpt lat="44.8883" lon="5.438">
        <ele>1277.6</ele>
        <time>2021-10-09T08:18:54Z</time>
      </trkpt>
      <trkpt lat="44.88831" lon="5.43801">
        <ele>1277.6</ele>
        <time>2021-10-09T08:18:55Z</time>
      </trkpt>
      <trkpt lat="44.88832" lon="5.43803">
        <ele>1277.6</ele>
        <time>2021-10-09T08:18:56Z</time>
      </trkpt>
      <trkpt lat="44.88834" lon="5.43805">
        <ele>1277.6</ele>
        <time>2021-10-09T08:18:57Z</time>
      </trkpt>
      <trkpt lat="44.88835" lon="5.43806">
        <ele>1278</ele>
        <time>2021-10-09T08:18:58Z</time>
      </trkpt>
      <trkpt lat="44.88836" lon="5.43808">
        <ele>1278.2</ele>
        <time>2021-10-09T08:18:59Z</time>
      </trkpt>
      <trkpt lat="44.88838" lon="5.43809">
        <ele>1278.2</ele>
        <time>2021-10-09T08:19:00Z</time>
      </trkpt>
      <trkpt lat="44.88839" lon="5.43811">
        <ele>1278.2</ele>
        <time>2021-10-09T08:19:01Z</time>
      </trkpt>
      <trkpt lat="44.8884" lon="5.43812">
        <ele>1278.6</ele>
        <time>2021-10-09T08:19:02Z</time>
      </trkpt>
      <trkpt lat="44.88842" lon="5.43814">
        <ele>1279.2</ele>
        <time>2021-10-09T08:19:03Z</time>
      </trkpt>
      <trkpt lat="44.88843" lon="5.43816">
        <ele>1279.2</ele>
        <time>2021-10-09T08:19:04Z</time>
      </trkpt>
      <trkpt lat="44.88844" lon="5.43817">
        <ele>1279.2</ele>
        <time>2021-10-09T08:19:05Z</time>
      </trkpt>
      <trkpt lat="44.88846" lon="5.43818">
        <ele>1279.2</ele>
        <time>2021-10-09T08:19:06Z</time>
      </trkpt>
      <trkpt lat="44.88847" lon="5.4382">
        <ele>1279.4</ele>
        <time>2021-10-09T08:19:07Z</time>
      </trkpt>
      <trkpt lat="44.88848" lon="5.43822">
        <ele>1279.4</ele>
        <time>2021-10-09T08:19:08Z</time>
      </trkpt>
      <trkpt lat="44.88849" lon="5.43823">
        <ele>1279.4</ele>
        <time>2021-10-09T08:19:09Z</time>
      </trkpt>
      <trkpt lat="44.8885" lon="5.43825">
        <ele>1279.4</ele>
        <time>2021-10-09T08:19:10Z</time>
      </trkpt>
      <trkpt lat="44.88851" lon="5.43826">
        <ele>1279.6</ele>
        <time>2021-10-09T08:19:11Z</time>
      </trkpt>
      <trkpt lat="44.88852" lon="5.43828">
        <ele>1279.6</ele>
        <time>2021-10-09T08:19:12Z</time>
      </trkpt>
      <trkpt lat="44.88854" lon="5.43829">
        <ele>1279.6</ele>
        <time>2021-10-09T08:19:13Z</time>
      </trkpt>
      <trkpt lat="44.88855" lon="5.43831">
        <ele>1280.2</ele>
        <time>2021-10-09T08:19:14Z</time>
      </trkpt>
      <trkpt lat="44.88856" lon="5.43832">
        <ele>1280.2</ele>
        <time>2021-10-09T08:19:15Z</time>
      </trkpt>
      <trkpt lat="44.88857" lon="5.43833">
        <ele>1280.2</ele>
        <time>2021-10-09T08:19:16Z</time>
      </trkpt>
      <trkpt lat="44.88859" lon="5.43835">
        <ele>1280.2</ele>
        <time>2021-10-09T08:19:17Z</time>
      </trkpt>
      <trkpt lat="44.8886" lon="5.43836">
        <ele>1280.6</ele>
        <time>2021-10-09T08:19:18Z</time>
      </trkpt>
      <trkpt lat="44.88861" lon="5.43838">
        <ele>1280.6</ele>
        <time>2021-10-09T08:19:19Z</time>
      </trkpt>
      <trkpt lat="44.88862" lon="5.43839">
        <ele>1280.6</ele>
        <time>2021-10-09T08:19:20Z</time>
      </trkpt>
      <trkpt lat="44.88863" lon="5.4384">
        <ele>1280.6</ele>
        <time>2021-10-09T08:19:21Z</time>
      </trkpt>
      <trkpt lat="44.88864" lon="5.43841">
        <ele>1281</ele>
        <time>2021-10-09T08:19:22Z</time>
      </trkpt>
      <trkpt lat="44.88865" lon="5.43842">
        <ele>1281.2</ele>
        <time>2021-10-09T08:19:23Z</time>
      </trkpt>
      <trkpt lat="44.88866" lon="5.43843">
        <ele>1281.2</ele>
        <time>2021-10-09T08:19:24Z</time>
      </trkpt>
      <trkpt lat="44.88867" lon="5.43844">
        <ele>1281.2</ele>
        <time>2021-10-09T08:19:25Z</time>
      </trkpt>
      <trkpt lat="44.88868" lon="5.43846">
        <ele>1281.4</ele>
        <time>2021-10-09T08:19:26Z</time>
      </trkpt>
      <trkpt lat="44.88869" lon="5.43848">
        <ele>1281.4</ele>
        <time>2021-10-09T08:19:27Z</time>
      </trkpt>
      <trkpt lat="44.88871" lon="5.43849">
        <ele>1281.4</ele>
        <time>2021-10-09T08:19:28Z</time>
      </trkpt>
      <trkpt lat="44.88871" lon="5.43849">
        <ele>1281.4</ele>
        <time>2021-10-09T08:19:29Z</time>
      </trkpt>
      <trkpt lat="44.88873" lon="5.4385">
        <ele>1281.4</ele>
        <time>2021-10-09T08:19:30Z</time>
      </trkpt>
      <trkpt lat="44.88874" lon="5.43851">
        <ele>1282</ele>
        <time>2021-10-09T08:19:31Z</time>
      </trkpt>
      <trkpt lat="44.88876" lon="5.43852">
        <ele>1282</ele>
        <time>2021-10-09T08:19:32Z</time>
      </trkpt>
      <trkpt lat="44.88877" lon="5.43854">
        <ele>1282</ele>
        <time>2021-10-09T08:19:33Z</time>
      </trkpt>
      <trkpt lat="44.88878" lon="5.43854">
        <ele>1282.2</ele>
        <time>2021-10-09T08:19:34Z</time>
      </trkpt>
      <trkpt lat="44.8888" lon="5.43856">
        <ele>1282.4</ele>
        <time>2021-10-09T08:19:35Z</time>
      </trkpt>
      <trkpt lat="44.88881" lon="5.43857">
        <ele>1282.4</ele>
        <time>2021-10-09T08:19:36Z</time>
      </trkpt>
      <trkpt lat="44.88883" lon="5.43858">
        <ele>1282.4</ele>
        <time>2021-10-09T08:19:37Z</time>
      </trkpt>
      <trkpt lat="44.88885" lon="5.43859">
        <ele>1282.8</ele>
        <time>2021-10-09T08:19:38Z</time>
      </trkpt>
      <trkpt lat="44.88886" lon="5.4386">
        <ele>1283.4</ele>
        <time>2021-10-09T08:19:39Z</time>
      </trkpt>
      <trkpt lat="44.88888" lon="5.43861">
        <ele>1283.4</ele>
        <time>2021-10-09T08:19:40Z</time>
      </trkpt>
      <trkpt lat="44.88889" lon="5.43862">
        <ele>1283.4</ele>
        <time>2021-10-09T08:19:41Z</time>
      </trkpt>
      <trkpt lat="44.8889" lon="5.43863">
        <ele>1284</ele>
        <time>2021-10-09T08:19:42Z</time>
      </trkpt>
      <trkpt lat="44.88892" lon="5.43864">
        <ele>1283.4</ele>
        <time>2021-10-09T08:19:43Z</time>
      </trkpt>
      <trkpt lat="44.88893" lon="5.43865">
        <ele>1283.4</ele>
        <time>2021-10-09T08:19:44Z</time>
      </trkpt>
      <trkpt lat="44.88895" lon="5.43866">
        <ele>1283.4</ele>
        <time>2021-10-09T08:19:45Z</time>
      </trkpt>
      <trkpt lat="44.88897" lon="5.43867">
        <ele>1284</ele>
        <time>2021-10-09T08:19:46Z</time>
      </trkpt>
      <trkpt lat="44.88899" lon="5.43869">
        <ele>1284</ele>
        <time>2021-10-09T08:19:47Z</time>
      </trkpt>
      <trkpt lat="44.889" lon="5.4387">
        <ele>1284</ele>
        <time>2021-10-09T08:19:48Z</time>
      </trkpt>
      <trkpt lat="44.88901" lon="5.43871">
        <ele>1284</ele>
        <time>2021-10-09T08:19:49Z</time>
      </trkpt>
      <trkpt lat="44.88903" lon="5.43872">
        <ele>1284</ele>
        <time>2021-10-09T08:19:50Z</time>
      </trkpt>
      <trkpt lat="44.88904" lon="5.43873">
        <ele>1285</ele>
        <time>2021-10-09T08:19:51Z</time>
      </trkpt>
      <trkpt lat="44.88906" lon="5.43874">
        <ele>1285</ele>
        <time>2021-10-09T08:19:52Z</time>
      </trkpt>
      <trkpt lat="44.88907" lon="5.43876">
        <ele>1285</ele>
        <time>2021-10-09T08:19:53Z</time>
      </trkpt>
      <trkpt lat="44.88909" lon="5.43877">
        <ele>1284.6</ele>
        <time>2021-10-09T08:19:54Z</time>
      </trkpt>
      <trkpt lat="44.8891" lon="5.43877">
        <ele>1285</ele>
        <time>2021-10-09T08:19:55Z</time>
      </trkpt>
      <trkpt lat="44.88912" lon="5.43879">
        <ele>1285</ele>
        <time>2021-10-09T08:19:56Z</time>
      </trkpt>
      <trkpt lat="44.88913" lon="5.4388">
        <ele>1285</ele>
        <time>2021-10-09T08:19:57Z</time>
      </trkpt>
      <trkpt lat="44.88915" lon="5.43881">
        <ele>1285.4</ele>
        <time>2021-10-09T08:19:58Z</time>
      </trkpt>
      <trkpt lat="44.88917" lon="5.43882">
        <ele>1285.4</ele>
        <time>2021-10-09T08:19:59Z</time>
      </trkpt>
      <trkpt lat="44.88918" lon="5.43882">
        <ele>1285.4</ele>
        <time>2021-10-09T08:20:00Z</time>
      </trkpt>
      <trkpt lat="44.88919" lon="5.43882">
        <ele>1285.4</ele>
        <time>2021-10-09T08:20:01Z</time>
      </trkpt>
      <trkpt lat="44.88921" lon="5.43883">
        <ele>1286</ele>
        <time>2021-10-09T08:20:02Z</time>
      </trkpt>
      <trkpt lat="44.88923" lon="5.43884">
        <ele>1286</ele>
        <time>2021-10-09T08:20:03Z</time>
      </trkpt>
      <trkpt lat="44.88925" lon="5.43884">
        <ele>1286</ele>
        <time>2021-10-09T08:20:04Z</time>
      </trkpt>
      <trkpt lat="44.88927" lon="5.43885">
        <ele>1286</ele>
        <time>2021-10-09T08:20:05Z</time>
      </trkpt>
      <trkpt lat="44.88929" lon="5.43885">
        <ele>1286</ele>
        <time>2021-10-09T08:20:06Z</time>
      </trkpt>
      <trkpt lat="44.8893" lon="5.43885">
        <ele>1286.6</ele>
        <time>2021-10-09T08:20:07Z</time>
      </trkpt>
      <trkpt lat="44.88932" lon="5.43885">
        <ele>1286.6</ele>
        <time>2021-10-09T08:20:08Z</time>
      </trkpt>
      <trkpt lat="44.88934" lon="5.43885">
        <ele>1286.6</ele>
        <time>2021-10-09T08:20:09Z</time>
      </trkpt>
      <trkpt lat="44.88935" lon="5.43886">
        <ele>1286.8</ele>
        <time>2021-10-09T08:20:10Z</time>
      </trkpt>
      <trkpt lat="44.88937" lon="5.43886">
        <ele>1287</ele>
        <time>2021-10-09T08:20:11Z</time>
      </trkpt>
      <trkpt lat="44.88939" lon="5.43886">
        <ele>1287</ele>
        <time>2021-10-09T08:20:12Z</time>
      </trkpt>
      <trkpt lat="44.88941" lon="5.43885">
        <ele>1287</ele>
        <time>2021-10-09T08:20:13Z</time>
      </trkpt>
      <trkpt lat="44.88943" lon="5.43885">
        <ele>1287</ele>
        <time>2021-10-09T08:20:14Z</time>
      </trkpt>
      <trkpt lat="44.88944" lon="5.43885">
        <ele>1287</ele>
        <time>2021-10-09T08:20:15Z</time>
      </trkpt>
      <trkpt lat="44.88946" lon="5.43886">
        <ele>1287</ele>
        <time>2021-10-09T08:20:16Z</time>
      </trkpt>
      <trkpt lat="44.88947" lon="5.43887">
        <ele>1287</ele>
        <time>2021-10-09T08:20:17Z</time>
      </trkpt>
      <trkpt lat="44.88949" lon="5.43888">
        <ele>1288</ele>
        <time>2021-10-09T08:20:18Z</time>
      </trkpt>
      <trkpt lat="44.88951" lon="5.43889">
        <ele>1288.2</ele>
        <time>2021-10-09T08:20:19Z</time>
      </trkpt>
      <trkpt lat="44.88953" lon="5.4389">
        <ele>1288.2</ele>
        <time>2021-10-09T08:20:20Z</time>
      </trkpt>
      <trkpt lat="44.88954" lon="5.43893">
        <ele>1288.2</ele>
        <time>2021-10-09T08:20:21Z</time>
      </trkpt>
      <trkpt lat="44.88954" lon="5.43895">
        <ele>1288.2</ele>
        <time>2021-10-09T08:20:22Z</time>
      </trkpt>
      <trkpt lat="44.88954" lon="5.43897">
        <ele>1288.2</ele>
        <time>2021-10-09T08:20:23Z</time>
      </trkpt>
      <trkpt lat="44.88954" lon="5.43901">
        <ele>1288.2</ele>
        <time>2021-10-09T08:20:24Z</time>
      </trkpt>
      <trkpt lat="44.88953" lon="5.43903">
        <ele>1288.2</ele>
        <time>2021-10-09T08:20:25Z</time>
      </trkpt>
      <trkpt lat="44.88952" lon="5.43905">
        <ele>1289</ele>
        <time>2021-10-09T08:20:26Z</time>
      </trkpt>
      <trkpt lat="44.88951" lon="5.43907">
        <ele>1289.2</ele>
        <time>2021-10-09T08:20:27Z</time>
      </trkpt>
      <trkpt lat="44.88949" lon="5.43908">
        <ele>1289.2</ele>
        <time>2021-10-09T08:20:28Z</time>
      </trkpt>
      <trkpt lat="44.88947" lon="5.43909">
        <ele>1289.2</ele>
        <time>2021-10-09T08:20:29Z</time>
      </trkpt>
      <trkpt lat="44.88946" lon="5.4391">
        <ele>1289.2</ele>
        <time>2021-10-09T08:20:30Z</time>
      </trkpt>
      <trkpt lat="44.88944" lon="5.43911">
        <ele>1289.6</ele>
        <time>2021-10-09T08:20:31Z</time>
      </trkpt>
      <trkpt lat="44.88943" lon="5.43911">
        <ele>1289.6</ele>
        <time>2021-10-09T08:20:32Z</time>
      </trkpt>
      <trkpt lat="44.88941" lon="5.43912">
        <ele>1289.6</ele>
        <time>2021-10-09T08:20:33Z</time>
      </trkpt>
      <trkpt lat="44.88939" lon="5.43912">
        <ele>1290</ele>
        <time>2021-10-09T08:20:34Z</time>
      </trkpt>
      <trkpt lat="44.88937" lon="5.43912">
        <ele>1290.4</ele>
        <time>2021-10-09T08:20:35Z</time>
      </trkpt>
      <trkpt lat="44.88935" lon="5.43911">
        <ele>1290.4</ele>
        <time>2021-10-09T08:20:36Z</time>
      </trkpt>
      <trkpt lat="44.88934" lon="5.43912">
        <ele>1290.4</ele>
        <time>2021-10-09T08:20:37Z</time>
      </trkpt>
      <trkpt lat="44.88932" lon="5.43912">
        <ele>1290.6</ele>
        <time>2021-10-09T08:20:38Z</time>
      </trkpt>
      <trkpt lat="44.8893" lon="5.43912">
        <ele>1291</ele>
        <time>2021-10-09T08:20:39Z</time>
      </trkpt>
      <trkpt lat="44.88929" lon="5.43911">
        <ele>1291</ele>
        <time>2021-10-09T08:20:40Z</time>
      </trkpt>
      <trkpt lat="44.88927" lon="5.43911">
        <ele>1291</ele>
        <time>2021-10-09T08:20:41Z</time>
      </trkpt>
      <trkpt lat="44.88926" lon="5.43911">
        <ele>1291</ele>
        <time>2021-10-09T08:20:42Z</time>
      </trkpt>
      <trkpt lat="44.88924" lon="5.4391">
        <ele>1291.2</ele>
        <time>2021-10-09T08:20:43Z</time>
      </trkpt>
      <trkpt lat="44.88922" lon="5.4391">
        <ele>1291.2</ele>
        <time>2021-10-09T08:20:44Z</time>
      </trkpt>
      <trkpt lat="44.88921" lon="5.43909">
        <ele>1291.2</ele>
        <time>2021-10-09T08:20:45Z</time>
      </trkpt>
      <trkpt lat="44.8892" lon="5.43909">
        <ele>1292</ele>
        <time>2021-10-09T08:20:46Z</time>
      </trkpt>
      <trkpt lat="44.88918" lon="5.43907">
        <ele>1291.8</ele>
        <time>2021-10-09T08:20:47Z</time>
      </trkpt>
      <trkpt lat="44.88917" lon="5.43906">
        <ele>1291.8</ele>
        <time>2021-10-09T08:20:48Z</time>
      </trkpt>
      <trkpt lat="44.88915" lon="5.43905">
        <ele>1291.8</ele>
        <time>2021-10-09T08:20:49Z</time>
      </trkpt>
      <trkpt lat="44.88913" lon="5.43905">
        <ele>1292.6</ele>
        <time>2021-10-09T08:20:50Z</time>
      </trkpt>
      <trkpt lat="44.88911" lon="5.43904">
        <ele>1292.8</ele>
        <time>2021-10-09T08:20:51Z</time>
      </trkpt>
      <trkpt lat="44.8891" lon="5.43903">
        <ele>1292.8</ele>
        <time>2021-10-09T08:20:52Z</time>
      </trkpt>
      <trkpt lat="44.88908" lon="5.43902">
        <ele>1292.8</ele>
        <time>2021-10-09T08:20:53Z</time>
      </trkpt>
      <trkpt lat="44.88907" lon="5.43901">
        <ele>1292.8</ele>
        <time>2021-10-09T08:20:54Z</time>
      </trkpt>
      <trkpt lat="44.88905" lon="5.439">
        <ele>1292.6</ele>
        <time>2021-10-09T08:20:55Z</time>
      </trkpt>
      <trkpt lat="44.88903" lon="5.43899">
        <ele>1292.6</ele>
        <time>2021-10-09T08:20:56Z</time>
      </trkpt>
      <trkpt lat="44.88902" lon="5.43898">
        <ele>1292.6</ele>
        <time>2021-10-09T08:20:57Z</time>
      </trkpt>
      <trkpt lat="44.889" lon="5.43897">
        <ele>1293.6</ele>
        <time>2021-10-09T08:20:58Z</time>
      </trkpt>
      <trkpt lat="44.88898" lon="5.43897">
        <ele>1293.6</ele>
        <time>2021-10-09T08:20:59Z</time>
      </trkpt>
      <trkpt lat="44.88897" lon="5.43896">
        <ele>1293.6</ele>
        <time>2021-10-09T08:21:00Z</time>
      </trkpt>
      <trkpt lat="44.88895" lon="5.43896">
        <ele>1293.6</ele>
        <time>2021-10-09T08:21:01Z</time>
      </trkpt>
      <trkpt lat="44.88894" lon="5.43895">
        <ele>1293.6</ele>
        <time>2021-10-09T08:21:02Z</time>
      </trkpt>
      <trkpt lat="44.88892" lon="5.43895">
        <ele>1294</ele>
        <time>2021-10-09T08:21:03Z</time>
      </trkpt>
      <trkpt lat="44.88891" lon="5.43894">
        <ele>1294</ele>
        <time>2021-10-09T08:21:04Z</time>
      </trkpt>
      <trkpt lat="44.8889" lon="5.43893">
        <ele>1294</ele>
        <time>2021-10-09T08:21:05Z</time>
      </trkpt>
      <trkpt lat="44.88888" lon="5.43892">
        <ele>1294.6</ele>
        <time>2021-10-09T08:21:06Z</time>
      </trkpt>
      <trkpt lat="44.88886" lon="5.43891">
        <ele>1294.8</ele>
        <time>2021-10-09T08:21:07Z</time>
      </trkpt>
      <trkpt lat="44.88885" lon="5.43891">
        <ele>1294.8</ele>
        <time>2021-10-09T08:21:08Z</time>
      </trkpt>
      <trkpt lat="44.88882" lon="5.43891">
        <ele>1294.8</ele>
        <time>2021-10-09T08:21:09Z</time>
      </trkpt>
      <trkpt lat="44.88881" lon="5.4389">
        <ele>1295.2</ele>
        <time>2021-10-09T08:21:10Z</time>
      </trkpt>
      <trkpt lat="44.88879" lon="5.43889">
        <ele>1295</ele>
        <time>2021-10-09T08:21:11Z</time>
      </trkpt>
      <trkpt lat="44.88877" lon="5.43888">
        <ele>1295</ele>
        <time>2021-10-09T08:21:12Z</time>
      </trkpt>
      <trkpt lat="44.88875" lon="5.43888">
        <ele>1295</ele>
        <time>2021-10-09T08:21:13Z</time>
      </trkpt>
      <trkpt lat="44.88873" lon="5.43887">
        <ele>1295.8</ele>
        <time>2021-10-09T08:21:14Z</time>
      </trkpt>
      <trkpt lat="44.88871" lon="5.43886">
        <ele>1295.4</ele>
        <time>2021-10-09T08:21:15Z</time>
      </trkpt>
      <trkpt lat="44.8887" lon="5.43885">
        <ele>1295.4</ele>
        <time>2021-10-09T08:21:16Z</time>
      </trkpt>
      <trkpt lat="44.88868" lon="5.43885">
        <ele>1295.4</ele>
        <time>2021-10-09T08:21:17Z</time>
      </trkpt>
      <trkpt lat="44.88866" lon="5.43884">
        <ele>1296.4</ele>
        <time>2021-10-09T08:21:18Z</time>
      </trkpt>
      <trkpt lat="44.88863" lon="5.43884">
        <ele>1296.4</ele>
        <time>2021-10-09T08:21:19Z</time>
      </trkpt>
      <trkpt lat="44.88862" lon="5.43883">
        <ele>1296.4</ele>
        <time>2021-10-09T08:21:20Z</time>
      </trkpt>
      <trkpt lat="44.8886" lon="5.43883">
        <ele>1296.4</ele>
        <time>2021-10-09T08:21:21Z</time>
      </trkpt>
      <trkpt lat="44.88858" lon="5.43883">
        <ele>1297</ele>
        <time>2021-10-09T08:21:22Z</time>
      </trkpt>
      <trkpt lat="44.88856" lon="5.43883">
        <ele>1296.8</ele>
        <time>2021-10-09T08:21:23Z</time>
      </trkpt>
      <trkpt lat="44.88854" lon="5.43883">
        <ele>1296.8</ele>
        <time>2021-10-09T08:21:24Z</time>
      </trkpt>
      <trkpt lat="44.88852" lon="5.43883">
        <ele>1296.8</ele>
        <time>2021-10-09T08:21:25Z</time>
      </trkpt>
      <trkpt lat="44.88851" lon="5.43884">
        <ele>1297.2</ele>
        <time>2021-10-09T08:21:26Z</time>
      </trkpt>
      <trkpt lat="44.88849" lon="5.43885">
        <ele>1297.4</ele>
        <time>2021-10-09T08:21:27Z</time>
      </trkpt>
      <trkpt lat="44.88848" lon="5.43886">
        <ele>1297.4</ele>
        <time>2021-10-09T08:21:28Z</time>
      </trkpt>
      <trkpt lat="44.88846" lon="5.43887">
        <ele>1297.4</ele>
        <time>2021-10-09T08:21:29Z</time>
      </trkpt>
      <trkpt lat="44.88845" lon="5.43889">
        <ele>1298</ele>
        <time>2021-10-09T08:21:30Z</time>
      </trkpt>
      <trkpt lat="44.88843" lon="5.4389">
        <ele>1297.8</ele>
        <time>2021-10-09T08:21:31Z</time>
      </trkpt>
      <trkpt lat="44.88842" lon="5.43891">
        <ele>1297.8</ele>
        <time>2021-10-09T08:21:32Z</time>
      </trkpt>
      <trkpt lat="44.88842" lon="5.43892">
        <ele>1297.8</ele>
        <time>2021-10-09T08:21:33Z</time>
      </trkpt>
      <trkpt lat="44.8884" lon="5.43894">
        <ele>1298</ele>
        <time>2021-10-09T08:21:34Z</time>
      </trkpt>
      <trkpt lat="44.88839" lon="5.43895">
        <ele>1298.6</ele>
        <time>2021-10-09T08:21:35Z</time>
      </trkpt>
      <trkpt lat="44.88838" lon="5.43897">
        <ele>1298.6</ele>
        <time>2021-10-09T08:21:36Z</time>
      </trkpt>
      <trkpt lat="44.88836" lon="5.43898">
        <ele>1298.6</ele>
        <time>2021-10-09T08:21:37Z</time>
      </trkpt>
      <trkpt lat="44.88835" lon="5.439">
        <ele>1299.2</ele>
        <time>2021-10-09T08:21:38Z</time>
      </trkpt>
      <trkpt lat="44.88833" lon="5.43902">
        <ele>1299.2</ele>
        <time>2021-10-09T08:21:39Z</time>
      </trkpt>
      <trkpt lat="44.88832" lon="5.43903">
        <ele>1299.2</ele>
        <time>2021-10-09T08:21:40Z</time>
      </trkpt>
      <trkpt lat="44.8883" lon="5.43905">
        <ele>1299.2</ele>
        <time>2021-10-09T08:21:41Z</time>
      </trkpt>
      <trkpt lat="44.88828" lon="5.43906">
        <ele>1299.2</ele>
        <time>2021-10-09T08:21:42Z</time>
      </trkpt>
      <trkpt lat="44.88827" lon="5.43908">
        <ele>1299.2</ele>
        <time>2021-10-09T08:21:43Z</time>
      </trkpt>
      <trkpt lat="44.88826" lon="5.43909">
        <ele>1299.2</ele>
        <time>2021-10-09T08:21:44Z</time>
      </trkpt>
      <trkpt lat="44.88824" lon="5.43911">
        <ele>1299.2</ele>
        <time>2021-10-09T08:21:45Z</time>
      </trkpt>
      <trkpt lat="44.88823" lon="5.43912">
        <ele>1299.2</ele>
        <time>2021-10-09T08:21:46Z</time>
      </trkpt>
      <trkpt lat="44.88821" lon="5.43915">
        <ele>1299.4</ele>
        <time>2021-10-09T08:21:47Z</time>
      </trkpt>
      <trkpt lat="44.8882" lon="5.43916">
        <ele>1299.4</ele>
        <time>2021-10-09T08:21:48Z</time>
      </trkpt>
      <trkpt lat="44.88818" lon="5.43918">
        <ele>1299.4</ele>
        <time>2021-10-09T08:21:49Z</time>
      </trkpt>
      <trkpt lat="44.88817" lon="5.4392">
        <ele>1299.4</ele>
        <time>2021-10-09T08:21:50Z</time>
      </trkpt>
      <trkpt lat="44.88816" lon="5.43921">
        <ele>1299.4</ele>
        <time>2021-10-09T08:21:51Z</time>
      </trkpt>
      <trkpt lat="44.88814" lon="5.43923">
        <ele>1299.4</ele>
        <time>2021-10-09T08:21:52Z</time>
      </trkpt>
      <trkpt lat="44.88812" lon="5.43925">
        <ele>1299.4</ele>
        <time>2021-10-09T08:21:53Z</time>
      </trkpt>
      <trkpt lat="44.88811" lon="5.43926">
        <ele>1299.4</ele>
        <time>2021-10-09T08:21:54Z</time>
      </trkpt>
      <trkpt lat="44.88809" lon="5.43927">
        <ele>1299.4</ele>
        <time>2021-10-09T08:21:55Z</time>
      </trkpt>
      <trkpt lat="44.88807" lon="5.43928">
        <ele>1299.4</ele>
        <time>2021-10-09T08:21:56Z</time>
      </trkpt>
      <trkpt lat="44.88805" lon="5.43929">
        <ele>1299.4</ele>
        <time>2021-10-09T08:21:57Z</time>
      </trkpt>
      <trkpt lat="44.88802" lon="5.4393">
        <ele>1299.4</ele>
        <time>2021-10-09T08:21:58Z</time>
      </trkpt>
      <trkpt lat="44.888" lon="5.4393">
        <ele>1299.4</ele>
        <time>2021-10-09T08:21:59Z</time>
      </trkpt>
      <trkpt lat="44.88798" lon="5.43931">
        <ele>1299.4</ele>
        <time>2021-10-09T08:22:00Z</time>
      </trkpt>
      <trkpt lat="44.88797" lon="5.43931">
        <ele>1299.4</ele>
        <time>2021-10-09T08:22:01Z</time>
      </trkpt>
      <trkpt lat="44.88794" lon="5.43931">
        <ele>1300</ele>
        <time>2021-10-09T08:22:02Z</time>
      </trkpt>
      <trkpt lat="44.88793" lon="5.43931">
        <ele>1300</ele>
        <time>2021-10-09T08:22:03Z</time>
      </trkpt>
      <trkpt lat="44.88791" lon="5.43931">
        <ele>1300</ele>
        <time>2021-10-09T08:22:04Z</time>
      </trkpt>
      <trkpt lat="44.88789" lon="5.43931">
        <ele>1300</ele>
        <time>2021-10-09T08:22:05Z</time>
      </trkpt>
      <trkpt lat="44.88788" lon="5.4393">
        <ele>1300</ele>
        <time>2021-10-09T08:22:06Z</time>
      </trkpt>
      <trkpt lat="44.88786" lon="5.43929">
        <ele>1300.2</ele>
        <time>2021-10-09T08:22:07Z</time>
      </trkpt>
      <trkpt lat="44.88785" lon="5.43928">
        <ele>1300.2</ele>
        <time>2021-10-09T08:22:08Z</time>
      </trkpt>
      <trkpt lat="44.88784" lon="5.43926">
        <ele>1300.2</ele>
        <time>2021-10-09T08:22:09Z</time>
      </trkpt>
      <trkpt lat="44.88782" lon="5.43926">
        <ele>1300.2</ele>
        <time>2021-10-09T08:22:10Z</time>
      </trkpt>
      <trkpt lat="44.8878" lon="5.43925">
        <ele>1300</ele>
        <time>2021-10-09T08:22:11Z</time>
      </trkpt>
      <trkpt lat="44.88777" lon="5.43924">
        <ele>1300</ele>
        <time>2021-10-09T08:22:12Z</time>
      </trkpt>
      <trkpt lat="44.88775" lon="5.43923">
        <ele>1300</ele>
        <time>2021-10-09T08:22:13Z</time>
      </trkpt>
      <trkpt lat="44.88772" lon="5.43922">
        <ele>1300.4</ele>
        <time>2021-10-09T08:22:14Z</time>
      </trkpt>
      <trkpt lat="44.8877" lon="5.43921">
        <ele>1300</ele>
        <time>2021-10-09T08:22:15Z</time>
      </trkpt>
      <trkpt lat="44.88768" lon="5.4392">
        <ele>1300</ele>
        <time>2021-10-09T08:22:16Z</time>
      </trkpt>
      <trkpt lat="44.88765" lon="5.43919">
        <ele>1300</ele>
        <time>2021-10-09T08:22:17Z</time>
      </trkpt>
      <trkpt lat="44.88763" lon="5.43917">
        <ele>1300.4</ele>
        <time>2021-10-09T08:22:18Z</time>
      </trkpt>
      <trkpt lat="44.8876" lon="5.43916">
        <ele>1300.2</ele>
        <time>2021-10-09T08:22:19Z</time>
      </trkpt>
      <trkpt lat="44.88758" lon="5.43914">
        <ele>1300.2</ele>
        <time>2021-10-09T08:22:20Z</time>
      </trkpt>
      <trkpt lat="44.88756" lon="5.43912">
        <ele>1300.2</ele>
        <time>2021-10-09T08:22:21Z</time>
      </trkpt>
      <trkpt lat="44.88754" lon="5.43911">
        <ele>1300.8</ele>
        <time>2021-10-09T08:22:22Z</time>
      </trkpt>
      <trkpt lat="44.88752" lon="5.4391">
        <ele>1300.4</ele>
        <time>2021-10-09T08:22:23Z</time>
      </trkpt>
      <trkpt lat="44.8875" lon="5.43908">
        <ele>1300.4</ele>
        <time>2021-10-09T08:22:24Z</time>
      </trkpt>
      <trkpt lat="44.88749" lon="5.43907">
        <ele>1300.4</ele>
        <time>2021-10-09T08:22:25Z</time>
      </trkpt>
      <trkpt lat="44.88747" lon="5.43906">
        <ele>1300.8</ele>
        <time>2021-10-09T08:22:26Z</time>
      </trkpt>
      <trkpt lat="44.88745" lon="5.43904">
        <ele>1300.6</ele>
        <time>2021-10-09T08:22:27Z</time>
      </trkpt>
      <trkpt lat="44.88744" lon="5.43901">
        <ele>1300.6</ele>
        <time>2021-10-09T08:22:28Z</time>
      </trkpt>
      <trkpt lat="44.88742" lon="5.43899">
        <ele>1300.6</ele>
        <time>2021-10-09T08:22:29Z</time>
      </trkpt>
      <trkpt lat="44.88741" lon="5.43897">
        <ele>1301.6</ele>
        <time>2021-10-09T08:22:30Z</time>
      </trkpt>
      <trkpt lat="44.88739" lon="5.43896">
        <ele>1301.6</ele>
        <time>2021-10-09T08:22:31Z</time>
      </trkpt>
      <trkpt lat="44.88738" lon="5.43894">
        <ele>1301.6</ele>
        <time>2021-10-09T08:22:32Z</time>
      </trkpt>
      <trkpt lat="44.88736" lon="5.43893">
        <ele>1301.6</ele>
        <time>2021-10-09T08:22:33Z</time>
      </trkpt>
      <trkpt lat="44.88734" lon="5.43892">
        <ele>1301.6</ele>
        <time>2021-10-09T08:22:34Z</time>
      </trkpt>
      <trkpt lat="44.88732" lon="5.43891">
        <ele>1302</ele>
        <time>2021-10-09T08:22:35Z</time>
      </trkpt>
      <trkpt lat="44.88731" lon="5.4389">
        <ele>1302</ele>
        <time>2021-10-09T08:22:36Z</time>
      </trkpt>
      <trkpt lat="44.88728" lon="5.43888">
        <ele>1302</ele>
        <time>2021-10-09T08:22:37Z</time>
      </trkpt>
      <trkpt lat="44.88727" lon="5.43886">
        <ele>1302.8</ele>
        <time>2021-10-09T08:22:38Z</time>
      </trkpt>
      <trkpt lat="44.88725" lon="5.43884">
        <ele>1302.6</ele>
        <time>2021-10-09T08:22:39Z</time>
      </trkpt>
      <trkpt lat="44.88723" lon="5.43882">
        <ele>1302.6</ele>
        <time>2021-10-09T08:22:40Z</time>
      </trkpt>
      <trkpt lat="44.8872" lon="5.43879">
        <ele>1302.6</ele>
        <time>2021-10-09T08:22:41Z</time>
      </trkpt>
      <trkpt lat="44.88718" lon="5.43877">
        <ele>1303.6</ele>
        <time>2021-10-09T08:22:42Z</time>
      </trkpt>
      <trkpt lat="44.88717" lon="5.43875">
        <ele>1304</ele>
        <time>2021-10-09T08:22:43Z</time>
      </trkpt>
      <trkpt lat="44.88715" lon="5.43872">
        <ele>1304</ele>
        <time>2021-10-09T08:22:44Z</time>
      </trkpt>
      <trkpt lat="44.88713" lon="5.4387">
        <ele>1304</ele>
        <time>2021-10-09T08:22:45Z</time>
      </trkpt>
      <trkpt lat="44.88711" lon="5.43868">
        <ele>1304</ele>
        <time>2021-10-09T08:22:46Z</time>
      </trkpt>
      <trkpt lat="44.88709" lon="5.43865">
        <ele>1304.4</ele>
        <time>2021-10-09T08:22:47Z</time>
      </trkpt>
      <trkpt lat="44.88708" lon="5.43863">
        <ele>1304.4</ele>
        <time>2021-10-09T08:22:48Z</time>
      </trkpt>
      <trkpt lat="44.88708" lon="5.43861">
        <ele>1304.4</ele>
        <time>2021-10-09T08:22:49Z</time>
      </trkpt>
      <trkpt lat="44.88706" lon="5.43859">
        <ele>1304.4</ele>
        <time>2021-10-09T08:22:50Z</time>
      </trkpt>
      <trkpt lat="44.88706" lon="5.43857">
        <ele>1304.6</ele>
        <time>2021-10-09T08:22:51Z</time>
      </trkpt>
      <trkpt lat="44.88704" lon="5.43854">
        <ele>1304.6</ele>
        <time>2021-10-09T08:22:52Z</time>
      </trkpt>
      <trkpt lat="44.88703" lon="5.43851">
        <ele>1304.6</ele>
        <time>2021-10-09T08:22:53Z</time>
      </trkpt>
      <trkpt lat="44.88703" lon="5.43849">
        <ele>1305.4</ele>
        <time>2021-10-09T08:22:54Z</time>
      </trkpt>
      <trkpt lat="44.88702" lon="5.43845">
        <ele>1305.6</ele>
        <time>2021-10-09T08:22:55Z</time>
      </trkpt>
      <trkpt lat="44.88702" lon="5.43843">
        <ele>1305.6</ele>
        <time>2021-10-09T08:22:56Z</time>
      </trkpt>
      <trkpt lat="44.88702" lon="5.4384">
        <ele>1305.6</ele>
        <time>2021-10-09T08:22:57Z</time>
      </trkpt>
      <trkpt lat="44.88702" lon="5.43837">
        <ele>1306</ele>
        <time>2021-10-09T08:22:58Z</time>
      </trkpt>
      <trkpt lat="44.88702" lon="5.43835">
        <ele>1306.4</ele>
        <time>2021-10-09T08:22:59Z</time>
      </trkpt>
      <trkpt lat="44.88702" lon="5.43832">
        <ele>1306.4</ele>
        <time>2021-10-09T08:23:00Z</time>
      </trkpt>
      <trkpt lat="44.88701" lon="5.43829">
        <ele>1306.4</ele>
        <time>2021-10-09T08:23:01Z</time>
      </trkpt>
      <trkpt lat="44.88701" lon="5.43826">
        <ele>1306.4</ele>
        <time>2021-10-09T08:23:02Z</time>
      </trkpt>
      <trkpt lat="44.88702" lon="5.43824">
        <ele>1306.4</ele>
        <time>2021-10-09T08:23:03Z</time>
      </trkpt>
      <trkpt lat="44.88702" lon="5.43822">
        <ele>1306.4</ele>
        <time>2021-10-09T08:23:04Z</time>
      </trkpt>
      <trkpt lat="44.88702" lon="5.4382">
        <ele>1306.4</ele>
        <time>2021-10-09T08:23:05Z</time>
      </trkpt>
      <trkpt lat="44.88703" lon="5.43817">
        <ele>1307.2</ele>
        <time>2021-10-09T08:23:06Z</time>
      </trkpt>
      <trkpt lat="44.88704" lon="5.43815">
        <ele>1307.2</ele>
        <time>2021-10-09T08:23:07Z</time>
      </trkpt>
      <trkpt lat="44.88705" lon="5.43813">
        <ele>1307.2</ele>
        <time>2021-10-09T08:23:08Z</time>
      </trkpt>
      <trkpt lat="44.88705" lon="5.43811">
        <ele>1307.2</ele>
        <time>2021-10-09T08:23:09Z</time>
      </trkpt>
      <trkpt lat="44.88706" lon="5.43809">
        <ele>1307.6</ele>
        <time>2021-10-09T08:23:10Z</time>
      </trkpt>
      <trkpt lat="44.88705" lon="5.43806">
        <ele>1308</ele>
        <time>2021-10-09T08:23:11Z</time>
      </trkpt>
      <trkpt lat="44.88705" lon="5.43803">
        <ele>1308</ele>
        <time>2021-10-09T08:23:12Z</time>
      </trkpt>
      <trkpt lat="44.88705" lon="5.43801">
        <ele>1308</ele>
        <time>2021-10-09T08:23:13Z</time>
      </trkpt>
      <trkpt lat="44.88706" lon="5.43798">
        <ele>1308</ele>
        <time>2021-10-09T08:23:14Z</time>
      </trkpt>
      <trkpt lat="44.88705" lon="5.43796">
        <ele>1308.4</ele>
        <time>2021-10-09T08:23:15Z</time>
      </trkpt>
      <trkpt lat="44.88706" lon="5.43794">
        <ele>1308.4</ele>
        <time>2021-10-09T08:23:16Z</time>
      </trkpt>
      <trkpt lat="44.88706" lon="5.43791">
        <ele>1308.4</ele>
        <time>2021-10-09T08:23:17Z</time>
      </trkpt>
      <trkpt lat="44.88706" lon="5.43788">
        <ele>1308.6</ele>
        <time>2021-10-09T08:23:18Z</time>
      </trkpt>
      <trkpt lat="44.88707" lon="5.43786">
        <ele>1308.8</ele>
        <time>2021-10-09T08:23:19Z</time>
      </trkpt>
      <trkpt lat="44.88708" lon="5.43783">
        <ele>1308.8</ele>
        <time>2021-10-09T08:23:20Z</time>
      </trkpt>
      <trkpt lat="44.88708" lon="5.43781">
        <ele>1308.8</ele>
        <time>2021-10-09T08:23:21Z</time>
      </trkpt>
      <trkpt lat="44.88709" lon="5.43779">
        <ele>1308.8</ele>
        <time>2021-10-09T08:23:22Z</time>
      </trkpt>
      <trkpt lat="44.88709" lon="5.43776">
        <ele>1309.2</ele>
        <time>2021-10-09T08:23:23Z</time>
      </trkpt>
      <trkpt lat="44.88709" lon="5.43773">
        <ele>1309.2</ele>
        <time>2021-10-09T08:23:24Z</time>
      </trkpt>
      <trkpt lat="44.88709" lon="5.43771">
        <ele>1309.2</ele>
        <time>2021-10-09T08:23:25Z</time>
      </trkpt>
      <trkpt lat="44.88709" lon="5.43768">
        <ele>1309.2</ele>
        <time>2021-10-09T08:23:26Z</time>
      </trkpt>
      <trkpt lat="44.88709" lon="5.43767">
        <ele>1309.4</ele>
        <time>2021-10-09T08:23:27Z</time>
      </trkpt>
      <trkpt lat="44.88708" lon="5.43765">
        <ele>1309.4</ele>
        <time>2021-10-09T08:23:28Z</time>
      </trkpt>
      <trkpt lat="44.88708" lon="5.43762">
        <ele>1309.4</ele>
        <time>2021-10-09T08:23:29Z</time>
      </trkpt>
      <trkpt lat="44.88707" lon="5.4376">
        <ele>1309.8</ele>
        <time>2021-10-09T08:23:30Z</time>
      </trkpt>
      <trkpt lat="44.88706" lon="5.43758">
        <ele>1309.8</ele>
        <time>2021-10-09T08:23:31Z</time>
      </trkpt>
      <trkpt lat="44.88705" lon="5.43755">
        <ele>1309.8</ele>
        <time>2021-10-09T08:23:32Z</time>
      </trkpt>
      <trkpt lat="44.88703" lon="5.43753">
        <ele>1309.8</ele>
        <time>2021-10-09T08:23:33Z</time>
      </trkpt>
      <trkpt lat="44.88702" lon="5.43751">
        <ele>1310.2</ele>
        <time>2021-10-09T08:23:34Z</time>
      </trkpt>
      <trkpt lat="44.887" lon="5.43749">
        <ele>1310.4</ele>
        <time>2021-10-09T08:23:35Z</time>
      </trkpt>
      <trkpt lat="44.88698" lon="5.43748">
        <ele>1310.4</ele>
        <time>2021-10-09T08:23:36Z</time>
      </trkpt>
      <trkpt lat="44.88696" lon="5.43747">
        <ele>1310.4</ele>
        <time>2021-10-09T08:23:37Z</time>
      </trkpt>
      <trkpt lat="44.88695" lon="5.43746">
        <ele>1310.4</ele>
        <time>2021-10-09T08:23:38Z</time>
      </trkpt>
      <trkpt lat="44.88693" lon="5.43744">
        <ele>1310.8</ele>
        <time>2021-10-09T08:23:39Z</time>
      </trkpt>
      <trkpt lat="44.88692" lon="5.43744">
        <ele>1310.8</ele>
        <time>2021-10-09T08:23:40Z</time>
      </trkpt>
      <trkpt lat="44.8869" lon="5.43743">
        <ele>1310.8</ele>
        <time>2021-10-09T08:23:41Z</time>
      </trkpt>
      <trkpt lat="44.88688" lon="5.43742">
        <ele>1311.8</ele>
        <time>2021-10-09T08:23:42Z</time>
      </trkpt>
      <trkpt lat="44.88686" lon="5.4374">
        <ele>1312.2</ele>
        <time>2021-10-09T08:23:43Z</time>
      </trkpt>
      <trkpt lat="44.88684" lon="5.43739">
        <ele>1312.2</ele>
        <time>2021-10-09T08:23:44Z</time>
      </trkpt>
      <trkpt lat="44.88682" lon="5.43738">
        <ele>1312.2</ele>
        <time>2021-10-09T08:23:45Z</time>
      </trkpt>
      <trkpt lat="44.8868" lon="5.43737">
        <ele>1312.2</ele>
        <time>2021-10-09T08:23:46Z</time>
      </trkpt>
      <trkpt lat="44.88678" lon="5.43736">
        <ele>1312.4</ele>
        <time>2021-10-09T08:23:47Z</time>
      </trkpt>
      <trkpt lat="44.88677" lon="5.43735">
        <ele>1312.4</ele>
        <time>2021-10-09T08:23:48Z</time>
      </trkpt>
      <trkpt lat="44.88675" lon="5.43734">
        <ele>1312.4</ele>
        <time>2021-10-09T08:23:49Z</time>
      </trkpt>
      <trkpt lat="44.88673" lon="5.43733">
        <ele>1312.8</ele>
        <time>2021-10-09T08:23:50Z</time>
      </trkpt>
      <trkpt lat="44.88672" lon="5.43733">
        <ele>1313</ele>
        <time>2021-10-09T08:23:51Z</time>
      </trkpt>
      <trkpt lat="44.8867" lon="5.43732">
        <ele>1313</ele>
        <time>2021-10-09T08:23:52Z</time>
      </trkpt>
      <trkpt lat="44.88668" lon="5.43731">
        <ele>1313</ele>
        <time>2021-10-09T08:23:53Z</time>
      </trkpt>
      <trkpt lat="44.88666" lon="5.4373">
        <ele>1313</ele>
        <time>2021-10-09T08:23:54Z</time>
      </trkpt>
      <trkpt lat="44.88664" lon="5.4373">
        <ele>1313.4</ele>
        <time>2021-10-09T08:23:55Z</time>
      </trkpt>
      <trkpt lat="44.88662" lon="5.43729">
        <ele>1313.4</ele>
        <time>2021-10-09T08:23:56Z</time>
      </trkpt>
      <trkpt lat="44.8866" lon="5.43728">
        <ele>1313.4</ele>
        <time>2021-10-09T08:23:57Z</time>
      </trkpt>
      <trkpt lat="44.88658" lon="5.43727">
        <ele>1313.4</ele>
        <time>2021-10-09T08:23:58Z</time>
      </trkpt>
      <trkpt lat="44.88657" lon="5.43726">
        <ele>1313.8</ele>
        <time>2021-10-09T08:23:59Z</time>
      </trkpt>
      <trkpt lat="44.88655" lon="5.43725">
        <ele>1313.8</ele>
        <time>2021-10-09T08:24:00Z</time>
      </trkpt>
      <trkpt lat="44.88653" lon="5.43724">
        <ele>1313.8</ele>
        <time>2021-10-09T08:24:01Z</time>
      </trkpt>
      <trkpt lat="44.88651" lon="5.43723">
        <ele>1314.4</ele>
        <time>2021-10-09T08:24:02Z</time>
      </trkpt>
      <trkpt lat="44.88649" lon="5.43723">
        <ele>1314.6</ele>
        <time>2021-10-09T08:24:03Z</time>
      </trkpt>
      <trkpt lat="44.88648" lon="5.43722">
        <ele>1314.6</ele>
        <time>2021-10-09T08:24:04Z</time>
      </trkpt>
      <trkpt lat="44.88646" lon="5.43721">
        <ele>1314.6</ele>
        <time>2021-10-09T08:24:05Z</time>
      </trkpt>
      <trkpt lat="44.88644" lon="5.4372">
        <ele>1315.2</ele>
        <time>2021-10-09T08:24:06Z</time>
      </trkpt>
      <trkpt lat="44.88643" lon="5.43719">
        <ele>1315.6</ele>
        <time>2021-10-09T08:24:07Z</time>
      </trkpt>
      <trkpt lat="44.88641" lon="5.43718">
        <ele>1315.6</ele>
        <time>2021-10-09T08:24:08Z</time>
      </trkpt>
      <trkpt lat="44.88639" lon="5.43718">
        <ele>1315.6</ele>
        <time>2021-10-09T08:24:09Z</time>
      </trkpt>
      <trkpt lat="44.88638" lon="5.43717">
        <ele>1315.6</ele>
        <time>2021-10-09T08:24:10Z</time>
      </trkpt>
      <trkpt lat="44.88636" lon="5.43716">
        <ele>1315.8</ele>
        <time>2021-10-09T08:24:11Z</time>
      </trkpt>
      <trkpt lat="44.88635" lon="5.43716">
        <ele>1315.8</ele>
        <time>2021-10-09T08:24:12Z</time>
      </trkpt>
      <trkpt lat="44.88633" lon="5.43715">
        <ele>1315.8</ele>
        <time>2021-10-09T08:24:13Z</time>
      </trkpt>
      <trkpt lat="44.88632" lon="5.43715">
        <ele>1315.8</ele>
        <time>2021-10-09T08:24:14Z</time>
      </trkpt>
      <trkpt lat="44.8863" lon="5.43715">
        <ele>1316.4</ele>
        <time>2021-10-09T08:24:15Z</time>
      </trkpt>
      <trkpt lat="44.88629" lon="5.43715">
        <ele>1316.4</ele>
        <time>2021-10-09T08:24:16Z</time>
      </trkpt>
      <trkpt lat="44.88627" lon="5.43715">
        <ele>1316.4</ele>
        <time>2021-10-09T08:24:17Z</time>
      </trkpt>
      <trkpt lat="44.88626" lon="5.43715">
        <ele>1316.4</ele>
        <time>2021-10-09T08:24:18Z</time>
      </trkpt>
      <trkpt lat="44.88624" lon="5.43716">
        <ele>1316.8</ele>
        <time>2021-10-09T08:24:19Z</time>
      </trkpt>
      <trkpt lat="44.88622" lon="5.43716">
        <ele>1316.8</ele>
        <time>2021-10-09T08:24:20Z</time>
      </trkpt>
      <trkpt lat="44.88621" lon="5.43716">
        <ele>1316.8</ele>
        <time>2021-10-09T08:24:21Z</time>
      </trkpt>
      <trkpt lat="44.88619" lon="5.43718">
        <ele>1317.4</ele>
        <time>2021-10-09T08:24:22Z</time>
      </trkpt>
      <trkpt lat="44.88618" lon="5.43719">
        <ele>1317.6</ele>
        <time>2021-10-09T08:24:23Z</time>
      </trkpt>
      <trkpt lat="44.88617" lon="5.4372">
        <ele>1317.6</ele>
        <time>2021-10-09T08:24:24Z</time>
      </trkpt>
      <trkpt lat="44.88615" lon="5.43722">
        <ele>1317.6</ele>
        <time>2021-10-09T08:24:25Z</time>
      </trkpt>
      <trkpt lat="44.88614" lon="5.43724">
        <ele>1317.6</ele>
        <time>2021-10-09T08:24:26Z</time>
      </trkpt>
      <trkpt lat="44.88614" lon="5.43726">
        <ele>1318</ele>
        <time>2021-10-09T08:24:27Z</time>
      </trkpt>
      <trkpt lat="44.88614" lon="5.43728">
        <ele>1318</ele>
        <time>2021-10-09T08:24:28Z</time>
      </trkpt>
      <trkpt lat="44.88614" lon="5.43731">
        <ele>1318</ele>
        <time>2021-10-09T08:24:29Z</time>
      </trkpt>
      <trkpt lat="44.88614" lon="5.43733">
        <ele>1318</ele>
        <time>2021-10-09T08:24:30Z</time>
      </trkpt>
      <trkpt lat="44.88615" lon="5.43736">
        <ele>1318.6</ele>
        <time>2021-10-09T08:24:31Z</time>
      </trkpt>
      <trkpt lat="44.88615" lon="5.43738">
        <ele>1318.6</ele>
        <time>2021-10-09T08:24:32Z</time>
      </trkpt>
      <trkpt lat="44.88617" lon="5.4374">
        <ele>1318.6</ele>
        <time>2021-10-09T08:24:33Z</time>
      </trkpt>
      <trkpt lat="44.88618" lon="5.43741">
        <ele>1318.8</ele>
        <time>2021-10-09T08:24:34Z</time>
      </trkpt>
      <trkpt lat="44.88619" lon="5.43743">
        <ele>1319.2</ele>
        <time>2021-10-09T08:24:35Z</time>
      </trkpt>
      <trkpt lat="44.8862" lon="5.43746">
        <ele>1319.2</ele>
        <time>2021-10-09T08:24:36Z</time>
      </trkpt>
      <trkpt lat="44.88621" lon="5.43747">
        <ele>1319.2</ele>
        <time>2021-10-09T08:24:37Z</time>
      </trkpt>
      <trkpt lat="44.88622" lon="5.43749">
        <ele>1319.4</ele>
        <time>2021-10-09T08:24:38Z</time>
      </trkpt>
      <trkpt lat="44.88623" lon="5.43751">
        <ele>1319.8</ele>
        <time>2021-10-09T08:24:39Z</time>
      </trkpt>
      <trkpt lat="44.88623" lon="5.43753">
        <ele>1319.8</ele>
        <time>2021-10-09T08:24:40Z</time>
      </trkpt>
      <trkpt lat="44.88625" lon="5.43754">
        <ele>1319.8</ele>
        <time>2021-10-09T08:24:41Z</time>
      </trkpt>
      <trkpt lat="44.88626" lon="5.43757">
        <ele>1320.4</ele>
        <time>2021-10-09T08:24:42Z</time>
      </trkpt>
      <trkpt lat="44.88627" lon="5.43759">
        <ele>1320.4</ele>
        <time>2021-10-09T08:24:43Z</time>
      </trkpt>
      <trkpt lat="44.88628" lon="5.4376">
        <ele>1320.4</ele>
        <time>2021-10-09T08:24:44Z</time>
      </trkpt>
      <trkpt lat="44.88629" lon="5.43762">
        <ele>1320.4</ele>
        <time>2021-10-09T08:24:45Z</time>
      </trkpt>
      <trkpt lat="44.8863" lon="5.43764">
        <ele>1320.6</ele>
        <time>2021-10-09T08:24:46Z</time>
      </trkpt>
      <trkpt lat="44.88631" lon="5.43766">
        <ele>1320.8</ele>
        <time>2021-10-09T08:24:47Z</time>
      </trkpt>
      <trkpt lat="44.88631" lon="5.43768">
        <ele>1320.8</ele>
        <time>2021-10-09T08:24:48Z</time>
      </trkpt>
      <trkpt lat="44.88632" lon="5.4377">
        <ele>1320.8</ele>
        <time>2021-10-09T08:24:49Z</time>
      </trkpt>
      <trkpt lat="44.88633" lon="5.43772">
        <ele>1321.2</ele>
        <time>2021-10-09T08:24:50Z</time>
      </trkpt>
      <trkpt lat="44.88633" lon="5.43774">
        <ele>1321.4</ele>
        <time>2021-10-09T08:24:51Z</time>
      </trkpt>
      <trkpt lat="44.88634" lon="5.43776">
        <ele>1321.4</ele>
        <time>2021-10-09T08:24:52Z</time>
      </trkpt>
      <trkpt lat="44.88635" lon="5.43779">
        <ele>1321.4</ele>
        <time>2021-10-09T08:24:53Z</time>
      </trkpt>
      <trkpt lat="44.88636" lon="5.43781">
        <ele>1321.8</ele>
        <time>2021-10-09T08:24:54Z</time>
      </trkpt>
      <trkpt lat="44.88637" lon="5.43783">
        <ele>1322</ele>
        <time>2021-10-09T08:24:55Z</time>
      </trkpt>
      <trkpt lat="44.88639" lon="5.43785">
        <ele>1322</ele>
        <time>2021-10-09T08:24:56Z</time>
      </trkpt>
      <trkpt lat="44.8864" lon="5.43787">
        <ele>1322</ele>
        <time>2021-10-09T08:24:57Z</time>
      </trkpt>
      <trkpt lat="44.88642" lon="5.43788">
        <ele>1322.6</ele>
        <time>2021-10-09T08:24:58Z</time>
      </trkpt>
      <trkpt lat="44.88643" lon="5.4379">
        <ele>1323</ele>
        <time>2021-10-09T08:24:59Z</time>
      </trkpt>
      <trkpt lat="44.88643" lon="5.43793">
        <ele>1323</ele>
        <time>2021-10-09T08:25:00Z</time>
      </trkpt>
      <trkpt lat="44.88644" lon="5.43794">
        <ele>1323</ele>
        <time>2021-10-09T08:25:01Z</time>
      </trkpt>
      <trkpt lat="44.88645" lon="5.43796">
        <ele>1323</ele>
        <time>2021-10-09T08:25:02Z</time>
      </trkpt>
      <trkpt lat="44.88646" lon="5.43798">
        <ele>1323.6</ele>
        <time>2021-10-09T08:25:03Z</time>
      </trkpt>
      <trkpt lat="44.88647" lon="5.438">
        <ele>1323.6</ele>
        <time>2021-10-09T08:25:04Z</time>
      </trkpt>
      <trkpt lat="44.88648" lon="5.43802">
        <ele>1323.6</ele>
        <time>2021-10-09T08:25:05Z</time>
      </trkpt>
      <trkpt lat="44.88649" lon="5.43804">
        <ele>1323.6</ele>
        <time>2021-10-09T08:25:06Z</time>
      </trkpt>
      <trkpt lat="44.8865" lon="5.43805">
        <ele>1324</ele>
        <time>2021-10-09T08:25:07Z</time>
      </trkpt>
      <trkpt lat="44.88651" lon="5.43807">
        <ele>1324</ele>
        <time>2021-10-09T08:25:08Z</time>
      </trkpt>
      <trkpt lat="44.88652" lon="5.43809">
        <ele>1324</ele>
        <time>2021-10-09T08:25:09Z</time>
      </trkpt>
      <trkpt lat="44.88652" lon="5.43811">
        <ele>1324</ele>
        <time>2021-10-09T08:25:10Z</time>
      </trkpt>
      <trkpt lat="44.88653" lon="5.43813">
        <ele>1324.6</ele>
        <time>2021-10-09T08:25:11Z</time>
      </trkpt>
      <trkpt lat="44.88654" lon="5.43815">
        <ele>1324.6</ele>
        <time>2021-10-09T08:25:12Z</time>
      </trkpt>
      <trkpt lat="44.88654" lon="5.43818">
        <ele>1324.6</ele>
        <time>2021-10-09T08:25:13Z</time>
      </trkpt>
      <trkpt lat="44.88655" lon="5.4382">
        <ele>1324.6</ele>
        <time>2021-10-09T08:25:14Z</time>
      </trkpt>
      <trkpt lat="44.88656" lon="5.43822">
        <ele>1325</ele>
        <time>2021-10-09T08:25:15Z</time>
      </trkpt>
      <trkpt lat="44.88656" lon="5.43825">
        <ele>1325</ele>
        <time>2021-10-09T08:25:16Z</time>
      </trkpt>
      <trkpt lat="44.88657" lon="5.43827">
        <ele>1325</ele>
        <time>2021-10-09T08:25:17Z</time>
      </trkpt>
      <trkpt lat="44.88658" lon="5.4383">
        <ele>1325.6</ele>
        <time>2021-10-09T08:25:18Z</time>
      </trkpt>
      <trkpt lat="44.88658" lon="5.43832">
        <ele>1325.6</ele>
        <time>2021-10-09T08:25:19Z</time>
      </trkpt>
      <trkpt lat="44.88658" lon="5.43834">
        <ele>1325.6</ele>
        <time>2021-10-09T08:25:20Z</time>
      </trkpt>
      <trkpt lat="44.88659" lon="5.43837">
        <ele>1325.6</ele>
        <time>2021-10-09T08:25:21Z</time>
      </trkpt>
      <trkpt lat="44.88659" lon="5.43839">
        <ele>1325.6</ele>
        <time>2021-10-09T08:25:22Z</time>
      </trkpt>
      <trkpt lat="44.88659" lon="5.43841">
        <ele>1326.6</ele>
        <time>2021-10-09T08:25:23Z</time>
      </trkpt>
      <trkpt lat="44.88659" lon="5.43843">
        <ele>1326.6</ele>
        <time>2021-10-09T08:25:24Z</time>
      </trkpt>
      <trkpt lat="44.8866" lon="5.43845">
        <ele>1326.6</ele>
        <time>2021-10-09T08:25:25Z</time>
      </trkpt>
      <trkpt lat="44.8866" lon="5.43848">
        <ele>1326.6</ele>
        <time>2021-10-09T08:25:26Z</time>
      </trkpt>
      <trkpt lat="44.88661" lon="5.4385">
        <ele>1326.8</ele>
        <time>2021-10-09T08:25:27Z</time>
      </trkpt>
      <trkpt lat="44.88661" lon="5.43853">
        <ele>1326.8</ele>
        <time>2021-10-09T08:25:28Z</time>
      </trkpt>
      <trkpt lat="44.88662" lon="5.43855">
        <ele>1326.8</ele>
        <time>2021-10-09T08:25:29Z</time>
      </trkpt>
      <trkpt lat="44.88662" lon="5.43857">
        <ele>1327.6</ele>
        <time>2021-10-09T08:25:30Z</time>
      </trkpt>
      <trkpt lat="44.88663" lon="5.43858">
        <ele>1327.6</ele>
        <time>2021-10-09T08:25:31Z</time>
      </trkpt>
      <trkpt lat="44.88664" lon="5.4386">
        <ele>1327.6</ele>
        <time>2021-10-09T08:25:32Z</time>
      </trkpt>
      <trkpt lat="44.88665" lon="5.43863">
        <ele>1327.6</ele>
        <time>2021-10-09T08:25:33Z</time>
      </trkpt>
      <trkpt lat="44.88665" lon="5.43865">
        <ele>1327.6</ele>
        <time>2021-10-09T08:25:34Z</time>
      </trkpt>
      <trkpt lat="44.88666" lon="5.43867">
        <ele>1328.2</ele>
        <time>2021-10-09T08:25:35Z</time>
      </trkpt>
      <trkpt lat="44.88666" lon="5.4387">
        <ele>1328.2</ele>
        <time>2021-10-09T08:25:36Z</time>
      </trkpt>
      <trkpt lat="44.88667" lon="5.43872">
        <ele>1328.2</ele>
        <time>2021-10-09T08:25:37Z</time>
      </trkpt>
      <trkpt lat="44.88667" lon="5.43875">
        <ele>1328.8</ele>
        <time>2021-10-09T08:25:38Z</time>
      </trkpt>
      <trkpt lat="44.88668" lon="5.43877">
        <ele>1328.8</ele>
        <time>2021-10-09T08:25:39Z</time>
      </trkpt>
      <trkpt lat="44.88668" lon="5.43879">
        <ele>1328.8</ele>
        <time>2021-10-09T08:25:40Z</time>
      </trkpt>
      <trkpt lat="44.88668" lon="5.43881">
        <ele>1328.8</ele>
        <time>2021-10-09T08:25:41Z</time>
      </trkpt>
      <trkpt lat="44.88668" lon="5.43883">
        <ele>1328.8</ele>
        <time>2021-10-09T08:25:42Z</time>
      </trkpt>
      <trkpt lat="44.88667" lon="5.43885">
        <ele>1329</ele>
        <time>2021-10-09T08:25:43Z</time>
      </trkpt>
      <trkpt lat="44.88667" lon="5.43887">
        <ele>1329</ele>
        <time>2021-10-09T08:25:44Z</time>
      </trkpt>
      <trkpt lat="44.88667" lon="5.43889">
        <ele>1329</ele>
        <time>2021-10-09T08:25:45Z</time>
      </trkpt>
      <trkpt lat="44.88667" lon="5.43891">
        <ele>1330</ele>
        <time>2021-10-09T08:25:46Z</time>
      </trkpt>
      <trkpt lat="44.88666" lon="5.43892">
        <ele>1330</ele>
        <time>2021-10-09T08:25:47Z</time>
      </trkpt>
      <trkpt lat="44.88666" lon="5.43894">
        <ele>1330</ele>
        <time>2021-10-09T08:25:48Z</time>
      </trkpt>
      <trkpt lat="44.88665" lon="5.43897">
        <ele>1330</ele>
        <time>2021-10-09T08:25:49Z</time>
      </trkpt>
      <trkpt lat="44.88665" lon="5.43899">
        <ele>1330</ele>
        <time>2021-10-09T08:25:50Z</time>
      </trkpt>
      <trkpt lat="44.88664" lon="5.43901">
        <ele>1330.2</ele>
        <time>2021-10-09T08:25:51Z</time>
      </trkpt>
      <trkpt lat="44.88664" lon="5.43903">
        <ele>1330.2</ele>
        <time>2021-10-09T08:25:52Z</time>
      </trkpt>
      <trkpt lat="44.88664" lon="5.43906">
        <ele>1330.2</ele>
        <time>2021-10-09T08:25:53Z</time>
      </trkpt>
      <trkpt lat="44.88664" lon="5.43908">
        <ele>1330.8</ele>
        <time>2021-10-09T08:25:54Z</time>
      </trkpt>
      <trkpt lat="44.88664" lon="5.43911">
        <ele>1331.2</ele>
        <time>2021-10-09T08:25:55Z</time>
      </trkpt>
      <trkpt lat="44.88664" lon="5.43913">
        <ele>1331.2</ele>
        <time>2021-10-09T08:25:56Z</time>
      </trkpt>
      <trkpt lat="44.88663" lon="5.43916">
        <ele>1331.2</ele>
        <time>2021-10-09T08:25:57Z</time>
      </trkpt>
      <trkpt lat="44.88663" lon="5.43918">
        <ele>1331</ele>
        <time>2021-10-09T08:25:58Z</time>
      </trkpt>
      <trkpt lat="44.88663" lon="5.4392">
        <ele>1331.4</ele>
        <time>2021-10-09T08:25:59Z</time>
      </trkpt>
      <trkpt lat="44.88662" lon="5.43921">
        <ele>1331.4</ele>
        <time>2021-10-09T08:26:00Z</time>
      </trkpt>
      <trkpt lat="44.88662" lon="5.43924">
        <ele>1331.4</ele>
        <time>2021-10-09T08:26:01Z</time>
      </trkpt>
      <trkpt lat="44.88662" lon="5.43926">
        <ele>1332.2</ele>
        <time>2021-10-09T08:26:02Z</time>
      </trkpt>
      <trkpt lat="44.88661" lon="5.43929">
        <ele>1332.6</ele>
        <time>2021-10-09T08:26:03Z</time>
      </trkpt>
      <trkpt lat="44.88662" lon="5.43931">
        <ele>1332.6</ele>
        <time>2021-10-09T08:26:04Z</time>
      </trkpt>
      <trkpt lat="44.88662" lon="5.43934">
        <ele>1332.6</ele>
        <time>2021-10-09T08:26:05Z</time>
      </trkpt>
      <trkpt lat="44.88662" lon="5.43936">
        <ele>1332.6</ele>
        <time>2021-10-09T08:26:06Z</time>
      </trkpt>
      <trkpt lat="44.88662" lon="5.43938">
        <ele>1333.4</ele>
        <time>2021-10-09T08:26:07Z</time>
      </trkpt>
      <trkpt lat="44.88661" lon="5.4394">
        <ele>1333.4</ele>
        <time>2021-10-09T08:26:08Z</time>
      </trkpt>
      <trkpt lat="44.88662" lon="5.43942">
        <ele>1333.4</ele>
        <time>2021-10-09T08:26:09Z</time>
      </trkpt>
      <trkpt lat="44.88662" lon="5.43945">
        <ele>1333.4</ele>
        <time>2021-10-09T08:26:10Z</time>
      </trkpt>
      <trkpt lat="44.88662" lon="5.43947">
        <ele>1333.8</ele>
        <time>2021-10-09T08:26:11Z</time>
      </trkpt>
      <trkpt lat="44.88662" lon="5.43949">
        <ele>1333.8</ele>
        <time>2021-10-09T08:26:12Z</time>
      </trkpt>
      <trkpt lat="44.88662" lon="5.43952">
        <ele>1333.8</ele>
        <time>2021-10-09T08:26:13Z</time>
      </trkpt>
      <trkpt lat="44.88662" lon="5.43954">
        <ele>1334.6</ele>
        <time>2021-10-09T08:26:14Z</time>
      </trkpt>
      <trkpt lat="44.88663" lon="5.43956">
        <ele>1335</ele>
        <time>2021-10-09T08:26:15Z</time>
      </trkpt>
      <trkpt lat="44.88663" lon="5.43959">
        <ele>1335</ele>
        <time>2021-10-09T08:26:16Z</time>
      </trkpt>
      <trkpt lat="44.88663" lon="5.43961">
        <ele>1335</ele>
        <time>2021-10-09T08:26:17Z</time>
      </trkpt>
      <trkpt lat="44.88663" lon="5.43963">
        <ele>1335</ele>
        <time>2021-10-09T08:26:18Z</time>
      </trkpt>
      <trkpt lat="44.88662" lon="5.43965">
        <ele>1335.4</ele>
        <time>2021-10-09T08:26:19Z</time>
      </trkpt>
      <trkpt lat="44.88662" lon="5.43967">
        <ele>1335.4</ele>
        <time>2021-10-09T08:26:20Z</time>
      </trkpt>
      <trkpt lat="44.88662" lon="5.43969">
        <ele>1335.4</ele>
        <time>2021-10-09T08:26:21Z</time>
      </trkpt>
      <trkpt lat="44.88661" lon="5.43972">
        <ele>1335.8</ele>
        <time>2021-10-09T08:26:22Z</time>
      </trkpt>
      <trkpt lat="44.8866" lon="5.43974">
        <ele>1335.8</ele>
        <time>2021-10-09T08:26:23Z</time>
      </trkpt>
      <trkpt lat="44.8866" lon="5.43976">
        <ele>1335.8</ele>
        <time>2021-10-09T08:26:24Z</time>
      </trkpt>
      <trkpt lat="44.88659" lon="5.43977">
        <ele>1335.8</ele>
        <time>2021-10-09T08:26:25Z</time>
      </trkpt>
      <trkpt lat="44.88658" lon="5.43979">
        <ele>1336.6</ele>
        <time>2021-10-09T08:26:26Z</time>
      </trkpt>
      <trkpt lat="44.88658" lon="5.43982">
        <ele>1336.4</ele>
        <time>2021-10-09T08:26:27Z</time>
      </trkpt>
      <trkpt lat="44.88657" lon="5.43984">
        <ele>1336.4</ele>
        <time>2021-10-09T08:26:28Z</time>
      </trkpt>
      <trkpt lat="44.88657" lon="5.43986">
        <ele>1336.4</ele>
        <time>2021-10-09T08:26:29Z</time>
      </trkpt>
      <trkpt lat="44.88656" lon="5.43988">
        <ele>1337.2</ele>
        <time>2021-10-09T08:26:30Z</time>
      </trkpt>
      <trkpt lat="44.88655" lon="5.4399">
        <ele>1337.2</ele>
        <time>2021-10-09T08:26:31Z</time>
      </trkpt>
      <trkpt lat="44.88655" lon="5.43992">
        <ele>1337.2</ele>
        <time>2021-10-09T08:26:32Z</time>
      </trkpt>
      <trkpt lat="44.88654" lon="5.43994">
        <ele>1337.2</ele>
        <time>2021-10-09T08:26:33Z</time>
      </trkpt>
      <trkpt lat="44.88654" lon="5.43996">
        <ele>1337.6</ele>
        <time>2021-10-09T08:26:34Z</time>
      </trkpt>
      <trkpt lat="44.88653" lon="5.43998">
        <ele>1337.6</ele>
        <time>2021-10-09T08:26:35Z</time>
      </trkpt>
      <trkpt lat="44.88652" lon="5.44">
        <ele>1337.6</ele>
        <time>2021-10-09T08:26:36Z</time>
      </trkpt>
      <trkpt lat="44.88652" lon="5.44002">
        <ele>1337.6</ele>
        <time>2021-10-09T08:26:37Z</time>
      </trkpt>
      <trkpt lat="44.8865" lon="5.44003">
        <ele>1338</ele>
        <time>2021-10-09T08:26:38Z</time>
      </trkpt>
      <trkpt lat="44.8865" lon="5.44005">
        <ele>1338</ele>
        <time>2021-10-09T08:26:39Z</time>
      </trkpt>
      <trkpt lat="44.88649" lon="5.44007">
        <ele>1338</ele>
        <time>2021-10-09T08:26:40Z</time>
      </trkpt>
      <trkpt lat="44.88648" lon="5.44009">
        <ele>1338</ele>
        <time>2021-10-09T08:26:41Z</time>
      </trkpt>
      <trkpt lat="44.88647" lon="5.4401">
        <ele>1338.4</ele>
        <time>2021-10-09T08:26:42Z</time>
      </trkpt>
      <trkpt lat="44.88646" lon="5.44012">
        <ele>1338.8</ele>
        <time>2021-10-09T08:26:43Z</time>
      </trkpt>
      <trkpt lat="44.88645" lon="5.44014">
        <ele>1338.8</ele>
        <time>2021-10-09T08:26:44Z</time>
      </trkpt>
      <trkpt lat="44.88644" lon="5.44016">
        <ele>1338.8</ele>
        <time>2021-10-09T08:26:45Z</time>
      </trkpt>
      <trkpt lat="44.88644" lon="5.44017">
        <ele>1338.8</ele>
        <time>2021-10-09T08:26:46Z</time>
      </trkpt>
      <trkpt lat="44.88643" lon="5.44019">
        <ele>1339.2</ele>
        <time>2021-10-09T08:26:47Z</time>
      </trkpt>
      <trkpt lat="44.88642" lon="5.44021">
        <ele>1339.2</ele>
        <time>2021-10-09T08:26:48Z</time>
      </trkpt>
      <trkpt lat="44.8864" lon="5.44023">
        <ele>1339.2</ele>
        <time>2021-10-09T08:26:49Z</time>
      </trkpt>
      <trkpt lat="44.88639" lon="5.44025">
        <ele>1339.2</ele>
        <time>2021-10-09T08:26:50Z</time>
      </trkpt>
      <trkpt lat="44.88639" lon="5.44027">
        <ele>1340</ele>
        <time>2021-10-09T08:26:51Z</time>
      </trkpt>
      <trkpt lat="44.88638" lon="5.44029">
        <ele>1340</ele>
        <time>2021-10-09T08:26:52Z</time>
      </trkpt>
      <trkpt lat="44.88638" lon="5.44032">
        <ele>1340</ele>
        <time>2021-10-09T08:26:53Z</time>
      </trkpt>
      <trkpt lat="44.88637" lon="5.44034">
        <ele>1340.4</ele>
        <time>2021-10-09T08:26:54Z</time>
      </trkpt>
      <trkpt lat="44.88637" lon="5.44037">
        <ele>1340.6</ele>
        <time>2021-10-09T08:26:55Z</time>
      </trkpt>
      <trkpt lat="44.88638" lon="5.4404">
        <ele>1340.6</ele>
        <time>2021-10-09T08:26:56Z</time>
      </trkpt>
      <trkpt lat="44.88638" lon="5.44042">
        <ele>1340.6</ele>
        <time>2021-10-09T08:26:57Z</time>
      </trkpt>
      <trkpt lat="44.88638" lon="5.44044">
        <ele>1340.6</ele>
        <time>2021-10-09T08:26:58Z</time>
      </trkpt>
      <trkpt lat="44.88639" lon="5.44046">
        <ele>1340.8</ele>
        <time>2021-10-09T08:26:59Z</time>
      </trkpt>
      <trkpt lat="44.88639" lon="5.44049">
        <ele>1340.8</ele>
        <time>2021-10-09T08:27:00Z</time>
      </trkpt>
      <trkpt lat="44.88639" lon="5.44051">
        <ele>1340.8</ele>
        <time>2021-10-09T08:27:01Z</time>
      </trkpt>
      <trkpt lat="44.8864" lon="5.44053">
        <ele>1340.8</ele>
        <time>2021-10-09T08:27:02Z</time>
      </trkpt>
      <trkpt lat="44.8864" lon="5.44056">
        <ele>1341.8</ele>
        <time>2021-10-09T08:27:03Z</time>
      </trkpt>
      <trkpt lat="44.8864" lon="5.44058">
        <ele>1341.8</ele>
        <time>2021-10-09T08:27:04Z</time>
      </trkpt>
      <trkpt lat="44.88641" lon="5.4406">
        <ele>1341.8</ele>
        <time>2021-10-09T08:27:05Z</time>
      </trkpt>
      <trkpt lat="44.88641" lon="5.44063">
        <ele>1341.8</ele>
        <time>2021-10-09T08:27:06Z</time>
      </trkpt>
      <trkpt lat="44.88642" lon="5.44064">
        <ele>1342.2</ele>
        <time>2021-10-09T08:27:07Z</time>
      </trkpt>
      <trkpt lat="44.88642" lon="5.44067">
        <ele>1342.2</ele>
        <time>2021-10-09T08:27:08Z</time>
      </trkpt>
      <trkpt lat="44.88642" lon="5.44068">
        <ele>1342.2</ele>
        <time>2021-10-09T08:27:09Z</time>
      </trkpt>
      <trkpt lat="44.88642" lon="5.44071">
        <ele>1342.4</ele>
        <time>2021-10-09T08:27:10Z</time>
      </trkpt>
      <trkpt lat="44.88644" lon="5.44073">
        <ele>1343</ele>
        <time>2021-10-09T08:27:11Z</time>
      </trkpt>
      <trkpt lat="44.88645" lon="5.44076">
        <ele>1343</ele>
        <time>2021-10-09T08:27:12Z</time>
      </trkpt>
      <trkpt lat="44.88646" lon="5.44078">
        <ele>1343</ele>
        <time>2021-10-09T08:27:13Z</time>
      </trkpt>
      <trkpt lat="44.88646" lon="5.4408">
        <ele>1343</ele>
        <time>2021-10-09T08:27:14Z</time>
      </trkpt>
      <trkpt lat="44.88647" lon="5.44082">
        <ele>1343.4</ele>
        <time>2021-10-09T08:27:15Z</time>
      </trkpt>
      <trkpt lat="44.88648" lon="5.44083">
        <ele>1343.4</ele>
        <time>2021-10-09T08:27:16Z</time>
      </trkpt>
      <trkpt lat="44.88649" lon="5.44086">
        <ele>1343.4</ele>
        <time>2021-10-09T08:27:17Z</time>
      </trkpt>
      <trkpt lat="44.8865" lon="5.44088">
        <ele>1343.4</ele>
        <time>2021-10-09T08:27:18Z</time>
      </trkpt>
      <trkpt lat="44.88651" lon="5.4409">
        <ele>1343.8</ele>
        <time>2021-10-09T08:27:19Z</time>
      </trkpt>
      <trkpt lat="44.88652" lon="5.44092">
        <ele>1343.8</ele>
        <time>2021-10-09T08:27:20Z</time>
      </trkpt>
      <trkpt lat="44.88653" lon="5.44094">
        <ele>1343.8</ele>
        <time>2021-10-09T08:27:21Z</time>
      </trkpt>
      <trkpt lat="44.88653" lon="5.44096">
        <ele>1343.8</ele>
        <time>2021-10-09T08:27:22Z</time>
      </trkpt>
      <trkpt lat="44.88654" lon="5.44099">
        <ele>1344.2</ele>
        <time>2021-10-09T08:27:23Z</time>
      </trkpt>
      <trkpt lat="44.88654" lon="5.44101">
        <ele>1344.2</ele>
        <time>2021-10-09T08:27:24Z</time>
      </trkpt>
      <trkpt lat="44.88654" lon="5.44104">
        <ele>1344.2</ele>
        <time>2021-10-09T08:27:25Z</time>
      </trkpt>
      <trkpt lat="44.88654" lon="5.44106">
        <ele>1345</ele>
        <time>2021-10-09T08:27:26Z</time>
      </trkpt>
      <trkpt lat="44.88655" lon="5.44109">
        <ele>1345.2</ele>
        <time>2021-10-09T08:27:27Z</time>
      </trkpt>
      <trkpt lat="44.88655" lon="5.44111">
        <ele>1345.2</ele>
        <time>2021-10-09T08:27:28Z</time>
      </trkpt>
      <trkpt lat="44.88655" lon="5.44114">
        <ele>1345.2</ele>
        <time>2021-10-09T08:27:29Z</time>
      </trkpt>
      <trkpt lat="44.88655" lon="5.44117">
        <ele>1345.2</ele>
        <time>2021-10-09T08:27:30Z</time>
      </trkpt>
      <trkpt lat="44.88655" lon="5.44119">
        <ele>1345.6</ele>
        <time>2021-10-09T08:27:31Z</time>
      </trkpt>
      <trkpt lat="44.88655" lon="5.44122">
        <ele>1345.6</ele>
        <time>2021-10-09T08:27:32Z</time>
      </trkpt>
      <trkpt lat="44.88656" lon="5.44124">
        <ele>1345.6</ele>
        <time>2021-10-09T08:27:33Z</time>
      </trkpt>
      <trkpt lat="44.88656" lon="5.44127">
        <ele>1346</ele>
        <time>2021-10-09T08:27:34Z</time>
      </trkpt>
      <trkpt lat="44.88656" lon="5.44129">
        <ele>1346.4</ele>
        <time>2021-10-09T08:27:35Z</time>
      </trkpt>
      <trkpt lat="44.88656" lon="5.44132">
        <ele>1346.4</ele>
        <time>2021-10-09T08:27:36Z</time>
      </trkpt>
      <trkpt lat="44.88656" lon="5.44134">
        <ele>1346.4</ele>
        <time>2021-10-09T08:27:37Z</time>
      </trkpt>
      <trkpt lat="44.88656" lon="5.44136">
        <ele>1346.4</ele>
        <time>2021-10-09T08:27:38Z</time>
      </trkpt>
      <trkpt lat="44.88656" lon="5.44139">
        <ele>1346.8</ele>
        <time>2021-10-09T08:27:39Z</time>
      </trkpt>
      <trkpt lat="44.88656" lon="5.44141">
        <ele>1346.8</ele>
        <time>2021-10-09T08:27:40Z</time>
      </trkpt>
      <trkpt lat="44.88656" lon="5.44144">
        <ele>1346.8</ele>
        <time>2021-10-09T08:27:41Z</time>
      </trkpt>
      <trkpt lat="44.88656" lon="5.44146">
        <ele>1347</ele>
        <time>2021-10-09T08:27:42Z</time>
      </trkpt>
      <trkpt lat="44.88656" lon="5.44148">
        <ele>1347.6</ele>
        <time>2021-10-09T08:27:43Z</time>
      </trkpt>
      <trkpt lat="44.88656" lon="5.44151">
        <ele>1347.6</ele>
        <time>2021-10-09T08:27:44Z</time>
      </trkpt>
      <trkpt lat="44.88655" lon="5.44153">
        <ele>1347.6</ele>
        <time>2021-10-09T08:27:45Z</time>
      </trkpt>
      <trkpt lat="44.88655" lon="5.44155">
        <ele>1347.6</ele>
        <time>2021-10-09T08:27:46Z</time>
      </trkpt>
      <trkpt lat="44.88655" lon="5.44158">
        <ele>1348</ele>
        <time>2021-10-09T08:27:47Z</time>
      </trkpt>
      <trkpt lat="44.88654" lon="5.4416">
        <ele>1348</ele>
        <time>2021-10-09T08:27:48Z</time>
      </trkpt>
      <trkpt lat="44.88654" lon="5.44163">
        <ele>1348</ele>
        <time>2021-10-09T08:27:49Z</time>
      </trkpt>
      <trkpt lat="44.88653" lon="5.44164">
        <ele>1348.4</ele>
        <time>2021-10-09T08:27:50Z</time>
      </trkpt>
      <trkpt lat="44.88653" lon="5.44166">
        <ele>1348.4</ele>
        <time>2021-10-09T08:27:51Z</time>
      </trkpt>
      <trkpt lat="44.88652" lon="5.44168">
        <ele>1348.4</ele>
        <time>2021-10-09T08:27:52Z</time>
      </trkpt>
      <trkpt lat="44.88652" lon="5.4417">
        <ele>1348.4</ele>
        <time>2021-10-09T08:27:53Z</time>
      </trkpt>
      <trkpt lat="44.88651" lon="5.44172">
        <ele>1348.4</ele>
        <time>2021-10-09T08:27:54Z</time>
      </trkpt>
      <trkpt lat="44.88651" lon="5.44175">
        <ele>1349</ele>
        <time>2021-10-09T08:27:55Z</time>
      </trkpt>
      <trkpt lat="44.88651" lon="5.44177">
        <ele>1349</ele>
        <time>2021-10-09T08:27:56Z</time>
      </trkpt>
      <trkpt lat="44.8865" lon="5.44179">
        <ele>1349</ele>
        <time>2021-10-09T08:27:57Z</time>
      </trkpt>
      <trkpt lat="44.8865" lon="5.44181">
        <ele>1349.2</ele>
        <time>2021-10-09T08:27:58Z</time>
      </trkpt>
      <trkpt lat="44.88649" lon="5.44183">
        <ele>1349.6</ele>
        <time>2021-10-09T08:27:59Z</time>
      </trkpt>
      <trkpt lat="44.88648" lon="5.44186">
        <ele>1349.6</ele>
        <time>2021-10-09T08:28:00Z</time>
      </trkpt>
      <trkpt lat="44.88648" lon="5.44188">
        <ele>1349.6</ele>
        <time>2021-10-09T08:28:01Z</time>
      </trkpt>
      <trkpt lat="44.88647" lon="5.4419">
        <ele>1349.6</ele>
        <time>2021-10-09T08:28:02Z</time>
      </trkpt>
      <trkpt lat="44.88646" lon="5.44192">
        <ele>1350.4</ele>
        <time>2021-10-09T08:28:03Z</time>
      </trkpt>
      <trkpt lat="44.88645" lon="5.44195">
        <ele>1350.4</ele>
        <time>2021-10-09T08:28:04Z</time>
      </trkpt>
      <trkpt lat="44.88644" lon="5.44197">
        <ele>1350.4</ele>
        <time>2021-10-09T08:28:05Z</time>
      </trkpt>
      <trkpt lat="44.88644" lon="5.44199">
        <ele>1350.4</ele>
        <time>2021-10-09T08:28:06Z</time>
      </trkpt>
      <trkpt lat="44.88643" lon="5.44201">
        <ele>1351</ele>
        <time>2021-10-09T08:28:07Z</time>
      </trkpt>
      <trkpt lat="44.88642" lon="5.44203">
        <ele>1351</ele>
        <time>2021-10-09T08:28:08Z</time>
      </trkpt>
      <trkpt lat="44.88642" lon="5.44205">
        <ele>1351</ele>
        <time>2021-10-09T08:28:09Z</time>
      </trkpt>
      <trkpt lat="44.88641" lon="5.44207">
        <ele>1351</ele>
        <time>2021-10-09T08:28:10Z</time>
      </trkpt>
      <trkpt lat="44.8864" lon="5.44209">
        <ele>1352</ele>
        <time>2021-10-09T08:28:11Z</time>
      </trkpt>
      <trkpt lat="44.88639" lon="5.44211">
        <ele>1352</ele>
        <time>2021-10-09T08:28:12Z</time>
      </trkpt>
      <trkpt lat="44.88638" lon="5.44213">
        <ele>1352</ele>
        <time>2021-10-09T08:28:13Z</time>
      </trkpt>
      <trkpt lat="44.88637" lon="5.44214">
        <ele>1352.2</ele>
        <time>2021-10-09T08:28:14Z</time>
      </trkpt>
      <trkpt lat="44.88636" lon="5.44216">
        <ele>1352</ele>
        <time>2021-10-09T08:28:15Z</time>
      </trkpt>
      <trkpt lat="44.88634" lon="5.44217">
        <ele>1352</ele>
        <time>2021-10-09T08:28:16Z</time>
      </trkpt>
      <trkpt lat="44.88633" lon="5.44219">
        <ele>1352</ele>
        <time>2021-10-09T08:28:17Z</time>
      </trkpt>
      <trkpt lat="44.88631" lon="5.44221">
        <ele>1352.8</ele>
        <time>2021-10-09T08:28:18Z</time>
      </trkpt>
      <trkpt lat="44.8863" lon="5.44222">
        <ele>1352.6</ele>
        <time>2021-10-09T08:28:19Z</time>
      </trkpt>
      <trkpt lat="44.88628" lon="5.44224">
        <ele>1352.6</ele>
        <time>2021-10-09T08:28:20Z</time>
      </trkpt>
      <trkpt lat="44.88627" lon="5.44224">
        <ele>1352.6</ele>
        <time>2021-10-09T08:28:21Z</time>
      </trkpt>
      <trkpt lat="44.88625" lon="5.44225">
        <ele>1352.6</ele>
        <time>2021-10-09T08:28:22Z</time>
      </trkpt>
      <trkpt lat="44.88623" lon="5.44226">
        <ele>1352.4</ele>
        <time>2021-10-09T08:28:23Z</time>
      </trkpt>
      <trkpt lat="44.88621" lon="5.44227">
        <ele>1352.4</ele>
        <time>2021-10-09T08:28:24Z</time>
      </trkpt>
      <trkpt lat="44.88619" lon="5.44228">
        <ele>1352.4</ele>
        <time>2021-10-09T08:28:25Z</time>
      </trkpt>
      <trkpt lat="44.88618" lon="5.44228">
        <ele>1352.6</ele>
        <time>2021-10-09T08:28:26Z</time>
      </trkpt>
      <trkpt lat="44.88617" lon="5.44229">
        <ele>1352.8</ele>
        <time>2021-10-09T08:28:27Z</time>
      </trkpt>
      <trkpt lat="44.88615" lon="5.44229">
        <ele>1352.8</ele>
        <time>2021-10-09T08:28:28Z</time>
      </trkpt>
      <trkpt lat="44.88614" lon="5.44229">
        <ele>1352.8</ele>
        <time>2021-10-09T08:28:29Z</time>
      </trkpt>
      <trkpt lat="44.88612" lon="5.4423">
        <ele>1352.8</ele>
        <time>2021-10-09T08:28:30Z</time>
      </trkpt>
      <trkpt lat="44.8861" lon="5.4423">
        <ele>1353</ele>
        <time>2021-10-09T08:28:31Z</time>
      </trkpt>
      <trkpt lat="44.88609" lon="5.44231">
        <ele>1353</ele>
        <time>2021-10-09T08:28:32Z</time>
      </trkpt>
      <trkpt lat="44.88607" lon="5.44231">
        <ele>1353</ele>
        <time>2021-10-09T08:28:33Z</time>
      </trkpt>
      <trkpt lat="44.88605" lon="5.44231">
        <ele>1353</ele>
        <time>2021-10-09T08:28:34Z</time>
      </trkpt>
      <trkpt lat="44.88602" lon="5.44232">
        <ele>1353.2</ele>
        <time>2021-10-09T08:28:35Z</time>
      </trkpt>
      <trkpt lat="44.886" lon="5.44232">
        <ele>1353.2</ele>
        <time>2021-10-09T08:28:36Z</time>
      </trkpt>
      <trkpt lat="44.88598" lon="5.44233">
        <ele>1353.2</ele>
        <time>2021-10-09T08:28:37Z</time>
      </trkpt>
      <trkpt lat="44.88596" lon="5.44233">
        <ele>1353.2</ele>
        <time>2021-10-09T08:28:38Z</time>
      </trkpt>
      <trkpt lat="44.88594" lon="5.44234">
        <ele>1353.6</ele>
        <time>2021-10-09T08:28:39Z</time>
      </trkpt>
      <trkpt lat="44.88593" lon="5.44234">
        <ele>1353.6</ele>
        <time>2021-10-09T08:28:40Z</time>
      </trkpt>
      <trkpt lat="44.88592" lon="5.44235">
        <ele>1353.6</ele>
        <time>2021-10-09T08:28:41Z</time>
      </trkpt>
      <trkpt lat="44.8859" lon="5.44235">
        <ele>1353.4</ele>
        <time>2021-10-09T08:28:42Z</time>
      </trkpt>
      <trkpt lat="44.88589" lon="5.44236">
        <ele>1353.4</ele>
        <time>2021-10-09T08:28:43Z</time>
      </trkpt>
      <trkpt lat="44.88588" lon="5.44236">
        <ele>1353.4</ele>
        <time>2021-10-09T08:28:44Z</time>
      </trkpt>
      <trkpt lat="44.88586" lon="5.44237">
        <ele>1353.4</ele>
        <time>2021-10-09T08:28:45Z</time>
      </trkpt>
      <trkpt lat="44.88584" lon="5.44237">
        <ele>1353.2</ele>
        <time>2021-10-09T08:28:46Z</time>
      </trkpt>
      <trkpt lat="44.88582" lon="5.44237">
        <ele>1353.6</ele>
        <time>2021-10-09T08:28:47Z</time>
      </trkpt>
      <trkpt lat="44.8858" lon="5.44238">
        <ele>1353.6</ele>
        <time>2021-10-09T08:28:48Z</time>
      </trkpt>
      <trkpt lat="44.88578" lon="5.44239">
        <ele>1353.6</ele>
        <time>2021-10-09T08:28:49Z</time>
      </trkpt>
      <trkpt lat="44.88576" lon="5.44239">
        <ele>1353.2</ele>
        <time>2021-10-09T08:28:50Z</time>
      </trkpt>
      <trkpt lat="44.88574" lon="5.4424">
        <ele>1353.2</ele>
        <time>2021-10-09T08:28:51Z</time>
      </trkpt>
      <trkpt lat="44.88572" lon="5.44241">
        <ele>1353.2</ele>
        <time>2021-10-09T08:28:52Z</time>
      </trkpt>
      <trkpt lat="44.8857" lon="5.44242">
        <ele>1353.2</ele>
        <time>2021-10-09T08:28:53Z</time>
      </trkpt>
      <trkpt lat="44.88569" lon="5.44242">
        <ele>1353.2</ele>
        <time>2021-10-09T08:28:54Z</time>
      </trkpt>
      <trkpt lat="44.88567" lon="5.44243">
        <ele>1353.6</ele>
        <time>2021-10-09T08:28:55Z</time>
      </trkpt>
      <trkpt lat="44.88565" lon="5.44244">
        <ele>1353.6</ele>
        <time>2021-10-09T08:28:56Z</time>
      </trkpt>
      <trkpt lat="44.88563" lon="5.44245">
        <ele>1353.6</ele>
        <time>2021-10-09T08:28:57Z</time>
      </trkpt>
      <trkpt lat="44.88561" lon="5.44246">
        <ele>1353.6</ele>
        <time>2021-10-09T08:28:58Z</time>
      </trkpt>
      <trkpt lat="44.88559" lon="5.44247">
        <ele>1353</ele>
        <time>2021-10-09T08:28:59Z</time>
      </trkpt>
      <trkpt lat="44.88557" lon="5.44247">
        <ele>1353</ele>
        <time>2021-10-09T08:29:00Z</time>
      </trkpt>
      <trkpt lat="44.88555" lon="5.44248">
        <ele>1353</ele>
        <time>2021-10-09T08:29:01Z</time>
      </trkpt>
      <trkpt lat="44.88554" lon="5.44249">
        <ele>1353</ele>
        <time>2021-10-09T08:29:02Z</time>
      </trkpt>
      <trkpt lat="44.88552" lon="5.4425">
        <ele>1353.6</ele>
        <time>2021-10-09T08:29:03Z</time>
      </trkpt>
      <trkpt lat="44.8855" lon="5.44251">
        <ele>1353.6</ele>
        <time>2021-10-09T08:29:04Z</time>
      </trkpt>
      <trkpt lat="44.88548" lon="5.44253">
        <ele>1353.6</ele>
        <time>2021-10-09T08:29:05Z</time>
      </trkpt>
      <trkpt lat="44.88547" lon="5.44254">
        <ele>1353.6</ele>
        <time>2021-10-09T08:29:06Z</time>
      </trkpt>
      <trkpt lat="44.88545" lon="5.44255">
        <ele>1353.6</ele>
        <time>2021-10-09T08:29:07Z</time>
      </trkpt>
      <trkpt lat="44.88544" lon="5.44257">
        <ele>1353.6</ele>
        <time>2021-10-09T08:29:08Z</time>
      </trkpt>
      <trkpt lat="44.88543" lon="5.44259">
        <ele>1353.6</ele>
        <time>2021-10-09T08:29:09Z</time>
      </trkpt>
      <trkpt lat="44.88541" lon="5.4426">
        <ele>1353.6</ele>
        <time>2021-10-09T08:29:10Z</time>
      </trkpt>
      <trkpt lat="44.8854" lon="5.44262">
        <ele>1353.8</ele>
        <time>2021-10-09T08:29:11Z</time>
      </trkpt>
      <trkpt lat="44.88539" lon="5.44264">
        <ele>1353.8</ele>
        <time>2021-10-09T08:29:12Z</time>
      </trkpt>
      <trkpt lat="44.88538" lon="5.44265">
        <ele>1353.8</ele>
        <time>2021-10-09T08:29:13Z</time>
      </trkpt>
      <trkpt lat="44.88538" lon="5.44269">
        <ele>1354</ele>
        <time>2021-10-09T08:29:14Z</time>
      </trkpt>
      <trkpt lat="44.88538" lon="5.44271">
        <ele>1354.2</ele>
        <time>2021-10-09T08:29:15Z</time>
      </trkpt>
      <trkpt lat="44.88539" lon="5.44273">
        <ele>1354.2</ele>
        <time>2021-10-09T08:29:16Z</time>
      </trkpt>
      <trkpt lat="44.88539" lon="5.44275">
        <ele>1354.2</ele>
        <time>2021-10-09T08:29:17Z</time>
      </trkpt>
      <trkpt lat="44.88539" lon="5.44277">
        <ele>1354.2</ele>
        <time>2021-10-09T08:29:18Z</time>
      </trkpt>
      <trkpt lat="44.8854" lon="5.44279">
        <ele>1354</ele>
        <time>2021-10-09T08:29:19Z</time>
      </trkpt>
      <trkpt lat="44.88541" lon="5.44279">
        <ele>1354</ele>
        <time>2021-10-09T08:29:20Z</time>
      </trkpt>
      <trkpt lat="44.8854" lon="5.44279">
        <ele>1354</ele>
        <time>2021-10-09T08:29:21Z</time>
      </trkpt>
      <trkpt lat="44.88536" lon="5.44275">
        <ele>1353.2</ele>
        <time>2021-10-09T08:33:28Z</time>
      </trkpt>
      <trkpt lat="44.88534" lon="5.44274">
        <ele>1353.2</ele>
        <time>2021-10-09T08:33:29Z</time>
      </trkpt>
      <trkpt lat="44.88533" lon="5.44275">
        <ele>1353.2</ele>
        <time>2021-10-09T08:33:30Z</time>
      </trkpt>
      <trkpt lat="44.88531" lon="5.44276">
        <ele>1353.2</ele>
        <time>2021-10-09T08:33:31Z</time>
      </trkpt>
      <trkpt lat="44.8853" lon="5.44278">
        <ele>1353.2</ele>
        <time>2021-10-09T08:33:32Z</time>
      </trkpt>
      <trkpt lat="44.88529" lon="5.4428">
        <ele>1353.2</ele>
        <time>2021-10-09T08:33:33Z</time>
      </trkpt>
      <trkpt lat="44.88527" lon="5.44283">
        <ele>1353</ele>
        <time>2021-10-09T08:33:34Z</time>
      </trkpt>
      <trkpt lat="44.88525" lon="5.44286">
        <ele>1352.8</ele>
        <time>2021-10-09T08:33:35Z</time>
      </trkpt>
      <trkpt lat="44.88524" lon="5.44288">
        <ele>1352.8</ele>
        <time>2021-10-09T08:33:36Z</time>
      </trkpt>
      <trkpt lat="44.88522" lon="5.44292">
        <ele>1352.8</ele>
        <time>2021-10-09T08:33:37Z</time>
      </trkpt>
      <trkpt lat="44.88521" lon="5.44295">
        <ele>1353.6</ele>
        <time>2021-10-09T08:33:38Z</time>
      </trkpt>
      <trkpt lat="44.88519" lon="5.44297">
        <ele>1353</ele>
        <time>2021-10-09T08:33:39Z</time>
      </trkpt>
      <trkpt lat="44.88517" lon="5.443">
        <ele>1353</ele>
        <time>2021-10-09T08:33:40Z</time>
      </trkpt>
      <trkpt lat="44.88515" lon="5.44303">
        <ele>1353</ele>
        <time>2021-10-09T08:33:41Z</time>
      </trkpt>
      <trkpt lat="44.88514" lon="5.44306">
        <ele>1353.6</ele>
        <time>2021-10-09T08:33:42Z</time>
      </trkpt>
      <trkpt lat="44.88512" lon="5.44309">
        <ele>1354.2</ele>
        <time>2021-10-09T08:33:43Z</time>
      </trkpt>
      <trkpt lat="44.88511" lon="5.44312">
        <ele>1354.2</ele>
        <time>2021-10-09T08:33:44Z</time>
      </trkpt>
      <trkpt lat="44.88509" lon="5.44315">
        <ele>1354.2</ele>
        <time>2021-10-09T08:33:45Z</time>
      </trkpt>
      <trkpt lat="44.88507" lon="5.44318">
        <ele>1353.8</ele>
        <time>2021-10-09T08:33:46Z</time>
      </trkpt>
      <trkpt lat="44.88505" lon="5.44322">
        <ele>1353.6</ele>
        <time>2021-10-09T08:33:47Z</time>
      </trkpt>
      <trkpt lat="44.88504" lon="5.44325">
        <ele>1353.6</ele>
        <time>2021-10-09T08:33:48Z</time>
      </trkpt>
      <trkpt lat="44.88502" lon="5.44329">
        <ele>1353.6</ele>
        <time>2021-10-09T08:33:49Z</time>
      </trkpt>
      <trkpt lat="44.885" lon="5.44332">
        <ele>1353.6</ele>
        <time>2021-10-09T08:33:50Z</time>
      </trkpt>
      <trkpt lat="44.88498" lon="5.44335">
        <ele>1353.4</ele>
        <time>2021-10-09T08:33:51Z</time>
      </trkpt>
      <trkpt lat="44.88496" lon="5.44338">
        <ele>1353.4</ele>
        <time>2021-10-09T08:33:52Z</time>
      </trkpt>
      <trkpt lat="44.88494" lon="5.44342">
        <ele>1353.4</ele>
        <time>2021-10-09T08:33:53Z</time>
      </trkpt>
      <trkpt lat="44.88492" lon="5.44345">
        <ele>1353.8</ele>
        <time>2021-10-09T08:33:54Z</time>
      </trkpt>
      <trkpt lat="44.8849" lon="5.44349">
        <ele>1353.6</ele>
        <time>2021-10-09T08:33:55Z</time>
      </trkpt>
      <trkpt lat="44.88488" lon="5.44352">
        <ele>1353.6</ele>
        <time>2021-10-09T08:33:56Z</time>
      </trkpt>
      <trkpt lat="44.88486" lon="5.44356">
        <ele>1353.6</ele>
        <time>2021-10-09T08:33:57Z</time>
      </trkpt>
      <trkpt lat="44.88483" lon="5.4436">
        <ele>1353.6</ele>
        <time>2021-10-09T08:33:58Z</time>
      </trkpt>
      <trkpt lat="44.88481" lon="5.44364">
        <ele>1353.8</ele>
        <time>2021-10-09T08:33:59Z</time>
      </trkpt>
      <trkpt lat="44.88479" lon="5.44367">
        <ele>1353.8</ele>
        <time>2021-10-09T08:34:00Z</time>
      </trkpt>
      <trkpt lat="44.88477" lon="5.44371">
        <ele>1353.8</ele>
        <time>2021-10-09T08:34:01Z</time>
      </trkpt>
      <trkpt lat="44.88475" lon="5.44375">
        <ele>1353.8</ele>
        <time>2021-10-09T08:34:02Z</time>
      </trkpt>
      <trkpt lat="44.88473" lon="5.44378">
        <ele>1353.6</ele>
        <time>2021-10-09T08:34:03Z</time>
      </trkpt>
      <trkpt lat="44.8847" lon="5.44382">
        <ele>1353.6</ele>
        <time>2021-10-09T08:34:04Z</time>
      </trkpt>
      <trkpt lat="44.88468" lon="5.44386">
        <ele>1353.6</ele>
        <time>2021-10-09T08:34:05Z</time>
      </trkpt>
      <trkpt lat="44.88466" lon="5.44389">
        <ele>1353.6</ele>
        <time>2021-10-09T08:34:06Z</time>
      </trkpt>
      <trkpt lat="44.88464" lon="5.44393">
        <ele>1354</ele>
        <time>2021-10-09T08:34:07Z</time>
      </trkpt>
      <trkpt lat="44.88462" lon="5.44397">
        <ele>1354</ele>
        <time>2021-10-09T08:34:08Z</time>
      </trkpt>
      <trkpt lat="44.8846" lon="5.444">
        <ele>1354</ele>
        <time>2021-10-09T08:34:09Z</time>
      </trkpt>
      <trkpt lat="44.88458" lon="5.44404">
        <ele>1353.6</ele>
        <time>2021-10-09T08:34:10Z</time>
      </trkpt>
      <trkpt lat="44.88456" lon="5.44407">
        <ele>1353.8</ele>
        <time>2021-10-09T08:34:11Z</time>
      </trkpt>
      <trkpt lat="44.88454" lon="5.44411">
        <ele>1353.8</ele>
        <time>2021-10-09T08:34:12Z</time>
      </trkpt>
      <trkpt lat="44.88452" lon="5.44414">
        <ele>1353.8</ele>
        <time>2021-10-09T08:34:13Z</time>
      </trkpt>
      <trkpt lat="44.8845" lon="5.44417">
        <ele>1354.6</ele>
        <time>2021-10-09T08:34:14Z</time>
      </trkpt>
      <trkpt lat="44.88448" lon="5.44421">
        <ele>1354.2</ele>
        <time>2021-10-09T08:34:15Z</time>
      </trkpt>
      <trkpt lat="44.88446" lon="5.44424">
        <ele>1354.2</ele>
        <time>2021-10-09T08:34:16Z</time>
      </trkpt>
      <trkpt lat="44.88444" lon="5.44427">
        <ele>1354.2</ele>
        <time>2021-10-09T08:34:17Z</time>
      </trkpt>
      <trkpt lat="44.88443" lon="5.44431">
        <ele>1354.2</ele>
        <time>2021-10-09T08:34:18Z</time>
      </trkpt>
      <trkpt lat="44.88441" lon="5.44435">
        <ele>1354.2</ele>
        <time>2021-10-09T08:34:19Z</time>
      </trkpt>
      <trkpt lat="44.8844" lon="5.44438">
        <ele>1354.2</ele>
        <time>2021-10-09T08:34:20Z</time>
      </trkpt>
      <trkpt lat="44.8844" lon="5.44443">
        <ele>1354.2</ele>
        <time>2021-10-09T08:34:21Z</time>
      </trkpt>
      <trkpt lat="44.8844" lon="5.44446">
        <ele>1355</ele>
        <time>2021-10-09T08:34:22Z</time>
      </trkpt>
      <trkpt lat="44.88441" lon="5.4445">
        <ele>1355.2</ele>
        <time>2021-10-09T08:34:23Z</time>
      </trkpt>
      <trkpt lat="44.88443" lon="5.44453">
        <ele>1355.2</ele>
        <time>2021-10-09T08:34:24Z</time>
      </trkpt>
      <trkpt lat="44.88445" lon="5.44455">
        <ele>1355.2</ele>
        <time>2021-10-09T08:34:25Z</time>
      </trkpt>
      <trkpt lat="44.88447" lon="5.44457">
        <ele>1356</ele>
        <time>2021-10-09T08:34:26Z</time>
      </trkpt>
      <trkpt lat="44.88449" lon="5.44458">
        <ele>1356.2</ele>
        <time>2021-10-09T08:34:27Z</time>
      </trkpt>
      <trkpt lat="44.88451" lon="5.4446">
        <ele>1356.2</ele>
        <time>2021-10-09T08:34:28Z</time>
      </trkpt>
      <trkpt lat="44.88452" lon="5.44461">
        <ele>1356.2</ele>
        <time>2021-10-09T08:34:29Z</time>
      </trkpt>
      <trkpt lat="44.88454" lon="5.44462">
        <ele>1356.4</ele>
        <time>2021-10-09T08:34:30Z</time>
      </trkpt>
      <trkpt lat="44.88455" lon="5.44463">
        <ele>1356.6</ele>
        <time>2021-10-09T08:34:31Z</time>
      </trkpt>
      <trkpt lat="44.88457" lon="5.44464">
        <ele>1356.6</ele>
        <time>2021-10-09T08:34:32Z</time>
      </trkpt>
      <trkpt lat="44.88459" lon="5.44465">
        <ele>1356.6</ele>
        <time>2021-10-09T08:34:33Z</time>
      </trkpt>
      <trkpt lat="44.88461" lon="5.44466">
        <ele>1356.8</ele>
        <time>2021-10-09T08:34:34Z</time>
      </trkpt>
      <trkpt lat="44.88462" lon="5.44467">
        <ele>1357.4</ele>
        <time>2021-10-09T08:34:35Z</time>
      </trkpt>
      <trkpt lat="44.88464" lon="5.44468">
        <ele>1357.4</ele>
        <time>2021-10-09T08:34:36Z</time>
      </trkpt>
      <trkpt lat="44.88466" lon="5.44469">
        <ele>1357.4</ele>
        <time>2021-10-09T08:34:37Z</time>
      </trkpt>
      <trkpt lat="44.88468" lon="5.44469">
        <ele>1358.2</ele>
        <time>2021-10-09T08:34:38Z</time>
      </trkpt>
      <trkpt lat="44.88469" lon="5.4447">
        <ele>1358.6</ele>
        <time>2021-10-09T08:34:39Z</time>
      </trkpt>
      <trkpt lat="44.88471" lon="5.44471">
        <ele>1358.6</ele>
        <time>2021-10-09T08:34:40Z</time>
      </trkpt>
      <trkpt lat="44.88473" lon="5.44472">
        <ele>1358.6</ele>
        <time>2021-10-09T08:34:41Z</time>
      </trkpt>
      <trkpt lat="44.88475" lon="5.44474">
        <ele>1358.6</ele>
        <time>2021-10-09T08:34:42Z</time>
      </trkpt>
      <trkpt lat="44.88477" lon="5.44475">
        <ele>1359.4</ele>
        <time>2021-10-09T08:34:43Z</time>
      </trkpt>
      <trkpt lat="44.88478" lon="5.44476">
        <ele>1359.4</ele>
        <time>2021-10-09T08:34:44Z</time>
      </trkpt>
      <trkpt lat="44.8848" lon="5.44477">
        <ele>1359.4</ele>
        <time>2021-10-09T08:34:45Z</time>
      </trkpt>
      <trkpt lat="44.88481" lon="5.44478">
        <ele>1360.2</ele>
        <time>2021-10-09T08:34:46Z</time>
      </trkpt>
      <trkpt lat="44.88483" lon="5.44479">
        <ele>1360.2</ele>
        <time>2021-10-09T08:34:47Z</time>
      </trkpt>
      <trkpt lat="44.88484" lon="5.4448">
        <ele>1360.2</ele>
        <time>2021-10-09T08:34:48Z</time>
      </trkpt>
      <trkpt lat="44.88486" lon="5.44482">
        <ele>1360.2</ele>
        <time>2021-10-09T08:34:49Z</time>
      </trkpt>
      <trkpt lat="44.88488" lon="5.44483">
        <ele>1361</ele>
        <time>2021-10-09T08:34:50Z</time>
      </trkpt>
      <trkpt lat="44.88489" lon="5.44484">
        <ele>1361.2</ele>
        <time>2021-10-09T08:34:51Z</time>
      </trkpt>
      <trkpt lat="44.88491" lon="5.44485">
        <ele>1361.2</ele>
        <time>2021-10-09T08:34:52Z</time>
      </trkpt>
      <trkpt lat="44.88493" lon="5.44485">
        <ele>1361.2</ele>
        <time>2021-10-09T08:34:53Z</time>
      </trkpt>
      <trkpt lat="44.88494" lon="5.44486">
        <ele>1361.2</ele>
        <time>2021-10-09T08:34:54Z</time>
      </trkpt>
      <trkpt lat="44.88495" lon="5.44487">
        <ele>1361.6</ele>
        <time>2021-10-09T08:34:55Z</time>
      </trkpt>
      <trkpt lat="44.88497" lon="5.44488">
        <ele>1361.6</ele>
        <time>2021-10-09T08:34:56Z</time>
      </trkpt>
      <trkpt lat="44.88499" lon="5.44488">
        <ele>1361.6</ele>
        <time>2021-10-09T08:34:57Z</time>
      </trkpt>
      <trkpt lat="44.885" lon="5.44489">
        <ele>1361.6</ele>
        <time>2021-10-09T08:34:58Z</time>
      </trkpt>
      <trkpt lat="44.88502" lon="5.44489">
        <ele>1362.2</ele>
        <time>2021-10-09T08:34:59Z</time>
      </trkpt>
      <trkpt lat="44.88503" lon="5.4449">
        <ele>1362.2</ele>
        <time>2021-10-09T08:35:00Z</time>
      </trkpt>
      <trkpt lat="44.88505" lon="5.44491">
        <ele>1362.2</ele>
        <time>2021-10-09T08:35:01Z</time>
      </trkpt>
      <trkpt lat="44.88506" lon="5.44491">
        <ele>1363.2</ele>
        <time>2021-10-09T08:35:02Z</time>
      </trkpt>
      <trkpt lat="44.88508" lon="5.44492">
        <ele>1363.4</ele>
        <time>2021-10-09T08:35:03Z</time>
      </trkpt>
      <trkpt lat="44.8851" lon="5.44492">
        <ele>1363.4</ele>
        <time>2021-10-09T08:35:04Z</time>
      </trkpt>
      <trkpt lat="44.88511" lon="5.44493">
        <ele>1363.4</ele>
        <time>2021-10-09T08:35:05Z</time>
      </trkpt>
      <trkpt lat="44.88513" lon="5.44492">
        <ele>1363.8</ele>
        <time>2021-10-09T08:35:06Z</time>
      </trkpt>
      <trkpt lat="44.88514" lon="5.44493">
        <ele>1364</ele>
        <time>2021-10-09T08:35:07Z</time>
      </trkpt>
      <trkpt lat="44.88516" lon="5.44493">
        <ele>1364</ele>
        <time>2021-10-09T08:35:08Z</time>
      </trkpt>
      <trkpt lat="44.88518" lon="5.44494">
        <ele>1364</ele>
        <time>2021-10-09T08:35:09Z</time>
      </trkpt>
      <trkpt lat="44.88519" lon="5.44494">
        <ele>1364.6</ele>
        <time>2021-10-09T08:35:10Z</time>
      </trkpt>
      <trkpt lat="44.88521" lon="5.44496">
        <ele>1364.8</ele>
        <time>2021-10-09T08:35:11Z</time>
      </trkpt>
      <trkpt lat="44.88523" lon="5.44496">
        <ele>1364.8</ele>
        <time>2021-10-09T08:35:12Z</time>
      </trkpt>
      <trkpt lat="44.88525" lon="5.44496">
        <ele>1364.8</ele>
        <time>2021-10-09T08:35:13Z</time>
      </trkpt>
      <trkpt lat="44.88527" lon="5.44496">
        <ele>1365.2</ele>
        <time>2021-10-09T08:35:14Z</time>
      </trkpt>
      <trkpt lat="44.88528" lon="5.44497">
        <ele>1365.6</ele>
        <time>2021-10-09T08:35:15Z</time>
      </trkpt>
      <trkpt lat="44.8853" lon="5.44497">
        <ele>1365.6</ele>
        <time>2021-10-09T08:35:16Z</time>
      </trkpt>
      <trkpt lat="44.88531" lon="5.44498">
        <ele>1365.6</ele>
        <time>2021-10-09T08:35:17Z</time>
      </trkpt>
      <trkpt lat="44.88532" lon="5.44498">
        <ele>1365.6</ele>
        <time>2021-10-09T08:35:18Z</time>
      </trkpt>
      <trkpt lat="44.88533" lon="5.44496">
        <ele>1366.2</ele>
        <time>2021-10-09T08:35:19Z</time>
      </trkpt>
      <trkpt lat="44.88534" lon="5.44496">
        <ele>1366.2</ele>
        <time>2021-10-09T08:35:20Z</time>
      </trkpt>
      <trkpt lat="44.88535" lon="5.44497">
        <ele>1366.2</ele>
        <time>2021-10-09T08:35:21Z</time>
      </trkpt>
      <trkpt lat="44.88538" lon="5.44499">
        <ele>1367</ele>
        <time>2021-10-09T08:35:22Z</time>
      </trkpt>
      <trkpt lat="44.88539" lon="5.445">
        <ele>1366.8</ele>
        <time>2021-10-09T08:35:23Z</time>
      </trkpt>
      <trkpt lat="44.8854" lon="5.445">
        <ele>1366.8</ele>
        <time>2021-10-09T08:35:24Z</time>
      </trkpt>
      <trkpt lat="44.88542" lon="5.44501">
        <ele>1366.8</ele>
        <time>2021-10-09T08:35:25Z</time>
      </trkpt>
      <trkpt lat="44.88544" lon="5.44502">
        <ele>1367.8</ele>
        <time>2021-10-09T08:35:26Z</time>
      </trkpt>
      <trkpt lat="44.88546" lon="5.44503">
        <ele>1368</ele>
        <time>2021-10-09T08:35:27Z</time>
      </trkpt>
      <trkpt lat="44.88548" lon="5.44503">
        <ele>1368</ele>
        <time>2021-10-09T08:35:28Z</time>
      </trkpt>
      <trkpt lat="44.8855" lon="5.44505">
        <ele>1368</ele>
        <time>2021-10-09T08:35:29Z</time>
      </trkpt>
      <trkpt lat="44.88552" lon="5.44505">
        <ele>1368.4</ele>
        <time>2021-10-09T08:35:30Z</time>
      </trkpt>
      <trkpt lat="44.88553" lon="5.44505">
        <ele>1368.4</ele>
        <time>2021-10-09T08:35:31Z</time>
      </trkpt>
      <trkpt lat="44.88555" lon="5.44505">
        <ele>1368.4</ele>
        <time>2021-10-09T08:35:32Z</time>
      </trkpt>
      <trkpt lat="44.88555" lon="5.44505">
        <ele>1368.4</ele>
        <time>2021-10-09T08:35:33Z</time>
      </trkpt>
      <trkpt lat="44.88557" lon="5.44505">
        <ele>1368.4</ele>
        <time>2021-10-09T08:35:34Z</time>
      </trkpt>
      <trkpt lat="44.88558" lon="5.44505">
        <ele>1369</ele>
        <time>2021-10-09T08:35:35Z</time>
      </trkpt>
      <trkpt lat="44.88561" lon="5.44507">
        <ele>1369</ele>
        <time>2021-10-09T08:35:36Z</time>
      </trkpt>
      <trkpt lat="44.88563" lon="5.44508">
        <ele>1369</ele>
        <time>2021-10-09T08:35:37Z</time>
      </trkpt>
      <trkpt lat="44.88565" lon="5.44509">
        <ele>1369.6</ele>
        <time>2021-10-09T08:35:38Z</time>
      </trkpt>
      <trkpt lat="44.88567" lon="5.44509">
        <ele>1369.6</ele>
        <time>2021-10-09T08:35:39Z</time>
      </trkpt>
      <trkpt lat="44.88569" lon="5.4451">
        <ele>1369.6</ele>
        <time>2021-10-09T08:35:40Z</time>
      </trkpt>
      <trkpt lat="44.88571" lon="5.44511">
        <ele>1369.6</ele>
        <time>2021-10-09T08:35:41Z</time>
      </trkpt>
      <trkpt lat="44.88573" lon="5.44512">
        <ele>1370.6</ele>
        <time>2021-10-09T08:35:42Z</time>
      </trkpt>
      <trkpt lat="44.88575" lon="5.44513">
        <ele>1370.6</ele>
        <time>2021-10-09T08:35:43Z</time>
      </trkpt>
      <trkpt lat="44.88577" lon="5.44513">
        <ele>1370.6</ele>
        <time>2021-10-09T08:35:44Z</time>
      </trkpt>
      <trkpt lat="44.88579" lon="5.44514">
        <ele>1370.6</ele>
        <time>2021-10-09T08:35:45Z</time>
      </trkpt>
      <trkpt lat="44.8858" lon="5.44514">
        <ele>1371.6</ele>
        <time>2021-10-09T08:35:46Z</time>
      </trkpt>
      <trkpt lat="44.88582" lon="5.44515">
        <ele>1372</ele>
        <time>2021-10-09T08:35:47Z</time>
      </trkpt>
      <trkpt lat="44.88584" lon="5.44516">
        <ele>1372</ele>
        <time>2021-10-09T08:35:48Z</time>
      </trkpt>
      <trkpt lat="44.88586" lon="5.44517">
        <ele>1372</ele>
        <time>2021-10-09T08:35:49Z</time>
      </trkpt>
      <trkpt lat="44.88588" lon="5.44517">
        <ele>1372</ele>
        <time>2021-10-09T08:35:50Z</time>
      </trkpt>
      <trkpt lat="44.8859" lon="5.44518">
        <ele>1372.4</ele>
        <time>2021-10-09T08:35:51Z</time>
      </trkpt>
      <trkpt lat="44.88591" lon="5.44519">
        <ele>1372.4</ele>
        <time>2021-10-09T08:35:52Z</time>
      </trkpt>
      <trkpt lat="44.88593" lon="5.44519">
        <ele>1372.4</ele>
        <time>2021-10-09T08:35:53Z</time>
      </trkpt>
      <trkpt lat="44.88595" lon="5.4452">
        <ele>1373.4</ele>
        <time>2021-10-09T08:35:54Z</time>
      </trkpt>
      <trkpt lat="44.88597" lon="5.44521">
        <ele>1373.6</ele>
        <time>2021-10-09T08:35:55Z</time>
      </trkpt>
      <trkpt lat="44.88599" lon="5.44522">
        <ele>1373.6</ele>
        <time>2021-10-09T08:35:56Z</time>
      </trkpt>
      <trkpt lat="44.88601" lon="5.44522">
        <ele>1373.6</ele>
        <time>2021-10-09T08:35:57Z</time>
      </trkpt>
      <trkpt lat="44.88603" lon="5.44522">
        <ele>1374.2</ele>
        <time>2021-10-09T08:35:58Z</time>
      </trkpt>
      <trkpt lat="44.88605" lon="5.44523">
        <ele>1374.2</ele>
        <time>2021-10-09T08:35:59Z</time>
      </trkpt>
      <trkpt lat="44.88607" lon="5.44523">
        <ele>1374.2</ele>
        <time>2021-10-09T08:36:00Z</time>
      </trkpt>
      <trkpt lat="44.88608" lon="5.44524">
        <ele>1374.2</ele>
        <time>2021-10-09T08:36:01Z</time>
      </trkpt>
      <trkpt lat="44.8861" lon="5.44524">
        <ele>1375.2</ele>
        <time>2021-10-09T08:36:02Z</time>
      </trkpt>
      <trkpt lat="44.88612" lon="5.44524">
        <ele>1375.2</ele>
        <time>2021-10-09T08:36:03Z</time>
      </trkpt>
      <trkpt lat="44.88613" lon="5.44524">
        <ele>1375.2</ele>
        <time>2021-10-09T08:36:04Z</time>
      </trkpt>
      <trkpt lat="44.88615" lon="5.44524">
        <ele>1375.2</ele>
        <time>2021-10-09T08:36:05Z</time>
      </trkpt>
      <trkpt lat="44.88617" lon="5.44524">
        <ele>1375.8</ele>
        <time>2021-10-09T08:36:06Z</time>
      </trkpt>
      <trkpt lat="44.88618" lon="5.44524">
        <ele>1376</ele>
        <time>2021-10-09T08:36:07Z</time>
      </trkpt>
      <trkpt lat="44.8862" lon="5.44524">
        <ele>1376</ele>
        <time>2021-10-09T08:36:08Z</time>
      </trkpt>
      <trkpt lat="44.88622" lon="5.44524">
        <ele>1376</ele>
        <time>2021-10-09T08:36:09Z</time>
      </trkpt>
      <trkpt lat="44.88623" lon="5.44524">
        <ele>1376</ele>
        <time>2021-10-09T08:36:10Z</time>
      </trkpt>
      <trkpt lat="44.88625" lon="5.44524">
        <ele>1376.8</ele>
        <time>2021-10-09T08:36:11Z</time>
      </trkpt>
      <trkpt lat="44.88627" lon="5.44524">
        <ele>1376.8</ele>
        <time>2021-10-09T08:36:12Z</time>
      </trkpt>
      <trkpt lat="44.88629" lon="5.44525">
        <ele>1376.8</ele>
        <time>2021-10-09T08:36:13Z</time>
      </trkpt>
      <trkpt lat="44.88631" lon="5.44525">
        <ele>1377.6</ele>
        <time>2021-10-09T08:36:14Z</time>
      </trkpt>
      <trkpt lat="44.88632" lon="5.44526">
        <ele>1377.4</ele>
        <time>2021-10-09T08:36:15Z</time>
      </trkpt>
      <trkpt lat="44.88634" lon="5.44526">
        <ele>1377.4</ele>
        <time>2021-10-09T08:36:16Z</time>
      </trkpt>
      <trkpt lat="44.88635" lon="5.44527">
        <ele>1377.4</ele>
        <time>2021-10-09T08:36:17Z</time>
      </trkpt>
      <trkpt lat="44.88636" lon="5.44528">
        <ele>1378.2</ele>
        <time>2021-10-09T08:36:18Z</time>
      </trkpt>
      <trkpt lat="44.88638" lon="5.44529">
        <ele>1378.8</ele>
        <time>2021-10-09T08:36:19Z</time>
      </trkpt>
      <trkpt lat="44.88639" lon="5.44529">
        <ele>1378.8</ele>
        <time>2021-10-09T08:36:20Z</time>
      </trkpt>
      <trkpt lat="44.8864" lon="5.44529">
        <ele>1378.8</ele>
        <time>2021-10-09T08:36:21Z</time>
      </trkpt>
      <trkpt lat="44.88641" lon="5.4453">
        <ele>1378.8</ele>
        <time>2021-10-09T08:36:22Z</time>
      </trkpt>
      <trkpt lat="44.88642" lon="5.44531">
        <ele>1379.4</ele>
        <time>2021-10-09T08:36:23Z</time>
      </trkpt>
      <trkpt lat="44.88644" lon="5.44532">
        <ele>1379.4</ele>
        <time>2021-10-09T08:36:24Z</time>
      </trkpt>
      <trkpt lat="44.88645" lon="5.44533">
        <ele>1379.4</ele>
        <time>2021-10-09T08:36:25Z</time>
      </trkpt>
      <trkpt lat="44.88647" lon="5.44534">
        <ele>1379.8</ele>
        <time>2021-10-09T08:36:26Z</time>
      </trkpt>
      <trkpt lat="44.88648" lon="5.44534">
        <ele>1379.8</ele>
        <time>2021-10-09T08:36:27Z</time>
      </trkpt>
      <trkpt lat="44.8865" lon="5.44535">
        <ele>1379.8</ele>
        <time>2021-10-09T08:36:28Z</time>
      </trkpt>
      <trkpt lat="44.88651" lon="5.44536">
        <ele>1379.8</ele>
        <time>2021-10-09T08:36:29Z</time>
      </trkpt>
      <trkpt lat="44.88652" lon="5.44536">
        <ele>1380.4</ele>
        <time>2021-10-09T08:36:30Z</time>
      </trkpt>
      <trkpt lat="44.88654" lon="5.44536">
        <ele>1380.8</ele>
        <time>2021-10-09T08:36:31Z</time>
      </trkpt>
      <trkpt lat="44.88655" lon="5.44536">
        <ele>1380.8</ele>
        <time>2021-10-09T08:36:32Z</time>
      </trkpt>
      <trkpt lat="44.88656" lon="5.44537">
        <ele>1380.8</ele>
        <time>2021-10-09T08:36:33Z</time>
      </trkpt>
      <trkpt lat="44.88658" lon="5.44537">
        <ele>1380.8</ele>
        <time>2021-10-09T08:36:34Z</time>
      </trkpt>
      <trkpt lat="44.88659" lon="5.44537">
        <ele>1381.8</ele>
        <time>2021-10-09T08:36:35Z</time>
      </trkpt>
      <trkpt lat="44.88661" lon="5.44537">
        <ele>1381.8</ele>
        <time>2021-10-09T08:36:36Z</time>
      </trkpt>
      <trkpt lat="44.88662" lon="5.44539">
        <ele>1381.8</ele>
        <time>2021-10-09T08:36:37Z</time>
      </trkpt>
      <trkpt lat="44.88666" lon="5.4454">
        <ele>1382</ele>
        <time>2021-10-09T08:36:38Z</time>
      </trkpt>
      <trkpt lat="44.88668" lon="5.44541">
        <ele>1382.2</ele>
        <time>2021-10-09T08:36:39Z</time>
      </trkpt>
      <trkpt lat="44.88671" lon="5.44542">
        <ele>1382.2</ele>
        <time>2021-10-09T08:36:40Z</time>
      </trkpt>
      <trkpt lat="44.88673" lon="5.44543">
        <ele>1382.2</ele>
        <time>2021-10-09T08:36:41Z</time>
      </trkpt>
      <trkpt lat="44.88674" lon="5.44543">
        <ele>1382.8</ele>
        <time>2021-10-09T08:36:42Z</time>
      </trkpt>
      <trkpt lat="44.88676" lon="5.44544">
        <ele>1382.8</ele>
        <time>2021-10-09T08:36:43Z</time>
      </trkpt>
      <trkpt lat="44.88678" lon="5.44545">
        <ele>1382.8</ele>
        <time>2021-10-09T08:36:44Z</time>
      </trkpt>
      <trkpt lat="44.8868" lon="5.44546">
        <ele>1382.8</ele>
        <time>2021-10-09T08:36:45Z</time>
      </trkpt>
      <trkpt lat="44.88683" lon="5.44547">
        <ele>1383.6</ele>
        <time>2021-10-09T08:36:46Z</time>
      </trkpt>
      <trkpt lat="44.88685" lon="5.44548">
        <ele>1383.4</ele>
        <time>2021-10-09T08:36:47Z</time>
      </trkpt>
      <trkpt lat="44.88687" lon="5.44548">
        <ele>1383.4</ele>
        <time>2021-10-09T08:36:48Z</time>
      </trkpt>
      <trkpt lat="44.88688" lon="5.44549">
        <ele>1383.4</ele>
        <time>2021-10-09T08:36:49Z</time>
      </trkpt>
      <trkpt lat="44.8869" lon="5.44551">
        <ele>1384.2</ele>
        <time>2021-10-09T08:36:50Z</time>
      </trkpt>
      <trkpt lat="44.88691" lon="5.44552">
        <ele>1384.4</ele>
        <time>2021-10-09T08:36:51Z</time>
      </trkpt>
      <trkpt lat="44.88692" lon="5.44552">
        <ele>1384.4</ele>
        <time>2021-10-09T08:36:52Z</time>
      </trkpt>
      <trkpt lat="44.88694" lon="5.44553">
        <ele>1384.4</ele>
        <time>2021-10-09T08:36:53Z</time>
      </trkpt>
      <trkpt lat="44.88696" lon="5.44554">
        <ele>1384.4</ele>
        <time>2021-10-09T08:36:54Z</time>
      </trkpt>
      <trkpt lat="44.88697" lon="5.44554">
        <ele>1384.8</ele>
        <time>2021-10-09T08:36:55Z</time>
      </trkpt>
      <trkpt lat="44.88698" lon="5.44554">
        <ele>1384.8</ele>
        <time>2021-10-09T08:36:56Z</time>
      </trkpt>
      <trkpt lat="44.88699" lon="5.44554">
        <ele>1384.8</ele>
        <time>2021-10-09T08:36:57Z</time>
      </trkpt>
      <trkpt lat="44.88701" lon="5.44554">
        <ele>1385.4</ele>
        <time>2021-10-09T08:36:58Z</time>
      </trkpt>
      <trkpt lat="44.88702" lon="5.44554">
        <ele>1386</ele>
        <time>2021-10-09T08:36:59Z</time>
      </trkpt>
      <trkpt lat="44.88704" lon="5.44553">
        <ele>1386</ele>
        <time>2021-10-09T08:37:00Z</time>
      </trkpt>
      <trkpt lat="44.88706" lon="5.44552">
        <ele>1386</ele>
        <time>2021-10-09T08:37:01Z</time>
      </trkpt>
      <trkpt lat="44.88708" lon="5.4455">
        <ele>1386</ele>
        <time>2021-10-09T08:37:02Z</time>
      </trkpt>
      <trkpt lat="44.88709" lon="5.44549">
        <ele>1386.8</ele>
        <time>2021-10-09T08:37:03Z</time>
      </trkpt>
      <trkpt lat="44.88711" lon="5.44548">
        <ele>1386.8</ele>
        <time>2021-10-09T08:37:04Z</time>
      </trkpt>
      <trkpt lat="44.88712" lon="5.44546">
        <ele>1386.8</ele>
        <time>2021-10-09T08:37:05Z</time>
      </trkpt>
      <trkpt lat="44.88712" lon="5.44545">
        <ele>1386.8</ele>
        <time>2021-10-09T08:37:06Z</time>
      </trkpt>
      <trkpt lat="44.88712" lon="5.44543">
        <ele>1387.4</ele>
        <time>2021-10-09T08:37:07Z</time>
      </trkpt>
      <trkpt lat="44.88712" lon="5.44541">
        <ele>1387.4</ele>
        <time>2021-10-09T08:37:08Z</time>
      </trkpt>
      <trkpt lat="44.88712" lon="5.44539">
        <ele>1387.4</ele>
        <time>2021-10-09T08:37:09Z</time>
      </trkpt>
      <trkpt lat="44.88711" lon="5.44537">
        <ele>1387.4</ele>
        <time>2021-10-09T08:37:10Z</time>
      </trkpt>
      <trkpt lat="44.8871" lon="5.44535">
        <ele>1387.4</ele>
        <time>2021-10-09T08:37:11Z</time>
      </trkpt>
      <trkpt lat="44.88709" lon="5.44533">
        <ele>1387.4</ele>
        <time>2021-10-09T08:37:12Z</time>
      </trkpt>
      <trkpt lat="44.88709" lon="5.4453">
        <ele>1387.4</ele>
        <time>2021-10-09T08:37:13Z</time>
      </trkpt>
      <trkpt lat="44.88708" lon="5.44528">
        <ele>1388</ele>
        <time>2021-10-09T08:37:14Z</time>
      </trkpt>
      <trkpt lat="44.88708" lon="5.44526">
        <ele>1388.4</ele>
        <time>2021-10-09T08:37:15Z</time>
      </trkpt>
      <trkpt lat="44.88708" lon="5.44524">
        <ele>1388.4</ele>
        <time>2021-10-09T08:37:16Z</time>
      </trkpt>
      <trkpt lat="44.88707" lon="5.44522">
        <ele>1388.4</ele>
        <time>2021-10-09T08:37:17Z</time>
      </trkpt>
      <trkpt lat="44.88706" lon="5.4452">
        <ele>1388.8</ele>
        <time>2021-10-09T08:37:18Z</time>
      </trkpt>
      <trkpt lat="44.88706" lon="5.44517">
        <ele>1389.4</ele>
        <time>2021-10-09T08:37:19Z</time>
      </trkpt>
      <trkpt lat="44.88706" lon="5.44514">
        <ele>1389.4</ele>
        <time>2021-10-09T08:37:20Z</time>
      </trkpt>
      <trkpt lat="44.88706" lon="5.44512">
        <ele>1389.4</ele>
        <time>2021-10-09T08:37:21Z</time>
      </trkpt>
      <trkpt lat="44.88707" lon="5.44509">
        <ele>1389.4</ele>
        <time>2021-10-09T08:37:22Z</time>
      </trkpt>
      <trkpt lat="44.88707" lon="5.44506">
        <ele>1390</ele>
        <time>2021-10-09T08:37:23Z</time>
      </trkpt>
      <trkpt lat="44.88707" lon="5.44503">
        <ele>1390</ele>
        <time>2021-10-09T08:37:24Z</time>
      </trkpt>
      <trkpt lat="44.88708" lon="5.445">
        <ele>1390</ele>
        <time>2021-10-09T08:37:25Z</time>
      </trkpt>
      <trkpt lat="44.88709" lon="5.44498">
        <ele>1390.8</ele>
        <time>2021-10-09T08:37:26Z</time>
      </trkpt>
      <trkpt lat="44.88711" lon="5.44496">
        <ele>1390.4</ele>
        <time>2021-10-09T08:37:27Z</time>
      </trkpt>
      <trkpt lat="44.88712" lon="5.44493">
        <ele>1390.4</ele>
        <time>2021-10-09T08:37:28Z</time>
      </trkpt>
      <trkpt lat="44.88714" lon="5.44492">
        <ele>1390.4</ele>
        <time>2021-10-09T08:37:29Z</time>
      </trkpt>
      <trkpt lat="44.88716" lon="5.44491">
        <ele>1391.4</ele>
        <time>2021-10-09T08:37:30Z</time>
      </trkpt>
      <trkpt lat="44.88718" lon="5.44491">
        <ele>1391.4</ele>
        <time>2021-10-09T08:37:31Z</time>
      </trkpt>
      <trkpt lat="44.8872" lon="5.44492">
        <ele>1391.4</ele>
        <time>2021-10-09T08:37:32Z</time>
      </trkpt>
      <trkpt lat="44.88724" lon="5.44494">
        <ele>1391.4</ele>
        <time>2021-10-09T08:37:33Z</time>
      </trkpt>
      <trkpt lat="44.88726" lon="5.44495">
        <ele>1392.2</ele>
        <time>2021-10-09T08:37:34Z</time>
      </trkpt>
      <trkpt lat="44.88728" lon="5.44497">
        <ele>1392.4</ele>
        <time>2021-10-09T08:37:35Z</time>
      </trkpt>
      <trkpt lat="44.8873" lon="5.44499">
        <ele>1392.4</ele>
        <time>2021-10-09T08:37:36Z</time>
      </trkpt>
      <trkpt lat="44.88731" lon="5.445">
        <ele>1392.4</ele>
        <time>2021-10-09T08:37:37Z</time>
      </trkpt>
      <trkpt lat="44.88733" lon="5.44502">
        <ele>1392.4</ele>
        <time>2021-10-09T08:37:38Z</time>
      </trkpt>
      <trkpt lat="44.88734" lon="5.44504">
        <ele>1392.8</ele>
        <time>2021-10-09T08:37:39Z</time>
      </trkpt>
      <trkpt lat="44.88736" lon="5.44506">
        <ele>1392.8</ele>
        <time>2021-10-09T08:37:40Z</time>
      </trkpt>
      <trkpt lat="44.88737" lon="5.44508">
        <ele>1392.8</ele>
        <time>2021-10-09T08:37:41Z</time>
      </trkpt>
      <trkpt lat="44.88738" lon="5.4451">
        <ele>1392.8</ele>
        <time>2021-10-09T08:37:42Z</time>
      </trkpt>
      <trkpt lat="44.88739" lon="5.44513">
        <ele>1393.4</ele>
        <time>2021-10-09T08:37:43Z</time>
      </trkpt>
      <trkpt lat="44.8874" lon="5.44515">
        <ele>1393.4</ele>
        <time>2021-10-09T08:37:44Z</time>
      </trkpt>
      <trkpt lat="44.88741" lon="5.44518">
        <ele>1393.4</ele>
        <time>2021-10-09T08:37:45Z</time>
      </trkpt>
      <trkpt lat="44.88743" lon="5.44521">
        <ele>1393.4</ele>
        <time>2021-10-09T08:37:46Z</time>
      </trkpt>
      <trkpt lat="44.88744" lon="5.44523">
        <ele>1393.6</ele>
        <time>2021-10-09T08:37:47Z</time>
      </trkpt>
      <trkpt lat="44.88745" lon="5.44526">
        <ele>1393.6</ele>
        <time>2021-10-09T08:37:48Z</time>
      </trkpt>
      <trkpt lat="44.88746" lon="5.44529">
        <ele>1393.6</ele>
        <time>2021-10-09T08:37:49Z</time>
      </trkpt>
      <trkpt lat="44.88747" lon="5.44532">
        <ele>1393.6</ele>
        <time>2021-10-09T08:37:50Z</time>
      </trkpt>
      <trkpt lat="44.88748" lon="5.44535">
        <ele>1393.6</ele>
        <time>2021-10-09T08:37:51Z</time>
      </trkpt>
      <trkpt lat="44.88749" lon="5.44538">
        <ele>1393.6</ele>
        <time>2021-10-09T08:37:52Z</time>
      </trkpt>
      <trkpt lat="44.8875" lon="5.44542">
        <ele>1393.6</ele>
        <time>2021-10-09T08:37:53Z</time>
      </trkpt>
      <trkpt lat="44.88751" lon="5.44545">
        <ele>1394</ele>
        <time>2021-10-09T08:37:54Z</time>
      </trkpt>
      <trkpt lat="44.88752" lon="5.44549">
        <ele>1394.2</ele>
        <time>2021-10-09T08:37:55Z</time>
      </trkpt>
      <trkpt lat="44.88752" lon="5.44552">
        <ele>1394.2</ele>
        <time>2021-10-09T08:37:56Z</time>
      </trkpt>
      <trkpt lat="44.88753" lon="5.44555">
        <ele>1394.2</ele>
        <time>2021-10-09T08:37:57Z</time>
      </trkpt>
      <trkpt lat="44.88753" lon="5.44558">
        <ele>1394.4</ele>
        <time>2021-10-09T08:37:58Z</time>
      </trkpt>
      <trkpt lat="44.88754" lon="5.44561">
        <ele>1394.2</ele>
        <time>2021-10-09T08:37:59Z</time>
      </trkpt>
      <trkpt lat="44.88755" lon="5.44564">
        <ele>1394.2</ele>
        <time>2021-10-09T08:38:00Z</time>
      </trkpt>
      <trkpt lat="44.88755" lon="5.44566">
        <ele>1394.2</ele>
        <time>2021-10-09T08:38:01Z</time>
      </trkpt>
      <trkpt lat="44.88755" lon="5.44569">
        <ele>1395</ele>
        <time>2021-10-09T08:38:02Z</time>
      </trkpt>
      <trkpt lat="44.88755" lon="5.44573">
        <ele>1395.2</ele>
        <time>2021-10-09T08:38:03Z</time>
      </trkpt>
      <trkpt lat="44.88755" lon="5.44576">
        <ele>1395.2</ele>
        <time>2021-10-09T08:38:04Z</time>
      </trkpt>
      <trkpt lat="44.88755" lon="5.44578">
        <ele>1395.2</ele>
        <time>2021-10-09T08:38:05Z</time>
      </trkpt>
      <trkpt lat="44.88755" lon="5.44582">
        <ele>1395.2</ele>
        <time>2021-10-09T08:38:06Z</time>
      </trkpt>
      <trkpt lat="44.88755" lon="5.44584">
        <ele>1395.8</ele>
        <time>2021-10-09T08:38:07Z</time>
      </trkpt>
      <trkpt lat="44.88756" lon="5.44588">
        <ele>1395.8</ele>
        <time>2021-10-09T08:38:08Z</time>
      </trkpt>
      <trkpt lat="44.88757" lon="5.44591">
        <ele>1395.8</ele>
        <time>2021-10-09T08:38:09Z</time>
      </trkpt>
      <trkpt lat="44.88757" lon="5.44595">
        <ele>1395.6</ele>
        <time>2021-10-09T08:38:10Z</time>
      </trkpt>
      <trkpt lat="44.88758" lon="5.44599">
        <ele>1395.4</ele>
        <time>2021-10-09T08:38:11Z</time>
      </trkpt>
      <trkpt lat="44.88758" lon="5.44602">
        <ele>1395.4</ele>
        <time>2021-10-09T08:38:12Z</time>
      </trkpt>
      <trkpt lat="44.88758" lon="5.44605">
        <ele>1395.4</ele>
        <time>2021-10-09T08:38:13Z</time>
      </trkpt>
      <trkpt lat="44.88759" lon="5.44609">
        <ele>1396.2</ele>
        <time>2021-10-09T08:38:14Z</time>
      </trkpt>
      <trkpt lat="44.88759" lon="5.44613">
        <ele>1396.4</ele>
        <time>2021-10-09T08:38:15Z</time>
      </trkpt>
      <trkpt lat="44.8876" lon="5.44617">
        <ele>1396.4</ele>
        <time>2021-10-09T08:38:16Z</time>
      </trkpt>
      <trkpt lat="44.88761" lon="5.44621">
        <ele>1396.4</ele>
        <time>2021-10-09T08:38:17Z</time>
      </trkpt>
      <trkpt lat="44.88761" lon="5.44625">
        <ele>1396.4</ele>
        <time>2021-10-09T08:38:18Z</time>
      </trkpt>
      <trkpt lat="44.88762" lon="5.44629">
        <ele>1396.4</ele>
        <time>2021-10-09T08:38:19Z</time>
      </trkpt>
      <trkpt lat="44.88762" lon="5.44633">
        <ele>1396.4</ele>
        <time>2021-10-09T08:38:20Z</time>
      </trkpt>
      <trkpt lat="44.88763" lon="5.44637">
        <ele>1396.4</ele>
        <time>2021-10-09T08:38:21Z</time>
      </trkpt>
      <trkpt lat="44.88763" lon="5.4464">
        <ele>1397</ele>
        <time>2021-10-09T08:38:22Z</time>
      </trkpt>
      <trkpt lat="44.88763" lon="5.44645">
        <ele>1397</ele>
        <time>2021-10-09T08:38:23Z</time>
      </trkpt>
      <trkpt lat="44.88764" lon="5.44649">
        <ele>1397</ele>
        <time>2021-10-09T08:38:24Z</time>
      </trkpt>
      <trkpt lat="44.88764" lon="5.44653">
        <ele>1397</ele>
        <time>2021-10-09T08:38:25Z</time>
      </trkpt>
      <trkpt lat="44.88764" lon="5.44656">
        <ele>1397.4</ele>
        <time>2021-10-09T08:38:26Z</time>
      </trkpt>
      <trkpt lat="44.88764" lon="5.4466">
        <ele>1397.8</ele>
        <time>2021-10-09T08:38:27Z</time>
      </trkpt>
      <trkpt lat="44.88764" lon="5.44664">
        <ele>1397.8</ele>
        <time>2021-10-09T08:38:28Z</time>
      </trkpt>
      <trkpt lat="44.88764" lon="5.44667">
        <ele>1397.8</ele>
        <time>2021-10-09T08:38:29Z</time>
      </trkpt>
      <trkpt lat="44.88764" lon="5.44671">
        <ele>1397.4</ele>
        <time>2021-10-09T08:38:30Z</time>
      </trkpt>
      <trkpt lat="44.88764" lon="5.44676">
        <ele>1397.4</ele>
        <time>2021-10-09T08:38:31Z</time>
      </trkpt>
      <trkpt lat="44.88764" lon="5.4468">
        <ele>1397.4</ele>
        <time>2021-10-09T08:38:32Z</time>
      </trkpt>
      <trkpt lat="44.88764" lon="5.44684">
        <ele>1397.4</ele>
        <time>2021-10-09T08:38:33Z</time>
      </trkpt>
      <trkpt lat="44.88764" lon="5.44688">
        <ele>1397.8</ele>
        <time>2021-10-09T08:38:34Z</time>
      </trkpt>
      <trkpt lat="44.88765" lon="5.44693">
        <ele>1398</ele>
        <time>2021-10-09T08:38:35Z</time>
      </trkpt>
      <trkpt lat="44.88765" lon="5.44697">
        <ele>1398</ele>
        <time>2021-10-09T08:38:36Z</time>
      </trkpt>
      <trkpt lat="44.88765" lon="5.44702">
        <ele>1398</ele>
        <time>2021-10-09T08:38:37Z</time>
      </trkpt>
      <trkpt lat="44.88765" lon="5.44706">
        <ele>1398</ele>
        <time>2021-10-09T08:38:38Z</time>
      </trkpt>
      <trkpt lat="44.88765" lon="5.4471">
        <ele>1398.4</ele>
        <time>2021-10-09T08:38:39Z</time>
      </trkpt>
      <trkpt lat="44.88764" lon="5.44714">
        <ele>1398.4</ele>
        <time>2021-10-09T08:38:40Z</time>
      </trkpt>
      <trkpt lat="44.88764" lon="5.44718">
        <ele>1398.4</ele>
        <time>2021-10-09T08:38:41Z</time>
      </trkpt>
      <trkpt lat="44.88763" lon="5.44722">
        <ele>1398.4</ele>
        <time>2021-10-09T08:38:42Z</time>
      </trkpt>
      <trkpt lat="44.88763" lon="5.44727">
        <ele>1398.8</ele>
        <time>2021-10-09T08:38:43Z</time>
      </trkpt>
      <trkpt lat="44.88763" lon="5.44731">
        <ele>1398.8</ele>
        <time>2021-10-09T08:38:44Z</time>
      </trkpt>
      <trkpt lat="44.88764" lon="5.44735">
        <ele>1398.8</ele>
        <time>2021-10-09T08:38:45Z</time>
      </trkpt>
      <trkpt lat="44.88764" lon="5.44739">
        <ele>1398.8</ele>
        <time>2021-10-09T08:38:46Z</time>
      </trkpt>
      <trkpt lat="44.88764" lon="5.44743">
        <ele>1398.6</ele>
        <time>2021-10-09T08:38:47Z</time>
      </trkpt>
      <trkpt lat="44.88765" lon="5.44748">
        <ele>1398.6</ele>
        <time>2021-10-09T08:38:48Z</time>
      </trkpt>
      <trkpt lat="44.88767" lon="5.44752">
        <ele>1398.6</ele>
        <time>2021-10-09T08:38:49Z</time>
      </trkpt>
      <trkpt lat="44.88768" lon="5.44756">
        <ele>1398.6</ele>
        <time>2021-10-09T08:38:50Z</time>
      </trkpt>
      <trkpt lat="44.8877" lon="5.44759">
        <ele>1399</ele>
        <time>2021-10-09T08:38:51Z</time>
      </trkpt>
      <trkpt lat="44.88772" lon="5.44762">
        <ele>1399</ele>
        <time>2021-10-09T08:38:52Z</time>
      </trkpt>
      <trkpt lat="44.88774" lon="5.44765">
        <ele>1399</ele>
        <time>2021-10-09T08:38:53Z</time>
      </trkpt>
      <trkpt lat="44.88776" lon="5.44768">
        <ele>1399</ele>
        <time>2021-10-09T08:38:54Z</time>
      </trkpt>
      <trkpt lat="44.88778" lon="5.4477">
        <ele>1399.4</ele>
        <time>2021-10-09T08:38:55Z</time>
      </trkpt>
      <trkpt lat="44.88781" lon="5.44773">
        <ele>1399.4</ele>
        <time>2021-10-09T08:38:56Z</time>
      </trkpt>
      <trkpt lat="44.88783" lon="5.44775">
        <ele>1399.4</ele>
        <time>2021-10-09T08:38:57Z</time>
      </trkpt>
      <trkpt lat="44.88786" lon="5.44777">
        <ele>1400</ele>
        <time>2021-10-09T08:38:58Z</time>
      </trkpt>
      <trkpt lat="44.88789" lon="5.44779">
        <ele>1400.2</ele>
        <time>2021-10-09T08:38:59Z</time>
      </trkpt>
      <trkpt lat="44.88791" lon="5.44781">
        <ele>1400.2</ele>
        <time>2021-10-09T08:39:00Z</time>
      </trkpt>
      <trkpt lat="44.88794" lon="5.44783">
        <ele>1400.2</ele>
        <time>2021-10-09T08:39:01Z</time>
      </trkpt>
      <trkpt lat="44.88797" lon="5.44785">
        <ele>1400.2</ele>
        <time>2021-10-09T08:39:02Z</time>
      </trkpt>
      <trkpt lat="44.888" lon="5.44787">
        <ele>1400.2</ele>
        <time>2021-10-09T08:39:03Z</time>
      </trkpt>
      <trkpt lat="44.88803" lon="5.4479">
        <ele>1400.2</ele>
        <time>2021-10-09T08:39:04Z</time>
      </trkpt>
      <trkpt lat="44.88807" lon="5.44792">
        <ele>1400.2</ele>
        <time>2021-10-09T08:39:05Z</time>
      </trkpt>
      <trkpt lat="44.8881" lon="5.44795">
        <ele>1401</ele>
        <time>2021-10-09T08:39:06Z</time>
      </trkpt>
      <trkpt lat="44.88813" lon="5.44797">
        <ele>1401</ele>
        <time>2021-10-09T08:39:07Z</time>
      </trkpt>
      <trkpt lat="44.88816" lon="5.44799">
        <ele>1401</ele>
        <time>2021-10-09T08:39:08Z</time>
      </trkpt>
      <trkpt lat="44.88819" lon="5.44802">
        <ele>1401</ele>
        <time>2021-10-09T08:39:09Z</time>
      </trkpt>
      <trkpt lat="44.88823" lon="5.44805">
        <ele>1401</ele>
        <time>2021-10-09T08:39:10Z</time>
      </trkpt>
      <trkpt lat="44.88826" lon="5.44808">
        <ele>1401</ele>
        <time>2021-10-09T08:39:11Z</time>
      </trkpt>
      <trkpt lat="44.88829" lon="5.4481">
        <ele>1401</ele>
        <time>2021-10-09T08:39:12Z</time>
      </trkpt>
      <trkpt lat="44.88832" lon="5.44813">
        <ele>1401</ele>
        <time>2021-10-09T08:39:13Z</time>
      </trkpt>
      <trkpt lat="44.88836" lon="5.44816">
        <ele>1401</ele>
        <time>2021-10-09T08:39:14Z</time>
      </trkpt>
      <trkpt lat="44.88839" lon="5.44819">
        <ele>1400.8</ele>
        <time>2021-10-09T08:39:15Z</time>
      </trkpt>
      <trkpt lat="44.88842" lon="5.44822">
        <ele>1400.8</ele>
        <time>2021-10-09T08:39:16Z</time>
      </trkpt>
      <trkpt lat="44.88845" lon="5.44825">
        <ele>1400.8</ele>
        <time>2021-10-09T08:39:17Z</time>
      </trkpt>
      <trkpt lat="44.88847" lon="5.44829">
        <ele>1401.4</ele>
        <time>2021-10-09T08:39:18Z</time>
      </trkpt>
      <trkpt lat="44.8885" lon="5.44832">
        <ele>1401.4</ele>
        <time>2021-10-09T08:39:19Z</time>
      </trkpt>
      <trkpt lat="44.88852" lon="5.44836">
        <ele>1401.4</ele>
        <time>2021-10-09T08:39:20Z</time>
      </trkpt>
      <trkpt lat="44.88854" lon="5.44839">
        <ele>1401.4</ele>
        <time>2021-10-09T08:39:21Z</time>
      </trkpt>
      <trkpt lat="44.88856" lon="5.44843">
        <ele>1402.4</ele>
        <time>2021-10-09T08:39:22Z</time>
      </trkpt>
      <trkpt lat="44.88857" lon="5.44846">
        <ele>1403</ele>
        <time>2021-10-09T08:39:23Z</time>
      </trkpt>
      <trkpt lat="44.88858" lon="5.44849">
        <ele>1403</ele>
        <time>2021-10-09T08:39:24Z</time>
      </trkpt>
      <trkpt lat="44.88859" lon="5.44853">
        <ele>1403</ele>
        <time>2021-10-09T08:39:25Z</time>
      </trkpt>
      <trkpt lat="44.88859" lon="5.44855">
        <ele>1403.4</ele>
        <time>2021-10-09T08:39:26Z</time>
      </trkpt>
      <trkpt lat="44.8886" lon="5.44858">
        <ele>1404.2</ele>
        <time>2021-10-09T08:39:27Z</time>
      </trkpt>
      <trkpt lat="44.88861" lon="5.44861">
        <ele>1404.2</ele>
        <time>2021-10-09T08:39:28Z</time>
      </trkpt>
      <trkpt lat="44.88862" lon="5.44864">
        <ele>1404.2</ele>
        <time>2021-10-09T08:39:29Z</time>
      </trkpt>
      <trkpt lat="44.88863" lon="5.44866">
        <ele>1404.2</ele>
        <time>2021-10-09T08:39:30Z</time>
      </trkpt>
      <trkpt lat="44.88865" lon="5.44868">
        <ele>1404.4</ele>
        <time>2021-10-09T08:39:31Z</time>
      </trkpt>
      <trkpt lat="44.88866" lon="5.44871">
        <ele>1404.4</ele>
        <time>2021-10-09T08:39:32Z</time>
      </trkpt>
      <trkpt lat="44.88868" lon="5.44873">
        <ele>1404.4</ele>
        <time>2021-10-09T08:39:33Z</time>
      </trkpt>
      <trkpt lat="44.88869" lon="5.44875">
        <ele>1405.4</ele>
        <time>2021-10-09T08:39:34Z</time>
      </trkpt>
      <trkpt lat="44.88871" lon="5.44878">
        <ele>1406</ele>
        <time>2021-10-09T08:39:35Z</time>
      </trkpt>
      <trkpt lat="44.88872" lon="5.44881">
        <ele>1406</ele>
        <time>2021-10-09T08:39:36Z</time>
      </trkpt>
      <trkpt lat="44.88873" lon="5.44883">
        <ele>1406</ele>
        <time>2021-10-09T08:39:37Z</time>
      </trkpt>
      <trkpt lat="44.88875" lon="5.44886">
        <ele>1406</ele>
        <time>2021-10-09T08:39:38Z</time>
      </trkpt>
      <trkpt lat="44.88876" lon="5.44888">
        <ele>1406.6</ele>
        <time>2021-10-09T08:39:39Z</time>
      </trkpt>
      <trkpt lat="44.88878" lon="5.4489">
        <ele>1406.6</ele>
        <time>2021-10-09T08:39:40Z</time>
      </trkpt>
      <trkpt lat="44.88879" lon="5.44892">
        <ele>1406.6</ele>
        <time>2021-10-09T08:39:41Z</time>
      </trkpt>
      <trkpt lat="44.88881" lon="5.44895">
        <ele>1406.6</ele>
        <time>2021-10-09T08:39:42Z</time>
      </trkpt>
      <trkpt lat="44.88883" lon="5.44898">
        <ele>1407.2</ele>
        <time>2021-10-09T08:39:43Z</time>
      </trkpt>
      <trkpt lat="44.88884" lon="5.449">
        <ele>1407.2</ele>
        <time>2021-10-09T08:39:44Z</time>
      </trkpt>
      <trkpt lat="44.88887" lon="5.44902">
        <ele>1407.2</ele>
        <time>2021-10-09T08:39:45Z</time>
      </trkpt>
      <trkpt lat="44.88889" lon="5.44904">
        <ele>1407.2</ele>
        <time>2021-10-09T08:39:46Z</time>
      </trkpt>
      <trkpt lat="44.88891" lon="5.44905">
        <ele>1407.6</ele>
        <time>2021-10-09T08:39:47Z</time>
      </trkpt>
      <trkpt lat="44.88893" lon="5.44905">
        <ele>1407.6</ele>
        <time>2021-10-09T08:39:48Z</time>
      </trkpt>
      <trkpt lat="44.88895" lon="5.44906">
        <ele>1407.6</ele>
        <time>2021-10-09T08:39:49Z</time>
      </trkpt>
      <trkpt lat="44.88898" lon="5.44906">
        <ele>1407.8</ele>
        <time>2021-10-09T08:39:50Z</time>
      </trkpt>
      <trkpt lat="44.889" lon="5.44907">
        <ele>1408</ele>
        <time>2021-10-09T08:39:51Z</time>
      </trkpt>
      <trkpt lat="44.88903" lon="5.44908">
        <ele>1408</ele>
        <time>2021-10-09T08:39:52Z</time>
      </trkpt>
      <trkpt lat="44.88905" lon="5.44909">
        <ele>1408</ele>
        <time>2021-10-09T08:39:53Z</time>
      </trkpt>
      <trkpt lat="44.88907" lon="5.44911">
        <ele>1408</ele>
        <time>2021-10-09T08:39:54Z</time>
      </trkpt>
      <trkpt lat="44.8891" lon="5.44913">
        <ele>1408.4</ele>
        <time>2021-10-09T08:39:55Z</time>
      </trkpt>
      <trkpt lat="44.88912" lon="5.44915">
        <ele>1408.4</ele>
        <time>2021-10-09T08:39:56Z</time>
      </trkpt>
      <trkpt lat="44.88913" lon="5.44918">
        <ele>1408.4</ele>
        <time>2021-10-09T08:39:57Z</time>
      </trkpt>
      <trkpt lat="44.88914" lon="5.44921">
        <ele>1409.2</ele>
        <time>2021-10-09T08:39:58Z</time>
      </trkpt>
      <trkpt lat="44.88915" lon="5.44924">
        <ele>1409.6</ele>
        <time>2021-10-09T08:39:59Z</time>
      </trkpt>
      <trkpt lat="44.88915" lon="5.44927">
        <ele>1409.6</ele>
        <time>2021-10-09T08:40:00Z</time>
      </trkpt>
      <trkpt lat="44.88916" lon="5.4493">
        <ele>1409.6</ele>
        <time>2021-10-09T08:40:01Z</time>
      </trkpt>
      <trkpt lat="44.88916" lon="5.44933">
        <ele>1409.6</ele>
        <time>2021-10-09T08:40:02Z</time>
      </trkpt>
      <trkpt lat="44.88917" lon="5.44936">
        <ele>1410.2</ele>
        <time>2021-10-09T08:40:03Z</time>
      </trkpt>
      <trkpt lat="44.88917" lon="5.44939">
        <ele>1410.2</ele>
        <time>2021-10-09T08:40:04Z</time>
      </trkpt>
      <trkpt lat="44.88917" lon="5.44942">
        <ele>1410.2</ele>
        <time>2021-10-09T08:40:05Z</time>
      </trkpt>
      <trkpt lat="44.88917" lon="5.44945">
        <ele>1410.2</ele>
        <time>2021-10-09T08:40:06Z</time>
      </trkpt>
      <trkpt lat="44.88918" lon="5.44948">
        <ele>1410.8</ele>
        <time>2021-10-09T08:40:07Z</time>
      </trkpt>
      <trkpt lat="44.88918" lon="5.44951">
        <ele>1410.8</ele>
        <time>2021-10-09T08:40:08Z</time>
      </trkpt>
      <trkpt lat="44.88919" lon="5.44955">
        <ele>1410.8</ele>
        <time>2021-10-09T08:40:09Z</time>
      </trkpt>
      <trkpt lat="44.8892" lon="5.44958">
        <ele>1411.2</ele>
        <time>2021-10-09T08:40:10Z</time>
      </trkpt>
      <trkpt lat="44.8892" lon="5.44961">
        <ele>1411.2</ele>
        <time>2021-10-09T08:40:11Z</time>
      </trkpt>
      <trkpt lat="44.88921" lon="5.44964">
        <ele>1411.2</ele>
        <time>2021-10-09T08:40:12Z</time>
      </trkpt>
      <trkpt lat="44.88922" lon="5.44967">
        <ele>1411.2</ele>
        <time>2021-10-09T08:40:13Z</time>
      </trkpt>
      <trkpt lat="44.88923" lon="5.4497">
        <ele>1411.6</ele>
        <time>2021-10-09T08:40:14Z</time>
      </trkpt>
      <trkpt lat="44.88923" lon="5.44973">
        <ele>1411.4</ele>
        <time>2021-10-09T08:40:15Z</time>
      </trkpt>
      <trkpt lat="44.88926" lon="5.44975">
        <ele>1411.4</ele>
        <time>2021-10-09T08:40:16Z</time>
      </trkpt>
      <trkpt lat="44.88927" lon="5.44978">
        <ele>1411.4</ele>
        <time>2021-10-09T08:40:17Z</time>
      </trkpt>
      <trkpt lat="44.88927" lon="5.44981">
        <ele>1412.4</ele>
        <time>2021-10-09T08:40:18Z</time>
      </trkpt>
      <trkpt lat="44.88927" lon="5.44984">
        <ele>1413</ele>
        <time>2021-10-09T08:40:19Z</time>
      </trkpt>
      <trkpt lat="44.88928" lon="5.44987">
        <ele>1413</ele>
        <time>2021-10-09T08:40:20Z</time>
      </trkpt>
      <trkpt lat="44.88928" lon="5.44991">
        <ele>1413</ele>
        <time>2021-10-09T08:40:21Z</time>
      </trkpt>
      <trkpt lat="44.88929" lon="5.44994">
        <ele>1413</ele>
        <time>2021-10-09T08:40:22Z</time>
      </trkpt>
      <trkpt lat="44.88929" lon="5.44997">
        <ele>1413.4</ele>
        <time>2021-10-09T08:40:23Z</time>
      </trkpt>
      <trkpt lat="44.88929" lon="5.45">
        <ele>1413.4</ele>
        <time>2021-10-09T08:40:24Z</time>
      </trkpt>
      <trkpt lat="44.88929" lon="5.45004">
        <ele>1413.4</ele>
        <time>2021-10-09T08:40:25Z</time>
      </trkpt>
      <trkpt lat="44.8893" lon="5.45007">
        <ele>1413.4</ele>
        <time>2021-10-09T08:40:26Z</time>
      </trkpt>
      <trkpt lat="44.8893" lon="5.4501">
        <ele>1414</ele>
        <time>2021-10-09T08:40:27Z</time>
      </trkpt>
      <trkpt lat="44.8893" lon="5.45013">
        <ele>1414</ele>
        <time>2021-10-09T08:40:28Z</time>
      </trkpt>
      <trkpt lat="44.88931" lon="5.45016">
        <ele>1414</ele>
        <time>2021-10-09T08:40:29Z</time>
      </trkpt>
      <trkpt lat="44.88931" lon="5.4502">
        <ele>1414.6</ele>
        <time>2021-10-09T08:40:30Z</time>
      </trkpt>
      <trkpt lat="44.88932" lon="5.45023">
        <ele>1414.4</ele>
        <time>2021-10-09T08:40:31Z</time>
      </trkpt>
      <trkpt lat="44.88932" lon="5.45027">
        <ele>1414.4</ele>
        <time>2021-10-09T08:40:32Z</time>
      </trkpt>
      <trkpt lat="44.88932" lon="5.4503">
        <ele>1414.4</ele>
        <time>2021-10-09T08:40:33Z</time>
      </trkpt>
      <trkpt lat="44.88933" lon="5.45033">
        <ele>1415.2</ele>
        <time>2021-10-09T08:40:34Z</time>
      </trkpt>
      <trkpt lat="44.88933" lon="5.45037">
        <ele>1415.2</ele>
        <time>2021-10-09T08:40:35Z</time>
      </trkpt>
      <trkpt lat="44.88934" lon="5.4504">
        <ele>1415.2</ele>
        <time>2021-10-09T08:40:36Z</time>
      </trkpt>
      <trkpt lat="44.88934" lon="5.45043">
        <ele>1415.2</ele>
        <time>2021-10-09T08:40:37Z</time>
      </trkpt>
      <trkpt lat="44.88935" lon="5.45047">
        <ele>1416</ele>
        <time>2021-10-09T08:40:38Z</time>
      </trkpt>
      <trkpt lat="44.88936" lon="5.45049">
        <ele>1416.2</ele>
        <time>2021-10-09T08:40:39Z</time>
      </trkpt>
      <trkpt lat="44.88937" lon="5.45052">
        <ele>1416.2</ele>
        <time>2021-10-09T08:40:40Z</time>
      </trkpt>
      <trkpt lat="44.88939" lon="5.45055">
        <ele>1416.2</ele>
        <time>2021-10-09T08:40:41Z</time>
      </trkpt>
      <trkpt lat="44.8894" lon="5.45057">
        <ele>1416.2</ele>
        <time>2021-10-09T08:40:42Z</time>
      </trkpt>
      <trkpt lat="44.88942" lon="5.45059">
        <ele>1417</ele>
        <time>2021-10-09T08:40:43Z</time>
      </trkpt>
      <trkpt lat="44.88944" lon="5.45061">
        <ele>1417</ele>
        <time>2021-10-09T08:40:44Z</time>
      </trkpt>
      <trkpt lat="44.88946" lon="5.45062">
        <ele>1417</ele>
        <time>2021-10-09T08:40:45Z</time>
      </trkpt>
      <trkpt lat="44.88948" lon="5.45062">
        <ele>1417.6</ele>
        <time>2021-10-09T08:40:46Z</time>
      </trkpt>
      <trkpt lat="44.8895" lon="5.45063">
        <ele>1417.4</ele>
        <time>2021-10-09T08:40:47Z</time>
      </trkpt>
      <trkpt lat="44.88952" lon="5.45063">
        <ele>1417.4</ele>
        <time>2021-10-09T08:40:48Z</time>
      </trkpt>
      <trkpt lat="44.88953" lon="5.45063">
        <ele>1417.4</ele>
        <time>2021-10-09T08:40:49Z</time>
      </trkpt>
      <trkpt lat="44.88956" lon="5.45064">
        <ele>1417.4</ele>
        <time>2021-10-09T08:40:50Z</time>
      </trkpt>
      <trkpt lat="44.88958" lon="5.45064">
        <ele>1418.2</ele>
        <time>2021-10-09T08:40:51Z</time>
      </trkpt>
      <trkpt lat="44.8896" lon="5.45066">
        <ele>1418.2</ele>
        <time>2021-10-09T08:40:52Z</time>
      </trkpt>
      <trkpt lat="44.88962" lon="5.45067">
        <ele>1418.2</ele>
        <time>2021-10-09T08:40:53Z</time>
      </trkpt>
      <trkpt lat="44.88964" lon="5.45069">
        <ele>1418.2</ele>
        <time>2021-10-09T08:40:54Z</time>
      </trkpt>
      <trkpt lat="44.88966" lon="5.45071">
        <ele>1418.6</ele>
        <time>2021-10-09T08:40:55Z</time>
      </trkpt>
      <trkpt lat="44.88968" lon="5.45073">
        <ele>1418.6</ele>
        <time>2021-10-09T08:40:56Z</time>
      </trkpt>
      <trkpt lat="44.88969" lon="5.45076">
        <ele>1418.6</ele>
        <time>2021-10-09T08:40:57Z</time>
      </trkpt>
      <trkpt lat="44.8897" lon="5.45079">
        <ele>1419.4</ele>
        <time>2021-10-09T08:40:58Z</time>
      </trkpt>
      <trkpt lat="44.8897" lon="5.45082">
        <ele>1419.8</ele>
        <time>2021-10-09T08:40:59Z</time>
      </trkpt>
      <trkpt lat="44.8897" lon="5.45084">
        <ele>1419.8</ele>
        <time>2021-10-09T08:41:00Z</time>
      </trkpt>
      <trkpt lat="44.8897" lon="5.45087">
        <ele>1419.8</ele>
        <time>2021-10-09T08:41:01Z</time>
      </trkpt>
      <trkpt lat="44.8897" lon="5.4509">
        <ele>1419.8</ele>
        <time>2021-10-09T08:41:02Z</time>
      </trkpt>
      <trkpt lat="44.88971" lon="5.45093">
        <ele>1420.6</ele>
        <time>2021-10-09T08:41:03Z</time>
      </trkpt>
      <trkpt lat="44.88971" lon="5.45096">
        <ele>1420.6</ele>
        <time>2021-10-09T08:41:04Z</time>
      </trkpt>
      <trkpt lat="44.88971" lon="5.45099">
        <ele>1420.6</ele>
        <time>2021-10-09T08:41:05Z</time>
      </trkpt>
      <trkpt lat="44.88971" lon="5.45102">
        <ele>1421</ele>
        <time>2021-10-09T08:41:06Z</time>
      </trkpt>
      <trkpt lat="44.8897" lon="5.45104">
        <ele>1421.4</ele>
        <time>2021-10-09T08:41:07Z</time>
      </trkpt>
      <trkpt lat="44.8897" lon="5.45107">
        <ele>1421.4</ele>
        <time>2021-10-09T08:41:08Z</time>
      </trkpt>
      <trkpt lat="44.8897" lon="5.4511">
        <ele>1421.4</ele>
        <time>2021-10-09T08:41:09Z</time>
      </trkpt>
      <trkpt lat="44.88969" lon="5.45113">
        <ele>1422</ele>
        <time>2021-10-09T08:41:10Z</time>
      </trkpt>
      <trkpt lat="44.88969" lon="5.45115">
        <ele>1422</ele>
        <time>2021-10-09T08:41:11Z</time>
      </trkpt>
      <trkpt lat="44.88969" lon="5.45118">
        <ele>1422</ele>
        <time>2021-10-09T08:41:12Z</time>
      </trkpt>
      <trkpt lat="44.88969" lon="5.45122">
        <ele>1422</ele>
        <time>2021-10-09T08:41:13Z</time>
      </trkpt>
      <trkpt lat="44.88969" lon="5.45126">
        <ele>1423</ele>
        <time>2021-10-09T08:41:14Z</time>
      </trkpt>
      <trkpt lat="44.88969" lon="5.4513">
        <ele>1422.4</ele>
        <time>2021-10-09T08:41:15Z</time>
      </trkpt>
      <trkpt lat="44.88968" lon="5.45133">
        <ele>1422.4</ele>
        <time>2021-10-09T08:41:16Z</time>
      </trkpt>
      <trkpt lat="44.88969" lon="5.45137">
        <ele>1422.4</ele>
        <time>2021-10-09T08:41:17Z</time>
      </trkpt>
      <trkpt lat="44.88969" lon="5.45141">
        <ele>1423.4</ele>
        <time>2021-10-09T08:41:18Z</time>
      </trkpt>
      <trkpt lat="44.88969" lon="5.45144">
        <ele>1423.6</ele>
        <time>2021-10-09T08:41:19Z</time>
      </trkpt>
      <trkpt lat="44.88969" lon="5.45147">
        <ele>1423.6</ele>
        <time>2021-10-09T08:41:20Z</time>
      </trkpt>
      <trkpt lat="44.88969" lon="5.45151">
        <ele>1423.6</ele>
        <time>2021-10-09T08:41:21Z</time>
      </trkpt>
      <trkpt lat="44.88969" lon="5.45154">
        <ele>1423.6</ele>
        <time>2021-10-09T08:41:22Z</time>
      </trkpt>
      <trkpt lat="44.88969" lon="5.45157">
        <ele>1424.2</ele>
        <time>2021-10-09T08:41:23Z</time>
      </trkpt>
      <trkpt lat="44.88969" lon="5.4516">
        <ele>1424.2</ele>
        <time>2021-10-09T08:41:24Z</time>
      </trkpt>
      <trkpt lat="44.8897" lon="5.45163">
        <ele>1424.2</ele>
        <time>2021-10-09T08:41:25Z</time>
      </trkpt>
      <trkpt lat="44.8897" lon="5.45166">
        <ele>1424.2</ele>
        <time>2021-10-09T08:41:26Z</time>
      </trkpt>
      <trkpt lat="44.8897" lon="5.45169">
        <ele>1424.8</ele>
        <time>2021-10-09T08:41:27Z</time>
      </trkpt>
      <trkpt lat="44.8897" lon="5.45173">
        <ele>1424.8</ele>
        <time>2021-10-09T08:41:28Z</time>
      </trkpt>
      <trkpt lat="44.8897" lon="5.45176">
        <ele>1424.8</ele>
        <time>2021-10-09T08:41:29Z</time>
      </trkpt>
      <trkpt lat="44.8897" lon="5.45179">
        <ele>1424.8</ele>
        <time>2021-10-09T08:41:30Z</time>
      </trkpt>
      <trkpt lat="44.88969" lon="5.45182">
        <ele>1425.2</ele>
        <time>2021-10-09T08:41:31Z</time>
      </trkpt>
      <trkpt lat="44.88969" lon="5.45185">
        <ele>1425.2</ele>
        <time>2021-10-09T08:41:32Z</time>
      </trkpt>
      <trkpt lat="44.88969" lon="5.45189">
        <ele>1425.2</ele>
        <time>2021-10-09T08:41:33Z</time>
      </trkpt>
      <trkpt lat="44.88968" lon="5.45192">
        <ele>1426.2</ele>
        <time>2021-10-09T08:41:34Z</time>
      </trkpt>
      <trkpt lat="44.88968" lon="5.45195">
        <ele>1426.4</ele>
        <time>2021-10-09T08:41:35Z</time>
      </trkpt>
      <trkpt lat="44.88967" lon="5.45198">
        <ele>1426.4</ele>
        <time>2021-10-09T08:41:36Z</time>
      </trkpt>
      <trkpt lat="44.88967" lon="5.452">
        <ele>1426.4</ele>
        <time>2021-10-09T08:41:37Z</time>
      </trkpt>
      <trkpt lat="44.88966" lon="5.45203">
        <ele>1426.8</ele>
        <time>2021-10-09T08:41:38Z</time>
      </trkpt>
      <trkpt lat="44.88966" lon="5.45206">
        <ele>1427.2</ele>
        <time>2021-10-09T08:41:39Z</time>
      </trkpt>
      <trkpt lat="44.88965" lon="5.45208">
        <ele>1427.2</ele>
        <time>2021-10-09T08:41:40Z</time>
      </trkpt>
      <trkpt lat="44.88964" lon="5.45211">
        <ele>1427.2</ele>
        <time>2021-10-09T08:41:41Z</time>
      </trkpt>
      <trkpt lat="44.88964" lon="5.45214">
        <ele>1427.4</ele>
        <time>2021-10-09T08:41:42Z</time>
      </trkpt>
      <trkpt lat="44.88964" lon="5.45217">
        <ele>1427.8</ele>
        <time>2021-10-09T08:41:43Z</time>
      </trkpt>
      <trkpt lat="44.88964" lon="5.4522">
        <ele>1427.8</ele>
        <time>2021-10-09T08:41:44Z</time>
      </trkpt>
      <trkpt lat="44.88963" lon="5.45223">
        <ele>1427.8</ele>
        <time>2021-10-09T08:41:45Z</time>
      </trkpt>
      <trkpt lat="44.88963" lon="5.45227">
        <ele>1427.8</ele>
        <time>2021-10-09T08:41:46Z</time>
      </trkpt>
      <trkpt lat="44.88964" lon="5.4523">
        <ele>1428.6</ele>
        <time>2021-10-09T08:41:47Z</time>
      </trkpt>
      <trkpt lat="44.88964" lon="5.45233">
        <ele>1428.6</ele>
        <time>2021-10-09T08:41:48Z</time>
      </trkpt>
      <trkpt lat="44.88964" lon="5.45237">
        <ele>1428.6</ele>
        <time>2021-10-09T08:41:49Z</time>
      </trkpt>
      <trkpt lat="44.88964" lon="5.4524">
        <ele>1428.6</ele>
        <time>2021-10-09T08:41:50Z</time>
      </trkpt>
      <trkpt lat="44.88963" lon="5.45244">
        <ele>1429</ele>
        <time>2021-10-09T08:41:51Z</time>
      </trkpt>
      <trkpt lat="44.88963" lon="5.45247">
        <ele>1429</ele>
        <time>2021-10-09T08:41:52Z</time>
      </trkpt>
      <trkpt lat="44.88963" lon="5.45251">
        <ele>1429</ele>
        <time>2021-10-09T08:41:53Z</time>
      </trkpt>
      <trkpt lat="44.88963" lon="5.45254">
        <ele>1429</ele>
        <time>2021-10-09T08:41:54Z</time>
      </trkpt>
      <trkpt lat="44.88962" lon="5.45257">
        <ele>1430.2</ele>
        <time>2021-10-09T08:41:55Z</time>
      </trkpt>
      <trkpt lat="44.88962" lon="5.4526">
        <ele>1430.2</ele>
        <time>2021-10-09T08:41:56Z</time>
      </trkpt>
      <trkpt lat="44.88962" lon="5.45264">
        <ele>1430.2</ele>
        <time>2021-10-09T08:41:57Z</time>
      </trkpt>
      <trkpt lat="44.88962" lon="5.45267">
        <ele>1430.2</ele>
        <time>2021-10-09T08:41:58Z</time>
      </trkpt>
      <trkpt lat="44.88961" lon="5.4527">
        <ele>1430</ele>
        <time>2021-10-09T08:41:59Z</time>
      </trkpt>
      <trkpt lat="44.88961" lon="5.45273">
        <ele>1430</ele>
        <time>2021-10-09T08:42:00Z</time>
      </trkpt>
      <trkpt lat="44.8896" lon="5.45276">
        <ele>1430</ele>
        <time>2021-10-09T08:42:01Z</time>
      </trkpt>
      <trkpt lat="44.8896" lon="5.45279">
        <ele>1430</ele>
        <time>2021-10-09T08:42:02Z</time>
      </trkpt>
      <trkpt lat="44.8896" lon="5.45283">
        <ele>1430.6</ele>
        <time>2021-10-09T08:42:03Z</time>
      </trkpt>
      <trkpt lat="44.88959" lon="5.45286">
        <ele>1430.6</ele>
        <time>2021-10-09T08:42:04Z</time>
      </trkpt>
      <trkpt lat="44.88959" lon="5.45289">
        <ele>1430.6</ele>
        <time>2021-10-09T08:42:05Z</time>
      </trkpt>
      <trkpt lat="44.88958" lon="5.45292">
        <ele>1430.6</ele>
        <time>2021-10-09T08:42:06Z</time>
      </trkpt>
      <trkpt lat="44.88957" lon="5.45296">
        <ele>1431</ele>
        <time>2021-10-09T08:42:07Z</time>
      </trkpt>
      <trkpt lat="44.88956" lon="5.45299">
        <ele>1431</ele>
        <time>2021-10-09T08:42:08Z</time>
      </trkpt>
      <trkpt lat="44.88955" lon="5.45301">
        <ele>1431</ele>
        <time>2021-10-09T08:42:09Z</time>
      </trkpt>
      <trkpt lat="44.88953" lon="5.45304">
        <ele>1431.6</ele>
        <time>2021-10-09T08:42:10Z</time>
      </trkpt>
      <trkpt lat="44.88951" lon="5.45306">
        <ele>1431.6</ele>
        <time>2021-10-09T08:42:11Z</time>
      </trkpt>
      <trkpt lat="44.8895" lon="5.45308">
        <ele>1431.6</ele>
        <time>2021-10-09T08:42:12Z</time>
      </trkpt>
      <trkpt lat="44.88948" lon="5.45309">
        <ele>1431.6</ele>
        <time>2021-10-09T08:42:13Z</time>
      </trkpt>
      <trkpt lat="44.88946" lon="5.45311">
        <ele>1432.6</ele>
        <time>2021-10-09T08:42:14Z</time>
      </trkpt>
      <trkpt lat="44.88945" lon="5.45313">
        <ele>1432.6</ele>
        <time>2021-10-09T08:42:15Z</time>
      </trkpt>
      <trkpt lat="44.88943" lon="5.45315">
        <ele>1432.6</ele>
        <time>2021-10-09T08:42:16Z</time>
      </trkpt>
      <trkpt lat="44.88942" lon="5.45316">
        <ele>1432.6</ele>
        <time>2021-10-09T08:42:17Z</time>
      </trkpt>
      <trkpt lat="44.88941" lon="5.45319">
        <ele>1433</ele>
        <time>2021-10-09T08:42:18Z</time>
      </trkpt>
      <trkpt lat="44.88939" lon="5.45321">
        <ele>1433.4</ele>
        <time>2021-10-09T08:42:19Z</time>
      </trkpt>
      <trkpt lat="44.88938" lon="5.45324">
        <ele>1433.4</ele>
        <time>2021-10-09T08:42:20Z</time>
      </trkpt>
      <trkpt lat="44.88938" lon="5.45326">
        <ele>1433.4</ele>
        <time>2021-10-09T08:42:21Z</time>
      </trkpt>
      <trkpt lat="44.88937" lon="5.45329">
        <ele>1433.4</ele>
        <time>2021-10-09T08:42:22Z</time>
      </trkpt>
      <trkpt lat="44.88936" lon="5.45332">
        <ele>1434.2</ele>
        <time>2021-10-09T08:42:23Z</time>
      </trkpt>
      <trkpt lat="44.88935" lon="5.45335">
        <ele>1434.2</ele>
        <time>2021-10-09T08:42:24Z</time>
      </trkpt>
      <trkpt lat="44.88935" lon="5.45338">
        <ele>1434.2</ele>
        <time>2021-10-09T08:42:25Z</time>
      </trkpt>
      <trkpt lat="44.88934" lon="5.45341">
        <ele>1435</ele>
        <time>2021-10-09T08:42:26Z</time>
      </trkpt>
      <trkpt lat="44.88934" lon="5.45344">
        <ele>1435</ele>
        <time>2021-10-09T08:42:27Z</time>
      </trkpt>
      <trkpt lat="44.88934" lon="5.45348">
        <ele>1435</ele>
        <time>2021-10-09T08:42:28Z</time>
      </trkpt>
      <trkpt lat="44.88934" lon="5.45351">
        <ele>1435</ele>
        <time>2021-10-09T08:42:29Z</time>
      </trkpt>
      <trkpt lat="44.88934" lon="5.45355">
        <ele>1436</ele>
        <time>2021-10-09T08:42:30Z</time>
      </trkpt>
      <trkpt lat="44.88934" lon="5.45358">
        <ele>1436</ele>
        <time>2021-10-09T08:42:31Z</time>
      </trkpt>
      <trkpt lat="44.88934" lon="5.45361">
        <ele>1436</ele>
        <time>2021-10-09T08:42:32Z</time>
      </trkpt>
      <trkpt lat="44.88934" lon="5.45365">
        <ele>1436</ele>
        <time>2021-10-09T08:42:33Z</time>
      </trkpt>
      <trkpt lat="44.88934" lon="5.45368">
        <ele>1436.6</ele>
        <time>2021-10-09T08:42:34Z</time>
      </trkpt>
      <trkpt lat="44.88934" lon="5.45372">
        <ele>1436.2</ele>
        <time>2021-10-09T08:42:35Z</time>
      </trkpt>
      <trkpt lat="44.88934" lon="5.45376">
        <ele>1436.2</ele>
        <time>2021-10-09T08:42:36Z</time>
      </trkpt>
      <trkpt lat="44.88934" lon="5.45379">
        <ele>1436.2</ele>
        <time>2021-10-09T08:42:37Z</time>
      </trkpt>
      <trkpt lat="44.88934" lon="5.45382">
        <ele>1437</ele>
        <time>2021-10-09T08:42:38Z</time>
      </trkpt>
      <trkpt lat="44.88934" lon="5.45386">
        <ele>1437.4</ele>
        <time>2021-10-09T08:42:39Z</time>
      </trkpt>
      <trkpt lat="44.88934" lon="5.45389">
        <ele>1437.4</ele>
        <time>2021-10-09T08:42:40Z</time>
      </trkpt>
      <trkpt lat="44.88934" lon="5.45392">
        <ele>1437.4</ele>
        <time>2021-10-09T08:42:41Z</time>
      </trkpt>
      <trkpt lat="44.88934" lon="5.45395">
        <ele>1437.4</ele>
        <time>2021-10-09T08:42:42Z</time>
      </trkpt>
      <trkpt lat="44.88934" lon="5.45399">
        <ele>1437.6</ele>
        <time>2021-10-09T08:42:43Z</time>
      </trkpt>
      <trkpt lat="44.88934" lon="5.45402">
        <ele>1437.6</ele>
        <time>2021-10-09T08:42:44Z</time>
      </trkpt>
      <trkpt lat="44.88933" lon="5.45405">
        <ele>1437.6</ele>
        <time>2021-10-09T08:42:45Z</time>
      </trkpt>
      <trkpt lat="44.88932" lon="5.45408">
        <ele>1438.4</ele>
        <time>2021-10-09T08:42:46Z</time>
      </trkpt>
      <trkpt lat="44.8893" lon="5.4541">
        <ele>1438.8</ele>
        <time>2021-10-09T08:42:47Z</time>
      </trkpt>
      <trkpt lat="44.88928" lon="5.45412">
        <ele>1438.8</ele>
        <time>2021-10-09T08:42:48Z</time>
      </trkpt>
      <trkpt lat="44.88926" lon="5.45414">
        <ele>1438.8</ele>
        <time>2021-10-09T08:42:49Z</time>
      </trkpt>
      <trkpt lat="44.88924" lon="5.45416">
        <ele>1438.8</ele>
        <time>2021-10-09T08:42:50Z</time>
      </trkpt>
      <trkpt lat="44.88922" lon="5.45417">
        <ele>1440.2</ele>
        <time>2021-10-09T08:42:51Z</time>
      </trkpt>
      <trkpt lat="44.88921" lon="5.45419">
        <ele>1440.2</ele>
        <time>2021-10-09T08:42:52Z</time>
      </trkpt>
      <trkpt lat="44.88919" lon="5.4542">
        <ele>1440.2</ele>
        <time>2021-10-09T08:42:53Z</time>
      </trkpt>
      <trkpt lat="44.88918" lon="5.45422">
        <ele>1440.2</ele>
        <time>2021-10-09T08:42:54Z</time>
      </trkpt>
      <trkpt lat="44.88916" lon="5.45423">
        <ele>1440.6</ele>
        <time>2021-10-09T08:42:55Z</time>
      </trkpt>
      <trkpt lat="44.88914" lon="5.45425">
        <ele>1440.6</ele>
        <time>2021-10-09T08:42:56Z</time>
      </trkpt>
      <trkpt lat="44.88912" lon="5.45427">
        <ele>1440.6</ele>
        <time>2021-10-09T08:42:57Z</time>
      </trkpt>
      <trkpt lat="44.8891" lon="5.45428">
        <ele>1440.6</ele>
        <time>2021-10-09T08:42:58Z</time>
      </trkpt>
      <trkpt lat="44.88908" lon="5.45429">
        <ele>1441.2</ele>
        <time>2021-10-09T08:42:59Z</time>
      </trkpt>
      <trkpt lat="44.88906" lon="5.45429">
        <ele>1441.2</ele>
        <time>2021-10-09T08:43:00Z</time>
      </trkpt>
      <trkpt lat="44.88903" lon="5.4543">
        <ele>1441.2</ele>
        <time>2021-10-09T08:43:01Z</time>
      </trkpt>
      <trkpt lat="44.88901" lon="5.4543">
        <ele>1441.2</ele>
        <time>2021-10-09T08:43:02Z</time>
      </trkpt>
      <trkpt lat="44.88899" lon="5.45431">
        <ele>1441.8</ele>
        <time>2021-10-09T08:43:03Z</time>
      </trkpt>
      <trkpt lat="44.88897" lon="5.4543">
        <ele>1441.8</ele>
        <time>2021-10-09T08:43:04Z</time>
      </trkpt>
      <trkpt lat="44.88895" lon="5.4543">
        <ele>1441.8</ele>
        <time>2021-10-09T08:43:05Z</time>
      </trkpt>
      <trkpt lat="44.88893" lon="5.45429">
        <ele>1442.4</ele>
        <time>2021-10-09T08:43:06Z</time>
      </trkpt>
      <trkpt lat="44.88891" lon="5.45429">
        <ele>1442.4</ele>
        <time>2021-10-09T08:43:07Z</time>
      </trkpt>
      <trkpt lat="44.88889" lon="5.45428">
        <ele>1442.4</ele>
        <time>2021-10-09T08:43:08Z</time>
      </trkpt>
      <trkpt lat="44.88886" lon="5.45427">
        <ele>1442.4</ele>
        <time>2021-10-09T08:43:09Z</time>
      </trkpt>
      <trkpt lat="44.88884" lon="5.45426">
        <ele>1443.2</ele>
        <time>2021-10-09T08:43:10Z</time>
      </trkpt>
      <trkpt lat="44.88883" lon="5.45425">
        <ele>1443</ele>
        <time>2021-10-09T08:43:11Z</time>
      </trkpt>
      <trkpt lat="44.88881" lon="5.45424">
        <ele>1443</ele>
        <time>2021-10-09T08:43:12Z</time>
      </trkpt>
      <trkpt lat="44.88879" lon="5.45422">
        <ele>1443</ele>
        <time>2021-10-09T08:43:13Z</time>
      </trkpt>
      <trkpt lat="44.88877" lon="5.45421">
        <ele>1443.6</ele>
        <time>2021-10-09T08:43:14Z</time>
      </trkpt>
      <trkpt lat="44.88875" lon="5.45419">
        <ele>1443.8</ele>
        <time>2021-10-09T08:43:15Z</time>
      </trkpt>
      <trkpt lat="44.88873" lon="5.45418">
        <ele>1443.8</ele>
        <time>2021-10-09T08:43:16Z</time>
      </trkpt>
      <trkpt lat="44.88871" lon="5.45416">
        <ele>1443.8</ele>
        <time>2021-10-09T08:43:17Z</time>
      </trkpt>
      <trkpt lat="44.8887" lon="5.45415">
        <ele>1443.8</ele>
        <time>2021-10-09T08:43:18Z</time>
      </trkpt>
      <trkpt lat="44.88868" lon="5.45413">
        <ele>1444.2</ele>
        <time>2021-10-09T08:43:19Z</time>
      </trkpt>
      <trkpt lat="44.88867" lon="5.45412">
        <ele>1444.2</ele>
        <time>2021-10-09T08:43:20Z</time>
      </trkpt>
      <trkpt lat="44.88865" lon="5.4541">
        <ele>1444.2</ele>
        <time>2021-10-09T08:43:21Z</time>
      </trkpt>
      <trkpt lat="44.88863" lon="5.45408">
        <ele>1444.8</ele>
        <time>2021-10-09T08:43:22Z</time>
      </trkpt>
      <trkpt lat="44.88862" lon="5.45406">
        <ele>1445</ele>
        <time>2021-10-09T08:43:23Z</time>
      </trkpt>
      <trkpt lat="44.8886" lon="5.45405">
        <ele>1445</ele>
        <time>2021-10-09T08:43:24Z</time>
      </trkpt>
      <trkpt lat="44.88859" lon="5.45403">
        <ele>1445</ele>
        <time>2021-10-09T08:43:25Z</time>
      </trkpt>
      <trkpt lat="44.88857" lon="5.45401">
        <ele>1445</ele>
        <time>2021-10-09T08:43:26Z</time>
      </trkpt>
      <trkpt lat="44.88855" lon="5.45399">
        <ele>1445.4</ele>
        <time>2021-10-09T08:43:27Z</time>
      </trkpt>
      <trkpt lat="44.88854" lon="5.45396">
        <ele>1445.4</ele>
        <time>2021-10-09T08:43:28Z</time>
      </trkpt>
      <trkpt lat="44.88852" lon="5.45394">
        <ele>1445.4</ele>
        <time>2021-10-09T08:43:29Z</time>
      </trkpt>
      <trkpt lat="44.8885" lon="5.45392">
        <ele>1445.8</ele>
        <time>2021-10-09T08:43:30Z</time>
      </trkpt>
      <trkpt lat="44.88849" lon="5.4539">
        <ele>1446.8</ele>
        <time>2021-10-09T08:43:31Z</time>
      </trkpt>
      <trkpt lat="44.88847" lon="5.45388">
        <ele>1446.8</ele>
        <time>2021-10-09T08:43:32Z</time>
      </trkpt>
      <trkpt lat="44.88846" lon="5.45386">
        <ele>1446.8</ele>
        <time>2021-10-09T08:43:33Z</time>
      </trkpt>
      <trkpt lat="44.88845" lon="5.45384">
        <ele>1446.8</ele>
        <time>2021-10-09T08:43:34Z</time>
      </trkpt>
      <trkpt lat="44.88843" lon="5.45382">
        <ele>1446.6</ele>
        <time>2021-10-09T08:43:35Z</time>
      </trkpt>
      <trkpt lat="44.88842" lon="5.4538">
        <ele>1446.6</ele>
        <time>2021-10-09T08:43:36Z</time>
      </trkpt>
      <trkpt lat="44.88841" lon="5.45378">
        <ele>1446.6</ele>
        <time>2021-10-09T08:43:37Z</time>
      </trkpt>
      <trkpt lat="44.8884" lon="5.45376">
        <ele>1447.6</ele>
        <time>2021-10-09T08:43:38Z</time>
      </trkpt>
      <trkpt lat="44.88838" lon="5.45373">
        <ele>1447.8</ele>
        <time>2021-10-09T08:43:39Z</time>
      </trkpt>
      <trkpt lat="44.88837" lon="5.45371">
        <ele>1447.8</ele>
        <time>2021-10-09T08:43:40Z</time>
      </trkpt>
      <trkpt lat="44.88836" lon="5.45369">
        <ele>1447.8</ele>
        <time>2021-10-09T08:43:41Z</time>
      </trkpt>
      <trkpt lat="44.88835" lon="5.45366">
        <ele>1448.2</ele>
        <time>2021-10-09T08:43:42Z</time>
      </trkpt>
      <trkpt lat="44.88834" lon="5.45364">
        <ele>1448.4</ele>
        <time>2021-10-09T08:43:43Z</time>
      </trkpt>
      <trkpt lat="44.88832" lon="5.45361">
        <ele>1448.4</ele>
        <time>2021-10-09T08:43:44Z</time>
      </trkpt>
      <trkpt lat="44.88831" lon="5.45359">
        <ele>1448.4</ele>
        <time>2021-10-09T08:43:45Z</time>
      </trkpt>
      <trkpt lat="44.88829" lon="5.45357">
        <ele>1448.4</ele>
        <time>2021-10-09T08:43:46Z</time>
      </trkpt>
      <trkpt lat="44.88828" lon="5.45355">
        <ele>1448.8</ele>
        <time>2021-10-09T08:43:47Z</time>
      </trkpt>
      <trkpt lat="44.88826" lon="5.45354">
        <ele>1448.8</ele>
        <time>2021-10-09T08:43:48Z</time>
      </trkpt>
      <trkpt lat="44.88825" lon="5.45353">
        <ele>1448.8</ele>
        <time>2021-10-09T08:43:49Z</time>
      </trkpt>
      <trkpt lat="44.88823" lon="5.45353">
        <ele>1449.8</ele>
        <time>2021-10-09T08:43:50Z</time>
      </trkpt>
      <trkpt lat="44.88821" lon="5.45354">
        <ele>1450</ele>
        <time>2021-10-09T08:43:51Z</time>
      </trkpt>
      <trkpt lat="44.88819" lon="5.45355">
        <ele>1450</ele>
        <time>2021-10-09T08:43:52Z</time>
      </trkpt>
      <trkpt lat="44.88817" lon="5.45357">
        <ele>1450</ele>
        <time>2021-10-09T08:43:53Z</time>
      </trkpt>
      <trkpt lat="44.88816" lon="5.4536">
        <ele>1450</ele>
        <time>2021-10-09T08:43:54Z</time>
      </trkpt>
      <trkpt lat="44.88816" lon="5.45363">
        <ele>1450.4</ele>
        <time>2021-10-09T08:43:55Z</time>
      </trkpt>
      <trkpt lat="44.88816" lon="5.45365">
        <ele>1450.4</ele>
        <time>2021-10-09T08:43:56Z</time>
      </trkpt>
      <trkpt lat="44.88816" lon="5.45368">
        <ele>1450.4</ele>
        <time>2021-10-09T08:43:57Z</time>
      </trkpt>
      <trkpt lat="44.88816" lon="5.45371">
        <ele>1450.4</ele>
        <time>2021-10-09T08:43:58Z</time>
      </trkpt>
      <trkpt lat="44.88816" lon="5.45374">
        <ele>1450.6</ele>
        <time>2021-10-09T08:43:59Z</time>
      </trkpt>
      <trkpt lat="44.88817" lon="5.45376">
        <ele>1450.6</ele>
        <time>2021-10-09T08:44:00Z</time>
      </trkpt>
      <trkpt lat="44.88818" lon="5.45379">
        <ele>1450.6</ele>
        <time>2021-10-09T08:44:01Z</time>
      </trkpt>
      <trkpt lat="44.88818" lon="5.45381">
        <ele>1451.4</ele>
        <time>2021-10-09T08:44:02Z</time>
      </trkpt>
      <trkpt lat="44.88818" lon="5.45384">
        <ele>1451</ele>
        <time>2021-10-09T08:44:03Z</time>
      </trkpt>
      <trkpt lat="44.88819" lon="5.45386">
        <ele>1451</ele>
        <time>2021-10-09T08:44:04Z</time>
      </trkpt>
      <trkpt lat="44.8882" lon="5.45388">
        <ele>1451</ele>
        <time>2021-10-09T08:44:05Z</time>
      </trkpt>
      <trkpt lat="44.8882" lon="5.45391">
        <ele>1452</ele>
        <time>2021-10-09T08:44:06Z</time>
      </trkpt>
      <trkpt lat="44.88821" lon="5.45393">
        <ele>1452</ele>
        <time>2021-10-09T08:44:07Z</time>
      </trkpt>
      <trkpt lat="44.88822" lon="5.45396">
        <ele>1452</ele>
        <time>2021-10-09T08:44:08Z</time>
      </trkpt>
      <trkpt lat="44.88822" lon="5.45398">
        <ele>1452</ele>
        <time>2021-10-09T08:44:09Z</time>
      </trkpt>
      <trkpt lat="44.88823" lon="5.454">
        <ele>1452.6</ele>
        <time>2021-10-09T08:44:10Z</time>
      </trkpt>
      <trkpt lat="44.88824" lon="5.45403">
        <ele>1452.6</ele>
        <time>2021-10-09T08:44:11Z</time>
      </trkpt>
      <trkpt lat="44.88824" lon="5.45405">
        <ele>1452.6</ele>
        <time>2021-10-09T08:44:12Z</time>
      </trkpt>
      <trkpt lat="44.88825" lon="5.45408">
        <ele>1452.6</ele>
        <time>2021-10-09T08:44:13Z</time>
      </trkpt>
      <trkpt lat="44.88825" lon="5.45411">
        <ele>1453</ele>
        <time>2021-10-09T08:44:14Z</time>
      </trkpt>
      <trkpt lat="44.88826" lon="5.45414">
        <ele>1453</ele>
        <time>2021-10-09T08:44:15Z</time>
      </trkpt>
      <trkpt lat="44.88827" lon="5.45417">
        <ele>1453</ele>
        <time>2021-10-09T08:44:16Z</time>
      </trkpt>
      <trkpt lat="44.88828" lon="5.4542">
        <ele>1453</ele>
        <time>2021-10-09T08:44:17Z</time>
      </trkpt>
      <trkpt lat="44.88828" lon="5.45423">
        <ele>1453.8</ele>
        <time>2021-10-09T08:44:18Z</time>
      </trkpt>
      <trkpt lat="44.88829" lon="5.45426">
        <ele>1454</ele>
        <time>2021-10-09T08:44:19Z</time>
      </trkpt>
      <trkpt lat="44.8883" lon="5.45429">
        <ele>1454</ele>
        <time>2021-10-09T08:44:20Z</time>
      </trkpt>
      <trkpt lat="44.88831" lon="5.45431">
        <ele>1454</ele>
        <time>2021-10-09T08:44:21Z</time>
      </trkpt>
      <trkpt lat="44.88831" lon="5.45434">
        <ele>1454.6</ele>
        <time>2021-10-09T08:44:22Z</time>
      </trkpt>
      <trkpt lat="44.88832" lon="5.45436">
        <ele>1454.6</ele>
        <time>2021-10-09T08:44:23Z</time>
      </trkpt>
      <trkpt lat="44.88833" lon="5.45439">
        <ele>1454.6</ele>
        <time>2021-10-09T08:44:24Z</time>
      </trkpt>
      <trkpt lat="44.88834" lon="5.45442">
        <ele>1454.6</ele>
        <time>2021-10-09T08:44:25Z</time>
      </trkpt>
      <trkpt lat="44.88834" lon="5.45444">
        <ele>1455</ele>
        <time>2021-10-09T08:44:26Z</time>
      </trkpt>
      <trkpt lat="44.88835" lon="5.45447">
        <ele>1455.4</ele>
        <time>2021-10-09T08:44:27Z</time>
      </trkpt>
      <trkpt lat="44.88836" lon="5.4545">
        <ele>1455.4</ele>
        <time>2021-10-09T08:44:28Z</time>
      </trkpt>
      <trkpt lat="44.88837" lon="5.45453">
        <ele>1455.4</ele>
        <time>2021-10-09T08:44:29Z</time>
      </trkpt>
      <trkpt lat="44.88838" lon="5.45456">
        <ele>1455.8</ele>
        <time>2021-10-09T08:44:30Z</time>
      </trkpt>
      <trkpt lat="44.88839" lon="5.45458">
        <ele>1456.2</ele>
        <time>2021-10-09T08:44:31Z</time>
      </trkpt>
      <trkpt lat="44.8884" lon="5.45461">
        <ele>1456.2</ele>
        <time>2021-10-09T08:44:32Z</time>
      </trkpt>
      <trkpt lat="44.88841" lon="5.45463">
        <ele>1456.2</ele>
        <time>2021-10-09T08:44:33Z</time>
      </trkpt>
      <trkpt lat="44.88842" lon="5.45465">
        <ele>1456.2</ele>
        <time>2021-10-09T08:44:34Z</time>
      </trkpt>
      <trkpt lat="44.88844" lon="5.45468">
        <ele>1456.4</ele>
        <time>2021-10-09T08:44:35Z</time>
      </trkpt>
      <trkpt lat="44.88845" lon="5.4547">
        <ele>1456.4</ele>
        <time>2021-10-09T08:44:36Z</time>
      </trkpt>
      <trkpt lat="44.88846" lon="5.45473">
        <ele>1456.4</ele>
        <time>2021-10-09T08:44:37Z</time>
      </trkpt>
      <trkpt lat="44.88848" lon="5.45475">
        <ele>1456.8</ele>
        <time>2021-10-09T08:44:38Z</time>
      </trkpt>
      <trkpt lat="44.88849" lon="5.45477">
        <ele>1457.2</ele>
        <time>2021-10-09T08:44:39Z</time>
      </trkpt>
      <trkpt lat="44.8885" lon="5.4548">
        <ele>1457.2</ele>
        <time>2021-10-09T08:44:40Z</time>
      </trkpt>
      <trkpt lat="44.88851" lon="5.45482">
        <ele>1457.2</ele>
        <time>2021-10-09T08:44:41Z</time>
      </trkpt>
      <trkpt lat="44.88852" lon="5.45485">
        <ele>1457.2</ele>
        <time>2021-10-09T08:44:42Z</time>
      </trkpt>
      <trkpt lat="44.88854" lon="5.45486">
        <ele>1458</ele>
        <time>2021-10-09T08:44:43Z</time>
      </trkpt>
      <trkpt lat="44.88855" lon="5.45488">
        <ele>1458</ele>
        <time>2021-10-09T08:44:44Z</time>
      </trkpt>
      <trkpt lat="44.88857" lon="5.4549">
        <ele>1458</ele>
        <time>2021-10-09T08:44:45Z</time>
      </trkpt>
      <trkpt lat="44.88858" lon="5.45492">
        <ele>1458</ele>
        <time>2021-10-09T08:44:46Z</time>
      </trkpt>
      <trkpt lat="44.8886" lon="5.45494">
        <ele>1458</ele>
        <time>2021-10-09T08:44:47Z</time>
      </trkpt>
      <trkpt lat="44.88862" lon="5.45496">
        <ele>1458</ele>
        <time>2021-10-09T08:44:48Z</time>
      </trkpt>
      <trkpt lat="44.88862" lon="5.45498">
        <ele>1458</ele>
        <time>2021-10-09T08:44:49Z</time>
      </trkpt>
      <trkpt lat="44.88864" lon="5.45499">
        <ele>1458.6</ele>
        <time>2021-10-09T08:44:50Z</time>
      </trkpt>
      <trkpt lat="44.88865" lon="5.45501">
        <ele>1458.4</ele>
        <time>2021-10-09T08:44:51Z</time>
      </trkpt>
      <trkpt lat="44.88867" lon="5.45503">
        <ele>1458.4</ele>
        <time>2021-10-09T08:44:52Z</time>
      </trkpt>
      <trkpt lat="44.88868" lon="5.45505">
        <ele>1458.4</ele>
        <time>2021-10-09T08:44:53Z</time>
      </trkpt>
      <trkpt lat="44.8887" lon="5.45506">
        <ele>1459.4</ele>
        <time>2021-10-09T08:44:54Z</time>
      </trkpt>
      <trkpt lat="44.88872" lon="5.45508">
        <ele>1459.4</ele>
        <time>2021-10-09T08:44:55Z</time>
      </trkpt>
      <trkpt lat="44.88874" lon="5.4551">
        <ele>1459.4</ele>
        <time>2021-10-09T08:44:56Z</time>
      </trkpt>
      <trkpt lat="44.88876" lon="5.45512">
        <ele>1459.4</ele>
        <time>2021-10-09T08:44:57Z</time>
      </trkpt>
      <trkpt lat="44.88878" lon="5.45513">
        <ele>1459.4</ele>
        <time>2021-10-09T08:44:58Z</time>
      </trkpt>
      <trkpt lat="44.8888" lon="5.45515">
        <ele>1460</ele>
        <time>2021-10-09T08:44:59Z</time>
      </trkpt>
      <trkpt lat="44.88881" lon="5.45516">
        <ele>1460</ele>
        <time>2021-10-09T08:45:00Z</time>
      </trkpt>
      <trkpt lat="44.88884" lon="5.45517">
        <ele>1460</ele>
        <time>2021-10-09T08:45:01Z</time>
      </trkpt>
      <trkpt lat="44.88886" lon="5.45518">
        <ele>1460</ele>
        <time>2021-10-09T08:45:02Z</time>
      </trkpt>
      <trkpt lat="44.88888" lon="5.45519">
        <ele>1460.6</ele>
        <time>2021-10-09T08:45:03Z</time>
      </trkpt>
      <trkpt lat="44.8889" lon="5.45519">
        <ele>1460.6</ele>
        <time>2021-10-09T08:45:04Z</time>
      </trkpt>
      <trkpt lat="44.88892" lon="5.4552">
        <ele>1460.6</ele>
        <time>2021-10-09T08:45:05Z</time>
      </trkpt>
      <trkpt lat="44.88894" lon="5.4552">
        <ele>1461.2</ele>
        <time>2021-10-09T08:45:06Z</time>
      </trkpt>
      <trkpt lat="44.88897" lon="5.4552">
        <ele>1461.6</ele>
        <time>2021-10-09T08:45:07Z</time>
      </trkpt>
      <trkpt lat="44.88899" lon="5.45521">
        <ele>1461.6</ele>
        <time>2021-10-09T08:45:08Z</time>
      </trkpt>
      <trkpt lat="44.88901" lon="5.45521">
        <ele>1461.6</ele>
        <time>2021-10-09T08:45:09Z</time>
      </trkpt>
      <trkpt lat="44.88904" lon="5.45521">
        <ele>1461.2</ele>
        <time>2021-10-09T08:45:10Z</time>
      </trkpt>
      <trkpt lat="44.88906" lon="5.45522">
        <ele>1461</ele>
        <time>2021-10-09T08:45:11Z</time>
      </trkpt>
      <trkpt lat="44.88909" lon="5.45521">
        <ele>1461</ele>
        <time>2021-10-09T08:45:12Z</time>
      </trkpt>
      <trkpt lat="44.88911" lon="5.45521">
        <ele>1461</ele>
        <time>2021-10-09T08:45:13Z</time>
      </trkpt>
      <trkpt lat="44.88914" lon="5.4552">
        <ele>1462</ele>
        <time>2021-10-09T08:45:14Z</time>
      </trkpt>
      <trkpt lat="44.88916" lon="5.45519">
        <ele>1462.2</ele>
        <time>2021-10-09T08:45:15Z</time>
      </trkpt>
      <trkpt lat="44.88919" lon="5.45518">
        <ele>1462.2</ele>
        <time>2021-10-09T08:45:16Z</time>
      </trkpt>
      <trkpt lat="44.88921" lon="5.45517">
        <ele>1462.2</ele>
        <time>2021-10-09T08:45:17Z</time>
      </trkpt>
      <trkpt lat="44.88924" lon="5.45515">
        <ele>1462</ele>
        <time>2021-10-09T08:45:18Z</time>
      </trkpt>
      <trkpt lat="44.88926" lon="5.45513">
        <ele>1461.8</ele>
        <time>2021-10-09T08:45:19Z</time>
      </trkpt>
      <trkpt lat="44.88929" lon="5.45512">
        <ele>1461.8</ele>
        <time>2021-10-09T08:45:20Z</time>
      </trkpt>
      <trkpt lat="44.88932" lon="5.4551">
        <ele>1461.8</ele>
        <time>2021-10-09T08:45:21Z</time>
      </trkpt>
      <trkpt lat="44.88935" lon="5.45509">
        <ele>1461.8</ele>
        <time>2021-10-09T08:45:22Z</time>
      </trkpt>
      <trkpt lat="44.88938" lon="5.45508">
        <ele>1461.6</ele>
        <time>2021-10-09T08:45:23Z</time>
      </trkpt>
      <trkpt lat="44.88941" lon="5.45507">
        <ele>1461.6</ele>
        <time>2021-10-09T08:45:24Z</time>
      </trkpt>
      <trkpt lat="44.88943" lon="5.45506">
        <ele>1461.6</ele>
        <time>2021-10-09T08:45:25Z</time>
      </trkpt>
      <trkpt lat="44.88947" lon="5.45506">
        <ele>1461.6</ele>
        <time>2021-10-09T08:45:26Z</time>
      </trkpt>
      <trkpt lat="44.8895" lon="5.45506">
        <ele>1461.6</ele>
        <time>2021-10-09T08:45:27Z</time>
      </trkpt>
      <trkpt lat="44.88953" lon="5.45506">
        <ele>1461.6</ele>
        <time>2021-10-09T08:45:28Z</time>
      </trkpt>
      <trkpt lat="44.88956" lon="5.45506">
        <ele>1461.6</ele>
        <time>2021-10-09T08:45:29Z</time>
      </trkpt>
      <trkpt lat="44.88959" lon="5.45507">
        <ele>1461.2</ele>
        <time>2021-10-09T08:45:30Z</time>
      </trkpt>
      <trkpt lat="44.88962" lon="5.45507">
        <ele>1461</ele>
        <time>2021-10-09T08:45:31Z</time>
      </trkpt>
      <trkpt lat="44.88966" lon="5.45507">
        <ele>1461</ele>
        <time>2021-10-09T08:45:32Z</time>
      </trkpt>
      <trkpt lat="44.88969" lon="5.45506">
        <ele>1461</ele>
        <time>2021-10-09T08:45:33Z</time>
      </trkpt>
      <trkpt lat="44.88972" lon="5.45507">
        <ele>1461.2</ele>
        <time>2021-10-09T08:45:34Z</time>
      </trkpt>
      <trkpt lat="44.88975" lon="5.45508">
        <ele>1461.2</ele>
        <time>2021-10-09T08:45:35Z</time>
      </trkpt>
      <trkpt lat="44.88978" lon="5.45508">
        <ele>1461.2</ele>
        <time>2021-10-09T08:45:36Z</time>
      </trkpt>
      <trkpt lat="44.88982" lon="5.45509">
        <ele>1461.2</ele>
        <time>2021-10-09T08:45:37Z</time>
      </trkpt>
      <trkpt lat="44.88985" lon="5.4551">
        <ele>1462</ele>
        <time>2021-10-09T08:45:38Z</time>
      </trkpt>
      <trkpt lat="44.88988" lon="5.4551">
        <ele>1462.4</ele>
        <time>2021-10-09T08:45:39Z</time>
      </trkpt>
      <trkpt lat="44.88991" lon="5.4551">
        <ele>1462.4</ele>
        <time>2021-10-09T08:45:40Z</time>
      </trkpt>
      <trkpt lat="44.88994" lon="5.4551">
        <ele>1462.4</ele>
        <time>2021-10-09T08:45:41Z</time>
      </trkpt>
      <trkpt lat="44.88997" lon="5.4551">
        <ele>1463.2</ele>
        <time>2021-10-09T08:45:42Z</time>
      </trkpt>
      <trkpt lat="44.89" lon="5.4551">
        <ele>1463</ele>
        <time>2021-10-09T08:45:43Z</time>
      </trkpt>
      <trkpt lat="44.89003" lon="5.4551">
        <ele>1463</ele>
        <time>2021-10-09T08:45:44Z</time>
      </trkpt>
      <trkpt lat="44.89006" lon="5.45509">
        <ele>1463</ele>
        <time>2021-10-09T08:45:45Z</time>
      </trkpt>
      <trkpt lat="44.89009" lon="5.45508">
        <ele>1463</ele>
        <time>2021-10-09T08:45:46Z</time>
      </trkpt>
      <trkpt lat="44.89012" lon="5.45506">
        <ele>1463</ele>
        <time>2021-10-09T08:45:47Z</time>
      </trkpt>
      <trkpt lat="44.89015" lon="5.45505">
        <ele>1463</ele>
        <time>2021-10-09T08:45:48Z</time>
      </trkpt>
      <trkpt lat="44.89017" lon="5.45502">
        <ele>1463</ele>
        <time>2021-10-09T08:45:49Z</time>
      </trkpt>
      <trkpt lat="44.89019" lon="5.45499">
        <ele>1464</ele>
        <time>2021-10-09T08:45:50Z</time>
      </trkpt>
      <trkpt lat="44.8902" lon="5.45497">
        <ele>1464.6</ele>
        <time>2021-10-09T08:45:51Z</time>
      </trkpt>
      <trkpt lat="44.89022" lon="5.45495">
        <ele>1464.6</ele>
        <time>2021-10-09T08:45:52Z</time>
      </trkpt>
      <trkpt lat="44.89023" lon="5.45492">
        <ele>1464.6</ele>
        <time>2021-10-09T08:45:53Z</time>
      </trkpt>
      <trkpt lat="44.89024" lon="5.4549">
        <ele>1465.6</ele>
        <time>2021-10-09T08:45:54Z</time>
      </trkpt>
      <trkpt lat="44.89026" lon="5.45488">
        <ele>1466.2</ele>
        <time>2021-10-09T08:45:55Z</time>
      </trkpt>
      <trkpt lat="44.89027" lon="5.45486">
        <ele>1466.2</ele>
        <time>2021-10-09T08:45:56Z</time>
      </trkpt>
      <trkpt lat="44.89029" lon="5.45484">
        <ele>1466.2</ele>
        <time>2021-10-09T08:45:57Z</time>
      </trkpt>
      <trkpt lat="44.8903" lon="5.45482">
        <ele>1466.6</ele>
        <time>2021-10-09T08:45:58Z</time>
      </trkpt>
      <trkpt lat="44.89032" lon="5.4548">
        <ele>1467</ele>
        <time>2021-10-09T08:45:59Z</time>
      </trkpt>
      <trkpt lat="44.89034" lon="5.45479">
        <ele>1467</ele>
        <time>2021-10-09T08:46:00Z</time>
      </trkpt>
      <trkpt lat="44.89035" lon="5.45477">
        <ele>1467</ele>
        <time>2021-10-09T08:46:01Z</time>
      </trkpt>
      <trkpt lat="44.89036" lon="5.45475">
        <ele>1467.4</ele>
        <time>2021-10-09T08:46:02Z</time>
      </trkpt>
      <trkpt lat="44.89038" lon="5.45473">
        <ele>1467.2</ele>
        <time>2021-10-09T08:46:03Z</time>
      </trkpt>
      <trkpt lat="44.8904" lon="5.45472">
        <ele>1467.2</ele>
        <time>2021-10-09T08:46:04Z</time>
      </trkpt>
      <trkpt lat="44.89041" lon="5.4547">
        <ele>1467.2</ele>
        <time>2021-10-09T08:46:05Z</time>
      </trkpt>
      <trkpt lat="44.89043" lon="5.45468">
        <ele>1467.8</ele>
        <time>2021-10-09T08:46:06Z</time>
      </trkpt>
      <trkpt lat="44.89045" lon="5.45467">
        <ele>1468</ele>
        <time>2021-10-09T08:46:07Z</time>
      </trkpt>
      <trkpt lat="44.89046" lon="5.45466">
        <ele>1468</ele>
        <time>2021-10-09T08:46:08Z</time>
      </trkpt>
      <trkpt lat="44.89048" lon="5.45464">
        <ele>1468</ele>
        <time>2021-10-09T08:46:09Z</time>
      </trkpt>
      <trkpt lat="44.8905" lon="5.45462">
        <ele>1468.6</ele>
        <time>2021-10-09T08:46:10Z</time>
      </trkpt>
      <trkpt lat="44.89052" lon="5.45461">
        <ele>1468.6</ele>
        <time>2021-10-09T08:46:11Z</time>
      </trkpt>
      <trkpt lat="44.89053" lon="5.45459">
        <ele>1468.6</ele>
        <time>2021-10-09T08:46:12Z</time>
      </trkpt>
      <trkpt lat="44.89055" lon="5.45458">
        <ele>1468.6</ele>
        <time>2021-10-09T08:46:13Z</time>
      </trkpt>
      <trkpt lat="44.89057" lon="5.45456">
        <ele>1468.6</ele>
        <time>2021-10-09T08:46:14Z</time>
      </trkpt>
      <trkpt lat="44.89059" lon="5.45456">
        <ele>1469.6</ele>
        <time>2021-10-09T08:46:15Z</time>
      </trkpt>
      <trkpt lat="44.8906" lon="5.45455">
        <ele>1469.6</ele>
        <time>2021-10-09T08:46:16Z</time>
      </trkpt>
      <trkpt lat="44.89062" lon="5.45455">
        <ele>1469.6</ele>
        <time>2021-10-09T08:46:17Z</time>
      </trkpt>
      <trkpt lat="44.89064" lon="5.45456">
        <ele>1469.4</ele>
        <time>2021-10-09T08:46:18Z</time>
      </trkpt>
      <trkpt lat="44.89066" lon="5.45456">
        <ele>1469.6</ele>
        <time>2021-10-09T08:46:19Z</time>
      </trkpt>
      <trkpt lat="44.89068" lon="5.45457">
        <ele>1469.6</ele>
        <time>2021-10-09T08:46:20Z</time>
      </trkpt>
      <trkpt lat="44.8907" lon="5.45458">
        <ele>1469.6</ele>
        <time>2021-10-09T08:46:21Z</time>
      </trkpt>
      <trkpt lat="44.89071" lon="5.4546">
        <ele>1470.4</ele>
        <time>2021-10-09T08:46:22Z</time>
      </trkpt>
      <trkpt lat="44.89072" lon="5.45463">
        <ele>1470.8</ele>
        <time>2021-10-09T08:46:23Z</time>
      </trkpt>
      <trkpt lat="44.89073" lon="5.45465">
        <ele>1470.8</ele>
        <time>2021-10-09T08:46:24Z</time>
      </trkpt>
      <trkpt lat="44.89074" lon="5.45468">
        <ele>1470.8</ele>
        <time>2021-10-09T08:46:25Z</time>
      </trkpt>
      <trkpt lat="44.89074" lon="5.4547">
        <ele>1470.8</ele>
        <time>2021-10-09T08:46:26Z</time>
      </trkpt>
      <trkpt lat="44.89074" lon="5.45473">
        <ele>1470.8</ele>
        <time>2021-10-09T08:46:27Z</time>
      </trkpt>
      <trkpt lat="44.89074" lon="5.45476">
        <ele>1470.8</ele>
        <time>2021-10-09T08:46:28Z</time>
      </trkpt>
      <trkpt lat="44.89073" lon="5.45478">
        <ele>1470.8</ele>
        <time>2021-10-09T08:46:29Z</time>
      </trkpt>
      <trkpt lat="44.89073" lon="5.4548">
        <ele>1470.8</ele>
        <time>2021-10-09T08:46:30Z</time>
      </trkpt>
      <trkpt lat="44.89073" lon="5.45482">
        <ele>1471.2</ele>
        <time>2021-10-09T08:46:31Z</time>
      </trkpt>
      <trkpt lat="44.89072" lon="5.45485">
        <ele>1471.2</ele>
        <time>2021-10-09T08:46:32Z</time>
      </trkpt>
      <trkpt lat="44.89071" lon="5.45487">
        <ele>1471.2</ele>
        <time>2021-10-09T08:46:33Z</time>
      </trkpt>
      <trkpt lat="44.89071" lon="5.45489">
        <ele>1471.8</ele>
        <time>2021-10-09T08:46:34Z</time>
      </trkpt>
      <trkpt lat="44.89071" lon="5.45492">
        <ele>1471.8</ele>
        <time>2021-10-09T08:46:35Z</time>
      </trkpt>
      <trkpt lat="44.89071" lon="5.45494">
        <ele>1471.8</ele>
        <time>2021-10-09T08:46:36Z</time>
      </trkpt>
      <trkpt lat="44.8907" lon="5.45497">
        <ele>1471.8</ele>
        <time>2021-10-09T08:46:37Z</time>
      </trkpt>
      <trkpt lat="44.89069" lon="5.45499">
        <ele>1472.2</ele>
        <time>2021-10-09T08:46:38Z</time>
      </trkpt>
      <trkpt lat="44.89069" lon="5.45501">
        <ele>1472.4</ele>
        <time>2021-10-09T08:46:39Z</time>
      </trkpt>
      <trkpt lat="44.89069" lon="5.45504">
        <ele>1472.4</ele>
        <time>2021-10-09T08:46:40Z</time>
      </trkpt>
      <trkpt lat="44.89068" lon="5.45506">
        <ele>1472.4</ele>
        <time>2021-10-09T08:46:41Z</time>
      </trkpt>
      <trkpt lat="44.89067" lon="5.45508">
        <ele>1473</ele>
        <time>2021-10-09T08:46:42Z</time>
      </trkpt>
      <trkpt lat="44.89066" lon="5.4551">
        <ele>1473.4</ele>
        <time>2021-10-09T08:46:43Z</time>
      </trkpt>
      <trkpt lat="44.89066" lon="5.45512">
        <ele>1473.4</ele>
        <time>2021-10-09T08:46:44Z</time>
      </trkpt>
      <trkpt lat="44.89065" lon="5.45514">
        <ele>1473.4</ele>
        <time>2021-10-09T08:46:45Z</time>
      </trkpt>
      <trkpt lat="44.89065" lon="5.45516">
        <ele>1473.8</ele>
        <time>2021-10-09T08:46:46Z</time>
      </trkpt>
      <trkpt lat="44.89065" lon="5.45519">
        <ele>1474.2</ele>
        <time>2021-10-09T08:46:47Z</time>
      </trkpt>
      <trkpt lat="44.89064" lon="5.45521">
        <ele>1474.2</ele>
        <time>2021-10-09T08:46:48Z</time>
      </trkpt>
      <trkpt lat="44.89064" lon="5.45523">
        <ele>1474.2</ele>
        <time>2021-10-09T08:46:49Z</time>
      </trkpt>
      <trkpt lat="44.89063" lon="5.45526">
        <ele>1474.2</ele>
        <time>2021-10-09T08:46:50Z</time>
      </trkpt>
      <trkpt lat="44.89063" lon="5.45528">
        <ele>1474.6</ele>
        <time>2021-10-09T08:46:51Z</time>
      </trkpt>
      <trkpt lat="44.89062" lon="5.4553">
        <ele>1474.6</ele>
        <time>2021-10-09T08:46:52Z</time>
      </trkpt>
      <trkpt lat="44.89062" lon="5.45533">
        <ele>1474.6</ele>
        <time>2021-10-09T08:46:53Z</time>
      </trkpt>
      <trkpt lat="44.89062" lon="5.45535">
        <ele>1475</ele>
        <time>2021-10-09T08:46:54Z</time>
      </trkpt>
      <trkpt lat="44.89062" lon="5.45538">
        <ele>1474.8</ele>
        <time>2021-10-09T08:46:55Z</time>
      </trkpt>
      <trkpt lat="44.89062" lon="5.4554">
        <ele>1474.8</ele>
        <time>2021-10-09T08:46:56Z</time>
      </trkpt>
      <trkpt lat="44.89061" lon="5.45543">
        <ele>1474.8</ele>
        <time>2021-10-09T08:46:57Z</time>
      </trkpt>
      <trkpt lat="44.89061" lon="5.45545">
        <ele>1475.8</ele>
        <time>2021-10-09T08:46:58Z</time>
      </trkpt>
      <trkpt lat="44.89061" lon="5.45548">
        <ele>1476</ele>
        <time>2021-10-09T08:46:59Z</time>
      </trkpt>
      <trkpt lat="44.89061" lon="5.4555">
        <ele>1476</ele>
        <time>2021-10-09T08:47:00Z</time>
      </trkpt>
      <trkpt lat="44.89061" lon="5.45552">
        <ele>1476</ele>
        <time>2021-10-09T08:47:01Z</time>
      </trkpt>
      <trkpt lat="44.89061" lon="5.45555">
        <ele>1477</ele>
        <time>2021-10-09T08:47:02Z</time>
      </trkpt>
      <trkpt lat="44.89061" lon="5.45557">
        <ele>1477.2</ele>
        <time>2021-10-09T08:47:03Z</time>
      </trkpt>
      <trkpt lat="44.89061" lon="5.45559">
        <ele>1477.2</ele>
        <time>2021-10-09T08:47:04Z</time>
      </trkpt>
      <trkpt lat="44.89061" lon="5.45562">
        <ele>1477.2</ele>
        <time>2021-10-09T08:47:05Z</time>
      </trkpt>
      <trkpt lat="44.89062" lon="5.45564">
        <ele>1477.2</ele>
        <time>2021-10-09T08:47:06Z</time>
      </trkpt>
      <trkpt lat="44.89062" lon="5.45566">
        <ele>1477.6</ele>
        <time>2021-10-09T08:47:07Z</time>
      </trkpt>
      <trkpt lat="44.89063" lon="5.45568">
        <ele>1477.6</ele>
        <time>2021-10-09T08:47:08Z</time>
      </trkpt>
      <trkpt lat="44.89063" lon="5.4557">
        <ele>1477.6</ele>
        <time>2021-10-09T08:47:09Z</time>
      </trkpt>
      <trkpt lat="44.89064" lon="5.45572">
        <ele>1477.6</ele>
        <time>2021-10-09T08:47:10Z</time>
      </trkpt>
      <trkpt lat="44.89065" lon="5.45573">
        <ele>1478.4</ele>
        <time>2021-10-09T08:47:11Z</time>
      </trkpt>
      <trkpt lat="44.89067" lon="5.45574">
        <ele>1478.4</ele>
        <time>2021-10-09T08:47:12Z</time>
      </trkpt>
      <trkpt lat="44.89068" lon="5.45576">
        <ele>1478.4</ele>
        <time>2021-10-09T08:47:13Z</time>
      </trkpt>
      <trkpt lat="44.8907" lon="5.45576">
        <ele>1479.2</ele>
        <time>2021-10-09T08:47:14Z</time>
      </trkpt>
      <trkpt lat="44.89071" lon="5.45578">
        <ele>1479</ele>
        <time>2021-10-09T08:47:15Z</time>
      </trkpt>
      <trkpt lat="44.89072" lon="5.45579">
        <ele>1479</ele>
        <time>2021-10-09T08:47:16Z</time>
      </trkpt>
      <trkpt lat="44.89073" lon="5.4558">
        <ele>1479</ele>
        <time>2021-10-09T08:47:17Z</time>
      </trkpt>
      <trkpt lat="44.89074" lon="5.45582">
        <ele>1479.8</ele>
        <time>2021-10-09T08:47:18Z</time>
      </trkpt>
      <trkpt lat="44.89075" lon="5.45584">
        <ele>1479.6</ele>
        <time>2021-10-09T08:47:19Z</time>
      </trkpt>
      <trkpt lat="44.89076" lon="5.45585">
        <ele>1479.6</ele>
        <time>2021-10-09T08:47:20Z</time>
      </trkpt>
      <trkpt lat="44.89077" lon="5.45587">
        <ele>1479.6</ele>
        <time>2021-10-09T08:47:21Z</time>
      </trkpt>
      <trkpt lat="44.89078" lon="5.45589">
        <ele>1480.4</ele>
        <time>2021-10-09T08:47:22Z</time>
      </trkpt>
      <trkpt lat="44.89079" lon="5.45591">
        <ele>1480.6</ele>
        <time>2021-10-09T08:47:23Z</time>
      </trkpt>
      <trkpt lat="44.89079" lon="5.45593">
        <ele>1480.6</ele>
        <time>2021-10-09T08:47:24Z</time>
      </trkpt>
      <trkpt lat="44.8908" lon="5.45595">
        <ele>1480.6</ele>
        <time>2021-10-09T08:47:25Z</time>
      </trkpt>
      <trkpt lat="44.8908" lon="5.45598">
        <ele>1480.6</ele>
        <time>2021-10-09T08:47:26Z</time>
      </trkpt>
      <trkpt lat="44.89081" lon="5.456">
        <ele>1481.4</ele>
        <time>2021-10-09T08:47:27Z</time>
      </trkpt>
      <trkpt lat="44.89081" lon="5.45602">
        <ele>1481.4</ele>
        <time>2021-10-09T08:47:28Z</time>
      </trkpt>
      <trkpt lat="44.89081" lon="5.45605">
        <ele>1481.4</ele>
        <time>2021-10-09T08:47:29Z</time>
      </trkpt>
      <trkpt lat="44.89081" lon="5.45607">
        <ele>1481.8</ele>
        <time>2021-10-09T08:47:30Z</time>
      </trkpt>
      <trkpt lat="44.89081" lon="5.45609">
        <ele>1481.8</ele>
        <time>2021-10-09T08:47:31Z</time>
      </trkpt>
      <trkpt lat="44.8908" lon="5.45612">
        <ele>1481.8</ele>
        <time>2021-10-09T08:47:32Z</time>
      </trkpt>
      <trkpt lat="44.8908" lon="5.45614">
        <ele>1481.8</ele>
        <time>2021-10-09T08:47:33Z</time>
      </trkpt>
      <trkpt lat="44.8908" lon="5.45616">
        <ele>1482.6</ele>
        <time>2021-10-09T08:47:34Z</time>
      </trkpt>
      <trkpt lat="44.89079" lon="5.45618">
        <ele>1483.2</ele>
        <time>2021-10-09T08:47:35Z</time>
      </trkpt>
      <trkpt lat="44.89078" lon="5.4562">
        <ele>1483.2</ele>
        <time>2021-10-09T08:47:36Z</time>
      </trkpt>
      <trkpt lat="44.89077" lon="5.45622">
        <ele>1483.2</ele>
        <time>2021-10-09T08:47:37Z</time>
      </trkpt>
      <trkpt lat="44.89076" lon="5.45623">
        <ele>1483.6</ele>
        <time>2021-10-09T08:47:38Z</time>
      </trkpt>
      <trkpt lat="44.89074" lon="5.45623">
        <ele>1484</ele>
        <time>2021-10-09T08:47:39Z</time>
      </trkpt>
      <trkpt lat="44.89073" lon="5.45624">
        <ele>1484</ele>
        <time>2021-10-09T08:47:40Z</time>
      </trkpt>
      <trkpt lat="44.89071" lon="5.45624">
        <ele>1484</ele>
        <time>2021-10-09T08:47:41Z</time>
      </trkpt>
      <trkpt lat="44.8907" lon="5.45625">
        <ele>1485</ele>
        <time>2021-10-09T08:47:42Z</time>
      </trkpt>
      <trkpt lat="44.89069" lon="5.45625">
        <ele>1484.6</ele>
        <time>2021-10-09T08:47:43Z</time>
      </trkpt>
      <trkpt lat="44.89067" lon="5.45626">
        <ele>1484.6</ele>
        <time>2021-10-09T08:47:44Z</time>
      </trkpt>
      <trkpt lat="44.89066" lon="5.45628">
        <ele>1484.6</ele>
        <time>2021-10-09T08:47:45Z</time>
      </trkpt>
      <trkpt lat="44.89066" lon="5.4563">
        <ele>1484.6</ele>
        <time>2021-10-09T08:47:46Z</time>
      </trkpt>
      <trkpt lat="44.89065" lon="5.45632">
        <ele>1485.6</ele>
        <time>2021-10-09T08:47:47Z</time>
      </trkpt>
      <trkpt lat="44.89064" lon="5.45634">
        <ele>1485.6</ele>
        <time>2021-10-09T08:47:48Z</time>
      </trkpt>
      <trkpt lat="44.89063" lon="5.45637">
        <ele>1485.6</ele>
        <time>2021-10-09T08:47:49Z</time>
      </trkpt>
      <trkpt lat="44.89063" lon="5.45639">
        <ele>1486</ele>
        <time>2021-10-09T08:47:50Z</time>
      </trkpt>
      <trkpt lat="44.89062" lon="5.45641">
        <ele>1486</ele>
        <time>2021-10-09T08:47:51Z</time>
      </trkpt>
      <trkpt lat="44.89062" lon="5.45643">
        <ele>1486</ele>
        <time>2021-10-09T08:47:52Z</time>
      </trkpt>
      <trkpt lat="44.89061" lon="5.45645">
        <ele>1486</ele>
        <time>2021-10-09T08:47:53Z</time>
      </trkpt>
      <trkpt lat="44.89061" lon="5.45648">
        <ele>1486.8</ele>
        <time>2021-10-09T08:47:54Z</time>
      </trkpt>
      <trkpt lat="44.89061" lon="5.4565">
        <ele>1486.8</ele>
        <time>2021-10-09T08:47:55Z</time>
      </trkpt>
      <trkpt lat="44.89061" lon="5.45652">
        <ele>1486.8</ele>
        <time>2021-10-09T08:47:56Z</time>
      </trkpt>
      <trkpt lat="44.89061" lon="5.45655">
        <ele>1486.8</ele>
        <time>2021-10-09T08:47:57Z</time>
      </trkpt>
      <trkpt lat="44.89061" lon="5.45657">
        <ele>1487.2</ele>
        <time>2021-10-09T08:47:58Z</time>
      </trkpt>
      <trkpt lat="44.89061" lon="5.4566">
        <ele>1488</ele>
        <time>2021-10-09T08:47:59Z</time>
      </trkpt>
      <trkpt lat="44.89061" lon="5.45662">
        <ele>1488</ele>
        <time>2021-10-09T08:48:00Z</time>
      </trkpt>
      <trkpt lat="44.89062" lon="5.45665">
        <ele>1488</ele>
        <time>2021-10-09T08:48:01Z</time>
      </trkpt>
      <trkpt lat="44.89062" lon="5.45667">
        <ele>1488</ele>
        <time>2021-10-09T08:48:02Z</time>
      </trkpt>
      <trkpt lat="44.89062" lon="5.4567">
        <ele>1487.8</ele>
        <time>2021-10-09T08:48:03Z</time>
      </trkpt>
      <trkpt lat="44.89062" lon="5.45672">
        <ele>1487.8</ele>
        <time>2021-10-09T08:48:04Z</time>
      </trkpt>
      <trkpt lat="44.89062" lon="5.45675">
        <ele>1487.8</ele>
        <time>2021-10-09T08:48:05Z</time>
      </trkpt>
      <trkpt lat="44.89062" lon="5.45677">
        <ele>1488.6</ele>
        <time>2021-10-09T08:48:06Z</time>
      </trkpt>
      <trkpt lat="44.89062" lon="5.45679">
        <ele>1488.6</ele>
        <time>2021-10-09T08:48:07Z</time>
      </trkpt>
      <trkpt lat="44.89062" lon="5.45681">
        <ele>1488.6</ele>
        <time>2021-10-09T08:48:08Z</time>
      </trkpt>
      <trkpt lat="44.89061" lon="5.45684">
        <ele>1488.6</ele>
        <time>2021-10-09T08:48:09Z</time>
      </trkpt>
      <trkpt lat="44.89061" lon="5.45687">
        <ele>1488.4</ele>
        <time>2021-10-09T08:48:10Z</time>
      </trkpt>
      <trkpt lat="44.8906" lon="5.45689">
        <ele>1488.6</ele>
        <time>2021-10-09T08:48:11Z</time>
      </trkpt>
      <trkpt lat="44.89059" lon="5.45691">
        <ele>1488.6</ele>
        <time>2021-10-09T08:48:12Z</time>
      </trkpt>
      <trkpt lat="44.89059" lon="5.45692">
        <ele>1488.6</ele>
        <time>2021-10-09T08:48:13Z</time>
      </trkpt>
      <trkpt lat="44.89058" lon="5.45693">
        <ele>1488.6</ele>
        <time>2021-10-09T08:48:14Z</time>
      </trkpt>
      <trkpt lat="44.89058" lon="5.45694">
        <ele>1488.4</ele>
        <time>2021-10-09T08:48:15Z</time>
      </trkpt>
      <trkpt lat="44.89057" lon="5.45695">
        <ele>1488.4</ele>
        <time>2021-10-09T08:48:16Z</time>
      </trkpt>
      <trkpt lat="44.89056" lon="5.45696">
        <ele>1488.4</ele>
        <time>2021-10-09T08:48:17Z</time>
      </trkpt>
      <trkpt lat="44.89056" lon="5.45696">
        <ele>1488.4</ele>
        <time>2021-10-09T08:48:18Z</time>
      </trkpt>
      <trkpt lat="44.89055" lon="5.45697">
        <ele>1488.6</ele>
        <time>2021-10-09T08:48:19Z</time>
      </trkpt>
      <trkpt lat="44.89055" lon="5.45697">
        <ele>1488.6</ele>
        <time>2021-10-09T08:48:20Z</time>
      </trkpt>
      <trkpt lat="44.8905" lon="5.457">
        <ele>1487.8</ele>
        <time>2021-10-09T08:49:14Z</time>
      </trkpt>
      <trkpt lat="44.89049" lon="5.45702">
        <ele>1488.2</ele>
        <time>2021-10-09T08:49:15Z</time>
      </trkpt>
      <trkpt lat="44.89047" lon="5.45705">
        <ele>1488.2</ele>
        <time>2021-10-09T08:49:16Z</time>
      </trkpt>
      <trkpt lat="44.89045" lon="5.45707">
        <ele>1488.2</ele>
        <time>2021-10-09T08:49:17Z</time>
      </trkpt>
      <trkpt lat="44.89044" lon="5.4571">
        <ele>1488.2</ele>
        <time>2021-10-09T08:49:18Z</time>
      </trkpt>
      <trkpt lat="44.89042" lon="5.45713">
        <ele>1487</ele>
        <time>2021-10-09T08:49:19Z</time>
      </trkpt>
      <trkpt lat="44.8904" lon="5.45717">
        <ele>1487</ele>
        <time>2021-10-09T08:49:20Z</time>
      </trkpt>
      <trkpt lat="44.89038" lon="5.4572">
        <ele>1487</ele>
        <time>2021-10-09T08:49:21Z</time>
      </trkpt>
      <trkpt lat="44.89037" lon="5.45725">
        <ele>1487.8</ele>
        <time>2021-10-09T08:49:22Z</time>
      </trkpt>
      <trkpt lat="44.89036" lon="5.45729">
        <ele>1488</ele>
        <time>2021-10-09T08:49:23Z</time>
      </trkpt>
      <trkpt lat="44.89035" lon="5.45733">
        <ele>1488</ele>
        <time>2021-10-09T08:49:24Z</time>
      </trkpt>
      <trkpt lat="44.89034" lon="5.45738">
        <ele>1488</ele>
        <time>2021-10-09T08:49:25Z</time>
      </trkpt>
      <trkpt lat="44.89034" lon="5.45742">
        <ele>1488</ele>
        <time>2021-10-09T08:49:26Z</time>
      </trkpt>
      <trkpt lat="44.89033" lon="5.45747">
        <ele>1487.4</ele>
        <time>2021-10-09T08:49:27Z</time>
      </trkpt>
      <trkpt lat="44.89033" lon="5.45752">
        <ele>1487.4</ele>
        <time>2021-10-09T08:49:28Z</time>
      </trkpt>
      <trkpt lat="44.89031" lon="5.45757">
        <ele>1487.4</ele>
        <time>2021-10-09T08:49:29Z</time>
      </trkpt>
      <trkpt lat="44.8903" lon="5.45763">
        <ele>1487.8</ele>
        <time>2021-10-09T08:49:30Z</time>
      </trkpt>
      <trkpt lat="44.89029" lon="5.45767">
        <ele>1488.2</ele>
        <time>2021-10-09T08:49:31Z</time>
      </trkpt>
      <trkpt lat="44.89028" lon="5.45771">
        <ele>1488.2</ele>
        <time>2021-10-09T08:49:32Z</time>
      </trkpt>
      <trkpt lat="44.89026" lon="5.45775">
        <ele>1488.2</ele>
        <time>2021-10-09T08:49:33Z</time>
      </trkpt>
      <trkpt lat="44.89025" lon="5.45779">
        <ele>1489</ele>
        <time>2021-10-09T08:49:34Z</time>
      </trkpt>
      <trkpt lat="44.89023" lon="5.45782">
        <ele>1489.6</ele>
        <time>2021-10-09T08:49:35Z</time>
      </trkpt>
      <trkpt lat="44.89021" lon="5.45786">
        <ele>1489.6</ele>
        <time>2021-10-09T08:49:36Z</time>
      </trkpt>
      <trkpt lat="44.8902" lon="5.4579">
        <ele>1489.6</ele>
        <time>2021-10-09T08:49:37Z</time>
      </trkpt>
      <trkpt lat="44.89018" lon="5.45793">
        <ele>1489.2</ele>
        <time>2021-10-09T08:49:38Z</time>
      </trkpt>
      <trkpt lat="44.89015" lon="5.45795">
        <ele>1489.4</ele>
        <time>2021-10-09T08:49:39Z</time>
      </trkpt>
      <trkpt lat="44.89013" lon="5.45797">
        <ele>1489.4</ele>
        <time>2021-10-09T08:49:40Z</time>
      </trkpt>
      <trkpt lat="44.89011" lon="5.45798">
        <ele>1489.4</ele>
        <time>2021-10-09T08:49:41Z</time>
      </trkpt>
      <trkpt lat="44.89008" lon="5.45799">
        <ele>1490.4</ele>
        <time>2021-10-09T08:49:42Z</time>
      </trkpt>
      <trkpt lat="44.89006" lon="5.45799">
        <ele>1491.6</ele>
        <time>2021-10-09T08:49:43Z</time>
      </trkpt>
      <trkpt lat="44.89003" lon="5.45799">
        <ele>1491.6</ele>
        <time>2021-10-09T08:49:44Z</time>
      </trkpt>
      <trkpt lat="44.89001" lon="5.45799">
        <ele>1491.6</ele>
        <time>2021-10-09T08:49:45Z</time>
      </trkpt>
      <trkpt lat="44.88998" lon="5.458">
        <ele>1492</ele>
        <time>2021-10-09T08:49:46Z</time>
      </trkpt>
      <trkpt lat="44.88996" lon="5.45801">
        <ele>1492.4</ele>
        <time>2021-10-09T08:49:47Z</time>
      </trkpt>
      <trkpt lat="44.88994" lon="5.45802">
        <ele>1492.4</ele>
        <time>2021-10-09T08:49:48Z</time>
      </trkpt>
      <trkpt lat="44.88992" lon="5.45804">
        <ele>1492.4</ele>
        <time>2021-10-09T08:49:49Z</time>
      </trkpt>
      <trkpt lat="44.8899" lon="5.45806">
        <ele>1492.4</ele>
        <time>2021-10-09T08:49:50Z</time>
      </trkpt>
      <trkpt lat="44.88988" lon="5.45807">
        <ele>1493.4</ele>
        <time>2021-10-09T08:49:51Z</time>
      </trkpt>
      <trkpt lat="44.88986" lon="5.45809">
        <ele>1493.4</ele>
        <time>2021-10-09T08:49:52Z</time>
      </trkpt>
      <trkpt lat="44.88984" lon="5.45811">
        <ele>1493.4</ele>
        <time>2021-10-09T08:49:53Z</time>
      </trkpt>
      <trkpt lat="44.88982" lon="5.45812">
        <ele>1493.8</ele>
        <time>2021-10-09T08:49:54Z</time>
      </trkpt>
      <trkpt lat="44.8898" lon="5.45814">
        <ele>1494</ele>
        <time>2021-10-09T08:49:55Z</time>
      </trkpt>
      <trkpt lat="44.88978" lon="5.45816">
        <ele>1494</ele>
        <time>2021-10-09T08:49:56Z</time>
      </trkpt>
      <trkpt lat="44.88977" lon="5.45818">
        <ele>1494</ele>
        <time>2021-10-09T08:49:57Z</time>
      </trkpt>
      <trkpt lat="44.88975" lon="5.4582">
        <ele>1495</ele>
        <time>2021-10-09T08:49:58Z</time>
      </trkpt>
      <trkpt lat="44.88974" lon="5.45823">
        <ele>1495.2</ele>
        <time>2021-10-09T08:49:59Z</time>
      </trkpt>
      <trkpt lat="44.88973" lon="5.45825">
        <ele>1495.2</ele>
        <time>2021-10-09T08:50:00Z</time>
      </trkpt>
      <trkpt lat="44.88972" lon="5.45828">
        <ele>1495.2</ele>
        <time>2021-10-09T08:50:01Z</time>
      </trkpt>
      <trkpt lat="44.88971" lon="5.4583">
        <ele>1495.8</ele>
        <time>2021-10-09T08:50:02Z</time>
      </trkpt>
      <trkpt lat="44.88971" lon="5.45833">
        <ele>1496</ele>
        <time>2021-10-09T08:50:03Z</time>
      </trkpt>
      <trkpt lat="44.8897" lon="5.45836">
        <ele>1496</ele>
        <time>2021-10-09T08:50:04Z</time>
      </trkpt>
      <trkpt lat="44.8897" lon="5.45839">
        <ele>1496</ele>
        <time>2021-10-09T08:50:05Z</time>
      </trkpt>
      <trkpt lat="44.88969" lon="5.45841">
        <ele>1497</ele>
        <time>2021-10-09T08:50:06Z</time>
      </trkpt>
      <trkpt lat="44.88968" lon="5.45844">
        <ele>1497.4</ele>
        <time>2021-10-09T08:50:07Z</time>
      </trkpt>
      <trkpt lat="44.88968" lon="5.45847">
        <ele>1497.4</ele>
        <time>2021-10-09T08:50:08Z</time>
      </trkpt>
      <trkpt lat="44.88967" lon="5.4585">
        <ele>1497.4</ele>
        <time>2021-10-09T08:50:09Z</time>
      </trkpt>
      <trkpt lat="44.88967" lon="5.45853">
        <ele>1497.4</ele>
        <time>2021-10-09T08:50:10Z</time>
      </trkpt>
      <trkpt lat="44.88967" lon="5.45855">
        <ele>1497.6</ele>
        <time>2021-10-09T08:50:11Z</time>
      </trkpt>
      <trkpt lat="44.88966" lon="5.45858">
        <ele>1497.6</ele>
        <time>2021-10-09T08:50:12Z</time>
      </trkpt>
      <trkpt lat="44.88966" lon="5.4586">
        <ele>1497.6</ele>
        <time>2021-10-09T08:50:13Z</time>
      </trkpt>
      <trkpt lat="44.88965" lon="5.45863">
        <ele>1498</ele>
        <time>2021-10-09T08:50:14Z</time>
      </trkpt>
      <trkpt lat="44.88965" lon="5.45866">
        <ele>1498</ele>
        <time>2021-10-09T08:50:15Z</time>
      </trkpt>
      <trkpt lat="44.88965" lon="5.45869">
        <ele>1498</ele>
        <time>2021-10-09T08:50:16Z</time>
      </trkpt>
      <trkpt lat="44.88964" lon="5.45872">
        <ele>1498</ele>
        <time>2021-10-09T08:50:17Z</time>
      </trkpt>
      <trkpt lat="44.88964" lon="5.45875">
        <ele>1498</ele>
        <time>2021-10-09T08:50:18Z</time>
      </trkpt>
      <trkpt lat="44.88964" lon="5.45878">
        <ele>1498.4</ele>
        <time>2021-10-09T08:50:19Z</time>
      </trkpt>
      <trkpt lat="44.88964" lon="5.45881">
        <ele>1498.4</ele>
        <time>2021-10-09T08:50:20Z</time>
      </trkpt>
      <trkpt lat="44.88964" lon="5.45884">
        <ele>1498.4</ele>
        <time>2021-10-09T08:50:21Z</time>
      </trkpt>
      <trkpt lat="44.88963" lon="5.45887">
        <ele>1498.4</ele>
        <time>2021-10-09T08:50:22Z</time>
      </trkpt>
      <trkpt lat="44.88963" lon="5.4589">
        <ele>1499</ele>
        <time>2021-10-09T08:50:23Z</time>
      </trkpt>
      <trkpt lat="44.88963" lon="5.45893">
        <ele>1499</ele>
        <time>2021-10-09T08:50:24Z</time>
      </trkpt>
      <trkpt lat="44.88963" lon="5.45896">
        <ele>1499</ele>
        <time>2021-10-09T08:50:25Z</time>
      </trkpt>
      <trkpt lat="44.88963" lon="5.45899">
        <ele>1500</ele>
        <time>2021-10-09T08:50:26Z</time>
      </trkpt>
      <trkpt lat="44.88962" lon="5.45902">
        <ele>1500.2</ele>
        <time>2021-10-09T08:50:27Z</time>
      </trkpt>
      <trkpt lat="44.88962" lon="5.45905">
        <ele>1500.2</ele>
        <time>2021-10-09T08:50:28Z</time>
      </trkpt>
      <trkpt lat="44.88962" lon="5.45908">
        <ele>1500.2</ele>
        <time>2021-10-09T08:50:29Z</time>
      </trkpt>
      <trkpt lat="44.88961" lon="5.45911">
        <ele>1500.2</ele>
        <time>2021-10-09T08:50:30Z</time>
      </trkpt>
      <trkpt lat="44.88961" lon="5.45914">
        <ele>1500.8</ele>
        <time>2021-10-09T08:50:31Z</time>
      </trkpt>
      <trkpt lat="44.8896" lon="5.45917">
        <ele>1500.8</ele>
        <time>2021-10-09T08:50:32Z</time>
      </trkpt>
      <trkpt lat="44.8896" lon="5.4592">
        <ele>1500.8</ele>
        <time>2021-10-09T08:50:33Z</time>
      </trkpt>
      <trkpt lat="44.88959" lon="5.45922">
        <ele>1501.4</ele>
        <time>2021-10-09T08:50:34Z</time>
      </trkpt>
      <trkpt lat="44.88957" lon="5.45925">
        <ele>1501.4</ele>
        <time>2021-10-09T08:50:35Z</time>
      </trkpt>
      <trkpt lat="44.88956" lon="5.45928">
        <ele>1501.4</ele>
        <time>2021-10-09T08:50:36Z</time>
      </trkpt>
      <trkpt lat="44.88955" lon="5.4593">
        <ele>1501.4</ele>
        <time>2021-10-09T08:50:37Z</time>
      </trkpt>
      <trkpt lat="44.88954" lon="5.45934">
        <ele>1501.4</ele>
        <time>2021-10-09T08:50:38Z</time>
      </trkpt>
      <trkpt lat="44.88953" lon="5.45937">
        <ele>1502.2</ele>
        <time>2021-10-09T08:50:39Z</time>
      </trkpt>
      <trkpt lat="44.88952" lon="5.4594">
        <ele>1502.2</ele>
        <time>2021-10-09T08:50:40Z</time>
      </trkpt>
      <trkpt lat="44.88951" lon="5.45942">
        <ele>1502.2</ele>
        <time>2021-10-09T08:50:41Z</time>
      </trkpt>
      <trkpt lat="44.8895" lon="5.45945">
        <ele>1502.6</ele>
        <time>2021-10-09T08:50:42Z</time>
      </trkpt>
      <trkpt lat="44.88949" lon="5.45948">
        <ele>1502.8</ele>
        <time>2021-10-09T08:50:43Z</time>
      </trkpt>
      <trkpt lat="44.88948" lon="5.45951">
        <ele>1502.8</ele>
        <time>2021-10-09T08:50:44Z</time>
      </trkpt>
      <trkpt lat="44.88948" lon="5.45954">
        <ele>1502.8</ele>
        <time>2021-10-09T08:50:45Z</time>
      </trkpt>
      <trkpt lat="44.88947" lon="5.45958">
        <ele>1502.8</ele>
        <time>2021-10-09T08:50:46Z</time>
      </trkpt>
      <trkpt lat="44.88947" lon="5.45961">
        <ele>1503.2</ele>
        <time>2021-10-09T08:50:47Z</time>
      </trkpt>
      <trkpt lat="44.88947" lon="5.45965">
        <ele>1503.2</ele>
        <time>2021-10-09T08:50:48Z</time>
      </trkpt>
      <trkpt lat="44.88947" lon="5.45968">
        <ele>1503.2</ele>
        <time>2021-10-09T08:50:49Z</time>
      </trkpt>
      <trkpt lat="44.88948" lon="5.4597">
        <ele>1503.8</ele>
        <time>2021-10-09T08:50:50Z</time>
      </trkpt>
      <trkpt lat="44.88949" lon="5.45972">
        <ele>1503.8</ele>
        <time>2021-10-09T08:50:51Z</time>
      </trkpt>
      <trkpt lat="44.88949" lon="5.45976">
        <ele>1503.8</ele>
        <time>2021-10-09T08:50:52Z</time>
      </trkpt>
      <trkpt lat="44.88949" lon="5.45979">
        <ele>1503.8</ele>
        <time>2021-10-09T08:50:53Z</time>
      </trkpt>
      <trkpt lat="44.88949" lon="5.45982">
        <ele>1504.6</ele>
        <time>2021-10-09T08:50:54Z</time>
      </trkpt>
      <trkpt lat="44.88948" lon="5.45985">
        <ele>1504.8</ele>
        <time>2021-10-09T08:50:55Z</time>
      </trkpt>
      <trkpt lat="44.88948" lon="5.45988">
        <ele>1504.8</ele>
        <time>2021-10-09T08:50:56Z</time>
      </trkpt>
      <trkpt lat="44.88948" lon="5.45991">
        <ele>1504.8</ele>
        <time>2021-10-09T08:50:57Z</time>
      </trkpt>
      <trkpt lat="44.88947" lon="5.45994">
        <ele>1505.4</ele>
        <time>2021-10-09T08:50:58Z</time>
      </trkpt>
      <trkpt lat="44.88947" lon="5.45997">
        <ele>1505.4</ele>
        <time>2021-10-09T08:50:59Z</time>
      </trkpt>
      <trkpt lat="44.88946" lon="5.46001">
        <ele>1505.4</ele>
        <time>2021-10-09T08:51:00Z</time>
      </trkpt>
      <trkpt lat="44.88945" lon="5.46004">
        <ele>1505.4</ele>
        <time>2021-10-09T08:51:01Z</time>
      </trkpt>
      <trkpt lat="44.88944" lon="5.46007">
        <ele>1505.4</ele>
        <time>2021-10-09T08:51:02Z</time>
      </trkpt>
      <trkpt lat="44.88943" lon="5.4601">
        <ele>1506.2</ele>
        <time>2021-10-09T08:51:03Z</time>
      </trkpt>
      <trkpt lat="44.88942" lon="5.46013">
        <ele>1506.2</ele>
        <time>2021-10-09T08:51:04Z</time>
      </trkpt>
      <trkpt lat="44.88941" lon="5.46016">
        <ele>1506.2</ele>
        <time>2021-10-09T08:51:05Z</time>
      </trkpt>
      <trkpt lat="44.88939" lon="5.46018">
        <ele>1506.4</ele>
        <time>2021-10-09T08:51:06Z</time>
      </trkpt>
      <trkpt lat="44.88937" lon="5.46021">
        <ele>1506.6</ele>
        <time>2021-10-09T08:51:07Z</time>
      </trkpt>
      <trkpt lat="44.88936" lon="5.46023">
        <ele>1506.6</ele>
        <time>2021-10-09T08:51:08Z</time>
      </trkpt>
      <trkpt lat="44.88934" lon="5.46026">
        <ele>1506.6</ele>
        <time>2021-10-09T08:51:09Z</time>
      </trkpt>
      <trkpt lat="44.88933" lon="5.46028">
        <ele>1506.8</ele>
        <time>2021-10-09T08:51:10Z</time>
      </trkpt>
      <trkpt lat="44.8893" lon="5.46031">
        <ele>1506.6</ele>
        <time>2021-10-09T08:51:11Z</time>
      </trkpt>
      <trkpt lat="44.88929" lon="5.46033">
        <ele>1506.6</ele>
        <time>2021-10-09T08:51:12Z</time>
      </trkpt>
      <trkpt lat="44.88927" lon="5.46036">
        <ele>1506.6</ele>
        <time>2021-10-09T08:51:13Z</time>
      </trkpt>
      <trkpt lat="44.88925" lon="5.46038">
        <ele>1506.6</ele>
        <time>2021-10-09T08:51:14Z</time>
      </trkpt>
      <trkpt lat="44.88923" lon="5.4604">
        <ele>1508.2</ele>
        <time>2021-10-09T08:51:15Z</time>
      </trkpt>
      <trkpt lat="44.88921" lon="5.46043">
        <ele>1508.2</ele>
        <time>2021-10-09T08:51:16Z</time>
      </trkpt>
      <trkpt lat="44.8892" lon="5.46046">
        <ele>1508.2</ele>
        <time>2021-10-09T08:51:17Z</time>
      </trkpt>
      <trkpt lat="44.88918" lon="5.46049">
        <ele>1508.2</ele>
        <time>2021-10-09T08:51:18Z</time>
      </trkpt>
      <trkpt lat="44.88916" lon="5.46051">
        <ele>1508.6</ele>
        <time>2021-10-09T08:51:19Z</time>
      </trkpt>
      <trkpt lat="44.88914" lon="5.46054">
        <ele>1508.6</ele>
        <time>2021-10-09T08:51:20Z</time>
      </trkpt>
      <trkpt lat="44.88912" lon="5.46056">
        <ele>1508.6</ele>
        <time>2021-10-09T08:51:21Z</time>
      </trkpt>
      <trkpt lat="44.88911" lon="5.46059">
        <ele>1508.8</ele>
        <time>2021-10-09T08:51:22Z</time>
      </trkpt>
      <trkpt lat="44.88909" lon="5.46062">
        <ele>1508.8</ele>
        <time>2021-10-09T08:51:23Z</time>
      </trkpt>
      <trkpt lat="44.88908" lon="5.46065">
        <ele>1508.8</ele>
        <time>2021-10-09T08:51:24Z</time>
      </trkpt>
      <trkpt lat="44.88907" lon="5.46067">
        <ele>1508.8</ele>
        <time>2021-10-09T08:51:25Z</time>
      </trkpt>
      <trkpt lat="44.88905" lon="5.4607">
        <ele>1508.8</ele>
        <time>2021-10-09T08:51:26Z</time>
      </trkpt>
      <trkpt lat="44.88903" lon="5.46073">
        <ele>1509.2</ele>
        <time>2021-10-09T08:51:27Z</time>
      </trkpt>
      <trkpt lat="44.88902" lon="5.46076">
        <ele>1509.2</ele>
        <time>2021-10-09T08:51:28Z</time>
      </trkpt>
      <trkpt lat="44.889" lon="5.46079">
        <ele>1509.2</ele>
        <time>2021-10-09T08:51:29Z</time>
      </trkpt>
      <trkpt lat="44.88899" lon="5.46082">
        <ele>1509.2</ele>
        <time>2021-10-09T08:51:30Z</time>
      </trkpt>
      <trkpt lat="44.88897" lon="5.46085">
        <ele>1509.2</ele>
        <time>2021-10-09T08:51:31Z</time>
      </trkpt>
      <trkpt lat="44.88896" lon="5.46088">
        <ele>1509.2</ele>
        <time>2021-10-09T08:51:32Z</time>
      </trkpt>
      <trkpt lat="44.88894" lon="5.46091">
        <ele>1509.2</ele>
        <time>2021-10-09T08:51:33Z</time>
      </trkpt>
      <trkpt lat="44.88894" lon="5.46095">
        <ele>1510</ele>
        <time>2021-10-09T08:51:34Z</time>
      </trkpt>
      <trkpt lat="44.88893" lon="5.46099">
        <ele>1510.2</ele>
        <time>2021-10-09T08:51:35Z</time>
      </trkpt>
      <trkpt lat="44.88892" lon="5.46102">
        <ele>1510.2</ele>
        <time>2021-10-09T08:51:36Z</time>
      </trkpt>
      <trkpt lat="44.88891" lon="5.46106">
        <ele>1510.2</ele>
        <time>2021-10-09T08:51:37Z</time>
      </trkpt>
      <trkpt lat="44.88891" lon="5.4611">
        <ele>1510</ele>
        <time>2021-10-09T08:51:38Z</time>
      </trkpt>
      <trkpt lat="44.88891" lon="5.46114">
        <ele>1510.4</ele>
        <time>2021-10-09T08:51:39Z</time>
      </trkpt>
      <trkpt lat="44.88891" lon="5.46118">
        <ele>1510.4</ele>
        <time>2021-10-09T08:51:40Z</time>
      </trkpt>
      <trkpt lat="44.88892" lon="5.46122">
        <ele>1510.4</ele>
        <time>2021-10-09T08:51:41Z</time>
      </trkpt>
      <trkpt lat="44.88893" lon="5.46124">
        <ele>1510.4</ele>
        <time>2021-10-09T08:51:42Z</time>
      </trkpt>
      <trkpt lat="44.88894" lon="5.46128">
        <ele>1510.8</ele>
        <time>2021-10-09T08:51:43Z</time>
      </trkpt>
      <trkpt lat="44.88894" lon="5.46132">
        <ele>1510.8</ele>
        <time>2021-10-09T08:51:44Z</time>
      </trkpt>
      <trkpt lat="44.88895" lon="5.46136">
        <ele>1510.8</ele>
        <time>2021-10-09T08:51:45Z</time>
      </trkpt>
      <trkpt lat="44.88895" lon="5.4614">
        <ele>1511.2</ele>
        <time>2021-10-09T08:51:46Z</time>
      </trkpt>
      <trkpt lat="44.88895" lon="5.46145">
        <ele>1510.8</ele>
        <time>2021-10-09T08:51:47Z</time>
      </trkpt>
      <trkpt lat="44.88894" lon="5.46149">
        <ele>1510.8</ele>
        <time>2021-10-09T08:51:48Z</time>
      </trkpt>
      <trkpt lat="44.88894" lon="5.46153">
        <ele>1510.8</ele>
        <time>2021-10-09T08:51:49Z</time>
      </trkpt>
      <trkpt lat="44.88893" lon="5.46156">
        <ele>1511.4</ele>
        <time>2021-10-09T08:51:50Z</time>
      </trkpt>
      <trkpt lat="44.88893" lon="5.4616">
        <ele>1511.6</ele>
        <time>2021-10-09T08:51:51Z</time>
      </trkpt>
      <trkpt lat="44.88892" lon="5.46164">
        <ele>1511.6</ele>
        <time>2021-10-09T08:51:52Z</time>
      </trkpt>
      <trkpt lat="44.88891" lon="5.46167">
        <ele>1511.6</ele>
        <time>2021-10-09T08:51:53Z</time>
      </trkpt>
      <trkpt lat="44.8889" lon="5.46171">
        <ele>1511.6</ele>
        <time>2021-10-09T08:51:54Z</time>
      </trkpt>
      <trkpt lat="44.88889" lon="5.46174">
        <ele>1512</ele>
        <time>2021-10-09T08:51:55Z</time>
      </trkpt>
      <trkpt lat="44.88887" lon="5.46177">
        <ele>1512</ele>
        <time>2021-10-09T08:51:56Z</time>
      </trkpt>
      <trkpt lat="44.88885" lon="5.4618">
        <ele>1512</ele>
        <time>2021-10-09T08:51:57Z</time>
      </trkpt>
      <trkpt lat="44.88883" lon="5.46183">
        <ele>1512</ele>
        <time>2021-10-09T08:51:58Z</time>
      </trkpt>
      <trkpt lat="44.88881" lon="5.46186">
        <ele>1512.2</ele>
        <time>2021-10-09T08:51:59Z</time>
      </trkpt>
      <trkpt lat="44.88879" lon="5.46189">
        <ele>1512.2</ele>
        <time>2021-10-09T08:52:00Z</time>
      </trkpt>
      <trkpt lat="44.88876" lon="5.46191">
        <ele>1512.2</ele>
        <time>2021-10-09T08:52:01Z</time>
      </trkpt>
      <trkpt lat="44.88874" lon="5.46193">
        <ele>1512.2</ele>
        <time>2021-10-09T08:52:02Z</time>
      </trkpt>
      <trkpt lat="44.88872" lon="5.46196">
        <ele>1512.8</ele>
        <time>2021-10-09T08:52:03Z</time>
      </trkpt>
      <trkpt lat="44.8887" lon="5.46199">
        <ele>1512.8</ele>
        <time>2021-10-09T08:52:04Z</time>
      </trkpt>
      <trkpt lat="44.88868" lon="5.46202">
        <ele>1512.8</ele>
        <time>2021-10-09T08:52:05Z</time>
      </trkpt>
      <trkpt lat="44.88866" lon="5.46205">
        <ele>1512.8</ele>
        <time>2021-10-09T08:52:06Z</time>
      </trkpt>
      <trkpt lat="44.88864" lon="5.46209">
        <ele>1513.4</ele>
        <time>2021-10-09T08:52:07Z</time>
      </trkpt>
      <trkpt lat="44.88863" lon="5.46213">
        <ele>1513.4</ele>
        <time>2021-10-09T08:52:08Z</time>
      </trkpt>
      <trkpt lat="44.88862" lon="5.46216">
        <ele>1513.4</ele>
        <time>2021-10-09T08:52:09Z</time>
      </trkpt>
      <trkpt lat="44.8886" lon="5.4622">
        <ele>1513.4</ele>
        <time>2021-10-09T08:52:10Z</time>
      </trkpt>
      <trkpt lat="44.88859" lon="5.46223">
        <ele>1512.8</ele>
        <time>2021-10-09T08:52:11Z</time>
      </trkpt>
      <trkpt lat="44.88859" lon="5.46226">
        <ele>1512.8</ele>
        <time>2021-10-09T08:52:12Z</time>
      </trkpt>
      <trkpt lat="44.88858" lon="5.4623">
        <ele>1512.8</ele>
        <time>2021-10-09T08:52:13Z</time>
      </trkpt>
      <trkpt lat="44.88859" lon="5.46234">
        <ele>1512</ele>
        <time>2021-10-09T08:52:14Z</time>
      </trkpt>
      <trkpt lat="44.8886" lon="5.46238">
        <ele>1512</ele>
        <time>2021-10-09T08:52:15Z</time>
      </trkpt>
      <trkpt lat="44.8886" lon="5.46244">
        <ele>1512</ele>
        <time>2021-10-09T08:52:16Z</time>
      </trkpt>
      <trkpt lat="44.88861" lon="5.46248">
        <ele>1512</ele>
        <time>2021-10-09T08:52:17Z</time>
      </trkpt>
      <trkpt lat="44.88863" lon="5.46252">
        <ele>1511</ele>
        <time>2021-10-09T08:52:18Z</time>
      </trkpt>
      <trkpt lat="44.88865" lon="5.46257">
        <ele>1509.2</ele>
        <time>2021-10-09T08:52:19Z</time>
      </trkpt>
      <trkpt lat="44.88867" lon="5.46263">
        <ele>1509.2</ele>
        <time>2021-10-09T08:52:20Z</time>
      </trkpt>
      <trkpt lat="44.88867" lon="5.46268">
        <ele>1509.2</ele>
        <time>2021-10-09T08:52:21Z</time>
      </trkpt>
      <trkpt lat="44.88868" lon="5.46274">
        <ele>1509.2</ele>
        <time>2021-10-09T08:52:22Z</time>
      </trkpt>
      <trkpt lat="44.88869" lon="5.46279">
        <ele>1507.6</ele>
        <time>2021-10-09T08:52:23Z</time>
      </trkpt>
      <trkpt lat="44.88868" lon="5.46285">
        <ele>1507.6</ele>
        <time>2021-10-09T08:52:24Z</time>
      </trkpt>
      <trkpt lat="44.88867" lon="5.46291">
        <ele>1507.6</ele>
        <time>2021-10-09T08:52:25Z</time>
      </trkpt>
      <trkpt lat="44.88867" lon="5.46296">
        <ele>1507.6</ele>
        <time>2021-10-09T08:52:26Z</time>
      </trkpt>
      <trkpt lat="44.88866" lon="5.46303">
        <ele>1506.2</ele>
        <time>2021-10-09T08:52:27Z</time>
      </trkpt>
      <trkpt lat="44.88866" lon="5.4631">
        <ele>1506.2</ele>
        <time>2021-10-09T08:52:28Z</time>
      </trkpt>
      <trkpt lat="44.88866" lon="5.46317">
        <ele>1506.2</ele>
        <time>2021-10-09T08:52:29Z</time>
      </trkpt>
      <trkpt lat="44.88865" lon="5.46323">
        <ele>1506</ele>
        <time>2021-10-09T08:52:30Z</time>
      </trkpt>
      <trkpt lat="44.88866" lon="5.46329">
        <ele>1505.6</ele>
        <time>2021-10-09T08:52:31Z</time>
      </trkpt>
      <trkpt lat="44.88868" lon="5.46335">
        <ele>1505.6</ele>
        <time>2021-10-09T08:52:32Z</time>
      </trkpt>
      <trkpt lat="44.8887" lon="5.46342">
        <ele>1505.6</ele>
        <time>2021-10-09T08:52:33Z</time>
      </trkpt>
      <trkpt lat="44.88872" lon="5.46349">
        <ele>1504.6</ele>
        <time>2021-10-09T08:52:34Z</time>
      </trkpt>
      <trkpt lat="44.88873" lon="5.46356">
        <ele>1503</ele>
        <time>2021-10-09T08:52:35Z</time>
      </trkpt>
      <trkpt lat="44.88875" lon="5.46363">
        <ele>1503</ele>
        <time>2021-10-09T08:52:36Z</time>
      </trkpt>
      <trkpt lat="44.88877" lon="5.46371">
        <ele>1503</ele>
        <time>2021-10-09T08:52:37Z</time>
      </trkpt>
      <trkpt lat="44.88879" lon="5.46379">
        <ele>1502</ele>
        <time>2021-10-09T08:52:38Z</time>
      </trkpt>
      <trkpt lat="44.88881" lon="5.46386">
        <ele>1501.2</ele>
        <time>2021-10-09T08:52:39Z</time>
      </trkpt>
      <trkpt lat="44.88884" lon="5.46394">
        <ele>1501.2</ele>
        <time>2021-10-09T08:52:40Z</time>
      </trkpt>
      <trkpt lat="44.88887" lon="5.46399">
        <ele>1501.2</ele>
        <time>2021-10-09T08:52:41Z</time>
      </trkpt>
      <trkpt lat="44.88891" lon="5.46405">
        <ele>1501.2</ele>
        <time>2021-10-09T08:52:42Z</time>
      </trkpt>
      <trkpt lat="44.88896" lon="5.46407">
        <ele>1501</ele>
        <time>2021-10-09T08:52:43Z</time>
      </trkpt>
      <trkpt lat="44.88901" lon="5.46409">
        <ele>1501</ele>
        <time>2021-10-09T08:52:44Z</time>
      </trkpt>
      <trkpt lat="44.88906" lon="5.46409">
        <ele>1501</ele>
        <time>2021-10-09T08:52:45Z</time>
      </trkpt>
      <trkpt lat="44.88911" lon="5.46409">
        <ele>1501</ele>
        <time>2021-10-09T08:52:46Z</time>
      </trkpt>
      <trkpt lat="44.88916" lon="5.46409">
        <ele>1500.2</ele>
        <time>2021-10-09T08:52:47Z</time>
      </trkpt>
      <trkpt lat="44.8892" lon="5.4641">
        <ele>1500.2</ele>
        <time>2021-10-09T08:52:48Z</time>
      </trkpt>
      <trkpt lat="44.88925" lon="5.46413">
        <ele>1500.2</ele>
        <time>2021-10-09T08:52:49Z</time>
      </trkpt>
      <trkpt lat="44.88928" lon="5.46417">
        <ele>1501.2</ele>
        <time>2021-10-09T08:52:50Z</time>
      </trkpt>
      <trkpt lat="44.8893" lon="5.46422">
        <ele>1502.8</ele>
        <time>2021-10-09T08:52:51Z</time>
      </trkpt>
      <trkpt lat="44.88932" lon="5.46427">
        <ele>1502.8</ele>
        <time>2021-10-09T08:52:52Z</time>
      </trkpt>
      <trkpt lat="44.88934" lon="5.46432">
        <ele>1502.8</ele>
        <time>2021-10-09T08:52:53Z</time>
      </trkpt>
      <trkpt lat="44.88935" lon="5.46437">
        <ele>1502.8</ele>
        <time>2021-10-09T08:52:54Z</time>
      </trkpt>
      <trkpt lat="44.88935" lon="5.46442">
        <ele>1501.8</ele>
        <time>2021-10-09T08:52:55Z</time>
      </trkpt>
      <trkpt lat="44.88937" lon="5.46448">
        <ele>1501.8</ele>
        <time>2021-10-09T08:52:56Z</time>
      </trkpt>
      <trkpt lat="44.88938" lon="5.46453">
        <ele>1501.8</ele>
        <time>2021-10-09T08:52:57Z</time>
      </trkpt>
      <trkpt lat="44.88939" lon="5.46459">
        <ele>1502.2</ele>
        <time>2021-10-09T08:52:58Z</time>
      </trkpt>
      <trkpt lat="44.8894" lon="5.46464">
        <ele>1502.6</ele>
        <time>2021-10-09T08:52:59Z</time>
      </trkpt>
      <trkpt lat="44.88942" lon="5.46469">
        <ele>1502.6</ele>
        <time>2021-10-09T08:53:00Z</time>
      </trkpt>
      <trkpt lat="44.88944" lon="5.46474">
        <ele>1502.6</ele>
        <time>2021-10-09T08:53:01Z</time>
      </trkpt>
      <trkpt lat="44.88947" lon="5.46479">
        <ele>1502.6</ele>
        <time>2021-10-09T08:53:02Z</time>
      </trkpt>
      <trkpt lat="44.8895" lon="5.46483">
        <ele>1502.2</ele>
        <time>2021-10-09T08:53:03Z</time>
      </trkpt>
      <trkpt lat="44.88953" lon="5.46486">
        <ele>1502.2</ele>
        <time>2021-10-09T08:53:04Z</time>
      </trkpt>
      <trkpt lat="44.88956" lon="5.4649">
        <ele>1502.2</ele>
        <time>2021-10-09T08:53:05Z</time>
      </trkpt>
      <trkpt lat="44.8896" lon="5.46493">
        <ele>1502.2</ele>
        <time>2021-10-09T08:53:06Z</time>
      </trkpt>
      <trkpt lat="44.88963" lon="5.46497">
        <ele>1501.8</ele>
        <time>2021-10-09T08:53:07Z</time>
      </trkpt>
      <trkpt lat="44.88966" lon="5.46502">
        <ele>1501.8</ele>
        <time>2021-10-09T08:53:08Z</time>
      </trkpt>
      <trkpt lat="44.88968" lon="5.46508">
        <ele>1501.8</ele>
        <time>2021-10-09T08:53:09Z</time>
      </trkpt>
      <trkpt lat="44.8897" lon="5.46514">
        <ele>1502.2</ele>
        <time>2021-10-09T08:53:10Z</time>
      </trkpt>
      <trkpt lat="44.88971" lon="5.46519">
        <ele>1502.2</ele>
        <time>2021-10-09T08:53:11Z</time>
      </trkpt>
      <trkpt lat="44.88973" lon="5.46523">
        <ele>1502.2</ele>
        <time>2021-10-09T08:53:12Z</time>
      </trkpt>
      <trkpt lat="44.88976" lon="5.46527">
        <ele>1502.2</ele>
        <time>2021-10-09T08:53:13Z</time>
      </trkpt>
      <trkpt lat="44.88979" lon="5.46532">
        <ele>1501.6</ele>
        <time>2021-10-09T08:53:14Z</time>
      </trkpt>
      <trkpt lat="44.88982" lon="5.46535">
        <ele>1501</ele>
        <time>2021-10-09T08:53:15Z</time>
      </trkpt>
      <trkpt lat="44.88986" lon="5.46539">
        <ele>1501</ele>
        <time>2021-10-09T08:53:16Z</time>
      </trkpt>
      <trkpt lat="44.88988" lon="5.46543">
        <ele>1501</ele>
        <time>2021-10-09T08:53:17Z</time>
      </trkpt>
      <trkpt lat="44.88991" lon="5.46548">
        <ele>1502</ele>
        <time>2021-10-09T08:53:18Z</time>
      </trkpt>
      <trkpt lat="44.88993" lon="5.46552">
        <ele>1502</ele>
        <time>2021-10-09T08:53:19Z</time>
      </trkpt>
      <trkpt lat="44.88995" lon="5.46556">
        <ele>1502</ele>
        <time>2021-10-09T08:53:20Z</time>
      </trkpt>
      <trkpt lat="44.88997" lon="5.46559">
        <ele>1502</ele>
        <time>2021-10-09T08:53:21Z</time>
      </trkpt>
      <trkpt lat="44.88999" lon="5.46563">
        <ele>1502</ele>
        <time>2021-10-09T08:53:22Z</time>
      </trkpt>
      <trkpt lat="44.89002" lon="5.46567">
        <ele>1502</ele>
        <time>2021-10-09T08:53:23Z</time>
      </trkpt>
      <trkpt lat="44.89005" lon="5.46571">
        <ele>1502</ele>
        <time>2021-10-09T08:53:24Z</time>
      </trkpt>
      <trkpt lat="44.89008" lon="5.46573">
        <ele>1502</ele>
        <time>2021-10-09T08:53:25Z</time>
      </trkpt>
      <trkpt lat="44.89011" lon="5.46576">
        <ele>1502</ele>
        <time>2021-10-09T08:53:26Z</time>
      </trkpt>
      <trkpt lat="44.89013" lon="5.46579">
        <ele>1502.4</ele>
        <time>2021-10-09T08:53:27Z</time>
      </trkpt>
      <trkpt lat="44.89016" lon="5.46582">
        <ele>1502.4</ele>
        <time>2021-10-09T08:53:28Z</time>
      </trkpt>
      <trkpt lat="44.89019" lon="5.46584">
        <ele>1502.4</ele>
        <time>2021-10-09T08:53:29Z</time>
      </trkpt>
      <trkpt lat="44.89021" lon="5.46588">
        <ele>1502.2</ele>
        <time>2021-10-09T08:53:30Z</time>
      </trkpt>
      <trkpt lat="44.89024" lon="5.46591">
        <ele>1501.8</ele>
        <time>2021-10-09T08:53:31Z</time>
      </trkpt>
      <trkpt lat="44.89027" lon="5.46595">
        <ele>1501.8</ele>
        <time>2021-10-09T08:53:32Z</time>
      </trkpt>
      <trkpt lat="44.89029" lon="5.46599">
        <ele>1501.8</ele>
        <time>2021-10-09T08:53:33Z</time>
      </trkpt>
      <trkpt lat="44.89031" lon="5.46603">
        <ele>1501.8</ele>
        <time>2021-10-09T08:53:34Z</time>
      </trkpt>
      <trkpt lat="44.89033" lon="5.46608">
        <ele>1501.8</ele>
        <time>2021-10-09T08:53:35Z</time>
      </trkpt>
      <trkpt lat="44.89035" lon="5.46612">
        <ele>1501.8</ele>
        <time>2021-10-09T08:53:36Z</time>
      </trkpt>
      <trkpt lat="44.89037" lon="5.46616">
        <ele>1501.8</ele>
        <time>2021-10-09T08:53:37Z</time>
      </trkpt>
      <trkpt lat="44.89039" lon="5.46621">
        <ele>1502</ele>
        <time>2021-10-09T08:53:38Z</time>
      </trkpt>
      <trkpt lat="44.8904" lon="5.46625">
        <ele>1502.4</ele>
        <time>2021-10-09T08:53:39Z</time>
      </trkpt>
      <trkpt lat="44.89041" lon="5.46629">
        <ele>1502.4</ele>
        <time>2021-10-09T08:53:40Z</time>
      </trkpt>
      <trkpt lat="44.89043" lon="5.46633">
        <ele>1502.4</ele>
        <time>2021-10-09T08:53:41Z</time>
      </trkpt>
      <trkpt lat="44.89044" lon="5.46638">
        <ele>1502.2</ele>
        <time>2021-10-09T08:53:42Z</time>
      </trkpt>
      <trkpt lat="44.89046" lon="5.46642">
        <ele>1501.6</ele>
        <time>2021-10-09T08:53:43Z</time>
      </trkpt>
      <trkpt lat="44.89047" lon="5.46646">
        <ele>1501.6</ele>
        <time>2021-10-09T08:53:44Z</time>
      </trkpt>
      <trkpt lat="44.89048" lon="5.46651">
        <ele>1501.6</ele>
        <time>2021-10-09T08:53:45Z</time>
      </trkpt>
      <trkpt lat="44.89049" lon="5.46656">
        <ele>1501.6</ele>
        <time>2021-10-09T08:53:46Z</time>
      </trkpt>
      <trkpt lat="44.89051" lon="5.46661">
        <ele>1502.4</ele>
        <time>2021-10-09T08:53:47Z</time>
      </trkpt>
      <trkpt lat="44.89052" lon="5.46666">
        <ele>1502.4</ele>
        <time>2021-10-09T08:53:48Z</time>
      </trkpt>
      <trkpt lat="44.89053" lon="5.46671">
        <ele>1502.4</ele>
        <time>2021-10-09T08:53:49Z</time>
      </trkpt>
      <trkpt lat="44.89054" lon="5.46676">
        <ele>1501.8</ele>
        <time>2021-10-09T08:53:50Z</time>
      </trkpt>
      <trkpt lat="44.89055" lon="5.46681">
        <ele>1502</ele>
        <time>2021-10-09T08:53:51Z</time>
      </trkpt>
      <trkpt lat="44.89057" lon="5.46686">
        <ele>1502</ele>
        <time>2021-10-09T08:53:52Z</time>
      </trkpt>
      <trkpt lat="44.89058" lon="5.4669">
        <ele>1502</ele>
        <time>2021-10-09T08:53:53Z</time>
      </trkpt>
      <trkpt lat="44.8906" lon="5.46695">
        <ele>1502</ele>
        <time>2021-10-09T08:53:54Z</time>
      </trkpt>
      <trkpt lat="44.89062" lon="5.467">
        <ele>1502.2</ele>
        <time>2021-10-09T08:53:55Z</time>
      </trkpt>
      <trkpt lat="44.89063" lon="5.46705">
        <ele>1502.2</ele>
        <time>2021-10-09T08:53:56Z</time>
      </trkpt>
      <trkpt lat="44.89065" lon="5.46711">
        <ele>1502.2</ele>
        <time>2021-10-09T08:53:57Z</time>
      </trkpt>
      <trkpt lat="44.89067" lon="5.46716">
        <ele>1502</ele>
        <time>2021-10-09T08:53:58Z</time>
      </trkpt>
      <trkpt lat="44.89068" lon="5.46721">
        <ele>1502.4</ele>
        <time>2021-10-09T08:53:59Z</time>
      </trkpt>
      <trkpt lat="44.8907" lon="5.46726">
        <ele>1502.4</ele>
        <time>2021-10-09T08:54:00Z</time>
      </trkpt>
      <trkpt lat="44.89071" lon="5.46731">
        <ele>1502.4</ele>
        <time>2021-10-09T08:54:01Z</time>
      </trkpt>
      <trkpt lat="44.89072" lon="5.46736">
        <ele>1502.4</ele>
        <time>2021-10-09T08:54:02Z</time>
      </trkpt>
      <trkpt lat="44.89073" lon="5.4674">
        <ele>1502.2</ele>
        <time>2021-10-09T08:54:03Z</time>
      </trkpt>
      <trkpt lat="44.89074" lon="5.46745">
        <ele>1502.2</ele>
        <time>2021-10-09T08:54:04Z</time>
      </trkpt>
      <trkpt lat="44.89075" lon="5.4675">
        <ele>1502.2</ele>
        <time>2021-10-09T08:54:05Z</time>
      </trkpt>
      <trkpt lat="44.89077" lon="5.46754">
        <ele>1502.2</ele>
        <time>2021-10-09T08:54:06Z</time>
      </trkpt>
      <trkpt lat="44.89079" lon="5.46758">
        <ele>1502</ele>
        <time>2021-10-09T08:54:07Z</time>
      </trkpt>
      <trkpt lat="44.89082" lon="5.46762">
        <ele>1502</ele>
        <time>2021-10-09T08:54:08Z</time>
      </trkpt>
      <trkpt lat="44.89085" lon="5.46766">
        <ele>1502</ele>
        <time>2021-10-09T08:54:09Z</time>
      </trkpt>
      <trkpt lat="44.89088" lon="5.46769">
        <ele>1501.4</ele>
        <time>2021-10-09T08:54:10Z</time>
      </trkpt>
      <trkpt lat="44.89092" lon="5.46772">
        <ele>1501.6</ele>
        <time>2021-10-09T08:54:11Z</time>
      </trkpt>
      <trkpt lat="44.89096" lon="5.46776">
        <ele>1501.6</ele>
        <time>2021-10-09T08:54:12Z</time>
      </trkpt>
      <trkpt lat="44.891" lon="5.4678">
        <ele>1501.6</ele>
        <time>2021-10-09T08:54:13Z</time>
      </trkpt>
      <trkpt lat="44.89103" lon="5.46784">
        <ele>1501.8</ele>
        <time>2021-10-09T08:54:14Z</time>
      </trkpt>
      <trkpt lat="44.89106" lon="5.46788">
        <ele>1502</ele>
        <time>2021-10-09T08:54:15Z</time>
      </trkpt>
      <trkpt lat="44.89108" lon="5.46792">
        <ele>1502</ele>
        <time>2021-10-09T08:54:16Z</time>
      </trkpt>
      <trkpt lat="44.8911" lon="5.46797">
        <ele>1502</ele>
        <time>2021-10-09T08:54:17Z</time>
      </trkpt>
      <trkpt lat="44.89111" lon="5.46802">
        <ele>1502</ele>
        <time>2021-10-09T08:54:18Z</time>
      </trkpt>
      <trkpt lat="44.89112" lon="5.46807">
        <ele>1501.6</ele>
        <time>2021-10-09T08:54:19Z</time>
      </trkpt>
      <trkpt lat="44.89113" lon="5.46812">
        <ele>1501.6</ele>
        <time>2021-10-09T08:54:20Z</time>
      </trkpt>
      <trkpt lat="44.89114" lon="5.46817">
        <ele>1501.6</ele>
        <time>2021-10-09T08:54:21Z</time>
      </trkpt>
      <trkpt lat="44.89116" lon="5.46822">
        <ele>1502.2</ele>
        <time>2021-10-09T08:54:22Z</time>
      </trkpt>
      <trkpt lat="44.89118" lon="5.46826">
        <ele>1502.2</ele>
        <time>2021-10-09T08:54:23Z</time>
      </trkpt>
      <trkpt lat="44.8912" lon="5.4683">
        <ele>1502.2</ele>
        <time>2021-10-09T08:54:24Z</time>
      </trkpt>
      <trkpt lat="44.89123" lon="5.46833">
        <ele>1502.2</ele>
        <time>2021-10-09T08:54:25Z</time>
      </trkpt>
      <trkpt lat="44.89126" lon="5.46835">
        <ele>1502.4</ele>
        <time>2021-10-09T08:54:26Z</time>
      </trkpt>
      <trkpt lat="44.89129" lon="5.46837">
        <ele>1502.6</ele>
        <time>2021-10-09T08:54:27Z</time>
      </trkpt>
      <trkpt lat="44.89133" lon="5.46837">
        <ele>1502.6</ele>
        <time>2021-10-09T08:54:28Z</time>
      </trkpt>
      <trkpt lat="44.89137" lon="5.46838">
        <ele>1502.6</ele>
        <time>2021-10-09T08:54:29Z</time>
      </trkpt>
      <trkpt lat="44.8914" lon="5.46838">
        <ele>1502.6</ele>
        <time>2021-10-09T08:54:30Z</time>
      </trkpt>
      <trkpt lat="44.89144" lon="5.46837">
        <ele>1503</ele>
        <time>2021-10-09T08:54:31Z</time>
      </trkpt>
      <trkpt lat="44.89147" lon="5.46837">
        <ele>1503</ele>
        <time>2021-10-09T08:54:32Z</time>
      </trkpt>
      <trkpt lat="44.89148" lon="5.46837">
        <ele>1503</ele>
        <time>2021-10-09T08:54:33Z</time>
      </trkpt>
      <trkpt lat="44.8915" lon="5.46837">
        <ele>1503</ele>
        <time>2021-10-09T08:54:34Z</time>
      </trkpt>
      <trkpt lat="44.89152" lon="5.46837">
        <ele>1502.6</ele>
        <time>2021-10-09T08:54:35Z</time>
      </trkpt>
      <trkpt lat="44.89155" lon="5.46837">
        <ele>1502.6</ele>
        <time>2021-10-09T08:54:36Z</time>
      </trkpt>
      <trkpt lat="44.89157" lon="5.46837">
        <ele>1502.6</ele>
        <time>2021-10-09T08:54:37Z</time>
      </trkpt>
      <trkpt lat="44.89159" lon="5.46836">
        <ele>1502.6</ele>
        <time>2021-10-09T08:54:38Z</time>
      </trkpt>
      <trkpt lat="44.89161" lon="5.46836">
        <ele>1502.2</ele>
        <time>2021-10-09T08:54:39Z</time>
      </trkpt>
      <trkpt lat="44.89164" lon="5.46836">
        <ele>1502.2</ele>
        <time>2021-10-09T08:54:40Z</time>
      </trkpt>
      <trkpt lat="44.89168" lon="5.46838">
        <ele>1502.2</ele>
        <time>2021-10-09T08:54:41Z</time>
      </trkpt>
      <trkpt lat="44.8917" lon="5.46841">
        <ele>1502.2</ele>
        <time>2021-10-09T08:54:42Z</time>
      </trkpt>
      <trkpt lat="44.89174" lon="5.46844">
        <ele>1502.4</ele>
        <time>2021-10-09T08:54:43Z</time>
      </trkpt>
      <trkpt lat="44.89176" lon="5.46847">
        <ele>1502.4</ele>
        <time>2021-10-09T08:54:44Z</time>
      </trkpt>
      <trkpt lat="44.89178" lon="5.46851">
        <ele>1502.4</ele>
        <time>2021-10-09T08:54:45Z</time>
      </trkpt>
      <trkpt lat="44.89179" lon="5.46856">
        <ele>1502.4</ele>
        <time>2021-10-09T08:54:46Z</time>
      </trkpt>
      <trkpt lat="44.8918" lon="5.46861">
        <ele>1502</ele>
        <time>2021-10-09T08:54:47Z</time>
      </trkpt>
      <trkpt lat="44.89181" lon="5.46866">
        <ele>1502</ele>
        <time>2021-10-09T08:54:48Z</time>
      </trkpt>
      <trkpt lat="44.89183" lon="5.4687">
        <ele>1502</ele>
        <time>2021-10-09T08:54:49Z</time>
      </trkpt>
      <trkpt lat="44.89184" lon="5.46875">
        <ele>1502</ele>
        <time>2021-10-09T08:54:50Z</time>
      </trkpt>
      <trkpt lat="44.89185" lon="5.4688">
        <ele>1501.6</ele>
        <time>2021-10-09T08:54:51Z</time>
      </trkpt>
      <trkpt lat="44.89185" lon="5.46885">
        <ele>1501.6</ele>
        <time>2021-10-09T08:54:52Z</time>
      </trkpt>
      <trkpt lat="44.89186" lon="5.46891">
        <ele>1501.6</ele>
        <time>2021-10-09T08:54:53Z</time>
      </trkpt>
      <trkpt lat="44.89187" lon="5.46896">
        <ele>1501.6</ele>
        <time>2021-10-09T08:54:54Z</time>
      </trkpt>
      <trkpt lat="44.89188" lon="5.46902">
        <ele>1501.4</ele>
        <time>2021-10-09T08:54:55Z</time>
      </trkpt>
      <trkpt lat="44.89188" lon="5.46908">
        <ele>1501.4</ele>
        <time>2021-10-09T08:54:56Z</time>
      </trkpt>
      <trkpt lat="44.89189" lon="5.46913">
        <ele>1501.4</ele>
        <time>2021-10-09T08:54:57Z</time>
      </trkpt>
      <trkpt lat="44.8919" lon="5.46919">
        <ele>1501.6</ele>
        <time>2021-10-09T08:54:58Z</time>
      </trkpt>
      <trkpt lat="44.8919" lon="5.46924">
        <ele>1501.6</ele>
        <time>2021-10-09T08:54:59Z</time>
      </trkpt>
      <trkpt lat="44.8919" lon="5.4693">
        <ele>1501.6</ele>
        <time>2021-10-09T08:55:00Z</time>
      </trkpt>
      <trkpt lat="44.89191" lon="5.46936">
        <ele>1501.6</ele>
        <time>2021-10-09T08:55:01Z</time>
      </trkpt>
      <trkpt lat="44.89191" lon="5.46942">
        <ele>1502</ele>
        <time>2021-10-09T08:55:02Z</time>
      </trkpt>
      <trkpt lat="44.89193" lon="5.46948">
        <ele>1502.4</ele>
        <time>2021-10-09T08:55:03Z</time>
      </trkpt>
      <trkpt lat="44.89194" lon="5.46954">
        <ele>1502.4</ele>
        <time>2021-10-09T08:55:04Z</time>
      </trkpt>
      <trkpt lat="44.89195" lon="5.46959">
        <ele>1502.4</ele>
        <time>2021-10-09T08:55:05Z</time>
      </trkpt>
      <trkpt lat="44.89197" lon="5.46964">
        <ele>1502.4</ele>
        <time>2021-10-09T08:55:06Z</time>
      </trkpt>
      <trkpt lat="44.89198" lon="5.46969">
        <ele>1502.4</ele>
        <time>2021-10-09T08:55:07Z</time>
      </trkpt>
      <trkpt lat="44.892" lon="5.46974">
        <ele>1502.4</ele>
        <time>2021-10-09T08:55:08Z</time>
      </trkpt>
      <trkpt lat="44.89202" lon="5.46979">
        <ele>1502.4</ele>
        <time>2021-10-09T08:55:09Z</time>
      </trkpt>
      <trkpt lat="44.89204" lon="5.46984">
        <ele>1502.4</ele>
        <time>2021-10-09T08:55:10Z</time>
      </trkpt>
      <trkpt lat="44.89206" lon="5.46989">
        <ele>1502.2</ele>
        <time>2021-10-09T08:55:11Z</time>
      </trkpt>
      <trkpt lat="44.89209" lon="5.46994">
        <ele>1502.2</ele>
        <time>2021-10-09T08:55:12Z</time>
      </trkpt>
      <trkpt lat="44.89212" lon="5.46998">
        <ele>1502.2</ele>
        <time>2021-10-09T08:55:13Z</time>
      </trkpt>
      <trkpt lat="44.89215" lon="5.47002">
        <ele>1502.2</ele>
        <time>2021-10-09T08:55:14Z</time>
      </trkpt>
      <trkpt lat="44.89218" lon="5.47005">
        <ele>1502.4</ele>
        <time>2021-10-09T08:55:15Z</time>
      </trkpt>
      <trkpt lat="44.89221" lon="5.47008">
        <ele>1502.4</ele>
        <time>2021-10-09T08:55:16Z</time>
      </trkpt>
      <trkpt lat="44.89225" lon="5.4701">
        <ele>1502.4</ele>
        <time>2021-10-09T08:55:17Z</time>
      </trkpt>
      <trkpt lat="44.89228" lon="5.47012">
        <ele>1502.4</ele>
        <time>2021-10-09T08:55:18Z</time>
      </trkpt>
      <trkpt lat="44.89231" lon="5.47013">
        <ele>1502.2</ele>
        <time>2021-10-09T08:55:19Z</time>
      </trkpt>
      <trkpt lat="44.89235" lon="5.47015">
        <ele>1502.2</ele>
        <time>2021-10-09T08:55:20Z</time>
      </trkpt>
      <trkpt lat="44.89238" lon="5.47015">
        <ele>1502.2</ele>
        <time>2021-10-09T08:55:21Z</time>
      </trkpt>
      <trkpt lat="44.89241" lon="5.47015">
        <ele>1502.2</ele>
        <time>2021-10-09T08:55:22Z</time>
      </trkpt>
      <trkpt lat="44.89245" lon="5.47013">
        <ele>1501.8</ele>
        <time>2021-10-09T08:55:23Z</time>
      </trkpt>
      <trkpt lat="44.89249" lon="5.47012">
        <ele>1501.8</ele>
        <time>2021-10-09T08:55:24Z</time>
      </trkpt>
      <trkpt lat="44.89252" lon="5.4701">
        <ele>1501.8</ele>
        <time>2021-10-09T08:55:25Z</time>
      </trkpt>
      <trkpt lat="44.89256" lon="5.47008">
        <ele>1502.2</ele>
        <time>2021-10-09T08:55:26Z</time>
      </trkpt>
      <trkpt lat="44.8926" lon="5.47006">
        <ele>1502</ele>
        <time>2021-10-09T08:55:27Z</time>
      </trkpt>
      <trkpt lat="44.89264" lon="5.47004">
        <ele>1502</ele>
        <time>2021-10-09T08:55:28Z</time>
      </trkpt>
      <trkpt lat="44.89268" lon="5.47003">
        <ele>1502</ele>
        <time>2021-10-09T08:55:29Z</time>
      </trkpt>
      <trkpt lat="44.89272" lon="5.47001">
        <ele>1502</ele>
        <time>2021-10-09T08:55:30Z</time>
      </trkpt>
      <trkpt lat="44.89276" lon="5.47">
        <ele>1502</ele>
        <time>2021-10-09T08:55:31Z</time>
      </trkpt>
      <trkpt lat="44.8928" lon="5.46999">
        <ele>1502</ele>
        <time>2021-10-09T08:55:32Z</time>
      </trkpt>
      <trkpt lat="44.89283" lon="5.46997">
        <ele>1502</ele>
        <time>2021-10-09T08:55:33Z</time>
      </trkpt>
      <trkpt lat="44.89287" lon="5.46994">
        <ele>1502.4</ele>
        <time>2021-10-09T08:55:34Z</time>
      </trkpt>
      <trkpt lat="44.89291" lon="5.46991">
        <ele>1502</ele>
        <time>2021-10-09T08:55:35Z</time>
      </trkpt>
      <trkpt lat="44.89294" lon="5.46987">
        <ele>1502</ele>
        <time>2021-10-09T08:55:36Z</time>
      </trkpt>
      <trkpt lat="44.89297" lon="5.46983">
        <ele>1502</ele>
        <time>2021-10-09T08:55:37Z</time>
      </trkpt>
      <trkpt lat="44.893" lon="5.46978">
        <ele>1502.8</ele>
        <time>2021-10-09T08:55:38Z</time>
      </trkpt>
      <trkpt lat="44.89302" lon="5.46973">
        <ele>1502.6</ele>
        <time>2021-10-09T08:55:39Z</time>
      </trkpt>
      <trkpt lat="44.89304" lon="5.46968">
        <ele>1502.6</ele>
        <time>2021-10-09T08:55:40Z</time>
      </trkpt>
      <trkpt lat="44.89306" lon="5.46963">
        <ele>1502.6</ele>
        <time>2021-10-09T08:55:41Z</time>
      </trkpt>
      <trkpt lat="44.89308" lon="5.46958">
        <ele>1502.6</ele>
        <time>2021-10-09T08:55:42Z</time>
      </trkpt>
      <trkpt lat="44.8931" lon="5.46953">
        <ele>1502.2</ele>
        <time>2021-10-09T08:55:43Z</time>
      </trkpt>
      <trkpt lat="44.89312" lon="5.46948">
        <ele>1502.2</ele>
        <time>2021-10-09T08:55:44Z</time>
      </trkpt>
      <trkpt lat="44.89314" lon="5.46944">
        <ele>1502.2</ele>
        <time>2021-10-09T08:55:45Z</time>
      </trkpt>
      <trkpt lat="44.89316" lon="5.46939">
        <ele>1501.2</ele>
        <time>2021-10-09T08:55:46Z</time>
      </trkpt>
      <trkpt lat="44.89319" lon="5.46936">
        <ele>1501.2</ele>
        <time>2021-10-09T08:55:47Z</time>
      </trkpt>
      <trkpt lat="44.89322" lon="5.46933">
        <ele>1501.2</ele>
        <time>2021-10-09T08:55:48Z</time>
      </trkpt>
      <trkpt lat="44.89326" lon="5.46932">
        <ele>1501.2</ele>
        <time>2021-10-09T08:55:49Z</time>
      </trkpt>
      <trkpt lat="44.8933" lon="5.46933">
        <ele>1501.2</ele>
        <time>2021-10-09T08:55:50Z</time>
      </trkpt>
      <trkpt lat="44.89334" lon="5.46936">
        <ele>1502.8</ele>
        <time>2021-10-09T08:55:51Z</time>
      </trkpt>
      <trkpt lat="44.89337" lon="5.46939">
        <ele>1502.8</ele>
        <time>2021-10-09T08:55:52Z</time>
      </trkpt>
      <trkpt lat="44.89339" lon="5.46943">
        <ele>1502.8</ele>
        <time>2021-10-09T08:55:53Z</time>
      </trkpt>
      <trkpt lat="44.89341" lon="5.46948">
        <ele>1503</ele>
        <time>2021-10-09T08:55:54Z</time>
      </trkpt>
      <trkpt lat="44.89344" lon="5.46952">
        <ele>1503</ele>
        <time>2021-10-09T08:55:55Z</time>
      </trkpt>
      <trkpt lat="44.89345" lon="5.46956">
        <ele>1503</ele>
        <time>2021-10-09T08:55:56Z</time>
      </trkpt>
      <trkpt lat="44.89347" lon="5.46961">
        <ele>1503</ele>
        <time>2021-10-09T08:55:57Z</time>
      </trkpt>
      <trkpt lat="44.89348" lon="5.46966">
        <ele>1503</ele>
        <time>2021-10-09T08:55:58Z</time>
      </trkpt>
      <trkpt lat="44.89349" lon="5.46971">
        <ele>1503.2</ele>
        <time>2021-10-09T08:55:59Z</time>
      </trkpt>
      <trkpt lat="44.89349" lon="5.46976">
        <ele>1503.2</ele>
        <time>2021-10-09T08:56:00Z</time>
      </trkpt>
      <trkpt lat="44.8935" lon="5.46981">
        <ele>1503.2</ele>
        <time>2021-10-09T08:56:01Z</time>
      </trkpt>
      <trkpt lat="44.8935" lon="5.46986">
        <ele>1504.2</ele>
        <time>2021-10-09T08:56:02Z</time>
      </trkpt>
      <trkpt lat="44.89352" lon="5.46991">
        <ele>1504</ele>
        <time>2021-10-09T08:56:03Z</time>
      </trkpt>
      <trkpt lat="44.89354" lon="5.46996">
        <ele>1504</ele>
        <time>2021-10-09T08:56:04Z</time>
      </trkpt>
      <trkpt lat="44.89355" lon="5.47">
        <ele>1504</ele>
        <time>2021-10-09T08:56:05Z</time>
      </trkpt>
      <trkpt lat="44.89358" lon="5.47004">
        <ele>1504.4</ele>
        <time>2021-10-09T08:56:06Z</time>
      </trkpt>
      <trkpt lat="44.8936" lon="5.47007">
        <ele>1504.6</ele>
        <time>2021-10-09T08:56:07Z</time>
      </trkpt>
      <trkpt lat="44.89362" lon="5.47011">
        <ele>1504.6</ele>
        <time>2021-10-09T08:56:08Z</time>
      </trkpt>
      <trkpt lat="44.89364" lon="5.47015">
        <ele>1504.6</ele>
        <time>2021-10-09T08:56:09Z</time>
      </trkpt>
      <trkpt lat="44.89366" lon="5.47018">
        <ele>1505.2</ele>
        <time>2021-10-09T08:56:10Z</time>
      </trkpt>
      <trkpt lat="44.89369" lon="5.47022">
        <ele>1505.2</ele>
        <time>2021-10-09T08:56:11Z</time>
      </trkpt>
      <trkpt lat="44.89371" lon="5.47025">
        <ele>1505.2</ele>
        <time>2021-10-09T08:56:12Z</time>
      </trkpt>
      <trkpt lat="44.89373" lon="5.47029">
        <ele>1505.2</ele>
        <time>2021-10-09T08:56:13Z</time>
      </trkpt>
      <trkpt lat="44.89375" lon="5.47035">
        <ele>1505.2</ele>
        <time>2021-10-09T08:56:14Z</time>
      </trkpt>
      <trkpt lat="44.89375" lon="5.4704">
        <ele>1504.6</ele>
        <time>2021-10-09T08:56:15Z</time>
      </trkpt>
      <trkpt lat="44.89375" lon="5.47045">
        <ele>1504.6</ele>
        <time>2021-10-09T08:56:16Z</time>
      </trkpt>
      <trkpt lat="44.89375" lon="5.4705">
        <ele>1504.6</ele>
        <time>2021-10-09T08:56:17Z</time>
      </trkpt>
      <trkpt lat="44.89374" lon="5.47055">
        <ele>1505.2</ele>
        <time>2021-10-09T08:56:18Z</time>
      </trkpt>
      <trkpt lat="44.89374" lon="5.4706">
        <ele>1505.4</ele>
        <time>2021-10-09T08:56:19Z</time>
      </trkpt>
      <trkpt lat="44.89374" lon="5.47065">
        <ele>1505.4</ele>
        <time>2021-10-09T08:56:20Z</time>
      </trkpt>
      <trkpt lat="44.89374" lon="5.4707">
        <ele>1505.4</ele>
        <time>2021-10-09T08:56:21Z</time>
      </trkpt>
      <trkpt lat="44.89373" lon="5.47075">
        <ele>1505.8</ele>
        <time>2021-10-09T08:56:22Z</time>
      </trkpt>
      <trkpt lat="44.89374" lon="5.4708">
        <ele>1506.4</ele>
        <time>2021-10-09T08:56:23Z</time>
      </trkpt>
      <trkpt lat="44.89374" lon="5.47085">
        <ele>1506.4</ele>
        <time>2021-10-09T08:56:24Z</time>
      </trkpt>
      <trkpt lat="44.89374" lon="5.47089">
        <ele>1506.4</ele>
        <time>2021-10-09T08:56:25Z</time>
      </trkpt>
      <trkpt lat="44.89374" lon="5.47095">
        <ele>1506</ele>
        <time>2021-10-09T08:56:26Z</time>
      </trkpt>
      <trkpt lat="44.89373" lon="5.47101">
        <ele>1506.6</ele>
        <time>2021-10-09T08:56:27Z</time>
      </trkpt>
      <trkpt lat="44.89372" lon="5.47106">
        <ele>1506.6</ele>
        <time>2021-10-09T08:56:28Z</time>
      </trkpt>
      <trkpt lat="44.89371" lon="5.47111">
        <ele>1506.6</ele>
        <time>2021-10-09T08:56:29Z</time>
      </trkpt>
      <trkpt lat="44.89371" lon="5.47117">
        <ele>1507</ele>
        <time>2021-10-09T08:56:30Z</time>
      </trkpt>
      <trkpt lat="44.8937" lon="5.47122">
        <ele>1506.6</ele>
        <time>2021-10-09T08:56:31Z</time>
      </trkpt>
      <trkpt lat="44.8937" lon="5.47127">
        <ele>1506.6</ele>
        <time>2021-10-09T08:56:32Z</time>
      </trkpt>
      <trkpt lat="44.89369" lon="5.47132">
        <ele>1506.6</ele>
        <time>2021-10-09T08:56:33Z</time>
      </trkpt>
      <trkpt lat="44.89368" lon="5.47136">
        <ele>1507.4</ele>
        <time>2021-10-09T08:56:34Z</time>
      </trkpt>
      <trkpt lat="44.89367" lon="5.47141">
        <ele>1507.4</ele>
        <time>2021-10-09T08:56:35Z</time>
      </trkpt>
      <trkpt lat="44.89367" lon="5.47146">
        <ele>1507.4</ele>
        <time>2021-10-09T08:56:36Z</time>
      </trkpt>
      <trkpt lat="44.89366" lon="5.47151">
        <ele>1507.4</ele>
        <time>2021-10-09T08:56:37Z</time>
      </trkpt>
      <trkpt lat="44.89366" lon="5.47156">
        <ele>1507.4</ele>
        <time>2021-10-09T08:56:38Z</time>
      </trkpt>
      <trkpt lat="44.89365" lon="5.47161">
        <ele>1507.6</ele>
        <time>2021-10-09T08:56:39Z</time>
      </trkpt>
      <trkpt lat="44.89365" lon="5.47165">
        <ele>1507.6</ele>
        <time>2021-10-09T08:56:40Z</time>
      </trkpt>
      <trkpt lat="44.89364" lon="5.4717">
        <ele>1507.6</ele>
        <time>2021-10-09T08:56:41Z</time>
      </trkpt>
      <trkpt lat="44.89363" lon="5.47175">
        <ele>1507.8</ele>
        <time>2021-10-09T08:56:42Z</time>
      </trkpt>
      <trkpt lat="44.89363" lon="5.47179">
        <ele>1508.2</ele>
        <time>2021-10-09T08:56:43Z</time>
      </trkpt>
      <trkpt lat="44.89363" lon="5.47184">
        <ele>1508.2</ele>
        <time>2021-10-09T08:56:44Z</time>
      </trkpt>
      <trkpt lat="44.89362" lon="5.47188">
        <ele>1508.2</ele>
        <time>2021-10-09T08:56:45Z</time>
      </trkpt>
      <trkpt lat="44.89362" lon="5.47193">
        <ele>1508.6</ele>
        <time>2021-10-09T08:56:46Z</time>
      </trkpt>
      <trkpt lat="44.89361" lon="5.47198">
        <ele>1509</ele>
        <time>2021-10-09T08:56:47Z</time>
      </trkpt>
      <trkpt lat="44.89361" lon="5.47203">
        <ele>1509</ele>
        <time>2021-10-09T08:56:48Z</time>
      </trkpt>
      <trkpt lat="44.8936" lon="5.47207">
        <ele>1509</ele>
        <time>2021-10-09T08:56:49Z</time>
      </trkpt>
      <trkpt lat="44.8936" lon="5.47212">
        <ele>1509</ele>
        <time>2021-10-09T08:56:50Z</time>
      </trkpt>
      <trkpt lat="44.8936" lon="5.47216">
        <ele>1509.4</ele>
        <time>2021-10-09T08:56:51Z</time>
      </trkpt>
      <trkpt lat="44.8936" lon="5.4722">
        <ele>1509.4</ele>
        <time>2021-10-09T08:56:52Z</time>
      </trkpt>
      <trkpt lat="44.8936" lon="5.47225">
        <ele>1509.4</ele>
        <time>2021-10-09T08:56:53Z</time>
      </trkpt>
      <trkpt lat="44.89359" lon="5.47229">
        <ele>1509.6</ele>
        <time>2021-10-09T08:56:54Z</time>
      </trkpt>
      <trkpt lat="44.8936" lon="5.47233">
        <ele>1510.2</ele>
        <time>2021-10-09T08:56:55Z</time>
      </trkpt>
      <trkpt lat="44.8936" lon="5.47237">
        <ele>1510.2</ele>
        <time>2021-10-09T08:56:56Z</time>
      </trkpt>
      <trkpt lat="44.8936" lon="5.47242">
        <ele>1510.2</ele>
        <time>2021-10-09T08:56:57Z</time>
      </trkpt>
      <trkpt lat="44.8936" lon="5.47246">
        <ele>1509.8</ele>
        <time>2021-10-09T08:56:58Z</time>
      </trkpt>
      <trkpt lat="44.89361" lon="5.4725">
        <ele>1510.2</ele>
        <time>2021-10-09T08:56:59Z</time>
      </trkpt>
      <trkpt lat="44.89361" lon="5.47254">
        <ele>1510.2</ele>
        <time>2021-10-09T08:57:00Z</time>
      </trkpt>
      <trkpt lat="44.89361" lon="5.47258">
        <ele>1510.2</ele>
        <time>2021-10-09T08:57:01Z</time>
      </trkpt>
      <trkpt lat="44.89361" lon="5.47261">
        <ele>1511</ele>
        <time>2021-10-09T08:57:02Z</time>
      </trkpt>
      <trkpt lat="44.89361" lon="5.47265">
        <ele>1511.4</ele>
        <time>2021-10-09T08:57:03Z</time>
      </trkpt>
      <trkpt lat="44.89361" lon="5.47268">
        <ele>1511.4</ele>
        <time>2021-10-09T08:57:04Z</time>
      </trkpt>
      <trkpt lat="44.89361" lon="5.47272">
        <ele>1511.4</ele>
        <time>2021-10-09T08:57:05Z</time>
      </trkpt>
      <trkpt lat="44.89361" lon="5.47275">
        <ele>1512.2</ele>
        <time>2021-10-09T08:57:06Z</time>
      </trkpt>
      <trkpt lat="44.89361" lon="5.47279">
        <ele>1512.4</ele>
        <time>2021-10-09T08:57:07Z</time>
      </trkpt>
      <trkpt lat="44.89361" lon="5.47282">
        <ele>1512.4</ele>
        <time>2021-10-09T08:57:08Z</time>
      </trkpt>
      <trkpt lat="44.89361" lon="5.47286">
        <ele>1512.4</ele>
        <time>2021-10-09T08:57:09Z</time>
      </trkpt>
      <trkpt lat="44.89361" lon="5.4729">
        <ele>1512.4</ele>
        <time>2021-10-09T08:57:10Z</time>
      </trkpt>
      <trkpt lat="44.89361" lon="5.47293">
        <ele>1512.8</ele>
        <time>2021-10-09T08:57:11Z</time>
      </trkpt>
      <trkpt lat="44.89361" lon="5.47297">
        <ele>1512.8</ele>
        <time>2021-10-09T08:57:12Z</time>
      </trkpt>
      <trkpt lat="44.89361" lon="5.473">
        <ele>1512.8</ele>
        <time>2021-10-09T08:57:13Z</time>
      </trkpt>
      <trkpt lat="44.89362" lon="5.47304">
        <ele>1513.6</ele>
        <time>2021-10-09T08:57:14Z</time>
      </trkpt>
      <trkpt lat="44.89362" lon="5.47307">
        <ele>1514</ele>
        <time>2021-10-09T08:57:15Z</time>
      </trkpt>
      <trkpt lat="44.89362" lon="5.47311">
        <ele>1514</ele>
        <time>2021-10-09T08:57:16Z</time>
      </trkpt>
      <trkpt lat="44.89363" lon="5.47315">
        <ele>1514</ele>
        <time>2021-10-09T08:57:17Z</time>
      </trkpt>
      <trkpt lat="44.89363" lon="5.47318">
        <ele>1513.8</ele>
        <time>2021-10-09T08:57:18Z</time>
      </trkpt>
      <trkpt lat="44.89364" lon="5.47322">
        <ele>1514</ele>
        <time>2021-10-09T08:57:19Z</time>
      </trkpt>
      <trkpt lat="44.89365" lon="5.47326">
        <ele>1514</ele>
        <time>2021-10-09T08:57:20Z</time>
      </trkpt>
      <trkpt lat="44.89366" lon="5.47329">
        <ele>1514</ele>
        <time>2021-10-09T08:57:21Z</time>
      </trkpt>
      <trkpt lat="44.89367" lon="5.47333">
        <ele>1514</ele>
        <time>2021-10-09T08:57:22Z</time>
      </trkpt>
      <trkpt lat="44.89368" lon="5.47337">
        <ele>1514.6</ele>
        <time>2021-10-09T08:57:23Z</time>
      </trkpt>
      <trkpt lat="44.89368" lon="5.4734">
        <ele>1514.6</ele>
        <time>2021-10-09T08:57:24Z</time>
      </trkpt>
      <trkpt lat="44.89368" lon="5.47344">
        <ele>1514.6</ele>
        <time>2021-10-09T08:57:25Z</time>
      </trkpt>
      <trkpt lat="44.89369" lon="5.47348">
        <ele>1514.8</ele>
        <time>2021-10-09T08:57:26Z</time>
      </trkpt>
      <trkpt lat="44.8937" lon="5.47352">
        <ele>1514.4</ele>
        <time>2021-10-09T08:57:27Z</time>
      </trkpt>
      <trkpt lat="44.8937" lon="5.47356">
        <ele>1514.4</ele>
        <time>2021-10-09T08:57:28Z</time>
      </trkpt>
      <trkpt lat="44.8937" lon="5.4736">
        <ele>1514.4</ele>
        <time>2021-10-09T08:57:29Z</time>
      </trkpt>
      <trkpt lat="44.89371" lon="5.47364">
        <ele>1514.4</ele>
        <time>2021-10-09T08:57:30Z</time>
      </trkpt>
      <trkpt lat="44.89371" lon="5.47368">
        <ele>1514.8</ele>
        <time>2021-10-09T08:57:31Z</time>
      </trkpt>
      <trkpt lat="44.89371" lon="5.47372">
        <ele>1514.8</ele>
        <time>2021-10-09T08:57:32Z</time>
      </trkpt>
      <trkpt lat="44.89372" lon="5.47376">
        <ele>1514.8</ele>
        <time>2021-10-09T08:57:33Z</time>
      </trkpt>
      <trkpt lat="44.89372" lon="5.4738">
        <ele>1514.8</ele>
        <time>2021-10-09T08:57:34Z</time>
      </trkpt>
      <trkpt lat="44.89372" lon="5.47384">
        <ele>1515</ele>
        <time>2021-10-09T08:57:35Z</time>
      </trkpt>
      <trkpt lat="44.89373" lon="5.47388">
        <ele>1515</ele>
        <time>2021-10-09T08:57:36Z</time>
      </trkpt>
      <trkpt lat="44.89374" lon="5.47392">
        <ele>1515</ele>
        <time>2021-10-09T08:57:37Z</time>
      </trkpt>
      <trkpt lat="44.89374" lon="5.47397">
        <ele>1515</ele>
        <time>2021-10-09T08:57:38Z</time>
      </trkpt>
      <trkpt lat="44.89374" lon="5.47401">
        <ele>1515.4</ele>
        <time>2021-10-09T08:57:39Z</time>
      </trkpt>
      <trkpt lat="44.89374" lon="5.47405">
        <ele>1515.4</ele>
        <time>2021-10-09T08:57:40Z</time>
      </trkpt>
      <trkpt lat="44.89375" lon="5.4741">
        <ele>1515.4</ele>
        <time>2021-10-09T08:57:41Z</time>
      </trkpt>
      <trkpt lat="44.89375" lon="5.47414">
        <ele>1515.4</ele>
        <time>2021-10-09T08:57:42Z</time>
      </trkpt>
      <trkpt lat="44.89375" lon="5.47418">
        <ele>1515.4</ele>
        <time>2021-10-09T08:57:43Z</time>
      </trkpt>
      <trkpt lat="44.89376" lon="5.47423">
        <ele>1515.4</ele>
        <time>2021-10-09T08:57:44Z</time>
      </trkpt>
      <trkpt lat="44.89377" lon="5.47427">
        <ele>1515.4</ele>
        <time>2021-10-09T08:57:45Z</time>
      </trkpt>
      <trkpt lat="44.89377" lon="5.47431">
        <ele>1514.4</ele>
        <time>2021-10-09T08:57:46Z</time>
      </trkpt>
      <trkpt lat="44.89378" lon="5.47436">
        <ele>1514.8</ele>
        <time>2021-10-09T08:57:47Z</time>
      </trkpt>
      <trkpt lat="44.89379" lon="5.47441">
        <ele>1514.8</ele>
        <time>2021-10-09T08:57:48Z</time>
      </trkpt>
      <trkpt lat="44.89379" lon="5.47446">
        <ele>1514.8</ele>
        <time>2021-10-09T08:57:49Z</time>
      </trkpt>
      <trkpt lat="44.8938" lon="5.4745">
        <ele>1514</ele>
        <time>2021-10-09T08:57:50Z</time>
      </trkpt>
      <trkpt lat="44.89381" lon="5.47456">
        <ele>1513.6</ele>
        <time>2021-10-09T08:57:51Z</time>
      </trkpt>
      <trkpt lat="44.89382" lon="5.47461">
        <ele>1513.6</ele>
        <time>2021-10-09T08:57:52Z</time>
      </trkpt>
      <trkpt lat="44.89383" lon="5.47466">
        <ele>1513.6</ele>
        <time>2021-10-09T08:57:53Z</time>
      </trkpt>
      <trkpt lat="44.89384" lon="5.47471">
        <ele>1513.6</ele>
        <time>2021-10-09T08:57:54Z</time>
      </trkpt>
      <trkpt lat="44.89385" lon="5.47477">
        <ele>1513.4</ele>
        <time>2021-10-09T08:57:55Z</time>
      </trkpt>
      <trkpt lat="44.89387" lon="5.47482">
        <ele>1513.4</ele>
        <time>2021-10-09T08:57:56Z</time>
      </trkpt>
      <trkpt lat="44.89388" lon="5.47487">
        <ele>1513.4</ele>
        <time>2021-10-09T08:57:57Z</time>
      </trkpt>
      <trkpt lat="44.89389" lon="5.47492">
        <ele>1512.4</ele>
        <time>2021-10-09T08:57:58Z</time>
      </trkpt>
      <trkpt lat="44.89392" lon="5.47498">
        <ele>1511.8</ele>
        <time>2021-10-09T08:57:59Z</time>
      </trkpt>
      <trkpt lat="44.89394" lon="5.47504">
        <ele>1511.8</ele>
        <time>2021-10-09T08:58:00Z</time>
      </trkpt>
      <trkpt lat="44.89398" lon="5.47508">
        <ele>1511.8</ele>
        <time>2021-10-09T08:58:01Z</time>
      </trkpt>
      <trkpt lat="44.89402" lon="5.47512">
        <ele>1512</ele>
        <time>2021-10-09T08:58:02Z</time>
      </trkpt>
      <trkpt lat="44.89407" lon="5.47514">
        <ele>1511.6</ele>
        <time>2021-10-09T08:58:03Z</time>
      </trkpt>
      <trkpt lat="44.89411" lon="5.47515">
        <ele>1511.6</ele>
        <time>2021-10-09T08:58:04Z</time>
      </trkpt>
      <trkpt lat="44.89417" lon="5.47515">
        <ele>1511.6</ele>
        <time>2021-10-09T08:58:05Z</time>
      </trkpt>
      <trkpt lat="44.89422" lon="5.47513">
        <ele>1510.6</ele>
        <time>2021-10-09T08:58:06Z</time>
      </trkpt>
      <trkpt lat="44.89427" lon="5.47512">
        <ele>1509.8</ele>
        <time>2021-10-09T08:58:07Z</time>
      </trkpt>
      <trkpt lat="44.89433" lon="5.47512">
        <ele>1509.8</ele>
        <time>2021-10-09T08:58:08Z</time>
      </trkpt>
      <trkpt lat="44.89439" lon="5.47514">
        <ele>1509.8</ele>
        <time>2021-10-09T08:58:09Z</time>
      </trkpt>
      <trkpt lat="44.89444" lon="5.47518">
        <ele>1509.8</ele>
        <time>2021-10-09T08:58:10Z</time>
      </trkpt>
      <trkpt lat="44.8945" lon="5.47521">
        <ele>1509</ele>
        <time>2021-10-09T08:58:11Z</time>
      </trkpt>
      <trkpt lat="44.89455" lon="5.47522">
        <ele>1509</ele>
        <time>2021-10-09T08:58:12Z</time>
      </trkpt>
      <trkpt lat="44.8946" lon="5.47521">
        <ele>1509</ele>
        <time>2021-10-09T08:58:13Z</time>
      </trkpt>
      <trkpt lat="44.89465" lon="5.47517">
        <ele>1508</ele>
        <time>2021-10-09T08:58:14Z</time>
      </trkpt>
      <trkpt lat="44.89469" lon="5.47512">
        <ele>1507.2</ele>
        <time>2021-10-09T08:58:15Z</time>
      </trkpt>
      <trkpt lat="44.89472" lon="5.47506">
        <ele>1507.2</ele>
        <time>2021-10-09T08:58:16Z</time>
      </trkpt>
      <trkpt lat="44.89475" lon="5.475">
        <ele>1507.2</ele>
        <time>2021-10-09T08:58:17Z</time>
      </trkpt>
      <trkpt lat="44.89478" lon="5.47493">
        <ele>1506.2</ele>
        <time>2021-10-09T08:58:18Z</time>
      </trkpt>
      <trkpt lat="44.89481" lon="5.47485">
        <ele>1504.4</ele>
        <time>2021-10-09T08:58:19Z</time>
      </trkpt>
      <trkpt lat="44.89484" lon="5.47479">
        <ele>1504.4</ele>
        <time>2021-10-09T08:58:20Z</time>
      </trkpt>
      <trkpt lat="44.89488" lon="5.47472">
        <ele>1504.4</ele>
        <time>2021-10-09T08:58:21Z</time>
      </trkpt>
      <trkpt lat="44.89491" lon="5.47466">
        <ele>1504.4</ele>
        <time>2021-10-09T08:58:22Z</time>
      </trkpt>
      <trkpt lat="44.89494" lon="5.47462">
        <ele>1503.6</ele>
        <time>2021-10-09T08:58:23Z</time>
      </trkpt>
      <trkpt lat="44.89497" lon="5.47454">
        <ele>1503.6</ele>
        <time>2021-10-09T08:58:24Z</time>
      </trkpt>
      <trkpt lat="44.895" lon="5.47447">
        <ele>1503.6</ele>
        <time>2021-10-09T08:58:25Z</time>
      </trkpt>
      <trkpt lat="44.89503" lon="5.4744">
        <ele>1502.6</ele>
        <time>2021-10-09T08:58:26Z</time>
      </trkpt>
      <trkpt lat="44.89507" lon="5.47434">
        <ele>1500</ele>
        <time>2021-10-09T08:58:27Z</time>
      </trkpt>
      <trkpt lat="44.89512" lon="5.47428">
        <ele>1500</ele>
        <time>2021-10-09T08:58:28Z</time>
      </trkpt>
      <trkpt lat="44.89517" lon="5.47424">
        <ele>1500</ele>
        <time>2021-10-09T08:58:29Z</time>
      </trkpt>
      <trkpt lat="44.89522" lon="5.47421">
        <ele>1500</ele>
        <time>2021-10-09T08:58:30Z</time>
      </trkpt>
      <trkpt lat="44.89528" lon="5.47418">
        <ele>1498.2</ele>
        <time>2021-10-09T08:58:31Z</time>
      </trkpt>
      <trkpt lat="44.89533" lon="5.47416">
        <ele>1498.2</ele>
        <time>2021-10-09T08:58:32Z</time>
      </trkpt>
      <trkpt lat="44.89539" lon="5.47414">
        <ele>1498.2</ele>
        <time>2021-10-09T08:58:33Z</time>
      </trkpt>
      <trkpt lat="44.89544" lon="5.47412">
        <ele>1498.2</ele>
        <time>2021-10-09T08:58:34Z</time>
      </trkpt>
      <trkpt lat="44.89549" lon="5.47411">
        <ele>1497.4</ele>
        <time>2021-10-09T08:58:35Z</time>
      </trkpt>
      <trkpt lat="44.89554" lon="5.47411">
        <ele>1497.4</ele>
        <time>2021-10-09T08:58:36Z</time>
      </trkpt>
      <trkpt lat="44.89559" lon="5.47412">
        <ele>1497.4</ele>
        <time>2021-10-09T08:58:37Z</time>
      </trkpt>
      <trkpt lat="44.89564" lon="5.47413">
        <ele>1496.8</ele>
        <time>2021-10-09T08:58:38Z</time>
      </trkpt>
      <trkpt lat="44.89569" lon="5.47416">
        <ele>1496</ele>
        <time>2021-10-09T08:58:39Z</time>
      </trkpt>
      <trkpt lat="44.89574" lon="5.47419">
        <ele>1496</ele>
        <time>2021-10-09T08:58:40Z</time>
      </trkpt>
      <trkpt lat="44.89578" lon="5.47423">
        <ele>1496</ele>
        <time>2021-10-09T08:58:41Z</time>
      </trkpt>
      <trkpt lat="44.89581" lon="5.47427">
        <ele>1495.2</ele>
        <time>2021-10-09T08:58:42Z</time>
      </trkpt>
      <trkpt lat="44.89585" lon="5.47432">
        <ele>1494.6</ele>
        <time>2021-10-09T08:58:43Z</time>
      </trkpt>
      <trkpt lat="44.89589" lon="5.47437">
        <ele>1494.6</ele>
        <time>2021-10-09T08:58:44Z</time>
      </trkpt>
      <trkpt lat="44.89593" lon="5.47442">
        <ele>1494.6</ele>
        <time>2021-10-09T08:58:45Z</time>
      </trkpt>
      <trkpt lat="44.89597" lon="5.47447">
        <ele>1494.6</ele>
        <time>2021-10-09T08:58:46Z</time>
      </trkpt>
      <trkpt lat="44.89601" lon="5.47452">
        <ele>1492.4</ele>
        <time>2021-10-09T08:58:47Z</time>
      </trkpt>
      <trkpt lat="44.89605" lon="5.47457">
        <ele>1492.4</ele>
        <time>2021-10-09T08:58:48Z</time>
      </trkpt>
      <trkpt lat="44.8961" lon="5.47462">
        <ele>1492.4</ele>
        <time>2021-10-09T08:58:49Z</time>
      </trkpt>
      <trkpt lat="44.89614" lon="5.47466">
        <ele>1492.4</ele>
        <time>2021-10-09T08:58:50Z</time>
      </trkpt>
      <trkpt lat="44.89619" lon="5.47471">
        <ele>1492</ele>
        <time>2021-10-09T08:58:51Z</time>
      </trkpt>
      <trkpt lat="44.89623" lon="5.47476">
        <ele>1492</ele>
        <time>2021-10-09T08:58:52Z</time>
      </trkpt>
      <trkpt lat="44.89627" lon="5.47482">
        <ele>1492</ele>
        <time>2021-10-09T08:58:53Z</time>
      </trkpt>
      <trkpt lat="44.8963" lon="5.4749">
        <ele>1492</ele>
        <time>2021-10-09T08:58:54Z</time>
      </trkpt>
      <trkpt lat="44.89631" lon="5.47496">
        <ele>1491.4</ele>
        <time>2021-10-09T08:58:55Z</time>
      </trkpt>
      <trkpt lat="44.89632" lon="5.47503">
        <ele>1491.4</ele>
        <time>2021-10-09T08:58:56Z</time>
      </trkpt>
      <trkpt lat="44.89632" lon="5.4751">
        <ele>1491.4</ele>
        <time>2021-10-09T08:58:57Z</time>
      </trkpt>
      <trkpt lat="44.89633" lon="5.47517">
        <ele>1491</ele>
        <time>2021-10-09T08:58:58Z</time>
      </trkpt>
      <trkpt lat="44.89634" lon="5.47524">
        <ele>1490.6</ele>
        <time>2021-10-09T08:58:59Z</time>
      </trkpt>
      <trkpt lat="44.89637" lon="5.47529">
        <ele>1490.6</ele>
        <time>2021-10-09T08:59:00Z</time>
      </trkpt>
      <trkpt lat="44.89641" lon="5.47533">
        <ele>1490.6</ele>
        <time>2021-10-09T08:59:01Z</time>
      </trkpt>
      <trkpt lat="44.89645" lon="5.47536">
        <ele>1489.8</ele>
        <time>2021-10-09T08:59:02Z</time>
      </trkpt>
      <trkpt lat="44.89649" lon="5.47538">
        <ele>1489.4</ele>
        <time>2021-10-09T08:59:03Z</time>
      </trkpt>
      <trkpt lat="44.89654" lon="5.4754">
        <ele>1489.4</ele>
        <time>2021-10-09T08:59:04Z</time>
      </trkpt>
      <trkpt lat="44.89659" lon="5.47541">
        <ele>1489.4</ele>
        <time>2021-10-09T08:59:05Z</time>
      </trkpt>
      <trkpt lat="44.89664" lon="5.47541">
        <ele>1488.4</ele>
        <time>2021-10-09T08:59:06Z</time>
      </trkpt>
      <trkpt lat="44.89669" lon="5.47539">
        <ele>1487</ele>
        <time>2021-10-09T08:59:07Z</time>
      </trkpt>
      <trkpt lat="44.89674" lon="5.47535">
        <ele>1487</ele>
        <time>2021-10-09T08:59:08Z</time>
      </trkpt>
      <trkpt lat="44.89678" lon="5.47529">
        <ele>1487</ele>
        <time>2021-10-09T08:59:09Z</time>
      </trkpt>
      <trkpt lat="44.8968" lon="5.47522">
        <ele>1486.8</ele>
        <time>2021-10-09T08:59:10Z</time>
      </trkpt>
      <trkpt lat="44.89683" lon="5.47514">
        <ele>1486.6</ele>
        <time>2021-10-09T08:59:11Z</time>
      </trkpt>
      <trkpt lat="44.89685" lon="5.47506">
        <ele>1486.6</ele>
        <time>2021-10-09T08:59:12Z</time>
      </trkpt>
      <trkpt lat="44.89687" lon="5.47497">
        <ele>1486.6</ele>
        <time>2021-10-09T08:59:13Z</time>
      </trkpt>
      <trkpt lat="44.8969" lon="5.47489">
        <ele>1485.6</ele>
        <time>2021-10-09T08:59:14Z</time>
      </trkpt>
      <trkpt lat="44.89693" lon="5.47481">
        <ele>1485</ele>
        <time>2021-10-09T08:59:15Z</time>
      </trkpt>
      <trkpt lat="44.89697" lon="5.47474">
        <ele>1485</ele>
        <time>2021-10-09T08:59:16Z</time>
      </trkpt>
      <trkpt lat="44.89701" lon="5.47467">
        <ele>1485</ele>
        <time>2021-10-09T08:59:17Z</time>
      </trkpt>
      <trkpt lat="44.89706" lon="5.4746">
        <ele>1484</ele>
        <time>2021-10-09T08:59:18Z</time>
      </trkpt>
      <trkpt lat="44.89711" lon="5.47453">
        <ele>1482.4</ele>
        <time>2021-10-09T08:59:19Z</time>
      </trkpt>
      <trkpt lat="44.89716" lon="5.47447">
        <ele>1482.4</ele>
        <time>2021-10-09T08:59:20Z</time>
      </trkpt>
      <trkpt lat="44.8972" lon="5.47441">
        <ele>1482.4</ele>
        <time>2021-10-09T08:59:21Z</time>
      </trkpt>
      <trkpt lat="44.89724" lon="5.47435">
        <ele>1482.4</ele>
        <time>2021-10-09T08:59:22Z</time>
      </trkpt>
      <trkpt lat="44.89727" lon="5.47428">
        <ele>1481.4</ele>
        <time>2021-10-09T08:59:23Z</time>
      </trkpt>
      <trkpt lat="44.89731" lon="5.47421">
        <ele>1481.4</ele>
        <time>2021-10-09T08:59:24Z</time>
      </trkpt>
      <trkpt lat="44.89733" lon="5.47415">
        <ele>1481.4</ele>
        <time>2021-10-09T08:59:25Z</time>
      </trkpt>
      <trkpt lat="44.89736" lon="5.47408">
        <ele>1481.4</ele>
        <time>2021-10-09T08:59:26Z</time>
      </trkpt>
      <trkpt lat="44.89737" lon="5.474">
        <ele>1480.6</ele>
        <time>2021-10-09T08:59:27Z</time>
      </trkpt>
      <trkpt lat="44.89739" lon="5.47392">
        <ele>1480.6</ele>
        <time>2021-10-09T08:59:28Z</time>
      </trkpt>
      <trkpt lat="44.8974" lon="5.47383">
        <ele>1480.6</ele>
        <time>2021-10-09T08:59:29Z</time>
      </trkpt>
      <trkpt lat="44.8974" lon="5.47375">
        <ele>1480.6</ele>
        <time>2021-10-09T08:59:30Z</time>
      </trkpt>
      <trkpt lat="44.89739" lon="5.47367">
        <ele>1480.2</ele>
        <time>2021-10-09T08:59:31Z</time>
      </trkpt>
      <trkpt lat="44.89739" lon="5.47359">
        <ele>1480.2</ele>
        <time>2021-10-09T08:59:32Z</time>
      </trkpt>
      <trkpt lat="44.89739" lon="5.47351">
        <ele>1480.2</ele>
        <time>2021-10-09T08:59:33Z</time>
      </trkpt>
      <trkpt lat="44.89738" lon="5.47344">
        <ele>1480.2</ele>
        <time>2021-10-09T08:59:34Z</time>
      </trkpt>
      <trkpt lat="44.89738" lon="5.47336">
        <ele>1480.2</ele>
        <time>2021-10-09T08:59:35Z</time>
      </trkpt>
      <trkpt lat="44.89737" lon="5.47329">
        <ele>1480.2</ele>
        <time>2021-10-09T08:59:36Z</time>
      </trkpt>
      <trkpt lat="44.89737" lon="5.47322">
        <ele>1480.2</ele>
        <time>2021-10-09T08:59:37Z</time>
      </trkpt>
      <trkpt lat="44.89737" lon="5.47315">
        <ele>1479.2</ele>
        <time>2021-10-09T08:59:38Z</time>
      </trkpt>
      <trkpt lat="44.89737" lon="5.47307">
        <ele>1479.8</ele>
        <time>2021-10-09T08:59:39Z</time>
      </trkpt>
      <trkpt lat="44.89737" lon="5.473">
        <ele>1479.8</ele>
        <time>2021-10-09T08:59:40Z</time>
      </trkpt>
      <trkpt lat="44.89739" lon="5.47293">
        <ele>1479.8</ele>
        <time>2021-10-09T08:59:41Z</time>
      </trkpt>
      <trkpt lat="44.89742" lon="5.47286">
        <ele>1479.2</ele>
        <time>2021-10-09T08:59:42Z</time>
      </trkpt>
      <trkpt lat="44.89745" lon="5.4728">
        <ele>1479</ele>
        <time>2021-10-09T08:59:43Z</time>
      </trkpt>
      <trkpt lat="44.89749" lon="5.47275">
        <ele>1479</ele>
        <time>2021-10-09T08:59:44Z</time>
      </trkpt>
      <trkpt lat="44.89753" lon="5.47272">
        <ele>1479</ele>
        <time>2021-10-09T08:59:45Z</time>
      </trkpt>
      <trkpt lat="44.89757" lon="5.47269">
        <ele>1479</ele>
        <time>2021-10-09T08:59:46Z</time>
      </trkpt>
      <trkpt lat="44.89762" lon="5.47267">
        <ele>1478.2</ele>
        <time>2021-10-09T08:59:47Z</time>
      </trkpt>
      <trkpt lat="44.89766" lon="5.47266">
        <ele>1478.2</ele>
        <time>2021-10-09T08:59:48Z</time>
      </trkpt>
      <trkpt lat="44.89771" lon="5.47264">
        <ele>1478.2</ele>
        <time>2021-10-09T08:59:49Z</time>
      </trkpt>
      <trkpt lat="44.89775" lon="5.47266">
        <ele>1478.8</ele>
        <time>2021-10-09T08:59:50Z</time>
      </trkpt>
      <trkpt lat="44.89779" lon="5.4727">
        <ele>1478.4</ele>
        <time>2021-10-09T08:59:51Z</time>
      </trkpt>
      <trkpt lat="44.89782" lon="5.47275">
        <ele>1478.4</ele>
        <time>2021-10-09T08:59:52Z</time>
      </trkpt>
      <trkpt lat="44.89785" lon="5.47279">
        <ele>1478.4</ele>
        <time>2021-10-09T08:59:53Z</time>
      </trkpt>
      <trkpt lat="44.89788" lon="5.47285">
        <ele>1479.4</ele>
        <time>2021-10-09T08:59:54Z</time>
      </trkpt>
      <trkpt lat="44.89791" lon="5.47289">
        <ele>1478.8</ele>
        <time>2021-10-09T08:59:55Z</time>
      </trkpt>
      <trkpt lat="44.89794" lon="5.47293">
        <ele>1478.8</ele>
        <time>2021-10-09T08:59:56Z</time>
      </trkpt>
      <trkpt lat="44.89797" lon="5.47297">
        <ele>1478.8</ele>
        <time>2021-10-09T08:59:57Z</time>
      </trkpt>
      <trkpt lat="44.89801" lon="5.47301">
        <ele>1478.8</ele>
        <time>2021-10-09T08:59:58Z</time>
      </trkpt>
      <trkpt lat="44.89804" lon="5.47305">
        <ele>1478.6</ele>
        <time>2021-10-09T08:59:59Z</time>
      </trkpt>
      <trkpt lat="44.89809" lon="5.47307">
        <ele>1478.6</ele>
        <time>2021-10-09T09:00:00Z</time>
      </trkpt>
      <trkpt lat="44.89813" lon="5.47309">
        <ele>1478.6</ele>
        <time>2021-10-09T09:00:01Z</time>
      </trkpt>
      <trkpt lat="44.89816" lon="5.4731">
        <ele>1478.6</ele>
        <time>2021-10-09T09:00:02Z</time>
      </trkpt>
      <trkpt lat="44.8982" lon="5.47312">
        <ele>1478.4</ele>
        <time>2021-10-09T09:00:03Z</time>
      </trkpt>
      <trkpt lat="44.89825" lon="5.47314">
        <ele>1478.4</ele>
        <time>2021-10-09T09:00:04Z</time>
      </trkpt>
      <trkpt lat="44.89829" lon="5.47317">
        <ele>1478.4</ele>
        <time>2021-10-09T09:00:05Z</time>
      </trkpt>
      <trkpt lat="44.89833" lon="5.47321">
        <ele>1478.4</ele>
        <time>2021-10-09T09:00:06Z</time>
      </trkpt>
      <trkpt lat="44.89836" lon="5.47326">
        <ele>1477.8</ele>
        <time>2021-10-09T09:00:07Z</time>
      </trkpt>
      <trkpt lat="44.89838" lon="5.47332">
        <ele>1477.8</ele>
        <time>2021-10-09T09:00:08Z</time>
      </trkpt>
      <trkpt lat="44.8984" lon="5.47338">
        <ele>1477.8</ele>
        <time>2021-10-09T09:00:09Z</time>
      </trkpt>
      <trkpt lat="44.89843" lon="5.47343">
        <ele>1478.4</ele>
        <time>2021-10-09T09:00:10Z</time>
      </trkpt>
      <trkpt lat="44.89846" lon="5.47349">
        <ele>1478.4</ele>
        <time>2021-10-09T09:00:11Z</time>
      </trkpt>
      <trkpt lat="44.8985" lon="5.47355">
        <ele>1478.4</ele>
        <time>2021-10-09T09:00:12Z</time>
      </trkpt>
      <trkpt lat="44.89854" lon="5.47357">
        <ele>1478.4</ele>
        <time>2021-10-09T09:00:13Z</time>
      </trkpt>
      <trkpt lat="44.89859" lon="5.47358">
        <ele>1478.2</ele>
        <time>2021-10-09T09:00:14Z</time>
      </trkpt>
      <trkpt lat="44.89863" lon="5.47356">
        <ele>1477.8</ele>
        <time>2021-10-09T09:00:15Z</time>
      </trkpt>
      <trkpt lat="44.89867" lon="5.47353">
        <ele>1477.8</ele>
        <time>2021-10-09T09:00:16Z</time>
      </trkpt>
      <trkpt lat="44.89869" lon="5.47349">
        <ele>1477.8</ele>
        <time>2021-10-09T09:00:17Z</time>
      </trkpt>
      <trkpt lat="44.89872" lon="5.47343">
        <ele>1477</ele>
        <time>2021-10-09T09:00:18Z</time>
      </trkpt>
      <trkpt lat="44.89873" lon="5.47337">
        <ele>1477.2</ele>
        <time>2021-10-09T09:00:19Z</time>
      </trkpt>
      <trkpt lat="44.89874" lon="5.47331">
        <ele>1477.2</ele>
        <time>2021-10-09T09:00:20Z</time>
      </trkpt>
      <trkpt lat="44.89874" lon="5.47325">
        <ele>1477.2</ele>
        <time>2021-10-09T09:00:21Z</time>
      </trkpt>
      <trkpt lat="44.89873" lon="5.47318">
        <ele>1477.2</ele>
        <time>2021-10-09T09:00:22Z</time>
      </trkpt>
      <trkpt lat="44.89872" lon="5.47312">
        <ele>1477.4</ele>
        <time>2021-10-09T09:00:23Z</time>
      </trkpt>
      <trkpt lat="44.89871" lon="5.47305">
        <ele>1477.4</ele>
        <time>2021-10-09T09:00:24Z</time>
      </trkpt>
      <trkpt lat="44.89871" lon="5.47298">
        <ele>1477.4</ele>
        <time>2021-10-09T09:00:25Z</time>
      </trkpt>
      <trkpt lat="44.8987" lon="5.47291">
        <ele>1476.8</ele>
        <time>2021-10-09T09:00:26Z</time>
      </trkpt>
      <trkpt lat="44.89869" lon="5.47285">
        <ele>1477.2</ele>
        <time>2021-10-09T09:00:27Z</time>
      </trkpt>
      <trkpt lat="44.89868" lon="5.47278">
        <ele>1477.2</ele>
        <time>2021-10-09T09:00:28Z</time>
      </trkpt>
      <trkpt lat="44.89868" lon="5.47271">
        <ele>1477.2</ele>
        <time>2021-10-09T09:00:29Z</time>
      </trkpt>
      <trkpt lat="44.89869" lon="5.47264">
        <ele>1476.4</ele>
        <time>2021-10-09T09:00:30Z</time>
      </trkpt>
      <trkpt lat="44.8987" lon="5.47257">
        <ele>1476</ele>
        <time>2021-10-09T09:00:31Z</time>
      </trkpt>
      <trkpt lat="44.89873" lon="5.47252">
        <ele>1476</ele>
        <time>2021-10-09T09:00:32Z</time>
      </trkpt>
      <trkpt lat="44.89876" lon="5.47246">
        <ele>1476</ele>
        <time>2021-10-09T09:00:33Z</time>
      </trkpt>
      <trkpt lat="44.89879" lon="5.47239">
        <ele>1476</ele>
        <time>2021-10-09T09:00:34Z</time>
      </trkpt>
      <trkpt lat="44.89881" lon="5.47233">
        <ele>1475.2</ele>
        <time>2021-10-09T09:00:35Z</time>
      </trkpt>
      <trkpt lat="44.89883" lon="5.47226">
        <ele>1475.2</ele>
        <time>2021-10-09T09:00:36Z</time>
      </trkpt>
      <trkpt lat="44.89884" lon="5.4722">
        <ele>1475.2</ele>
        <time>2021-10-09T09:00:37Z</time>
      </trkpt>
      <trkpt lat="44.89885" lon="5.47213">
        <ele>1476</ele>
        <time>2021-10-09T09:00:38Z</time>
      </trkpt>
      <trkpt lat="44.89886" lon="5.47205">
        <ele>1476.4</ele>
        <time>2021-10-09T09:00:39Z</time>
      </trkpt>
      <trkpt lat="44.89886" lon="5.47199">
        <ele>1476.4</ele>
        <time>2021-10-09T09:00:40Z</time>
      </trkpt>
      <trkpt lat="44.89887" lon="5.47192">
        <ele>1476.4</ele>
        <time>2021-10-09T09:00:41Z</time>
      </trkpt>
      <trkpt lat="44.89888" lon="5.47186">
        <ele>1476.4</ele>
        <time>2021-10-09T09:00:42Z</time>
      </trkpt>
      <trkpt lat="44.8989" lon="5.4718">
        <ele>1475.2</ele>
        <time>2021-10-09T09:00:43Z</time>
      </trkpt>
      <trkpt lat="44.89894" lon="5.47174">
        <ele>1475.2</ele>
        <time>2021-10-09T09:00:44Z</time>
      </trkpt>
      <trkpt lat="44.89898" lon="5.47171">
        <ele>1475.2</ele>
        <time>2021-10-09T09:00:45Z</time>
      </trkpt>
      <trkpt lat="44.89902" lon="5.47168">
        <ele>1475.2</ele>
        <time>2021-10-09T09:00:46Z</time>
      </trkpt>
      <trkpt lat="44.89906" lon="5.47163">
        <ele>1474.4</ele>
        <time>2021-10-09T09:00:47Z</time>
      </trkpt>
      <trkpt lat="44.8991" lon="5.47158">
        <ele>1474.4</ele>
        <time>2021-10-09T09:00:48Z</time>
      </trkpt>
      <trkpt lat="44.89914" lon="5.47153">
        <ele>1474.4</ele>
        <time>2021-10-09T09:00:49Z</time>
      </trkpt>
      <trkpt lat="44.89918" lon="5.47148">
        <ele>1474.4</ele>
        <time>2021-10-09T09:00:50Z</time>
      </trkpt>
      <trkpt lat="44.89922" lon="5.47144">
        <ele>1474</ele>
        <time>2021-10-09T09:00:51Z</time>
      </trkpt>
      <trkpt lat="44.89925" lon="5.47138">
        <ele>1474</ele>
        <time>2021-10-09T09:00:52Z</time>
      </trkpt>
      <trkpt lat="44.89927" lon="5.47132">
        <ele>1474</ele>
        <time>2021-10-09T09:00:53Z</time>
      </trkpt>
      <trkpt lat="44.89929" lon="5.47125">
        <ele>1473.2</ele>
        <time>2021-10-09T09:00:54Z</time>
      </trkpt>
      <trkpt lat="44.89931" lon="5.47118">
        <ele>1472.6</ele>
        <time>2021-10-09T09:00:55Z</time>
      </trkpt>
      <trkpt lat="44.89933" lon="5.47111">
        <ele>1472.6</ele>
        <time>2021-10-09T09:00:56Z</time>
      </trkpt>
      <trkpt lat="44.89937" lon="5.47106">
        <ele>1472.6</ele>
        <time>2021-10-09T09:00:57Z</time>
      </trkpt>
      <trkpt lat="44.89942" lon="5.47104">
        <ele>1472.6</ele>
        <time>2021-10-09T09:00:58Z</time>
      </trkpt>
      <trkpt lat="44.89947" lon="5.47102">
        <ele>1472.4</ele>
        <time>2021-10-09T09:00:59Z</time>
      </trkpt>
      <trkpt lat="44.89951" lon="5.47098">
        <ele>1472.4</ele>
        <time>2021-10-09T09:01:00Z</time>
      </trkpt>
      <trkpt lat="44.89955" lon="5.47093">
        <ele>1472.4</ele>
        <time>2021-10-09T09:01:01Z</time>
      </trkpt>
      <trkpt lat="44.89958" lon="5.47087">
        <ele>1471.4</ele>
        <time>2021-10-09T09:01:02Z</time>
      </trkpt>
      <trkpt lat="44.89962" lon="5.47082">
        <ele>1471.4</ele>
        <time>2021-10-09T09:01:03Z</time>
      </trkpt>
      <trkpt lat="44.89967" lon="5.47077">
        <ele>1471.4</ele>
        <time>2021-10-09T09:01:04Z</time>
      </trkpt>
      <trkpt lat="44.89972" lon="5.47073">
        <ele>1471.4</ele>
        <time>2021-10-09T09:01:05Z</time>
      </trkpt>
      <trkpt lat="44.89976" lon="5.47069">
        <ele>1471.4</ele>
        <time>2021-10-09T09:01:06Z</time>
      </trkpt>
      <trkpt lat="44.89981" lon="5.47064">
        <ele>1471</ele>
        <time>2021-10-09T09:01:07Z</time>
      </trkpt>
      <trkpt lat="44.89985" lon="5.47058">
        <ele>1471</ele>
        <time>2021-10-09T09:01:08Z</time>
      </trkpt>
      <trkpt lat="44.89987" lon="5.47051">
        <ele>1471</ele>
        <time>2021-10-09T09:01:09Z</time>
      </trkpt>
      <trkpt lat="44.8999" lon="5.47043">
        <ele>1470</ele>
        <time>2021-10-09T09:01:10Z</time>
      </trkpt>
      <trkpt lat="44.89992" lon="5.47036">
        <ele>1468.2</ele>
        <time>2021-10-09T09:01:11Z</time>
      </trkpt>
      <trkpt lat="44.89992" lon="5.47029">
        <ele>1468.2</ele>
        <time>2021-10-09T09:01:12Z</time>
      </trkpt>
      <trkpt lat="44.89994" lon="5.4702">
        <ele>1468.2</ele>
        <time>2021-10-09T09:01:13Z</time>
      </trkpt>
      <trkpt lat="44.89995" lon="5.47012">
        <ele>1468.2</ele>
        <time>2021-10-09T09:01:14Z</time>
      </trkpt>
      <trkpt lat="44.89996" lon="5.47004">
        <ele>1467.2</ele>
        <time>2021-10-09T09:01:15Z</time>
      </trkpt>
      <trkpt lat="44.89997" lon="5.46995">
        <ele>1467.2</ele>
        <time>2021-10-09T09:01:16Z</time>
      </trkpt>
      <trkpt lat="44.89997" lon="5.46985">
        <ele>1467.2</ele>
        <time>2021-10-09T09:01:17Z</time>
      </trkpt>
      <trkpt lat="44.89996" lon="5.46977">
        <ele>1468</ele>
        <time>2021-10-09T09:01:18Z</time>
      </trkpt>
      <trkpt lat="44.89994" lon="5.46969">
        <ele>1467.4</ele>
        <time>2021-10-09T09:01:19Z</time>
      </trkpt>
      <trkpt lat="44.89991" lon="5.46962">
        <ele>1467.4</ele>
        <time>2021-10-09T09:01:20Z</time>
      </trkpt>
      <trkpt lat="44.89987" lon="5.46956">
        <ele>1467.4</ele>
        <time>2021-10-09T09:01:21Z</time>
      </trkpt>
      <trkpt lat="44.89983" lon="5.4695">
        <ele>1467.4</ele>
        <time>2021-10-09T09:01:22Z</time>
      </trkpt>
      <trkpt lat="44.89979" lon="5.46944">
        <ele>1467.2</ele>
        <time>2021-10-09T09:01:23Z</time>
      </trkpt>
      <trkpt lat="44.89976" lon="5.46938">
        <ele>1467.2</ele>
        <time>2021-10-09T09:01:24Z</time>
      </trkpt>
      <trkpt lat="44.89976" lon="5.46929">
        <ele>1467.2</ele>
        <time>2021-10-09T09:01:25Z</time>
      </trkpt>
      <trkpt lat="44.89975" lon="5.46922">
        <ele>1467.2</ele>
        <time>2021-10-09T09:01:26Z</time>
      </trkpt>
      <trkpt lat="44.89975" lon="5.46914">
        <ele>1466.8</ele>
        <time>2021-10-09T09:01:27Z</time>
      </trkpt>
      <trkpt lat="44.89976" lon="5.46906">
        <ele>1466.8</ele>
        <time>2021-10-09T09:01:28Z</time>
      </trkpt>
      <trkpt lat="44.89977" lon="5.46899">
        <ele>1466.8</ele>
        <time>2021-10-09T09:01:29Z</time>
      </trkpt>
      <trkpt lat="44.8998" lon="5.46892">
        <ele>1466.8</ele>
        <time>2021-10-09T09:01:30Z</time>
      </trkpt>
      <trkpt lat="44.89983" lon="5.46885">
        <ele>1465.8</ele>
        <time>2021-10-09T09:01:31Z</time>
      </trkpt>
      <trkpt lat="44.89986" lon="5.46878">
        <ele>1465.8</ele>
        <time>2021-10-09T09:01:32Z</time>
      </trkpt>
      <trkpt lat="44.89989" lon="5.46871">
        <ele>1465.8</ele>
        <time>2021-10-09T09:01:33Z</time>
      </trkpt>
      <trkpt lat="44.89991" lon="5.46865">
        <ele>1465.8</ele>
        <time>2021-10-09T09:01:34Z</time>
      </trkpt>
      <trkpt lat="44.89994" lon="5.46859">
        <ele>1464.2</ele>
        <time>2021-10-09T09:01:35Z</time>
      </trkpt>
      <trkpt lat="44.89997" lon="5.46852">
        <ele>1464.2</ele>
        <time>2021-10-09T09:01:36Z</time>
      </trkpt>
      <trkpt lat="44.89999" lon="5.46846">
        <ele>1464.2</ele>
        <time>2021-10-09T09:01:37Z</time>
      </trkpt>
      <trkpt lat="44.90001" lon="5.46839">
        <ele>1465.2</ele>
        <time>2021-10-09T09:01:38Z</time>
      </trkpt>
      <trkpt lat="44.90003" lon="5.46833">
        <ele>1464.8</ele>
        <time>2021-10-09T09:01:39Z</time>
      </trkpt>
      <trkpt lat="44.90005" lon="5.46826">
        <ele>1464.8</ele>
        <time>2021-10-09T09:01:40Z</time>
      </trkpt>
      <trkpt lat="44.90008" lon="5.4682">
        <ele>1464.8</ele>
        <time>2021-10-09T09:01:41Z</time>
      </trkpt>
      <trkpt lat="44.9001" lon="5.46813">
        <ele>1464.8</ele>
        <time>2021-10-09T09:01:42Z</time>
      </trkpt>
      <trkpt lat="44.90012" lon="5.46806">
        <ele>1463.4</ele>
        <time>2021-10-09T09:01:43Z</time>
      </trkpt>
      <trkpt lat="44.90014" lon="5.46799">
        <ele>1463.4</ele>
        <time>2021-10-09T09:01:44Z</time>
      </trkpt>
      <trkpt lat="44.90016" lon="5.46792">
        <ele>1463.4</ele>
        <time>2021-10-09T09:01:45Z</time>
      </trkpt>
      <trkpt lat="44.90019" lon="5.46786">
        <ele>1463.4</ele>
        <time>2021-10-09T09:01:46Z</time>
      </trkpt>
      <trkpt lat="44.9002" lon="5.46781">
        <ele>1464</ele>
        <time>2021-10-09T09:01:47Z</time>
      </trkpt>
      <trkpt lat="44.90022" lon="5.46776">
        <ele>1464</ele>
        <time>2021-10-09T09:01:48Z</time>
      </trkpt>
      <trkpt lat="44.90023" lon="5.46772">
        <ele>1464</ele>
        <time>2021-10-09T09:01:49Z</time>
      </trkpt>
      <trkpt lat="44.90025" lon="5.46768">
        <ele>1463.8</ele>
        <time>2021-10-09T09:01:50Z</time>
      </trkpt>
      <trkpt lat="44.90026" lon="5.46765">
        <ele>1464.4</ele>
        <time>2021-10-09T09:01:51Z</time>
      </trkpt>
      <trkpt lat="44.90027" lon="5.46762">
        <ele>1464.4</ele>
        <time>2021-10-09T09:01:52Z</time>
      </trkpt>
      <trkpt lat="44.90028" lon="5.46759">
        <ele>1464.4</ele>
        <time>2021-10-09T09:01:53Z</time>
      </trkpt>
      <trkpt lat="44.90029" lon="5.46758">
        <ele>1464.4</ele>
        <time>2021-10-09T09:01:54Z</time>
      </trkpt>
      <trkpt lat="44.9003" lon="5.46756">
        <ele>1464.8</ele>
        <time>2021-10-09T09:01:55Z</time>
      </trkpt>
      <trkpt lat="44.9003" lon="5.46755">
        <ele>1464.8</ele>
        <time>2021-10-09T09:01:56Z</time>
      </trkpt>
      <trkpt lat="44.9003" lon="5.46755">
        <ele>1464.8</ele>
        <time>2021-10-09T09:01:57Z</time>
      </trkpt>
      <trkpt lat="44.90031" lon="5.46744">
        <ele>1464.4</ele>
        <time>2021-10-09T09:05:18Z</time>
      </trkpt>
      <trkpt lat="44.90032" lon="5.46741">
        <ele>1464</ele>
        <time>2021-10-09T09:05:19Z</time>
      </trkpt>
      <trkpt lat="44.90032" lon="5.46739">
        <ele>1464</ele>
        <time>2021-10-09T09:05:20Z</time>
      </trkpt>
      <trkpt lat="44.90033" lon="5.46737">
        <ele>1464</ele>
        <time>2021-10-09T09:05:21Z</time>
      </trkpt>
      <trkpt lat="44.90033" lon="5.46734">
        <ele>1464</ele>
        <time>2021-10-09T09:05:22Z</time>
      </trkpt>
      <trkpt lat="44.90034" lon="5.46731">
        <ele>1462.8</ele>
        <time>2021-10-09T09:05:23Z</time>
      </trkpt>
      <trkpt lat="44.90035" lon="5.46727">
        <ele>1462.8</ele>
        <time>2021-10-09T09:05:24Z</time>
      </trkpt>
      <trkpt lat="44.90037" lon="5.46723">
        <ele>1462.8</ele>
        <time>2021-10-09T09:05:25Z</time>
      </trkpt>
      <trkpt lat="44.90038" lon="5.46718">
        <ele>1461.8</ele>
        <time>2021-10-09T09:05:26Z</time>
      </trkpt>
      <trkpt lat="44.9004" lon="5.46713">
        <ele>1460.4</ele>
        <time>2021-10-09T09:05:27Z</time>
      </trkpt>
      <trkpt lat="44.90041" lon="5.46708">
        <ele>1460.4</ele>
        <time>2021-10-09T09:05:28Z</time>
      </trkpt>
      <trkpt lat="44.90042" lon="5.46703">
        <ele>1460.4</ele>
        <time>2021-10-09T09:05:29Z</time>
      </trkpt>
      <trkpt lat="44.90044" lon="5.46698">
        <ele>1459.4</ele>
        <time>2021-10-09T09:05:30Z</time>
      </trkpt>
      <trkpt lat="44.90046" lon="5.46692">
        <ele>1458.2</ele>
        <time>2021-10-09T09:05:31Z</time>
      </trkpt>
      <trkpt lat="44.90047" lon="5.46686">
        <ele>1458.2</ele>
        <time>2021-10-09T09:05:32Z</time>
      </trkpt>
      <trkpt lat="44.90048" lon="5.4668">
        <ele>1458.2</ele>
        <time>2021-10-09T09:05:33Z</time>
      </trkpt>
      <trkpt lat="44.9005" lon="5.46674">
        <ele>1457.2</ele>
        <time>2021-10-09T09:05:34Z</time>
      </trkpt>
      <trkpt lat="44.90051" lon="5.46667">
        <ele>1455.4</ele>
        <time>2021-10-09T09:05:35Z</time>
      </trkpt>
      <trkpt lat="44.90052" lon="5.46661">
        <ele>1455.4</ele>
        <time>2021-10-09T09:05:36Z</time>
      </trkpt>
      <trkpt lat="44.90054" lon="5.46654">
        <ele>1455.4</ele>
        <time>2021-10-09T09:05:37Z</time>
      </trkpt>
      <trkpt lat="44.90055" lon="5.46648">
        <ele>1454.4</ele>
        <time>2021-10-09T09:05:38Z</time>
      </trkpt>
      <trkpt lat="44.90058" lon="5.46641">
        <ele>1453.6</ele>
        <time>2021-10-09T09:05:39Z</time>
      </trkpt>
      <trkpt lat="44.90061" lon="5.46634">
        <ele>1453.6</ele>
        <time>2021-10-09T09:05:40Z</time>
      </trkpt>
      <trkpt lat="44.90064" lon="5.46628">
        <ele>1453.6</ele>
        <time>2021-10-09T09:05:41Z</time>
      </trkpt>
      <trkpt lat="44.90068" lon="5.46621">
        <ele>1452.6</ele>
        <time>2021-10-09T09:05:42Z</time>
      </trkpt>
      <trkpt lat="44.90071" lon="5.46616">
        <ele>1452.2</ele>
        <time>2021-10-09T09:05:43Z</time>
      </trkpt>
      <trkpt lat="44.90073" lon="5.46612">
        <ele>1452.2</ele>
        <time>2021-10-09T09:05:44Z</time>
      </trkpt>
      <trkpt lat="44.90075" lon="5.4661">
        <ele>1452.2</ele>
        <time>2021-10-09T09:05:45Z</time>
      </trkpt>
      <trkpt lat="44.90075" lon="5.46607">
        <ele>1451.2</ele>
        <time>2021-10-09T09:05:46Z</time>
      </trkpt>
      <trkpt lat="44.90075" lon="5.46604">
        <ele>1450.8</ele>
        <time>2021-10-09T09:05:47Z</time>
      </trkpt>
      <trkpt lat="44.90076" lon="5.466">
        <ele>1450.8</ele>
        <time>2021-10-09T09:05:48Z</time>
      </trkpt>
      <trkpt lat="44.90077" lon="5.46595">
        <ele>1450.8</ele>
        <time>2021-10-09T09:05:49Z</time>
      </trkpt>
      <trkpt lat="44.90077" lon="5.46589">
        <ele>1449.8</ele>
        <time>2021-10-09T09:05:50Z</time>
      </trkpt>
      <trkpt lat="44.90078" lon="5.46583">
        <ele>1449</ele>
        <time>2021-10-09T09:05:51Z</time>
      </trkpt>
      <trkpt lat="44.90079" lon="5.46577">
        <ele>1449</ele>
        <time>2021-10-09T09:05:52Z</time>
      </trkpt>
      <trkpt lat="44.90081" lon="5.46572">
        <ele>1449</ele>
        <time>2021-10-09T09:05:53Z</time>
      </trkpt>
      <trkpt lat="44.90083" lon="5.46567">
        <ele>1448</ele>
        <time>2021-10-09T09:05:54Z</time>
      </trkpt>
      <trkpt lat="44.90088" lon="5.46564">
        <ele>1446.4</ele>
        <time>2021-10-09T09:05:55Z</time>
      </trkpt>
      <trkpt lat="44.90093" lon="5.46563">
        <ele>1446.4</ele>
        <time>2021-10-09T09:05:56Z</time>
      </trkpt>
      <trkpt lat="44.90099" lon="5.46563">
        <ele>1446.4</ele>
        <time>2021-10-09T09:05:57Z</time>
      </trkpt>
      <trkpt lat="44.90105" lon="5.46563">
        <ele>1445.6</ele>
        <time>2021-10-09T09:05:58Z</time>
      </trkpt>
      <trkpt lat="44.9011" lon="5.46563">
        <ele>1444.8</ele>
        <time>2021-10-09T09:05:59Z</time>
      </trkpt>
      <trkpt lat="44.90115" lon="5.46563">
        <ele>1444.8</ele>
        <time>2021-10-09T09:06:00Z</time>
      </trkpt>
      <trkpt lat="44.9012" lon="5.46565">
        <ele>1444.8</ele>
        <time>2021-10-09T09:06:01Z</time>
      </trkpt>
      <trkpt lat="44.90126" lon="5.46567">
        <ele>1443.8</ele>
        <time>2021-10-09T09:06:02Z</time>
      </trkpt>
      <trkpt lat="44.90132" lon="5.46568">
        <ele>1442</ele>
        <time>2021-10-09T09:06:03Z</time>
      </trkpt>
      <trkpt lat="44.90138" lon="5.46569">
        <ele>1442</ele>
        <time>2021-10-09T09:06:04Z</time>
      </trkpt>
      <trkpt lat="44.90145" lon="5.46568">
        <ele>1442</ele>
        <time>2021-10-09T09:06:05Z</time>
      </trkpt>
      <trkpt lat="44.90151" lon="5.46566">
        <ele>1441</ele>
        <time>2021-10-09T09:06:06Z</time>
      </trkpt>
      <trkpt lat="44.90157" lon="5.46562">
        <ele>1440</ele>
        <time>2021-10-09T09:06:07Z</time>
      </trkpt>
      <trkpt lat="44.90162" lon="5.46558">
        <ele>1440</ele>
        <time>2021-10-09T09:06:08Z</time>
      </trkpt>
      <trkpt lat="44.90167" lon="5.46552">
        <ele>1440</ele>
        <time>2021-10-09T09:06:09Z</time>
      </trkpt>
      <trkpt lat="44.90171" lon="5.46546">
        <ele>1440</ele>
        <time>2021-10-09T09:06:10Z</time>
      </trkpt>
      <trkpt lat="44.90176" lon="5.46542">
        <ele>1436.2</ele>
        <time>2021-10-09T09:06:11Z</time>
      </trkpt>
      <trkpt lat="44.90182" lon="5.4654">
        <ele>1436.2</ele>
        <time>2021-10-09T09:06:12Z</time>
      </trkpt>
      <trkpt lat="44.90188" lon="5.4654">
        <ele>1436.2</ele>
        <time>2021-10-09T09:06:13Z</time>
      </trkpt>
      <trkpt lat="44.90194" lon="5.46541">
        <ele>1435.2</ele>
        <time>2021-10-09T09:06:14Z</time>
      </trkpt>
      <trkpt lat="44.90201" lon="5.4654">
        <ele>1434</ele>
        <time>2021-10-09T09:06:15Z</time>
      </trkpt>
      <trkpt lat="44.90208" lon="5.46538">
        <ele>1434</ele>
        <time>2021-10-09T09:06:16Z</time>
      </trkpt>
      <trkpt lat="44.90215" lon="5.46537">
        <ele>1434</ele>
        <time>2021-10-09T09:06:17Z</time>
      </trkpt>
      <trkpt lat="44.90222" lon="5.46537">
        <ele>1433</ele>
        <time>2021-10-09T09:06:18Z</time>
      </trkpt>
      <trkpt lat="44.90229" lon="5.46538">
        <ele>1430.4</ele>
        <time>2021-10-09T09:06:19Z</time>
      </trkpt>
      <trkpt lat="44.90238" lon="5.46541">
        <ele>1430.4</ele>
        <time>2021-10-09T09:06:20Z</time>
      </trkpt>
      <trkpt lat="44.90245" lon="5.46543">
        <ele>1430.4</ele>
        <time>2021-10-09T09:06:21Z</time>
      </trkpt>
      <trkpt lat="44.90252" lon="5.46546">
        <ele>1430.4</ele>
        <time>2021-10-09T09:06:22Z</time>
      </trkpt>
      <trkpt lat="44.90259" lon="5.46549">
        <ele>1429.4</ele>
        <time>2021-10-09T09:06:23Z</time>
      </trkpt>
      <trkpt lat="44.90265" lon="5.46551">
        <ele>1429.4</ele>
        <time>2021-10-09T09:06:24Z</time>
      </trkpt>
      <trkpt lat="44.9027" lon="5.46553">
        <ele>1429.4</ele>
        <time>2021-10-09T09:06:25Z</time>
      </trkpt>
      <trkpt lat="44.90275" lon="5.46554">
        <ele>1429.4</ele>
        <time>2021-10-09T09:06:26Z</time>
      </trkpt>
      <trkpt lat="44.90282" lon="5.46554">
        <ele>1428.2</ele>
        <time>2021-10-09T09:06:27Z</time>
      </trkpt>
      <trkpt lat="44.90289" lon="5.46554">
        <ele>1428.2</ele>
        <time>2021-10-09T09:06:28Z</time>
      </trkpt>
      <trkpt lat="44.90295" lon="5.46552">
        <ele>1428.2</ele>
        <time>2021-10-09T09:06:29Z</time>
      </trkpt>
      <trkpt lat="44.90301" lon="5.4655">
        <ele>1428.2</ele>
        <time>2021-10-09T09:06:30Z</time>
      </trkpt>
      <trkpt lat="44.90307" lon="5.46549">
        <ele>1426.4</ele>
        <time>2021-10-09T09:06:31Z</time>
      </trkpt>
      <trkpt lat="44.90314" lon="5.46546">
        <ele>1426.4</ele>
        <time>2021-10-09T09:06:32Z</time>
      </trkpt>
      <trkpt lat="44.9032" lon="5.46544">
        <ele>1426.4</ele>
        <time>2021-10-09T09:06:33Z</time>
      </trkpt>
      <trkpt lat="44.90327" lon="5.46542">
        <ele>1425.4</ele>
        <time>2021-10-09T09:06:34Z</time>
      </trkpt>
      <trkpt lat="44.90333" lon="5.46541">
        <ele>1424.6</ele>
        <time>2021-10-09T09:06:35Z</time>
      </trkpt>
      <trkpt lat="44.90341" lon="5.46541">
        <ele>1424.6</ele>
        <time>2021-10-09T09:06:36Z</time>
      </trkpt>
      <trkpt lat="44.90346" lon="5.46542">
        <ele>1424.6</ele>
        <time>2021-10-09T09:06:37Z</time>
      </trkpt>
      <trkpt lat="44.90353" lon="5.46544">
        <ele>1423.6</ele>
        <time>2021-10-09T09:06:38Z</time>
      </trkpt>
      <trkpt lat="44.90359" lon="5.46547">
        <ele>1422.6</ele>
        <time>2021-10-09T09:06:39Z</time>
      </trkpt>
      <trkpt lat="44.90363" lon="5.4655">
        <ele>1422.6</ele>
        <time>2021-10-09T09:06:40Z</time>
      </trkpt>
      <trkpt lat="44.90368" lon="5.46554">
        <ele>1422.6</ele>
        <time>2021-10-09T09:06:41Z</time>
      </trkpt>
      <trkpt lat="44.90373" lon="5.46558">
        <ele>1421.6</ele>
        <time>2021-10-09T09:06:42Z</time>
      </trkpt>
      <trkpt lat="44.90378" lon="5.46562">
        <ele>1421.2</ele>
        <time>2021-10-09T09:06:43Z</time>
      </trkpt>
      <trkpt lat="44.90383" lon="5.46566">
        <ele>1421.2</ele>
        <time>2021-10-09T09:06:44Z</time>
      </trkpt>
      <trkpt lat="44.90388" lon="5.46569">
        <ele>1421.2</ele>
        <time>2021-10-09T09:06:45Z</time>
      </trkpt>
      <trkpt lat="44.90394" lon="5.4657">
        <ele>1421.2</ele>
        <time>2021-10-09T09:06:46Z</time>
      </trkpt>
      <trkpt lat="44.90399" lon="5.46572">
        <ele>1419.6</ele>
        <time>2021-10-09T09:06:47Z</time>
      </trkpt>
      <trkpt lat="44.90406" lon="5.46571">
        <ele>1419.6</ele>
        <time>2021-10-09T09:06:48Z</time>
      </trkpt>
      <trkpt lat="44.90413" lon="5.46571">
        <ele>1419.6</ele>
        <time>2021-10-09T09:06:49Z</time>
      </trkpt>
      <trkpt lat="44.90419" lon="5.46571">
        <ele>1418.6</ele>
        <time>2021-10-09T09:06:50Z</time>
      </trkpt>
      <trkpt lat="44.90426" lon="5.46568">
        <ele>1417.6</ele>
        <time>2021-10-09T09:06:51Z</time>
      </trkpt>
      <trkpt lat="44.90433" lon="5.46564">
        <ele>1417.6</ele>
        <time>2021-10-09T09:06:52Z</time>
      </trkpt>
      <trkpt lat="44.9044" lon="5.46558">
        <ele>1417.6</ele>
        <time>2021-10-09T09:06:53Z</time>
      </trkpt>
      <trkpt lat="44.90446" lon="5.46554">
        <ele>1416.6</ele>
        <time>2021-10-09T09:06:54Z</time>
      </trkpt>
      <trkpt lat="44.90453" lon="5.46551">
        <ele>1415.6</ele>
        <time>2021-10-09T09:06:55Z</time>
      </trkpt>
      <trkpt lat="44.90461" lon="5.4655">
        <ele>1415.6</ele>
        <time>2021-10-09T09:06:56Z</time>
      </trkpt>
      <trkpt lat="44.90467" lon="5.46552">
        <ele>1415.6</ele>
        <time>2021-10-09T09:06:57Z</time>
      </trkpt>
      <trkpt lat="44.90472" lon="5.46554">
        <ele>1415.6</ele>
        <time>2021-10-09T09:06:58Z</time>
      </trkpt>
      <trkpt lat="44.90475" lon="5.46555">
        <ele>1416.2</ele>
        <time>2021-10-09T09:06:59Z</time>
      </trkpt>
      <trkpt lat="44.90478" lon="5.46556">
        <ele>1416.2</ele>
        <time>2021-10-09T09:07:00Z</time>
      </trkpt>
      <trkpt lat="44.9048" lon="5.46557">
        <ele>1416.2</ele>
        <time>2021-10-09T09:07:01Z</time>
      </trkpt>
      <trkpt lat="44.90481" lon="5.46557">
        <ele>1417</ele>
        <time>2021-10-09T09:07:02Z</time>
      </trkpt>
      <trkpt lat="44.90481" lon="5.46557">
        <ele>1417</ele>
        <time>2021-10-09T09:07:03Z</time>
      </trkpt>
      <trkpt lat="44.90491" lon="5.46558">
        <ele>1415.8</ele>
        <time>2021-10-09T09:07:23Z</time>
      </trkpt>
      <trkpt lat="44.90493" lon="5.4656">
        <ele>1415.8</ele>
        <time>2021-10-09T09:07:24Z</time>
      </trkpt>
      <trkpt lat="44.90496" lon="5.46561">
        <ele>1415.8</ele>
        <time>2021-10-09T09:07:25Z</time>
      </trkpt>
      <trkpt lat="44.905" lon="5.46563">
        <ele>1414.8</ele>
        <time>2021-10-09T09:07:26Z</time>
      </trkpt>
      <trkpt lat="44.90503" lon="5.46564">
        <ele>1413.8</ele>
        <time>2021-10-09T09:07:27Z</time>
      </trkpt>
      <trkpt lat="44.90507" lon="5.46566">
        <ele>1413.8</ele>
        <time>2021-10-09T09:07:28Z</time>
      </trkpt>
      <trkpt lat="44.90511" lon="5.46565">
        <ele>1413.8</ele>
        <time>2021-10-09T09:07:29Z</time>
      </trkpt>
      <trkpt lat="44.90516" lon="5.46565">
        <ele>1412.8</ele>
        <time>2021-10-09T09:07:30Z</time>
      </trkpt>
      <trkpt lat="44.90521" lon="5.46565">
        <ele>1411.6</ele>
        <time>2021-10-09T09:07:31Z</time>
      </trkpt>
      <trkpt lat="44.90527" lon="5.46564">
        <ele>1411.6</ele>
        <time>2021-10-09T09:07:32Z</time>
      </trkpt>
      <trkpt lat="44.90532" lon="5.46563">
        <ele>1411.6</ele>
        <time>2021-10-09T09:07:33Z</time>
      </trkpt>
      <trkpt lat="44.90538" lon="5.46561">
        <ele>1412</ele>
        <time>2021-10-09T09:07:34Z</time>
      </trkpt>
      <trkpt lat="44.90543" lon="5.46559">
        <ele>1410.8</ele>
        <time>2021-10-09T09:07:35Z</time>
      </trkpt>
      <trkpt lat="44.90547" lon="5.46558">
        <ele>1410.8</ele>
        <time>2021-10-09T09:07:36Z</time>
      </trkpt>
      <trkpt lat="44.90552" lon="5.46557">
        <ele>1410.8</ele>
        <time>2021-10-09T09:07:37Z</time>
      </trkpt>
      <trkpt lat="44.90558" lon="5.46558">
        <ele>1409.8</ele>
        <time>2021-10-09T09:07:38Z</time>
      </trkpt>
      <trkpt lat="44.90564" lon="5.46558">
        <ele>1409</ele>
        <time>2021-10-09T09:07:39Z</time>
      </trkpt>
      <trkpt lat="44.90569" lon="5.4656">
        <ele>1409</ele>
        <time>2021-10-09T09:07:40Z</time>
      </trkpt>
      <trkpt lat="44.90575" lon="5.46562">
        <ele>1409</ele>
        <time>2021-10-09T09:07:41Z</time>
      </trkpt>
      <trkpt lat="44.90579" lon="5.46566">
        <ele>1409</ele>
        <time>2021-10-09T09:07:42Z</time>
      </trkpt>
      <trkpt lat="44.90584" lon="5.46572">
        <ele>1409.6</ele>
        <time>2021-10-09T09:07:43Z</time>
      </trkpt>
      <trkpt lat="44.90588" lon="5.46578">
        <ele>1409.6</ele>
        <time>2021-10-09T09:07:44Z</time>
      </trkpt>
      <trkpt lat="44.9059" lon="5.46586">
        <ele>1409.6</ele>
        <time>2021-10-09T09:07:45Z</time>
      </trkpt>
      <trkpt lat="44.90593" lon="5.46593">
        <ele>1408.6</ele>
        <time>2021-10-09T09:07:46Z</time>
      </trkpt>
      <trkpt lat="44.90595" lon="5.46599">
        <ele>1407.2</ele>
        <time>2021-10-09T09:07:47Z</time>
      </trkpt>
      <trkpt lat="44.90597" lon="5.46604">
        <ele>1407.2</ele>
        <time>2021-10-09T09:07:48Z</time>
      </trkpt>
      <trkpt lat="44.90601" lon="5.46607">
        <ele>1407.2</ele>
        <time>2021-10-09T09:07:49Z</time>
      </trkpt>
      <trkpt lat="44.90604" lon="5.46612">
        <ele>1406.2</ele>
        <time>2021-10-09T09:07:50Z</time>
      </trkpt>
      <trkpt lat="44.90608" lon="5.46613">
        <ele>1405.2</ele>
        <time>2021-10-09T09:07:51Z</time>
      </trkpt>
      <trkpt lat="44.90613" lon="5.46616">
        <ele>1405.2</ele>
        <time>2021-10-09T09:07:52Z</time>
      </trkpt>
      <trkpt lat="44.90618" lon="5.46616">
        <ele>1405.2</ele>
        <time>2021-10-09T09:07:53Z</time>
      </trkpt>
      <trkpt lat="44.90622" lon="5.46616">
        <ele>1404.2</ele>
        <time>2021-10-09T09:07:54Z</time>
      </trkpt>
      <trkpt lat="44.90628" lon="5.46614">
        <ele>1403.2</ele>
        <time>2021-10-09T09:07:55Z</time>
      </trkpt>
      <trkpt lat="44.90634" lon="5.46611">
        <ele>1403.2</ele>
        <time>2021-10-09T09:07:56Z</time>
      </trkpt>
      <trkpt lat="44.90641" lon="5.4661">
        <ele>1403.2</ele>
        <time>2021-10-09T09:07:57Z</time>
      </trkpt>
      <trkpt lat="44.90647" lon="5.46605">
        <ele>1403.2</ele>
        <time>2021-10-09T09:07:58Z</time>
      </trkpt>
      <trkpt lat="44.90653" lon="5.46603">
        <ele>1401.8</ele>
        <time>2021-10-09T09:07:59Z</time>
      </trkpt>
      <trkpt lat="44.90659" lon="5.46602">
        <ele>1401.8</ele>
        <time>2021-10-09T09:08:00Z</time>
      </trkpt>
      <trkpt lat="44.90666" lon="5.46602">
        <ele>1401.8</ele>
        <time>2021-10-09T09:08:01Z</time>
      </trkpt>
      <trkpt lat="44.90672" lon="5.46606">
        <ele>1401.2</ele>
        <time>2021-10-09T09:08:02Z</time>
      </trkpt>
      <trkpt lat="44.90678" lon="5.46611">
        <ele>1400.2</ele>
        <time>2021-10-09T09:08:03Z</time>
      </trkpt>
      <trkpt lat="44.90683" lon="5.46618">
        <ele>1400.2</ele>
        <time>2021-10-09T09:08:04Z</time>
      </trkpt>
      <trkpt lat="44.90687" lon="5.46625">
        <ele>1400.2</ele>
        <time>2021-10-09T09:08:05Z</time>
      </trkpt>
      <trkpt lat="44.90692" lon="5.46633">
        <ele>1399.2</ele>
        <time>2021-10-09T09:08:06Z</time>
      </trkpt>
      <trkpt lat="44.90699" lon="5.46638">
        <ele>1397.8</ele>
        <time>2021-10-09T09:08:07Z</time>
      </trkpt>
      <trkpt lat="44.90705" lon="5.46643">
        <ele>1397.8</ele>
        <time>2021-10-09T09:08:08Z</time>
      </trkpt>
      <trkpt lat="44.90712" lon="5.46647">
        <ele>1397.8</ele>
        <time>2021-10-09T09:08:09Z</time>
      </trkpt>
      <trkpt lat="44.90718" lon="5.46649">
        <ele>1396.8</ele>
        <time>2021-10-09T09:08:10Z</time>
      </trkpt>
      <trkpt lat="44.90726" lon="5.46652">
        <ele>1396.4</ele>
        <time>2021-10-09T09:08:11Z</time>
      </trkpt>
      <trkpt lat="44.90733" lon="5.46656">
        <ele>1396.4</ele>
        <time>2021-10-09T09:08:12Z</time>
      </trkpt>
      <trkpt lat="44.9074" lon="5.46658">
        <ele>1396.4</ele>
        <time>2021-10-09T09:08:13Z</time>
      </trkpt>
      <trkpt lat="44.90747" lon="5.46659">
        <ele>1395.6</ele>
        <time>2021-10-09T09:08:14Z</time>
      </trkpt>
      <trkpt lat="44.90757" lon="5.46658">
        <ele>1394.4</ele>
        <time>2021-10-09T09:08:15Z</time>
      </trkpt>
      <trkpt lat="44.90766" lon="5.46655">
        <ele>1394.4</ele>
        <time>2021-10-09T09:08:16Z</time>
      </trkpt>
      <trkpt lat="44.90774" lon="5.46653">
        <ele>1394.4</ele>
        <time>2021-10-09T09:08:17Z</time>
      </trkpt>
      <trkpt lat="44.90784" lon="5.46651">
        <ele>1394.4</ele>
        <time>2021-10-09T09:08:18Z</time>
      </trkpt>
      <trkpt lat="44.90793" lon="5.46648">
        <ele>1394.4</ele>
        <time>2021-10-09T09:08:19Z</time>
      </trkpt>
      <trkpt lat="44.90801" lon="5.46645">
        <ele>1394.4</ele>
        <time>2021-10-09T09:08:20Z</time>
      </trkpt>
      <trkpt lat="44.90808" lon="5.46641">
        <ele>1394.4</ele>
        <time>2021-10-09T09:08:21Z</time>
      </trkpt>
      <trkpt lat="44.90815" lon="5.46636">
        <ele>1394.4</ele>
        <time>2021-10-09T09:08:22Z</time>
      </trkpt>
      <trkpt lat="44.90826" lon="5.4663">
        <ele>1392.6</ele>
        <time>2021-10-09T09:08:23Z</time>
      </trkpt>
      <trkpt lat="44.90834" lon="5.46625">
        <ele>1392.6</ele>
        <time>2021-10-09T09:08:24Z</time>
      </trkpt>
      <trkpt lat="44.90841" lon="5.46621">
        <ele>1392.6</ele>
        <time>2021-10-09T09:08:25Z</time>
      </trkpt>
      <trkpt lat="44.90848" lon="5.46618">
        <ele>1391.6</ele>
        <time>2021-10-09T09:08:26Z</time>
      </trkpt>
      <trkpt lat="44.90855" lon="5.46617">
        <ele>1390.2</ele>
        <time>2021-10-09T09:08:27Z</time>
      </trkpt>
      <trkpt lat="44.90862" lon="5.46616">
        <ele>1390.2</ele>
        <time>2021-10-09T09:08:28Z</time>
      </trkpt>
      <trkpt lat="44.90869" lon="5.46614">
        <ele>1390.2</ele>
        <time>2021-10-09T09:08:29Z</time>
      </trkpt>
      <trkpt lat="44.90876" lon="5.4661">
        <ele>1390.2</ele>
        <time>2021-10-09T09:08:30Z</time>
      </trkpt>
      <trkpt lat="44.90881" lon="5.46606">
        <ele>1389</ele>
        <time>2021-10-09T09:08:31Z</time>
      </trkpt>
      <trkpt lat="44.90887" lon="5.46601">
        <ele>1389</ele>
        <time>2021-10-09T09:08:32Z</time>
      </trkpt>
      <trkpt lat="44.90893" lon="5.46597">
        <ele>1389</ele>
        <time>2021-10-09T09:08:33Z</time>
      </trkpt>
      <trkpt lat="44.90899" lon="5.46594">
        <ele>1388</ele>
        <time>2021-10-09T09:08:34Z</time>
      </trkpt>
      <trkpt lat="44.90906" lon="5.46594">
        <ele>1387.4</ele>
        <time>2021-10-09T09:08:35Z</time>
      </trkpt>
      <trkpt lat="44.90913" lon="5.46594">
        <ele>1387.4</ele>
        <time>2021-10-09T09:08:36Z</time>
      </trkpt>
      <trkpt lat="44.90919" lon="5.46595">
        <ele>1387.4</ele>
        <time>2021-10-09T09:08:37Z</time>
      </trkpt>
      <trkpt lat="44.90927" lon="5.46595">
        <ele>1386.4</ele>
        <time>2021-10-09T09:08:38Z</time>
      </trkpt>
      <trkpt lat="44.90934" lon="5.46596">
        <ele>1385.6</ele>
        <time>2021-10-09T09:08:39Z</time>
      </trkpt>
      <trkpt lat="44.90941" lon="5.46596">
        <ele>1385.6</ele>
        <time>2021-10-09T09:08:40Z</time>
      </trkpt>
      <trkpt lat="44.90947" lon="5.46595">
        <ele>1385.6</ele>
        <time>2021-10-09T09:08:41Z</time>
      </trkpt>
      <trkpt lat="44.90954" lon="5.46596">
        <ele>1385.6</ele>
        <time>2021-10-09T09:08:42Z</time>
      </trkpt>
      <trkpt lat="44.90959" lon="5.46596">
        <ele>1386</ele>
        <time>2021-10-09T09:08:43Z</time>
      </trkpt>
      <trkpt lat="44.90964" lon="5.46597">
        <ele>1386</ele>
        <time>2021-10-09T09:08:44Z</time>
      </trkpt>
      <trkpt lat="44.90969" lon="5.46596">
        <ele>1386</ele>
        <time>2021-10-09T09:08:45Z</time>
      </trkpt>
      <trkpt lat="44.90973" lon="5.46592">
        <ele>1385.2</ele>
        <time>2021-10-09T09:08:46Z</time>
      </trkpt>
      <trkpt lat="44.90977" lon="5.46587">
        <ele>1385.4</ele>
        <time>2021-10-09T09:08:47Z</time>
      </trkpt>
      <trkpt lat="44.90981" lon="5.46581">
        <ele>1385.4</ele>
        <time>2021-10-09T09:08:48Z</time>
      </trkpt>
      <trkpt lat="44.90985" lon="5.46576">
        <ele>1385.4</ele>
        <time>2021-10-09T09:08:49Z</time>
      </trkpt>
      <trkpt lat="44.90989" lon="5.46572">
        <ele>1384.4</ele>
        <time>2021-10-09T09:08:50Z</time>
      </trkpt>
      <trkpt lat="44.90994" lon="5.46568">
        <ele>1384</ele>
        <time>2021-10-09T09:08:51Z</time>
      </trkpt>
      <trkpt lat="44.91" lon="5.46567">
        <ele>1384</ele>
        <time>2021-10-09T09:08:52Z</time>
      </trkpt>
      <trkpt lat="44.91005" lon="5.46566">
        <ele>1384</ele>
        <time>2021-10-09T09:08:53Z</time>
      </trkpt>
      <trkpt lat="44.91009" lon="5.46565">
        <ele>1384</ele>
        <time>2021-10-09T09:08:54Z</time>
      </trkpt>
      <trkpt lat="44.91013" lon="5.46564">
        <ele>1383.4</ele>
        <time>2021-10-09T09:08:55Z</time>
      </trkpt>
      <trkpt lat="44.91018" lon="5.46562">
        <ele>1383.4</ele>
        <time>2021-10-09T09:08:56Z</time>
      </trkpt>
      <trkpt lat="44.91022" lon="5.4656">
        <ele>1383.4</ele>
        <time>2021-10-09T09:08:57Z</time>
      </trkpt>
      <trkpt lat="44.91026" lon="5.46558">
        <ele>1382.4</ele>
        <time>2021-10-09T09:08:58Z</time>
      </trkpt>
      <trkpt lat="44.91031" lon="5.46556">
        <ele>1382</ele>
        <time>2021-10-09T09:08:59Z</time>
      </trkpt>
      <trkpt lat="44.91036" lon="5.46557">
        <ele>1382</ele>
        <time>2021-10-09T09:09:00Z</time>
      </trkpt>
      <trkpt lat="44.9104" lon="5.4656">
        <ele>1382</ele>
        <time>2021-10-09T09:09:01Z</time>
      </trkpt>
      <trkpt lat="44.91043" lon="5.46565">
        <ele>1382</ele>
        <time>2021-10-09T09:09:02Z</time>
      </trkpt>
      <trkpt lat="44.91044" lon="5.4657">
        <ele>1382</ele>
        <time>2021-10-09T09:09:03Z</time>
      </trkpt>
      <trkpt lat="44.91045" lon="5.46577">
        <ele>1382</ele>
        <time>2021-10-09T09:09:04Z</time>
      </trkpt>
      <trkpt lat="44.91046" lon="5.46584">
        <ele>1382</ele>
        <time>2021-10-09T09:09:05Z</time>
      </trkpt>
      <trkpt lat="44.91049" lon="5.46591">
        <ele>1381</ele>
        <time>2021-10-09T09:09:06Z</time>
      </trkpt>
      <trkpt lat="44.91052" lon="5.46596">
        <ele>1380.4</ele>
        <time>2021-10-09T09:09:07Z</time>
      </trkpt>
      <trkpt lat="44.91056" lon="5.46601">
        <ele>1380.4</ele>
        <time>2021-10-09T09:09:08Z</time>
      </trkpt>
      <trkpt lat="44.9106" lon="5.46605">
        <ele>1380.4</ele>
        <time>2021-10-09T09:09:09Z</time>
      </trkpt>
      <trkpt lat="44.91064" lon="5.46608">
        <ele>1380.4</ele>
        <time>2021-10-09T09:09:10Z</time>
      </trkpt>
      <trkpt lat="44.91068" lon="5.4661">
        <ele>1380.2</ele>
        <time>2021-10-09T09:09:11Z</time>
      </trkpt>
      <trkpt lat="44.91073" lon="5.46613">
        <ele>1380.2</ele>
        <time>2021-10-09T09:09:12Z</time>
      </trkpt>
      <trkpt lat="44.91079" lon="5.46616">
        <ele>1380.2</ele>
        <time>2021-10-09T09:09:13Z</time>
      </trkpt>
      <trkpt lat="44.91084" lon="5.4662">
        <ele>1380.2</ele>
        <time>2021-10-09T09:09:14Z</time>
      </trkpt>
      <trkpt lat="44.91089" lon="5.46625">
        <ele>1379.2</ele>
        <time>2021-10-09T09:09:15Z</time>
      </trkpt>
      <trkpt lat="44.91094" lon="5.46629">
        <ele>1379.2</ele>
        <time>2021-10-09T09:09:16Z</time>
      </trkpt>
      <trkpt lat="44.91098" lon="5.46635">
        <ele>1379.2</ele>
        <time>2021-10-09T09:09:17Z</time>
      </trkpt>
      <trkpt lat="44.91103" lon="5.46639">
        <ele>1379.2</ele>
        <time>2021-10-09T09:09:18Z</time>
      </trkpt>
      <trkpt lat="44.91108" lon="5.46641">
        <ele>1378.8</ele>
        <time>2021-10-09T09:09:19Z</time>
      </trkpt>
      <trkpt lat="44.91114" lon="5.46642">
        <ele>1378.8</ele>
        <time>2021-10-09T09:09:20Z</time>
      </trkpt>
      <trkpt lat="44.9112" lon="5.46641">
        <ele>1378.8</ele>
        <time>2021-10-09T09:09:21Z</time>
      </trkpt>
      <trkpt lat="44.91126" lon="5.46639">
        <ele>1378.8</ele>
        <time>2021-10-09T09:09:22Z</time>
      </trkpt>
      <trkpt lat="44.91132" lon="5.46641">
        <ele>1377.4</ele>
        <time>2021-10-09T09:09:23Z</time>
      </trkpt>
      <trkpt lat="44.91138" lon="5.46642">
        <ele>1377.4</ele>
        <time>2021-10-09T09:09:24Z</time>
      </trkpt>
      <trkpt lat="44.91146" lon="5.46643">
        <ele>1377.4</ele>
        <time>2021-10-09T09:09:25Z</time>
      </trkpt>
      <trkpt lat="44.91152" lon="5.46642">
        <ele>1377.4</ele>
        <time>2021-10-09T09:09:26Z</time>
      </trkpt>
      <trkpt lat="44.91159" lon="5.46639">
        <ele>1377.2</ele>
        <time>2021-10-09T09:09:27Z</time>
      </trkpt>
      <trkpt lat="44.91164" lon="5.46634">
        <ele>1377.2</ele>
        <time>2021-10-09T09:09:28Z</time>
      </trkpt>
      <trkpt lat="44.9117" lon="5.4663">
        <ele>1377.2</ele>
        <time>2021-10-09T09:09:29Z</time>
      </trkpt>
      <trkpt lat="44.91176" lon="5.46626">
        <ele>1376.2</ele>
        <time>2021-10-09T09:09:30Z</time>
      </trkpt>
      <trkpt lat="44.91182" lon="5.46622">
        <ele>1376.4</ele>
        <time>2021-10-09T09:09:31Z</time>
      </trkpt>
      <trkpt lat="44.91189" lon="5.46618">
        <ele>1376.4</ele>
        <time>2021-10-09T09:09:32Z</time>
      </trkpt>
      <trkpt lat="44.91194" lon="5.46611">
        <ele>1376.4</ele>
        <time>2021-10-09T09:09:33Z</time>
      </trkpt>
      <trkpt lat="44.91198" lon="5.46604">
        <ele>1375.6</ele>
        <time>2021-10-09T09:09:34Z</time>
      </trkpt>
      <trkpt lat="44.912" lon="5.46597">
        <ele>1374.8</ele>
        <time>2021-10-09T09:09:35Z</time>
      </trkpt>
      <trkpt lat="44.91202" lon="5.46589">
        <ele>1374.8</ele>
        <time>2021-10-09T09:09:36Z</time>
      </trkpt>
      <trkpt lat="44.91204" lon="5.4658">
        <ele>1374.8</ele>
        <time>2021-10-09T09:09:37Z</time>
      </trkpt>
      <trkpt lat="44.91207" lon="5.46573">
        <ele>1374.2</ele>
        <time>2021-10-09T09:09:38Z</time>
      </trkpt>
      <trkpt lat="44.91211" lon="5.46566">
        <ele>1374.2</ele>
        <time>2021-10-09T09:09:39Z</time>
      </trkpt>
      <trkpt lat="44.91215" lon="5.46561">
        <ele>1374.2</ele>
        <time>2021-10-09T09:09:40Z</time>
      </trkpt>
      <trkpt lat="44.9122" lon="5.46558">
        <ele>1374.2</ele>
        <time>2021-10-09T09:09:41Z</time>
      </trkpt>
      <trkpt lat="44.91225" lon="5.46555">
        <ele>1374.2</ele>
        <time>2021-10-09T09:09:42Z</time>
      </trkpt>
      <trkpt lat="44.9123" lon="5.46554">
        <ele>1374.4</ele>
        <time>2021-10-09T09:09:43Z</time>
      </trkpt>
      <trkpt lat="44.91235" lon="5.46553">
        <ele>1374.4</ele>
        <time>2021-10-09T09:09:44Z</time>
      </trkpt>
      <trkpt lat="44.9124" lon="5.46553">
        <ele>1374.4</ele>
        <time>2021-10-09T09:09:45Z</time>
      </trkpt>
      <trkpt lat="44.91245" lon="5.46555">
        <ele>1373.4</ele>
        <time>2021-10-09T09:09:46Z</time>
      </trkpt>
      <trkpt lat="44.91251" lon="5.46558">
        <ele>1373.6</ele>
        <time>2021-10-09T09:09:47Z</time>
      </trkpt>
      <trkpt lat="44.91255" lon="5.46563">
        <ele>1373.6</ele>
        <time>2021-10-09T09:09:48Z</time>
      </trkpt>
      <trkpt lat="44.9126" lon="5.46568">
        <ele>1373.6</ele>
        <time>2021-10-09T09:09:49Z</time>
      </trkpt>
      <trkpt lat="44.91265" lon="5.46573">
        <ele>1373.6</ele>
        <time>2021-10-09T09:09:50Z</time>
      </trkpt>
      <trkpt lat="44.91271" lon="5.46577">
        <ele>1373.2</ele>
        <time>2021-10-09T09:09:51Z</time>
      </trkpt>
      <trkpt lat="44.91277" lon="5.46582">
        <ele>1373.2</ele>
        <time>2021-10-09T09:09:52Z</time>
      </trkpt>
      <trkpt lat="44.91283" lon="5.46585">
        <ele>1373.2</ele>
        <time>2021-10-09T09:09:53Z</time>
      </trkpt>
      <trkpt lat="44.91289" lon="5.46587">
        <ele>1373.2</ele>
        <time>2021-10-09T09:09:54Z</time>
      </trkpt>
      <trkpt lat="44.91296" lon="5.4659">
        <ele>1373</ele>
        <time>2021-10-09T09:09:55Z</time>
      </trkpt>
      <trkpt lat="44.91302" lon="5.46591">
        <ele>1373</ele>
        <time>2021-10-09T09:09:56Z</time>
      </trkpt>
      <trkpt lat="44.91308" lon="5.4659">
        <ele>1373</ele>
        <time>2021-10-09T09:09:57Z</time>
      </trkpt>
      <trkpt lat="44.91315" lon="5.46588">
        <ele>1372.2</ele>
        <time>2021-10-09T09:09:58Z</time>
      </trkpt>
      <trkpt lat="44.91322" lon="5.46586">
        <ele>1371.2</ele>
        <time>2021-10-09T09:09:59Z</time>
      </trkpt>
      <trkpt lat="44.91328" lon="5.46582">
        <ele>1371.2</ele>
        <time>2021-10-09T09:10:00Z</time>
      </trkpt>
      <trkpt lat="44.91334" lon="5.4658">
        <ele>1371.2</ele>
        <time>2021-10-09T09:10:01Z</time>
      </trkpt>
      <trkpt lat="44.9134" lon="5.46579">
        <ele>1370.8</ele>
        <time>2021-10-09T09:10:02Z</time>
      </trkpt>
      <trkpt lat="44.91347" lon="5.4658">
        <ele>1370.8</ele>
        <time>2021-10-09T09:10:03Z</time>
      </trkpt>
      <trkpt lat="44.91353" lon="5.46583">
        <ele>1370.8</ele>
        <time>2021-10-09T09:10:04Z</time>
      </trkpt>
      <trkpt lat="44.91359" lon="5.46587">
        <ele>1370.8</ele>
        <time>2021-10-09T09:10:05Z</time>
      </trkpt>
      <trkpt lat="44.91364" lon="5.46589">
        <ele>1370.8</ele>
        <time>2021-10-09T09:10:06Z</time>
      </trkpt>
      <trkpt lat="44.91369" lon="5.46591">
        <ele>1370.6</ele>
        <time>2021-10-09T09:10:07Z</time>
      </trkpt>
      <trkpt lat="44.91374" lon="5.46594">
        <ele>1370.6</ele>
        <time>2021-10-09T09:10:08Z</time>
      </trkpt>
      <trkpt lat="44.9138" lon="5.46597">
        <ele>1370.6</ele>
        <time>2021-10-09T09:10:09Z</time>
      </trkpt>
      <trkpt lat="44.91385" lon="5.46599">
        <ele>1370.6</ele>
        <time>2021-10-09T09:10:10Z</time>
      </trkpt>
      <trkpt lat="44.91392" lon="5.46601">
        <ele>1369.8</ele>
        <time>2021-10-09T09:10:11Z</time>
      </trkpt>
      <trkpt lat="44.91398" lon="5.46601">
        <ele>1369.8</ele>
        <time>2021-10-09T09:10:12Z</time>
      </trkpt>
      <trkpt lat="44.91404" lon="5.46601">
        <ele>1369.8</ele>
        <time>2021-10-09T09:10:13Z</time>
      </trkpt>
      <trkpt lat="44.91411" lon="5.46598">
        <ele>1368.8</ele>
        <time>2021-10-09T09:10:14Z</time>
      </trkpt>
      <trkpt lat="44.91417" lon="5.46594">
        <ele>1368.6</ele>
        <time>2021-10-09T09:10:15Z</time>
      </trkpt>
      <trkpt lat="44.91421" lon="5.46589">
        <ele>1368.6</ele>
        <time>2021-10-09T09:10:16Z</time>
      </trkpt>
      <trkpt lat="44.91426" lon="5.46584">
        <ele>1368.6</ele>
        <time>2021-10-09T09:10:17Z</time>
      </trkpt>
      <trkpt lat="44.91431" lon="5.46578">
        <ele>1368.6</ele>
        <time>2021-10-09T09:10:18Z</time>
      </trkpt>
      <trkpt lat="44.91436" lon="5.46573">
        <ele>1368.8</ele>
        <time>2021-10-09T09:10:19Z</time>
      </trkpt>
      <trkpt lat="44.9144" lon="5.46565">
        <ele>1368.8</ele>
        <time>2021-10-09T09:10:20Z</time>
      </trkpt>
      <trkpt lat="44.91444" lon="5.46558">
        <ele>1368.8</ele>
        <time>2021-10-09T09:10:21Z</time>
      </trkpt>
      <trkpt lat="44.91447" lon="5.4655">
        <ele>1367.8</ele>
        <time>2021-10-09T09:10:22Z</time>
      </trkpt>
      <trkpt lat="44.9145" lon="5.46543">
        <ele>1368</ele>
        <time>2021-10-09T09:10:23Z</time>
      </trkpt>
      <trkpt lat="44.91453" lon="5.46536">
        <ele>1368</ele>
        <time>2021-10-09T09:10:24Z</time>
      </trkpt>
      <trkpt lat="44.91456" lon="5.46529">
        <ele>1368</ele>
        <time>2021-10-09T09:10:25Z</time>
      </trkpt>
      <trkpt lat="44.91459" lon="5.46522">
        <ele>1368</ele>
        <time>2021-10-09T09:10:26Z</time>
      </trkpt>
      <trkpt lat="44.91462" lon="5.46515">
        <ele>1368</ele>
        <time>2021-10-09T09:10:27Z</time>
      </trkpt>
      <trkpt lat="44.91464" lon="5.46508">
        <ele>1368</ele>
        <time>2021-10-09T09:10:28Z</time>
      </trkpt>
      <trkpt lat="44.91467" lon="5.46502">
        <ele>1368</ele>
        <time>2021-10-09T09:10:29Z</time>
      </trkpt>
      <trkpt lat="44.91471" lon="5.46496">
        <ele>1368</ele>
        <time>2021-10-09T09:10:30Z</time>
      </trkpt>
      <trkpt lat="44.91474" lon="5.46491">
        <ele>1368</ele>
        <time>2021-10-09T09:10:31Z</time>
      </trkpt>
      <trkpt lat="44.91478" lon="5.46486">
        <ele>1368</ele>
        <time>2021-10-09T09:10:32Z</time>
      </trkpt>
      <trkpt lat="44.91482" lon="5.46483">
        <ele>1368</ele>
        <time>2021-10-09T09:10:33Z</time>
      </trkpt>
      <trkpt lat="44.91486" lon="5.46479">
        <ele>1368</ele>
        <time>2021-10-09T09:10:34Z</time>
      </trkpt>
      <trkpt lat="44.91491" lon="5.46477">
        <ele>1368.2</ele>
        <time>2021-10-09T09:10:35Z</time>
      </trkpt>
      <trkpt lat="44.91495" lon="5.46475">
        <ele>1368.2</ele>
        <time>2021-10-09T09:10:36Z</time>
      </trkpt>
      <trkpt lat="44.915" lon="5.46473">
        <ele>1368.2</ele>
        <time>2021-10-09T09:10:37Z</time>
      </trkpt>
      <trkpt lat="44.91505" lon="5.46472">
        <ele>1368.2</ele>
        <time>2021-10-09T09:10:38Z</time>
      </trkpt>
      <trkpt lat="44.91509" lon="5.46473">
        <ele>1368</ele>
        <time>2021-10-09T09:10:39Z</time>
      </trkpt>
      <trkpt lat="44.91513" lon="5.46476">
        <ele>1368</ele>
        <time>2021-10-09T09:10:40Z</time>
      </trkpt>
      <trkpt lat="44.91517" lon="5.4648">
        <ele>1368</ele>
        <time>2021-10-09T09:10:41Z</time>
      </trkpt>
      <trkpt lat="44.91521" lon="5.46485">
        <ele>1368.6</ele>
        <time>2021-10-09T09:10:42Z</time>
      </trkpt>
      <trkpt lat="44.91524" lon="5.46489">
        <ele>1368.4</ele>
        <time>2021-10-09T09:10:43Z</time>
      </trkpt>
      <trkpt lat="44.91528" lon="5.46493">
        <ele>1368.4</ele>
        <time>2021-10-09T09:10:44Z</time>
      </trkpt>
      <trkpt lat="44.91532" lon="5.46496">
        <ele>1368.4</ele>
        <time>2021-10-09T09:10:45Z</time>
      </trkpt>
      <trkpt lat="44.91537" lon="5.46498">
        <ele>1368.8</ele>
        <time>2021-10-09T09:10:46Z</time>
      </trkpt>
      <trkpt lat="44.91542" lon="5.465">
        <ele>1368</ele>
        <time>2021-10-09T09:10:47Z</time>
      </trkpt>
      <trkpt lat="44.91548" lon="5.465">
        <ele>1368</ele>
        <time>2021-10-09T09:10:48Z</time>
      </trkpt>
      <trkpt lat="44.91553" lon="5.465">
        <ele>1368</ele>
        <time>2021-10-09T09:10:49Z</time>
      </trkpt>
      <trkpt lat="44.91559" lon="5.46499">
        <ele>1368</ele>
        <time>2021-10-09T09:10:50Z</time>
      </trkpt>
      <trkpt lat="44.91564" lon="5.46498">
        <ele>1369</ele>
        <time>2021-10-09T09:10:51Z</time>
      </trkpt>
      <trkpt lat="44.91569" lon="5.46496">
        <ele>1369</ele>
        <time>2021-10-09T09:10:52Z</time>
      </trkpt>
      <trkpt lat="44.91574" lon="5.46494">
        <ele>1369</ele>
        <time>2021-10-09T09:10:53Z</time>
      </trkpt>
      <trkpt lat="44.91579" lon="5.46492">
        <ele>1368.6</ele>
        <time>2021-10-09T09:10:54Z</time>
      </trkpt>
      <trkpt lat="44.91583" lon="5.4649">
        <ele>1368.6</ele>
        <time>2021-10-09T09:10:55Z</time>
      </trkpt>
      <trkpt lat="44.91588" lon="5.46488">
        <ele>1368.6</ele>
        <time>2021-10-09T09:10:56Z</time>
      </trkpt>
      <trkpt lat="44.91592" lon="5.46487">
        <ele>1368.6</ele>
        <time>2021-10-09T09:10:57Z</time>
      </trkpt>
      <trkpt lat="44.91596" lon="5.46485">
        <ele>1368</ele>
        <time>2021-10-09T09:10:58Z</time>
      </trkpt>
      <trkpt lat="44.91601" lon="5.46483">
        <ele>1368.6</ele>
        <time>2021-10-09T09:10:59Z</time>
      </trkpt>
      <trkpt lat="44.91605" lon="5.46481">
        <ele>1368.6</ele>
        <time>2021-10-09T09:11:00Z</time>
      </trkpt>
      <trkpt lat="44.91609" lon="5.46478">
        <ele>1368.6</ele>
        <time>2021-10-09T09:11:01Z</time>
      </trkpt>
      <trkpt lat="44.91613" lon="5.46476">
        <ele>1368.6</ele>
        <time>2021-10-09T09:11:02Z</time>
      </trkpt>
      <trkpt lat="44.91617" lon="5.46473">
        <ele>1369.4</ele>
        <time>2021-10-09T09:11:03Z</time>
      </trkpt>
      <trkpt lat="44.91621" lon="5.4647">
        <ele>1369.4</ele>
        <time>2021-10-09T09:11:04Z</time>
      </trkpt>
      <trkpt lat="44.91625" lon="5.46467">
        <ele>1369.4</ele>
        <time>2021-10-09T09:11:05Z</time>
      </trkpt>
      <trkpt lat="44.91629" lon="5.46464">
        <ele>1369.4</ele>
        <time>2021-10-09T09:11:06Z</time>
      </trkpt>
      <trkpt lat="44.91632" lon="5.4646">
        <ele>1369.2</ele>
        <time>2021-10-09T09:11:07Z</time>
      </trkpt>
      <trkpt lat="44.91635" lon="5.46457">
        <ele>1369.2</ele>
        <time>2021-10-09T09:11:08Z</time>
      </trkpt>
      <trkpt lat="44.91639" lon="5.46454">
        <ele>1369.2</ele>
        <time>2021-10-09T09:11:09Z</time>
      </trkpt>
      <trkpt lat="44.91641" lon="5.46451">
        <ele>1369.8</ele>
        <time>2021-10-09T09:11:10Z</time>
      </trkpt>
      <trkpt lat="44.91644" lon="5.46448">
        <ele>1370</ele>
        <time>2021-10-09T09:11:11Z</time>
      </trkpt>
      <trkpt lat="44.91647" lon="5.46445">
        <ele>1370</ele>
        <time>2021-10-09T09:11:12Z</time>
      </trkpt>
      <trkpt lat="44.9165" lon="5.46442">
        <ele>1370</ele>
        <time>2021-10-09T09:11:13Z</time>
      </trkpt>
      <trkpt lat="44.91652" lon="5.46439">
        <ele>1370</ele>
        <time>2021-10-09T09:11:14Z</time>
      </trkpt>
      <trkpt lat="44.91655" lon="5.46435">
        <ele>1370.4</ele>
        <time>2021-10-09T09:11:15Z</time>
      </trkpt>
      <trkpt lat="44.91657" lon="5.46432">
        <ele>1370.4</ele>
        <time>2021-10-09T09:11:16Z</time>
      </trkpt>
      <trkpt lat="44.9166" lon="5.46428">
        <ele>1370.4</ele>
        <time>2021-10-09T09:11:17Z</time>
      </trkpt>
      <trkpt lat="44.91662" lon="5.46424">
        <ele>1370.4</ele>
        <time>2021-10-09T09:11:18Z</time>
      </trkpt>
      <trkpt lat="44.91665" lon="5.4642">
        <ele>1371</ele>
        <time>2021-10-09T09:11:19Z</time>
      </trkpt>
      <trkpt lat="44.91667" lon="5.46416">
        <ele>1371</ele>
        <time>2021-10-09T09:11:20Z</time>
      </trkpt>
      <trkpt lat="44.9167" lon="5.46412">
        <ele>1371</ele>
        <time>2021-10-09T09:11:21Z</time>
      </trkpt>
      <trkpt lat="44.91672" lon="5.46408">
        <ele>1371</ele>
        <time>2021-10-09T09:11:22Z</time>
      </trkpt>
      <trkpt lat="44.91675" lon="5.46404">
        <ele>1371.4</ele>
        <time>2021-10-09T09:11:23Z</time>
      </trkpt>
      <trkpt lat="44.91677" lon="5.46401">
        <ele>1371.4</ele>
        <time>2021-10-09T09:11:24Z</time>
      </trkpt>
      <trkpt lat="44.9168" lon="5.46397">
        <ele>1371.4</ele>
        <time>2021-10-09T09:11:25Z</time>
      </trkpt>
      <trkpt lat="44.91683" lon="5.46394">
        <ele>1371.6</ele>
        <time>2021-10-09T09:11:26Z</time>
      </trkpt>
      <trkpt lat="44.91686" lon="5.46391">
        <ele>1371.6</ele>
        <time>2021-10-09T09:11:27Z</time>
      </trkpt>
      <trkpt lat="44.91688" lon="5.46388">
        <ele>1371.6</ele>
        <time>2021-10-09T09:11:28Z</time>
      </trkpt>
      <trkpt lat="44.91691" lon="5.46385">
        <ele>1371.6</ele>
        <time>2021-10-09T09:11:29Z</time>
      </trkpt>
      <trkpt lat="44.91694" lon="5.46383">
        <ele>1371.6</ele>
        <time>2021-10-09T09:11:30Z</time>
      </trkpt>
      <trkpt lat="44.91698" lon="5.46381">
        <ele>1370.8</ele>
        <time>2021-10-09T09:11:31Z</time>
      </trkpt>
      <trkpt lat="44.91701" lon="5.46379">
        <ele>1370.8</ele>
        <time>2021-10-09T09:11:32Z</time>
      </trkpt>
      <trkpt lat="44.91704" lon="5.46377">
        <ele>1370.8</ele>
        <time>2021-10-09T09:11:33Z</time>
      </trkpt>
      <trkpt lat="44.91708" lon="5.46376">
        <ele>1369.8</ele>
        <time>2021-10-09T09:11:34Z</time>
      </trkpt>
      <trkpt lat="44.91712" lon="5.46377">
        <ele>1369.2</ele>
        <time>2021-10-09T09:11:35Z</time>
      </trkpt>
      <trkpt lat="44.91717" lon="5.4638">
        <ele>1369.2</ele>
        <time>2021-10-09T09:11:36Z</time>
      </trkpt>
      <trkpt lat="44.9172" lon="5.46385">
        <ele>1369.2</ele>
        <time>2021-10-09T09:11:37Z</time>
      </trkpt>
      <trkpt lat="44.91723" lon="5.4639">
        <ele>1368.2</ele>
        <time>2021-10-09T09:11:38Z</time>
      </trkpt>
      <trkpt lat="44.91724" lon="5.46397">
        <ele>1367.2</ele>
        <time>2021-10-09T09:11:39Z</time>
      </trkpt>
      <trkpt lat="44.91724" lon="5.46404">
        <ele>1367.2</ele>
        <time>2021-10-09T09:11:40Z</time>
      </trkpt>
      <trkpt lat="44.91724" lon="5.46409">
        <ele>1367.2</ele>
        <time>2021-10-09T09:11:41Z</time>
      </trkpt>
      <trkpt lat="44.91725" lon="5.46415">
        <ele>1367.2</ele>
        <time>2021-10-09T09:11:42Z</time>
      </trkpt>
      <trkpt lat="44.91724" lon="5.46422">
        <ele>1366.6</ele>
        <time>2021-10-09T09:11:43Z</time>
      </trkpt>
      <trkpt lat="44.91724" lon="5.46428">
        <ele>1366.6</ele>
        <time>2021-10-09T09:11:44Z</time>
      </trkpt>
      <trkpt lat="44.91724" lon="5.46433">
        <ele>1366.6</ele>
        <time>2021-10-09T09:11:45Z</time>
      </trkpt>
      <trkpt lat="44.91725" lon="5.46437">
        <ele>1366.6</ele>
        <time>2021-10-09T09:11:46Z</time>
      </trkpt>
      <trkpt lat="44.91726" lon="5.46439">
        <ele>1366.6</ele>
        <time>2021-10-09T09:11:47Z</time>
      </trkpt>
      <trkpt lat="44.91727" lon="5.46441">
        <ele>1366.6</ele>
        <time>2021-10-09T09:11:48Z</time>
      </trkpt>
      <trkpt lat="44.91729" lon="5.46443">
        <ele>1366.6</ele>
        <time>2021-10-09T09:11:49Z</time>
      </trkpt>
      <trkpt lat="44.91731" lon="5.46444">
        <ele>1365.6</ele>
        <time>2021-10-09T09:11:50Z</time>
      </trkpt>
      <trkpt lat="44.91735" lon="5.46444">
        <ele>1364.6</ele>
        <time>2021-10-09T09:11:51Z</time>
      </trkpt>
      <trkpt lat="44.91738" lon="5.46443">
        <ele>1364.6</ele>
        <time>2021-10-09T09:11:52Z</time>
      </trkpt>
      <trkpt lat="44.91742" lon="5.4644">
        <ele>1364.6</ele>
        <time>2021-10-09T09:11:53Z</time>
      </trkpt>
      <trkpt lat="44.91747" lon="5.46438">
        <ele>1363.6</ele>
        <time>2021-10-09T09:11:54Z</time>
      </trkpt>
      <trkpt lat="44.91751" lon="5.46434">
        <ele>1362.2</ele>
        <time>2021-10-09T09:11:55Z</time>
      </trkpt>
      <trkpt lat="44.91755" lon="5.4643">
        <ele>1362.2</ele>
        <time>2021-10-09T09:11:56Z</time>
      </trkpt>
      <trkpt lat="44.91759" lon="5.46426">
        <ele>1362.2</ele>
        <time>2021-10-09T09:11:57Z</time>
      </trkpt>
      <trkpt lat="44.91763" lon="5.46421">
        <ele>1361.8</ele>
        <time>2021-10-09T09:11:58Z</time>
      </trkpt>
      <trkpt lat="44.91766" lon="5.46415">
        <ele>1363</ele>
        <time>2021-10-09T09:11:59Z</time>
      </trkpt>
      <trkpt lat="44.91768" lon="5.46408">
        <ele>1363</ele>
        <time>2021-10-09T09:12:00Z</time>
      </trkpt>
      <trkpt lat="44.9177" lon="5.46401">
        <ele>1363</ele>
        <time>2021-10-09T09:12:01Z</time>
      </trkpt>
      <trkpt lat="44.91772" lon="5.46392">
        <ele>1362</ele>
        <time>2021-10-09T09:12:02Z</time>
      </trkpt>
      <trkpt lat="44.91774" lon="5.46385">
        <ele>1359.6</ele>
        <time>2021-10-09T09:12:03Z</time>
      </trkpt>
      <trkpt lat="44.91776" lon="5.46377">
        <ele>1359.6</ele>
        <time>2021-10-09T09:12:04Z</time>
      </trkpt>
      <trkpt lat="44.91779" lon="5.46368">
        <ele>1359.6</ele>
        <time>2021-10-09T09:12:05Z</time>
      </trkpt>
      <trkpt lat="44.91781" lon="5.46359">
        <ele>1358.6</ele>
        <time>2021-10-09T09:12:06Z</time>
      </trkpt>
      <trkpt lat="44.91784" lon="5.46351">
        <ele>1357.8</ele>
        <time>2021-10-09T09:12:07Z</time>
      </trkpt>
      <trkpt lat="44.91786" lon="5.46341">
        <ele>1357.8</ele>
        <time>2021-10-09T09:12:08Z</time>
      </trkpt>
      <trkpt lat="44.9179" lon="5.46333">
        <ele>1357.8</ele>
        <time>2021-10-09T09:12:09Z</time>
      </trkpt>
      <trkpt lat="44.91793" lon="5.46325">
        <ele>1357.8</ele>
        <time>2021-10-09T09:12:10Z</time>
      </trkpt>
      <trkpt lat="44.91798" lon="5.46318">
        <ele>1357</ele>
        <time>2021-10-09T09:12:11Z</time>
      </trkpt>
      <trkpt lat="44.91802" lon="5.46311">
        <ele>1357</ele>
        <time>2021-10-09T09:12:12Z</time>
      </trkpt>
      <trkpt lat="44.91807" lon="5.46304">
        <ele>1357</ele>
        <time>2021-10-09T09:12:13Z</time>
      </trkpt>
      <trkpt lat="44.91812" lon="5.46298">
        <ele>1356</ele>
        <time>2021-10-09T09:12:14Z</time>
      </trkpt>
      <trkpt lat="44.91816" lon="5.46291">
        <ele>1355.6</ele>
        <time>2021-10-09T09:12:15Z</time>
      </trkpt>
      <trkpt lat="44.9182" lon="5.46284">
        <ele>1355.6</ele>
        <time>2021-10-09T09:12:16Z</time>
      </trkpt>
      <trkpt lat="44.91823" lon="5.46276">
        <ele>1355.6</ele>
        <time>2021-10-09T09:12:17Z</time>
      </trkpt>
      <trkpt lat="44.91826" lon="5.46268">
        <ele>1355.6</ele>
        <time>2021-10-09T09:12:18Z</time>
      </trkpt>
      <trkpt lat="44.91827" lon="5.46259">
        <ele>1355.8</ele>
        <time>2021-10-09T09:12:19Z</time>
      </trkpt>
      <trkpt lat="44.91829" lon="5.46251">
        <ele>1355.8</ele>
        <time>2021-10-09T09:12:20Z</time>
      </trkpt>
      <trkpt lat="44.9183" lon="5.46242">
        <ele>1355.8</ele>
        <time>2021-10-09T09:12:21Z</time>
      </trkpt>
      <trkpt lat="44.9183" lon="5.46234">
        <ele>1355.8</ele>
        <time>2021-10-09T09:12:22Z</time>
      </trkpt>
      <trkpt lat="44.9183" lon="5.46226">
        <ele>1355.8</ele>
        <time>2021-10-09T09:12:23Z</time>
      </trkpt>
      <trkpt lat="44.91829" lon="5.46218">
        <ele>1355.8</ele>
        <time>2021-10-09T09:12:24Z</time>
      </trkpt>
      <trkpt lat="44.91829" lon="5.46211">
        <ele>1355.8</ele>
        <time>2021-10-09T09:12:25Z</time>
      </trkpt>
      <trkpt lat="44.9183" lon="5.46203">
        <ele>1355.8</ele>
        <time>2021-10-09T09:12:26Z</time>
      </trkpt>
      <trkpt lat="44.91833" lon="5.46196">
        <ele>1354.6</ele>
        <time>2021-10-09T09:12:27Z</time>
      </trkpt>
      <trkpt lat="44.91837" lon="5.46189">
        <ele>1354.6</ele>
        <time>2021-10-09T09:12:28Z</time>
      </trkpt>
      <trkpt lat="44.91841" lon="5.46183">
        <ele>1354.6</ele>
        <time>2021-10-09T09:12:29Z</time>
      </trkpt>
      <trkpt lat="44.91845" lon="5.46177">
        <ele>1353.8</ele>
        <time>2021-10-09T09:12:30Z</time>
      </trkpt>
      <trkpt lat="44.91849" lon="5.46169">
        <ele>1353.6</ele>
        <time>2021-10-09T09:12:31Z</time>
      </trkpt>
      <trkpt lat="44.91851" lon="5.46161">
        <ele>1353.6</ele>
        <time>2021-10-09T09:12:32Z</time>
      </trkpt>
      <trkpt lat="44.91853" lon="5.46152">
        <ele>1353.6</ele>
        <time>2021-10-09T09:12:33Z</time>
      </trkpt>
      <trkpt lat="44.91854" lon="5.46144">
        <ele>1354.6</ele>
        <time>2021-10-09T09:12:34Z</time>
      </trkpt>
      <trkpt lat="44.91853" lon="5.46139">
        <ele>1354.8</ele>
        <time>2021-10-09T09:12:35Z</time>
      </trkpt>
      <trkpt lat="44.91853" lon="5.46135">
        <ele>1354.8</ele>
        <time>2021-10-09T09:12:36Z</time>
      </trkpt>
      <trkpt lat="44.91854" lon="5.46133">
        <ele>1354.8</ele>
        <time>2021-10-09T09:12:37Z</time>
      </trkpt>
      <trkpt lat="44.91854" lon="5.46131">
        <ele>1354.8</ele>
        <time>2021-10-09T09:12:38Z</time>
      </trkpt>
      <trkpt lat="44.91854" lon="5.46131">
        <ele>1355.2</ele>
        <time>2021-10-09T09:12:39Z</time>
      </trkpt>
      <trkpt lat="44.91854" lon="5.46139">
        <ele>1354.6</ele>
        <time>2021-10-09T09:13:27Z</time>
      </trkpt>
      <trkpt lat="44.91854" lon="5.46141">
        <ele>1354.6</ele>
        <time>2021-10-09T09:13:28Z</time>
      </trkpt>
      <trkpt lat="44.91855" lon="5.46144">
        <ele>1354.6</ele>
        <time>2021-10-09T09:13:29Z</time>
      </trkpt>
      <trkpt lat="44.91855" lon="5.46146">
        <ele>1355.2</ele>
        <time>2021-10-09T09:13:30Z</time>
      </trkpt>
      <trkpt lat="44.91855" lon="5.46149">
        <ele>1355</ele>
        <time>2021-10-09T09:13:31Z</time>
      </trkpt>
      <trkpt lat="44.91854" lon="5.46151">
        <ele>1355</ele>
        <time>2021-10-09T09:13:32Z</time>
      </trkpt>
      <trkpt lat="44.91854" lon="5.46154">
        <ele>1355</ele>
        <time>2021-10-09T09:13:33Z</time>
      </trkpt>
      <trkpt lat="44.91853" lon="5.46156">
        <ele>1355</ele>
        <time>2021-10-09T09:13:34Z</time>
      </trkpt>
      <trkpt lat="44.91853" lon="5.46158">
        <ele>1355.2</ele>
        <time>2021-10-09T09:13:35Z</time>
      </trkpt>
      <trkpt lat="44.91852" lon="5.4616">
        <ele>1355.2</ele>
        <time>2021-10-09T09:13:36Z</time>
      </trkpt>
      <trkpt lat="44.91851" lon="5.46163">
        <ele>1355.2</ele>
        <time>2021-10-09T09:13:37Z</time>
      </trkpt>
      <trkpt lat="44.9185" lon="5.46165">
        <ele>1355.2</ele>
        <time>2021-10-09T09:13:38Z</time>
      </trkpt>
      <trkpt lat="44.91849" lon="5.46168">
        <ele>1355.6</ele>
        <time>2021-10-09T09:13:39Z</time>
      </trkpt>
      <trkpt lat="44.91848" lon="5.4617">
        <ele>1355.6</ele>
        <time>2021-10-09T09:13:40Z</time>
      </trkpt>
      <trkpt lat="44.91846" lon="5.46173">
        <ele>1355.6</ele>
        <time>2021-10-09T09:13:41Z</time>
      </trkpt>
      <trkpt lat="44.91845" lon="5.46176">
        <ele>1356.4</ele>
        <time>2021-10-09T09:13:42Z</time>
      </trkpt>
      <trkpt lat="44.91843" lon="5.46178">
        <ele>1356.4</ele>
        <time>2021-10-09T09:13:43Z</time>
      </trkpt>
      <trkpt lat="44.91841" lon="5.46181">
        <ele>1356.4</ele>
        <time>2021-10-09T09:13:44Z</time>
      </trkpt>
      <trkpt lat="44.91839" lon="5.46183">
        <ele>1356.4</ele>
        <time>2021-10-09T09:13:45Z</time>
      </trkpt>
      <trkpt lat="44.91838" lon="5.46186">
        <ele>1356.4</ele>
        <time>2021-10-09T09:13:46Z</time>
      </trkpt>
      <trkpt lat="44.91837" lon="5.46189">
        <ele>1356.6</ele>
        <time>2021-10-09T09:13:47Z</time>
      </trkpt>
      <trkpt lat="44.91836" lon="5.46192">
        <ele>1356.6</ele>
        <time>2021-10-09T09:13:48Z</time>
      </trkpt>
      <trkpt lat="44.91834" lon="5.46196">
        <ele>1356.6</ele>
        <time>2021-10-09T09:13:49Z</time>
      </trkpt>
      <trkpt lat="44.91833" lon="5.462">
        <ele>1356.6</ele>
        <time>2021-10-09T09:13:50Z</time>
      </trkpt>
      <trkpt lat="44.91833" lon="5.46204">
        <ele>1356.8</ele>
        <time>2021-10-09T09:13:51Z</time>
      </trkpt>
      <trkpt lat="44.91832" lon="5.46208">
        <ele>1356.8</ele>
        <time>2021-10-09T09:13:52Z</time>
      </trkpt>
      <trkpt lat="44.91831" lon="5.46212">
        <ele>1356.8</ele>
        <time>2021-10-09T09:13:53Z</time>
      </trkpt>
      <trkpt lat="44.91831" lon="5.46215">
        <ele>1356.8</ele>
        <time>2021-10-09T09:13:54Z</time>
      </trkpt>
      <trkpt lat="44.91832" lon="5.46219">
        <ele>1356.6</ele>
        <time>2021-10-09T09:13:55Z</time>
      </trkpt>
      <trkpt lat="44.91832" lon="5.46223">
        <ele>1356.6</ele>
        <time>2021-10-09T09:13:56Z</time>
      </trkpt>
      <trkpt lat="44.91833" lon="5.46227">
        <ele>1356.6</ele>
        <time>2021-10-09T09:13:57Z</time>
      </trkpt>
      <trkpt lat="44.91832" lon="5.46231">
        <ele>1357.4</ele>
        <time>2021-10-09T09:13:58Z</time>
      </trkpt>
      <trkpt lat="44.91832" lon="5.46236">
        <ele>1357.4</ele>
        <time>2021-10-09T09:13:59Z</time>
      </trkpt>
      <trkpt lat="44.91831" lon="5.4624">
        <ele>1357.4</ele>
        <time>2021-10-09T09:14:00Z</time>
      </trkpt>
      <trkpt lat="44.9183" lon="5.46244">
        <ele>1357.4</ele>
        <time>2021-10-09T09:14:01Z</time>
      </trkpt>
      <trkpt lat="44.9183" lon="5.46249">
        <ele>1357.4</ele>
        <time>2021-10-09T09:14:02Z</time>
      </trkpt>
      <trkpt lat="44.91829" lon="5.46253">
        <ele>1358</ele>
        <time>2021-10-09T09:14:03Z</time>
      </trkpt>
      <trkpt lat="44.91829" lon="5.46257">
        <ele>1358</ele>
        <time>2021-10-09T09:14:04Z</time>
      </trkpt>
      <trkpt lat="44.91828" lon="5.46262">
        <ele>1358</ele>
        <time>2021-10-09T09:14:05Z</time>
      </trkpt>
      <trkpt lat="44.91827" lon="5.46266">
        <ele>1358</ele>
        <time>2021-10-09T09:14:06Z</time>
      </trkpt>
      <trkpt lat="44.91826" lon="5.46269">
        <ele>1358</ele>
        <time>2021-10-09T09:14:07Z</time>
      </trkpt>
      <trkpt lat="44.91825" lon="5.46274">
        <ele>1358</ele>
        <time>2021-10-09T09:14:08Z</time>
      </trkpt>
      <trkpt lat="44.91823" lon="5.46278">
        <ele>1358</ele>
        <time>2021-10-09T09:14:09Z</time>
      </trkpt>
      <trkpt lat="44.91822" lon="5.46281">
        <ele>1358</ele>
        <time>2021-10-09T09:14:10Z</time>
      </trkpt>
      <trkpt lat="44.9182" lon="5.46284">
        <ele>1358.6</ele>
        <time>2021-10-09T09:14:11Z</time>
      </trkpt>
      <trkpt lat="44.91818" lon="5.46287">
        <ele>1358.6</ele>
        <time>2021-10-09T09:14:12Z</time>
      </trkpt>
      <trkpt lat="44.91816" lon="5.4629">
        <ele>1358.6</ele>
        <time>2021-10-09T09:14:13Z</time>
      </trkpt>
      <trkpt lat="44.91814" lon="5.46293">
        <ele>1358.6</ele>
        <time>2021-10-09T09:14:14Z</time>
      </trkpt>
      <trkpt lat="44.91812" lon="5.46296">
        <ele>1358.8</ele>
        <time>2021-10-09T09:14:15Z</time>
      </trkpt>
      <trkpt lat="44.9181" lon="5.46299">
        <ele>1358.8</ele>
        <time>2021-10-09T09:14:16Z</time>
      </trkpt>
      <trkpt lat="44.91808" lon="5.46302">
        <ele>1358.8</ele>
        <time>2021-10-09T09:14:17Z</time>
      </trkpt>
      <trkpt lat="44.91807" lon="5.46305">
        <ele>1359.4</ele>
        <time>2021-10-09T09:14:18Z</time>
      </trkpt>
      <trkpt lat="44.91805" lon="5.46307">
        <ele>1359.6</ele>
        <time>2021-10-09T09:14:19Z</time>
      </trkpt>
      <trkpt lat="44.91803" lon="5.4631">
        <ele>1359.6</ele>
        <time>2021-10-09T09:14:20Z</time>
      </trkpt>
      <trkpt lat="44.91802" lon="5.46313">
        <ele>1359.6</ele>
        <time>2021-10-09T09:14:21Z</time>
      </trkpt>
      <trkpt lat="44.918" lon="5.46316">
        <ele>1359.6</ele>
        <time>2021-10-09T09:14:22Z</time>
      </trkpt>
      <trkpt lat="44.91799" lon="5.4632">
        <ele>1359.6</ele>
        <time>2021-10-09T09:14:23Z</time>
      </trkpt>
      <trkpt lat="44.91797" lon="5.46323">
        <ele>1359.6</ele>
        <time>2021-10-09T09:14:24Z</time>
      </trkpt>
      <trkpt lat="44.91795" lon="5.46327">
        <ele>1359.6</ele>
        <time>2021-10-09T09:14:25Z</time>
      </trkpt>
      <trkpt lat="44.91794" lon="5.46331">
        <ele>1359.6</ele>
        <time>2021-10-09T09:14:26Z</time>
      </trkpt>
      <trkpt lat="44.91792" lon="5.46334">
        <ele>1360</ele>
        <time>2021-10-09T09:14:27Z</time>
      </trkpt>
      <trkpt lat="44.91791" lon="5.46338">
        <ele>1360</ele>
        <time>2021-10-09T09:14:28Z</time>
      </trkpt>
      <trkpt lat="44.9179" lon="5.46342">
        <ele>1360</ele>
        <time>2021-10-09T09:14:29Z</time>
      </trkpt>
      <trkpt lat="44.91789" lon="5.46346">
        <ele>1361</ele>
        <time>2021-10-09T09:14:30Z</time>
      </trkpt>
      <trkpt lat="44.91788" lon="5.4635">
        <ele>1360.8</ele>
        <time>2021-10-09T09:14:31Z</time>
      </trkpt>
      <trkpt lat="44.91787" lon="5.46354">
        <ele>1360.8</ele>
        <time>2021-10-09T09:14:32Z</time>
      </trkpt>
      <trkpt lat="44.91786" lon="5.46358">
        <ele>1360.8</ele>
        <time>2021-10-09T09:14:33Z</time>
      </trkpt>
      <trkpt lat="44.91785" lon="5.46361">
        <ele>1361</ele>
        <time>2021-10-09T09:14:34Z</time>
      </trkpt>
      <trkpt lat="44.91784" lon="5.46364">
        <ele>1361.4</ele>
        <time>2021-10-09T09:14:35Z</time>
      </trkpt>
      <trkpt lat="44.91783" lon="5.46368">
        <ele>1361.4</ele>
        <time>2021-10-09T09:14:36Z</time>
      </trkpt>
      <trkpt lat="44.91782" lon="5.46371">
        <ele>1361.4</ele>
        <time>2021-10-09T09:14:37Z</time>
      </trkpt>
      <trkpt lat="44.91781" lon="5.46374">
        <ele>1361.6</ele>
        <time>2021-10-09T09:14:38Z</time>
      </trkpt>
      <trkpt lat="44.9178" lon="5.46377">
        <ele>1362.2</ele>
        <time>2021-10-09T09:14:39Z</time>
      </trkpt>
      <trkpt lat="44.91779" lon="5.46381">
        <ele>1362.2</ele>
        <time>2021-10-09T09:14:40Z</time>
      </trkpt>
      <trkpt lat="44.91778" lon="5.46384">
        <ele>1362.2</ele>
        <time>2021-10-09T09:14:41Z</time>
      </trkpt>
      <trkpt lat="44.91778" lon="5.46387">
        <ele>1362.2</ele>
        <time>2021-10-09T09:14:42Z</time>
      </trkpt>
      <trkpt lat="44.91777" lon="5.46391">
        <ele>1362</ele>
        <time>2021-10-09T09:14:43Z</time>
      </trkpt>
      <trkpt lat="44.91776" lon="5.46394">
        <ele>1362</ele>
        <time>2021-10-09T09:14:44Z</time>
      </trkpt>
      <trkpt lat="44.91775" lon="5.46397">
        <ele>1362</ele>
        <time>2021-10-09T09:14:45Z</time>
      </trkpt>
      <trkpt lat="44.91774" lon="5.46401">
        <ele>1362.6</ele>
        <time>2021-10-09T09:14:46Z</time>
      </trkpt>
      <trkpt lat="44.91773" lon="5.46404">
        <ele>1363</ele>
        <time>2021-10-09T09:14:47Z</time>
      </trkpt>
      <trkpt lat="44.91773" lon="5.46407">
        <ele>1363</ele>
        <time>2021-10-09T09:14:48Z</time>
      </trkpt>
      <trkpt lat="44.91771" lon="5.4641">
        <ele>1363</ele>
        <time>2021-10-09T09:14:49Z</time>
      </trkpt>
      <trkpt lat="44.9177" lon="5.46414">
        <ele>1363</ele>
        <time>2021-10-09T09:14:50Z</time>
      </trkpt>
      <trkpt lat="44.91769" lon="5.46418">
        <ele>1362.6</ele>
        <time>2021-10-09T09:14:51Z</time>
      </trkpt>
      <trkpt lat="44.91767" lon="5.46421">
        <ele>1362.6</ele>
        <time>2021-10-09T09:14:52Z</time>
      </trkpt>
      <trkpt lat="44.91766" lon="5.46424">
        <ele>1362.6</ele>
        <time>2021-10-09T09:14:53Z</time>
      </trkpt>
      <trkpt lat="44.91764" lon="5.46427">
        <ele>1363.6</ele>
        <time>2021-10-09T09:14:54Z</time>
      </trkpt>
      <trkpt lat="44.91762" lon="5.4643">
        <ele>1363.8</ele>
        <time>2021-10-09T09:14:55Z</time>
      </trkpt>
      <trkpt lat="44.91759" lon="5.46433">
        <ele>1363.8</ele>
        <time>2021-10-09T09:14:56Z</time>
      </trkpt>
      <trkpt lat="44.91758" lon="5.46435">
        <ele>1363.8</ele>
        <time>2021-10-09T09:14:57Z</time>
      </trkpt>
      <trkpt lat="44.91756" lon="5.46436">
        <ele>1363.8</ele>
        <time>2021-10-09T09:14:58Z</time>
      </trkpt>
      <trkpt lat="44.91754" lon="5.46439">
        <ele>1364.2</ele>
        <time>2021-10-09T09:14:59Z</time>
      </trkpt>
      <trkpt lat="44.91752" lon="5.4644">
        <ele>1364.2</ele>
        <time>2021-10-09T09:15:00Z</time>
      </trkpt>
      <trkpt lat="44.9175" lon="5.46442">
        <ele>1364.2</ele>
        <time>2021-10-09T09:15:01Z</time>
      </trkpt>
      <trkpt lat="44.91747" lon="5.46443">
        <ele>1365.2</ele>
        <time>2021-10-09T09:15:02Z</time>
      </trkpt>
      <trkpt lat="44.91745" lon="5.46444">
        <ele>1365.4</ele>
        <time>2021-10-09T09:15:03Z</time>
      </trkpt>
      <trkpt lat="44.91744" lon="5.46445">
        <ele>1365.4</ele>
        <time>2021-10-09T09:15:04Z</time>
      </trkpt>
      <trkpt lat="44.91742" lon="5.46446">
        <ele>1365.4</ele>
        <time>2021-10-09T09:15:05Z</time>
      </trkpt>
      <trkpt lat="44.91741" lon="5.46446">
        <ele>1365.8</ele>
        <time>2021-10-09T09:15:06Z</time>
      </trkpt>
      <trkpt lat="44.91739" lon="5.46446">
        <ele>1366.6</ele>
        <time>2021-10-09T09:15:07Z</time>
      </trkpt>
      <trkpt lat="44.91738" lon="5.46447">
        <ele>1366.6</ele>
        <time>2021-10-09T09:15:08Z</time>
      </trkpt>
      <trkpt lat="44.91735" lon="5.46448">
        <ele>1366.6</ele>
        <time>2021-10-09T09:15:09Z</time>
      </trkpt>
      <trkpt lat="44.91734" lon="5.4645">
        <ele>1366.8</ele>
        <time>2021-10-09T09:15:10Z</time>
      </trkpt>
      <trkpt lat="44.91733" lon="5.46452">
        <ele>1367.2</ele>
        <time>2021-10-09T09:15:11Z</time>
      </trkpt>
      <trkpt lat="44.91732" lon="5.46454">
        <ele>1367.2</ele>
        <time>2021-10-09T09:15:12Z</time>
      </trkpt>
      <trkpt lat="44.91731" lon="5.46455">
        <ele>1367.2</ele>
        <time>2021-10-09T09:15:13Z</time>
      </trkpt>
      <trkpt lat="44.91731" lon="5.46457">
        <ele>1367.4</ele>
        <time>2021-10-09T09:15:14Z</time>
      </trkpt>
      <trkpt lat="44.9173" lon="5.46459">
        <ele>1367.6</ele>
        <time>2021-10-09T09:15:15Z</time>
      </trkpt>
      <trkpt lat="44.9173" lon="5.46461">
        <ele>1367.6</ele>
        <time>2021-10-09T09:15:16Z</time>
      </trkpt>
      <trkpt lat="44.9173" lon="5.46463">
        <ele>1367.6</ele>
        <time>2021-10-09T09:15:17Z</time>
      </trkpt>
      <trkpt lat="44.91731" lon="5.46465">
        <ele>1368</ele>
        <time>2021-10-09T09:15:18Z</time>
      </trkpt>
      <trkpt lat="44.91729" lon="5.46466">
        <ele>1368</ele>
        <time>2021-10-09T09:15:19Z</time>
      </trkpt>
      <trkpt lat="44.91728" lon="5.46467">
        <ele>1368</ele>
        <time>2021-10-09T09:15:20Z</time>
      </trkpt>
      <trkpt lat="44.91727" lon="5.46468">
        <ele>1368</ele>
        <time>2021-10-09T09:15:21Z</time>
      </trkpt>
      <trkpt lat="44.91726" lon="5.4647">
        <ele>1368</ele>
        <time>2021-10-09T09:15:22Z</time>
      </trkpt>
      <trkpt lat="44.91725" lon="5.46472">
        <ele>1369</ele>
        <time>2021-10-09T09:15:23Z</time>
      </trkpt>
      <trkpt lat="44.91724" lon="5.46474">
        <ele>1369</ele>
        <time>2021-10-09T09:15:24Z</time>
      </trkpt>
      <trkpt lat="44.91724" lon="5.46476">
        <ele>1369</ele>
        <time>2021-10-09T09:15:25Z</time>
      </trkpt>
      <trkpt lat="44.91723" lon="5.46478">
        <ele>1369</ele>
        <time>2021-10-09T09:15:26Z</time>
      </trkpt>
      <trkpt lat="44.91723" lon="5.4648">
        <ele>1369.6</ele>
        <time>2021-10-09T09:15:27Z</time>
      </trkpt>
      <trkpt lat="44.91722" lon="5.46482">
        <ele>1369.6</ele>
        <time>2021-10-09T09:15:28Z</time>
      </trkpt>
      <trkpt lat="44.91722" lon="5.46484">
        <ele>1369.6</ele>
        <time>2021-10-09T09:15:29Z</time>
      </trkpt>
      <trkpt lat="44.91722" lon="5.46486">
        <ele>1369.6</ele>
        <time>2021-10-09T09:15:30Z</time>
      </trkpt>
      <trkpt lat="44.91722" lon="5.46489">
        <ele>1370.2</ele>
        <time>2021-10-09T09:15:31Z</time>
      </trkpt>
      <trkpt lat="44.91722" lon="5.46491">
        <ele>1370.2</ele>
        <time>2021-10-09T09:15:32Z</time>
      </trkpt>
      <trkpt lat="44.91722" lon="5.46492">
        <ele>1370.2</ele>
        <time>2021-10-09T09:15:33Z</time>
      </trkpt>
      <trkpt lat="44.91722" lon="5.46494">
        <ele>1370.8</ele>
        <time>2021-10-09T09:15:34Z</time>
      </trkpt>
      <trkpt lat="44.91723" lon="5.46496">
        <ele>1371</ele>
        <time>2021-10-09T09:15:35Z</time>
      </trkpt>
      <trkpt lat="44.91724" lon="5.46497">
        <ele>1371</ele>
        <time>2021-10-09T09:15:36Z</time>
      </trkpt>
      <trkpt lat="44.91724" lon="5.46498">
        <ele>1371</ele>
        <time>2021-10-09T09:15:37Z</time>
      </trkpt>
      <trkpt lat="44.91725" lon="5.46499">
        <ele>1371</ele>
        <time>2021-10-09T09:15:38Z</time>
      </trkpt>
      <trkpt lat="44.91726" lon="5.46501">
        <ele>1371.2</ele>
        <time>2021-10-09T09:15:39Z</time>
      </trkpt>
      <trkpt lat="44.91728" lon="5.46502">
        <ele>1371.2</ele>
        <time>2021-10-09T09:15:40Z</time>
      </trkpt>
      <trkpt lat="44.91729" lon="5.46502">
        <ele>1371.2</ele>
        <time>2021-10-09T09:15:41Z</time>
      </trkpt>
      <trkpt lat="44.91731" lon="5.46502">
        <ele>1371.6</ele>
        <time>2021-10-09T09:15:42Z</time>
      </trkpt>
      <trkpt lat="44.91732" lon="5.46503">
        <ele>1372</ele>
        <time>2021-10-09T09:15:43Z</time>
      </trkpt>
      <trkpt lat="44.91733" lon="5.46503">
        <ele>1372</ele>
        <time>2021-10-09T09:15:44Z</time>
      </trkpt>
      <trkpt lat="44.91735" lon="5.46503">
        <ele>1372</ele>
        <time>2021-10-09T09:15:45Z</time>
      </trkpt>
      <trkpt lat="44.91736" lon="5.46503">
        <ele>1372</ele>
        <time>2021-10-09T09:15:46Z</time>
      </trkpt>
      <trkpt lat="44.91737" lon="5.46503">
        <ele>1372.8</ele>
        <time>2021-10-09T09:15:47Z</time>
      </trkpt>
      <trkpt lat="44.91739" lon="5.46504">
        <ele>1372.8</ele>
        <time>2021-10-09T09:15:48Z</time>
      </trkpt>
      <trkpt lat="44.9174" lon="5.46504">
        <ele>1372.8</ele>
        <time>2021-10-09T09:15:49Z</time>
      </trkpt>
      <trkpt lat="44.91741" lon="5.46504">
        <ele>1372.8</ele>
        <time>2021-10-09T09:15:50Z</time>
      </trkpt>
      <trkpt lat="44.91742" lon="5.46504">
        <ele>1373.2</ele>
        <time>2021-10-09T09:15:51Z</time>
      </trkpt>
      <trkpt lat="44.91743" lon="5.46503">
        <ele>1373.2</ele>
        <time>2021-10-09T09:15:52Z</time>
      </trkpt>
      <trkpt lat="44.91744" lon="5.46503">
        <ele>1373.2</ele>
        <time>2021-10-09T09:15:53Z</time>
      </trkpt>
      <trkpt lat="44.91745" lon="5.46503">
        <ele>1373.2</ele>
        <time>2021-10-09T09:15:54Z</time>
      </trkpt>
      <trkpt lat="44.91746" lon="5.46502">
        <ele>1374</ele>
        <time>2021-10-09T09:15:55Z</time>
      </trkpt>
      <trkpt lat="44.91747" lon="5.46501">
        <ele>1374</ele>
        <time>2021-10-09T09:15:56Z</time>
      </trkpt>
      <trkpt lat="44.91749" lon="5.46501">
        <ele>1374</ele>
        <time>2021-10-09T09:15:57Z</time>
      </trkpt>
      <trkpt lat="44.9175" lon="5.465">
        <ele>1374</ele>
        <time>2021-10-09T09:15:58Z</time>
      </trkpt>
      <trkpt lat="44.91751" lon="5.465">
        <ele>1373.6</ele>
        <time>2021-10-09T09:15:59Z</time>
      </trkpt>
      <trkpt lat="44.91753" lon="5.465">
        <ele>1373.6</ele>
        <time>2021-10-09T09:16:00Z</time>
      </trkpt>
      <trkpt lat="44.91754" lon="5.46499">
        <ele>1373.6</ele>
        <time>2021-10-09T09:16:01Z</time>
      </trkpt>
      <trkpt lat="44.91755" lon="5.46498">
        <ele>1374.4</ele>
        <time>2021-10-09T09:16:02Z</time>
      </trkpt>
      <trkpt lat="44.91756" lon="5.46498">
        <ele>1374.4</ele>
        <time>2021-10-09T09:16:03Z</time>
      </trkpt>
      <trkpt lat="44.91757" lon="5.46497">
        <ele>1374.4</ele>
        <time>2021-10-09T09:16:04Z</time>
      </trkpt>
      <trkpt lat="44.91758" lon="5.46497">
        <ele>1374.4</ele>
        <time>2021-10-09T09:16:05Z</time>
      </trkpt>
      <trkpt lat="44.91759" lon="5.46497">
        <ele>1374.6</ele>
        <time>2021-10-09T09:16:06Z</time>
      </trkpt>
      <trkpt lat="44.91761" lon="5.46497">
        <ele>1374.6</ele>
        <time>2021-10-09T09:16:07Z</time>
      </trkpt>
      <trkpt lat="44.91762" lon="5.46497">
        <ele>1374.6</ele>
        <time>2021-10-09T09:16:08Z</time>
      </trkpt>
      <trkpt lat="44.91764" lon="5.46496">
        <ele>1374.6</ele>
        <time>2021-10-09T09:16:09Z</time>
      </trkpt>
      <trkpt lat="44.91765" lon="5.46496">
        <ele>1374.8</ele>
        <time>2021-10-09T09:16:10Z</time>
      </trkpt>
      <trkpt lat="44.91766" lon="5.46495">
        <ele>1374.6</ele>
        <time>2021-10-09T09:16:11Z</time>
      </trkpt>
      <trkpt lat="44.91768" lon="5.46495">
        <ele>1374.6</ele>
        <time>2021-10-09T09:16:12Z</time>
      </trkpt>
      <trkpt lat="44.91769" lon="5.46494">
        <ele>1374.6</ele>
        <time>2021-10-09T09:16:13Z</time>
      </trkpt>
      <trkpt lat="44.91771" lon="5.46494">
        <ele>1373.8</ele>
        <time>2021-10-09T09:16:14Z</time>
      </trkpt>
      <trkpt lat="44.91773" lon="5.46494">
        <ele>1373.8</ele>
        <time>2021-10-09T09:16:15Z</time>
      </trkpt>
      <trkpt lat="44.91775" lon="5.46493">
        <ele>1373.8</ele>
        <time>2021-10-09T09:16:16Z</time>
      </trkpt>
      <trkpt lat="44.91777" lon="5.4649">
        <ele>1373.8</ele>
        <time>2021-10-09T09:16:17Z</time>
      </trkpt>
      <trkpt lat="44.91779" lon="5.46488">
        <ele>1372.8</ele>
        <time>2021-10-09T09:16:18Z</time>
      </trkpt>
      <trkpt lat="44.91782" lon="5.46485">
        <ele>1371.8</ele>
        <time>2021-10-09T09:16:19Z</time>
      </trkpt>
      <trkpt lat="44.91784" lon="5.46481">
        <ele>1371.8</ele>
        <time>2021-10-09T09:16:20Z</time>
      </trkpt>
      <trkpt lat="44.91786" lon="5.46476">
        <ele>1371.8</ele>
        <time>2021-10-09T09:16:21Z</time>
      </trkpt>
      <trkpt lat="44.91789" lon="5.46471">
        <ele>1371.8</ele>
        <time>2021-10-09T09:16:22Z</time>
      </trkpt>
      <trkpt lat="44.91792" lon="5.46465">
        <ele>1369.6</ele>
        <time>2021-10-09T09:16:23Z</time>
      </trkpt>
      <trkpt lat="44.91794" lon="5.46458">
        <ele>1369.6</ele>
        <time>2021-10-09T09:16:24Z</time>
      </trkpt>
      <trkpt lat="44.91797" lon="5.46452">
        <ele>1369.6</ele>
        <time>2021-10-09T09:16:25Z</time>
      </trkpt>
      <trkpt lat="44.918" lon="5.46445">
        <ele>1369.6</ele>
        <time>2021-10-09T09:16:26Z</time>
      </trkpt>
      <trkpt lat="44.91802" lon="5.46438">
        <ele>1369.8</ele>
        <time>2021-10-09T09:16:27Z</time>
      </trkpt>
      <trkpt lat="44.91805" lon="5.46432">
        <ele>1369.8</ele>
        <time>2021-10-09T09:16:28Z</time>
      </trkpt>
      <trkpt lat="44.91808" lon="5.46427">
        <ele>1369.8</ele>
        <time>2021-10-09T09:16:29Z</time>
      </trkpt>
      <trkpt lat="44.91811" lon="5.46421">
        <ele>1369.8</ele>
        <time>2021-10-09T09:16:30Z</time>
      </trkpt>
      <trkpt lat="44.91814" lon="5.46416">
        <ele>1370</ele>
        <time>2021-10-09T09:16:31Z</time>
      </trkpt>
      <trkpt lat="44.91817" lon="5.46411">
        <ele>1370</ele>
        <time>2021-10-09T09:16:32Z</time>
      </trkpt>
      <trkpt lat="44.91821" lon="5.46407">
        <ele>1370</ele>
        <time>2021-10-09T09:16:33Z</time>
      </trkpt>
      <trkpt lat="44.91824" lon="5.46404">
        <ele>1370.4</ele>
        <time>2021-10-09T09:16:34Z</time>
      </trkpt>
      <trkpt lat="44.91828" lon="5.46402">
        <ele>1369.6</ele>
        <time>2021-10-09T09:16:35Z</time>
      </trkpt>
      <trkpt lat="44.91832" lon="5.464">
        <ele>1369.6</ele>
        <time>2021-10-09T09:16:36Z</time>
      </trkpt>
      <trkpt lat="44.91836" lon="5.46398">
        <ele>1369.6</ele>
        <time>2021-10-09T09:16:37Z</time>
      </trkpt>
      <trkpt lat="44.91841" lon="5.46397">
        <ele>1368.6</ele>
        <time>2021-10-09T09:16:38Z</time>
      </trkpt>
      <trkpt lat="44.91845" lon="5.46394">
        <ele>1366.8</ele>
        <time>2021-10-09T09:16:39Z</time>
      </trkpt>
      <trkpt lat="44.9185" lon="5.4639">
        <ele>1366.8</ele>
        <time>2021-10-09T09:16:40Z</time>
      </trkpt>
      <trkpt lat="44.91855" lon="5.46387">
        <ele>1366.8</ele>
        <time>2021-10-09T09:16:41Z</time>
      </trkpt>
      <trkpt lat="44.91861" lon="5.46383">
        <ele>1366.8</ele>
        <time>2021-10-09T09:16:42Z</time>
      </trkpt>
      <trkpt lat="44.91867" lon="5.4638">
        <ele>1366.6</ele>
        <time>2021-10-09T09:16:43Z</time>
      </trkpt>
      <trkpt lat="44.91873" lon="5.46376">
        <ele>1366.6</ele>
        <time>2021-10-09T09:16:44Z</time>
      </trkpt>
      <trkpt lat="44.91878" lon="5.46372">
        <ele>1366.6</ele>
        <time>2021-10-09T09:16:45Z</time>
      </trkpt>
      <trkpt lat="44.91883" lon="5.46369">
        <ele>1366.6</ele>
        <time>2021-10-09T09:16:46Z</time>
      </trkpt>
      <trkpt lat="44.91887" lon="5.46367">
        <ele>1369.6</ele>
        <time>2021-10-09T09:16:47Z</time>
      </trkpt>
      <trkpt lat="44.91891" lon="5.46364">
        <ele>1369.6</ele>
        <time>2021-10-09T09:16:48Z</time>
      </trkpt>
      <trkpt lat="44.91894" lon="5.46359">
        <ele>1369.6</ele>
        <time>2021-10-09T09:16:49Z</time>
      </trkpt>
      <trkpt lat="44.91897" lon="5.46355">
        <ele>1370.6</ele>
        <time>2021-10-09T09:16:50Z</time>
      </trkpt>
      <trkpt lat="44.919" lon="5.46352">
        <ele>1370.8</ele>
        <time>2021-10-09T09:16:51Z</time>
      </trkpt>
      <trkpt lat="44.91904" lon="5.46349">
        <ele>1370.8</ele>
        <time>2021-10-09T09:16:52Z</time>
      </trkpt>
      <trkpt lat="44.91907" lon="5.46346">
        <ele>1370.8</ele>
        <time>2021-10-09T09:16:53Z</time>
      </trkpt>
      <trkpt lat="44.9191" lon="5.46343">
        <ele>1371.4</ele>
        <time>2021-10-09T09:16:54Z</time>
      </trkpt>
      <trkpt lat="44.91913" lon="5.4634">
        <ele>1371.6</ele>
        <time>2021-10-09T09:16:55Z</time>
      </trkpt>
      <trkpt lat="44.91916" lon="5.46338">
        <ele>1371.6</ele>
        <time>2021-10-09T09:16:56Z</time>
      </trkpt>
      <trkpt lat="44.91918" lon="5.46336">
        <ele>1371.6</ele>
        <time>2021-10-09T09:16:57Z</time>
      </trkpt>
      <trkpt lat="44.91921" lon="5.46333">
        <ele>1371.6</ele>
        <time>2021-10-09T09:16:58Z</time>
      </trkpt>
      <trkpt lat="44.91924" lon="5.46331">
        <ele>1370.8</ele>
        <time>2021-10-09T09:16:59Z</time>
      </trkpt>
      <trkpt lat="44.91928" lon="5.4633">
        <ele>1370.8</ele>
        <time>2021-10-09T09:17:00Z</time>
      </trkpt>
      <trkpt lat="44.91932" lon="5.4633">
        <ele>1370.8</ele>
        <time>2021-10-09T09:17:01Z</time>
      </trkpt>
      <trkpt lat="44.91936" lon="5.46331">
        <ele>1369.8</ele>
        <time>2021-10-09T09:17:02Z</time>
      </trkpt>
      <trkpt lat="44.9194" lon="5.4633">
        <ele>1369.4</ele>
        <time>2021-10-09T09:17:03Z</time>
      </trkpt>
      <trkpt lat="44.91944" lon="5.46327">
        <ele>1369.4</ele>
        <time>2021-10-09T09:17:04Z</time>
      </trkpt>
      <trkpt lat="44.91949" lon="5.46326">
        <ele>1369.4</ele>
        <time>2021-10-09T09:17:05Z</time>
      </trkpt>
      <trkpt lat="44.91953" lon="5.46324">
        <ele>1369.8</ele>
        <time>2021-10-09T09:17:06Z</time>
      </trkpt>
      <trkpt lat="44.91958" lon="5.46322">
        <ele>1369.6</ele>
        <time>2021-10-09T09:17:07Z</time>
      </trkpt>
      <trkpt lat="44.91962" lon="5.46319">
        <ele>1369.6</ele>
        <time>2021-10-09T09:17:08Z</time>
      </trkpt>
      <trkpt lat="44.91966" lon="5.46317">
        <ele>1369.6</ele>
        <time>2021-10-09T09:17:09Z</time>
      </trkpt>
      <trkpt lat="44.9197" lon="5.46314">
        <ele>1369.2</ele>
        <time>2021-10-09T09:17:10Z</time>
      </trkpt>
      <trkpt lat="44.91973" lon="5.46312">
        <ele>1370</ele>
        <time>2021-10-09T09:17:11Z</time>
      </trkpt>
      <trkpt lat="44.91977" lon="5.46309">
        <ele>1370</ele>
        <time>2021-10-09T09:17:12Z</time>
      </trkpt>
      <trkpt lat="44.91981" lon="5.46307">
        <ele>1370</ele>
        <time>2021-10-09T09:17:13Z</time>
      </trkpt>
      <trkpt lat="44.91985" lon="5.46303">
        <ele>1369</ele>
        <time>2021-10-09T09:17:14Z</time>
      </trkpt>
      <trkpt lat="44.9199" lon="5.463">
        <ele>1368</ele>
        <time>2021-10-09T09:17:15Z</time>
      </trkpt>
      <trkpt lat="44.91994" lon="5.46297">
        <ele>1368</ele>
        <time>2021-10-09T09:17:16Z</time>
      </trkpt>
      <trkpt lat="44.91999" lon="5.46295">
        <ele>1368</ele>
        <time>2021-10-09T09:17:17Z</time>
      </trkpt>
      <trkpt lat="44.92003" lon="5.46294">
        <ele>1368</ele>
        <time>2021-10-09T09:17:18Z</time>
      </trkpt>
      <trkpt lat="44.92007" lon="5.46295">
        <ele>1367.6</ele>
        <time>2021-10-09T09:17:19Z</time>
      </trkpt>
      <trkpt lat="44.92011" lon="5.46298">
        <ele>1367.6</ele>
        <time>2021-10-09T09:17:20Z</time>
      </trkpt>
      <trkpt lat="44.92014" lon="5.46303">
        <ele>1367.6</ele>
        <time>2021-10-09T09:17:21Z</time>
      </trkpt>
      <trkpt lat="44.92016" lon="5.46307">
        <ele>1367.6</ele>
        <time>2021-10-09T09:17:22Z</time>
      </trkpt>
      <trkpt lat="44.92019" lon="5.46312">
        <ele>1367.6</ele>
        <time>2021-10-09T09:17:23Z</time>
      </trkpt>
      <trkpt lat="44.92022" lon="5.46317">
        <ele>1367.6</ele>
        <time>2021-10-09T09:17:24Z</time>
      </trkpt>
      <trkpt lat="44.92025" lon="5.4632">
        <ele>1367.6</ele>
        <time>2021-10-09T09:17:25Z</time>
      </trkpt>
      <trkpt lat="44.92028" lon="5.46323">
        <ele>1367.6</ele>
        <time>2021-10-09T09:17:26Z</time>
      </trkpt>
      <trkpt lat="44.92031" lon="5.46325">
        <ele>1367.2</ele>
        <time>2021-10-09T09:17:27Z</time>
      </trkpt>
      <trkpt lat="44.92034" lon="5.46327">
        <ele>1367.2</ele>
        <time>2021-10-09T09:17:28Z</time>
      </trkpt>
      <trkpt lat="44.92039" lon="5.46325">
        <ele>1367.2</ele>
        <time>2021-10-09T09:17:29Z</time>
      </trkpt>
      <trkpt lat="44.92045" lon="5.46323">
        <ele>1367.8</ele>
        <time>2021-10-09T09:17:30Z</time>
      </trkpt>
      <trkpt lat="44.9205" lon="5.4632">
        <ele>1367.6</ele>
        <time>2021-10-09T09:17:31Z</time>
      </trkpt>
      <trkpt lat="44.92053" lon="5.46317">
        <ele>1367.6</ele>
        <time>2021-10-09T09:17:32Z</time>
      </trkpt>
      <trkpt lat="44.92056" lon="5.46313">
        <ele>1367.6</ele>
        <time>2021-10-09T09:17:33Z</time>
      </trkpt>
      <trkpt lat="44.9206" lon="5.46309">
        <ele>1367.6</ele>
        <time>2021-10-09T09:17:34Z</time>
      </trkpt>
      <trkpt lat="44.92063" lon="5.46305">
        <ele>1367.6</ele>
        <time>2021-10-09T09:17:35Z</time>
      </trkpt>
      <trkpt lat="44.92066" lon="5.463">
        <ele>1367.6</ele>
        <time>2021-10-09T09:17:36Z</time>
      </trkpt>
      <trkpt lat="44.92069" lon="5.46295">
        <ele>1367.6</ele>
        <time>2021-10-09T09:17:37Z</time>
      </trkpt>
      <trkpt lat="44.92072" lon="5.4629">
        <ele>1368.2</ele>
        <time>2021-10-09T09:17:38Z</time>
      </trkpt>
      <trkpt lat="44.92074" lon="5.46285">
        <ele>1368.6</ele>
        <time>2021-10-09T09:17:39Z</time>
      </trkpt>
      <trkpt lat="44.92077" lon="5.4628">
        <ele>1368.6</ele>
        <time>2021-10-09T09:17:40Z</time>
      </trkpt>
      <trkpt lat="44.9208" lon="5.46274">
        <ele>1368.6</ele>
        <time>2021-10-09T09:17:41Z</time>
      </trkpt>
      <trkpt lat="44.92083" lon="5.46269">
        <ele>1368.6</ele>
        <time>2021-10-09T09:17:42Z</time>
      </trkpt>
      <trkpt lat="44.92085" lon="5.46264">
        <ele>1368.4</ele>
        <time>2021-10-09T09:17:43Z</time>
      </trkpt>
      <trkpt lat="44.92087" lon="5.46259">
        <ele>1368.4</ele>
        <time>2021-10-09T09:17:44Z</time>
      </trkpt>
      <trkpt lat="44.92089" lon="5.46254">
        <ele>1368.4</ele>
        <time>2021-10-09T09:17:45Z</time>
      </trkpt>
      <trkpt lat="44.92091" lon="5.46249">
        <ele>1369.2</ele>
        <time>2021-10-09T09:17:46Z</time>
      </trkpt>
      <trkpt lat="44.92093" lon="5.46243">
        <ele>1369</ele>
        <time>2021-10-09T09:17:47Z</time>
      </trkpt>
      <trkpt lat="44.92095" lon="5.46238">
        <ele>1369</ele>
        <time>2021-10-09T09:17:48Z</time>
      </trkpt>
      <trkpt lat="44.92096" lon="5.46231">
        <ele>1369</ele>
        <time>2021-10-09T09:17:49Z</time>
      </trkpt>
      <trkpt lat="44.92098" lon="5.46225">
        <ele>1369.6</ele>
        <time>2021-10-09T09:17:50Z</time>
      </trkpt>
      <trkpt lat="44.921" lon="5.46219">
        <ele>1368.8</ele>
        <time>2021-10-09T09:17:51Z</time>
      </trkpt>
      <trkpt lat="44.92102" lon="5.46213">
        <ele>1368.8</ele>
        <time>2021-10-09T09:17:52Z</time>
      </trkpt>
      <trkpt lat="44.92103" lon="5.46206">
        <ele>1368.8</ele>
        <time>2021-10-09T09:17:53Z</time>
      </trkpt>
      <trkpt lat="44.92105" lon="5.46201">
        <ele>1368.8</ele>
        <time>2021-10-09T09:17:54Z</time>
      </trkpt>
      <trkpt lat="44.92107" lon="5.46195">
        <ele>1369.4</ele>
        <time>2021-10-09T09:17:55Z</time>
      </trkpt>
      <trkpt lat="44.92109" lon="5.4619">
        <ele>1369.4</ele>
        <time>2021-10-09T09:17:56Z</time>
      </trkpt>
      <trkpt lat="44.9211" lon="5.46185">
        <ele>1369.4</ele>
        <time>2021-10-09T09:17:57Z</time>
      </trkpt>
      <trkpt lat="44.92112" lon="5.4618">
        <ele>1369.4</ele>
        <time>2021-10-09T09:17:58Z</time>
      </trkpt>
      <trkpt lat="44.92114" lon="5.46175">
        <ele>1369.4</ele>
        <time>2021-10-09T09:17:59Z</time>
      </trkpt>
      <trkpt lat="44.92116" lon="5.46171">
        <ele>1369.4</ele>
        <time>2021-10-09T09:18:00Z</time>
      </trkpt>
      <trkpt lat="44.92119" lon="5.46167">
        <ele>1369.4</ele>
        <time>2021-10-09T09:18:01Z</time>
      </trkpt>
      <trkpt lat="44.92121" lon="5.46162">
        <ele>1369.4</ele>
        <time>2021-10-09T09:18:02Z</time>
      </trkpt>
      <trkpt lat="44.92122" lon="5.46157">
        <ele>1369.2</ele>
        <time>2021-10-09T09:18:03Z</time>
      </trkpt>
      <trkpt lat="44.92123" lon="5.46151">
        <ele>1369.2</ele>
        <time>2021-10-09T09:18:04Z</time>
      </trkpt>
      <trkpt lat="44.92124" lon="5.46145">
        <ele>1369.2</ele>
        <time>2021-10-09T09:18:05Z</time>
      </trkpt>
      <trkpt lat="44.92126" lon="5.46139">
        <ele>1369.6</ele>
        <time>2021-10-09T09:18:06Z</time>
      </trkpt>
      <trkpt lat="44.92128" lon="5.46134">
        <ele>1369.8</ele>
        <time>2021-10-09T09:18:07Z</time>
      </trkpt>
      <trkpt lat="44.9213" lon="5.46129">
        <ele>1369.8</ele>
        <time>2021-10-09T09:18:08Z</time>
      </trkpt>
      <trkpt lat="44.92134" lon="5.46126">
        <ele>1369.8</ele>
        <time>2021-10-09T09:18:09Z</time>
      </trkpt>
      <trkpt lat="44.92137" lon="5.46125">
        <ele>1370.6</ele>
        <time>2021-10-09T09:18:10Z</time>
      </trkpt>
      <trkpt lat="44.9214" lon="5.46125">
        <ele>1371</ele>
        <time>2021-10-09T09:18:11Z</time>
      </trkpt>
      <trkpt lat="44.92143" lon="5.46128">
        <ele>1371</ele>
        <time>2021-10-09T09:18:12Z</time>
      </trkpt>
      <trkpt lat="44.92146" lon="5.4613">
        <ele>1371</ele>
        <time>2021-10-09T09:18:13Z</time>
      </trkpt>
      <trkpt lat="44.92148" lon="5.46131">
        <ele>1372</ele>
        <time>2021-10-09T09:18:14Z</time>
      </trkpt>
      <trkpt lat="44.9215" lon="5.46133">
        <ele>1372.4</ele>
        <time>2021-10-09T09:18:15Z</time>
      </trkpt>
      <trkpt lat="44.92152" lon="5.46134">
        <ele>1372.4</ele>
        <time>2021-10-09T09:18:16Z</time>
      </trkpt>
      <trkpt lat="44.92154" lon="5.46134">
        <ele>1372.4</ele>
        <time>2021-10-09T09:18:17Z</time>
      </trkpt>
      <trkpt lat="44.92156" lon="5.46134">
        <ele>1372.4</ele>
        <time>2021-10-09T09:18:18Z</time>
      </trkpt>
      <trkpt lat="44.92159" lon="5.46134">
        <ele>1372.4</ele>
        <time>2021-10-09T09:18:19Z</time>
      </trkpt>
      <trkpt lat="44.92162" lon="5.46134">
        <ele>1372.4</ele>
        <time>2021-10-09T09:18:20Z</time>
      </trkpt>
      <trkpt lat="44.92166" lon="5.46133">
        <ele>1372.4</ele>
        <time>2021-10-09T09:18:21Z</time>
      </trkpt>
      <trkpt lat="44.92169" lon="5.46131">
        <ele>1373</ele>
        <time>2021-10-09T09:18:22Z</time>
      </trkpt>
      <trkpt lat="44.92173" lon="5.4613">
        <ele>1373.2</ele>
        <time>2021-10-09T09:18:23Z</time>
      </trkpt>
      <trkpt lat="44.92177" lon="5.46129">
        <ele>1373.2</ele>
        <time>2021-10-09T09:18:24Z</time>
      </trkpt>
      <trkpt lat="44.9218" lon="5.46127">
        <ele>1373.2</ele>
        <time>2021-10-09T09:18:25Z</time>
      </trkpt>
      <trkpt lat="44.92183" lon="5.46126">
        <ele>1373.2</ele>
        <time>2021-10-09T09:18:26Z</time>
      </trkpt>
      <trkpt lat="44.92186" lon="5.46125">
        <ele>1373.6</ele>
        <time>2021-10-09T09:18:27Z</time>
      </trkpt>
      <trkpt lat="44.92189" lon="5.46124">
        <ele>1373.6</ele>
        <time>2021-10-09T09:18:28Z</time>
      </trkpt>
      <trkpt lat="44.92191" lon="5.46123">
        <ele>1373.6</ele>
        <time>2021-10-09T09:18:29Z</time>
      </trkpt>
      <trkpt lat="44.92194" lon="5.46121">
        <ele>1372.6</ele>
        <time>2021-10-09T09:18:30Z</time>
      </trkpt>
      <trkpt lat="44.92196" lon="5.46119">
        <ele>1372.6</ele>
        <time>2021-10-09T09:18:31Z</time>
      </trkpt>
      <trkpt lat="44.92199" lon="5.46117">
        <ele>1372.6</ele>
        <time>2021-10-09T09:18:32Z</time>
      </trkpt>
      <trkpt lat="44.92202" lon="5.46115">
        <ele>1372.6</ele>
        <time>2021-10-09T09:18:33Z</time>
      </trkpt>
      <trkpt lat="44.92205" lon="5.46114">
        <ele>1371.6</ele>
        <time>2021-10-09T09:18:34Z</time>
      </trkpt>
      <trkpt lat="44.92208" lon="5.46111">
        <ele>1370.8</ele>
        <time>2021-10-09T09:18:35Z</time>
      </trkpt>
      <trkpt lat="44.92212" lon="5.46109">
        <ele>1370.8</ele>
        <time>2021-10-09T09:18:36Z</time>
      </trkpt>
      <trkpt lat="44.92216" lon="5.46108">
        <ele>1370.8</ele>
        <time>2021-10-09T09:18:37Z</time>
      </trkpt>
      <trkpt lat="44.9222" lon="5.46105">
        <ele>1370.2</ele>
        <time>2021-10-09T09:18:38Z</time>
      </trkpt>
      <trkpt lat="44.92224" lon="5.46102">
        <ele>1371</ele>
        <time>2021-10-09T09:18:39Z</time>
      </trkpt>
      <trkpt lat="44.92227" lon="5.46098">
        <ele>1371</ele>
        <time>2021-10-09T09:18:40Z</time>
      </trkpt>
      <trkpt lat="44.92231" lon="5.46096">
        <ele>1371</ele>
        <time>2021-10-09T09:18:41Z</time>
      </trkpt>
      <trkpt lat="44.92236" lon="5.46093">
        <ele>1371</ele>
        <time>2021-10-09T09:18:42Z</time>
      </trkpt>
      <trkpt lat="44.9224" lon="5.46091">
        <ele>1371</ele>
        <time>2021-10-09T09:18:43Z</time>
      </trkpt>
      <trkpt lat="44.92243" lon="5.46087">
        <ele>1371</ele>
        <time>2021-10-09T09:18:44Z</time>
      </trkpt>
      <trkpt lat="44.92247" lon="5.46084">
        <ele>1371</ele>
        <time>2021-10-09T09:18:45Z</time>
      </trkpt>
      <trkpt lat="44.92251" lon="5.46082">
        <ele>1370</ele>
        <time>2021-10-09T09:18:46Z</time>
      </trkpt>
      <trkpt lat="44.92255" lon="5.4608">
        <ele>1370.4</ele>
        <time>2021-10-09T09:18:47Z</time>
      </trkpt>
      <trkpt lat="44.9226" lon="5.46077">
        <ele>1370.4</ele>
        <time>2021-10-09T09:18:48Z</time>
      </trkpt>
      <trkpt lat="44.92264" lon="5.46076">
        <ele>1370.4</ele>
        <time>2021-10-09T09:18:49Z</time>
      </trkpt>
      <trkpt lat="44.92269" lon="5.46074">
        <ele>1370.2</ele>
        <time>2021-10-09T09:18:50Z</time>
      </trkpt>
      <trkpt lat="44.92274" lon="5.46073">
        <ele>1370.2</ele>
        <time>2021-10-09T09:18:51Z</time>
      </trkpt>
      <trkpt lat="44.92278" lon="5.46073">
        <ele>1370.2</ele>
        <time>2021-10-09T09:18:52Z</time>
      </trkpt>
      <trkpt lat="44.92283" lon="5.46074">
        <ele>1370.2</ele>
        <time>2021-10-09T09:18:53Z</time>
      </trkpt>
      <trkpt lat="44.92286" lon="5.46075">
        <ele>1371.2</ele>
        <time>2021-10-09T09:18:54Z</time>
      </trkpt>
      <trkpt lat="44.9229" lon="5.46076">
        <ele>1371.6</ele>
        <time>2021-10-09T09:18:55Z</time>
      </trkpt>
      <trkpt lat="44.92294" lon="5.46077">
        <ele>1371.6</ele>
        <time>2021-10-09T09:18:56Z</time>
      </trkpt>
      <trkpt lat="44.92297" lon="5.46079">
        <ele>1371.6</ele>
        <time>2021-10-09T09:18:57Z</time>
      </trkpt>
      <trkpt lat="44.92301" lon="5.46081">
        <ele>1372.4</ele>
        <time>2021-10-09T09:18:58Z</time>
      </trkpt>
      <trkpt lat="44.92304" lon="5.46083">
        <ele>1372.8</ele>
        <time>2021-10-09T09:18:59Z</time>
      </trkpt>
      <trkpt lat="44.92307" lon="5.46086">
        <ele>1372.8</ele>
        <time>2021-10-09T09:19:00Z</time>
      </trkpt>
      <trkpt lat="44.9231" lon="5.46089">
        <ele>1372.8</ele>
        <time>2021-10-09T09:19:01Z</time>
      </trkpt>
      <trkpt lat="44.92312" lon="5.46092">
        <ele>1372.8</ele>
        <time>2021-10-09T09:19:02Z</time>
      </trkpt>
      <trkpt lat="44.92314" lon="5.46095">
        <ele>1373.4</ele>
        <time>2021-10-09T09:19:03Z</time>
      </trkpt>
      <trkpt lat="44.92316" lon="5.46099">
        <ele>1373.4</ele>
        <time>2021-10-09T09:19:04Z</time>
      </trkpt>
      <trkpt lat="44.92318" lon="5.46101">
        <ele>1373.4</ele>
        <time>2021-10-09T09:19:05Z</time>
      </trkpt>
      <trkpt lat="44.9232" lon="5.46104">
        <ele>1373.4</ele>
        <time>2021-10-09T09:19:06Z</time>
      </trkpt>
      <trkpt lat="44.92323" lon="5.46105">
        <ele>1373</ele>
        <time>2021-10-09T09:19:07Z</time>
      </trkpt>
      <trkpt lat="44.92327" lon="5.46106">
        <ele>1373</ele>
        <time>2021-10-09T09:19:08Z</time>
      </trkpt>
      <trkpt lat="44.92331" lon="5.46107">
        <ele>1373</ele>
        <time>2021-10-09T09:19:09Z</time>
      </trkpt>
      <trkpt lat="44.92334" lon="5.46107">
        <ele>1373</ele>
        <time>2021-10-09T09:19:10Z</time>
      </trkpt>
      <trkpt lat="44.92338" lon="5.46106">
        <ele>1372.6</ele>
        <time>2021-10-09T09:19:11Z</time>
      </trkpt>
      <trkpt lat="44.92341" lon="5.46105">
        <ele>1372.6</ele>
        <time>2021-10-09T09:19:12Z</time>
      </trkpt>
      <trkpt lat="44.92345" lon="5.46104">
        <ele>1372.6</ele>
        <time>2021-10-09T09:19:13Z</time>
      </trkpt>
      <trkpt lat="44.92349" lon="5.46102">
        <ele>1373.6</ele>
        <time>2021-10-09T09:19:14Z</time>
      </trkpt>
      <trkpt lat="44.92352" lon="5.461">
        <ele>1374.2</ele>
        <time>2021-10-09T09:19:15Z</time>
      </trkpt>
      <trkpt lat="44.92355" lon="5.46098">
        <ele>1374.2</ele>
        <time>2021-10-09T09:19:16Z</time>
      </trkpt>
      <trkpt lat="44.92358" lon="5.46096">
        <ele>1374.2</ele>
        <time>2021-10-09T09:19:17Z</time>
      </trkpt>
      <trkpt lat="44.92361" lon="5.46095">
        <ele>1375.2</ele>
        <time>2021-10-09T09:19:18Z</time>
      </trkpt>
      <trkpt lat="44.92363" lon="5.46095">
        <ele>1375.2</ele>
        <time>2021-10-09T09:19:19Z</time>
      </trkpt>
      <trkpt lat="44.92365" lon="5.46096">
        <ele>1375.2</ele>
        <time>2021-10-09T09:19:20Z</time>
      </trkpt>
      <trkpt lat="44.92367" lon="5.46098">
        <ele>1375.2</ele>
        <time>2021-10-09T09:19:21Z</time>
      </trkpt>
      <trkpt lat="44.92368" lon="5.46098">
        <ele>1376</ele>
        <time>2021-10-09T09:19:22Z</time>
      </trkpt>
      <trkpt lat="44.92371" lon="5.461">
        <ele>1376</ele>
        <time>2021-10-09T09:19:23Z</time>
      </trkpt>
      <trkpt lat="44.92373" lon="5.46101">
        <ele>1376</ele>
        <time>2021-10-09T09:19:24Z</time>
      </trkpt>
      <trkpt lat="44.92375" lon="5.46104">
        <ele>1376</ele>
        <time>2021-10-09T09:19:25Z</time>
      </trkpt>
      <trkpt lat="44.92378" lon="5.46105">
        <ele>1375.8</ele>
        <time>2021-10-09T09:19:26Z</time>
      </trkpt>
      <trkpt lat="44.9238" lon="5.46106">
        <ele>1375.8</ele>
        <time>2021-10-09T09:19:27Z</time>
      </trkpt>
      <trkpt lat="44.92383" lon="5.46106">
        <ele>1375.8</ele>
        <time>2021-10-09T09:19:28Z</time>
      </trkpt>
      <trkpt lat="44.92386" lon="5.46107">
        <ele>1375.8</ele>
        <time>2021-10-09T09:19:29Z</time>
      </trkpt>
      <trkpt lat="44.92388" lon="5.46108">
        <ele>1375.8</ele>
        <time>2021-10-09T09:19:30Z</time>
      </trkpt>
      <trkpt lat="44.92391" lon="5.46108">
        <ele>1376.6</ele>
        <time>2021-10-09T09:19:31Z</time>
      </trkpt>
      <trkpt lat="44.92393" lon="5.46108">
        <ele>1376.6</ele>
        <time>2021-10-09T09:19:32Z</time>
      </trkpt>
      <trkpt lat="44.92396" lon="5.46108">
        <ele>1376.6</ele>
        <time>2021-10-09T09:19:33Z</time>
      </trkpt>
      <trkpt lat="44.92398" lon="5.46107">
        <ele>1377.4</ele>
        <time>2021-10-09T09:19:34Z</time>
      </trkpt>
      <trkpt lat="44.924" lon="5.46107">
        <ele>1378</ele>
        <time>2021-10-09T09:19:35Z</time>
      </trkpt>
      <trkpt lat="44.92403" lon="5.46106">
        <ele>1378</ele>
        <time>2021-10-09T09:19:36Z</time>
      </trkpt>
      <trkpt lat="44.92405" lon="5.46105">
        <ele>1378</ele>
        <time>2021-10-09T09:19:37Z</time>
      </trkpt>
      <trkpt lat="44.92407" lon="5.46104">
        <ele>1378</ele>
        <time>2021-10-09T09:19:38Z</time>
      </trkpt>
      <trkpt lat="44.92408" lon="5.46103">
        <ele>1378.8</ele>
        <time>2021-10-09T09:19:39Z</time>
      </trkpt>
      <trkpt lat="44.9241" lon="5.46102">
        <ele>1378.8</ele>
        <time>2021-10-09T09:19:40Z</time>
      </trkpt>
      <trkpt lat="44.92411" lon="5.46101">
        <ele>1378.8</ele>
        <time>2021-10-09T09:19:41Z</time>
      </trkpt>
      <trkpt lat="44.92413" lon="5.46101">
        <ele>1378.8</ele>
        <time>2021-10-09T09:19:42Z</time>
      </trkpt>
      <trkpt lat="44.92414" lon="5.461">
        <ele>1379.4</ele>
        <time>2021-10-09T09:19:43Z</time>
      </trkpt>
      <trkpt lat="44.92416" lon="5.46099">
        <ele>1379.4</ele>
        <time>2021-10-09T09:19:44Z</time>
      </trkpt>
      <trkpt lat="44.92417" lon="5.46098">
        <ele>1379.4</ele>
        <time>2021-10-09T09:19:45Z</time>
      </trkpt>
      <trkpt lat="44.92419" lon="5.46098">
        <ele>1379.8</ele>
        <time>2021-10-09T09:19:46Z</time>
      </trkpt>
      <trkpt lat="44.9242" lon="5.46098">
        <ele>1380.4</ele>
        <time>2021-10-09T09:19:47Z</time>
      </trkpt>
      <trkpt lat="44.92422" lon="5.46097">
        <ele>1380.4</ele>
        <time>2021-10-09T09:19:48Z</time>
      </trkpt>
      <trkpt lat="44.92423" lon="5.46096">
        <ele>1380.4</ele>
        <time>2021-10-09T09:19:49Z</time>
      </trkpt>
      <trkpt lat="44.92425" lon="5.46095">
        <ele>1380.4</ele>
        <time>2021-10-09T09:19:50Z</time>
      </trkpt>
      <trkpt lat="44.92426" lon="5.46094">
        <ele>1381</ele>
        <time>2021-10-09T09:19:51Z</time>
      </trkpt>
      <trkpt lat="44.92427" lon="5.46094">
        <ele>1381</ele>
        <time>2021-10-09T09:19:52Z</time>
      </trkpt>
      <trkpt lat="44.92429" lon="5.46093">
        <ele>1381</ele>
        <time>2021-10-09T09:19:53Z</time>
      </trkpt>
      <trkpt lat="44.9243" lon="5.46093">
        <ele>1381.4</ele>
        <time>2021-10-09T09:19:54Z</time>
      </trkpt>
      <trkpt lat="44.92431" lon="5.46093">
        <ele>1382</ele>
        <time>2021-10-09T09:19:55Z</time>
      </trkpt>
      <trkpt lat="44.92433" lon="5.46093">
        <ele>1382</ele>
        <time>2021-10-09T09:19:56Z</time>
      </trkpt>
      <trkpt lat="44.92434" lon="5.46092">
        <ele>1382</ele>
        <time>2021-10-09T09:19:57Z</time>
      </trkpt>
      <trkpt lat="44.92436" lon="5.46091">
        <ele>1382</ele>
        <time>2021-10-09T09:19:58Z</time>
      </trkpt>
      <trkpt lat="44.92437" lon="5.46091">
        <ele>1382.6</ele>
        <time>2021-10-09T09:19:59Z</time>
      </trkpt>
      <trkpt lat="44.92439" lon="5.46091">
        <ele>1382.6</ele>
        <time>2021-10-09T09:20:00Z</time>
      </trkpt>
      <trkpt lat="44.9244" lon="5.46091">
        <ele>1382.6</ele>
        <time>2021-10-09T09:20:01Z</time>
      </trkpt>
      <trkpt lat="44.92441" lon="5.46091">
        <ele>1383</ele>
        <time>2021-10-09T09:20:02Z</time>
      </trkpt>
      <trkpt lat="44.92443" lon="5.46091">
        <ele>1383</ele>
        <time>2021-10-09T09:20:03Z</time>
      </trkpt>
      <trkpt lat="44.92444" lon="5.4609">
        <ele>1383</ele>
        <time>2021-10-09T09:20:04Z</time>
      </trkpt>
      <trkpt lat="44.92446" lon="5.4609">
        <ele>1383</ele>
        <time>2021-10-09T09:20:05Z</time>
      </trkpt>
      <trkpt lat="44.92448" lon="5.4609">
        <ele>1383.2</ele>
        <time>2021-10-09T09:20:06Z</time>
      </trkpt>
      <trkpt lat="44.92449" lon="5.4609">
        <ele>1383.4</ele>
        <time>2021-10-09T09:20:07Z</time>
      </trkpt>
      <trkpt lat="44.92451" lon="5.4609">
        <ele>1383.4</ele>
        <time>2021-10-09T09:20:08Z</time>
      </trkpt>
      <trkpt lat="44.92453" lon="5.46091">
        <ele>1383.4</ele>
        <time>2021-10-09T09:20:09Z</time>
      </trkpt>
      <trkpt lat="44.92455" lon="5.46091">
        <ele>1383.4</ele>
        <time>2021-10-09T09:20:10Z</time>
      </trkpt>
      <trkpt lat="44.92457" lon="5.46092">
        <ele>1383.4</ele>
        <time>2021-10-09T09:20:11Z</time>
      </trkpt>
      <trkpt lat="44.92459" lon="5.46094">
        <ele>1383.4</ele>
        <time>2021-10-09T09:20:12Z</time>
      </trkpt>
      <trkpt lat="44.92461" lon="5.46095">
        <ele>1383.4</ele>
        <time>2021-10-09T09:20:13Z</time>
      </trkpt>
      <trkpt lat="44.92463" lon="5.46097">
        <ele>1382.8</ele>
        <time>2021-10-09T09:20:14Z</time>
      </trkpt>
      <trkpt lat="44.92465" lon="5.46099">
        <ele>1383</ele>
        <time>2021-10-09T09:20:15Z</time>
      </trkpt>
      <trkpt lat="44.92467" lon="5.461">
        <ele>1383</ele>
        <time>2021-10-09T09:20:16Z</time>
      </trkpt>
      <trkpt lat="44.92469" lon="5.46102">
        <ele>1383</ele>
        <time>2021-10-09T09:20:17Z</time>
      </trkpt>
      <trkpt lat="44.92471" lon="5.46103">
        <ele>1383.2</ele>
        <time>2021-10-09T09:20:18Z</time>
      </trkpt>
      <trkpt lat="44.92473" lon="5.46105">
        <ele>1383.6</ele>
        <time>2021-10-09T09:20:19Z</time>
      </trkpt>
      <trkpt lat="44.92475" lon="5.46106">
        <ele>1383.6</ele>
        <time>2021-10-09T09:20:20Z</time>
      </trkpt>
      <trkpt lat="44.92477" lon="5.46107">
        <ele>1383.6</ele>
        <time>2021-10-09T09:20:21Z</time>
      </trkpt>
      <trkpt lat="44.92479" lon="5.46108">
        <ele>1383.6</ele>
        <time>2021-10-09T09:20:22Z</time>
      </trkpt>
      <trkpt lat="44.92481" lon="5.46108">
        <ele>1383.4</ele>
        <time>2021-10-09T09:20:23Z</time>
      </trkpt>
      <trkpt lat="44.92483" lon="5.46108">
        <ele>1383.4</ele>
        <time>2021-10-09T09:20:24Z</time>
      </trkpt>
      <trkpt lat="44.92486" lon="5.46108">
        <ele>1383.4</ele>
        <time>2021-10-09T09:20:25Z</time>
      </trkpt>
      <trkpt lat="44.92488" lon="5.46109">
        <ele>1383.4</ele>
        <time>2021-10-09T09:20:26Z</time>
      </trkpt>
      <trkpt lat="44.92491" lon="5.46109">
        <ele>1383.8</ele>
        <time>2021-10-09T09:20:27Z</time>
      </trkpt>
      <trkpt lat="44.92493" lon="5.46109">
        <ele>1383.8</ele>
        <time>2021-10-09T09:20:28Z</time>
      </trkpt>
      <trkpt lat="44.92496" lon="5.4611">
        <ele>1383.8</ele>
        <time>2021-10-09T09:20:29Z</time>
      </trkpt>
      <trkpt lat="44.92499" lon="5.46112">
        <ele>1383.8</ele>
        <time>2021-10-09T09:20:30Z</time>
      </trkpt>
      <trkpt lat="44.92501" lon="5.46113">
        <ele>1383.6</ele>
        <time>2021-10-09T09:20:31Z</time>
      </trkpt>
      <trkpt lat="44.92504" lon="5.46116">
        <ele>1383.6</ele>
        <time>2021-10-09T09:20:32Z</time>
      </trkpt>
      <trkpt lat="44.92506" lon="5.46118">
        <ele>1383.6</ele>
        <time>2021-10-09T09:20:33Z</time>
      </trkpt>
      <trkpt lat="44.92508" lon="5.46121">
        <ele>1383.6</ele>
        <time>2021-10-09T09:20:34Z</time>
      </trkpt>
      <trkpt lat="44.9251" lon="5.46125">
        <ele>1383.6</ele>
        <time>2021-10-09T09:20:35Z</time>
      </trkpt>
      <trkpt lat="44.92512" lon="5.46129">
        <ele>1383.6</ele>
        <time>2021-10-09T09:20:36Z</time>
      </trkpt>
      <trkpt lat="44.92513" lon="5.46132">
        <ele>1383.6</ele>
        <time>2021-10-09T09:20:37Z</time>
      </trkpt>
      <trkpt lat="44.92514" lon="5.46137">
        <ele>1383.6</ele>
        <time>2021-10-09T09:20:38Z</time>
      </trkpt>
      <trkpt lat="44.92516" lon="5.46141">
        <ele>1384.4</ele>
        <time>2021-10-09T09:20:39Z</time>
      </trkpt>
      <trkpt lat="44.92517" lon="5.46145">
        <ele>1384.4</ele>
        <time>2021-10-09T09:20:40Z</time>
      </trkpt>
      <trkpt lat="44.92519" lon="5.46149">
        <ele>1384.4</ele>
        <time>2021-10-09T09:20:41Z</time>
      </trkpt>
      <trkpt lat="44.92521" lon="5.46153">
        <ele>1383.6</ele>
        <time>2021-10-09T09:20:42Z</time>
      </trkpt>
      <trkpt lat="44.92523" lon="5.46155">
        <ele>1383.8</ele>
        <time>2021-10-09T09:20:43Z</time>
      </trkpt>
      <trkpt lat="44.92525" lon="5.46158">
        <ele>1383.8</ele>
        <time>2021-10-09T09:20:44Z</time>
      </trkpt>
      <trkpt lat="44.92527" lon="5.46161">
        <ele>1383.8</ele>
        <time>2021-10-09T09:20:45Z</time>
      </trkpt>
      <trkpt lat="44.92529" lon="5.46165">
        <ele>1384.2</ele>
        <time>2021-10-09T09:20:46Z</time>
      </trkpt>
      <trkpt lat="44.9253" lon="5.46169">
        <ele>1384.2</ele>
        <time>2021-10-09T09:20:47Z</time>
      </trkpt>
      <trkpt lat="44.92531" lon="5.46172">
        <ele>1384.2</ele>
        <time>2021-10-09T09:20:48Z</time>
      </trkpt>
      <trkpt lat="44.92533" lon="5.46177">
        <ele>1384.2</ele>
        <time>2021-10-09T09:20:49Z</time>
      </trkpt>
      <trkpt lat="44.92534" lon="5.46181">
        <ele>1384.2</ele>
        <time>2021-10-09T09:20:50Z</time>
      </trkpt>
      <trkpt lat="44.92535" lon="5.46184">
        <ele>1384.6</ele>
        <time>2021-10-09T09:20:51Z</time>
      </trkpt>
      <trkpt lat="44.92536" lon="5.46188">
        <ele>1384.6</ele>
        <time>2021-10-09T09:20:52Z</time>
      </trkpt>
      <trkpt lat="44.92538" lon="5.46193">
        <ele>1384.6</ele>
        <time>2021-10-09T09:20:53Z</time>
      </trkpt>
      <trkpt lat="44.9254" lon="5.46197">
        <ele>1385.4</ele>
        <time>2021-10-09T09:20:54Z</time>
      </trkpt>
      <trkpt lat="44.92542" lon="5.46201">
        <ele>1385.4</ele>
        <time>2021-10-09T09:20:55Z</time>
      </trkpt>
      <trkpt lat="44.92544" lon="5.46205">
        <ele>1385.4</ele>
        <time>2021-10-09T09:20:56Z</time>
      </trkpt>
      <trkpt lat="44.92546" lon="5.46208">
        <ele>1385.4</ele>
        <time>2021-10-09T09:20:57Z</time>
      </trkpt>
      <trkpt lat="44.92549" lon="5.46211">
        <ele>1386</ele>
        <time>2021-10-09T09:20:58Z</time>
      </trkpt>
      <trkpt lat="44.92551" lon="5.46214">
        <ele>1386.2</ele>
        <time>2021-10-09T09:20:59Z</time>
      </trkpt>
      <trkpt lat="44.92554" lon="5.46217">
        <ele>1386.2</ele>
        <time>2021-10-09T09:21:00Z</time>
      </trkpt>
      <trkpt lat="44.92558" lon="5.46219">
        <ele>1386.2</ele>
        <time>2021-10-09T09:21:01Z</time>
      </trkpt>
      <trkpt lat="44.92559" lon="5.4622">
        <ele>1387</ele>
        <time>2021-10-09T09:21:02Z</time>
      </trkpt>
      <trkpt lat="44.92562" lon="5.46221">
        <ele>1387.2</ele>
        <time>2021-10-09T09:21:03Z</time>
      </trkpt>
      <trkpt lat="44.92565" lon="5.46223">
        <ele>1387.2</ele>
        <time>2021-10-09T09:21:04Z</time>
      </trkpt>
      <trkpt lat="44.92568" lon="5.46226">
        <ele>1387.2</ele>
        <time>2021-10-09T09:21:05Z</time>
      </trkpt>
      <trkpt lat="44.92571" lon="5.46228">
        <ele>1387.2</ele>
        <time>2021-10-09T09:21:06Z</time>
      </trkpt>
      <trkpt lat="44.92574" lon="5.4623">
        <ele>1386.8</ele>
        <time>2021-10-09T09:21:07Z</time>
      </trkpt>
      <trkpt lat="44.92578" lon="5.46232">
        <ele>1386.8</ele>
        <time>2021-10-09T09:21:08Z</time>
      </trkpt>
      <trkpt lat="44.92581" lon="5.46234">
        <ele>1386.8</ele>
        <time>2021-10-09T09:21:09Z</time>
      </trkpt>
      <trkpt lat="44.92586" lon="5.46235">
        <ele>1386.8</ele>
        <time>2021-10-09T09:21:10Z</time>
      </trkpt>
      <trkpt lat="44.9259" lon="5.46233">
        <ele>1387.2</ele>
        <time>2021-10-09T09:21:11Z</time>
      </trkpt>
      <trkpt lat="44.92594" lon="5.46231">
        <ele>1387.2</ele>
        <time>2021-10-09T09:21:12Z</time>
      </trkpt>
      <trkpt lat="44.92596" lon="5.46228">
        <ele>1387.2</ele>
        <time>2021-10-09T09:21:13Z</time>
      </trkpt>
      <trkpt lat="44.92598" lon="5.46225">
        <ele>1388.2</ele>
        <time>2021-10-09T09:21:14Z</time>
      </trkpt>
      <trkpt lat="44.926" lon="5.46221">
        <ele>1388.6</ele>
        <time>2021-10-09T09:21:15Z</time>
      </trkpt>
      <trkpt lat="44.92601" lon="5.46218">
        <ele>1388.6</ele>
        <time>2021-10-09T09:21:16Z</time>
      </trkpt>
      <trkpt lat="44.92602" lon="5.46215">
        <ele>1388.6</ele>
        <time>2021-10-09T09:21:17Z</time>
      </trkpt>
      <trkpt lat="44.92602" lon="5.46211">
        <ele>1388.6</ele>
        <time>2021-10-09T09:21:18Z</time>
      </trkpt>
      <trkpt lat="44.92603" lon="5.46208">
        <ele>1389</ele>
        <time>2021-10-09T09:21:19Z</time>
      </trkpt>
      <trkpt lat="44.92605" lon="5.46206">
        <ele>1389</ele>
        <time>2021-10-09T09:21:20Z</time>
      </trkpt>
      <trkpt lat="44.92605" lon="5.46203">
        <ele>1389</ele>
        <time>2021-10-09T09:21:21Z</time>
      </trkpt>
      <trkpt lat="44.92606" lon="5.46201">
        <ele>1390</ele>
        <time>2021-10-09T09:21:22Z</time>
      </trkpt>
      <trkpt lat="44.92608" lon="5.462">
        <ele>1390</ele>
        <time>2021-10-09T09:21:23Z</time>
      </trkpt>
      <trkpt lat="44.92608" lon="5.46199">
        <ele>1390</ele>
        <time>2021-10-09T09:21:24Z</time>
      </trkpt>
      <trkpt lat="44.92609" lon="5.46198">
        <ele>1390</ele>
        <time>2021-10-09T09:21:25Z</time>
      </trkpt>
      <trkpt lat="44.9261" lon="5.46197">
        <ele>1390.2</ele>
        <time>2021-10-09T09:21:26Z</time>
      </trkpt>
      <trkpt lat="44.92611" lon="5.46196">
        <ele>1390.2</ele>
        <time>2021-10-09T09:21:27Z</time>
      </trkpt>
      <trkpt lat="44.92611" lon="5.46196">
        <ele>1390.2</ele>
        <time>2021-10-09T09:21:28Z</time>
      </trkpt>
      <trkpt lat="44.92613" lon="5.46195">
        <ele>1390.2</ele>
        <time>2021-10-09T09:21:29Z</time>
      </trkpt>
      <trkpt lat="44.92614" lon="5.46194">
        <ele>1390.2</ele>
        <time>2021-10-09T09:21:30Z</time>
      </trkpt>
      <trkpt lat="44.92615" lon="5.46194">
        <ele>1390.2</ele>
        <time>2021-10-09T09:21:31Z</time>
      </trkpt>
      <trkpt lat="44.92616" lon="5.46194">
        <ele>1390.2</ele>
        <time>2021-10-09T09:21:32Z</time>
      </trkpt>
      <trkpt lat="44.92617" lon="5.46193">
        <ele>1390.2</ele>
        <time>2021-10-09T09:21:33Z</time>
      </trkpt>
      <trkpt lat="44.92617" lon="5.46193">
        <ele>1390.6</ele>
        <time>2021-10-09T09:21:34Z</time>
      </trkpt>
      <trkpt lat="44.92621" lon="5.46186">
        <ele>1390.4</ele>
        <time>2021-10-09T09:22:26Z</time>
      </trkpt>
      <trkpt lat="44.92623" lon="5.46184">
        <ele>1390.4</ele>
        <time>2021-10-09T09:22:27Z</time>
      </trkpt>
      <trkpt lat="44.92625" lon="5.46182">
        <ele>1390.4</ele>
        <time>2021-10-09T09:22:28Z</time>
      </trkpt>
      <trkpt lat="44.92628" lon="5.4618">
        <ele>1390.4</ele>
        <time>2021-10-09T09:22:29Z</time>
      </trkpt>
      <trkpt lat="44.9263" lon="5.46177">
        <ele>1390.4</ele>
        <time>2021-10-09T09:22:30Z</time>
      </trkpt>
      <trkpt lat="44.92632" lon="5.46176">
        <ele>1391.2</ele>
        <time>2021-10-09T09:22:31Z</time>
      </trkpt>
      <trkpt lat="44.92635" lon="5.46174">
        <ele>1391.2</ele>
        <time>2021-10-09T09:22:32Z</time>
      </trkpt>
      <trkpt lat="44.92638" lon="5.46172">
        <ele>1391.2</ele>
        <time>2021-10-09T09:22:33Z</time>
      </trkpt>
      <trkpt lat="44.9264" lon="5.4617">
        <ele>1390.8</ele>
        <time>2021-10-09T09:22:34Z</time>
      </trkpt>
      <trkpt lat="44.92643" lon="5.46168">
        <ele>1390.8</ele>
        <time>2021-10-09T09:22:35Z</time>
      </trkpt>
      <trkpt lat="44.92645" lon="5.46166">
        <ele>1390.8</ele>
        <time>2021-10-09T09:22:36Z</time>
      </trkpt>
      <trkpt lat="44.92647" lon="5.46163">
        <ele>1390.8</ele>
        <time>2021-10-09T09:22:37Z</time>
      </trkpt>
      <trkpt lat="44.92648" lon="5.4616">
        <ele>1391.6</ele>
        <time>2021-10-09T09:22:38Z</time>
      </trkpt>
      <trkpt lat="44.9265" lon="5.46157">
        <ele>1392</ele>
        <time>2021-10-09T09:22:39Z</time>
      </trkpt>
      <trkpt lat="44.92651" lon="5.46154">
        <ele>1392</ele>
        <time>2021-10-09T09:22:40Z</time>
      </trkpt>
      <trkpt lat="44.92652" lon="5.46151">
        <ele>1392</ele>
        <time>2021-10-09T09:22:41Z</time>
      </trkpt>
      <trkpt lat="44.92652" lon="5.46148">
        <ele>1392</ele>
        <time>2021-10-09T09:22:42Z</time>
      </trkpt>
      <trkpt lat="44.92653" lon="5.46144">
        <ele>1392.4</ele>
        <time>2021-10-09T09:22:43Z</time>
      </trkpt>
      <trkpt lat="44.92652" lon="5.46141">
        <ele>1392.4</ele>
        <time>2021-10-09T09:22:44Z</time>
      </trkpt>
      <trkpt lat="44.92652" lon="5.46138">
        <ele>1392.4</ele>
        <time>2021-10-09T09:22:45Z</time>
      </trkpt>
      <trkpt lat="44.92652" lon="5.46135">
        <ele>1392.4</ele>
        <time>2021-10-09T09:22:46Z</time>
      </trkpt>
      <trkpt lat="44.92651" lon="5.46132">
        <ele>1394</ele>
        <time>2021-10-09T09:22:47Z</time>
      </trkpt>
      <trkpt lat="44.92651" lon="5.4613">
        <ele>1394</ele>
        <time>2021-10-09T09:22:48Z</time>
      </trkpt>
      <trkpt lat="44.92651" lon="5.46128">
        <ele>1394</ele>
        <time>2021-10-09T09:22:49Z</time>
      </trkpt>
      <trkpt lat="44.9265" lon="5.46125">
        <ele>1394.8</ele>
        <time>2021-10-09T09:22:50Z</time>
      </trkpt>
      <trkpt lat="44.9265" lon="5.46123">
        <ele>1394.8</ele>
        <time>2021-10-09T09:22:51Z</time>
      </trkpt>
      <trkpt lat="44.92649" lon="5.46121">
        <ele>1394.8</ele>
        <time>2021-10-09T09:22:52Z</time>
      </trkpt>
      <trkpt lat="44.92649" lon="5.46119">
        <ele>1394.8</ele>
        <time>2021-10-09T09:22:53Z</time>
      </trkpt>
      <trkpt lat="44.92649" lon="5.46116">
        <ele>1394.8</ele>
        <time>2021-10-09T09:22:54Z</time>
      </trkpt>
      <trkpt lat="44.92648" lon="5.46113">
        <ele>1396.2</ele>
        <time>2021-10-09T09:22:55Z</time>
      </trkpt>
      <trkpt lat="44.92648" lon="5.46111">
        <ele>1396.2</ele>
        <time>2021-10-09T09:22:56Z</time>
      </trkpt>
      <trkpt lat="44.92648" lon="5.46108">
        <ele>1396.2</ele>
        <time>2021-10-09T09:22:57Z</time>
      </trkpt>
      <trkpt lat="44.92647" lon="5.46106">
        <ele>1396.2</ele>
        <time>2021-10-09T09:22:58Z</time>
      </trkpt>
      <trkpt lat="44.92647" lon="5.46103">
        <ele>1397.2</ele>
        <time>2021-10-09T09:22:59Z</time>
      </trkpt>
      <trkpt lat="44.92646" lon="5.461">
        <ele>1397.2</ele>
        <time>2021-10-09T09:23:00Z</time>
      </trkpt>
      <trkpt lat="44.92645" lon="5.46097">
        <ele>1397.2</ele>
        <time>2021-10-09T09:23:01Z</time>
      </trkpt>
      <trkpt lat="44.92645" lon="5.46094">
        <ele>1397.8</ele>
        <time>2021-10-09T09:23:02Z</time>
      </trkpt>
      <trkpt lat="44.92646" lon="5.46091">
        <ele>1397.6</ele>
        <time>2021-10-09T09:23:03Z</time>
      </trkpt>
      <trkpt lat="44.92645" lon="5.46089">
        <ele>1397.6</ele>
        <time>2021-10-09T09:23:04Z</time>
      </trkpt>
      <trkpt lat="44.92645" lon="5.46086">
        <ele>1397.6</ele>
        <time>2021-10-09T09:23:05Z</time>
      </trkpt>
      <trkpt lat="44.92645" lon="5.46083">
        <ele>1398.6</ele>
        <time>2021-10-09T09:23:06Z</time>
      </trkpt>
      <trkpt lat="44.92646" lon="5.46081">
        <ele>1398.6</ele>
        <time>2021-10-09T09:23:07Z</time>
      </trkpt>
      <trkpt lat="44.92646" lon="5.46079">
        <ele>1398.6</ele>
        <time>2021-10-09T09:23:08Z</time>
      </trkpt>
      <trkpt lat="44.92647" lon="5.46076">
        <ele>1398.6</ele>
        <time>2021-10-09T09:23:09Z</time>
      </trkpt>
      <trkpt lat="44.92649" lon="5.46075">
        <ele>1399</ele>
        <time>2021-10-09T09:23:10Z</time>
      </trkpt>
      <trkpt lat="44.9265" lon="5.46073">
        <ele>1399</ele>
        <time>2021-10-09T09:23:11Z</time>
      </trkpt>
      <trkpt lat="44.92652" lon="5.46072">
        <ele>1399</ele>
        <time>2021-10-09T09:23:12Z</time>
      </trkpt>
      <trkpt lat="44.92653" lon="5.46073">
        <ele>1399</ele>
        <time>2021-10-09T09:23:13Z</time>
      </trkpt>
      <trkpt lat="44.92655" lon="5.46074">
        <ele>1399.6</ele>
        <time>2021-10-09T09:23:14Z</time>
      </trkpt>
      <trkpt lat="44.92656" lon="5.46075">
        <ele>1399.2</ele>
        <time>2021-10-09T09:23:15Z</time>
      </trkpt>
      <trkpt lat="44.92657" lon="5.46077">
        <ele>1399.2</ele>
        <time>2021-10-09T09:23:16Z</time>
      </trkpt>
      <trkpt lat="44.92657" lon="5.46079">
        <ele>1399.2</ele>
        <time>2021-10-09T09:23:17Z</time>
      </trkpt>
      <trkpt lat="44.92657" lon="5.46081">
        <ele>1400.2</ele>
        <time>2021-10-09T09:23:18Z</time>
      </trkpt>
      <trkpt lat="44.92658" lon="5.46083">
        <ele>1400.8</ele>
        <time>2021-10-09T09:23:19Z</time>
      </trkpt>
      <trkpt lat="44.92658" lon="5.46085">
        <ele>1400.8</ele>
        <time>2021-10-09T09:23:20Z</time>
      </trkpt>
      <trkpt lat="44.92659" lon="5.46088">
        <ele>1400.8</ele>
        <time>2021-10-09T09:23:21Z</time>
      </trkpt>
      <trkpt lat="44.92659" lon="5.4609">
        <ele>1400.8</ele>
        <time>2021-10-09T09:23:22Z</time>
      </trkpt>
      <trkpt lat="44.92659" lon="5.46092">
        <ele>1401.6</ele>
        <time>2021-10-09T09:23:23Z</time>
      </trkpt>
      <trkpt lat="44.9266" lon="5.46094">
        <ele>1401.6</ele>
        <time>2021-10-09T09:23:24Z</time>
      </trkpt>
      <trkpt lat="44.92661" lon="5.46096">
        <ele>1401.6</ele>
        <time>2021-10-09T09:23:25Z</time>
      </trkpt>
      <trkpt lat="44.92661" lon="5.46098">
        <ele>1401.6</ele>
        <time>2021-10-09T09:23:26Z</time>
      </trkpt>
      <trkpt lat="44.92662" lon="5.46101">
        <ele>1402.2</ele>
        <time>2021-10-09T09:23:27Z</time>
      </trkpt>
      <trkpt lat="44.92662" lon="5.46103">
        <ele>1402.2</ele>
        <time>2021-10-09T09:23:28Z</time>
      </trkpt>
      <trkpt lat="44.92663" lon="5.46105">
        <ele>1402.2</ele>
        <time>2021-10-09T09:23:29Z</time>
      </trkpt>
      <trkpt lat="44.92664" lon="5.46106">
        <ele>1402.8</ele>
        <time>2021-10-09T09:23:30Z</time>
      </trkpt>
      <trkpt lat="44.92665" lon="5.46107">
        <ele>1403.2</ele>
        <time>2021-10-09T09:23:31Z</time>
      </trkpt>
      <trkpt lat="44.92666" lon="5.46109">
        <ele>1403.2</ele>
        <time>2021-10-09T09:23:32Z</time>
      </trkpt>
      <trkpt lat="44.92667" lon="5.4611">
        <ele>1403.2</ele>
        <time>2021-10-09T09:23:33Z</time>
      </trkpt>
      <trkpt lat="44.92668" lon="5.46112">
        <ele>1403.6</ele>
        <time>2021-10-09T09:23:34Z</time>
      </trkpt>
      <trkpt lat="44.92669" lon="5.46114">
        <ele>1404</ele>
        <time>2021-10-09T09:23:35Z</time>
      </trkpt>
      <trkpt lat="44.92669" lon="5.46115">
        <ele>1404</ele>
        <time>2021-10-09T09:23:36Z</time>
      </trkpt>
      <trkpt lat="44.9267" lon="5.46117">
        <ele>1404</ele>
        <time>2021-10-09T09:23:37Z</time>
      </trkpt>
      <trkpt lat="44.92671" lon="5.46118">
        <ele>1404</ele>
        <time>2021-10-09T09:23:38Z</time>
      </trkpt>
      <trkpt lat="44.92672" lon="5.4612">
        <ele>1404.6</ele>
        <time>2021-10-09T09:23:39Z</time>
      </trkpt>
      <trkpt lat="44.92673" lon="5.46121">
        <ele>1404.6</ele>
        <time>2021-10-09T09:23:40Z</time>
      </trkpt>
      <trkpt lat="44.92674" lon="5.46122">
        <ele>1404.6</ele>
        <time>2021-10-09T09:23:41Z</time>
      </trkpt>
      <trkpt lat="44.92676" lon="5.46124">
        <ele>1404.6</ele>
        <time>2021-10-09T09:23:42Z</time>
      </trkpt>
      <trkpt lat="44.92677" lon="5.46124">
        <ele>1404.8</ele>
        <time>2021-10-09T09:23:43Z</time>
      </trkpt>
      <trkpt lat="44.92678" lon="5.46125">
        <ele>1404.8</ele>
        <time>2021-10-09T09:23:44Z</time>
      </trkpt>
      <trkpt lat="44.92679" lon="5.46126">
        <ele>1404.8</ele>
        <time>2021-10-09T09:23:45Z</time>
      </trkpt>
      <trkpt lat="44.92681" lon="5.46127">
        <ele>1405.8</ele>
        <time>2021-10-09T09:23:46Z</time>
      </trkpt>
      <trkpt lat="44.92682" lon="5.46127">
        <ele>1405.6</ele>
        <time>2021-10-09T09:23:47Z</time>
      </trkpt>
      <trkpt lat="44.92684" lon="5.46127">
        <ele>1405.6</ele>
        <time>2021-10-09T09:23:48Z</time>
      </trkpt>
      <trkpt lat="44.92685" lon="5.46128">
        <ele>1405.6</ele>
        <time>2021-10-09T09:23:49Z</time>
      </trkpt>
      <trkpt lat="44.92687" lon="5.46128">
        <ele>1406.4</ele>
        <time>2021-10-09T09:23:50Z</time>
      </trkpt>
      <trkpt lat="44.92688" lon="5.46129">
        <ele>1406.4</ele>
        <time>2021-10-09T09:23:51Z</time>
      </trkpt>
      <trkpt lat="44.92689" lon="5.46131">
        <ele>1406.4</ele>
        <time>2021-10-09T09:23:52Z</time>
      </trkpt>
      <trkpt lat="44.92691" lon="5.46132">
        <ele>1406.4</ele>
        <time>2021-10-09T09:23:53Z</time>
      </trkpt>
      <trkpt lat="44.92692" lon="5.46133">
        <ele>1406.6</ele>
        <time>2021-10-09T09:23:54Z</time>
      </trkpt>
      <trkpt lat="44.92693" lon="5.46134">
        <ele>1406.4</ele>
        <time>2021-10-09T09:23:55Z</time>
      </trkpt>
      <trkpt lat="44.92694" lon="5.46135">
        <ele>1406.4</ele>
        <time>2021-10-09T09:23:56Z</time>
      </trkpt>
      <trkpt lat="44.92696" lon="5.46136">
        <ele>1406.4</ele>
        <time>2021-10-09T09:23:57Z</time>
      </trkpt>
      <trkpt lat="44.92697" lon="5.46136">
        <ele>1406.8</ele>
        <time>2021-10-09T09:23:58Z</time>
      </trkpt>
      <trkpt lat="44.92698" lon="5.46137">
        <ele>1406.6</ele>
        <time>2021-10-09T09:23:59Z</time>
      </trkpt>
      <trkpt lat="44.927" lon="5.46138">
        <ele>1406.6</ele>
        <time>2021-10-09T09:24:00Z</time>
      </trkpt>
      <trkpt lat="44.92701" lon="5.46138">
        <ele>1406.6</ele>
        <time>2021-10-09T09:24:01Z</time>
      </trkpt>
      <trkpt lat="44.92702" lon="5.46139">
        <ele>1407.6</ele>
        <time>2021-10-09T09:24:02Z</time>
      </trkpt>
      <trkpt lat="44.92704" lon="5.4614">
        <ele>1407.4</ele>
        <time>2021-10-09T09:24:03Z</time>
      </trkpt>
      <trkpt lat="44.92705" lon="5.46141">
        <ele>1407.4</ele>
        <time>2021-10-09T09:24:04Z</time>
      </trkpt>
      <trkpt lat="44.92707" lon="5.46142">
        <ele>1407.4</ele>
        <time>2021-10-09T09:24:05Z</time>
      </trkpt>
      <trkpt lat="44.92708" lon="5.46143">
        <ele>1408</ele>
        <time>2021-10-09T09:24:06Z</time>
      </trkpt>
      <trkpt lat="44.92709" lon="5.46144">
        <ele>1408.4</ele>
        <time>2021-10-09T09:24:07Z</time>
      </trkpt>
      <trkpt lat="44.92711" lon="5.46145">
        <ele>1408.4</ele>
        <time>2021-10-09T09:24:08Z</time>
      </trkpt>
      <trkpt lat="44.92712" lon="5.46145">
        <ele>1408.4</ele>
        <time>2021-10-09T09:24:09Z</time>
      </trkpt>
      <trkpt lat="44.92714" lon="5.46146">
        <ele>1408.4</ele>
        <time>2021-10-09T09:24:10Z</time>
      </trkpt>
      <trkpt lat="44.92716" lon="5.46147">
        <ele>1408.8</ele>
        <time>2021-10-09T09:24:11Z</time>
      </trkpt>
      <trkpt lat="44.92717" lon="5.46149">
        <ele>1408.8</ele>
        <time>2021-10-09T09:24:12Z</time>
      </trkpt>
      <trkpt lat="44.92718" lon="5.46151">
        <ele>1408.8</ele>
        <time>2021-10-09T09:24:13Z</time>
      </trkpt>
      <trkpt lat="44.92719" lon="5.46152">
        <ele>1409.2</ele>
        <time>2021-10-09T09:24:14Z</time>
      </trkpt>
      <trkpt lat="44.9272" lon="5.46154">
        <ele>1409.4</ele>
        <time>2021-10-09T09:24:15Z</time>
      </trkpt>
      <trkpt lat="44.92721" lon="5.46156">
        <ele>1409.4</ele>
        <time>2021-10-09T09:24:16Z</time>
      </trkpt>
      <trkpt lat="44.92722" lon="5.46158">
        <ele>1409.4</ele>
        <time>2021-10-09T09:24:17Z</time>
      </trkpt>
      <trkpt lat="44.92723" lon="5.46159">
        <ele>1409.4</ele>
        <time>2021-10-09T09:24:18Z</time>
      </trkpt>
      <trkpt lat="44.92724" lon="5.46161">
        <ele>1410.2</ele>
        <time>2021-10-09T09:24:19Z</time>
      </trkpt>
      <trkpt lat="44.92725" lon="5.46163">
        <ele>1410.2</ele>
        <time>2021-10-09T09:24:20Z</time>
      </trkpt>
      <trkpt lat="44.92725" lon="5.46165">
        <ele>1410.2</ele>
        <time>2021-10-09T09:24:21Z</time>
      </trkpt>
      <trkpt lat="44.92726" lon="5.46167">
        <ele>1411</ele>
        <time>2021-10-09T09:24:22Z</time>
      </trkpt>
      <trkpt lat="44.92726" lon="5.46169">
        <ele>1410.8</ele>
        <time>2021-10-09T09:24:23Z</time>
      </trkpt>
      <trkpt lat="44.92726" lon="5.46171">
        <ele>1410.8</ele>
        <time>2021-10-09T09:24:24Z</time>
      </trkpt>
      <trkpt lat="44.92726" lon="5.46173">
        <ele>1410.8</ele>
        <time>2021-10-09T09:24:25Z</time>
      </trkpt>
      <trkpt lat="44.92726" lon="5.46175">
        <ele>1410.8</ele>
        <time>2021-10-09T09:24:26Z</time>
      </trkpt>
      <trkpt lat="44.92726" lon="5.46177">
        <ele>1411.4</ele>
        <time>2021-10-09T09:24:27Z</time>
      </trkpt>
      <trkpt lat="44.92726" lon="5.46179">
        <ele>1411.4</ele>
        <time>2021-10-09T09:24:28Z</time>
      </trkpt>
      <trkpt lat="44.92727" lon="5.46181">
        <ele>1411.4</ele>
        <time>2021-10-09T09:24:29Z</time>
      </trkpt>
      <trkpt lat="44.92727" lon="5.46183">
        <ele>1412</ele>
        <time>2021-10-09T09:24:30Z</time>
      </trkpt>
      <trkpt lat="44.92728" lon="5.46185">
        <ele>1412</ele>
        <time>2021-10-09T09:24:31Z</time>
      </trkpt>
      <trkpt lat="44.92729" lon="5.46187">
        <ele>1412</ele>
        <time>2021-10-09T09:24:32Z</time>
      </trkpt>
      <trkpt lat="44.92729" lon="5.46189">
        <ele>1412</ele>
        <time>2021-10-09T09:24:33Z</time>
      </trkpt>
      <trkpt lat="44.9273" lon="5.46191">
        <ele>1412.2</ele>
        <time>2021-10-09T09:24:34Z</time>
      </trkpt>
      <trkpt lat="44.9273" lon="5.46193">
        <ele>1413</ele>
        <time>2021-10-09T09:24:35Z</time>
      </trkpt>
      <trkpt lat="44.92731" lon="5.46195">
        <ele>1413</ele>
        <time>2021-10-09T09:24:36Z</time>
      </trkpt>
      <trkpt lat="44.92731" lon="5.46197">
        <ele>1413</ele>
        <time>2021-10-09T09:24:37Z</time>
      </trkpt>
      <trkpt lat="44.92732" lon="5.46199">
        <ele>1413</ele>
        <time>2021-10-09T09:24:38Z</time>
      </trkpt>
      <trkpt lat="44.92733" lon="5.46201">
        <ele>1413.6</ele>
        <time>2021-10-09T09:24:39Z</time>
      </trkpt>
      <trkpt lat="44.92733" lon="5.46203">
        <ele>1413.6</ele>
        <time>2021-10-09T09:24:40Z</time>
      </trkpt>
      <trkpt lat="44.92734" lon="5.46205">
        <ele>1413.6</ele>
        <time>2021-10-09T09:24:41Z</time>
      </trkpt>
      <trkpt lat="44.92735" lon="5.46207">
        <ele>1414.6</ele>
        <time>2021-10-09T09:24:42Z</time>
      </trkpt>
      <trkpt lat="44.92736" lon="5.46209">
        <ele>1414.8</ele>
        <time>2021-10-09T09:24:43Z</time>
      </trkpt>
      <trkpt lat="44.92736" lon="5.46211">
        <ele>1414.8</ele>
        <time>2021-10-09T09:24:44Z</time>
      </trkpt>
      <trkpt lat="44.92737" lon="5.46213">
        <ele>1414.8</ele>
        <time>2021-10-09T09:24:45Z</time>
      </trkpt>
      <trkpt lat="44.92737" lon="5.46216">
        <ele>1414.8</ele>
        <time>2021-10-09T09:24:46Z</time>
      </trkpt>
      <trkpt lat="44.92737" lon="5.46218">
        <ele>1415.6</ele>
        <time>2021-10-09T09:24:47Z</time>
      </trkpt>
      <trkpt lat="44.92738" lon="5.4622">
        <ele>1415.6</ele>
        <time>2021-10-09T09:24:48Z</time>
      </trkpt>
      <trkpt lat="44.92739" lon="5.46223">
        <ele>1415.6</ele>
        <time>2021-10-09T09:24:49Z</time>
      </trkpt>
      <trkpt lat="44.92739" lon="5.46225">
        <ele>1415.6</ele>
        <time>2021-10-09T09:24:50Z</time>
      </trkpt>
      <trkpt lat="44.9274" lon="5.46227">
        <ele>1416.2</ele>
        <time>2021-10-09T09:24:51Z</time>
      </trkpt>
      <trkpt lat="44.92741" lon="5.46229">
        <ele>1416.2</ele>
        <time>2021-10-09T09:24:52Z</time>
      </trkpt>
      <trkpt lat="44.92742" lon="5.4623">
        <ele>1416.2</ele>
        <time>2021-10-09T09:24:53Z</time>
      </trkpt>
      <trkpt lat="44.92743" lon="5.46232">
        <ele>1416.2</ele>
        <time>2021-10-09T09:24:54Z</time>
      </trkpt>
      <trkpt lat="44.92744" lon="5.46233">
        <ele>1416.4</ele>
        <time>2021-10-09T09:24:55Z</time>
      </trkpt>
      <trkpt lat="44.92745" lon="5.46234">
        <ele>1416.4</ele>
        <time>2021-10-09T09:24:56Z</time>
      </trkpt>
      <trkpt lat="44.92746" lon="5.46235">
        <ele>1416.4</ele>
        <time>2021-10-09T09:24:57Z</time>
      </trkpt>
      <trkpt lat="44.92748" lon="5.46236">
        <ele>1416.4</ele>
        <time>2021-10-09T09:24:58Z</time>
      </trkpt>
      <trkpt lat="44.92749" lon="5.46238">
        <ele>1416.6</ele>
        <time>2021-10-09T09:24:59Z</time>
      </trkpt>
      <trkpt lat="44.9275" lon="5.46239">
        <ele>1416.6</ele>
        <time>2021-10-09T09:25:00Z</time>
      </trkpt>
      <trkpt lat="44.92751" lon="5.46241">
        <ele>1416.6</ele>
        <time>2021-10-09T09:25:01Z</time>
      </trkpt>
      <trkpt lat="44.92753" lon="5.46241">
        <ele>1416.2</ele>
        <time>2021-10-09T09:25:02Z</time>
      </trkpt>
      <trkpt lat="44.92754" lon="5.46242">
        <ele>1416.8</ele>
        <time>2021-10-09T09:25:03Z</time>
      </trkpt>
      <trkpt lat="44.92755" lon="5.46243">
        <ele>1416.8</ele>
        <time>2021-10-09T09:25:04Z</time>
      </trkpt>
      <trkpt lat="44.92756" lon="5.46243">
        <ele>1416.8</ele>
        <time>2021-10-09T09:25:05Z</time>
      </trkpt>
      <trkpt lat="44.92757" lon="5.46243">
        <ele>1416.8</ele>
        <time>2021-10-09T09:25:06Z</time>
      </trkpt>
      <trkpt lat="44.92759" lon="5.46244">
        <ele>1416.8</ele>
        <time>2021-10-09T09:25:07Z</time>
      </trkpt>
      <trkpt lat="44.9276" lon="5.46244">
        <ele>1416.8</ele>
        <time>2021-10-09T09:25:08Z</time>
      </trkpt>
      <trkpt lat="44.92762" lon="5.46244">
        <ele>1416.8</ele>
        <time>2021-10-09T09:25:09Z</time>
      </trkpt>
      <trkpt lat="44.92765" lon="5.46243">
        <ele>1416</ele>
        <time>2021-10-09T09:25:10Z</time>
      </trkpt>
      <trkpt lat="44.92768" lon="5.46242">
        <ele>1415.8</ele>
        <time>2021-10-09T09:25:11Z</time>
      </trkpt>
      <trkpt lat="44.92771" lon="5.46241">
        <ele>1415.8</ele>
        <time>2021-10-09T09:25:12Z</time>
      </trkpt>
      <trkpt lat="44.92774" lon="5.46239">
        <ele>1415.8</ele>
        <time>2021-10-09T09:25:13Z</time>
      </trkpt>
      <trkpt lat="44.92777" lon="5.46236">
        <ele>1415.8</ele>
        <time>2021-10-09T09:25:14Z</time>
      </trkpt>
      <trkpt lat="44.9278" lon="5.46233">
        <ele>1415.2</ele>
        <time>2021-10-09T09:25:15Z</time>
      </trkpt>
      <trkpt lat="44.92782" lon="5.4623">
        <ele>1415.2</ele>
        <time>2021-10-09T09:25:16Z</time>
      </trkpt>
      <trkpt lat="44.92784" lon="5.46227">
        <ele>1415.2</ele>
        <time>2021-10-09T09:25:17Z</time>
      </trkpt>
      <trkpt lat="44.92787" lon="5.46223">
        <ele>1414.2</ele>
        <time>2021-10-09T09:25:18Z</time>
      </trkpt>
      <trkpt lat="44.92789" lon="5.46219">
        <ele>1413.6</ele>
        <time>2021-10-09T09:25:19Z</time>
      </trkpt>
      <trkpt lat="44.92791" lon="5.46214">
        <ele>1413.6</ele>
        <time>2021-10-09T09:25:20Z</time>
      </trkpt>
      <trkpt lat="44.92793" lon="5.46209">
        <ele>1413.6</ele>
        <time>2021-10-09T09:25:21Z</time>
      </trkpt>
      <trkpt lat="44.92795" lon="5.46204">
        <ele>1413.8</ele>
        <time>2021-10-09T09:25:22Z</time>
      </trkpt>
      <trkpt lat="44.92796" lon="5.46198">
        <ele>1413.6</ele>
        <time>2021-10-09T09:25:23Z</time>
      </trkpt>
      <trkpt lat="44.92798" lon="5.46193">
        <ele>1413.6</ele>
        <time>2021-10-09T09:25:24Z</time>
      </trkpt>
      <trkpt lat="44.92799" lon="5.46187">
        <ele>1413.6</ele>
        <time>2021-10-09T09:25:25Z</time>
      </trkpt>
      <trkpt lat="44.928" lon="5.46181">
        <ele>1413.4</ele>
        <time>2021-10-09T09:25:26Z</time>
      </trkpt>
      <trkpt lat="44.92801" lon="5.46174">
        <ele>1412.8</ele>
        <time>2021-10-09T09:25:27Z</time>
      </trkpt>
      <trkpt lat="44.92801" lon="5.46168">
        <ele>1412.8</ele>
        <time>2021-10-09T09:25:28Z</time>
      </trkpt>
      <trkpt lat="44.92802" lon="5.46161">
        <ele>1412.8</ele>
        <time>2021-10-09T09:25:29Z</time>
      </trkpt>
      <trkpt lat="44.92802" lon="5.46154">
        <ele>1412</ele>
        <time>2021-10-09T09:25:30Z</time>
      </trkpt>
      <trkpt lat="44.92803" lon="5.46146">
        <ele>1412.6</ele>
        <time>2021-10-09T09:25:31Z</time>
      </trkpt>
      <trkpt lat="44.92804" lon="5.46139">
        <ele>1412.6</ele>
        <time>2021-10-09T09:25:32Z</time>
      </trkpt>
      <trkpt lat="44.92806" lon="5.46132">
        <ele>1412.6</ele>
        <time>2021-10-09T09:25:33Z</time>
      </trkpt>
      <trkpt lat="44.92809" lon="5.46127">
        <ele>1411.6</ele>
        <time>2021-10-09T09:25:34Z</time>
      </trkpt>
      <trkpt lat="44.92813" lon="5.46121">
        <ele>1411.2</ele>
        <time>2021-10-09T09:25:35Z</time>
      </trkpt>
      <trkpt lat="44.92817" lon="5.46117">
        <ele>1411.2</ele>
        <time>2021-10-09T09:25:36Z</time>
      </trkpt>
      <trkpt lat="44.92822" lon="5.46114">
        <ele>1411.2</ele>
        <time>2021-10-09T09:25:37Z</time>
      </trkpt>
      <trkpt lat="44.92827" lon="5.46112">
        <ele>1411</ele>
        <time>2021-10-09T09:25:38Z</time>
      </trkpt>
      <trkpt lat="44.92832" lon="5.4611">
        <ele>1411.2</ele>
        <time>2021-10-09T09:25:39Z</time>
      </trkpt>
      <trkpt lat="44.92837" lon="5.46108">
        <ele>1411.2</ele>
        <time>2021-10-09T09:25:40Z</time>
      </trkpt>
      <trkpt lat="44.92842" lon="5.46107">
        <ele>1411.2</ele>
        <time>2021-10-09T09:25:41Z</time>
      </trkpt>
      <trkpt lat="44.92846" lon="5.46103">
        <ele>1410.4</ele>
        <time>2021-10-09T09:25:42Z</time>
      </trkpt>
      <trkpt lat="44.92849" lon="5.46098">
        <ele>1409.8</ele>
        <time>2021-10-09T09:25:43Z</time>
      </trkpt>
      <trkpt lat="44.92851" lon="5.46092">
        <ele>1409.8</ele>
        <time>2021-10-09T09:25:44Z</time>
      </trkpt>
      <trkpt lat="44.92854" lon="5.46086">
        <ele>1409.8</ele>
        <time>2021-10-09T09:25:45Z</time>
      </trkpt>
      <trkpt lat="44.92856" lon="5.4608">
        <ele>1409.8</ele>
        <time>2021-10-09T09:25:46Z</time>
      </trkpt>
      <trkpt lat="44.92859" lon="5.46075">
        <ele>1410.2</ele>
        <time>2021-10-09T09:25:47Z</time>
      </trkpt>
      <trkpt lat="44.92863" lon="5.46072">
        <ele>1410.2</ele>
        <time>2021-10-09T09:25:48Z</time>
      </trkpt>
      <trkpt lat="44.92868" lon="5.46072">
        <ele>1410.2</ele>
        <time>2021-10-09T09:25:49Z</time>
      </trkpt>
      <trkpt lat="44.92871" lon="5.46074">
        <ele>1410.2</ele>
        <time>2021-10-09T09:25:50Z</time>
      </trkpt>
      <trkpt lat="44.92873" lon="5.46078">
        <ele>1409.6</ele>
        <time>2021-10-09T09:25:51Z</time>
      </trkpt>
      <trkpt lat="44.92875" lon="5.46083">
        <ele>1409.6</ele>
        <time>2021-10-09T09:25:52Z</time>
      </trkpt>
      <trkpt lat="44.92876" lon="5.46088">
        <ele>1409.6</ele>
        <time>2021-10-09T09:25:53Z</time>
      </trkpt>
      <trkpt lat="44.92877" lon="5.46095">
        <ele>1409.6</ele>
        <time>2021-10-09T09:25:54Z</time>
      </trkpt>
      <trkpt lat="44.92877" lon="5.46102">
        <ele>1409.6</ele>
        <time>2021-10-09T09:25:55Z</time>
      </trkpt>
      <trkpt lat="44.92878" lon="5.46108">
        <ele>1409.6</ele>
        <time>2021-10-09T09:25:56Z</time>
      </trkpt>
      <trkpt lat="44.92879" lon="5.46115">
        <ele>1409.6</ele>
        <time>2021-10-09T09:25:57Z</time>
      </trkpt>
      <trkpt lat="44.92879" lon="5.46121">
        <ele>1409.2</ele>
        <time>2021-10-09T09:25:58Z</time>
      </trkpt>
      <trkpt lat="44.9288" lon="5.46128">
        <ele>1408.8</ele>
        <time>2021-10-09T09:25:59Z</time>
      </trkpt>
      <trkpt lat="44.92881" lon="5.46134">
        <ele>1408.8</ele>
        <time>2021-10-09T09:26:00Z</time>
      </trkpt>
      <trkpt lat="44.92881" lon="5.46141">
        <ele>1408.8</ele>
        <time>2021-10-09T09:26:01Z</time>
      </trkpt>
      <trkpt lat="44.92881" lon="5.46147">
        <ele>1408.8</ele>
        <time>2021-10-09T09:26:02Z</time>
      </trkpt>
      <trkpt lat="44.9288" lon="5.46155">
        <ele>1408.2</ele>
        <time>2021-10-09T09:26:03Z</time>
      </trkpt>
      <trkpt lat="44.92879" lon="5.46162">
        <ele>1408.2</ele>
        <time>2021-10-09T09:26:04Z</time>
      </trkpt>
      <trkpt lat="44.92878" lon="5.4617">
        <ele>1408.2</ele>
        <time>2021-10-09T09:26:05Z</time>
      </trkpt>
      <trkpt lat="44.92877" lon="5.46177">
        <ele>1407.2</ele>
        <time>2021-10-09T09:26:06Z</time>
      </trkpt>
      <trkpt lat="44.92874" lon="5.46184">
        <ele>1406.8</ele>
        <time>2021-10-09T09:26:07Z</time>
      </trkpt>
      <trkpt lat="44.92872" lon="5.46191">
        <ele>1406.8</ele>
        <time>2021-10-09T09:26:08Z</time>
      </trkpt>
      <trkpt lat="44.92871" lon="5.46199">
        <ele>1406.8</ele>
        <time>2021-10-09T09:26:09Z</time>
      </trkpt>
      <trkpt lat="44.92869" lon="5.46205">
        <ele>1406.8</ele>
        <time>2021-10-09T09:26:10Z</time>
      </trkpt>
      <trkpt lat="44.92867" lon="5.46213">
        <ele>1406.6</ele>
        <time>2021-10-09T09:26:11Z</time>
      </trkpt>
      <trkpt lat="44.92866" lon="5.4622">
        <ele>1406.6</ele>
        <time>2021-10-09T09:26:12Z</time>
      </trkpt>
      <trkpt lat="44.92864" lon="5.46227">
        <ele>1406.6</ele>
        <time>2021-10-09T09:26:13Z</time>
      </trkpt>
      <trkpt lat="44.92862" lon="5.46235">
        <ele>1405.8</ele>
        <time>2021-10-09T09:26:14Z</time>
      </trkpt>
      <trkpt lat="44.92861" lon="5.46242">
        <ele>1405.8</ele>
        <time>2021-10-09T09:26:15Z</time>
      </trkpt>
      <trkpt lat="44.9286" lon="5.4625">
        <ele>1405.8</ele>
        <time>2021-10-09T09:26:16Z</time>
      </trkpt>
      <trkpt lat="44.92859" lon="5.46257">
        <ele>1405.8</ele>
        <time>2021-10-09T09:26:17Z</time>
      </trkpt>
      <trkpt lat="44.92857" lon="5.46265">
        <ele>1405.8</ele>
        <time>2021-10-09T09:26:18Z</time>
      </trkpt>
      <trkpt lat="44.92856" lon="5.46273">
        <ele>1404.6</ele>
        <time>2021-10-09T09:26:19Z</time>
      </trkpt>
      <trkpt lat="44.92855" lon="5.4628">
        <ele>1404.6</ele>
        <time>2021-10-09T09:26:20Z</time>
      </trkpt>
      <trkpt lat="44.92855" lon="5.46287">
        <ele>1404.6</ele>
        <time>2021-10-09T09:26:21Z</time>
      </trkpt>
      <trkpt lat="44.92855" lon="5.46291">
        <ele>1404.6</ele>
        <time>2021-10-09T09:26:22Z</time>
      </trkpt>
      <trkpt lat="44.92858" lon="5.46297">
        <ele>1402.8</ele>
        <time>2021-10-09T09:26:23Z</time>
      </trkpt>
      <trkpt lat="44.92861" lon="5.463">
        <ele>1402.8</ele>
        <time>2021-10-09T09:26:24Z</time>
      </trkpt>
      <trkpt lat="44.92865" lon="5.46302">
        <ele>1402.8</ele>
        <time>2021-10-09T09:26:25Z</time>
      </trkpt>
      <trkpt lat="44.92871" lon="5.46301">
        <ele>1403.2</ele>
        <time>2021-10-09T09:26:26Z</time>
      </trkpt>
      <trkpt lat="44.92876" lon="5.463">
        <ele>1403.2</ele>
        <time>2021-10-09T09:26:27Z</time>
      </trkpt>
      <trkpt lat="44.92881" lon="5.46297">
        <ele>1403.2</ele>
        <time>2021-10-09T09:26:28Z</time>
      </trkpt>
      <trkpt lat="44.92885" lon="5.46292">
        <ele>1403.2</ele>
        <time>2021-10-09T09:26:29Z</time>
      </trkpt>
      <trkpt lat="44.92889" lon="5.46287">
        <ele>1403</ele>
        <time>2021-10-09T09:26:30Z</time>
      </trkpt>
      <trkpt lat="44.92893" lon="5.46283">
        <ele>1402.8</ele>
        <time>2021-10-09T09:26:31Z</time>
      </trkpt>
      <trkpt lat="44.92897" lon="5.46279">
        <ele>1402.8</ele>
        <time>2021-10-09T09:26:32Z</time>
      </trkpt>
      <trkpt lat="44.92901" lon="5.46276">
        <ele>1402.8</ele>
        <time>2021-10-09T09:26:33Z</time>
      </trkpt>
      <trkpt lat="44.92906" lon="5.46272">
        <ele>1402.8</ele>
        <time>2021-10-09T09:26:34Z</time>
      </trkpt>
      <trkpt lat="44.92909" lon="5.46266">
        <ele>1403.4</ele>
        <time>2021-10-09T09:26:35Z</time>
      </trkpt>
      <trkpt lat="44.92912" lon="5.46261">
        <ele>1403.4</ele>
        <time>2021-10-09T09:26:36Z</time>
      </trkpt>
      <trkpt lat="44.92915" lon="5.46255">
        <ele>1403.4</ele>
        <time>2021-10-09T09:26:37Z</time>
      </trkpt>
      <trkpt lat="44.92916" lon="5.46248">
        <ele>1403.4</ele>
        <time>2021-10-09T09:26:38Z</time>
      </trkpt>
      <trkpt lat="44.92918" lon="5.46242">
        <ele>1403.8</ele>
        <time>2021-10-09T09:26:39Z</time>
      </trkpt>
      <trkpt lat="44.9292" lon="5.46235">
        <ele>1403.8</ele>
        <time>2021-10-09T09:26:40Z</time>
      </trkpt>
      <trkpt lat="44.92922" lon="5.46229">
        <ele>1403.8</ele>
        <time>2021-10-09T09:26:41Z</time>
      </trkpt>
      <trkpt lat="44.92925" lon="5.46223">
        <ele>1403</ele>
        <time>2021-10-09T09:26:42Z</time>
      </trkpt>
      <trkpt lat="44.92927" lon="5.46217">
        <ele>1403.4</ele>
        <time>2021-10-09T09:26:43Z</time>
      </trkpt>
      <trkpt lat="44.92929" lon="5.46212">
        <ele>1403.4</ele>
        <time>2021-10-09T09:26:44Z</time>
      </trkpt>
      <trkpt lat="44.92932" lon="5.46206">
        <ele>1403.4</ele>
        <time>2021-10-09T09:26:45Z</time>
      </trkpt>
      <trkpt lat="44.92935" lon="5.46202">
        <ele>1403.8</ele>
        <time>2021-10-09T09:26:46Z</time>
      </trkpt>
      <trkpt lat="44.92938" lon="5.46197">
        <ele>1403.8</ele>
        <time>2021-10-09T09:26:47Z</time>
      </trkpt>
      <trkpt lat="44.92942" lon="5.46193">
        <ele>1403.8</ele>
        <time>2021-10-09T09:26:48Z</time>
      </trkpt>
      <trkpt lat="44.92945" lon="5.46189">
        <ele>1403.8</ele>
        <time>2021-10-09T09:26:49Z</time>
      </trkpt>
      <trkpt lat="44.9295" lon="5.46184">
        <ele>1403.8</ele>
        <time>2021-10-09T09:26:50Z</time>
      </trkpt>
      <trkpt lat="44.92954" lon="5.4618">
        <ele>1403.2</ele>
        <time>2021-10-09T09:26:51Z</time>
      </trkpt>
      <trkpt lat="44.92958" lon="5.46176">
        <ele>1403.2</ele>
        <time>2021-10-09T09:26:52Z</time>
      </trkpt>
      <trkpt lat="44.92963" lon="5.46172">
        <ele>1403.2</ele>
        <time>2021-10-09T09:26:53Z</time>
      </trkpt>
      <trkpt lat="44.92966" lon="5.46168">
        <ele>1403.2</ele>
        <time>2021-10-09T09:26:54Z</time>
      </trkpt>
      <trkpt lat="44.92969" lon="5.46164">
        <ele>1402.2</ele>
        <time>2021-10-09T09:26:55Z</time>
      </trkpt>
      <trkpt lat="44.92971" lon="5.46158">
        <ele>1402.2</ele>
        <time>2021-10-09T09:26:56Z</time>
      </trkpt>
      <trkpt lat="44.92971" lon="5.46151">
        <ele>1402.2</ele>
        <time>2021-10-09T09:26:57Z</time>
      </trkpt>
      <trkpt lat="44.92971" lon="5.46144">
        <ele>1401.2</ele>
        <time>2021-10-09T09:26:58Z</time>
      </trkpt>
      <trkpt lat="44.92971" lon="5.46137">
        <ele>1400.2</ele>
        <time>2021-10-09T09:26:59Z</time>
      </trkpt>
      <trkpt lat="44.92971" lon="5.46129">
        <ele>1400.2</ele>
        <time>2021-10-09T09:27:00Z</time>
      </trkpt>
      <trkpt lat="44.9297" lon="5.46121">
        <ele>1400.2</ele>
        <time>2021-10-09T09:27:01Z</time>
      </trkpt>
      <trkpt lat="44.92969" lon="5.46113">
        <ele>1399.2</ele>
        <time>2021-10-09T09:27:02Z</time>
      </trkpt>
      <trkpt lat="44.92969" lon="5.46104">
        <ele>1399.2</ele>
        <time>2021-10-09T09:27:03Z</time>
      </trkpt>
      <trkpt lat="44.92968" lon="5.46096">
        <ele>1399.2</ele>
        <time>2021-10-09T09:27:04Z</time>
      </trkpt>
      <trkpt lat="44.92967" lon="5.46088">
        <ele>1399.2</ele>
        <time>2021-10-09T09:27:05Z</time>
      </trkpt>
      <trkpt lat="44.92965" lon="5.46081">
        <ele>1398.2</ele>
        <time>2021-10-09T09:27:06Z</time>
      </trkpt>
      <trkpt lat="44.92962" lon="5.46073">
        <ele>1396.6</ele>
        <time>2021-10-09T09:27:07Z</time>
      </trkpt>
      <trkpt lat="44.9296" lon="5.46065">
        <ele>1396.6</ele>
        <time>2021-10-09T09:27:08Z</time>
      </trkpt>
      <trkpt lat="44.92957" lon="5.46056">
        <ele>1396.6</ele>
        <time>2021-10-09T09:27:09Z</time>
      </trkpt>
      <trkpt lat="44.92955" lon="5.46047">
        <ele>1396.6</ele>
        <time>2021-10-09T09:27:10Z</time>
      </trkpt>
      <trkpt lat="44.92952" lon="5.46039">
        <ele>1396.6</ele>
        <time>2021-10-09T09:27:11Z</time>
      </trkpt>
      <trkpt lat="44.92951" lon="5.46031">
        <ele>1396.6</ele>
        <time>2021-10-09T09:27:12Z</time>
      </trkpt>
      <trkpt lat="44.92952" lon="5.46023">
        <ele>1396.6</ele>
        <time>2021-10-09T09:27:13Z</time>
      </trkpt>
      <trkpt lat="44.92955" lon="5.46017">
        <ele>1395.6</ele>
        <time>2021-10-09T09:27:14Z</time>
      </trkpt>
      <trkpt lat="44.92959" lon="5.46013">
        <ele>1394.6</ele>
        <time>2021-10-09T09:27:15Z</time>
      </trkpt>
      <trkpt lat="44.92964" lon="5.46008">
        <ele>1394.6</ele>
        <time>2021-10-09T09:27:16Z</time>
      </trkpt>
      <trkpt lat="44.92969" lon="5.46004">
        <ele>1394.6</ele>
        <time>2021-10-09T09:27:17Z</time>
      </trkpt>
      <trkpt lat="44.92974" lon="5.46">
        <ele>1393.6</ele>
        <time>2021-10-09T09:27:18Z</time>
      </trkpt>
      <trkpt lat="44.92979" lon="5.45995">
        <ele>1393.4</ele>
        <time>2021-10-09T09:27:19Z</time>
      </trkpt>
      <trkpt lat="44.92984" lon="5.4599">
        <ele>1393.4</ele>
        <time>2021-10-09T09:27:20Z</time>
      </trkpt>
      <trkpt lat="44.92989" lon="5.45985">
        <ele>1393.4</ele>
        <time>2021-10-09T09:27:21Z</time>
      </trkpt>
      <trkpt lat="44.92994" lon="5.45982">
        <ele>1392.4</ele>
        <time>2021-10-09T09:27:22Z</time>
      </trkpt>
      <trkpt lat="44.93" lon="5.45976">
        <ele>1392.2</ele>
        <time>2021-10-09T09:27:23Z</time>
      </trkpt>
      <trkpt lat="44.93004" lon="5.4597">
        <ele>1392.2</ele>
        <time>2021-10-09T09:27:24Z</time>
      </trkpt>
      <trkpt lat="44.93007" lon="5.45962">
        <ele>1392.2</ele>
        <time>2021-10-09T09:27:25Z</time>
      </trkpt>
      <trkpt lat="44.93009" lon="5.45955">
        <ele>1391.6</ele>
        <time>2021-10-09T09:27:26Z</time>
      </trkpt>
      <trkpt lat="44.93008" lon="5.45948">
        <ele>1391.4</ele>
        <time>2021-10-09T09:27:27Z</time>
      </trkpt>
      <trkpt lat="44.93006" lon="5.45941">
        <ele>1391.4</ele>
        <time>2021-10-09T09:27:28Z</time>
      </trkpt>
      <trkpt lat="44.93004" lon="5.45935">
        <ele>1391.4</ele>
        <time>2021-10-09T09:27:29Z</time>
      </trkpt>
      <trkpt lat="44.93001" lon="5.45928">
        <ele>1390.4</ele>
        <time>2021-10-09T09:27:30Z</time>
      </trkpt>
      <trkpt lat="44.93" lon="5.45921">
        <ele>1389.4</ele>
        <time>2021-10-09T09:27:31Z</time>
      </trkpt>
      <trkpt lat="44.93001" lon="5.45912">
        <ele>1389.4</ele>
        <time>2021-10-09T09:27:32Z</time>
      </trkpt>
      <trkpt lat="44.93003" lon="5.45906">
        <ele>1389.4</ele>
        <time>2021-10-09T09:27:33Z</time>
      </trkpt>
      <trkpt lat="44.93004" lon="5.45898">
        <ele>1389.4</ele>
        <time>2021-10-09T09:27:34Z</time>
      </trkpt>
      <trkpt lat="44.93005" lon="5.4589">
        <ele>1388.4</ele>
        <time>2021-10-09T09:27:35Z</time>
      </trkpt>
      <trkpt lat="44.93004" lon="5.45882">
        <ele>1388.4</ele>
        <time>2021-10-09T09:27:36Z</time>
      </trkpt>
      <trkpt lat="44.93002" lon="5.45873">
        <ele>1388.4</ele>
        <time>2021-10-09T09:27:37Z</time>
      </trkpt>
      <trkpt lat="44.93001" lon="5.45865">
        <ele>1388.4</ele>
        <time>2021-10-09T09:27:38Z</time>
      </trkpt>
      <trkpt lat="44.93002" lon="5.45857">
        <ele>1388</ele>
        <time>2021-10-09T09:27:39Z</time>
      </trkpt>
      <trkpt lat="44.93002" lon="5.4585">
        <ele>1388</ele>
        <time>2021-10-09T09:27:40Z</time>
      </trkpt>
      <trkpt lat="44.93005" lon="5.45844">
        <ele>1388</ele>
        <time>2021-10-09T09:27:41Z</time>
      </trkpt>
      <trkpt lat="44.93008" lon="5.45838">
        <ele>1387</ele>
        <time>2021-10-09T09:27:42Z</time>
      </trkpt>
      <trkpt lat="44.93011" lon="5.45833">
        <ele>1386</ele>
        <time>2021-10-09T09:27:43Z</time>
      </trkpt>
      <trkpt lat="44.93016" lon="5.45829">
        <ele>1386</ele>
        <time>2021-10-09T09:27:44Z</time>
      </trkpt>
      <trkpt lat="44.9302" lon="5.45825">
        <ele>1386</ele>
        <time>2021-10-09T09:27:45Z</time>
      </trkpt>
      <trkpt lat="44.93026" lon="5.45822">
        <ele>1385</ele>
        <time>2021-10-09T09:27:46Z</time>
      </trkpt>
      <trkpt lat="44.93031" lon="5.45819">
        <ele>1384.6</ele>
        <time>2021-10-09T09:27:47Z</time>
      </trkpt>
      <trkpt lat="44.93036" lon="5.45818">
        <ele>1384.6</ele>
        <time>2021-10-09T09:27:48Z</time>
      </trkpt>
      <trkpt lat="44.93042" lon="5.45817">
        <ele>1384.6</ele>
        <time>2021-10-09T09:27:49Z</time>
      </trkpt>
      <trkpt lat="44.93048" lon="5.45815">
        <ele>1384.6</ele>
        <time>2021-10-09T09:27:50Z</time>
      </trkpt>
      <trkpt lat="44.93054" lon="5.45814">
        <ele>1383.8</ele>
        <time>2021-10-09T09:27:51Z</time>
      </trkpt>
      <trkpt lat="44.9306" lon="5.45811">
        <ele>1383.8</ele>
        <time>2021-10-09T09:27:52Z</time>
      </trkpt>
      <trkpt lat="44.93066" lon="5.45808">
        <ele>1383.8</ele>
        <time>2021-10-09T09:27:53Z</time>
      </trkpt>
      <trkpt lat="44.93072" lon="5.45804">
        <ele>1382.8</ele>
        <time>2021-10-09T09:27:54Z</time>
      </trkpt>
      <trkpt lat="44.93078" lon="5.45798">
        <ele>1380.2</ele>
        <time>2021-10-09T09:27:55Z</time>
      </trkpt>
      <trkpt lat="44.93083" lon="5.45791">
        <ele>1380.2</ele>
        <time>2021-10-09T09:27:56Z</time>
      </trkpt>
      <trkpt lat="44.93087" lon="5.45783">
        <ele>1380.2</ele>
        <time>2021-10-09T09:27:57Z</time>
      </trkpt>
      <trkpt lat="44.93093" lon="5.45775">
        <ele>1380.2</ele>
        <time>2021-10-09T09:27:58Z</time>
      </trkpt>
      <trkpt lat="44.93098" lon="5.45768">
        <ele>1381</ele>
        <time>2021-10-09T09:27:59Z</time>
      </trkpt>
      <trkpt lat="44.93103" lon="5.45762">
        <ele>1381</ele>
        <time>2021-10-09T09:28:00Z</time>
      </trkpt>
      <trkpt lat="44.93106" lon="5.45755">
        <ele>1381</ele>
        <time>2021-10-09T09:28:01Z</time>
      </trkpt>
      <trkpt lat="44.93109" lon="5.45748">
        <ele>1381</ele>
        <time>2021-10-09T09:28:02Z</time>
      </trkpt>
      <trkpt lat="44.93112" lon="5.4574">
        <ele>1378.8</ele>
        <time>2021-10-09T09:28:03Z</time>
      </trkpt>
      <trkpt lat="44.93115" lon="5.45732">
        <ele>1378.8</ele>
        <time>2021-10-09T09:28:04Z</time>
      </trkpt>
      <trkpt lat="44.9312" lon="5.45725">
        <ele>1378.8</ele>
        <time>2021-10-09T09:28:05Z</time>
      </trkpt>
      <trkpt lat="44.93125" lon="5.4572">
        <ele>1378.8</ele>
        <time>2021-10-09T09:28:06Z</time>
      </trkpt>
      <trkpt lat="44.9313" lon="5.45716">
        <ele>1379.2</ele>
        <time>2021-10-09T09:28:07Z</time>
      </trkpt>
      <trkpt lat="44.93135" lon="5.45711">
        <ele>1379.2</ele>
        <time>2021-10-09T09:28:08Z</time>
      </trkpt>
      <trkpt lat="44.9314" lon="5.45706">
        <ele>1379.2</ele>
        <time>2021-10-09T09:28:09Z</time>
      </trkpt>
      <trkpt lat="44.93145" lon="5.457">
        <ele>1378.2</ele>
        <time>2021-10-09T09:28:10Z</time>
      </trkpt>
      <trkpt lat="44.93149" lon="5.45694">
        <ele>1377.4</ele>
        <time>2021-10-09T09:28:11Z</time>
      </trkpt>
      <trkpt lat="44.93153" lon="5.45686">
        <ele>1377.4</ele>
        <time>2021-10-09T09:28:12Z</time>
      </trkpt>
      <trkpt lat="44.93157" lon="5.45679">
        <ele>1377.4</ele>
        <time>2021-10-09T09:28:13Z</time>
      </trkpt>
      <trkpt lat="44.93163" lon="5.45673">
        <ele>1376.4</ele>
        <time>2021-10-09T09:28:14Z</time>
      </trkpt>
      <trkpt lat="44.93168" lon="5.45667">
        <ele>1375</ele>
        <time>2021-10-09T09:28:15Z</time>
      </trkpt>
      <trkpt lat="44.93174" lon="5.45662">
        <ele>1375</ele>
        <time>2021-10-09T09:28:16Z</time>
      </trkpt>
      <trkpt lat="44.93181" lon="5.45657">
        <ele>1375</ele>
        <time>2021-10-09T09:28:17Z</time>
      </trkpt>
      <trkpt lat="44.93187" lon="5.45655">
        <ele>1374.6</ele>
        <time>2021-10-09T09:28:18Z</time>
      </trkpt>
      <trkpt lat="44.93193" lon="5.45655">
        <ele>1373.4</ele>
        <time>2021-10-09T09:28:19Z</time>
      </trkpt>
      <trkpt lat="44.93199" lon="5.45654">
        <ele>1373.4</ele>
        <time>2021-10-09T09:28:20Z</time>
      </trkpt>
      <trkpt lat="44.93205" lon="5.45652">
        <ele>1373.4</ele>
        <time>2021-10-09T09:28:21Z</time>
      </trkpt>
      <trkpt lat="44.93212" lon="5.45648">
        <ele>1373.4</ele>
        <time>2021-10-09T09:28:22Z</time>
      </trkpt>
      <trkpt lat="44.93218" lon="5.45642">
        <ele>1371.8</ele>
        <time>2021-10-09T09:28:23Z</time>
      </trkpt>
      <trkpt lat="44.93223" lon="5.45637">
        <ele>1371.8</ele>
        <time>2021-10-09T09:28:24Z</time>
      </trkpt>
      <trkpt lat="44.93228" lon="5.45632">
        <ele>1371.8</ele>
        <time>2021-10-09T09:28:25Z</time>
      </trkpt>
      <trkpt lat="44.93234" lon="5.45627">
        <ele>1371</ele>
        <time>2021-10-09T09:28:26Z</time>
      </trkpt>
      <trkpt lat="44.93239" lon="5.45623">
        <ele>1371</ele>
        <time>2021-10-09T09:28:27Z</time>
      </trkpt>
      <trkpt lat="44.93245" lon="5.45619">
        <ele>1371</ele>
        <time>2021-10-09T09:28:28Z</time>
      </trkpt>
      <trkpt lat="44.9325" lon="5.45618">
        <ele>1371</ele>
        <time>2021-10-09T09:28:29Z</time>
      </trkpt>
      <trkpt lat="44.93256" lon="5.45615">
        <ele>1370</ele>
        <time>2021-10-09T09:28:30Z</time>
      </trkpt>
      <trkpt lat="44.93261" lon="5.45613">
        <ele>1368.8</ele>
        <time>2021-10-09T09:28:31Z</time>
      </trkpt>
      <trkpt lat="44.93267" lon="5.45609">
        <ele>1368.8</ele>
        <time>2021-10-09T09:28:32Z</time>
      </trkpt>
      <trkpt lat="44.93274" lon="5.45606">
        <ele>1368.8</ele>
        <time>2021-10-09T09:28:33Z</time>
      </trkpt>
      <trkpt lat="44.9328" lon="5.45606">
        <ele>1368</ele>
        <time>2021-10-09T09:28:34Z</time>
      </trkpt>
      <trkpt lat="44.93286" lon="5.45605">
        <ele>1367.2</ele>
        <time>2021-10-09T09:28:35Z</time>
      </trkpt>
      <trkpt lat="44.93291" lon="5.45603">
        <ele>1367.2</ele>
        <time>2021-10-09T09:28:36Z</time>
      </trkpt>
      <trkpt lat="44.93297" lon="5.45598">
        <ele>1367.2</ele>
        <time>2021-10-09T09:28:37Z</time>
      </trkpt>
      <trkpt lat="44.93303" lon="5.45593">
        <ele>1367.2</ele>
        <time>2021-10-09T09:28:38Z</time>
      </trkpt>
      <trkpt lat="44.93309" lon="5.45586">
        <ele>1365.4</ele>
        <time>2021-10-09T09:28:39Z</time>
      </trkpt>
      <trkpt lat="44.93315" lon="5.45579">
        <ele>1365.4</ele>
        <time>2021-10-09T09:28:40Z</time>
      </trkpt>
      <trkpt lat="44.93319" lon="5.4557">
        <ele>1365.4</ele>
        <time>2021-10-09T09:28:41Z</time>
      </trkpt>
      <trkpt lat="44.93323" lon="5.45562">
        <ele>1365.4</ele>
        <time>2021-10-09T09:28:42Z</time>
      </trkpt>
      <trkpt lat="44.93328" lon="5.45555">
        <ele>1365.6</ele>
        <time>2021-10-09T09:28:43Z</time>
      </trkpt>
      <trkpt lat="44.93334" lon="5.45549">
        <ele>1365.6</ele>
        <time>2021-10-09T09:28:44Z</time>
      </trkpt>
      <trkpt lat="44.93338" lon="5.45543">
        <ele>1365.6</ele>
        <time>2021-10-09T09:28:45Z</time>
      </trkpt>
      <trkpt lat="44.93342" lon="5.45536">
        <ele>1365.6</ele>
        <time>2021-10-09T09:28:46Z</time>
      </trkpt>
      <trkpt lat="44.93345" lon="5.45528">
        <ele>1365</ele>
        <time>2021-10-09T09:28:47Z</time>
      </trkpt>
      <trkpt lat="44.93348" lon="5.45518">
        <ele>1365</ele>
        <time>2021-10-09T09:28:48Z</time>
      </trkpt>
      <trkpt lat="44.93349" lon="5.45509">
        <ele>1365</ele>
        <time>2021-10-09T09:28:49Z</time>
      </trkpt>
      <trkpt lat="44.9335" lon="5.455">
        <ele>1364</ele>
        <time>2021-10-09T09:28:50Z</time>
      </trkpt>
      <trkpt lat="44.93352" lon="5.45491">
        <ele>1364.8</ele>
        <time>2021-10-09T09:28:51Z</time>
      </trkpt>
      <trkpt lat="44.93354" lon="5.45483">
        <ele>1364.8</ele>
        <time>2021-10-09T09:28:52Z</time>
      </trkpt>
      <trkpt lat="44.93356" lon="5.45474">
        <ele>1364.8</ele>
        <time>2021-10-09T09:28:53Z</time>
      </trkpt>
      <trkpt lat="44.93359" lon="5.45466">
        <ele>1364.8</ele>
        <time>2021-10-09T09:28:54Z</time>
      </trkpt>
      <trkpt lat="44.93361" lon="5.45458">
        <ele>1364.6</ele>
        <time>2021-10-09T09:28:55Z</time>
      </trkpt>
      <trkpt lat="44.93363" lon="5.4545">
        <ele>1364.6</ele>
        <time>2021-10-09T09:28:56Z</time>
      </trkpt>
      <trkpt lat="44.93364" lon="5.45443">
        <ele>1364.6</ele>
        <time>2021-10-09T09:28:57Z</time>
      </trkpt>
      <trkpt lat="44.93364" lon="5.45437">
        <ele>1364.6</ele>
        <time>2021-10-09T09:28:58Z</time>
      </trkpt>
      <trkpt lat="44.93364" lon="5.45433">
        <ele>1365.6</ele>
        <time>2021-10-09T09:28:59Z</time>
      </trkpt>
      <trkpt lat="44.93365" lon="5.4543">
        <ele>1365.8</ele>
        <time>2021-10-09T09:29:00Z</time>
      </trkpt>
      <trkpt lat="44.93365" lon="5.45427">
        <ele>1365.8</ele>
        <time>2021-10-09T09:29:01Z</time>
      </trkpt>
      <trkpt lat="44.93366" lon="5.45426">
        <ele>1365.8</ele>
        <time>2021-10-09T09:29:02Z</time>
      </trkpt>
      <trkpt lat="44.93367" lon="5.45426">
        <ele>1365.8</ele>
        <time>2021-10-09T09:29:03Z</time>
      </trkpt>
      <trkpt lat="44.93369" lon="5.45419">
        <ele>1365.6</ele>
        <time>2021-10-09T09:29:16Z</time>
      </trkpt>
      <trkpt lat="44.93369" lon="5.45416">
        <ele>1365.6</ele>
        <time>2021-10-09T09:29:17Z</time>
      </trkpt>
      <trkpt lat="44.93369" lon="5.45413">
        <ele>1365.6</ele>
        <time>2021-10-09T09:29:18Z</time>
      </trkpt>
      <trkpt lat="44.9337" lon="5.4541">
        <ele>1364.6</ele>
        <time>2021-10-09T09:29:19Z</time>
      </trkpt>
      <trkpt lat="44.93372" lon="5.45406">
        <ele>1364</ele>
        <time>2021-10-09T09:29:20Z</time>
      </trkpt>
      <trkpt lat="44.93373" lon="5.45401">
        <ele>1364</ele>
        <time>2021-10-09T09:29:21Z</time>
      </trkpt>
      <trkpt lat="44.93374" lon="5.45396">
        <ele>1364</ele>
        <time>2021-10-09T09:29:22Z</time>
      </trkpt>
      <trkpt lat="44.93375" lon="5.45391">
        <ele>1364</ele>
        <time>2021-10-09T09:29:23Z</time>
      </trkpt>
      <trkpt lat="44.93377" lon="5.45385">
        <ele>1363.6</ele>
        <time>2021-10-09T09:29:24Z</time>
      </trkpt>
      <trkpt lat="44.93378" lon="5.45379">
        <ele>1363.6</ele>
        <time>2021-10-09T09:29:25Z</time>
      </trkpt>
      <trkpt lat="44.93379" lon="5.45372">
        <ele>1363.6</ele>
        <time>2021-10-09T09:29:26Z</time>
      </trkpt>
      <trkpt lat="44.93379" lon="5.45365">
        <ele>1362.8</ele>
        <time>2021-10-09T09:29:27Z</time>
      </trkpt>
      <trkpt lat="44.9338" lon="5.45358">
        <ele>1362.2</ele>
        <time>2021-10-09T09:29:28Z</time>
      </trkpt>
      <trkpt lat="44.93379" lon="5.45351">
        <ele>1362.2</ele>
        <time>2021-10-09T09:29:29Z</time>
      </trkpt>
      <trkpt lat="44.93379" lon="5.45343">
        <ele>1362.2</ele>
        <time>2021-10-09T09:29:30Z</time>
      </trkpt>
      <trkpt lat="44.93379" lon="5.45337">
        <ele>1362.2</ele>
        <time>2021-10-09T09:29:31Z</time>
      </trkpt>
      <trkpt lat="44.93382" lon="5.45333">
        <ele>1361</ele>
        <time>2021-10-09T09:29:32Z</time>
      </trkpt>
      <trkpt lat="44.93385" lon="5.45331">
        <ele>1361</ele>
        <time>2021-10-09T09:29:33Z</time>
      </trkpt>
      <trkpt lat="44.93387" lon="5.45333">
        <ele>1361</ele>
        <time>2021-10-09T09:29:34Z</time>
      </trkpt>
      <trkpt lat="44.93389" lon="5.45337">
        <ele>1360.2</ele>
        <time>2021-10-09T09:29:35Z</time>
      </trkpt>
      <trkpt lat="44.93391" lon="5.45342">
        <ele>1360.4</ele>
        <time>2021-10-09T09:29:36Z</time>
      </trkpt>
      <trkpt lat="44.93391" lon="5.45348">
        <ele>1360.4</ele>
        <time>2021-10-09T09:29:37Z</time>
      </trkpt>
      <trkpt lat="44.9339" lon="5.45352">
        <ele>1360.4</ele>
        <time>2021-10-09T09:29:38Z</time>
      </trkpt>
      <trkpt lat="44.93389" lon="5.45358">
        <ele>1360.4</ele>
        <time>2021-10-09T09:29:39Z</time>
      </trkpt>
      <trkpt lat="44.93388" lon="5.45364">
        <ele>1359.2</ele>
        <time>2021-10-09T09:29:40Z</time>
      </trkpt>
      <trkpt lat="44.93388" lon="5.45369">
        <ele>1359.2</ele>
        <time>2021-10-09T09:29:41Z</time>
      </trkpt>
      <trkpt lat="44.93388" lon="5.45376">
        <ele>1359.2</ele>
        <time>2021-10-09T09:29:42Z</time>
      </trkpt>
      <trkpt lat="44.93388" lon="5.45381">
        <ele>1359.2</ele>
        <time>2021-10-09T09:29:43Z</time>
      </trkpt>
      <trkpt lat="44.93389" lon="5.45388">
        <ele>1358.8</ele>
        <time>2021-10-09T09:29:44Z</time>
      </trkpt>
      <trkpt lat="44.93391" lon="5.45395">
        <ele>1358.8</ele>
        <time>2021-10-09T09:29:45Z</time>
      </trkpt>
      <trkpt lat="44.93392" lon="5.45402">
        <ele>1358.8</ele>
        <time>2021-10-09T09:29:46Z</time>
      </trkpt>
      <trkpt lat="44.93393" lon="5.45409">
        <ele>1357.8</ele>
        <time>2021-10-09T09:29:47Z</time>
      </trkpt>
      <trkpt lat="44.93395" lon="5.45416">
        <ele>1357.4</ele>
        <time>2021-10-09T09:29:48Z</time>
      </trkpt>
      <trkpt lat="44.93396" lon="5.45424">
        <ele>1357.4</ele>
        <time>2021-10-09T09:29:49Z</time>
      </trkpt>
      <trkpt lat="44.93398" lon="5.45431">
        <ele>1357.4</ele>
        <time>2021-10-09T09:29:50Z</time>
      </trkpt>
      <trkpt lat="44.93398" lon="5.45439">
        <ele>1356.4</ele>
        <time>2021-10-09T09:29:51Z</time>
      </trkpt>
      <trkpt lat="44.93399" lon="5.45445">
        <ele>1356.4</ele>
        <time>2021-10-09T09:29:52Z</time>
      </trkpt>
      <trkpt lat="44.934" lon="5.4545">
        <ele>1356.4</ele>
        <time>2021-10-09T09:29:53Z</time>
      </trkpt>
      <trkpt lat="44.93401" lon="5.45456">
        <ele>1356.4</ele>
        <time>2021-10-09T09:29:54Z</time>
      </trkpt>
      <trkpt lat="44.93401" lon="5.45462">
        <ele>1356.4</ele>
        <time>2021-10-09T09:29:55Z</time>
      </trkpt>
      <trkpt lat="44.93401" lon="5.45469">
        <ele>1354.2</ele>
        <time>2021-10-09T09:29:56Z</time>
      </trkpt>
      <trkpt lat="44.934" lon="5.45476">
        <ele>1354.2</ele>
        <time>2021-10-09T09:29:57Z</time>
      </trkpt>
      <trkpt lat="44.93399" lon="5.45482">
        <ele>1354.2</ele>
        <time>2021-10-09T09:29:58Z</time>
      </trkpt>
      <trkpt lat="44.93397" lon="5.45489">
        <ele>1354.2</ele>
        <time>2021-10-09T09:29:59Z</time>
      </trkpt>
      <trkpt lat="44.93396" lon="5.45496">
        <ele>1353.6</ele>
        <time>2021-10-09T09:30:00Z</time>
      </trkpt>
      <trkpt lat="44.93394" lon="5.45504">
        <ele>1353.6</ele>
        <time>2021-10-09T09:30:01Z</time>
      </trkpt>
      <trkpt lat="44.93393" lon="5.45511">
        <ele>1353.6</ele>
        <time>2021-10-09T09:30:02Z</time>
      </trkpt>
      <trkpt lat="44.93391" lon="5.45518">
        <ele>1353.6</ele>
        <time>2021-10-09T09:30:03Z</time>
      </trkpt>
      <trkpt lat="44.93389" lon="5.45524">
        <ele>1352.6</ele>
        <time>2021-10-09T09:30:04Z</time>
      </trkpt>
      <trkpt lat="44.93386" lon="5.45529">
        <ele>1352.6</ele>
        <time>2021-10-09T09:30:05Z</time>
      </trkpt>
      <trkpt lat="44.93383" lon="5.45534">
        <ele>1352.6</ele>
        <time>2021-10-09T09:30:06Z</time>
      </trkpt>
      <trkpt lat="44.9338" lon="5.4554">
        <ele>1352.6</ele>
        <time>2021-10-09T09:30:07Z</time>
      </trkpt>
      <trkpt lat="44.93377" lon="5.45546">
        <ele>1351.2</ele>
        <time>2021-10-09T09:30:08Z</time>
      </trkpt>
      <trkpt lat="44.93373" lon="5.45551">
        <ele>1351.2</ele>
        <time>2021-10-09T09:30:09Z</time>
      </trkpt>
      <trkpt lat="44.9337" lon="5.45558">
        <ele>1351.2</ele>
        <time>2021-10-09T09:30:10Z</time>
      </trkpt>
      <trkpt lat="44.93367" lon="5.45564">
        <ele>1350.2</ele>
        <time>2021-10-09T09:30:11Z</time>
      </trkpt>
      <trkpt lat="44.93365" lon="5.45572">
        <ele>1350.4</ele>
        <time>2021-10-09T09:30:12Z</time>
      </trkpt>
      <trkpt lat="44.93364" lon="5.45581">
        <ele>1350.4</ele>
        <time>2021-10-09T09:30:13Z</time>
      </trkpt>
      <trkpt lat="44.93362" lon="5.45589">
        <ele>1350.4</ele>
        <time>2021-10-09T09:30:14Z</time>
      </trkpt>
      <trkpt lat="44.9336" lon="5.45597">
        <ele>1349.6</ele>
        <time>2021-10-09T09:30:15Z</time>
      </trkpt>
      <trkpt lat="44.93358" lon="5.45604">
        <ele>1349.6</ele>
        <time>2021-10-09T09:30:16Z</time>
      </trkpt>
      <trkpt lat="44.93357" lon="5.45612">
        <ele>1349.6</ele>
        <time>2021-10-09T09:30:17Z</time>
      </trkpt>
      <trkpt lat="44.93356" lon="5.4562">
        <ele>1349.6</ele>
        <time>2021-10-09T09:30:18Z</time>
      </trkpt>
      <trkpt lat="44.93355" lon="5.45628">
        <ele>1350.4</ele>
        <time>2021-10-09T09:30:19Z</time>
      </trkpt>
      <trkpt lat="44.93355" lon="5.45635">
        <ele>1350</ele>
        <time>2021-10-09T09:30:20Z</time>
      </trkpt>
      <trkpt lat="44.93355" lon="5.45642">
        <ele>1350</ele>
        <time>2021-10-09T09:30:21Z</time>
      </trkpt>
      <trkpt lat="44.93355" lon="5.45649">
        <ele>1350</ele>
        <time>2021-10-09T09:30:22Z</time>
      </trkpt>
      <trkpt lat="44.93355" lon="5.45655">
        <ele>1350.6</ele>
        <time>2021-10-09T09:30:23Z</time>
      </trkpt>
      <trkpt lat="44.93356" lon="5.45659">
        <ele>1350.4</ele>
        <time>2021-10-09T09:30:24Z</time>
      </trkpt>
      <trkpt lat="44.93357" lon="5.45664">
        <ele>1350.4</ele>
        <time>2021-10-09T09:30:25Z</time>
      </trkpt>
      <trkpt lat="44.93359" lon="5.45669">
        <ele>1350.4</ele>
        <time>2021-10-09T09:30:26Z</time>
      </trkpt>
      <trkpt lat="44.93362" lon="5.45673">
        <ele>1350.4</ele>
        <time>2021-10-09T09:30:27Z</time>
      </trkpt>
      <trkpt lat="44.93364" lon="5.45677">
        <ele>1349.8</ele>
        <time>2021-10-09T09:30:28Z</time>
      </trkpt>
      <trkpt lat="44.93367" lon="5.4568">
        <ele>1349.8</ele>
        <time>2021-10-09T09:30:29Z</time>
      </trkpt>
      <trkpt lat="44.9337" lon="5.45684">
        <ele>1349.8</ele>
        <time>2021-10-09T09:30:30Z</time>
      </trkpt>
      <trkpt lat="44.93374" lon="5.45687">
        <ele>1349.8</ele>
        <time>2021-10-09T09:30:31Z</time>
      </trkpt>
      <trkpt lat="44.93377" lon="5.4569">
        <ele>1349.6</ele>
        <time>2021-10-09T09:30:32Z</time>
      </trkpt>
      <trkpt lat="44.9338" lon="5.45693">
        <ele>1349.6</ele>
        <time>2021-10-09T09:30:33Z</time>
      </trkpt>
      <trkpt lat="44.93383" lon="5.45697">
        <ele>1349.6</ele>
        <time>2021-10-09T09:30:34Z</time>
      </trkpt>
      <trkpt lat="44.93386" lon="5.457">
        <ele>1349.2</ele>
        <time>2021-10-09T09:30:35Z</time>
      </trkpt>
      <trkpt lat="44.93389" lon="5.45702">
        <ele>1349.4</ele>
        <time>2021-10-09T09:30:36Z</time>
      </trkpt>
      <trkpt lat="44.93393" lon="5.45704">
        <ele>1349.4</ele>
        <time>2021-10-09T09:30:37Z</time>
      </trkpt>
      <trkpt lat="44.93397" lon="5.45705">
        <ele>1349.4</ele>
        <time>2021-10-09T09:30:38Z</time>
      </trkpt>
      <trkpt lat="44.93401" lon="5.45705">
        <ele>1349.4</ele>
        <time>2021-10-09T09:30:39Z</time>
      </trkpt>
      <trkpt lat="44.93405" lon="5.45705">
        <ele>1348.4</ele>
        <time>2021-10-09T09:30:40Z</time>
      </trkpt>
      <trkpt lat="44.93409" lon="5.45704">
        <ele>1348.4</ele>
        <time>2021-10-09T09:30:41Z</time>
      </trkpt>
      <trkpt lat="44.93414" lon="5.45703">
        <ele>1348.4</ele>
        <time>2021-10-09T09:30:42Z</time>
      </trkpt>
      <trkpt lat="44.93418" lon="5.45702">
        <ele>1348.8</ele>
        <time>2021-10-09T09:30:43Z</time>
      </trkpt>
      <trkpt lat="44.93422" lon="5.45701">
        <ele>1348.8</ele>
        <time>2021-10-09T09:30:44Z</time>
      </trkpt>
      <trkpt lat="44.93426" lon="5.457">
        <ele>1348.8</ele>
        <time>2021-10-09T09:30:45Z</time>
      </trkpt>
      <trkpt lat="44.9343" lon="5.457">
        <ele>1348.8</ele>
        <time>2021-10-09T09:30:46Z</time>
      </trkpt>
      <trkpt lat="44.93434" lon="5.457">
        <ele>1349.4</ele>
        <time>2021-10-09T09:30:47Z</time>
      </trkpt>
      <trkpt lat="44.93437" lon="5.45698">
        <ele>1349.4</ele>
        <time>2021-10-09T09:30:48Z</time>
      </trkpt>
      <trkpt lat="44.93441" lon="5.45698">
        <ele>1349.4</ele>
        <time>2021-10-09T09:30:49Z</time>
      </trkpt>
      <trkpt lat="44.93444" lon="5.45696">
        <ele>1349.4</ele>
        <time>2021-10-09T09:30:50Z</time>
      </trkpt>
      <trkpt lat="44.93448" lon="5.45695">
        <ele>1350</ele>
        <time>2021-10-09T09:30:51Z</time>
      </trkpt>
      <trkpt lat="44.93451" lon="5.45694">
        <ele>1349.4</ele>
        <time>2021-10-09T09:30:52Z</time>
      </trkpt>
      <trkpt lat="44.93454" lon="5.45692">
        <ele>1349.4</ele>
        <time>2021-10-09T09:30:53Z</time>
      </trkpt>
      <trkpt lat="44.93458" lon="5.4569">
        <ele>1349.4</ele>
        <time>2021-10-09T09:30:54Z</time>
      </trkpt>
      <trkpt lat="44.93461" lon="5.45688">
        <ele>1349.4</ele>
        <time>2021-10-09T09:30:55Z</time>
      </trkpt>
      <trkpt lat="44.93464" lon="5.45685">
        <ele>1349.4</ele>
        <time>2021-10-09T09:30:56Z</time>
      </trkpt>
      <trkpt lat="44.93467" lon="5.45683">
        <ele>1349.4</ele>
        <time>2021-10-09T09:30:57Z</time>
      </trkpt>
      <trkpt lat="44.93471" lon="5.4568">
        <ele>1349.4</ele>
        <time>2021-10-09T09:30:58Z</time>
      </trkpt>
      <trkpt lat="44.93474" lon="5.45677">
        <ele>1349.4</ele>
        <time>2021-10-09T09:30:59Z</time>
      </trkpt>
      <trkpt lat="44.93477" lon="5.45674">
        <ele>1347.6</ele>
        <time>2021-10-09T09:31:00Z</time>
      </trkpt>
      <trkpt lat="44.93481" lon="5.45671">
        <ele>1347.6</ele>
        <time>2021-10-09T09:31:01Z</time>
      </trkpt>
      <trkpt lat="44.93485" lon="5.45668">
        <ele>1347.6</ele>
        <time>2021-10-09T09:31:02Z</time>
      </trkpt>
      <trkpt lat="44.93489" lon="5.45666">
        <ele>1347.6</ele>
        <time>2021-10-09T09:31:03Z</time>
      </trkpt>
      <trkpt lat="44.93493" lon="5.45663">
        <ele>1347.4</ele>
        <time>2021-10-09T09:31:04Z</time>
      </trkpt>
      <trkpt lat="44.93497" lon="5.4566">
        <ele>1347.4</ele>
        <time>2021-10-09T09:31:05Z</time>
      </trkpt>
      <trkpt lat="44.93501" lon="5.45657">
        <ele>1347.4</ele>
        <time>2021-10-09T09:31:06Z</time>
      </trkpt>
      <trkpt lat="44.93504" lon="5.45652">
        <ele>1347.4</ele>
        <time>2021-10-09T09:31:07Z</time>
      </trkpt>
      <trkpt lat="44.93508" lon="5.45648">
        <ele>1346</ele>
        <time>2021-10-09T09:31:08Z</time>
      </trkpt>
      <trkpt lat="44.93512" lon="5.45644">
        <ele>1346</ele>
        <time>2021-10-09T09:31:09Z</time>
      </trkpt>
      <trkpt lat="44.93516" lon="5.4564">
        <ele>1346</ele>
        <time>2021-10-09T09:31:10Z</time>
      </trkpt>
      <trkpt lat="44.9352" lon="5.45636">
        <ele>1345.2</ele>
        <time>2021-10-09T09:31:11Z</time>
      </trkpt>
      <trkpt lat="44.93524" lon="5.45633">
        <ele>1345.8</ele>
        <time>2021-10-09T09:31:12Z</time>
      </trkpt>
      <trkpt lat="44.93529" lon="5.45631">
        <ele>1345.8</ele>
        <time>2021-10-09T09:31:13Z</time>
      </trkpt>
      <trkpt lat="44.93533" lon="5.45631">
        <ele>1345.8</ele>
        <time>2021-10-09T09:31:14Z</time>
      </trkpt>
      <trkpt lat="44.93538" lon="5.4563">
        <ele>1345.8</ele>
        <time>2021-10-09T09:31:15Z</time>
      </trkpt>
      <trkpt lat="44.93542" lon="5.45632">
        <ele>1344.6</ele>
        <time>2021-10-09T09:31:16Z</time>
      </trkpt>
      <trkpt lat="44.93547" lon="5.45636">
        <ele>1344.6</ele>
        <time>2021-10-09T09:31:17Z</time>
      </trkpt>
      <trkpt lat="44.93551" lon="5.45639">
        <ele>1344.6</ele>
        <time>2021-10-09T09:31:18Z</time>
      </trkpt>
      <trkpt lat="44.93555" lon="5.45642">
        <ele>1345.2</ele>
        <time>2021-10-09T09:31:19Z</time>
      </trkpt>
      <trkpt lat="44.93559" lon="5.45645">
        <ele>1345.8</ele>
        <time>2021-10-09T09:31:20Z</time>
      </trkpt>
      <trkpt lat="44.93563" lon="5.45648">
        <ele>1345.8</ele>
        <time>2021-10-09T09:31:21Z</time>
      </trkpt>
      <trkpt lat="44.93567" lon="5.4565">
        <ele>1345.8</ele>
        <time>2021-10-09T09:31:22Z</time>
      </trkpt>
      <trkpt lat="44.9357" lon="5.45651">
        <ele>1346.8</ele>
        <time>2021-10-09T09:31:23Z</time>
      </trkpt>
      <trkpt lat="44.93575" lon="5.45653">
        <ele>1347.4</ele>
        <time>2021-10-09T09:31:24Z</time>
      </trkpt>
      <trkpt lat="44.93578" lon="5.45654">
        <ele>1347.4</ele>
        <time>2021-10-09T09:31:25Z</time>
      </trkpt>
      <trkpt lat="44.93582" lon="5.45655">
        <ele>1347.4</ele>
        <time>2021-10-09T09:31:26Z</time>
      </trkpt>
      <trkpt lat="44.93585" lon="5.45656">
        <ele>1347.2</ele>
        <time>2021-10-09T09:31:27Z</time>
      </trkpt>
      <trkpt lat="44.93588" lon="5.45657">
        <ele>1347</ele>
        <time>2021-10-09T09:31:28Z</time>
      </trkpt>
      <trkpt lat="44.93592" lon="5.45658">
        <ele>1347</ele>
        <time>2021-10-09T09:31:29Z</time>
      </trkpt>
      <trkpt lat="44.93595" lon="5.45659">
        <ele>1347</ele>
        <time>2021-10-09T09:31:30Z</time>
      </trkpt>
      <trkpt lat="44.93598" lon="5.45659">
        <ele>1347.2</ele>
        <time>2021-10-09T09:31:31Z</time>
      </trkpt>
      <trkpt lat="44.93602" lon="5.4566">
        <ele>1347.8</ele>
        <time>2021-10-09T09:31:32Z</time>
      </trkpt>
      <trkpt lat="44.93605" lon="5.4566">
        <ele>1347.8</ele>
        <time>2021-10-09T09:31:33Z</time>
      </trkpt>
      <trkpt lat="44.93608" lon="5.4566">
        <ele>1347.8</ele>
        <time>2021-10-09T09:31:34Z</time>
      </trkpt>
      <trkpt lat="44.93611" lon="5.4566">
        <ele>1347.8</ele>
        <time>2021-10-09T09:31:35Z</time>
      </trkpt>
      <trkpt lat="44.93615" lon="5.45662">
        <ele>1348.6</ele>
        <time>2021-10-09T09:31:36Z</time>
      </trkpt>
      <trkpt lat="44.93617" lon="5.45662">
        <ele>1348.6</ele>
        <time>2021-10-09T09:31:37Z</time>
      </trkpt>
      <trkpt lat="44.9362" lon="5.45664">
        <ele>1348.6</ele>
        <time>2021-10-09T09:31:38Z</time>
      </trkpt>
      <trkpt lat="44.93623" lon="5.45666">
        <ele>1348.6</ele>
        <time>2021-10-09T09:31:39Z</time>
      </trkpt>
      <trkpt lat="44.93626" lon="5.45667">
        <ele>1349.2</ele>
        <time>2021-10-09T09:31:40Z</time>
      </trkpt>
      <trkpt lat="44.93628" lon="5.45669">
        <ele>1349.2</ele>
        <time>2021-10-09T09:31:41Z</time>
      </trkpt>
      <trkpt lat="44.93629" lon="5.45671">
        <ele>1349.2</ele>
        <time>2021-10-09T09:31:42Z</time>
      </trkpt>
      <trkpt lat="44.93631" lon="5.45674">
        <ele>1350</ele>
        <time>2021-10-09T09:31:43Z</time>
      </trkpt>
      <trkpt lat="44.93632" lon="5.45677">
        <ele>1350.2</ele>
        <time>2021-10-09T09:31:44Z</time>
      </trkpt>
      <trkpt lat="44.93634" lon="5.45679">
        <ele>1350.2</ele>
        <time>2021-10-09T09:31:45Z</time>
      </trkpt>
      <trkpt lat="44.93635" lon="5.45681">
        <ele>1350.2</ele>
        <time>2021-10-09T09:31:46Z</time>
      </trkpt>
      <trkpt lat="44.93636" lon="5.45684">
        <ele>1350.8</ele>
        <time>2021-10-09T09:31:47Z</time>
      </trkpt>
      <trkpt lat="44.93637" lon="5.45686">
        <ele>1350.8</ele>
        <time>2021-10-09T09:31:48Z</time>
      </trkpt>
      <trkpt lat="44.93638" lon="5.45689">
        <ele>1350.8</ele>
        <time>2021-10-09T09:31:49Z</time>
      </trkpt>
      <trkpt lat="44.93639" lon="5.45693">
        <ele>1350.8</ele>
        <time>2021-10-09T09:31:50Z</time>
      </trkpt>
      <trkpt lat="44.9364" lon="5.45696">
        <ele>1351.2</ele>
        <time>2021-10-09T09:31:51Z</time>
      </trkpt>
      <trkpt lat="44.93641" lon="5.45698">
        <ele>1351.2</ele>
        <time>2021-10-09T09:31:52Z</time>
      </trkpt>
      <trkpt lat="44.93642" lon="5.45702">
        <ele>1351.2</ele>
        <time>2021-10-09T09:31:53Z</time>
      </trkpt>
      <trkpt lat="44.93642" lon="5.45705">
        <ele>1351.2</ele>
        <time>2021-10-09T09:31:54Z</time>
      </trkpt>
      <trkpt lat="44.93643" lon="5.45709">
        <ele>1351.2</ele>
        <time>2021-10-09T09:31:55Z</time>
      </trkpt>
      <trkpt lat="44.93644" lon="5.45712">
        <ele>1352.4</ele>
        <time>2021-10-09T09:31:56Z</time>
      </trkpt>
      <trkpt lat="44.93645" lon="5.45715">
        <ele>1352.4</ele>
        <time>2021-10-09T09:31:57Z</time>
      </trkpt>
      <trkpt lat="44.93645" lon="5.45718">
        <ele>1352.4</ele>
        <time>2021-10-09T09:31:58Z</time>
      </trkpt>
      <trkpt lat="44.93645" lon="5.4572">
        <ele>1352.4</ele>
        <time>2021-10-09T09:31:59Z</time>
      </trkpt>
      <trkpt lat="44.93646" lon="5.45722">
        <ele>1353.2</ele>
        <time>2021-10-09T09:32:00Z</time>
      </trkpt>
      <trkpt lat="44.93646" lon="5.45725">
        <ele>1353.2</ele>
        <time>2021-10-09T09:32:01Z</time>
      </trkpt>
      <trkpt lat="44.93645" lon="5.45728">
        <ele>1353.2</ele>
        <time>2021-10-09T09:32:02Z</time>
      </trkpt>
      <trkpt lat="44.93645" lon="5.45731">
        <ele>1353.2</ele>
        <time>2021-10-09T09:32:03Z</time>
      </trkpt>
      <trkpt lat="44.93646" lon="5.45734">
        <ele>1354</ele>
        <time>2021-10-09T09:32:04Z</time>
      </trkpt>
      <trkpt lat="44.93646" lon="5.45738">
        <ele>1354</ele>
        <time>2021-10-09T09:32:05Z</time>
      </trkpt>
      <trkpt lat="44.93646" lon="5.45741">
        <ele>1354</ele>
        <time>2021-10-09T09:32:06Z</time>
      </trkpt>
      <trkpt lat="44.93646" lon="5.45744">
        <ele>1354.4</ele>
        <time>2021-10-09T09:32:07Z</time>
      </trkpt>
      <trkpt lat="44.93647" lon="5.45746">
        <ele>1354.6</ele>
        <time>2021-10-09T09:32:08Z</time>
      </trkpt>
      <trkpt lat="44.93647" lon="5.45749">
        <ele>1354.6</ele>
        <time>2021-10-09T09:32:09Z</time>
      </trkpt>
      <trkpt lat="44.93648" lon="5.45752">
        <ele>1354.6</ele>
        <time>2021-10-09T09:32:10Z</time>
      </trkpt>
      <trkpt lat="44.93649" lon="5.45756">
        <ele>1355.2</ele>
        <time>2021-10-09T09:32:11Z</time>
      </trkpt>
      <trkpt lat="44.93649" lon="5.4576">
        <ele>1354.6</ele>
        <time>2021-10-09T09:32:12Z</time>
      </trkpt>
      <trkpt lat="44.9365" lon="5.45764">
        <ele>1354.6</ele>
        <time>2021-10-09T09:32:13Z</time>
      </trkpt>
      <trkpt lat="44.93651" lon="5.45768">
        <ele>1354.6</ele>
        <time>2021-10-09T09:32:14Z</time>
      </trkpt>
      <trkpt lat="44.93652" lon="5.45772">
        <ele>1354.6</ele>
        <time>2021-10-09T09:32:15Z</time>
      </trkpt>
      <trkpt lat="44.93653" lon="5.45776">
        <ele>1354.4</ele>
        <time>2021-10-09T09:32:16Z</time>
      </trkpt>
      <trkpt lat="44.93654" lon="5.45779">
        <ele>1354.4</ele>
        <time>2021-10-09T09:32:17Z</time>
      </trkpt>
      <trkpt lat="44.93656" lon="5.45783">
        <ele>1354.4</ele>
        <time>2021-10-09T09:32:18Z</time>
      </trkpt>
      <trkpt lat="44.93658" lon="5.45787">
        <ele>1354.6</ele>
        <time>2021-10-09T09:32:19Z</time>
      </trkpt>
      <trkpt lat="44.93659" lon="5.4579">
        <ele>1355</ele>
        <time>2021-10-09T09:32:20Z</time>
      </trkpt>
      <trkpt lat="44.93661" lon="5.45793">
        <ele>1355</ele>
        <time>2021-10-09T09:32:21Z</time>
      </trkpt>
      <trkpt lat="44.93663" lon="5.45797">
        <ele>1355</ele>
        <time>2021-10-09T09:32:22Z</time>
      </trkpt>
      <trkpt lat="44.93664" lon="5.458">
        <ele>1354.8</ele>
        <time>2021-10-09T09:32:23Z</time>
      </trkpt>
      <trkpt lat="44.93666" lon="5.45804">
        <ele>1355.6</ele>
        <time>2021-10-09T09:32:24Z</time>
      </trkpt>
      <trkpt lat="44.93668" lon="5.45807">
        <ele>1355.6</ele>
        <time>2021-10-09T09:32:25Z</time>
      </trkpt>
      <trkpt lat="44.9367" lon="5.4581">
        <ele>1355.6</ele>
        <time>2021-10-09T09:32:26Z</time>
      </trkpt>
      <trkpt lat="44.93672" lon="5.45814">
        <ele>1354.8</ele>
        <time>2021-10-09T09:32:27Z</time>
      </trkpt>
      <trkpt lat="44.93673" lon="5.45817">
        <ele>1354.8</ele>
        <time>2021-10-09T09:32:28Z</time>
      </trkpt>
      <trkpt lat="44.93674" lon="5.4582">
        <ele>1354.8</ele>
        <time>2021-10-09T09:32:29Z</time>
      </trkpt>
      <trkpt lat="44.93676" lon="5.45824">
        <ele>1354.8</ele>
        <time>2021-10-09T09:32:30Z</time>
      </trkpt>
      <trkpt lat="44.93677" lon="5.45827">
        <ele>1355.8</ele>
        <time>2021-10-09T09:32:31Z</time>
      </trkpt>
      <trkpt lat="44.93679" lon="5.45831">
        <ele>1355.8</ele>
        <time>2021-10-09T09:32:32Z</time>
      </trkpt>
      <trkpt lat="44.9368" lon="5.45834">
        <ele>1355.8</ele>
        <time>2021-10-09T09:32:33Z</time>
      </trkpt>
      <trkpt lat="44.93681" lon="5.45837">
        <ele>1355.8</ele>
        <time>2021-10-09T09:32:34Z</time>
      </trkpt>
      <trkpt lat="44.93682" lon="5.45841">
        <ele>1355.8</ele>
        <time>2021-10-09T09:32:35Z</time>
      </trkpt>
      <trkpt lat="44.93683" lon="5.45844">
        <ele>1356.4</ele>
        <time>2021-10-09T09:32:36Z</time>
      </trkpt>
      <trkpt lat="44.93684" lon="5.45848">
        <ele>1356.4</ele>
        <time>2021-10-09T09:32:37Z</time>
      </trkpt>
      <trkpt lat="44.93685" lon="5.45851">
        <ele>1356.4</ele>
        <time>2021-10-09T09:32:38Z</time>
      </trkpt>
      <trkpt lat="44.93687" lon="5.45855">
        <ele>1356.4</ele>
        <time>2021-10-09T09:32:39Z</time>
      </trkpt>
      <trkpt lat="44.93688" lon="5.45859">
        <ele>1356.6</ele>
        <time>2021-10-09T09:32:40Z</time>
      </trkpt>
      <trkpt lat="44.9369" lon="5.45862">
        <ele>1356.6</ele>
        <time>2021-10-09T09:32:41Z</time>
      </trkpt>
      <trkpt lat="44.93692" lon="5.45866">
        <ele>1356.6</ele>
        <time>2021-10-09T09:32:42Z</time>
      </trkpt>
      <trkpt lat="44.93694" lon="5.45869">
        <ele>1356.6</ele>
        <time>2021-10-09T09:32:43Z</time>
      </trkpt>
      <trkpt lat="44.93697" lon="5.45873">
        <ele>1357</ele>
        <time>2021-10-09T09:32:44Z</time>
      </trkpt>
      <trkpt lat="44.93699" lon="5.45876">
        <ele>1357</ele>
        <time>2021-10-09T09:32:45Z</time>
      </trkpt>
      <trkpt lat="44.93702" lon="5.45879">
        <ele>1357</ele>
        <time>2021-10-09T09:32:46Z</time>
      </trkpt>
      <trkpt lat="44.93704" lon="5.45883">
        <ele>1357</ele>
        <time>2021-10-09T09:32:47Z</time>
      </trkpt>
      <trkpt lat="44.93707" lon="5.45885">
        <ele>1357.2</ele>
        <time>2021-10-09T09:32:48Z</time>
      </trkpt>
      <trkpt lat="44.9371" lon="5.45887">
        <ele>1357.2</ele>
        <time>2021-10-09T09:32:49Z</time>
      </trkpt>
      <trkpt lat="44.93712" lon="5.4589">
        <ele>1357.2</ele>
        <time>2021-10-09T09:32:50Z</time>
      </trkpt>
      <trkpt lat="44.93715" lon="5.45892">
        <ele>1357.4</ele>
        <time>2021-10-09T09:32:51Z</time>
      </trkpt>
      <trkpt lat="44.93718" lon="5.45893">
        <ele>1357.4</ele>
        <time>2021-10-09T09:32:52Z</time>
      </trkpt>
      <trkpt lat="44.93721" lon="5.45894">
        <ele>1357.4</ele>
        <time>2021-10-09T09:32:53Z</time>
      </trkpt>
      <trkpt lat="44.93724" lon="5.45894">
        <ele>1357.4</ele>
        <time>2021-10-09T09:32:54Z</time>
      </trkpt>
      <trkpt lat="44.93727" lon="5.45893">
        <ele>1357.4</ele>
        <time>2021-10-09T09:32:55Z</time>
      </trkpt>
      <trkpt lat="44.93731" lon="5.45892">
        <ele>1357.8</ele>
        <time>2021-10-09T09:32:56Z</time>
      </trkpt>
      <trkpt lat="44.93733" lon="5.4589">
        <ele>1357.8</ele>
        <time>2021-10-09T09:32:57Z</time>
      </trkpt>
      <trkpt lat="44.93736" lon="5.45887">
        <ele>1357.8</ele>
        <time>2021-10-09T09:32:58Z</time>
      </trkpt>
      <trkpt lat="44.93738" lon="5.45885">
        <ele>1357.8</ele>
        <time>2021-10-09T09:32:59Z</time>
      </trkpt>
      <trkpt lat="44.93739" lon="5.45882">
        <ele>1358.2</ele>
        <time>2021-10-09T09:33:00Z</time>
      </trkpt>
      <trkpt lat="44.93741" lon="5.45879">
        <ele>1358.2</ele>
        <time>2021-10-09T09:33:01Z</time>
      </trkpt>
      <trkpt lat="44.93742" lon="5.45876">
        <ele>1358.2</ele>
        <time>2021-10-09T09:33:02Z</time>
      </trkpt>
      <trkpt lat="44.93744" lon="5.45873">
        <ele>1358.8</ele>
        <time>2021-10-09T09:33:03Z</time>
      </trkpt>
      <trkpt lat="44.93745" lon="5.4587">
        <ele>1358.6</ele>
        <time>2021-10-09T09:33:04Z</time>
      </trkpt>
      <trkpt lat="44.93747" lon="5.45867">
        <ele>1358.6</ele>
        <time>2021-10-09T09:33:05Z</time>
      </trkpt>
      <trkpt lat="44.93749" lon="5.45863">
        <ele>1358.6</ele>
        <time>2021-10-09T09:33:06Z</time>
      </trkpt>
      <trkpt lat="44.9375" lon="5.45861">
        <ele>1358.8</ele>
        <time>2021-10-09T09:33:07Z</time>
      </trkpt>
      <trkpt lat="44.93752" lon="5.45857">
        <ele>1359.2</ele>
        <time>2021-10-09T09:33:08Z</time>
      </trkpt>
      <trkpt lat="44.93753" lon="5.45854">
        <ele>1359.2</ele>
        <time>2021-10-09T09:33:09Z</time>
      </trkpt>
      <trkpt lat="44.93755" lon="5.45851">
        <ele>1359.2</ele>
        <time>2021-10-09T09:33:10Z</time>
      </trkpt>
      <trkpt lat="44.93756" lon="5.45848">
        <ele>1359.2</ele>
        <time>2021-10-09T09:33:11Z</time>
      </trkpt>
      <trkpt lat="44.93758" lon="5.45844">
        <ele>1359</ele>
        <time>2021-10-09T09:33:12Z</time>
      </trkpt>
      <trkpt lat="44.93759" lon="5.45841">
        <ele>1359</ele>
        <time>2021-10-09T09:33:13Z</time>
      </trkpt>
      <trkpt lat="44.93761" lon="5.45838">
        <ele>1359</ele>
        <time>2021-10-09T09:33:14Z</time>
      </trkpt>
      <trkpt lat="44.93762" lon="5.45835">
        <ele>1359</ele>
        <time>2021-10-09T09:33:15Z</time>
      </trkpt>
      <trkpt lat="44.93764" lon="5.45832">
        <ele>1359.2</ele>
        <time>2021-10-09T09:33:16Z</time>
      </trkpt>
      <trkpt lat="44.93765" lon="5.45829">
        <ele>1359.2</ele>
        <time>2021-10-09T09:33:17Z</time>
      </trkpt>
      <trkpt lat="44.93766" lon="5.45827">
        <ele>1359.2</ele>
        <time>2021-10-09T09:33:18Z</time>
      </trkpt>
      <trkpt lat="44.93768" lon="5.45824">
        <ele>1360.2</ele>
        <time>2021-10-09T09:33:19Z</time>
      </trkpt>
      <trkpt lat="44.93769" lon="5.45821">
        <ele>1360.8</ele>
        <time>2021-10-09T09:33:20Z</time>
      </trkpt>
      <trkpt lat="44.9377" lon="5.45819">
        <ele>1360.8</ele>
        <time>2021-10-09T09:33:21Z</time>
      </trkpt>
      <trkpt lat="44.93772" lon="5.45817">
        <ele>1360.8</ele>
        <time>2021-10-09T09:33:22Z</time>
      </trkpt>
      <trkpt lat="44.93773" lon="5.45814">
        <ele>1360.8</ele>
        <time>2021-10-09T09:33:23Z</time>
      </trkpt>
      <trkpt lat="44.93773" lon="5.45812">
        <ele>1361.2</ele>
        <time>2021-10-09T09:33:24Z</time>
      </trkpt>
      <trkpt lat="44.93775" lon="5.4581">
        <ele>1361.2</ele>
        <time>2021-10-09T09:33:25Z</time>
      </trkpt>
      <trkpt lat="44.93776" lon="5.45808">
        <ele>1361.2</ele>
        <time>2021-10-09T09:33:26Z</time>
      </trkpt>
      <trkpt lat="44.93777" lon="5.45806">
        <ele>1362</ele>
        <time>2021-10-09T09:33:27Z</time>
      </trkpt>
      <trkpt lat="44.93778" lon="5.45804">
        <ele>1361.8</ele>
        <time>2021-10-09T09:33:28Z</time>
      </trkpt>
      <trkpt lat="44.93779" lon="5.45802">
        <ele>1361.8</ele>
        <time>2021-10-09T09:33:29Z</time>
      </trkpt>
      <trkpt lat="44.9378" lon="5.45799">
        <ele>1361.8</ele>
        <time>2021-10-09T09:33:30Z</time>
      </trkpt>
      <trkpt lat="44.93781" lon="5.45797">
        <ele>1362.6</ele>
        <time>2021-10-09T09:33:31Z</time>
      </trkpt>
      <trkpt lat="44.93783" lon="5.45795">
        <ele>1363.2</ele>
        <time>2021-10-09T09:33:32Z</time>
      </trkpt>
      <trkpt lat="44.93785" lon="5.45793">
        <ele>1363.2</ele>
        <time>2021-10-09T09:33:33Z</time>
      </trkpt>
      <trkpt lat="44.93786" lon="5.45791">
        <ele>1363.2</ele>
        <time>2021-10-09T09:33:34Z</time>
      </trkpt>
      <trkpt lat="44.93788" lon="5.45789">
        <ele>1363.2</ele>
        <time>2021-10-09T09:33:35Z</time>
      </trkpt>
      <trkpt lat="44.9379" lon="5.45786">
        <ele>1363.4</ele>
        <time>2021-10-09T09:33:36Z</time>
      </trkpt>
      <trkpt lat="44.93792" lon="5.45785">
        <ele>1363.4</ele>
        <time>2021-10-09T09:33:37Z</time>
      </trkpt>
      <trkpt lat="44.93794" lon="5.45783">
        <ele>1363.4</ele>
        <time>2021-10-09T09:33:38Z</time>
      </trkpt>
      <trkpt lat="44.93796" lon="5.45781">
        <ele>1363.4</ele>
        <time>2021-10-09T09:33:39Z</time>
      </trkpt>
      <trkpt lat="44.93797" lon="5.4578">
        <ele>1363.6</ele>
        <time>2021-10-09T09:33:40Z</time>
      </trkpt>
      <trkpt lat="44.93799" lon="5.45778">
        <ele>1363.6</ele>
        <time>2021-10-09T09:33:41Z</time>
      </trkpt>
      <trkpt lat="44.93801" lon="5.45776">
        <ele>1363.6</ele>
        <time>2021-10-09T09:33:42Z</time>
      </trkpt>
      <trkpt lat="44.93802" lon="5.45774">
        <ele>1364</ele>
        <time>2021-10-09T09:33:43Z</time>
      </trkpt>
      <trkpt lat="44.93804" lon="5.45772">
        <ele>1364.2</ele>
        <time>2021-10-09T09:33:44Z</time>
      </trkpt>
      <trkpt lat="44.93806" lon="5.45771">
        <ele>1364.2</ele>
        <time>2021-10-09T09:33:45Z</time>
      </trkpt>
      <trkpt lat="44.93808" lon="5.4577">
        <ele>1364.2</ele>
        <time>2021-10-09T09:33:46Z</time>
      </trkpt>
      <trkpt lat="44.9381" lon="5.45769">
        <ele>1364.2</ele>
        <time>2021-10-09T09:33:47Z</time>
      </trkpt>
      <trkpt lat="44.93812" lon="5.45767">
        <ele>1363.6</ele>
        <time>2021-10-09T09:33:48Z</time>
      </trkpt>
      <trkpt lat="44.93814" lon="5.45766">
        <ele>1363.6</ele>
        <time>2021-10-09T09:33:49Z</time>
      </trkpt>
      <trkpt lat="44.93816" lon="5.45764">
        <ele>1363.6</ele>
        <time>2021-10-09T09:33:50Z</time>
      </trkpt>
      <trkpt lat="44.93818" lon="5.45763">
        <ele>1363.6</ele>
        <time>2021-10-09T09:33:51Z</time>
      </trkpt>
      <trkpt lat="44.93821" lon="5.45762">
        <ele>1363</ele>
        <time>2021-10-09T09:33:52Z</time>
      </trkpt>
      <trkpt lat="44.93823" lon="5.4576">
        <ele>1363</ele>
        <time>2021-10-09T09:33:53Z</time>
      </trkpt>
      <trkpt lat="44.93826" lon="5.45758">
        <ele>1363</ele>
        <time>2021-10-09T09:33:54Z</time>
      </trkpt>
      <trkpt lat="44.93829" lon="5.45757">
        <ele>1363</ele>
        <time>2021-10-09T09:33:55Z</time>
      </trkpt>
      <trkpt lat="44.93831" lon="5.45756">
        <ele>1361.4</ele>
        <time>2021-10-09T09:33:56Z</time>
      </trkpt>
      <trkpt lat="44.93832" lon="5.45753">
        <ele>1361.4</ele>
        <time>2021-10-09T09:33:57Z</time>
      </trkpt>
      <trkpt lat="44.93836" lon="5.45754">
        <ele>1361.4</ele>
        <time>2021-10-09T09:33:58Z</time>
      </trkpt>
      <trkpt lat="44.9384" lon="5.45754">
        <ele>1361.4</ele>
        <time>2021-10-09T09:33:59Z</time>
      </trkpt>
      <trkpt lat="44.93843" lon="5.45755">
        <ele>1359.8</ele>
        <time>2021-10-09T09:34:00Z</time>
      </trkpt>
      <trkpt lat="44.93846" lon="5.45757">
        <ele>1359.8</ele>
        <time>2021-10-09T09:34:01Z</time>
      </trkpt>
      <trkpt lat="44.93848" lon="5.4576">
        <ele>1359.8</ele>
        <time>2021-10-09T09:34:02Z</time>
      </trkpt>
      <trkpt lat="44.9385" lon="5.45765">
        <ele>1359.8</ele>
        <time>2021-10-09T09:34:03Z</time>
      </trkpt>
      <trkpt lat="44.9385" lon="5.45769">
        <ele>1358.6</ele>
        <time>2021-10-09T09:34:04Z</time>
      </trkpt>
      <trkpt lat="44.9385" lon="5.45773">
        <ele>1358.6</ele>
        <time>2021-10-09T09:34:05Z</time>
      </trkpt>
      <trkpt lat="44.9385" lon="5.45779">
        <ele>1358.6</ele>
        <time>2021-10-09T09:34:06Z</time>
      </trkpt>
      <trkpt lat="44.9385" lon="5.45784">
        <ele>1357.6</ele>
        <time>2021-10-09T09:34:07Z</time>
      </trkpt>
      <trkpt lat="44.93851" lon="5.4579">
        <ele>1356.4</ele>
        <time>2021-10-09T09:34:08Z</time>
      </trkpt>
      <trkpt lat="44.93852" lon="5.45795">
        <ele>1356.4</ele>
        <time>2021-10-09T09:34:09Z</time>
      </trkpt>
      <trkpt lat="44.93855" lon="5.45799">
        <ele>1356.4</ele>
        <time>2021-10-09T09:34:10Z</time>
      </trkpt>
      <trkpt lat="44.93858" lon="5.45802">
        <ele>1356.4</ele>
        <time>2021-10-09T09:34:11Z</time>
      </trkpt>
      <trkpt lat="44.93862" lon="5.45803">
        <ele>1355</ele>
        <time>2021-10-09T09:34:12Z</time>
      </trkpt>
      <trkpt lat="44.93867" lon="5.45805">
        <ele>1355</ele>
        <time>2021-10-09T09:34:13Z</time>
      </trkpt>
      <trkpt lat="44.93872" lon="5.45807">
        <ele>1355</ele>
        <time>2021-10-09T09:34:14Z</time>
      </trkpt>
      <trkpt lat="44.93876" lon="5.45808">
        <ele>1354</ele>
        <time>2021-10-09T09:34:15Z</time>
      </trkpt>
      <trkpt lat="44.93881" lon="5.45808">
        <ele>1353</ele>
        <time>2021-10-09T09:34:16Z</time>
      </trkpt>
      <trkpt lat="44.93887" lon="5.4581">
        <ele>1353</ele>
        <time>2021-10-09T09:34:17Z</time>
      </trkpt>
      <trkpt lat="44.93891" lon="5.45812">
        <ele>1353</ele>
        <time>2021-10-09T09:34:18Z</time>
      </trkpt>
      <trkpt lat="44.93895" lon="5.45816">
        <ele>1352.2</ele>
        <time>2021-10-09T09:34:19Z</time>
      </trkpt>
      <trkpt lat="44.93898" lon="5.45821">
        <ele>1351</ele>
        <time>2021-10-09T09:34:20Z</time>
      </trkpt>
      <trkpt lat="44.939" lon="5.45826">
        <ele>1351</ele>
        <time>2021-10-09T09:34:21Z</time>
      </trkpt>
      <trkpt lat="44.93903" lon="5.45832">
        <ele>1351</ele>
        <time>2021-10-09T09:34:22Z</time>
      </trkpt>
      <trkpt lat="44.93905" lon="5.45837">
        <ele>1350</ele>
        <time>2021-10-09T09:34:23Z</time>
      </trkpt>
      <trkpt lat="44.93908" lon="5.45841">
        <ele>1349</ele>
        <time>2021-10-09T09:34:24Z</time>
      </trkpt>
      <trkpt lat="44.93912" lon="5.45845">
        <ele>1349</ele>
        <time>2021-10-09T09:34:25Z</time>
      </trkpt>
      <trkpt lat="44.93917" lon="5.45847">
        <ele>1349</ele>
        <time>2021-10-09T09:34:26Z</time>
      </trkpt>
      <trkpt lat="44.93921" lon="5.45847">
        <ele>1348</ele>
        <time>2021-10-09T09:34:27Z</time>
      </trkpt>
      <trkpt lat="44.93926" lon="5.45847">
        <ele>1344.6</ele>
        <time>2021-10-09T09:34:28Z</time>
      </trkpt>
      <trkpt lat="44.93932" lon="5.45849">
        <ele>1344.6</ele>
        <time>2021-10-09T09:34:29Z</time>
      </trkpt>
      <trkpt lat="44.93939" lon="5.45849">
        <ele>1344.6</ele>
        <time>2021-10-09T09:34:30Z</time>
      </trkpt>
      <trkpt lat="44.93944" lon="5.45849">
        <ele>1344.6</ele>
        <time>2021-10-09T09:34:31Z</time>
      </trkpt>
      <trkpt lat="44.9395" lon="5.45851">
        <ele>1343.2</ele>
        <time>2021-10-09T09:34:32Z</time>
      </trkpt>
      <trkpt lat="44.93956" lon="5.45854">
        <ele>1343.2</ele>
        <time>2021-10-09T09:34:33Z</time>
      </trkpt>
      <trkpt lat="44.93961" lon="5.45858">
        <ele>1343.2</ele>
        <time>2021-10-09T09:34:34Z</time>
      </trkpt>
      <trkpt lat="44.93966" lon="5.45862">
        <ele>1342.6</ele>
        <time>2021-10-09T09:34:35Z</time>
      </trkpt>
      <trkpt lat="44.93971" lon="5.45865">
        <ele>1341.4</ele>
        <time>2021-10-09T09:34:36Z</time>
      </trkpt>
      <trkpt lat="44.93978" lon="5.45866">
        <ele>1341.4</ele>
        <time>2021-10-09T09:34:37Z</time>
      </trkpt>
      <trkpt lat="44.93985" lon="5.45866">
        <ele>1341.4</ele>
        <time>2021-10-09T09:34:38Z</time>
      </trkpt>
      <trkpt lat="44.93991" lon="5.45865">
        <ele>1341.4</ele>
        <time>2021-10-09T09:34:39Z</time>
      </trkpt>
      <trkpt lat="44.93997" lon="5.45863">
        <ele>1340.2</ele>
        <time>2021-10-09T09:34:40Z</time>
      </trkpt>
      <trkpt lat="44.94003" lon="5.4586">
        <ele>1340.2</ele>
        <time>2021-10-09T09:34:41Z</time>
      </trkpt>
      <trkpt lat="44.9401" lon="5.45858">
        <ele>1340.2</ele>
        <time>2021-10-09T09:34:42Z</time>
      </trkpt>
      <trkpt lat="44.94017" lon="5.45856">
        <ele>1339.2</ele>
        <time>2021-10-09T09:34:43Z</time>
      </trkpt>
      <trkpt lat="44.94024" lon="5.45857">
        <ele>1337.8</ele>
        <time>2021-10-09T09:34:44Z</time>
      </trkpt>
      <trkpt lat="44.94031" lon="5.45856">
        <ele>1337.8</ele>
        <time>2021-10-09T09:34:45Z</time>
      </trkpt>
      <trkpt lat="44.94038" lon="5.45854">
        <ele>1337.8</ele>
        <time>2021-10-09T09:34:46Z</time>
      </trkpt>
      <trkpt lat="44.94046" lon="5.4585">
        <ele>1336.8</ele>
        <time>2021-10-09T09:34:47Z</time>
      </trkpt>
      <trkpt lat="44.94054" lon="5.45849">
        <ele>1335.2</ele>
        <time>2021-10-09T09:34:48Z</time>
      </trkpt>
      <trkpt lat="44.94062" lon="5.45848">
        <ele>1335.2</ele>
        <time>2021-10-09T09:34:49Z</time>
      </trkpt>
      <trkpt lat="44.94069" lon="5.45848">
        <ele>1335.2</ele>
        <time>2021-10-09T09:34:50Z</time>
      </trkpt>
      <trkpt lat="44.94077" lon="5.45848">
        <ele>1335.2</ele>
        <time>2021-10-09T09:34:51Z</time>
      </trkpt>
      <trkpt lat="44.94085" lon="5.45848">
        <ele>1335.6</ele>
        <time>2021-10-09T09:34:52Z</time>
      </trkpt>
      <trkpt lat="44.94092" lon="5.45849">
        <ele>1335.6</ele>
        <time>2021-10-09T09:34:53Z</time>
      </trkpt>
      <trkpt lat="44.941" lon="5.45849">
        <ele>1335.6</ele>
        <time>2021-10-09T09:34:54Z</time>
      </trkpt>
      <trkpt lat="44.94107" lon="5.45849">
        <ele>1334.6</ele>
        <time>2021-10-09T09:34:55Z</time>
      </trkpt>
      <trkpt lat="44.94114" lon="5.45849">
        <ele>1335.8</ele>
        <time>2021-10-09T09:34:56Z</time>
      </trkpt>
      <trkpt lat="44.94122" lon="5.45848">
        <ele>1335.8</ele>
        <time>2021-10-09T09:34:57Z</time>
      </trkpt>
      <trkpt lat="44.94129" lon="5.45846">
        <ele>1335.8</ele>
        <time>2021-10-09T09:34:58Z</time>
      </trkpt>
      <trkpt lat="44.94136" lon="5.45845">
        <ele>1334.8</ele>
        <time>2021-10-09T09:34:59Z</time>
      </trkpt>
      <trkpt lat="44.94143" lon="5.45844">
        <ele>1333</ele>
        <time>2021-10-09T09:35:00Z</time>
      </trkpt>
      <trkpt lat="44.9415" lon="5.45843">
        <ele>1333</ele>
        <time>2021-10-09T09:35:01Z</time>
      </trkpt>
      <trkpt lat="44.94157" lon="5.45842">
        <ele>1333</ele>
        <time>2021-10-09T09:35:02Z</time>
      </trkpt>
      <trkpt lat="44.94165" lon="5.45843">
        <ele>1333</ele>
        <time>2021-10-09T09:35:03Z</time>
      </trkpt>
      <trkpt lat="44.94172" lon="5.45843">
        <ele>1332.4</ele>
        <time>2021-10-09T09:35:04Z</time>
      </trkpt>
      <trkpt lat="44.94179" lon="5.45842">
        <ele>1332.4</ele>
        <time>2021-10-09T09:35:05Z</time>
      </trkpt>
      <trkpt lat="44.94185" lon="5.45842">
        <ele>1332.4</ele>
        <time>2021-10-09T09:35:06Z</time>
      </trkpt>
      <trkpt lat="44.94191" lon="5.45842">
        <ele>1333.4</ele>
        <time>2021-10-09T09:35:07Z</time>
      </trkpt>
      <trkpt lat="44.94196" lon="5.45843">
        <ele>1333.2</ele>
        <time>2021-10-09T09:35:08Z</time>
      </trkpt>
      <trkpt lat="44.94202" lon="5.45843">
        <ele>1333.2</ele>
        <time>2021-10-09T09:35:09Z</time>
      </trkpt>
      <trkpt lat="44.94209" lon="5.45844">
        <ele>1333.2</ele>
        <time>2021-10-09T09:35:10Z</time>
      </trkpt>
      <trkpt lat="44.94215" lon="5.45845">
        <ele>1332.2</ele>
        <time>2021-10-09T09:35:11Z</time>
      </trkpt>
      <trkpt lat="44.94221" lon="5.45845">
        <ele>1331.6</ele>
        <time>2021-10-09T09:35:12Z</time>
      </trkpt>
      <trkpt lat="44.94228" lon="5.45845">
        <ele>1331.6</ele>
        <time>2021-10-09T09:35:13Z</time>
      </trkpt>
      <trkpt lat="44.94233" lon="5.45844">
        <ele>1331.6</ele>
        <time>2021-10-09T09:35:14Z</time>
      </trkpt>
      <trkpt lat="44.94239" lon="5.45844">
        <ele>1331.6</ele>
        <time>2021-10-09T09:35:15Z</time>
      </trkpt>
      <trkpt lat="44.94244" lon="5.45843">
        <ele>1332</ele>
        <time>2021-10-09T09:35:16Z</time>
      </trkpt>
      <trkpt lat="44.94249" lon="5.45844">
        <ele>1332</ele>
        <time>2021-10-09T09:35:17Z</time>
      </trkpt>
      <trkpt lat="44.94254" lon="5.45845">
        <ele>1332</ele>
        <time>2021-10-09T09:35:18Z</time>
      </trkpt>
      <trkpt lat="44.94258" lon="5.45846">
        <ele>1332</ele>
        <time>2021-10-09T09:35:19Z</time>
      </trkpt>
      <trkpt lat="44.94262" lon="5.45848">
        <ele>1331.8</ele>
        <time>2021-10-09T09:35:20Z</time>
      </trkpt>
      <trkpt lat="44.94265" lon="5.45851">
        <ele>1331.8</ele>
        <time>2021-10-09T09:35:21Z</time>
      </trkpt>
      <trkpt lat="44.94269" lon="5.45853">
        <ele>1331.8</ele>
        <time>2021-10-09T09:35:22Z</time>
      </trkpt>
      <trkpt lat="44.94272" lon="5.45855">
        <ele>1332.8</ele>
        <time>2021-10-09T09:35:23Z</time>
      </trkpt>
      <trkpt lat="44.94276" lon="5.45857">
        <ele>1332.8</ele>
        <time>2021-10-09T09:35:24Z</time>
      </trkpt>
      <trkpt lat="44.94279" lon="5.4586">
        <ele>1332.8</ele>
        <time>2021-10-09T09:35:25Z</time>
      </trkpt>
      <trkpt lat="44.94282" lon="5.45862">
        <ele>1332.8</ele>
        <time>2021-10-09T09:35:26Z</time>
      </trkpt>
      <trkpt lat="44.94285" lon="5.45863">
        <ele>1332.8</ele>
        <time>2021-10-09T09:35:27Z</time>
      </trkpt>
      <trkpt lat="44.94288" lon="5.45865">
        <ele>1333.6</ele>
        <time>2021-10-09T09:35:28Z</time>
      </trkpt>
      <trkpt lat="44.94292" lon="5.45867">
        <ele>1333.6</ele>
        <time>2021-10-09T09:35:29Z</time>
      </trkpt>
      <trkpt lat="44.94295" lon="5.45869">
        <ele>1333.6</ele>
        <time>2021-10-09T09:35:30Z</time>
      </trkpt>
      <trkpt lat="44.94298" lon="5.45871">
        <ele>1333.6</ele>
        <time>2021-10-09T09:35:31Z</time>
      </trkpt>
      <trkpt lat="44.94301" lon="5.45873">
        <ele>1334.2</ele>
        <time>2021-10-09T09:35:32Z</time>
      </trkpt>
      <trkpt lat="44.94305" lon="5.45874">
        <ele>1334.2</ele>
        <time>2021-10-09T09:35:33Z</time>
      </trkpt>
      <trkpt lat="44.94308" lon="5.45875">
        <ele>1334.2</ele>
        <time>2021-10-09T09:35:34Z</time>
      </trkpt>
      <trkpt lat="44.94312" lon="5.45876">
        <ele>1334.8</ele>
        <time>2021-10-09T09:35:35Z</time>
      </trkpt>
      <trkpt lat="44.94315" lon="5.45875">
        <ele>1335.8</ele>
        <time>2021-10-09T09:35:36Z</time>
      </trkpt>
      <trkpt lat="44.94318" lon="5.45876">
        <ele>1335.8</ele>
        <time>2021-10-09T09:35:37Z</time>
      </trkpt>
      <trkpt lat="44.94322" lon="5.45876">
        <ele>1335.8</ele>
        <time>2021-10-09T09:35:38Z</time>
      </trkpt>
      <trkpt lat="44.94325" lon="5.45878">
        <ele>1335.8</ele>
        <time>2021-10-09T09:35:39Z</time>
      </trkpt>
      <trkpt lat="44.94328" lon="5.45878">
        <ele>1336</ele>
        <time>2021-10-09T09:35:40Z</time>
      </trkpt>
      <trkpt lat="44.94332" lon="5.45879">
        <ele>1336</ele>
        <time>2021-10-09T09:35:41Z</time>
      </trkpt>
      <trkpt lat="44.94334" lon="5.45879">
        <ele>1336</ele>
        <time>2021-10-09T09:35:42Z</time>
      </trkpt>
      <trkpt lat="44.94337" lon="5.45878">
        <ele>1337</ele>
        <time>2021-10-09T09:35:43Z</time>
      </trkpt>
      <trkpt lat="44.94341" lon="5.45878">
        <ele>1337.2</ele>
        <time>2021-10-09T09:35:44Z</time>
      </trkpt>
      <trkpt lat="44.94344" lon="5.45877">
        <ele>1337.2</ele>
        <time>2021-10-09T09:35:45Z</time>
      </trkpt>
      <trkpt lat="44.94347" lon="5.45877">
        <ele>1337.2</ele>
        <time>2021-10-09T09:35:46Z</time>
      </trkpt>
      <trkpt lat="44.9435" lon="5.45876">
        <ele>1337.2</ele>
        <time>2021-10-09T09:35:47Z</time>
      </trkpt>
      <trkpt lat="44.94353" lon="5.45876">
        <ele>1337.4</ele>
        <time>2021-10-09T09:35:48Z</time>
      </trkpt>
      <trkpt lat="44.94356" lon="5.45876">
        <ele>1337.4</ele>
        <time>2021-10-09T09:35:49Z</time>
      </trkpt>
      <trkpt lat="44.94359" lon="5.45876">
        <ele>1337.4</ele>
        <time>2021-10-09T09:35:50Z</time>
      </trkpt>
      <trkpt lat="44.94362" lon="5.45877">
        <ele>1338</ele>
        <time>2021-10-09T09:35:51Z</time>
      </trkpt>
      <trkpt lat="44.94365" lon="5.45878">
        <ele>1337.8</ele>
        <time>2021-10-09T09:35:52Z</time>
      </trkpt>
      <trkpt lat="44.94367" lon="5.45879">
        <ele>1337.8</ele>
        <time>2021-10-09T09:35:53Z</time>
      </trkpt>
      <trkpt lat="44.9437" lon="5.4588">
        <ele>1337.8</ele>
        <time>2021-10-09T09:35:54Z</time>
      </trkpt>
      <trkpt lat="44.94373" lon="5.45882">
        <ele>1337.8</ele>
        <time>2021-10-09T09:35:55Z</time>
      </trkpt>
      <trkpt lat="44.94376" lon="5.45884">
        <ele>1339</ele>
        <time>2021-10-09T09:35:56Z</time>
      </trkpt>
      <trkpt lat="44.94379" lon="5.45885">
        <ele>1339</ele>
        <time>2021-10-09T09:35:57Z</time>
      </trkpt>
      <trkpt lat="44.94381" lon="5.45887">
        <ele>1339</ele>
        <time>2021-10-09T09:35:58Z</time>
      </trkpt>
      <trkpt lat="44.94384" lon="5.45888">
        <ele>1339</ele>
        <time>2021-10-09T09:35:59Z</time>
      </trkpt>
      <trkpt lat="44.94387" lon="5.45888">
        <ele>1339.6</ele>
        <time>2021-10-09T09:36:00Z</time>
      </trkpt>
      <trkpt lat="44.9439" lon="5.45888">
        <ele>1339.6</ele>
        <time>2021-10-09T09:36:01Z</time>
      </trkpt>
      <trkpt lat="44.94393" lon="5.45888">
        <ele>1339.6</ele>
        <time>2021-10-09T09:36:02Z</time>
      </trkpt>
      <trkpt lat="44.94396" lon="5.45887">
        <ele>1339.6</ele>
        <time>2021-10-09T09:36:03Z</time>
      </trkpt>
      <trkpt lat="44.94398" lon="5.45886">
        <ele>1339.6</ele>
        <time>2021-10-09T09:36:04Z</time>
      </trkpt>
      <trkpt lat="44.944" lon="5.45885">
        <ele>1339.6</ele>
        <time>2021-10-09T09:36:05Z</time>
      </trkpt>
      <trkpt lat="44.94403" lon="5.45884">
        <ele>1339.6</ele>
        <time>2021-10-09T09:36:06Z</time>
      </trkpt>
      <trkpt lat="44.94406" lon="5.45883">
        <ele>1339.6</ele>
        <time>2021-10-09T09:36:07Z</time>
      </trkpt>
      <trkpt lat="44.9441" lon="5.45881">
        <ele>1339.4</ele>
        <time>2021-10-09T09:36:08Z</time>
      </trkpt>
      <trkpt lat="44.94413" lon="5.4588">
        <ele>1339.4</ele>
        <time>2021-10-09T09:36:09Z</time>
      </trkpt>
      <trkpt lat="44.94417" lon="5.45879">
        <ele>1339.4</ele>
        <time>2021-10-09T09:36:10Z</time>
      </trkpt>
      <trkpt lat="44.9442" lon="5.45878">
        <ele>1339.4</ele>
        <time>2021-10-09T09:36:11Z</time>
      </trkpt>
      <trkpt lat="44.94423" lon="5.45878">
        <ele>1339.8</ele>
        <time>2021-10-09T09:36:12Z</time>
      </trkpt>
      <trkpt lat="44.94426" lon="5.45878">
        <ele>1339.8</ele>
        <time>2021-10-09T09:36:13Z</time>
      </trkpt>
      <trkpt lat="44.9443" lon="5.45878">
        <ele>1339.8</ele>
        <time>2021-10-09T09:36:14Z</time>
      </trkpt>
      <trkpt lat="44.94433" lon="5.45879">
        <ele>1339.8</ele>
        <time>2021-10-09T09:36:15Z</time>
      </trkpt>
      <trkpt lat="44.94437" lon="5.4588">
        <ele>1340</ele>
        <time>2021-10-09T09:36:16Z</time>
      </trkpt>
      <trkpt lat="44.9444" lon="5.45882">
        <ele>1340</ele>
        <time>2021-10-09T09:36:17Z</time>
      </trkpt>
      <trkpt lat="44.94442" lon="5.45884">
        <ele>1340</ele>
        <time>2021-10-09T09:36:18Z</time>
      </trkpt>
      <trkpt lat="44.94445" lon="5.45885">
        <ele>1340.6</ele>
        <time>2021-10-09T09:36:19Z</time>
      </trkpt>
      <trkpt lat="44.94447" lon="5.45887">
        <ele>1340.8</ele>
        <time>2021-10-09T09:36:20Z</time>
      </trkpt>
      <trkpt lat="44.94449" lon="5.45889">
        <ele>1340.8</ele>
        <time>2021-10-09T09:36:21Z</time>
      </trkpt>
      <trkpt lat="44.94452" lon="5.4589">
        <ele>1340.8</ele>
        <time>2021-10-09T09:36:22Z</time>
      </trkpt>
      <trkpt lat="44.94454" lon="5.45891">
        <ele>1341.2</ele>
        <time>2021-10-09T09:36:23Z</time>
      </trkpt>
      <trkpt lat="44.94456" lon="5.45891">
        <ele>1341.6</ele>
        <time>2021-10-09T09:36:24Z</time>
      </trkpt>
      <trkpt lat="44.94458" lon="5.45891">
        <ele>1341.6</ele>
        <time>2021-10-09T09:36:25Z</time>
      </trkpt>
      <trkpt lat="44.94461" lon="5.45891">
        <ele>1341.6</ele>
        <time>2021-10-09T09:36:26Z</time>
      </trkpt>
      <trkpt lat="44.94463" lon="5.4589">
        <ele>1342</ele>
        <time>2021-10-09T09:36:27Z</time>
      </trkpt>
      <trkpt lat="44.94465" lon="5.45889">
        <ele>1341.8</ele>
        <time>2021-10-09T09:36:28Z</time>
      </trkpt>
      <trkpt lat="44.94467" lon="5.45888">
        <ele>1341.8</ele>
        <time>2021-10-09T09:36:29Z</time>
      </trkpt>
      <trkpt lat="44.9447" lon="5.45886">
        <ele>1341.8</ele>
        <time>2021-10-09T09:36:30Z</time>
      </trkpt>
      <trkpt lat="44.94472" lon="5.45885">
        <ele>1342.8</ele>
        <time>2021-10-09T09:36:31Z</time>
      </trkpt>
      <trkpt lat="44.94474" lon="5.45883">
        <ele>1343</ele>
        <time>2021-10-09T09:36:32Z</time>
      </trkpt>
      <trkpt lat="44.94476" lon="5.45881">
        <ele>1343</ele>
        <time>2021-10-09T09:36:33Z</time>
      </trkpt>
      <trkpt lat="44.94479" lon="5.4588">
        <ele>1343</ele>
        <time>2021-10-09T09:36:34Z</time>
      </trkpt>
      <trkpt lat="44.94481" lon="5.45878">
        <ele>1342.6</ele>
        <time>2021-10-09T09:36:35Z</time>
      </trkpt>
      <trkpt lat="44.94483" lon="5.45876">
        <ele>1343.2</ele>
        <time>2021-10-09T09:36:36Z</time>
      </trkpt>
      <trkpt lat="44.94485" lon="5.45874">
        <ele>1343.2</ele>
        <time>2021-10-09T09:36:37Z</time>
      </trkpt>
      <trkpt lat="44.94488" lon="5.45872">
        <ele>1343.2</ele>
        <time>2021-10-09T09:36:38Z</time>
      </trkpt>
      <trkpt lat="44.9449" lon="5.45871">
        <ele>1343.2</ele>
        <time>2021-10-09T09:36:39Z</time>
      </trkpt>
      <trkpt lat="44.94492" lon="5.45869">
        <ele>1344.6</ele>
        <time>2021-10-09T09:36:40Z</time>
      </trkpt>
      <trkpt lat="44.94494" lon="5.45868">
        <ele>1344.6</ele>
        <time>2021-10-09T09:36:41Z</time>
      </trkpt>
      <trkpt lat="44.94496" lon="5.45866">
        <ele>1344.6</ele>
        <time>2021-10-09T09:36:42Z</time>
      </trkpt>
      <trkpt lat="44.94498" lon="5.45865">
        <ele>1344.6</ele>
        <time>2021-10-09T09:36:43Z</time>
      </trkpt>
      <trkpt lat="44.945" lon="5.45863">
        <ele>1344.8</ele>
        <time>2021-10-09T09:36:44Z</time>
      </trkpt>
      <trkpt lat="44.94503" lon="5.45862">
        <ele>1344.8</ele>
        <time>2021-10-09T09:36:45Z</time>
      </trkpt>
      <trkpt lat="44.94505" lon="5.45861">
        <ele>1344.8</ele>
        <time>2021-10-09T09:36:46Z</time>
      </trkpt>
      <trkpt lat="44.94507" lon="5.45859">
        <ele>1345.2</ele>
        <time>2021-10-09T09:36:47Z</time>
      </trkpt>
      <trkpt lat="44.94509" lon="5.45858">
        <ele>1345.2</ele>
        <time>2021-10-09T09:36:48Z</time>
      </trkpt>
      <trkpt lat="44.9451" lon="5.45858">
        <ele>1345.2</ele>
        <time>2021-10-09T09:36:49Z</time>
      </trkpt>
      <trkpt lat="44.94512" lon="5.45857">
        <ele>1345.2</ele>
        <time>2021-10-09T09:36:50Z</time>
      </trkpt>
      <trkpt lat="44.94514" lon="5.45856">
        <ele>1346</ele>
        <time>2021-10-09T09:36:51Z</time>
      </trkpt>
      <trkpt lat="44.94516" lon="5.45855">
        <ele>1346</ele>
        <time>2021-10-09T09:36:52Z</time>
      </trkpt>
      <trkpt lat="44.94518" lon="5.45853">
        <ele>1346</ele>
        <time>2021-10-09T09:36:53Z</time>
      </trkpt>
      <trkpt lat="44.94521" lon="5.45852">
        <ele>1346</ele>
        <time>2021-10-09T09:36:54Z</time>
      </trkpt>
      <trkpt lat="44.94523" lon="5.4585">
        <ele>1346</ele>
        <time>2021-10-09T09:36:55Z</time>
      </trkpt>
      <trkpt lat="44.94526" lon="5.45847">
        <ele>1345.8</ele>
        <time>2021-10-09T09:36:56Z</time>
      </trkpt>
      <trkpt lat="44.94528" lon="5.45844">
        <ele>1345.8</ele>
        <time>2021-10-09T09:36:57Z</time>
      </trkpt>
      <trkpt lat="44.94529" lon="5.45841">
        <ele>1345.8</ele>
        <time>2021-10-09T09:36:58Z</time>
      </trkpt>
      <trkpt lat="44.9453" lon="5.45838">
        <ele>1345.8</ele>
        <time>2021-10-09T09:36:59Z</time>
      </trkpt>
      <trkpt lat="44.94531" lon="5.45833">
        <ele>1345.2</ele>
        <time>2021-10-09T09:37:00Z</time>
      </trkpt>
      <trkpt lat="44.94533" lon="5.45829">
        <ele>1345.2</ele>
        <time>2021-10-09T09:37:01Z</time>
      </trkpt>
      <trkpt lat="44.94534" lon="5.45825">
        <ele>1345.2</ele>
        <time>2021-10-09T09:37:02Z</time>
      </trkpt>
      <trkpt lat="44.94536" lon="5.4582">
        <ele>1344.2</ele>
        <time>2021-10-09T09:37:03Z</time>
      </trkpt>
      <trkpt lat="44.94538" lon="5.45815">
        <ele>1343.8</ele>
        <time>2021-10-09T09:37:04Z</time>
      </trkpt>
      <trkpt lat="44.9454" lon="5.4581">
        <ele>1343.8</ele>
        <time>2021-10-09T09:37:05Z</time>
      </trkpt>
      <trkpt lat="44.94542" lon="5.45804">
        <ele>1343.8</ele>
        <time>2021-10-09T09:37:06Z</time>
      </trkpt>
      <trkpt lat="44.94544" lon="5.45799">
        <ele>1343.8</ele>
        <time>2021-10-09T09:37:07Z</time>
      </trkpt>
      <trkpt lat="44.94547" lon="5.45793">
        <ele>1343.4</ele>
        <time>2021-10-09T09:37:08Z</time>
      </trkpt>
      <trkpt lat="44.94551" lon="5.4579">
        <ele>1343.4</ele>
        <time>2021-10-09T09:37:09Z</time>
      </trkpt>
      <trkpt lat="44.94555" lon="5.45788">
        <ele>1343.4</ele>
        <time>2021-10-09T09:37:10Z</time>
      </trkpt>
      <trkpt lat="44.94558" lon="5.45788">
        <ele>1343.6</ele>
        <time>2021-10-09T09:37:11Z</time>
      </trkpt>
      <trkpt lat="44.94561" lon="5.45788">
        <ele>1342.8</ele>
        <time>2021-10-09T09:37:12Z</time>
      </trkpt>
      <trkpt lat="44.94563" lon="5.45789">
        <ele>1342.8</ele>
        <time>2021-10-09T09:37:13Z</time>
      </trkpt>
      <trkpt lat="44.94566" lon="5.4579">
        <ele>1342.8</ele>
        <time>2021-10-09T09:37:14Z</time>
      </trkpt>
      <trkpt lat="44.9457" lon="5.45791">
        <ele>1342.8</ele>
        <time>2021-10-09T09:37:15Z</time>
      </trkpt>
      <trkpt lat="44.94573" lon="5.45792">
        <ele>1343.2</ele>
        <time>2021-10-09T09:37:16Z</time>
      </trkpt>
      <trkpt lat="44.94575" lon="5.45792">
        <ele>1343.2</ele>
        <time>2021-10-09T09:37:17Z</time>
      </trkpt>
      <trkpt lat="44.94577" lon="5.45793">
        <ele>1343.2</ele>
        <time>2021-10-09T09:37:18Z</time>
      </trkpt>
      <trkpt lat="44.94578" lon="5.45793">
        <ele>1342.6</ele>
        <time>2021-10-09T09:37:19Z</time>
      </trkpt>
      <trkpt lat="44.94578" lon="5.45793">
        <ele>1343.2</ele>
        <time>2021-10-09T09:37:20Z</time>
      </trkpt>
      <trkpt lat="44.94579" lon="5.45793">
        <ele>1343.2</ele>
        <time>2021-10-09T09:37:21Z</time>
      </trkpt>
      <trkpt lat="44.94579" lon="5.45793">
        <ele>1343.2</ele>
        <time>2021-10-09T09:37:22Z</time>
      </trkpt>
      <trkpt lat="44.94581" lon="5.45794">
        <ele>1343</ele>
        <time>2021-10-09T09:37:23Z</time>
      </trkpt>
      <trkpt lat="44.94582" lon="5.45795">
        <ele>1342.8</ele>
        <time>2021-10-09T09:37:24Z</time>
      </trkpt>
      <trkpt lat="44.94583" lon="5.45796">
        <ele>1342.8</ele>
        <time>2021-10-09T09:37:25Z</time>
      </trkpt>
      <trkpt lat="44.94589" lon="5.45805">
        <ele>1340.6</ele>
        <time>2021-10-09T09:37:35Z</time>
      </trkpt>
      <trkpt lat="44.94591" lon="5.45807">
        <ele>1341</ele>
        <time>2021-10-09T09:37:36Z</time>
      </trkpt>
      <trkpt lat="44.94592" lon="5.45808">
        <ele>1341</ele>
        <time>2021-10-09T09:37:37Z</time>
      </trkpt>
      <trkpt lat="44.94593" lon="5.45809">
        <ele>1341</ele>
        <time>2021-10-09T09:37:38Z</time>
      </trkpt>
      <trkpt lat="44.94594" lon="5.4581">
        <ele>1341</ele>
        <time>2021-10-09T09:37:39Z</time>
      </trkpt>
      <trkpt lat="44.94595" lon="5.45812">
        <ele>1341.4</ele>
        <time>2021-10-09T09:37:40Z</time>
      </trkpt>
      <trkpt lat="44.94596" lon="5.45813">
        <ele>1341.4</ele>
        <time>2021-10-09T09:37:41Z</time>
      </trkpt>
      <trkpt lat="44.94596" lon="5.45814">
        <ele>1341.4</ele>
        <time>2021-10-09T09:37:42Z</time>
      </trkpt>
      <trkpt lat="44.94597" lon="5.45814">
        <ele>1341.4</ele>
        <time>2021-10-09T09:37:43Z</time>
      </trkpt>
      <trkpt lat="44.94597" lon="5.45814">
        <ele>1341.6</ele>
        <time>2021-10-09T09:37:44Z</time>
      </trkpt>
      <trkpt lat="44.94598" lon="5.45814">
        <ele>1341.6</ele>
        <time>2021-10-09T09:37:45Z</time>
      </trkpt>
      <trkpt lat="44.94599" lon="5.45815">
        <ele>1341.6</ele>
        <time>2021-10-09T09:37:46Z</time>
      </trkpt>
      <trkpt lat="44.94599" lon="5.45815">
        <ele>1341.6</ele>
        <time>2021-10-09T09:37:47Z</time>
      </trkpt>
      <trkpt lat="44.946" lon="5.45816">
        <ele>1341.6</ele>
        <time>2021-10-09T09:37:48Z</time>
      </trkpt>
      <trkpt lat="44.94601" lon="5.45816">
        <ele>1341.6</ele>
        <time>2021-10-09T09:37:49Z</time>
      </trkpt>
      <trkpt lat="44.94602" lon="5.45817">
        <ele>1341.6</ele>
        <time>2021-10-09T09:37:50Z</time>
      </trkpt>
      <trkpt lat="44.94603" lon="5.45818">
        <ele>1341.6</ele>
        <time>2021-10-09T09:37:51Z</time>
      </trkpt>
      <trkpt lat="44.94604" lon="5.45819">
        <ele>1341.4</ele>
        <time>2021-10-09T09:37:52Z</time>
      </trkpt>
      <trkpt lat="44.94605" lon="5.4582">
        <ele>1341.4</ele>
        <time>2021-10-09T09:37:53Z</time>
      </trkpt>
      <trkpt lat="44.94606" lon="5.45821">
        <ele>1341.4</ele>
        <time>2021-10-09T09:37:54Z</time>
      </trkpt>
      <trkpt lat="44.94607" lon="5.45822">
        <ele>1341.4</ele>
        <time>2021-10-09T09:37:55Z</time>
      </trkpt>
      <trkpt lat="44.94608" lon="5.45823">
        <ele>1340.8</ele>
        <time>2021-10-09T09:37:56Z</time>
      </trkpt>
      <trkpt lat="44.94609" lon="5.45823">
        <ele>1340.8</ele>
        <time>2021-10-09T09:37:57Z</time>
      </trkpt>
      <trkpt lat="44.9461" lon="5.45823">
        <ele>1340.8</ele>
        <time>2021-10-09T09:37:58Z</time>
      </trkpt>
      <trkpt lat="44.94611" lon="5.45823">
        <ele>1341.2</ele>
        <time>2021-10-09T09:37:59Z</time>
      </trkpt>
      <trkpt lat="44.94612" lon="5.45823">
        <ele>1341.4</ele>
        <time>2021-10-09T09:38:00Z</time>
      </trkpt>
      <trkpt lat="44.94613" lon="5.45823">
        <ele>1341.4</ele>
        <time>2021-10-09T09:38:01Z</time>
      </trkpt>
      <trkpt lat="44.94614" lon="5.45823">
        <ele>1341.4</ele>
        <time>2021-10-09T09:38:02Z</time>
      </trkpt>
      <trkpt lat="44.94616" lon="5.45823">
        <ele>1341.4</ele>
        <time>2021-10-09T09:38:03Z</time>
      </trkpt>
      <trkpt lat="44.94616" lon="5.45823">
        <ele>1341.6</ele>
        <time>2021-10-09T09:38:04Z</time>
      </trkpt>
      <trkpt lat="44.94618" lon="5.45823">
        <ele>1341.6</ele>
        <time>2021-10-09T09:38:05Z</time>
      </trkpt>
      <trkpt lat="44.94619" lon="5.45824">
        <ele>1341.6</ele>
        <time>2021-10-09T09:38:06Z</time>
      </trkpt>
      <trkpt lat="44.94619" lon="5.45824">
        <ele>1341.6</ele>
        <time>2021-10-09T09:38:07Z</time>
      </trkpt>
      <trkpt lat="44.94619" lon="5.45823">
        <ele>1341.8</ele>
        <time>2021-10-09T09:38:08Z</time>
      </trkpt>
      <trkpt lat="44.9462" lon="5.45823">
        <ele>1341.8</ele>
        <time>2021-10-09T09:38:09Z</time>
      </trkpt>
      <trkpt lat="44.94621" lon="5.45822">
        <ele>1341.8</ele>
        <time>2021-10-09T09:38:10Z</time>
      </trkpt>
      <trkpt lat="44.94622" lon="5.45822">
        <ele>1342.6</ele>
        <time>2021-10-09T09:38:11Z</time>
      </trkpt>
      <trkpt lat="44.94622" lon="5.45822">
        <ele>1342.4</ele>
        <time>2021-10-09T09:38:12Z</time>
      </trkpt>
      <trkpt lat="44.94623" lon="5.45823">
        <ele>1342.4</ele>
        <time>2021-10-09T09:38:13Z</time>
      </trkpt>
      <trkpt lat="44.94624" lon="5.45823">
        <ele>1342.4</ele>
        <time>2021-10-09T09:38:14Z</time>
      </trkpt>
      <trkpt lat="44.94625" lon="5.45824">
        <ele>1343</ele>
        <time>2021-10-09T09:38:15Z</time>
      </trkpt>
      <trkpt lat="44.94625" lon="5.45824">
        <ele>1343.4</ele>
        <time>2021-10-09T09:38:16Z</time>
      </trkpt>
      <trkpt lat="44.94626" lon="5.45825">
        <ele>1343.4</ele>
        <time>2021-10-09T09:38:17Z</time>
      </trkpt>
      <trkpt lat="44.94627" lon="5.45825">
        <ele>1343.4</ele>
        <time>2021-10-09T09:38:18Z</time>
      </trkpt>
      <trkpt lat="44.94627" lon="5.45825">
        <ele>1343.4</ele>
        <time>2021-10-09T09:38:19Z</time>
      </trkpt>
      <trkpt lat="44.94628" lon="5.45825">
        <ele>1343.8</ele>
        <time>2021-10-09T09:38:20Z</time>
      </trkpt>
      <trkpt lat="44.94628" lon="5.45825">
        <ele>1343.8</ele>
        <time>2021-10-09T09:38:21Z</time>
      </trkpt>
      <trkpt lat="44.94629" lon="5.45825">
        <ele>1343.8</ele>
        <time>2021-10-09T09:38:22Z</time>
      </trkpt>
      <trkpt lat="44.94629" lon="5.45825">
        <ele>1344</ele>
        <time>2021-10-09T09:38:23Z</time>
      </trkpt>
      <trkpt lat="44.9463" lon="5.45826">
        <ele>1344</ele>
        <time>2021-10-09T09:38:24Z</time>
      </trkpt>
      <trkpt lat="44.9463" lon="5.45827">
        <ele>1344</ele>
        <time>2021-10-09T09:38:25Z</time>
      </trkpt>
      <trkpt lat="44.94631" lon="5.45827">
        <ele>1344</ele>
        <time>2021-10-09T09:38:26Z</time>
      </trkpt>
      <trkpt lat="44.94631" lon="5.45828">
        <ele>1344.4</ele>
        <time>2021-10-09T09:38:27Z</time>
      </trkpt>
      <trkpt lat="44.94631" lon="5.45829">
        <ele>1344.2</ele>
        <time>2021-10-09T09:38:28Z</time>
      </trkpt>
      <trkpt lat="44.94632" lon="5.4583">
        <ele>1344.2</ele>
        <time>2021-10-09T09:38:29Z</time>
      </trkpt>
      <trkpt lat="44.94633" lon="5.4583">
        <ele>1344.2</ele>
        <time>2021-10-09T09:38:30Z</time>
      </trkpt>
      <trkpt lat="44.94633" lon="5.45831">
        <ele>1344.2</ele>
        <time>2021-10-09T09:38:31Z</time>
      </trkpt>
      <trkpt lat="44.94634" lon="5.45832">
        <ele>1343.2</ele>
        <time>2021-10-09T09:38:32Z</time>
      </trkpt>
      <trkpt lat="44.94635" lon="5.45833">
        <ele>1343.2</ele>
        <time>2021-10-09T09:38:33Z</time>
      </trkpt>
      <trkpt lat="44.94635" lon="5.45834">
        <ele>1343.2</ele>
        <time>2021-10-09T09:38:34Z</time>
      </trkpt>
      <trkpt lat="44.94635" lon="5.45835">
        <ele>1343.2</ele>
        <time>2021-10-09T09:38:35Z</time>
      </trkpt>
      <trkpt lat="44.94636" lon="5.45836">
        <ele>1342.6</ele>
        <time>2021-10-09T09:38:36Z</time>
      </trkpt>
      <trkpt lat="44.94635" lon="5.45837">
        <ele>1342.6</ele>
        <time>2021-10-09T09:38:37Z</time>
      </trkpt>
      <trkpt lat="44.94635" lon="5.45839">
        <ele>1342.6</ele>
        <time>2021-10-09T09:38:38Z</time>
      </trkpt>
      <trkpt lat="44.94634" lon="5.45877">
        <ele>1338.6</ele>
        <time>2021-10-09T09:39:18Z</time>
      </trkpt>
      <trkpt lat="44.94633" lon="5.4588">
        <ele>1337.6</ele>
        <time>2021-10-09T09:39:19Z</time>
      </trkpt>
      <trkpt lat="44.94633" lon="5.45883">
        <ele>1336.4</ele>
        <time>2021-10-09T09:39:20Z</time>
      </trkpt>
      <trkpt lat="44.94633" lon="5.45886">
        <ele>1336.4</ele>
        <time>2021-10-09T09:39:21Z</time>
      </trkpt>
      <trkpt lat="44.94633" lon="5.45889">
        <ele>1336.4</ele>
        <time>2021-10-09T09:39:22Z</time>
      </trkpt>
      <trkpt lat="44.94633" lon="5.45892">
        <ele>1336.4</ele>
        <time>2021-10-09T09:39:23Z</time>
      </trkpt>
      <trkpt lat="44.94634" lon="5.45894">
        <ele>1334.2</ele>
        <time>2021-10-09T09:39:24Z</time>
      </trkpt>
      <trkpt lat="44.94634" lon="5.45895">
        <ele>1334.2</ele>
        <time>2021-10-09T09:39:25Z</time>
      </trkpt>
      <trkpt lat="44.94634" lon="5.45898">
        <ele>1334.2</ele>
        <time>2021-10-09T09:39:26Z</time>
      </trkpt>
      <trkpt lat="44.94632" lon="5.459">
        <ele>1334.2</ele>
        <time>2021-10-09T09:39:27Z</time>
      </trkpt>
      <trkpt lat="44.94632" lon="5.45902">
        <ele>1332.4</ele>
        <time>2021-10-09T09:39:28Z</time>
      </trkpt>
      <trkpt lat="44.94632" lon="5.45904">
        <ele>1332.4</ele>
        <time>2021-10-09T09:39:29Z</time>
      </trkpt>
      <trkpt lat="44.94632" lon="5.45908">
        <ele>1332.4</ele>
        <time>2021-10-09T09:39:30Z</time>
      </trkpt>
      <trkpt lat="44.94632" lon="5.4591">
        <ele>1332.4</ele>
        <time>2021-10-09T09:39:31Z</time>
      </trkpt>
      <trkpt lat="44.94632" lon="5.45914">
        <ele>1331.4</ele>
        <time>2021-10-09T09:39:32Z</time>
      </trkpt>
      <trkpt lat="44.94633" lon="5.45916">
        <ele>1331.4</ele>
        <time>2021-10-09T09:39:33Z</time>
      </trkpt>
      <trkpt lat="44.94633" lon="5.45919">
        <ele>1331.4</ele>
        <time>2021-10-09T09:39:34Z</time>
      </trkpt>
      <trkpt lat="44.94634" lon="5.45921">
        <ele>1330.4</ele>
        <time>2021-10-09T09:39:35Z</time>
      </trkpt>
      <trkpt lat="44.94635" lon="5.45923">
        <ele>1330</ele>
        <time>2021-10-09T09:39:36Z</time>
      </trkpt>
      <trkpt lat="44.94636" lon="5.45924">
        <ele>1330</ele>
        <time>2021-10-09T09:39:37Z</time>
      </trkpt>
      <trkpt lat="44.94638" lon="5.45926">
        <ele>1330</ele>
        <time>2021-10-09T09:39:38Z</time>
      </trkpt>
      <trkpt lat="44.94639" lon="5.45927">
        <ele>1329</ele>
        <time>2021-10-09T09:39:39Z</time>
      </trkpt>
      <trkpt lat="44.9464" lon="5.45928">
        <ele>1327.6</ele>
        <time>2021-10-09T09:39:40Z</time>
      </trkpt>
      <trkpt lat="44.94642" lon="5.4593">
        <ele>1327.6</ele>
        <time>2021-10-09T09:39:41Z</time>
      </trkpt>
      <trkpt lat="44.94642" lon="5.45932">
        <ele>1327.6</ele>
        <time>2021-10-09T09:39:42Z</time>
      </trkpt>
      <trkpt lat="44.94642" lon="5.45935">
        <ele>1326.6</ele>
        <time>2021-10-09T09:39:43Z</time>
      </trkpt>
      <trkpt lat="44.94642" lon="5.45936">
        <ele>1325.6</ele>
        <time>2021-10-09T09:39:44Z</time>
      </trkpt>
      <trkpt lat="44.94642" lon="5.45939">
        <ele>1325.6</ele>
        <time>2021-10-09T09:39:45Z</time>
      </trkpt>
      <trkpt lat="44.94643" lon="5.45945">
        <ele>1325.6</ele>
        <time>2021-10-09T09:39:46Z</time>
      </trkpt>
      <trkpt lat="44.94644" lon="5.45949">
        <ele>1324.6</ele>
        <time>2021-10-09T09:39:47Z</time>
      </trkpt>
      <trkpt lat="44.94645" lon="5.45952">
        <ele>1323.2</ele>
        <time>2021-10-09T09:39:48Z</time>
      </trkpt>
      <trkpt lat="44.94646" lon="5.45957">
        <ele>1323.2</ele>
        <time>2021-10-09T09:39:49Z</time>
      </trkpt>
      <trkpt lat="44.94647" lon="5.45962">
        <ele>1323.2</ele>
        <time>2021-10-09T09:39:50Z</time>
      </trkpt>
      <trkpt lat="44.94648" lon="5.45968">
        <ele>1322.2</ele>
        <time>2021-10-09T09:39:51Z</time>
      </trkpt>
      <trkpt lat="44.94647" lon="5.45973">
        <ele>1322</ele>
        <time>2021-10-09T09:39:52Z</time>
      </trkpt>
      <trkpt lat="44.94646" lon="5.45977">
        <ele>1322</ele>
        <time>2021-10-09T09:39:53Z</time>
      </trkpt>
      <trkpt lat="44.94647" lon="5.45983">
        <ele>1322</ele>
        <time>2021-10-09T09:39:54Z</time>
      </trkpt>
      <trkpt lat="44.94648" lon="5.45988">
        <ele>1322</ele>
        <time>2021-10-09T09:39:55Z</time>
      </trkpt>
      <trkpt lat="44.94649" lon="5.45993">
        <ele>1321.4</ele>
        <time>2021-10-09T09:39:56Z</time>
      </trkpt>
      <trkpt lat="44.94651" lon="5.45998">
        <ele>1321.4</ele>
        <time>2021-10-09T09:39:57Z</time>
      </trkpt>
      <trkpt lat="44.94651" lon="5.46002">
        <ele>1321.4</ele>
        <time>2021-10-09T09:39:58Z</time>
      </trkpt>
      <trkpt lat="44.94653" lon="5.46006">
        <ele>1321.4</ele>
        <time>2021-10-09T09:39:59Z</time>
      </trkpt>
      <trkpt lat="44.94657" lon="5.4601">
        <ele>1321</ele>
        <time>2021-10-09T09:40:00Z</time>
      </trkpt>
      <trkpt lat="44.9466" lon="5.46015">
        <ele>1321</ele>
        <time>2021-10-09T09:40:01Z</time>
      </trkpt>
      <trkpt lat="44.94662" lon="5.46018">
        <ele>1321</ele>
        <time>2021-10-09T09:40:02Z</time>
      </trkpt>
      <trkpt lat="44.94663" lon="5.46021">
        <ele>1321</ele>
        <time>2021-10-09T09:40:03Z</time>
      </trkpt>
      <trkpt lat="44.94664" lon="5.46025">
        <ele>1321</ele>
        <time>2021-10-09T09:40:04Z</time>
      </trkpt>
      <trkpt lat="44.94666" lon="5.4603">
        <ele>1321</ele>
        <time>2021-10-09T09:40:05Z</time>
      </trkpt>
      <trkpt lat="44.94668" lon="5.46033">
        <ele>1321</ele>
        <time>2021-10-09T09:40:06Z</time>
      </trkpt>
      <trkpt lat="44.94669" lon="5.46036">
        <ele>1321</ele>
        <time>2021-10-09T09:40:07Z</time>
      </trkpt>
      <trkpt lat="44.9467" lon="5.46039">
        <ele>1322</ele>
        <time>2021-10-09T09:40:08Z</time>
      </trkpt>
      <trkpt lat="44.94672" lon="5.46041">
        <ele>1322</ele>
        <time>2021-10-09T09:40:09Z</time>
      </trkpt>
      <trkpt lat="44.94673" lon="5.46043">
        <ele>1322</ele>
        <time>2021-10-09T09:40:10Z</time>
      </trkpt>
      <trkpt lat="44.94674" lon="5.46045">
        <ele>1322</ele>
        <time>2021-10-09T09:40:11Z</time>
      </trkpt>
      <trkpt lat="44.94675" lon="5.46047">
        <ele>1322</ele>
        <time>2021-10-09T09:40:12Z</time>
      </trkpt>
      <trkpt lat="44.94676" lon="5.4605">
        <ele>1322</ele>
        <time>2021-10-09T09:40:13Z</time>
      </trkpt>
      <trkpt lat="44.94676" lon="5.46052">
        <ele>1322</ele>
        <time>2021-10-09T09:40:14Z</time>
      </trkpt>
      <trkpt lat="44.94676" lon="5.46055">
        <ele>1321.4</ele>
        <time>2021-10-09T09:40:15Z</time>
      </trkpt>
      <trkpt lat="44.94677" lon="5.46057">
        <ele>1321.6</ele>
        <time>2021-10-09T09:40:16Z</time>
      </trkpt>
      <trkpt lat="44.94678" lon="5.46059">
        <ele>1321.6</ele>
        <time>2021-10-09T09:40:17Z</time>
      </trkpt>
      <trkpt lat="44.94679" lon="5.4606">
        <ele>1321.6</ele>
        <time>2021-10-09T09:40:18Z</time>
      </trkpt>
      <trkpt lat="44.9468" lon="5.46063">
        <ele>1321.6</ele>
        <time>2021-10-09T09:40:19Z</time>
      </trkpt>
      <trkpt lat="44.9468" lon="5.46066">
        <ele>1321.8</ele>
        <time>2021-10-09T09:40:20Z</time>
      </trkpt>
      <trkpt lat="44.9468" lon="5.46068">
        <ele>1321.8</ele>
        <time>2021-10-09T09:40:21Z</time>
      </trkpt>
      <trkpt lat="44.94681" lon="5.46071">
        <ele>1321.8</ele>
        <time>2021-10-09T09:40:22Z</time>
      </trkpt>
      <trkpt lat="44.94682" lon="5.46073">
        <ele>1320.8</ele>
        <time>2021-10-09T09:40:23Z</time>
      </trkpt>
      <trkpt lat="44.94682" lon="5.46076">
        <ele>1320.2</ele>
        <time>2021-10-09T09:40:24Z</time>
      </trkpt>
      <trkpt lat="44.94683" lon="5.46078">
        <ele>1320.2</ele>
        <time>2021-10-09T09:40:25Z</time>
      </trkpt>
      <trkpt lat="44.94683" lon="5.4608">
        <ele>1320.2</ele>
        <time>2021-10-09T09:40:26Z</time>
      </trkpt>
      <trkpt lat="44.94682" lon="5.46082">
        <ele>1320.2</ele>
        <time>2021-10-09T09:40:27Z</time>
      </trkpt>
      <trkpt lat="44.94683" lon="5.46084">
        <ele>1320.4</ele>
        <time>2021-10-09T09:40:28Z</time>
      </trkpt>
      <trkpt lat="44.94683" lon="5.46086">
        <ele>1320.4</ele>
        <time>2021-10-09T09:40:29Z</time>
      </trkpt>
      <trkpt lat="44.94684" lon="5.46089">
        <ele>1320.4</ele>
        <time>2021-10-09T09:40:30Z</time>
      </trkpt>
      <trkpt lat="44.94685" lon="5.46092">
        <ele>1320.4</ele>
        <time>2021-10-09T09:40:31Z</time>
      </trkpt>
      <trkpt lat="44.94685" lon="5.46093">
        <ele>1320.4</ele>
        <time>2021-10-09T09:40:32Z</time>
      </trkpt>
      <trkpt lat="44.94685" lon="5.46096">
        <ele>1320.4</ele>
        <time>2021-10-09T09:40:33Z</time>
      </trkpt>
      <trkpt lat="44.94685" lon="5.46098">
        <ele>1320.4</ele>
        <time>2021-10-09T09:40:34Z</time>
      </trkpt>
      <trkpt lat="44.94685" lon="5.461">
        <ele>1320</ele>
        <time>2021-10-09T09:40:35Z</time>
      </trkpt>
      <trkpt lat="44.94686" lon="5.46103">
        <ele>1320.2</ele>
        <time>2021-10-09T09:40:36Z</time>
      </trkpt>
      <trkpt lat="44.94685" lon="5.46105">
        <ele>1320.2</ele>
        <time>2021-10-09T09:40:37Z</time>
      </trkpt>
      <trkpt lat="44.94685" lon="5.46108">
        <ele>1320.2</ele>
        <time>2021-10-09T09:40:38Z</time>
      </trkpt>
      <trkpt lat="44.94685" lon="5.4611">
        <ele>1319.4</ele>
        <time>2021-10-09T09:40:39Z</time>
      </trkpt>
      <trkpt lat="44.94685" lon="5.46113">
        <ele>1319.2</ele>
        <time>2021-10-09T09:40:40Z</time>
      </trkpt>
      <trkpt lat="44.94685" lon="5.46116">
        <ele>1319.2</ele>
        <time>2021-10-09T09:40:41Z</time>
      </trkpt>
      <trkpt lat="44.94686" lon="5.4612">
        <ele>1319.2</ele>
        <time>2021-10-09T09:40:42Z</time>
      </trkpt>
      <trkpt lat="44.94686" lon="5.46124">
        <ele>1318.2</ele>
        <time>2021-10-09T09:40:43Z</time>
      </trkpt>
      <trkpt lat="44.94686" lon="5.46127">
        <ele>1318.6</ele>
        <time>2021-10-09T09:40:44Z</time>
      </trkpt>
      <trkpt lat="44.94686" lon="5.4613">
        <ele>1318.6</ele>
        <time>2021-10-09T09:40:45Z</time>
      </trkpt>
      <trkpt lat="44.94686" lon="5.46133">
        <ele>1318.6</ele>
        <time>2021-10-09T09:40:46Z</time>
      </trkpt>
      <trkpt lat="44.94687" lon="5.46135">
        <ele>1318.6</ele>
        <time>2021-10-09T09:40:47Z</time>
      </trkpt>
      <trkpt lat="44.94687" lon="5.46138">
        <ele>1318.2</ele>
        <time>2021-10-09T09:40:48Z</time>
      </trkpt>
      <trkpt lat="44.94688" lon="5.46142">
        <ele>1318.2</ele>
        <time>2021-10-09T09:40:49Z</time>
      </trkpt>
      <trkpt lat="44.94688" lon="5.46144">
        <ele>1318.2</ele>
        <time>2021-10-09T09:40:50Z</time>
      </trkpt>
      <trkpt lat="44.94689" lon="5.46147">
        <ele>1318.2</ele>
        <time>2021-10-09T09:40:51Z</time>
      </trkpt>
      <trkpt lat="44.94689" lon="5.4615">
        <ele>1317</ele>
        <time>2021-10-09T09:40:52Z</time>
      </trkpt>
      <trkpt lat="44.94689" lon="5.46153">
        <ele>1317</ele>
        <time>2021-10-09T09:40:53Z</time>
      </trkpt>
      <trkpt lat="44.94689" lon="5.46155">
        <ele>1317</ele>
        <time>2021-10-09T09:40:54Z</time>
      </trkpt>
      <trkpt lat="44.94688" lon="5.46159">
        <ele>1316</ele>
        <time>2021-10-09T09:40:55Z</time>
      </trkpt>
      <trkpt lat="44.94688" lon="5.46161">
        <ele>1315.4</ele>
        <time>2021-10-09T09:40:56Z</time>
      </trkpt>
      <trkpt lat="44.94688" lon="5.46165">
        <ele>1315.4</ele>
        <time>2021-10-09T09:40:57Z</time>
      </trkpt>
      <trkpt lat="44.94688" lon="5.46169">
        <ele>1315.4</ele>
        <time>2021-10-09T09:40:58Z</time>
      </trkpt>
      <trkpt lat="44.94689" lon="5.46173">
        <ele>1314.4</ele>
        <time>2021-10-09T09:40:59Z</time>
      </trkpt>
      <trkpt lat="44.9469" lon="5.46178">
        <ele>1313.8</ele>
        <time>2021-10-09T09:41:00Z</time>
      </trkpt>
      <trkpt lat="44.94691" lon="5.46182">
        <ele>1313.8</ele>
        <time>2021-10-09T09:41:01Z</time>
      </trkpt>
      <trkpt lat="44.94691" lon="5.46187">
        <ele>1313.8</ele>
        <time>2021-10-09T09:41:02Z</time>
      </trkpt>
      <trkpt lat="44.94689" lon="5.46192">
        <ele>1313.2</ele>
        <time>2021-10-09T09:41:03Z</time>
      </trkpt>
      <trkpt lat="44.94688" lon="5.46197">
        <ele>1313.2</ele>
        <time>2021-10-09T09:41:04Z</time>
      </trkpt>
      <trkpt lat="44.94686" lon="5.462">
        <ele>1313.2</ele>
        <time>2021-10-09T09:41:05Z</time>
      </trkpt>
      <trkpt lat="44.94686" lon="5.46204">
        <ele>1313.2</ele>
        <time>2021-10-09T09:41:06Z</time>
      </trkpt>
      <trkpt lat="44.94685" lon="5.46206">
        <ele>1313.2</ele>
        <time>2021-10-09T09:41:07Z</time>
      </trkpt>
      <trkpt lat="44.94684" lon="5.46209">
        <ele>1314.4</ele>
        <time>2021-10-09T09:41:08Z</time>
      </trkpt>
      <trkpt lat="44.94683" lon="5.46212">
        <ele>1314.4</ele>
        <time>2021-10-09T09:41:09Z</time>
      </trkpt>
      <trkpt lat="44.94682" lon="5.46215">
        <ele>1314.4</ele>
        <time>2021-10-09T09:41:10Z</time>
      </trkpt>
      <trkpt lat="44.94681" lon="5.46217">
        <ele>1314.8</ele>
        <time>2021-10-09T09:41:11Z</time>
      </trkpt>
      <trkpt lat="44.9468" lon="5.46219">
        <ele>1313.8</ele>
        <time>2021-10-09T09:41:12Z</time>
      </trkpt>
      <trkpt lat="44.94679" lon="5.46222">
        <ele>1313.8</ele>
        <time>2021-10-09T09:41:13Z</time>
      </trkpt>
      <trkpt lat="44.94678" lon="5.46224">
        <ele>1313.8</ele>
        <time>2021-10-09T09:41:14Z</time>
      </trkpt>
      <trkpt lat="44.94677" lon="5.46227">
        <ele>1314.8</ele>
        <time>2021-10-09T09:41:15Z</time>
      </trkpt>
      <trkpt lat="44.94676" lon="5.46229">
        <ele>1315.2</ele>
        <time>2021-10-09T09:41:16Z</time>
      </trkpt>
      <trkpt lat="44.94675" lon="5.46233">
        <ele>1315.2</ele>
        <time>2021-10-09T09:41:17Z</time>
      </trkpt>
      <trkpt lat="44.94675" lon="5.46236">
        <ele>1315.2</ele>
        <time>2021-10-09T09:41:18Z</time>
      </trkpt>
      <trkpt lat="44.94674" lon="5.46238">
        <ele>1316</ele>
        <time>2021-10-09T09:41:19Z</time>
      </trkpt>
      <trkpt lat="44.94674" lon="5.46241">
        <ele>1314.8</ele>
        <time>2021-10-09T09:41:20Z</time>
      </trkpt>
      <trkpt lat="44.94674" lon="5.46244">
        <ele>1314.8</ele>
        <time>2021-10-09T09:41:21Z</time>
      </trkpt>
      <trkpt lat="44.94673" lon="5.46246">
        <ele>1314.8</ele>
        <time>2021-10-09T09:41:22Z</time>
      </trkpt>
      <trkpt lat="44.94672" lon="5.46249">
        <ele>1314.8</ele>
        <time>2021-10-09T09:41:23Z</time>
      </trkpt>
      <trkpt lat="44.94671" lon="5.46252">
        <ele>1315.2</ele>
        <time>2021-10-09T09:41:24Z</time>
      </trkpt>
      <trkpt lat="44.94671" lon="5.46255">
        <ele>1315.2</ele>
        <time>2021-10-09T09:41:25Z</time>
      </trkpt>
      <trkpt lat="44.9467" lon="5.46259">
        <ele>1315.2</ele>
        <time>2021-10-09T09:41:26Z</time>
      </trkpt>
      <trkpt lat="44.94669" lon="5.46262">
        <ele>1315.2</ele>
        <time>2021-10-09T09:41:27Z</time>
      </trkpt>
      <trkpt lat="44.94669" lon="5.46265">
        <ele>1314.6</ele>
        <time>2021-10-09T09:41:28Z</time>
      </trkpt>
      <trkpt lat="44.9467" lon="5.46267">
        <ele>1314.6</ele>
        <time>2021-10-09T09:41:29Z</time>
      </trkpt>
      <trkpt lat="44.94671" lon="5.4627">
        <ele>1314.6</ele>
        <time>2021-10-09T09:41:30Z</time>
      </trkpt>
      <trkpt lat="44.94671" lon="5.46272">
        <ele>1314.6</ele>
        <time>2021-10-09T09:41:31Z</time>
      </trkpt>
      <trkpt lat="44.94672" lon="5.46275">
        <ele>1315.2</ele>
        <time>2021-10-09T09:41:32Z</time>
      </trkpt>
      <trkpt lat="44.94671" lon="5.46279">
        <ele>1315.2</ele>
        <time>2021-10-09T09:41:33Z</time>
      </trkpt>
      <trkpt lat="44.94671" lon="5.46282">
        <ele>1315.2</ele>
        <time>2021-10-09T09:41:34Z</time>
      </trkpt>
      <trkpt lat="44.94671" lon="5.46285">
        <ele>1315</ele>
        <time>2021-10-09T09:41:35Z</time>
      </trkpt>
      <trkpt lat="44.94671" lon="5.46287">
        <ele>1314.8</ele>
        <time>2021-10-09T09:41:36Z</time>
      </trkpt>
      <trkpt lat="44.94672" lon="5.4629">
        <ele>1314.8</ele>
        <time>2021-10-09T09:41:37Z</time>
      </trkpt>
      <trkpt lat="44.94673" lon="5.46293">
        <ele>1314.8</ele>
        <time>2021-10-09T09:41:38Z</time>
      </trkpt>
      <trkpt lat="44.94673" lon="5.46295">
        <ele>1314.8</ele>
        <time>2021-10-09T09:41:39Z</time>
      </trkpt>
      <trkpt lat="44.94674" lon="5.46298">
        <ele>1313.2</ele>
        <time>2021-10-09T09:41:40Z</time>
      </trkpt>
      <trkpt lat="44.94675" lon="5.46302">
        <ele>1313.2</ele>
        <time>2021-10-09T09:41:41Z</time>
      </trkpt>
      <trkpt lat="44.94677" lon="5.46306">
        <ele>1313.2</ele>
        <time>2021-10-09T09:41:42Z</time>
      </trkpt>
      <trkpt lat="44.94679" lon="5.46312">
        <ele>1312.2</ele>
        <time>2021-10-09T09:41:43Z</time>
      </trkpt>
      <trkpt lat="44.94682" lon="5.46318">
        <ele>1310.6</ele>
        <time>2021-10-09T09:41:44Z</time>
      </trkpt>
      <trkpt lat="44.94684" lon="5.46321">
        <ele>1310.6</ele>
        <time>2021-10-09T09:41:45Z</time>
      </trkpt>
      <trkpt lat="44.94687" lon="5.46322">
        <ele>1310.6</ele>
        <time>2021-10-09T09:41:46Z</time>
      </trkpt>
      <trkpt lat="44.94688" lon="5.46322">
        <ele>1311.6</ele>
        <time>2021-10-09T09:41:47Z</time>
      </trkpt>
      <trkpt lat="44.94689" lon="5.46323">
        <ele>1314.2</ele>
        <time>2021-10-09T09:41:48Z</time>
      </trkpt>
      <trkpt lat="44.94689" lon="5.46322">
        <ele>1314.2</ele>
        <time>2021-10-09T09:41:49Z</time>
      </trkpt>
      <trkpt lat="44.94689" lon="5.46322">
        <ele>1314.2</ele>
        <time>2021-10-09T09:41:50Z</time>
      </trkpt>
      <trkpt lat="44.9469" lon="5.46323">
        <ele>1313.4</ele>
        <time>2021-10-09T09:41:51Z</time>
      </trkpt>
      <trkpt lat="44.94691" lon="5.46323">
        <ele>1313.6</ele>
        <time>2021-10-09T09:41:52Z</time>
      </trkpt>
      <trkpt lat="44.94692" lon="5.46323">
        <ele>1313.6</ele>
        <time>2021-10-09T09:41:53Z</time>
      </trkpt>
      <trkpt lat="44.94693" lon="5.46324">
        <ele>1313.6</ele>
        <time>2021-10-09T09:41:54Z</time>
      </trkpt>
      <trkpt lat="44.94693" lon="5.46324">
        <ele>1314.6</ele>
        <time>2021-10-09T09:41:55Z</time>
      </trkpt>
      <trkpt lat="44.94694" lon="5.46324">
        <ele>1314.6</ele>
        <time>2021-10-09T09:41:56Z</time>
      </trkpt>
      <trkpt lat="44.94698" lon="5.46326">
        <ele>1313.6</ele>
        <time>2021-10-09T09:43:33Z</time>
      </trkpt>
      <trkpt lat="44.947" lon="5.46328">
        <ele>1313.6</ele>
        <time>2021-10-09T09:43:34Z</time>
      </trkpt>
      <trkpt lat="44.94703" lon="5.46329">
        <ele>1312.6</ele>
        <time>2021-10-09T09:43:35Z</time>
      </trkpt>
      <trkpt lat="44.94705" lon="5.4633">
        <ele>1313</ele>
        <time>2021-10-09T09:43:36Z</time>
      </trkpt>
      <trkpt lat="44.94707" lon="5.46331">
        <ele>1313</ele>
        <time>2021-10-09T09:43:37Z</time>
      </trkpt>
      <trkpt lat="44.9471" lon="5.46331">
        <ele>1313</ele>
        <time>2021-10-09T09:43:38Z</time>
      </trkpt>
      <trkpt lat="44.94711" lon="5.46331">
        <ele>1312</ele>
        <time>2021-10-09T09:43:39Z</time>
      </trkpt>
      <trkpt lat="44.94713" lon="5.46331">
        <ele>1311.6</ele>
        <time>2021-10-09T09:43:40Z</time>
      </trkpt>
      <trkpt lat="44.94715" lon="5.46331">
        <ele>1311.6</ele>
        <time>2021-10-09T09:43:41Z</time>
      </trkpt>
      <trkpt lat="44.94717" lon="5.46331">
        <ele>1311.6</ele>
        <time>2021-10-09T09:43:42Z</time>
      </trkpt>
      <trkpt lat="44.94719" lon="5.4633">
        <ele>1311.6</ele>
        <time>2021-10-09T09:43:43Z</time>
      </trkpt>
      <trkpt lat="44.94722" lon="5.4633">
        <ele>1311</ele>
        <time>2021-10-09T09:43:44Z</time>
      </trkpt>
      <trkpt lat="44.94724" lon="5.4633">
        <ele>1311</ele>
        <time>2021-10-09T09:43:45Z</time>
      </trkpt>
      <trkpt lat="44.94726" lon="5.46329">
        <ele>1311</ele>
        <time>2021-10-09T09:43:46Z</time>
      </trkpt>
      <trkpt lat="44.94728" lon="5.46329">
        <ele>1310</ele>
        <time>2021-10-09T09:43:47Z</time>
      </trkpt>
      <trkpt lat="44.9473" lon="5.4633">
        <ele>1309</ele>
        <time>2021-10-09T09:43:48Z</time>
      </trkpt>
      <trkpt lat="44.94732" lon="5.4633">
        <ele>1309</ele>
        <time>2021-10-09T09:43:49Z</time>
      </trkpt>
      <trkpt lat="44.94734" lon="5.46329">
        <ele>1309</ele>
        <time>2021-10-09T09:43:50Z</time>
      </trkpt>
      <trkpt lat="44.94738" lon="5.46327">
        <ele>1308</ele>
        <time>2021-10-09T09:43:51Z</time>
      </trkpt>
      <trkpt lat="44.94743" lon="5.46324">
        <ele>1306</ele>
        <time>2021-10-09T09:43:52Z</time>
      </trkpt>
      <trkpt lat="44.94748" lon="5.46321">
        <ele>1306</ele>
        <time>2021-10-09T09:43:53Z</time>
      </trkpt>
      <trkpt lat="44.94753" lon="5.46318">
        <ele>1306</ele>
        <time>2021-10-09T09:43:54Z</time>
      </trkpt>
      <trkpt lat="44.94759" lon="5.46316">
        <ele>1305</ele>
        <time>2021-10-09T09:43:55Z</time>
      </trkpt>
      <trkpt lat="44.94765" lon="5.46313">
        <ele>1305.4</ele>
        <time>2021-10-09T09:43:56Z</time>
      </trkpt>
      <trkpt lat="44.9477" lon="5.46311">
        <ele>1305.4</ele>
        <time>2021-10-09T09:43:57Z</time>
      </trkpt>
      <trkpt lat="44.94774" lon="5.4631">
        <ele>1305.4</ele>
        <time>2021-10-09T09:43:58Z</time>
      </trkpt>
      <trkpt lat="44.94779" lon="5.4631">
        <ele>1305.4</ele>
        <time>2021-10-09T09:43:59Z</time>
      </trkpt>
      <trkpt lat="44.94783" lon="5.4631">
        <ele>1303.2</ele>
        <time>2021-10-09T09:44:00Z</time>
      </trkpt>
      <trkpt lat="44.94787" lon="5.46311">
        <ele>1303.2</ele>
        <time>2021-10-09T09:44:01Z</time>
      </trkpt>
      <trkpt lat="44.9479" lon="5.46309">
        <ele>1303.2</ele>
        <time>2021-10-09T09:44:02Z</time>
      </trkpt>
      <trkpt lat="44.94794" lon="5.46307">
        <ele>1304.2</ele>
        <time>2021-10-09T09:44:03Z</time>
      </trkpt>
      <trkpt lat="44.94798" lon="5.46304">
        <ele>1304</ele>
        <time>2021-10-09T09:44:04Z</time>
      </trkpt>
      <trkpt lat="44.94802" lon="5.46302">
        <ele>1304</ele>
        <time>2021-10-09T09:44:05Z</time>
      </trkpt>
      <trkpt lat="44.94806" lon="5.463">
        <ele>1304</ele>
        <time>2021-10-09T09:44:06Z</time>
      </trkpt>
      <trkpt lat="44.94809" lon="5.46296">
        <ele>1304</ele>
        <time>2021-10-09T09:44:07Z</time>
      </trkpt>
      <trkpt lat="44.94811" lon="5.46292">
        <ele>1304.2</ele>
        <time>2021-10-09T09:44:08Z</time>
      </trkpt>
      <trkpt lat="44.94813" lon="5.46287">
        <ele>1304.2</ele>
        <time>2021-10-09T09:44:09Z</time>
      </trkpt>
      <trkpt lat="44.94815" lon="5.46283">
        <ele>1304.2</ele>
        <time>2021-10-09T09:44:10Z</time>
      </trkpt>
      <trkpt lat="44.94817" lon="5.46279">
        <ele>1304.2</ele>
        <time>2021-10-09T09:44:11Z</time>
      </trkpt>
      <trkpt lat="44.94818" lon="5.46276">
        <ele>1304</ele>
        <time>2021-10-09T09:44:12Z</time>
      </trkpt>
      <trkpt lat="44.94818" lon="5.46272">
        <ele>1304</ele>
        <time>2021-10-09T09:44:13Z</time>
      </trkpt>
      <trkpt lat="44.94821" lon="5.4627">
        <ele>1304</ele>
        <time>2021-10-09T09:44:14Z</time>
      </trkpt>
      <trkpt lat="44.94822" lon="5.46268">
        <ele>1304</ele>
        <time>2021-10-09T09:44:15Z</time>
      </trkpt>
      <trkpt lat="44.94823" lon="5.46267">
        <ele>1304.4</ele>
        <time>2021-10-09T09:44:16Z</time>
      </trkpt>
      <trkpt lat="44.94823" lon="5.46267">
        <ele>1304.4</ele>
        <time>2021-10-09T09:44:17Z</time>
      </trkpt>
      <trkpt lat="44.94824" lon="5.46263">
        <ele>1304.2</ele>
        <time>2021-10-09T09:44:25Z</time>
      </trkpt>
      <trkpt lat="44.94825" lon="5.46261">
        <ele>1304.2</ele>
        <time>2021-10-09T09:44:26Z</time>
      </trkpt>
      <trkpt lat="44.94826" lon="5.46258">
        <ele>1303.6</ele>
        <time>2021-10-09T09:44:27Z</time>
      </trkpt>
      <trkpt lat="44.94827" lon="5.46256">
        <ele>1303.4</ele>
        <time>2021-10-09T09:44:28Z</time>
      </trkpt>
      <trkpt lat="44.94828" lon="5.46254">
        <ele>1303.4</ele>
        <time>2021-10-09T09:44:29Z</time>
      </trkpt>
      <trkpt lat="44.94829" lon="5.46251">
        <ele>1303.4</ele>
        <time>2021-10-09T09:44:30Z</time>
      </trkpt>
      <trkpt lat="44.9483" lon="5.46248">
        <ele>1303.8</ele>
        <time>2021-10-09T09:44:31Z</time>
      </trkpt>
      <trkpt lat="44.94831" lon="5.46246">
        <ele>1303.6</ele>
        <time>2021-10-09T09:44:32Z</time>
      </trkpt>
      <trkpt lat="44.94833" lon="5.46244">
        <ele>1303.6</ele>
        <time>2021-10-09T09:44:33Z</time>
      </trkpt>
      <trkpt lat="44.94834" lon="5.46242">
        <ele>1303.6</ele>
        <time>2021-10-09T09:44:34Z</time>
      </trkpt>
      <trkpt lat="44.94836" lon="5.4624">
        <ele>1303.6</ele>
        <time>2021-10-09T09:44:35Z</time>
      </trkpt>
      <trkpt lat="44.94838" lon="5.46238">
        <ele>1303.6</ele>
        <time>2021-10-09T09:44:36Z</time>
      </trkpt>
      <trkpt lat="44.9484" lon="5.46236">
        <ele>1303.6</ele>
        <time>2021-10-09T09:44:37Z</time>
      </trkpt>
      <trkpt lat="44.94842" lon="5.46234">
        <ele>1303.6</ele>
        <time>2021-10-09T09:44:38Z</time>
      </trkpt>
      <trkpt lat="44.94844" lon="5.46231">
        <ele>1303.4</ele>
        <time>2021-10-09T09:44:39Z</time>
      </trkpt>
      <trkpt lat="44.94846" lon="5.46229">
        <ele>1303.4</ele>
        <time>2021-10-09T09:44:40Z</time>
      </trkpt>
      <trkpt lat="44.94848" lon="5.46226">
        <ele>1303.4</ele>
        <time>2021-10-09T09:44:41Z</time>
      </trkpt>
      <trkpt lat="44.94849" lon="5.46223">
        <ele>1303.4</ele>
        <time>2021-10-09T09:44:42Z</time>
      </trkpt>
      <trkpt lat="44.94852" lon="5.46221">
        <ele>1303.4</ele>
        <time>2021-10-09T09:44:43Z</time>
      </trkpt>
      <trkpt lat="44.94855" lon="5.46218">
        <ele>1303</ele>
        <time>2021-10-09T09:44:44Z</time>
      </trkpt>
      <trkpt lat="44.94857" lon="5.46213">
        <ele>1303</ele>
        <time>2021-10-09T09:44:45Z</time>
      </trkpt>
      <trkpt lat="44.9486" lon="5.4621">
        <ele>1303</ele>
        <time>2021-10-09T09:44:46Z</time>
      </trkpt>
      <trkpt lat="44.94862" lon="5.46208">
        <ele>1302.2</ele>
        <time>2021-10-09T09:44:47Z</time>
      </trkpt>
      <trkpt lat="44.94865" lon="5.46205">
        <ele>1302.8</ele>
        <time>2021-10-09T09:44:48Z</time>
      </trkpt>
      <trkpt lat="44.94868" lon="5.46201">
        <ele>1302.8</ele>
        <time>2021-10-09T09:44:49Z</time>
      </trkpt>
      <trkpt lat="44.9487" lon="5.46198">
        <ele>1302.8</ele>
        <time>2021-10-09T09:44:50Z</time>
      </trkpt>
      <trkpt lat="44.94872" lon="5.46193">
        <ele>1302.8</ele>
        <time>2021-10-09T09:44:51Z</time>
      </trkpt>
      <trkpt lat="44.94875" lon="5.46189">
        <ele>1302.2</ele>
        <time>2021-10-09T09:44:52Z</time>
      </trkpt>
      <trkpt lat="44.94878" lon="5.46185">
        <ele>1302.2</ele>
        <time>2021-10-09T09:44:53Z</time>
      </trkpt>
      <trkpt lat="44.94881" lon="5.46181">
        <ele>1302.2</ele>
        <time>2021-10-09T09:44:54Z</time>
      </trkpt>
      <trkpt lat="44.94884" lon="5.46177">
        <ele>1302.2</ele>
        <time>2021-10-09T09:44:55Z</time>
      </trkpt>
      <trkpt lat="44.94887" lon="5.46172">
        <ele>1302</ele>
        <time>2021-10-09T09:44:56Z</time>
      </trkpt>
      <trkpt lat="44.9489" lon="5.46168">
        <ele>1302</ele>
        <time>2021-10-09T09:44:57Z</time>
      </trkpt>
      <trkpt lat="44.94893" lon="5.46164">
        <ele>1302</ele>
        <time>2021-10-09T09:44:58Z</time>
      </trkpt>
      <trkpt lat="44.94896" lon="5.4616">
        <ele>1301</ele>
        <time>2021-10-09T09:44:59Z</time>
      </trkpt>
      <trkpt lat="44.949" lon="5.46157">
        <ele>1301.8</ele>
        <time>2021-10-09T09:45:00Z</time>
      </trkpt>
      <trkpt lat="44.94903" lon="5.46154">
        <ele>1301.8</ele>
        <time>2021-10-09T09:45:01Z</time>
      </trkpt>
      <trkpt lat="44.94907" lon="5.46152">
        <ele>1301.8</ele>
        <time>2021-10-09T09:45:02Z</time>
      </trkpt>
      <trkpt lat="44.9491" lon="5.4615">
        <ele>1301.8</ele>
        <time>2021-10-09T09:45:03Z</time>
      </trkpt>
      <trkpt lat="44.94914" lon="5.46148">
        <ele>1301.8</ele>
        <time>2021-10-09T09:45:04Z</time>
      </trkpt>
      <trkpt lat="44.94917" lon="5.46149">
        <ele>1301.8</ele>
        <time>2021-10-09T09:45:05Z</time>
      </trkpt>
      <trkpt lat="44.94921" lon="5.46149">
        <ele>1301.8</ele>
        <time>2021-10-09T09:45:06Z</time>
      </trkpt>
      <trkpt lat="44.94924" lon="5.46151">
        <ele>1301.8</ele>
        <time>2021-10-09T09:45:07Z</time>
      </trkpt>
      <trkpt lat="44.94927" lon="5.46154">
        <ele>1300.8</ele>
        <time>2021-10-09T09:45:08Z</time>
      </trkpt>
      <trkpt lat="44.9493" lon="5.46158">
        <ele>1300.8</ele>
        <time>2021-10-09T09:45:09Z</time>
      </trkpt>
      <trkpt lat="44.94933" lon="5.46163">
        <ele>1300.8</ele>
        <time>2021-10-09T09:45:10Z</time>
      </trkpt>
      <trkpt lat="44.94934" lon="5.46169">
        <ele>1300.8</ele>
        <time>2021-10-09T09:45:11Z</time>
      </trkpt>
      <trkpt lat="44.94936" lon="5.46175">
        <ele>1300.4</ele>
        <time>2021-10-09T09:45:12Z</time>
      </trkpt>
      <trkpt lat="44.94938" lon="5.46181">
        <ele>1300.4</ele>
        <time>2021-10-09T09:45:13Z</time>
      </trkpt>
      <trkpt lat="44.94939" lon="5.46187">
        <ele>1300.4</ele>
        <time>2021-10-09T09:45:14Z</time>
      </trkpt>
      <trkpt lat="44.94941" lon="5.46192">
        <ele>1300.4</ele>
        <time>2021-10-09T09:45:15Z</time>
      </trkpt>
      <trkpt lat="44.94943" lon="5.46198">
        <ele>1299.2</ele>
        <time>2021-10-09T09:45:16Z</time>
      </trkpt>
      <trkpt lat="44.94946" lon="5.46202">
        <ele>1299.2</ele>
        <time>2021-10-09T09:45:17Z</time>
      </trkpt>
      <trkpt lat="44.9495" lon="5.46206">
        <ele>1299.2</ele>
        <time>2021-10-09T09:45:18Z</time>
      </trkpt>
      <trkpt lat="44.94953" lon="5.46209">
        <ele>1300.2</ele>
        <time>2021-10-09T09:45:19Z</time>
      </trkpt>
      <trkpt lat="44.94957" lon="5.46211">
        <ele>1299.8</ele>
        <time>2021-10-09T09:45:20Z</time>
      </trkpt>
      <trkpt lat="44.94962" lon="5.46213">
        <ele>1299.8</ele>
        <time>2021-10-09T09:45:21Z</time>
      </trkpt>
      <trkpt lat="44.94965" lon="5.46214">
        <ele>1299.8</ele>
        <time>2021-10-09T09:45:22Z</time>
      </trkpt>
      <trkpt lat="44.94969" lon="5.46216">
        <ele>1300.8</ele>
        <time>2021-10-09T09:45:23Z</time>
      </trkpt>
      <trkpt lat="44.94973" lon="5.46218">
        <ele>1301</ele>
        <time>2021-10-09T09:45:24Z</time>
      </trkpt>
      <trkpt lat="44.94977" lon="5.4622">
        <ele>1301</ele>
        <time>2021-10-09T09:45:25Z</time>
      </trkpt>
      <trkpt lat="44.94981" lon="5.46222">
        <ele>1301</ele>
        <time>2021-10-09T09:45:26Z</time>
      </trkpt>
      <trkpt lat="44.94985" lon="5.46225">
        <ele>1301</ele>
        <time>2021-10-09T09:45:27Z</time>
      </trkpt>
      <trkpt lat="44.94989" lon="5.46227">
        <ele>1301</ele>
        <time>2021-10-09T09:45:28Z</time>
      </trkpt>
      <trkpt lat="44.94992" lon="5.46229">
        <ele>1301</ele>
        <time>2021-10-09T09:45:29Z</time>
      </trkpt>
      <trkpt lat="44.94996" lon="5.46231">
        <ele>1301</ele>
        <time>2021-10-09T09:45:30Z</time>
      </trkpt>
      <trkpt lat="44.94999" lon="5.46232">
        <ele>1301</ele>
        <time>2021-10-09T09:45:31Z</time>
      </trkpt>
      <trkpt lat="44.95003" lon="5.46234">
        <ele>1301.2</ele>
        <time>2021-10-09T09:45:32Z</time>
      </trkpt>
      <trkpt lat="44.95006" lon="5.46235">
        <ele>1301.2</ele>
        <time>2021-10-09T09:45:33Z</time>
      </trkpt>
      <trkpt lat="44.9501" lon="5.46237">
        <ele>1301.2</ele>
        <time>2021-10-09T09:45:34Z</time>
      </trkpt>
      <trkpt lat="44.95014" lon="5.46238">
        <ele>1301.2</ele>
        <time>2021-10-09T09:45:35Z</time>
      </trkpt>
      <trkpt lat="44.95017" lon="5.46239">
        <ele>1301.2</ele>
        <time>2021-10-09T09:45:36Z</time>
      </trkpt>
      <trkpt lat="44.95019" lon="5.46238">
        <ele>1301.2</ele>
        <time>2021-10-09T09:45:37Z</time>
      </trkpt>
      <trkpt lat="44.95021" lon="5.46239">
        <ele>1301.2</ele>
        <time>2021-10-09T09:45:38Z</time>
      </trkpt>
      <trkpt lat="44.95023" lon="5.46239">
        <ele>1301.2</ele>
        <time>2021-10-09T09:45:39Z</time>
      </trkpt>
      <trkpt lat="44.95023" lon="5.46239">
        <ele>1301.2</ele>
        <time>2021-10-09T09:45:40Z</time>
      </trkpt>
      <trkpt lat="44.95026" lon="5.46239">
        <ele>1301.6</ele>
        <time>2021-10-09T09:46:06Z</time>
      </trkpt>
      <trkpt lat="44.95029" lon="5.4624">
        <ele>1300.6</ele>
        <time>2021-10-09T09:46:07Z</time>
      </trkpt>
      <trkpt lat="44.95031" lon="5.4624">
        <ele>1300.2</ele>
        <time>2021-10-09T09:46:08Z</time>
      </trkpt>
      <trkpt lat="44.95034" lon="5.46239">
        <ele>1300.2</ele>
        <time>2021-10-09T09:46:09Z</time>
      </trkpt>
      <trkpt lat="44.95038" lon="5.46239">
        <ele>1300.2</ele>
        <time>2021-10-09T09:46:10Z</time>
      </trkpt>
      <trkpt lat="44.9504" lon="5.46239">
        <ele>1299.2</ele>
        <time>2021-10-09T09:46:11Z</time>
      </trkpt>
      <trkpt lat="44.95045" lon="5.46236">
        <ele>1298.2</ele>
        <time>2021-10-09T09:46:12Z</time>
      </trkpt>
      <trkpt lat="44.9505" lon="5.46235">
        <ele>1298.2</ele>
        <time>2021-10-09T09:46:13Z</time>
      </trkpt>
      <trkpt lat="44.95054" lon="5.46232">
        <ele>1298.2</ele>
        <time>2021-10-09T09:46:14Z</time>
      </trkpt>
      <trkpt lat="44.95058" lon="5.46228">
        <ele>1297.2</ele>
        <time>2021-10-09T09:46:15Z</time>
      </trkpt>
      <trkpt lat="44.95064" lon="5.46225">
        <ele>1295.8</ele>
        <time>2021-10-09T09:46:16Z</time>
      </trkpt>
      <trkpt lat="44.95069" lon="5.4622">
        <ele>1295.8</ele>
        <time>2021-10-09T09:46:17Z</time>
      </trkpt>
      <trkpt lat="44.95075" lon="5.46216">
        <ele>1295.8</ele>
        <time>2021-10-09T09:46:18Z</time>
      </trkpt>
      <trkpt lat="44.95081" lon="5.4621">
        <ele>1294.8</ele>
        <time>2021-10-09T09:46:19Z</time>
      </trkpt>
      <trkpt lat="44.95087" lon="5.46205">
        <ele>1293.4</ele>
        <time>2021-10-09T09:46:20Z</time>
      </trkpt>
      <trkpt lat="44.95093" lon="5.462">
        <ele>1293.4</ele>
        <time>2021-10-09T09:46:21Z</time>
      </trkpt>
      <trkpt lat="44.951" lon="5.46194">
        <ele>1293.4</ele>
        <time>2021-10-09T09:46:22Z</time>
      </trkpt>
      <trkpt lat="44.95105" lon="5.46186">
        <ele>1293.4</ele>
        <time>2021-10-09T09:46:23Z</time>
      </trkpt>
      <trkpt lat="44.9511" lon="5.46177">
        <ele>1292</ele>
        <time>2021-10-09T09:46:24Z</time>
      </trkpt>
      <trkpt lat="44.95115" lon="5.46169">
        <ele>1292</ele>
        <time>2021-10-09T09:46:25Z</time>
      </trkpt>
      <trkpt lat="44.95121" lon="5.46164">
        <ele>1292</ele>
        <time>2021-10-09T09:46:26Z</time>
      </trkpt>
      <trkpt lat="44.95126" lon="5.46162">
        <ele>1292</ele>
        <time>2021-10-09T09:46:27Z</time>
      </trkpt>
      <trkpt lat="44.95131" lon="5.46162">
        <ele>1290.4</ele>
        <time>2021-10-09T09:46:28Z</time>
      </trkpt>
      <trkpt lat="44.95137" lon="5.46166">
        <ele>1290.4</ele>
        <time>2021-10-09T09:46:29Z</time>
      </trkpt>
      <trkpt lat="44.9514" lon="5.46172">
        <ele>1290.4</ele>
        <time>2021-10-09T09:46:30Z</time>
      </trkpt>
      <trkpt lat="44.95143" lon="5.46178">
        <ele>1289.4</ele>
        <time>2021-10-09T09:46:31Z</time>
      </trkpt>
      <trkpt lat="44.95146" lon="5.46185">
        <ele>1287.8</ele>
        <time>2021-10-09T09:46:32Z</time>
      </trkpt>
      <trkpt lat="44.95151" lon="5.46191">
        <ele>1287.8</ele>
        <time>2021-10-09T09:46:33Z</time>
      </trkpt>
      <trkpt lat="44.95157" lon="5.46196">
        <ele>1287.8</ele>
        <time>2021-10-09T09:46:34Z</time>
      </trkpt>
      <trkpt lat="44.95163" lon="5.46198">
        <ele>1286.8</ele>
        <time>2021-10-09T09:46:35Z</time>
      </trkpt>
      <trkpt lat="44.95169" lon="5.46197">
        <ele>1285.6</ele>
        <time>2021-10-09T09:46:36Z</time>
      </trkpt>
      <trkpt lat="44.95176" lon="5.46195">
        <ele>1285.6</ele>
        <time>2021-10-09T09:46:37Z</time>
      </trkpt>
      <trkpt lat="44.95182" lon="5.46193">
        <ele>1285.6</ele>
        <time>2021-10-09T09:46:38Z</time>
      </trkpt>
      <trkpt lat="44.95188" lon="5.46189">
        <ele>1285</ele>
        <time>2021-10-09T09:46:39Z</time>
      </trkpt>
      <trkpt lat="44.95195" lon="5.46187">
        <ele>1285.2</ele>
        <time>2021-10-09T09:46:40Z</time>
      </trkpt>
      <trkpt lat="44.95201" lon="5.46186">
        <ele>1285.2</ele>
        <time>2021-10-09T09:46:41Z</time>
      </trkpt>
      <trkpt lat="44.95207" lon="5.46186">
        <ele>1285.2</ele>
        <time>2021-10-09T09:46:42Z</time>
      </trkpt>
      <trkpt lat="44.95213" lon="5.46188">
        <ele>1284.2</ele>
        <time>2021-10-09T09:46:43Z</time>
      </trkpt>
      <trkpt lat="44.95219" lon="5.46193">
        <ele>1283.2</ele>
        <time>2021-10-09T09:46:44Z</time>
      </trkpt>
      <trkpt lat="44.95224" lon="5.46199">
        <ele>1283.2</ele>
        <time>2021-10-09T09:46:45Z</time>
      </trkpt>
      <trkpt lat="44.95229" lon="5.46206">
        <ele>1283.2</ele>
        <time>2021-10-09T09:46:46Z</time>
      </trkpt>
      <trkpt lat="44.95234" lon="5.46214">
        <ele>1282.2</ele>
        <time>2021-10-09T09:46:47Z</time>
      </trkpt>
      <trkpt lat="44.9524" lon="5.46221">
        <ele>1282</ele>
        <time>2021-10-09T09:46:48Z</time>
      </trkpt>
      <trkpt lat="44.95245" lon="5.46227">
        <ele>1282</ele>
        <time>2021-10-09T09:46:49Z</time>
      </trkpt>
      <trkpt lat="44.9525" lon="5.46232">
        <ele>1282</ele>
        <time>2021-10-09T09:46:50Z</time>
      </trkpt>
      <trkpt lat="44.95257" lon="5.46234">
        <ele>1282</ele>
        <time>2021-10-09T09:46:51Z</time>
      </trkpt>
      <trkpt lat="44.95263" lon="5.46235">
        <ele>1282.2</ele>
        <time>2021-10-09T09:46:52Z</time>
      </trkpt>
      <trkpt lat="44.95269" lon="5.46233">
        <ele>1282.2</ele>
        <time>2021-10-09T09:46:53Z</time>
      </trkpt>
      <trkpt lat="44.95275" lon="5.4623">
        <ele>1282.2</ele>
        <time>2021-10-09T09:46:54Z</time>
      </trkpt>
      <trkpt lat="44.9528" lon="5.46227">
        <ele>1282.4</ele>
        <time>2021-10-09T09:46:55Z</time>
      </trkpt>
      <trkpt lat="44.95285" lon="5.46223">
        <ele>1283.4</ele>
        <time>2021-10-09T09:46:56Z</time>
      </trkpt>
      <trkpt lat="44.9529" lon="5.4622">
        <ele>1283.4</ele>
        <time>2021-10-09T09:46:57Z</time>
      </trkpt>
      <trkpt lat="44.95295" lon="5.46217">
        <ele>1283.4</ele>
        <time>2021-10-09T09:46:58Z</time>
      </trkpt>
      <trkpt lat="44.95301" lon="5.46216">
        <ele>1283</ele>
        <time>2021-10-09T09:46:59Z</time>
      </trkpt>
      <trkpt lat="44.95306" lon="5.46213">
        <ele>1282</ele>
        <time>2021-10-09T09:47:00Z</time>
      </trkpt>
      <trkpt lat="44.95311" lon="5.46211">
        <ele>1282</ele>
        <time>2021-10-09T09:47:01Z</time>
      </trkpt>
      <trkpt lat="44.95316" lon="5.46209">
        <ele>1282</ele>
        <time>2021-10-09T09:47:02Z</time>
      </trkpt>
      <trkpt lat="44.95322" lon="5.46206">
        <ele>1281</ele>
        <time>2021-10-09T09:47:03Z</time>
      </trkpt>
      <trkpt lat="44.95328" lon="5.46204">
        <ele>1280</ele>
        <time>2021-10-09T09:47:04Z</time>
      </trkpt>
      <trkpt lat="44.95333" lon="5.46201">
        <ele>1280</ele>
        <time>2021-10-09T09:47:05Z</time>
      </trkpt>
      <trkpt lat="44.95337" lon="5.46197">
        <ele>1280</ele>
        <time>2021-10-09T09:47:06Z</time>
      </trkpt>
      <trkpt lat="44.9534" lon="5.4619">
        <ele>1279</ele>
        <time>2021-10-09T09:47:07Z</time>
      </trkpt>
      <trkpt lat="44.95342" lon="5.4618">
        <ele>1276</ele>
        <time>2021-10-09T09:47:08Z</time>
      </trkpt>
      <trkpt lat="44.95344" lon="5.46171">
        <ele>1276</ele>
        <time>2021-10-09T09:47:09Z</time>
      </trkpt>
      <trkpt lat="44.95344" lon="5.46161">
        <ele>1276</ele>
        <time>2021-10-09T09:47:10Z</time>
      </trkpt>
      <trkpt lat="44.95345" lon="5.46151">
        <ele>1276</ele>
        <time>2021-10-09T09:47:11Z</time>
      </trkpt>
      <trkpt lat="44.95345" lon="5.46142">
        <ele>1276.2</ele>
        <time>2021-10-09T09:47:12Z</time>
      </trkpt>
      <trkpt lat="44.95346" lon="5.46132">
        <ele>1276.2</ele>
        <time>2021-10-09T09:47:13Z</time>
      </trkpt>
      <trkpt lat="44.95348" lon="5.46123">
        <ele>1276.2</ele>
        <time>2021-10-09T09:47:14Z</time>
      </trkpt>
      <trkpt lat="44.95351" lon="5.46115">
        <ele>1275.2</ele>
        <time>2021-10-09T09:47:15Z</time>
      </trkpt>
      <trkpt lat="44.95355" lon="5.46106">
        <ele>1273.4</ele>
        <time>2021-10-09T09:47:16Z</time>
      </trkpt>
      <trkpt lat="44.9536" lon="5.461">
        <ele>1273.4</ele>
        <time>2021-10-09T09:47:17Z</time>
      </trkpt>
      <trkpt lat="44.95364" lon="5.46093">
        <ele>1273.4</ele>
        <time>2021-10-09T09:47:18Z</time>
      </trkpt>
      <trkpt lat="44.95368" lon="5.46086">
        <ele>1273.4</ele>
        <time>2021-10-09T09:47:19Z</time>
      </trkpt>
      <trkpt lat="44.95371" lon="5.46078">
        <ele>1271.4</ele>
        <time>2021-10-09T09:47:20Z</time>
      </trkpt>
      <trkpt lat="44.95373" lon="5.46069">
        <ele>1271.4</ele>
        <time>2021-10-09T09:47:21Z</time>
      </trkpt>
      <trkpt lat="44.95375" lon="5.4606">
        <ele>1271.4</ele>
        <time>2021-10-09T09:47:22Z</time>
      </trkpt>
      <trkpt lat="44.95376" lon="5.4605">
        <ele>1272</ele>
        <time>2021-10-09T09:47:23Z</time>
      </trkpt>
      <trkpt lat="44.95378" lon="5.46041">
        <ele>1271.2</ele>
        <time>2021-10-09T09:47:24Z</time>
      </trkpt>
      <trkpt lat="44.95382" lon="5.46033">
        <ele>1271.2</ele>
        <time>2021-10-09T09:47:25Z</time>
      </trkpt>
      <trkpt lat="44.95385" lon="5.46025">
        <ele>1271.2</ele>
        <time>2021-10-09T09:47:26Z</time>
      </trkpt>
      <trkpt lat="44.95389" lon="5.46017">
        <ele>1271.8</ele>
        <time>2021-10-09T09:47:27Z</time>
      </trkpt>
      <trkpt lat="44.95393" lon="5.4601">
        <ele>1270.8</ele>
        <time>2021-10-09T09:47:28Z</time>
      </trkpt>
      <trkpt lat="44.95397" lon="5.46002">
        <ele>1270.8</ele>
        <time>2021-10-09T09:47:29Z</time>
      </trkpt>
      <trkpt lat="44.954" lon="5.45993">
        <ele>1270.8</ele>
        <time>2021-10-09T09:47:30Z</time>
      </trkpt>
      <trkpt lat="44.95402" lon="5.45984">
        <ele>1269.8</ele>
        <time>2021-10-09T09:47:31Z</time>
      </trkpt>
      <trkpt lat="44.95405" lon="5.45975">
        <ele>1269.6</ele>
        <time>2021-10-09T09:47:32Z</time>
      </trkpt>
      <trkpt lat="44.95407" lon="5.45965">
        <ele>1269.6</ele>
        <time>2021-10-09T09:47:33Z</time>
      </trkpt>
      <trkpt lat="44.9541" lon="5.45956">
        <ele>1269.6</ele>
        <time>2021-10-09T09:47:34Z</time>
      </trkpt>
      <trkpt lat="44.95414" lon="5.45948">
        <ele>1268.6</ele>
        <time>2021-10-09T09:47:35Z</time>
      </trkpt>
      <trkpt lat="44.95418" lon="5.45941">
        <ele>1265.6</ele>
        <time>2021-10-09T09:47:36Z</time>
      </trkpt>
      <trkpt lat="44.95424" lon="5.45935">
        <ele>1265.6</ele>
        <time>2021-10-09T09:47:37Z</time>
      </trkpt>
      <trkpt lat="44.9543" lon="5.45932">
        <ele>1265.6</ele>
        <time>2021-10-09T09:47:38Z</time>
      </trkpt>
      <trkpt lat="44.95436" lon="5.45928">
        <ele>1265.6</ele>
        <time>2021-10-09T09:47:39Z</time>
      </trkpt>
      <trkpt lat="44.95442" lon="5.45926">
        <ele>1265.6</ele>
        <time>2021-10-09T09:47:40Z</time>
      </trkpt>
      <trkpt lat="44.95447" lon="5.45924">
        <ele>1265.6</ele>
        <time>2021-10-09T09:47:41Z</time>
      </trkpt>
      <trkpt lat="44.95453" lon="5.45923">
        <ele>1265.6</ele>
        <time>2021-10-09T09:47:42Z</time>
      </trkpt>
      <trkpt lat="44.95458" lon="5.45922">
        <ele>1266.6</ele>
        <time>2021-10-09T09:47:43Z</time>
      </trkpt>
      <trkpt lat="44.95463" lon="5.45921">
        <ele>1266.4</ele>
        <time>2021-10-09T09:47:44Z</time>
      </trkpt>
      <trkpt lat="44.95467" lon="5.45919">
        <ele>1266.4</ele>
        <time>2021-10-09T09:47:45Z</time>
      </trkpt>
      <trkpt lat="44.95472" lon="5.45918">
        <ele>1266.4</ele>
        <time>2021-10-09T09:47:46Z</time>
      </trkpt>
      <trkpt lat="44.95477" lon="5.45917">
        <ele>1266.6</ele>
        <time>2021-10-09T09:47:47Z</time>
      </trkpt>
      <trkpt lat="44.95482" lon="5.45914">
        <ele>1267.6</ele>
        <time>2021-10-09T09:47:48Z</time>
      </trkpt>
      <trkpt lat="44.95486" lon="5.45911">
        <ele>1267.6</ele>
        <time>2021-10-09T09:47:49Z</time>
      </trkpt>
      <trkpt lat="44.9549" lon="5.45906">
        <ele>1267.6</ele>
        <time>2021-10-09T09:47:50Z</time>
      </trkpt>
      <trkpt lat="44.95493" lon="5.459">
        <ele>1266.6</ele>
        <time>2021-10-09T09:47:51Z</time>
      </trkpt>
      <trkpt lat="44.95494" lon="5.45895">
        <ele>1266.2</ele>
        <time>2021-10-09T09:47:52Z</time>
      </trkpt>
      <trkpt lat="44.95496" lon="5.4589">
        <ele>1266.2</ele>
        <time>2021-10-09T09:47:53Z</time>
      </trkpt>
      <trkpt lat="44.95496" lon="5.45886">
        <ele>1266.2</ele>
        <time>2021-10-09T09:47:54Z</time>
      </trkpt>
      <trkpt lat="44.95497" lon="5.45884">
        <ele>1266.4</ele>
        <time>2021-10-09T09:47:55Z</time>
      </trkpt>
      <trkpt lat="44.95497" lon="5.45883">
        <ele>1266.6</ele>
        <time>2021-10-09T09:47:56Z</time>
      </trkpt>
      <trkpt lat="44.95499" lon="5.45884">
        <ele>1267.4</ele>
        <time>2021-10-09T09:48:10Z</time>
      </trkpt>
      <trkpt lat="44.95499" lon="5.45886">
        <ele>1267.4</ele>
        <time>2021-10-09T09:48:11Z</time>
      </trkpt>
      <trkpt lat="44.95499" lon="5.45888">
        <ele>1267</ele>
        <time>2021-10-09T09:48:12Z</time>
      </trkpt>
      <trkpt lat="44.955" lon="5.4589">
        <ele>1267</ele>
        <time>2021-10-09T09:48:13Z</time>
      </trkpt>
      <trkpt lat="44.955" lon="5.45893">
        <ele>1267</ele>
        <time>2021-10-09T09:48:14Z</time>
      </trkpt>
      <trkpt lat="44.955" lon="5.45895">
        <ele>1266.6</ele>
        <time>2021-10-09T09:48:15Z</time>
      </trkpt>
      <trkpt lat="44.95501" lon="5.45897">
        <ele>1266.6</ele>
        <time>2021-10-09T09:48:16Z</time>
      </trkpt>
      <trkpt lat="44.95502" lon="5.45899">
        <ele>1266.6</ele>
        <time>2021-10-09T09:48:17Z</time>
      </trkpt>
      <trkpt lat="44.95502" lon="5.45902">
        <ele>1266.6</ele>
        <time>2021-10-09T09:48:18Z</time>
      </trkpt>
      <trkpt lat="44.95502" lon="5.45905">
        <ele>1266.4</ele>
        <time>2021-10-09T09:48:19Z</time>
      </trkpt>
      <trkpt lat="44.95501" lon="5.45907">
        <ele>1266.4</ele>
        <time>2021-10-09T09:48:20Z</time>
      </trkpt>
      <trkpt lat="44.95501" lon="5.4591">
        <ele>1266.4</ele>
        <time>2021-10-09T09:48:21Z</time>
      </trkpt>
      <trkpt lat="44.95501" lon="5.45913">
        <ele>1266.4</ele>
        <time>2021-10-09T09:48:22Z</time>
      </trkpt>
      <trkpt lat="44.95501" lon="5.45915">
        <ele>1266.4</ele>
        <time>2021-10-09T09:48:23Z</time>
      </trkpt>
      <trkpt lat="44.95502" lon="5.45917">
        <ele>1266.4</ele>
        <time>2021-10-09T09:48:24Z</time>
      </trkpt>
      <trkpt lat="44.95502" lon="5.45917">
        <ele>1266.4</ele>
        <time>2021-10-09T09:48:25Z</time>
      </trkpt>
      <trkpt lat="44.95774" lon="5.46053">
        <ele>1315.4</ele>
        <time>2021-10-09T09:56:32Z</time>
      </trkpt>
      <trkpt lat="44.95776" lon="5.46053">
        <ele>1315.4</ele>
        <time>2021-10-09T09:56:33Z</time>
      </trkpt>
      <trkpt lat="44.95777" lon="5.46052">
        <ele>1315.4</ele>
        <time>2021-10-09T09:56:34Z</time>
      </trkpt>
      <trkpt lat="44.95779" lon="5.46053">
        <ele>1315.4</ele>
        <time>2021-10-09T09:56:35Z</time>
      </trkpt>
      <trkpt lat="44.9578" lon="5.46053">
        <ele>1315.8</ele>
        <time>2021-10-09T09:56:36Z</time>
      </trkpt>
      <trkpt lat="44.95781" lon="5.46053">
        <ele>1315.8</ele>
        <time>2021-10-09T09:56:37Z</time>
      </trkpt>
      <trkpt lat="44.95783" lon="5.46052">
        <ele>1315.8</ele>
        <time>2021-10-09T09:56:38Z</time>
      </trkpt>
      <trkpt lat="44.95784" lon="5.46052">
        <ele>1315.8</ele>
        <time>2021-10-09T09:56:39Z</time>
      </trkpt>
      <trkpt lat="44.95785" lon="5.46052">
        <ele>1316</ele>
        <time>2021-10-09T09:56:40Z</time>
      </trkpt>
      <trkpt lat="44.95786" lon="5.46053">
        <ele>1316</ele>
        <time>2021-10-09T09:56:41Z</time>
      </trkpt>
      <trkpt lat="44.95787" lon="5.46053">
        <ele>1316</ele>
        <time>2021-10-09T09:56:42Z</time>
      </trkpt>
      <trkpt lat="44.95788" lon="5.46052">
        <ele>1316.8</ele>
        <time>2021-10-09T09:56:43Z</time>
      </trkpt>
      <trkpt lat="44.95789" lon="5.46052">
        <ele>1317.2</ele>
        <time>2021-10-09T09:56:44Z</time>
      </trkpt>
      <trkpt lat="44.95791" lon="5.46052">
        <ele>1317.2</ele>
        <time>2021-10-09T09:56:45Z</time>
      </trkpt>
      <trkpt lat="44.95792" lon="5.46053">
        <ele>1317.2</ele>
        <time>2021-10-09T09:56:46Z</time>
      </trkpt>
      <trkpt lat="44.95794" lon="5.46054">
        <ele>1317.2</ele>
        <time>2021-10-09T09:56:47Z</time>
      </trkpt>
      <trkpt lat="44.95795" lon="5.46054">
        <ele>1317.6</ele>
        <time>2021-10-09T09:56:48Z</time>
      </trkpt>
      <trkpt lat="44.95796" lon="5.46054">
        <ele>1317.6</ele>
        <time>2021-10-09T09:56:49Z</time>
      </trkpt>
      <trkpt lat="44.95798" lon="5.46054">
        <ele>1317.6</ele>
        <time>2021-10-09T09:56:50Z</time>
      </trkpt>
      <trkpt lat="44.95799" lon="5.46055">
        <ele>1317.6</ele>
        <time>2021-10-09T09:56:51Z</time>
      </trkpt>
      <trkpt lat="44.958" lon="5.46055">
        <ele>1317.8</ele>
        <time>2021-10-09T09:56:52Z</time>
      </trkpt>
      <trkpt lat="44.95801" lon="5.46056">
        <ele>1317.8</ele>
        <time>2021-10-09T09:56:53Z</time>
      </trkpt>
      <trkpt lat="44.95802" lon="5.46056">
        <ele>1317.8</ele>
        <time>2021-10-09T09:56:54Z</time>
      </trkpt>
      <trkpt lat="44.95803" lon="5.46057">
        <ele>1318.2</ele>
        <time>2021-10-09T09:56:55Z</time>
      </trkpt>
      <trkpt lat="44.95804" lon="5.46057">
        <ele>1318.4</ele>
        <time>2021-10-09T09:56:56Z</time>
      </trkpt>
      <trkpt lat="44.95805" lon="5.46058">
        <ele>1318.4</ele>
        <time>2021-10-09T09:56:57Z</time>
      </trkpt>
      <trkpt lat="44.95805" lon="5.46059">
        <ele>1318.4</ele>
        <time>2021-10-09T09:56:58Z</time>
      </trkpt>
      <trkpt lat="44.95806" lon="5.46059">
        <ele>1319</ele>
        <time>2021-10-09T09:56:59Z</time>
      </trkpt>
      <trkpt lat="44.95807" lon="5.4606">
        <ele>1319.2</ele>
        <time>2021-10-09T09:57:00Z</time>
      </trkpt>
      <trkpt lat="44.95808" lon="5.4606">
        <ele>1319.2</ele>
        <time>2021-10-09T09:57:01Z</time>
      </trkpt>
      <trkpt lat="44.95809" lon="5.46061">
        <ele>1319.2</ele>
        <time>2021-10-09T09:57:02Z</time>
      </trkpt>
      <trkpt lat="44.95809" lon="5.46062">
        <ele>1319.4</ele>
        <time>2021-10-09T09:57:03Z</time>
      </trkpt>
      <trkpt lat="44.9581" lon="5.46063">
        <ele>1319.4</ele>
        <time>2021-10-09T09:57:04Z</time>
      </trkpt>
      <trkpt lat="44.95811" lon="5.46064">
        <ele>1319.4</ele>
        <time>2021-10-09T09:57:05Z</time>
      </trkpt>
      <trkpt lat="44.95812" lon="5.46065">
        <ele>1319.4</ele>
        <time>2021-10-09T09:57:06Z</time>
      </trkpt>
      <trkpt lat="44.95813" lon="5.46066">
        <ele>1319.6</ele>
        <time>2021-10-09T09:57:07Z</time>
      </trkpt>
      <trkpt lat="44.95814" lon="5.46067">
        <ele>1319.6</ele>
        <time>2021-10-09T09:57:08Z</time>
      </trkpt>
      <trkpt lat="44.95815" lon="5.46068">
        <ele>1319.6</ele>
        <time>2021-10-09T09:57:09Z</time>
      </trkpt>
      <trkpt lat="44.95816" lon="5.46069">
        <ele>1319.6</ele>
        <time>2021-10-09T09:57:10Z</time>
      </trkpt>
      <trkpt lat="44.95817" lon="5.46071">
        <ele>1320.6</ele>
        <time>2021-10-09T09:57:11Z</time>
      </trkpt>
      <trkpt lat="44.95818" lon="5.46072">
        <ele>1320.6</ele>
        <time>2021-10-09T09:57:12Z</time>
      </trkpt>
      <trkpt lat="44.95819" lon="5.46072">
        <ele>1320.6</ele>
        <time>2021-10-09T09:57:13Z</time>
      </trkpt>
      <trkpt lat="44.9582" lon="5.46073">
        <ele>1320.6</ele>
        <time>2021-10-09T09:57:14Z</time>
      </trkpt>
      <trkpt lat="44.9582" lon="5.46074">
        <ele>1321.2</ele>
        <time>2021-10-09T09:57:15Z</time>
      </trkpt>
      <trkpt lat="44.9582" lon="5.46075">
        <ele>1321.2</ele>
        <time>2021-10-09T09:57:16Z</time>
      </trkpt>
      <trkpt lat="44.95821" lon="5.46076">
        <ele>1321.2</ele>
        <time>2021-10-09T09:57:17Z</time>
      </trkpt>
      <trkpt lat="44.95822" lon="5.46077">
        <ele>1321.2</ele>
        <time>2021-10-09T09:57:18Z</time>
      </trkpt>
      <trkpt lat="44.95823" lon="5.46078">
        <ele>1321.2</ele>
        <time>2021-10-09T09:57:19Z</time>
      </trkpt>
      <trkpt lat="44.95823" lon="5.46079">
        <ele>1322</ele>
        <time>2021-10-09T09:57:20Z</time>
      </trkpt>
      <trkpt lat="44.95824" lon="5.4608">
        <ele>1322</ele>
        <time>2021-10-09T09:57:21Z</time>
      </trkpt>
      <trkpt lat="44.95825" lon="5.4608">
        <ele>1322</ele>
        <time>2021-10-09T09:57:22Z</time>
      </trkpt>
      <trkpt lat="44.95826" lon="5.46081">
        <ele>1322</ele>
        <time>2021-10-09T09:57:23Z</time>
      </trkpt>
      <trkpt lat="44.95828" lon="5.46081">
        <ele>1322</ele>
        <time>2021-10-09T09:57:24Z</time>
      </trkpt>
      <trkpt lat="44.95828" lon="5.4608">
        <ele>1322</ele>
        <time>2021-10-09T09:57:25Z</time>
      </trkpt>
      <trkpt lat="44.95829" lon="5.4608">
        <ele>1322</ele>
        <time>2021-10-09T09:57:26Z</time>
      </trkpt>
      <trkpt lat="44.9583" lon="5.4608">
        <ele>1321.8</ele>
        <time>2021-10-09T09:57:27Z</time>
      </trkpt>
      <trkpt lat="44.9583" lon="5.46081">
        <ele>1322</ele>
        <time>2021-10-09T09:57:28Z</time>
      </trkpt>
      <trkpt lat="44.95831" lon="5.46082">
        <ele>1322</ele>
        <time>2021-10-09T09:57:29Z</time>
      </trkpt>
      <trkpt lat="44.95833" lon="5.46082">
        <ele>1322</ele>
        <time>2021-10-09T09:57:30Z</time>
      </trkpt>
      <trkpt lat="44.95834" lon="5.46083">
        <ele>1322</ele>
        <time>2021-10-09T09:57:31Z</time>
      </trkpt>
      <trkpt lat="44.95835" lon="5.46083">
        <ele>1322.2</ele>
        <time>2021-10-09T09:57:32Z</time>
      </trkpt>
      <trkpt lat="44.95836" lon="5.46085">
        <ele>1322.2</ele>
        <time>2021-10-09T09:57:33Z</time>
      </trkpt>
      <trkpt lat="44.95837" lon="5.46085">
        <ele>1322.2</ele>
        <time>2021-10-09T09:57:34Z</time>
      </trkpt>
      <trkpt lat="44.95838" lon="5.46086">
        <ele>1322.2</ele>
        <time>2021-10-09T09:57:35Z</time>
      </trkpt>
      <trkpt lat="44.95839" lon="5.46087">
        <ele>1322.4</ele>
        <time>2021-10-09T09:57:36Z</time>
      </trkpt>
      <trkpt lat="44.95841" lon="5.46087">
        <ele>1322.4</ele>
        <time>2021-10-09T09:57:37Z</time>
      </trkpt>
      <trkpt lat="44.95842" lon="5.46088">
        <ele>1322.4</ele>
        <time>2021-10-09T09:57:38Z</time>
      </trkpt>
      <trkpt lat="44.95843" lon="5.46089">
        <ele>1322.4</ele>
        <time>2021-10-09T09:57:39Z</time>
      </trkpt>
      <trkpt lat="44.95844" lon="5.46089">
        <ele>1322</ele>
        <time>2021-10-09T09:57:40Z</time>
      </trkpt>
      <trkpt lat="44.95845" lon="5.4609">
        <ele>1322</ele>
        <time>2021-10-09T09:57:41Z</time>
      </trkpt>
      <trkpt lat="44.95846" lon="5.46091">
        <ele>1322</ele>
        <time>2021-10-09T09:57:42Z</time>
      </trkpt>
      <trkpt lat="44.95847" lon="5.46092">
        <ele>1322.4</ele>
        <time>2021-10-09T09:57:43Z</time>
      </trkpt>
      <trkpt lat="44.95848" lon="5.46092">
        <ele>1322.4</ele>
        <time>2021-10-09T09:57:44Z</time>
      </trkpt>
      <trkpt lat="44.9585" lon="5.46094">
        <ele>1322.4</ele>
        <time>2021-10-09T09:57:45Z</time>
      </trkpt>
      <trkpt lat="44.95852" lon="5.46095">
        <ele>1322.4</ele>
        <time>2021-10-09T09:57:46Z</time>
      </trkpt>
      <trkpt lat="44.95853" lon="5.46095">
        <ele>1322.4</ele>
        <time>2021-10-09T09:57:47Z</time>
      </trkpt>
      <trkpt lat="44.95855" lon="5.46095">
        <ele>1323</ele>
        <time>2021-10-09T09:57:48Z</time>
      </trkpt>
      <trkpt lat="44.95856" lon="5.46096">
        <ele>1323</ele>
        <time>2021-10-09T09:57:49Z</time>
      </trkpt>
      <trkpt lat="44.95857" lon="5.46096">
        <ele>1323</ele>
        <time>2021-10-09T09:57:50Z</time>
      </trkpt>
      <trkpt lat="44.95859" lon="5.46096">
        <ele>1323.8</ele>
        <time>2021-10-09T09:57:51Z</time>
      </trkpt>
      <trkpt lat="44.9586" lon="5.46097">
        <ele>1323.6</ele>
        <time>2021-10-09T09:57:52Z</time>
      </trkpt>
      <trkpt lat="44.95861" lon="5.46098">
        <ele>1323.6</ele>
        <time>2021-10-09T09:57:53Z</time>
      </trkpt>
      <trkpt lat="44.95862" lon="5.46099">
        <ele>1323.6</ele>
        <time>2021-10-09T09:57:54Z</time>
      </trkpt>
      <trkpt lat="44.95863" lon="5.461">
        <ele>1323.6</ele>
        <time>2021-10-09T09:57:55Z</time>
      </trkpt>
      <trkpt lat="44.95864" lon="5.461">
        <ele>1323.2</ele>
        <time>2021-10-09T09:57:56Z</time>
      </trkpt>
      <trkpt lat="44.95865" lon="5.461">
        <ele>1323.2</ele>
        <time>2021-10-09T09:57:57Z</time>
      </trkpt>
      <trkpt lat="44.95866" lon="5.46101">
        <ele>1323.2</ele>
        <time>2021-10-09T09:57:58Z</time>
      </trkpt>
      <trkpt lat="44.95868" lon="5.46101">
        <ele>1324.2</ele>
        <time>2021-10-09T09:57:59Z</time>
      </trkpt>
      <trkpt lat="44.95868" lon="5.46101">
        <ele>1324.8</ele>
        <time>2021-10-09T09:58:00Z</time>
      </trkpt>
      <trkpt lat="44.95928" lon="5.46113">
        <ele>1332.8</ele>
        <time>2021-10-09T09:59:10Z</time>
      </trkpt>
      <trkpt lat="44.95929" lon="5.46114">
        <ele>1333.2</ele>
        <time>2021-10-09T09:59:11Z</time>
      </trkpt>
      <trkpt lat="44.9593" lon="5.46116">
        <ele>1332.8</ele>
        <time>2021-10-09T09:59:12Z</time>
      </trkpt>
      <trkpt lat="44.9593" lon="5.46117">
        <ele>1332.8</ele>
        <time>2021-10-09T09:59:13Z</time>
      </trkpt>
      <trkpt lat="44.95931" lon="5.46119">
        <ele>1332.8</ele>
        <time>2021-10-09T09:59:14Z</time>
      </trkpt>
      <trkpt lat="44.95932" lon="5.46121">
        <ele>1333</ele>
        <time>2021-10-09T09:59:15Z</time>
      </trkpt>
      <trkpt lat="44.95933" lon="5.46123">
        <ele>1333</ele>
        <time>2021-10-09T09:59:16Z</time>
      </trkpt>
      <trkpt lat="44.95934" lon="5.46125">
        <ele>1333</ele>
        <time>2021-10-09T09:59:17Z</time>
      </trkpt>
      <trkpt lat="44.95934" lon="5.46128">
        <ele>1333</ele>
        <time>2021-10-09T09:59:18Z</time>
      </trkpt>
      <trkpt lat="44.95935" lon="5.46131">
        <ele>1333</ele>
        <time>2021-10-09T09:59:19Z</time>
      </trkpt>
      <trkpt lat="44.95936" lon="5.46133">
        <ele>1333.2</ele>
        <time>2021-10-09T09:59:20Z</time>
      </trkpt>
      <trkpt lat="44.95936" lon="5.46134">
        <ele>1333.2</ele>
        <time>2021-10-09T09:59:21Z</time>
      </trkpt>
      <trkpt lat="44.95936" lon="5.46137">
        <ele>1333.2</ele>
        <time>2021-10-09T09:59:22Z</time>
      </trkpt>
      <trkpt lat="44.95937" lon="5.46139">
        <ele>1333.6</ele>
        <time>2021-10-09T09:59:23Z</time>
      </trkpt>
      <trkpt lat="44.95937" lon="5.46142">
        <ele>1333.6</ele>
        <time>2021-10-09T09:59:24Z</time>
      </trkpt>
      <trkpt lat="44.95937" lon="5.46145">
        <ele>1333.6</ele>
        <time>2021-10-09T09:59:25Z</time>
      </trkpt>
      <trkpt lat="44.95937" lon="5.46148">
        <ele>1333.6</ele>
        <time>2021-10-09T09:59:26Z</time>
      </trkpt>
      <trkpt lat="44.95937" lon="5.4615">
        <ele>1333.6</ele>
        <time>2021-10-09T09:59:27Z</time>
      </trkpt>
      <trkpt lat="44.95938" lon="5.46153">
        <ele>1334.4</ele>
        <time>2021-10-09T09:59:28Z</time>
      </trkpt>
      <trkpt lat="44.95938" lon="5.46155">
        <ele>1334.4</ele>
        <time>2021-10-09T09:59:29Z</time>
      </trkpt>
      <trkpt lat="44.95939" lon="5.46157">
        <ele>1334.4</ele>
        <time>2021-10-09T09:59:30Z</time>
      </trkpt>
      <trkpt lat="44.95938" lon="5.4616">
        <ele>1334.4</ele>
        <time>2021-10-09T09:59:31Z</time>
      </trkpt>
      <trkpt lat="44.95937" lon="5.46161">
        <ele>1334.6</ele>
        <time>2021-10-09T09:59:32Z</time>
      </trkpt>
      <trkpt lat="44.95938" lon="5.46164">
        <ele>1334.6</ele>
        <time>2021-10-09T09:59:33Z</time>
      </trkpt>
      <trkpt lat="44.95938" lon="5.46164">
        <ele>1334.6</ele>
        <time>2021-10-09T09:59:34Z</time>
      </trkpt>
      <trkpt lat="44.95939" lon="5.46166">
        <ele>1335</ele>
        <time>2021-10-09T09:59:35Z</time>
      </trkpt>
      <trkpt lat="44.9594" lon="5.46168">
        <ele>1334.8</ele>
        <time>2021-10-09T09:59:36Z</time>
      </trkpt>
      <trkpt lat="44.95939" lon="5.4617">
        <ele>1334.8</ele>
        <time>2021-10-09T09:59:37Z</time>
      </trkpt>
      <trkpt lat="44.95939" lon="5.46173">
        <ele>1334.8</ele>
        <time>2021-10-09T09:59:38Z</time>
      </trkpt>
      <trkpt lat="44.95937" lon="5.46176">
        <ele>1334.8</ele>
        <time>2021-10-09T09:59:39Z</time>
      </trkpt>
      <trkpt lat="44.95937" lon="5.46181">
        <ele>1334.2</ele>
        <time>2021-10-09T09:59:40Z</time>
      </trkpt>
      <trkpt lat="44.95936" lon="5.46184">
        <ele>1334.2</ele>
        <time>2021-10-09T09:59:41Z</time>
      </trkpt>
      <trkpt lat="44.95935" lon="5.46187">
        <ele>1334.2</ele>
        <time>2021-10-09T09:59:42Z</time>
      </trkpt>
      <trkpt lat="44.95935" lon="5.46191">
        <ele>1334.8</ele>
        <time>2021-10-09T09:59:43Z</time>
      </trkpt>
      <trkpt lat="44.95934" lon="5.46194">
        <ele>1335.2</ele>
        <time>2021-10-09T09:59:44Z</time>
      </trkpt>
      <trkpt lat="44.95934" lon="5.46198">
        <ele>1335.2</ele>
        <time>2021-10-09T09:59:45Z</time>
      </trkpt>
      <trkpt lat="44.95933" lon="5.462">
        <ele>1335.2</ele>
        <time>2021-10-09T09:59:46Z</time>
      </trkpt>
      <trkpt lat="44.95933" lon="5.46202">
        <ele>1335.8</ele>
        <time>2021-10-09T09:59:47Z</time>
      </trkpt>
      <trkpt lat="44.95933" lon="5.46205">
        <ele>1335.8</ele>
        <time>2021-10-09T09:59:48Z</time>
      </trkpt>
      <trkpt lat="44.95933" lon="5.46207">
        <ele>1335.8</ele>
        <time>2021-10-09T09:59:49Z</time>
      </trkpt>
      <trkpt lat="44.95933" lon="5.4621">
        <ele>1335.8</ele>
        <time>2021-10-09T09:59:50Z</time>
      </trkpt>
      <trkpt lat="44.95934" lon="5.46213">
        <ele>1335.8</ele>
        <time>2021-10-09T09:59:51Z</time>
      </trkpt>
      <trkpt lat="44.95935" lon="5.46216">
        <ele>1336</ele>
        <time>2021-10-09T09:59:52Z</time>
      </trkpt>
      <trkpt lat="44.95936" lon="5.46217">
        <ele>1336</ele>
        <time>2021-10-09T09:59:53Z</time>
      </trkpt>
      <trkpt lat="44.95937" lon="5.46219">
        <ele>1336</ele>
        <time>2021-10-09T09:59:54Z</time>
      </trkpt>
      <trkpt lat="44.95938" lon="5.4622">
        <ele>1336</ele>
        <time>2021-10-09T09:59:55Z</time>
      </trkpt>
      <trkpt lat="44.95939" lon="5.46221">
        <ele>1336</ele>
        <time>2021-10-09T09:59:56Z</time>
      </trkpt>
      <trkpt lat="44.9594" lon="5.46221">
        <ele>1336</ele>
        <time>2021-10-09T09:59:57Z</time>
      </trkpt>
      <trkpt lat="44.95941" lon="5.46222">
        <ele>1336</ele>
        <time>2021-10-09T09:59:58Z</time>
      </trkpt>
      <trkpt lat="44.95942" lon="5.46223">
        <ele>1335.6</ele>
        <time>2021-10-09T09:59:59Z</time>
      </trkpt>
      <trkpt lat="44.95942" lon="5.46225">
        <ele>1335.2</ele>
        <time>2021-10-09T10:00:00Z</time>
      </trkpt>
      <trkpt lat="44.95943" lon="5.46227">
        <ele>1335.2</ele>
        <time>2021-10-09T10:00:01Z</time>
      </trkpt>
      <trkpt lat="44.95945" lon="5.46229">
        <ele>1335.2</ele>
        <time>2021-10-09T10:00:02Z</time>
      </trkpt>
      <trkpt lat="44.95948" lon="5.46232">
        <ele>1334.2</ele>
        <time>2021-10-09T10:00:03Z</time>
      </trkpt>
      <trkpt lat="44.95952" lon="5.46234">
        <ele>1333</ele>
        <time>2021-10-09T10:00:04Z</time>
      </trkpt>
      <trkpt lat="44.95956" lon="5.46238">
        <ele>1333</ele>
        <time>2021-10-09T10:00:05Z</time>
      </trkpt>
      <trkpt lat="44.9596" lon="5.46241">
        <ele>1333</ele>
        <time>2021-10-09T10:00:06Z</time>
      </trkpt>
      <trkpt lat="44.95964" lon="5.46246">
        <ele>1332</ele>
        <time>2021-10-09T10:00:07Z</time>
      </trkpt>
      <trkpt lat="44.95968" lon="5.46249">
        <ele>1332</ele>
        <time>2021-10-09T10:00:08Z</time>
      </trkpt>
      <trkpt lat="44.95973" lon="5.46253">
        <ele>1331.6</ele>
        <time>2021-10-09T10:00:09Z</time>
      </trkpt>
      <trkpt lat="44.95977" lon="5.46257">
        <ele>1331.6</ele>
        <time>2021-10-09T10:00:10Z</time>
      </trkpt>
      <trkpt lat="44.95982" lon="5.4626">
        <ele>1330.6</ele>
        <time>2021-10-09T10:00:11Z</time>
      </trkpt>
      <trkpt lat="44.95987" lon="5.46262">
        <ele>1330.2</ele>
        <time>2021-10-09T10:00:12Z</time>
      </trkpt>
      <trkpt lat="44.95993" lon="5.46265">
        <ele>1330.2</ele>
        <time>2021-10-09T10:00:13Z</time>
      </trkpt>
      <trkpt lat="44.95998" lon="5.46264">
        <ele>1330.2</ele>
        <time>2021-10-09T10:00:14Z</time>
      </trkpt>
      <trkpt lat="44.96003" lon="5.46263">
        <ele>1330.2</ele>
        <time>2021-10-09T10:00:15Z</time>
      </trkpt>
      <trkpt lat="44.96008" lon="5.46263">
        <ele>1330</ele>
        <time>2021-10-09T10:00:16Z</time>
      </trkpt>
      <trkpt lat="44.96013" lon="5.46262">
        <ele>1330</ele>
        <time>2021-10-09T10:00:17Z</time>
      </trkpt>
      <trkpt lat="44.96018" lon="5.46261">
        <ele>1330</ele>
        <time>2021-10-09T10:00:18Z</time>
      </trkpt>
      <trkpt lat="44.96022" lon="5.46261">
        <ele>1330</ele>
        <time>2021-10-09T10:00:19Z</time>
      </trkpt>
      <trkpt lat="44.96027" lon="5.4626">
        <ele>1330.4</ele>
        <time>2021-10-09T10:00:20Z</time>
      </trkpt>
      <trkpt lat="44.9603" lon="5.46259">
        <ele>1330.4</ele>
        <time>2021-10-09T10:00:21Z</time>
      </trkpt>
      <trkpt lat="44.96034" lon="5.46257">
        <ele>1330.4</ele>
        <time>2021-10-09T10:00:22Z</time>
      </trkpt>
      <trkpt lat="44.96039" lon="5.46257">
        <ele>1330.4</ele>
        <time>2021-10-09T10:00:23Z</time>
      </trkpt>
      <trkpt lat="44.96043" lon="5.46254">
        <ele>1332.2</ele>
        <time>2021-10-09T10:00:24Z</time>
      </trkpt>
      <trkpt lat="44.96046" lon="5.46251">
        <ele>1332.2</ele>
        <time>2021-10-09T10:00:25Z</time>
      </trkpt>
      <trkpt lat="44.96049" lon="5.46248">
        <ele>1332.2</ele>
        <time>2021-10-09T10:00:26Z</time>
      </trkpt>
      <trkpt lat="44.96052" lon="5.46245">
        <ele>1332.2</ele>
        <time>2021-10-09T10:00:27Z</time>
      </trkpt>
      <trkpt lat="44.96054" lon="5.46242">
        <ele>1333.4</ele>
        <time>2021-10-09T10:00:28Z</time>
      </trkpt>
      <trkpt lat="44.96056" lon="5.46238">
        <ele>1333.4</ele>
        <time>2021-10-09T10:00:29Z</time>
      </trkpt>
      <trkpt lat="44.96059" lon="5.46236">
        <ele>1333.4</ele>
        <time>2021-10-09T10:00:30Z</time>
      </trkpt>
      <trkpt lat="44.9606" lon="5.46232">
        <ele>1333.4</ele>
        <time>2021-10-09T10:00:31Z</time>
      </trkpt>
      <trkpt lat="44.96061" lon="5.46229">
        <ele>1334.6</ele>
        <time>2021-10-09T10:00:32Z</time>
      </trkpt>
      <trkpt lat="44.96063" lon="5.46226">
        <ele>1334.6</ele>
        <time>2021-10-09T10:00:33Z</time>
      </trkpt>
      <trkpt lat="44.96065" lon="5.46223">
        <ele>1334.6</ele>
        <time>2021-10-09T10:00:34Z</time>
      </trkpt>
      <trkpt lat="44.96066" lon="5.4622">
        <ele>1334.8</ele>
        <time>2021-10-09T10:00:35Z</time>
      </trkpt>
      <trkpt lat="44.96067" lon="5.46217">
        <ele>1335</ele>
        <time>2021-10-09T10:00:36Z</time>
      </trkpt>
      <trkpt lat="44.96069" lon="5.46214">
        <ele>1335</ele>
        <time>2021-10-09T10:00:37Z</time>
      </trkpt>
      <trkpt lat="44.96071" lon="5.46212">
        <ele>1335</ele>
        <time>2021-10-09T10:00:38Z</time>
      </trkpt>
      <trkpt lat="44.96072" lon="5.46209">
        <ele>1335.8</ele>
        <time>2021-10-09T10:00:39Z</time>
      </trkpt>
      <trkpt lat="44.96073" lon="5.46207">
        <ele>1336.4</ele>
        <time>2021-10-09T10:00:40Z</time>
      </trkpt>
      <trkpt lat="44.96074" lon="5.46205">
        <ele>1336.4</ele>
        <time>2021-10-09T10:00:41Z</time>
      </trkpt>
      <trkpt lat="44.96075" lon="5.46202">
        <ele>1336.4</ele>
        <time>2021-10-09T10:00:42Z</time>
      </trkpt>
      <trkpt lat="44.96076" lon="5.462">
        <ele>1337.4</ele>
        <time>2021-10-09T10:00:43Z</time>
      </trkpt>
      <trkpt lat="44.96078" lon="5.46197">
        <ele>1337</ele>
        <time>2021-10-09T10:00:44Z</time>
      </trkpt>
      <trkpt lat="44.96079" lon="5.46194">
        <ele>1337</ele>
        <time>2021-10-09T10:00:45Z</time>
      </trkpt>
      <trkpt lat="44.96081" lon="5.46192">
        <ele>1337</ele>
        <time>2021-10-09T10:00:46Z</time>
      </trkpt>
      <trkpt lat="44.96083" lon="5.4619">
        <ele>1337.6</ele>
        <time>2021-10-09T10:00:47Z</time>
      </trkpt>
      <trkpt lat="44.96085" lon="5.46189">
        <ele>1337.6</ele>
        <time>2021-10-09T10:00:48Z</time>
      </trkpt>
      <trkpt lat="44.96087" lon="5.46188">
        <ele>1337.6</ele>
        <time>2021-10-09T10:00:49Z</time>
      </trkpt>
      <trkpt lat="44.96089" lon="5.46187">
        <ele>1337.6</ele>
        <time>2021-10-09T10:00:50Z</time>
      </trkpt>
      <trkpt lat="44.96091" lon="5.46187">
        <ele>1338.2</ele>
        <time>2021-10-09T10:00:51Z</time>
      </trkpt>
      <trkpt lat="44.96093" lon="5.46187">
        <ele>1338.2</ele>
        <time>2021-10-09T10:00:52Z</time>
      </trkpt>
      <trkpt lat="44.96095" lon="5.46187">
        <ele>1338.2</ele>
        <time>2021-10-09T10:00:53Z</time>
      </trkpt>
      <trkpt lat="44.96097" lon="5.46188">
        <ele>1338.2</ele>
        <time>2021-10-09T10:00:54Z</time>
      </trkpt>
      <trkpt lat="44.961" lon="5.46189">
        <ele>1339.2</ele>
        <time>2021-10-09T10:00:55Z</time>
      </trkpt>
      <trkpt lat="44.96102" lon="5.46189">
        <ele>1339.4</ele>
        <time>2021-10-09T10:00:56Z</time>
      </trkpt>
      <trkpt lat="44.96104" lon="5.46189">
        <ele>1339.4</ele>
        <time>2021-10-09T10:00:57Z</time>
      </trkpt>
      <trkpt lat="44.96106" lon="5.46188">
        <ele>1339.4</ele>
        <time>2021-10-09T10:00:58Z</time>
      </trkpt>
      <trkpt lat="44.96108" lon="5.46186">
        <ele>1339.4</ele>
        <time>2021-10-09T10:00:59Z</time>
      </trkpt>
      <trkpt lat="44.9611" lon="5.46185">
        <ele>1339.4</ele>
        <time>2021-10-09T10:01:00Z</time>
      </trkpt>
      <trkpt lat="44.96112" lon="5.46183">
        <ele>1339.4</ele>
        <time>2021-10-09T10:01:01Z</time>
      </trkpt>
      <trkpt lat="44.96113" lon="5.46181">
        <ele>1339.4</ele>
        <time>2021-10-09T10:01:02Z</time>
      </trkpt>
      <trkpt lat="44.96115" lon="5.46179">
        <ele>1339.6</ele>
        <time>2021-10-09T10:01:03Z</time>
      </trkpt>
      <trkpt lat="44.96116" lon="5.46178">
        <ele>1339.8</ele>
        <time>2021-10-09T10:01:04Z</time>
      </trkpt>
      <trkpt lat="44.96117" lon="5.46176">
        <ele>1339.8</ele>
        <time>2021-10-09T10:01:05Z</time>
      </trkpt>
      <trkpt lat="44.96117" lon="5.46175">
        <ele>1339.8</ele>
        <time>2021-10-09T10:01:06Z</time>
      </trkpt>
      <trkpt lat="44.96118" lon="5.46175">
        <ele>1339.8</ele>
        <time>2021-10-09T10:01:07Z</time>
      </trkpt>
      <trkpt lat="44.96117" lon="5.4617">
        <ele>1340.6</ele>
        <time>2021-10-09T10:01:31Z</time>
      </trkpt>
      <trkpt lat="44.96116" lon="5.46167">
        <ele>1340.6</ele>
        <time>2021-10-09T10:01:32Z</time>
      </trkpt>
      <trkpt lat="44.96115" lon="5.46164">
        <ele>1340.6</ele>
        <time>2021-10-09T10:01:33Z</time>
      </trkpt>
      <trkpt lat="44.96114" lon="5.46161">
        <ele>1340.6</ele>
        <time>2021-10-09T10:01:34Z</time>
      </trkpt>
      <trkpt lat="44.96113" lon="5.46159">
        <ele>1341.2</ele>
        <time>2021-10-09T10:01:35Z</time>
      </trkpt>
      <trkpt lat="44.96111" lon="5.46157">
        <ele>1341.6</ele>
        <time>2021-10-09T10:01:36Z</time>
      </trkpt>
      <trkpt lat="44.9611" lon="5.46157">
        <ele>1341.6</ele>
        <time>2021-10-09T10:01:37Z</time>
      </trkpt>
      <trkpt lat="44.96108" lon="5.46156">
        <ele>1341.6</ele>
        <time>2021-10-09T10:01:38Z</time>
      </trkpt>
      <trkpt lat="44.96106" lon="5.46155">
        <ele>1341.6</ele>
        <time>2021-10-09T10:01:39Z</time>
      </trkpt>
      <trkpt lat="44.96104" lon="5.46153">
        <ele>1342.2</ele>
        <time>2021-10-09T10:01:40Z</time>
      </trkpt>
      <trkpt lat="44.96101" lon="5.46152">
        <ele>1342.2</ele>
        <time>2021-10-09T10:01:41Z</time>
      </trkpt>
      <trkpt lat="44.96099" lon="5.46151">
        <ele>1342.2</ele>
        <time>2021-10-09T10:01:42Z</time>
      </trkpt>
      <trkpt lat="44.96097" lon="5.4615">
        <ele>1343</ele>
        <time>2021-10-09T10:01:43Z</time>
      </trkpt>
      <trkpt lat="44.96094" lon="5.46149">
        <ele>1343</ele>
        <time>2021-10-09T10:01:44Z</time>
      </trkpt>
      <trkpt lat="44.96092" lon="5.46147">
        <ele>1343</ele>
        <time>2021-10-09T10:01:45Z</time>
      </trkpt>
      <trkpt lat="44.9609" lon="5.46146">
        <ele>1343</ele>
        <time>2021-10-09T10:01:46Z</time>
      </trkpt>
      <trkpt lat="44.96088" lon="5.46145">
        <ele>1343</ele>
        <time>2021-10-09T10:01:47Z</time>
      </trkpt>
      <trkpt lat="44.96086" lon="5.46143">
        <ele>1343.6</ele>
        <time>2021-10-09T10:01:48Z</time>
      </trkpt>
      <trkpt lat="44.96085" lon="5.46142">
        <ele>1343.6</ele>
        <time>2021-10-09T10:01:49Z</time>
      </trkpt>
      <trkpt lat="44.96083" lon="5.46141">
        <ele>1343.6</ele>
        <time>2021-10-09T10:01:50Z</time>
      </trkpt>
      <trkpt lat="44.96081" lon="5.46139">
        <ele>1344</ele>
        <time>2021-10-09T10:01:51Z</time>
      </trkpt>
      <trkpt lat="44.96079" lon="5.46138">
        <ele>1344.4</ele>
        <time>2021-10-09T10:01:52Z</time>
      </trkpt>
      <trkpt lat="44.96077" lon="5.46136">
        <ele>1344.4</ele>
        <time>2021-10-09T10:01:53Z</time>
      </trkpt>
      <trkpt lat="44.96076" lon="5.46134">
        <ele>1344.4</ele>
        <time>2021-10-09T10:01:54Z</time>
      </trkpt>
      <trkpt lat="44.96075" lon="5.46132">
        <ele>1344.4</ele>
        <time>2021-10-09T10:01:55Z</time>
      </trkpt>
      <trkpt lat="44.96074" lon="5.46129">
        <ele>1344.8</ele>
        <time>2021-10-09T10:01:56Z</time>
      </trkpt>
      <trkpt lat="44.96073" lon="5.46127">
        <ele>1344.8</ele>
        <time>2021-10-09T10:01:57Z</time>
      </trkpt>
      <trkpt lat="44.96074" lon="5.46124">
        <ele>1344.8</ele>
        <time>2021-10-09T10:01:58Z</time>
      </trkpt>
      <trkpt lat="44.96074" lon="5.46122">
        <ele>1344.8</ele>
        <time>2021-10-09T10:01:59Z</time>
      </trkpt>
      <trkpt lat="44.96075" lon="5.46119">
        <ele>1345.4</ele>
        <time>2021-10-09T10:02:00Z</time>
      </trkpt>
      <trkpt lat="44.96077" lon="5.46118">
        <ele>1345.4</ele>
        <time>2021-10-09T10:02:01Z</time>
      </trkpt>
      <trkpt lat="44.96078" lon="5.46116">
        <ele>1345.4</ele>
        <time>2021-10-09T10:02:02Z</time>
      </trkpt>
      <trkpt lat="44.9608" lon="5.46115">
        <ele>1346.2</ele>
        <time>2021-10-09T10:02:03Z</time>
      </trkpt>
      <trkpt lat="44.96082" lon="5.46114">
        <ele>1346.4</ele>
        <time>2021-10-09T10:02:04Z</time>
      </trkpt>
      <trkpt lat="44.96083" lon="5.46112">
        <ele>1346.4</ele>
        <time>2021-10-09T10:02:05Z</time>
      </trkpt>
      <trkpt lat="44.96085" lon="5.46111">
        <ele>1346.4</ele>
        <time>2021-10-09T10:02:06Z</time>
      </trkpt>
      <trkpt lat="44.96086" lon="5.4611">
        <ele>1346.4</ele>
        <time>2021-10-09T10:02:07Z</time>
      </trkpt>
      <trkpt lat="44.96087" lon="5.46109">
        <ele>1347</ele>
        <time>2021-10-09T10:02:08Z</time>
      </trkpt>
      <trkpt lat="44.96089" lon="5.46107">
        <ele>1347</ele>
        <time>2021-10-09T10:02:09Z</time>
      </trkpt>
      <trkpt lat="44.9609" lon="5.46106">
        <ele>1347</ele>
        <time>2021-10-09T10:02:10Z</time>
      </trkpt>
      <trkpt lat="44.96092" lon="5.46104">
        <ele>1347.8</ele>
        <time>2021-10-09T10:02:11Z</time>
      </trkpt>
      <trkpt lat="44.96093" lon="5.46103">
        <ele>1347.2</ele>
        <time>2021-10-09T10:02:12Z</time>
      </trkpt>
      <trkpt lat="44.96094" lon="5.46101">
        <ele>1347.2</ele>
        <time>2021-10-09T10:02:13Z</time>
      </trkpt>
      <trkpt lat="44.96096" lon="5.46099">
        <ele>1347.2</ele>
        <time>2021-10-09T10:02:14Z</time>
      </trkpt>
      <trkpt lat="44.96097" lon="5.46097">
        <ele>1348</ele>
        <time>2021-10-09T10:02:15Z</time>
      </trkpt>
      <trkpt lat="44.96098" lon="5.46095">
        <ele>1348.2</ele>
        <time>2021-10-09T10:02:16Z</time>
      </trkpt>
      <trkpt lat="44.96099" lon="5.46093">
        <ele>1348.2</ele>
        <time>2021-10-09T10:02:17Z</time>
      </trkpt>
      <trkpt lat="44.96099" lon="5.4609">
        <ele>1348.2</ele>
        <time>2021-10-09T10:02:18Z</time>
      </trkpt>
      <trkpt lat="44.961" lon="5.46087">
        <ele>1348.8</ele>
        <time>2021-10-09T10:02:19Z</time>
      </trkpt>
      <trkpt lat="44.961" lon="5.46085">
        <ele>1349</ele>
        <time>2021-10-09T10:02:20Z</time>
      </trkpt>
      <trkpt lat="44.96101" lon="5.46082">
        <ele>1349</ele>
        <time>2021-10-09T10:02:21Z</time>
      </trkpt>
      <trkpt lat="44.96101" lon="5.46079">
        <ele>1349</ele>
        <time>2021-10-09T10:02:22Z</time>
      </trkpt>
      <trkpt lat="44.96101" lon="5.46077">
        <ele>1349.4</ele>
        <time>2021-10-09T10:02:23Z</time>
      </trkpt>
      <trkpt lat="44.961" lon="5.46074">
        <ele>1349.6</ele>
        <time>2021-10-09T10:02:24Z</time>
      </trkpt>
      <trkpt lat="44.961" lon="5.46071">
        <ele>1349.6</ele>
        <time>2021-10-09T10:02:25Z</time>
      </trkpt>
      <trkpt lat="44.96101" lon="5.46069">
        <ele>1349.6</ele>
        <time>2021-10-09T10:02:26Z</time>
      </trkpt>
      <trkpt lat="44.961" lon="5.46067">
        <ele>1350</ele>
        <time>2021-10-09T10:02:27Z</time>
      </trkpt>
      <trkpt lat="44.961" lon="5.46064">
        <ele>1350</ele>
        <time>2021-10-09T10:02:28Z</time>
      </trkpt>
      <trkpt lat="44.961" lon="5.46061">
        <ele>1350</ele>
        <time>2021-10-09T10:02:29Z</time>
      </trkpt>
      <trkpt lat="44.961" lon="5.46059">
        <ele>1350</ele>
        <time>2021-10-09T10:02:30Z</time>
      </trkpt>
      <trkpt lat="44.961" lon="5.46057">
        <ele>1350</ele>
        <time>2021-10-09T10:02:31Z</time>
      </trkpt>
      <trkpt lat="44.961" lon="5.46054">
        <ele>1350.2</ele>
        <time>2021-10-09T10:02:32Z</time>
      </trkpt>
      <trkpt lat="44.961" lon="5.46051">
        <ele>1350.2</ele>
        <time>2021-10-09T10:02:33Z</time>
      </trkpt>
      <trkpt lat="44.961" lon="5.46048">
        <ele>1350.2</ele>
        <time>2021-10-09T10:02:34Z</time>
      </trkpt>
      <trkpt lat="44.961" lon="5.46045">
        <ele>1350.4</ele>
        <time>2021-10-09T10:02:35Z</time>
      </trkpt>
      <trkpt lat="44.961" lon="5.46042">
        <ele>1350.6</ele>
        <time>2021-10-09T10:02:36Z</time>
      </trkpt>
      <trkpt lat="44.961" lon="5.4604">
        <ele>1350.6</ele>
        <time>2021-10-09T10:02:37Z</time>
      </trkpt>
      <trkpt lat="44.961" lon="5.46037">
        <ele>1350.6</ele>
        <time>2021-10-09T10:02:38Z</time>
      </trkpt>
      <trkpt lat="44.961" lon="5.46034">
        <ele>1350.6</ele>
        <time>2021-10-09T10:02:39Z</time>
      </trkpt>
      <trkpt lat="44.961" lon="5.46031">
        <ele>1351.2</ele>
        <time>2021-10-09T10:02:40Z</time>
      </trkpt>
      <trkpt lat="44.96101" lon="5.46028">
        <ele>1351.2</ele>
        <time>2021-10-09T10:02:41Z</time>
      </trkpt>
      <trkpt lat="44.96102" lon="5.46026">
        <ele>1351.2</ele>
        <time>2021-10-09T10:02:42Z</time>
      </trkpt>
      <trkpt lat="44.96102" lon="5.46023">
        <ele>1351.6</ele>
        <time>2021-10-09T10:02:43Z</time>
      </trkpt>
      <trkpt lat="44.96103" lon="5.4602">
        <ele>1351.8</ele>
        <time>2021-10-09T10:02:44Z</time>
      </trkpt>
      <trkpt lat="44.96104" lon="5.46018">
        <ele>1351.8</ele>
        <time>2021-10-09T10:02:45Z</time>
      </trkpt>
      <trkpt lat="44.96104" lon="5.46016">
        <ele>1351.8</ele>
        <time>2021-10-09T10:02:46Z</time>
      </trkpt>
      <trkpt lat="44.96105" lon="5.46013">
        <ele>1351.8</ele>
        <time>2021-10-09T10:02:47Z</time>
      </trkpt>
      <trkpt lat="44.96105" lon="5.4601">
        <ele>1351.8</ele>
        <time>2021-10-09T10:02:48Z</time>
      </trkpt>
      <trkpt lat="44.96106" lon="5.46008">
        <ele>1351.8</ele>
        <time>2021-10-09T10:02:49Z</time>
      </trkpt>
      <trkpt lat="44.96107" lon="5.46005">
        <ele>1351.8</ele>
        <time>2021-10-09T10:02:50Z</time>
      </trkpt>
      <trkpt lat="44.96107" lon="5.46001">
        <ele>1351.8</ele>
        <time>2021-10-09T10:02:51Z</time>
      </trkpt>
      <trkpt lat="44.96108" lon="5.45998">
        <ele>1351.6</ele>
        <time>2021-10-09T10:02:52Z</time>
      </trkpt>
      <trkpt lat="44.96108" lon="5.45994">
        <ele>1351.6</ele>
        <time>2021-10-09T10:02:53Z</time>
      </trkpt>
      <trkpt lat="44.96109" lon="5.4599">
        <ele>1351.6</ele>
        <time>2021-10-09T10:02:54Z</time>
      </trkpt>
      <trkpt lat="44.96109" lon="5.45985">
        <ele>1350.8</ele>
        <time>2021-10-09T10:02:55Z</time>
      </trkpt>
      <trkpt lat="44.9611" lon="5.4598">
        <ele>1350</ele>
        <time>2021-10-09T10:02:56Z</time>
      </trkpt>
      <trkpt lat="44.96111" lon="5.45975">
        <ele>1350</ele>
        <time>2021-10-09T10:02:57Z</time>
      </trkpt>
      <trkpt lat="44.96111" lon="5.4597">
        <ele>1350</ele>
        <time>2021-10-09T10:02:58Z</time>
      </trkpt>
      <trkpt lat="44.96112" lon="5.45964">
        <ele>1349</ele>
        <time>2021-10-09T10:02:59Z</time>
      </trkpt>
      <trkpt lat="44.96113" lon="5.45957">
        <ele>1348.8</ele>
        <time>2021-10-09T10:03:00Z</time>
      </trkpt>
      <trkpt lat="44.96114" lon="5.4595">
        <ele>1348.8</ele>
        <time>2021-10-09T10:03:01Z</time>
      </trkpt>
      <trkpt lat="44.96117" lon="5.45944">
        <ele>1348.8</ele>
        <time>2021-10-09T10:03:02Z</time>
      </trkpt>
      <trkpt lat="44.9612" lon="5.45937">
        <ele>1347.8</ele>
        <time>2021-10-09T10:03:03Z</time>
      </trkpt>
      <trkpt lat="44.96123" lon="5.45931">
        <ele>1347.2</ele>
        <time>2021-10-09T10:03:04Z</time>
      </trkpt>
      <trkpt lat="44.96127" lon="5.45926">
        <ele>1347.2</ele>
        <time>2021-10-09T10:03:05Z</time>
      </trkpt>
      <trkpt lat="44.96131" lon="5.45919">
        <ele>1347.2</ele>
        <time>2021-10-09T10:03:06Z</time>
      </trkpt>
      <trkpt lat="44.96136" lon="5.45913">
        <ele>1346.2</ele>
        <time>2021-10-09T10:03:07Z</time>
      </trkpt>
      <trkpt lat="44.9614" lon="5.45907">
        <ele>1346.4</ele>
        <time>2021-10-09T10:03:08Z</time>
      </trkpt>
      <trkpt lat="44.96145" lon="5.45902">
        <ele>1346.4</ele>
        <time>2021-10-09T10:03:09Z</time>
      </trkpt>
      <trkpt lat="44.9615" lon="5.45897">
        <ele>1346.4</ele>
        <time>2021-10-09T10:03:10Z</time>
      </trkpt>
      <trkpt lat="44.96155" lon="5.45892">
        <ele>1345.4</ele>
        <time>2021-10-09T10:03:11Z</time>
      </trkpt>
      <trkpt lat="44.96162" lon="5.45888">
        <ele>1343</ele>
        <time>2021-10-09T10:03:12Z</time>
      </trkpt>
      <trkpt lat="44.96167" lon="5.45883">
        <ele>1343</ele>
        <time>2021-10-09T10:03:13Z</time>
      </trkpt>
      <trkpt lat="44.96173" lon="5.45878">
        <ele>1343</ele>
        <time>2021-10-09T10:03:14Z</time>
      </trkpt>
      <trkpt lat="44.9618" lon="5.45873">
        <ele>1342.2</ele>
        <time>2021-10-09T10:03:15Z</time>
      </trkpt>
      <trkpt lat="44.96187" lon="5.45869">
        <ele>1341</ele>
        <time>2021-10-09T10:03:16Z</time>
      </trkpt>
      <trkpt lat="44.96194" lon="5.45866">
        <ele>1341</ele>
        <time>2021-10-09T10:03:17Z</time>
      </trkpt>
      <trkpt lat="44.96201" lon="5.45864">
        <ele>1341</ele>
        <time>2021-10-09T10:03:18Z</time>
      </trkpt>
      <trkpt lat="44.96208" lon="5.45864">
        <ele>1341</ele>
        <time>2021-10-09T10:03:19Z</time>
      </trkpt>
      <trkpt lat="44.96214" lon="5.45863">
        <ele>1339</ele>
        <time>2021-10-09T10:03:20Z</time>
      </trkpt>
      <trkpt lat="44.96222" lon="5.45862">
        <ele>1339</ele>
        <time>2021-10-09T10:03:21Z</time>
      </trkpt>
      <trkpt lat="44.96228" lon="5.45861">
        <ele>1339</ele>
        <time>2021-10-09T10:03:22Z</time>
      </trkpt>
      <trkpt lat="44.96236" lon="5.45861">
        <ele>1338</ele>
        <time>2021-10-09T10:03:23Z</time>
      </trkpt>
      <trkpt lat="44.96243" lon="5.45862">
        <ele>1337</ele>
        <time>2021-10-09T10:03:24Z</time>
      </trkpt>
      <trkpt lat="44.9625" lon="5.45864">
        <ele>1337</ele>
        <time>2021-10-09T10:03:25Z</time>
      </trkpt>
      <trkpt lat="44.96256" lon="5.45866">
        <ele>1337</ele>
        <time>2021-10-09T10:03:26Z</time>
      </trkpt>
      <trkpt lat="44.96261" lon="5.45872">
        <ele>1336</ele>
        <time>2021-10-09T10:03:27Z</time>
      </trkpt>
      <trkpt lat="44.96267" lon="5.45877">
        <ele>1333.4</ele>
        <time>2021-10-09T10:03:28Z</time>
      </trkpt>
      <trkpt lat="44.96272" lon="5.45885">
        <ele>1333.4</ele>
        <time>2021-10-09T10:03:29Z</time>
      </trkpt>
      <trkpt lat="44.96276" lon="5.45892">
        <ele>1333.4</ele>
        <time>2021-10-09T10:03:30Z</time>
      </trkpt>
      <trkpt lat="44.96279" lon="5.459">
        <ele>1333.4</ele>
        <time>2021-10-09T10:03:31Z</time>
      </trkpt>
      <trkpt lat="44.96282" lon="5.45907">
        <ele>1333.2</ele>
        <time>2021-10-09T10:03:32Z</time>
      </trkpt>
      <trkpt lat="44.96286" lon="5.45913">
        <ele>1333.2</ele>
        <time>2021-10-09T10:03:33Z</time>
      </trkpt>
      <trkpt lat="44.96292" lon="5.45917">
        <ele>1333.2</ele>
        <time>2021-10-09T10:03:34Z</time>
      </trkpt>
      <trkpt lat="44.96297" lon="5.45919">
        <ele>1333.2</ele>
        <time>2021-10-09T10:03:35Z</time>
      </trkpt>
      <trkpt lat="44.96303" lon="5.4592">
        <ele>1333.2</ele>
        <time>2021-10-09T10:03:36Z</time>
      </trkpt>
      <trkpt lat="44.96311" lon="5.4592">
        <ele>1331.6</ele>
        <time>2021-10-09T10:03:37Z</time>
      </trkpt>
      <trkpt lat="44.96318" lon="5.45921">
        <ele>1331.6</ele>
        <time>2021-10-09T10:03:38Z</time>
      </trkpt>
      <trkpt lat="44.96325" lon="5.45922">
        <ele>1330.6</ele>
        <time>2021-10-09T10:03:39Z</time>
      </trkpt>
      <trkpt lat="44.96332" lon="5.45922">
        <ele>1329.2</ele>
        <time>2021-10-09T10:03:40Z</time>
      </trkpt>
      <trkpt lat="44.96338" lon="5.4592">
        <ele>1329.2</ele>
        <time>2021-10-09T10:03:41Z</time>
      </trkpt>
      <trkpt lat="44.96345" lon="5.45918">
        <ele>1329.2</ele>
        <time>2021-10-09T10:03:42Z</time>
      </trkpt>
      <trkpt lat="44.96352" lon="5.45916">
        <ele>1328.2</ele>
        <time>2021-10-09T10:03:43Z</time>
      </trkpt>
      <trkpt lat="44.96359" lon="5.45912">
        <ele>1326.2</ele>
        <time>2021-10-09T10:03:44Z</time>
      </trkpt>
      <trkpt lat="44.96365" lon="5.45908">
        <ele>1326.2</ele>
        <time>2021-10-09T10:03:45Z</time>
      </trkpt>
      <trkpt lat="44.9637" lon="5.45905">
        <ele>1326.2</ele>
        <time>2021-10-09T10:03:46Z</time>
      </trkpt>
      <trkpt lat="44.96375" lon="5.45901">
        <ele>1327.2</ele>
        <time>2021-10-09T10:03:47Z</time>
      </trkpt>
      <trkpt lat="44.96379" lon="5.45898">
        <ele>1326.4</ele>
        <time>2021-10-09T10:03:48Z</time>
      </trkpt>
      <trkpt lat="44.96383" lon="5.45896">
        <ele>1326.4</ele>
        <time>2021-10-09T10:03:49Z</time>
      </trkpt>
      <trkpt lat="44.96387" lon="5.45896">
        <ele>1326.4</ele>
        <time>2021-10-09T10:03:50Z</time>
      </trkpt>
      <trkpt lat="44.96391" lon="5.45898">
        <ele>1326.4</ele>
        <time>2021-10-09T10:03:51Z</time>
      </trkpt>
      <trkpt lat="44.96394" lon="5.45902">
        <ele>1326</ele>
        <time>2021-10-09T10:03:52Z</time>
      </trkpt>
      <trkpt lat="44.96396" lon="5.45906">
        <ele>1326</ele>
        <time>2021-10-09T10:03:53Z</time>
      </trkpt>
      <trkpt lat="44.96397" lon="5.4591">
        <ele>1326</ele>
        <time>2021-10-09T10:03:54Z</time>
      </trkpt>
      <trkpt lat="44.96395" lon="5.45915">
        <ele>1325</ele>
        <time>2021-10-09T10:03:55Z</time>
      </trkpt>
      <trkpt lat="44.96392" lon="5.45919">
        <ele>1323.4</ele>
        <time>2021-10-09T10:03:56Z</time>
      </trkpt>
      <trkpt lat="44.96389" lon="5.45923">
        <ele>1323.4</ele>
        <time>2021-10-09T10:03:57Z</time>
      </trkpt>
      <trkpt lat="44.96385" lon="5.45926">
        <ele>1323.4</ele>
        <time>2021-10-09T10:03:58Z</time>
      </trkpt>
      <trkpt lat="44.9638" lon="5.4593">
        <ele>1322.4</ele>
        <time>2021-10-09T10:03:59Z</time>
      </trkpt>
      <trkpt lat="44.96376" lon="5.45934">
        <ele>1323</ele>
        <time>2021-10-09T10:04:00Z</time>
      </trkpt>
      <trkpt lat="44.96371" lon="5.45939">
        <ele>1323</ele>
        <time>2021-10-09T10:04:01Z</time>
      </trkpt>
      <trkpt lat="44.96366" lon="5.45943">
        <ele>1323</ele>
        <time>2021-10-09T10:04:02Z</time>
      </trkpt>
      <trkpt lat="44.96361" lon="5.45948">
        <ele>1322</ele>
        <time>2021-10-09T10:04:03Z</time>
      </trkpt>
      <trkpt lat="44.96356" lon="5.45954">
        <ele>1319.8</ele>
        <time>2021-10-09T10:04:04Z</time>
      </trkpt>
      <trkpt lat="44.96352" lon="5.45959">
        <ele>1319.8</ele>
        <time>2021-10-09T10:04:05Z</time>
      </trkpt>
      <trkpt lat="44.96347" lon="5.45964">
        <ele>1319.8</ele>
        <time>2021-10-09T10:04:06Z</time>
      </trkpt>
      <trkpt lat="44.96343" lon="5.45967">
        <ele>1318.8</ele>
        <time>2021-10-09T10:04:07Z</time>
      </trkpt>
      <trkpt lat="44.96337" lon="5.45968">
        <ele>1317.6</ele>
        <time>2021-10-09T10:04:08Z</time>
      </trkpt>
      <trkpt lat="44.96332" lon="5.45971">
        <ele>1317.6</ele>
        <time>2021-10-09T10:04:09Z</time>
      </trkpt>
      <trkpt lat="44.96327" lon="5.45973">
        <ele>1317.6</ele>
        <time>2021-10-09T10:04:10Z</time>
      </trkpt>
      <trkpt lat="44.96323" lon="5.45977">
        <ele>1317.6</ele>
        <time>2021-10-09T10:04:11Z</time>
      </trkpt>
      <trkpt lat="44.96321" lon="5.45983">
        <ele>1315.8</ele>
        <time>2021-10-09T10:04:12Z</time>
      </trkpt>
      <trkpt lat="44.9632" lon="5.45991">
        <ele>1315.8</ele>
        <time>2021-10-09T10:04:13Z</time>
      </trkpt>
      <trkpt lat="44.9632" lon="5.45998">
        <ele>1315.8</ele>
        <time>2021-10-09T10:04:14Z</time>
      </trkpt>
      <trkpt lat="44.96321" lon="5.46005">
        <ele>1315.8</ele>
        <time>2021-10-09T10:04:15Z</time>
      </trkpt>
      <trkpt lat="44.96322" lon="5.46013">
        <ele>1315.8</ele>
        <time>2021-10-09T10:04:16Z</time>
      </trkpt>
      <trkpt lat="44.96323" lon="5.4602">
        <ele>1315.8</ele>
        <time>2021-10-09T10:04:17Z</time>
      </trkpt>
      <trkpt lat="44.96325" lon="5.46024">
        <ele>1315.8</ele>
        <time>2021-10-09T10:04:18Z</time>
      </trkpt>
      <trkpt lat="44.96329" lon="5.46027">
        <ele>1314.8</ele>
        <time>2021-10-09T10:04:19Z</time>
      </trkpt>
      <trkpt lat="44.96332" lon="5.46031">
        <ele>1313.8</ele>
        <time>2021-10-09T10:04:20Z</time>
      </trkpt>
      <trkpt lat="44.96336" lon="5.46033">
        <ele>1313.8</ele>
        <time>2021-10-09T10:04:21Z</time>
      </trkpt>
      <trkpt lat="44.96341" lon="5.46035">
        <ele>1313.8</ele>
        <time>2021-10-09T10:04:22Z</time>
      </trkpt>
      <trkpt lat="44.96346" lon="5.46035">
        <ele>1312.8</ele>
        <time>2021-10-09T10:04:23Z</time>
      </trkpt>
      <trkpt lat="44.96351" lon="5.46035">
        <ele>1311.2</ele>
        <time>2021-10-09T10:04:24Z</time>
      </trkpt>
      <trkpt lat="44.96357" lon="5.46034">
        <ele>1311.2</ele>
        <time>2021-10-09T10:04:25Z</time>
      </trkpt>
      <trkpt lat="44.96364" lon="5.46032">
        <ele>1311.2</ele>
        <time>2021-10-09T10:04:26Z</time>
      </trkpt>
      <trkpt lat="44.96371" lon="5.46031">
        <ele>1310.2</ele>
        <time>2021-10-09T10:04:27Z</time>
      </trkpt>
      <trkpt lat="44.96377" lon="5.46029">
        <ele>1308.8</ele>
        <time>2021-10-09T10:04:28Z</time>
      </trkpt>
      <trkpt lat="44.96384" lon="5.46028">
        <ele>1308.8</ele>
        <time>2021-10-09T10:04:29Z</time>
      </trkpt>
      <trkpt lat="44.9639" lon="5.46027">
        <ele>1308.8</ele>
        <time>2021-10-09T10:04:30Z</time>
      </trkpt>
      <trkpt lat="44.96396" lon="5.46026">
        <ele>1307.8</ele>
        <time>2021-10-09T10:04:31Z</time>
      </trkpt>
      <trkpt lat="44.96403" lon="5.46026">
        <ele>1306</ele>
        <time>2021-10-09T10:04:32Z</time>
      </trkpt>
      <trkpt lat="44.96411" lon="5.46026">
        <ele>1306</ele>
        <time>2021-10-09T10:04:33Z</time>
      </trkpt>
      <trkpt lat="44.96418" lon="5.46027">
        <ele>1306</ele>
        <time>2021-10-09T10:04:34Z</time>
      </trkpt>
      <trkpt lat="44.96424" lon="5.46029">
        <ele>1306</ele>
        <time>2021-10-09T10:04:35Z</time>
      </trkpt>
      <trkpt lat="44.96431" lon="5.46032">
        <ele>1305.2</ele>
        <time>2021-10-09T10:04:36Z</time>
      </trkpt>
      <trkpt lat="44.96438" lon="5.46038">
        <ele>1305.2</ele>
        <time>2021-10-09T10:04:37Z</time>
      </trkpt>
      <trkpt lat="44.96444" lon="5.46044">
        <ele>1305.2</ele>
        <time>2021-10-09T10:04:38Z</time>
      </trkpt>
      <trkpt lat="44.9645" lon="5.46048">
        <ele>1304.2</ele>
        <time>2021-10-09T10:04:39Z</time>
      </trkpt>
      <trkpt lat="44.96456" lon="5.46051">
        <ele>1302.8</ele>
        <time>2021-10-09T10:04:40Z</time>
      </trkpt>
      <trkpt lat="44.96463" lon="5.46051">
        <ele>1302.8</ele>
        <time>2021-10-09T10:04:41Z</time>
      </trkpt>
      <trkpt lat="44.96471" lon="5.4605">
        <ele>1302.8</ele>
        <time>2021-10-09T10:04:42Z</time>
      </trkpt>
      <trkpt lat="44.96477" lon="5.46048">
        <ele>1301.8</ele>
        <time>2021-10-09T10:04:43Z</time>
      </trkpt>
      <trkpt lat="44.96484" lon="5.46045">
        <ele>1301.2</ele>
        <time>2021-10-09T10:04:44Z</time>
      </trkpt>
      <trkpt lat="44.96492" lon="5.46041">
        <ele>1301.2</ele>
        <time>2021-10-09T10:04:45Z</time>
      </trkpt>
      <trkpt lat="44.96498" lon="5.46035">
        <ele>1301.2</ele>
        <time>2021-10-09T10:04:46Z</time>
      </trkpt>
      <trkpt lat="44.96505" lon="5.4603">
        <ele>1302</ele>
        <time>2021-10-09T10:04:47Z</time>
      </trkpt>
      <trkpt lat="44.9651" lon="5.46026">
        <ele>1302.8</ele>
        <time>2021-10-09T10:04:48Z</time>
      </trkpt>
      <trkpt lat="44.96516" lon="5.46022">
        <ele>1302.8</ele>
        <time>2021-10-09T10:04:49Z</time>
      </trkpt>
      <trkpt lat="44.96523" lon="5.46019">
        <ele>1302.8</ele>
        <time>2021-10-09T10:04:50Z</time>
      </trkpt>
      <trkpt lat="44.96529" lon="5.46016">
        <ele>1302.8</ele>
        <time>2021-10-09T10:04:51Z</time>
      </trkpt>
      <trkpt lat="44.96535" lon="5.46013">
        <ele>1303.2</ele>
        <time>2021-10-09T10:04:52Z</time>
      </trkpt>
      <trkpt lat="44.96541" lon="5.46013">
        <ele>1303.2</ele>
        <time>2021-10-09T10:04:53Z</time>
      </trkpt>
      <trkpt lat="44.96547" lon="5.46014">
        <ele>1303.2</ele>
        <time>2021-10-09T10:04:54Z</time>
      </trkpt>
      <trkpt lat="44.96552" lon="5.46016">
        <ele>1302.4</ele>
        <time>2021-10-09T10:04:55Z</time>
      </trkpt>
      <trkpt lat="44.96556" lon="5.46018">
        <ele>1303.2</ele>
        <time>2021-10-09T10:04:56Z</time>
      </trkpt>
      <trkpt lat="44.9656" lon="5.4602">
        <ele>1303.2</ele>
        <time>2021-10-09T10:04:57Z</time>
      </trkpt>
      <trkpt lat="44.96564" lon="5.46022">
        <ele>1303.2</ele>
        <time>2021-10-09T10:04:58Z</time>
      </trkpt>
      <trkpt lat="44.96567" lon="5.46022">
        <ele>1302.8</ele>
        <time>2021-10-09T10:04:59Z</time>
      </trkpt>
      <trkpt lat="44.96571" lon="5.46022">
        <ele>1303.2</ele>
        <time>2021-10-09T10:05:00Z</time>
      </trkpt>
      <trkpt lat="44.96574" lon="5.46022">
        <ele>1303.2</ele>
        <time>2021-10-09T10:05:01Z</time>
      </trkpt>
      <trkpt lat="44.96577" lon="5.4602">
        <ele>1303.2</ele>
        <time>2021-10-09T10:05:02Z</time>
      </trkpt>
      <trkpt lat="44.9658" lon="5.4602">
        <ele>1303.6</ele>
        <time>2021-10-09T10:05:03Z</time>
      </trkpt>
      <trkpt lat="44.96582" lon="5.46019">
        <ele>1303.2</ele>
        <time>2021-10-09T10:05:04Z</time>
      </trkpt>
      <trkpt lat="44.96584" lon="5.46019">
        <ele>1303.2</ele>
        <time>2021-10-09T10:05:05Z</time>
      </trkpt>
      <trkpt lat="44.96585" lon="5.46018">
        <ele>1303.2</ele>
        <time>2021-10-09T10:05:06Z</time>
      </trkpt>
      <trkpt lat="44.96587" lon="5.46018">
        <ele>1303.4</ele>
        <time>2021-10-09T10:05:07Z</time>
      </trkpt>
      <trkpt lat="44.96588" lon="5.46018">
        <ele>1303.2</ele>
        <time>2021-10-09T10:05:08Z</time>
      </trkpt>
      <trkpt lat="44.96589" lon="5.46018">
        <ele>1303.2</ele>
        <time>2021-10-09T10:05:09Z</time>
      </trkpt>
      <trkpt lat="44.9659" lon="5.46018">
        <ele>1303.2</ele>
        <time>2021-10-09T10:05:10Z</time>
      </trkpt>
      <trkpt lat="44.96592" lon="5.46018">
        <ele>1303.6</ele>
        <time>2021-10-09T10:05:11Z</time>
      </trkpt>
      <trkpt lat="44.96593" lon="5.46018">
        <ele>1303.6</ele>
        <time>2021-10-09T10:05:12Z</time>
      </trkpt>
      <trkpt lat="44.96593" lon="5.46018">
        <ele>1303.6</ele>
        <time>2021-10-09T10:05:13Z</time>
      </trkpt>
      <trkpt lat="44.96602" lon="5.46017">
        <ele>1302.4</ele>
        <time>2021-10-09T10:06:59Z</time>
      </trkpt>
      <trkpt lat="44.96604" lon="5.46016">
        <ele>1302.6</ele>
        <time>2021-10-09T10:07:00Z</time>
      </trkpt>
      <trkpt lat="44.96605" lon="5.46014">
        <ele>1302.6</ele>
        <time>2021-10-09T10:07:01Z</time>
      </trkpt>
      <trkpt lat="44.96607" lon="5.46012">
        <ele>1302.6</ele>
        <time>2021-10-09T10:07:02Z</time>
      </trkpt>
      <trkpt lat="44.96609" lon="5.46009">
        <ele>1302.6</ele>
        <time>2021-10-09T10:07:03Z</time>
      </trkpt>
      <trkpt lat="44.96612" lon="5.46007">
        <ele>1302.6</ele>
        <time>2021-10-09T10:07:04Z</time>
      </trkpt>
      <trkpt lat="44.96614" lon="5.46004">
        <ele>1302.6</ele>
        <time>2021-10-09T10:07:05Z</time>
      </trkpt>
      <trkpt lat="44.96616" lon="5.46001">
        <ele>1302.6</ele>
        <time>2021-10-09T10:07:06Z</time>
      </trkpt>
      <trkpt lat="44.96618" lon="5.45999">
        <ele>1302.6</ele>
        <time>2021-10-09T10:07:07Z</time>
      </trkpt>
      <trkpt lat="44.9662" lon="5.45996">
        <ele>1303</ele>
        <time>2021-10-09T10:07:08Z</time>
      </trkpt>
      <trkpt lat="44.96622" lon="5.45992">
        <ele>1303</ele>
        <time>2021-10-09T10:07:09Z</time>
      </trkpt>
      <trkpt lat="44.96624" lon="5.45988">
        <ele>1303</ele>
        <time>2021-10-09T10:07:10Z</time>
      </trkpt>
      <trkpt lat="44.96625" lon="5.45984">
        <ele>1303</ele>
        <time>2021-10-09T10:07:11Z</time>
      </trkpt>
      <trkpt lat="44.96627" lon="5.45981">
        <ele>1303</ele>
        <time>2021-10-09T10:07:12Z</time>
      </trkpt>
      <trkpt lat="44.96628" lon="5.45977">
        <ele>1303</ele>
        <time>2021-10-09T10:07:13Z</time>
      </trkpt>
      <trkpt lat="44.96629" lon="5.45973">
        <ele>1303</ele>
        <time>2021-10-09T10:07:14Z</time>
      </trkpt>
      <trkpt lat="44.96629" lon="5.45968">
        <ele>1303</ele>
        <time>2021-10-09T10:07:15Z</time>
      </trkpt>
      <trkpt lat="44.9663" lon="5.45964">
        <ele>1302.8</ele>
        <time>2021-10-09T10:07:16Z</time>
      </trkpt>
      <trkpt lat="44.9663" lon="5.45959">
        <ele>1302.8</ele>
        <time>2021-10-09T10:07:17Z</time>
      </trkpt>
      <trkpt lat="44.9663" lon="5.45955">
        <ele>1302.8</ele>
        <time>2021-10-09T10:07:18Z</time>
      </trkpt>
      <trkpt lat="44.96631" lon="5.4595">
        <ele>1302.8</ele>
        <time>2021-10-09T10:07:19Z</time>
      </trkpt>
      <trkpt lat="44.96631" lon="5.45945">
        <ele>1302.4</ele>
        <time>2021-10-09T10:07:20Z</time>
      </trkpt>
      <trkpt lat="44.96632" lon="5.45939">
        <ele>1302.4</ele>
        <time>2021-10-09T10:07:21Z</time>
      </trkpt>
      <trkpt lat="44.96632" lon="5.45934">
        <ele>1302.4</ele>
        <time>2021-10-09T10:07:22Z</time>
      </trkpt>
      <trkpt lat="44.96633" lon="5.45928">
        <ele>1302.6</ele>
        <time>2021-10-09T10:07:23Z</time>
      </trkpt>
      <trkpt lat="44.96633" lon="5.45923">
        <ele>1302.6</ele>
        <time>2021-10-09T10:07:24Z</time>
      </trkpt>
      <trkpt lat="44.96634" lon="5.45917">
        <ele>1302.6</ele>
        <time>2021-10-09T10:07:25Z</time>
      </trkpt>
      <trkpt lat="44.96634" lon="5.45912">
        <ele>1302.6</ele>
        <time>2021-10-09T10:07:26Z</time>
      </trkpt>
      <trkpt lat="44.96635" lon="5.45906">
        <ele>1302.6</ele>
        <time>2021-10-09T10:07:27Z</time>
      </trkpt>
      <trkpt lat="44.96635" lon="5.459">
        <ele>1302.8</ele>
        <time>2021-10-09T10:07:28Z</time>
      </trkpt>
      <trkpt lat="44.96636" lon="5.45895">
        <ele>1302.8</ele>
        <time>2021-10-09T10:07:29Z</time>
      </trkpt>
      <trkpt lat="44.96637" lon="5.4589">
        <ele>1302.8</ele>
        <time>2021-10-09T10:07:30Z</time>
      </trkpt>
      <trkpt lat="44.96637" lon="5.45885">
        <ele>1302.8</ele>
        <time>2021-10-09T10:07:31Z</time>
      </trkpt>
      <trkpt lat="44.96637" lon="5.4588">
        <ele>1302.4</ele>
        <time>2021-10-09T10:07:32Z</time>
      </trkpt>
      <trkpt lat="44.96638" lon="5.45874">
        <ele>1302.4</ele>
        <time>2021-10-09T10:07:33Z</time>
      </trkpt>
      <trkpt lat="44.96639" lon="5.45868">
        <ele>1302.4</ele>
        <time>2021-10-09T10:07:34Z</time>
      </trkpt>
      <trkpt lat="44.96639" lon="5.45862">
        <ele>1302.8</ele>
        <time>2021-10-09T10:07:35Z</time>
      </trkpt>
      <trkpt lat="44.96641" lon="5.45856">
        <ele>1302.8</ele>
        <time>2021-10-09T10:07:36Z</time>
      </trkpt>
      <trkpt lat="44.96642" lon="5.4585">
        <ele>1302.8</ele>
        <time>2021-10-09T10:07:37Z</time>
      </trkpt>
      <trkpt lat="44.96643" lon="5.45845">
        <ele>1302.8</ele>
        <time>2021-10-09T10:07:38Z</time>
      </trkpt>
      <trkpt lat="44.96645" lon="5.45841">
        <ele>1303</ele>
        <time>2021-10-09T10:07:39Z</time>
      </trkpt>
      <trkpt lat="44.96647" lon="5.45836">
        <ele>1302.6</ele>
        <time>2021-10-09T10:07:40Z</time>
      </trkpt>
      <trkpt lat="44.9665" lon="5.45831">
        <ele>1302.6</ele>
        <time>2021-10-09T10:07:41Z</time>
      </trkpt>
      <trkpt lat="44.96652" lon="5.45826">
        <ele>1302.6</ele>
        <time>2021-10-09T10:07:42Z</time>
      </trkpt>
      <trkpt lat="44.96654" lon="5.4582">
        <ele>1302.6</ele>
        <time>2021-10-09T10:07:43Z</time>
      </trkpt>
      <trkpt lat="44.96656" lon="5.45815">
        <ele>1302</ele>
        <time>2021-10-09T10:07:44Z</time>
      </trkpt>
      <trkpt lat="44.96656" lon="5.45806">
        <ele>1302</ele>
        <time>2021-10-09T10:07:45Z</time>
      </trkpt>
      <trkpt lat="44.96657" lon="5.458">
        <ele>1302</ele>
        <time>2021-10-09T10:07:46Z</time>
      </trkpt>
      <trkpt lat="44.96658" lon="5.45794">
        <ele>1302</ele>
        <time>2021-10-09T10:07:47Z</time>
      </trkpt>
      <trkpt lat="44.96659" lon="5.45788">
        <ele>1302.4</ele>
        <time>2021-10-09T10:07:48Z</time>
      </trkpt>
      <trkpt lat="44.9666" lon="5.45782">
        <ele>1302.4</ele>
        <time>2021-10-09T10:07:49Z</time>
      </trkpt>
      <trkpt lat="44.96661" lon="5.45776">
        <ele>1302.4</ele>
        <time>2021-10-09T10:07:50Z</time>
      </trkpt>
      <trkpt lat="44.96663" lon="5.45771">
        <ele>1302.4</ele>
        <time>2021-10-09T10:07:51Z</time>
      </trkpt>
      <trkpt lat="44.96665" lon="5.45766">
        <ele>1302.4</ele>
        <time>2021-10-09T10:07:52Z</time>
      </trkpt>
      <trkpt lat="44.96669" lon="5.45763">
        <ele>1302.4</ele>
        <time>2021-10-09T10:07:53Z</time>
      </trkpt>
      <trkpt lat="44.96671" lon="5.45758">
        <ele>1302.4</ele>
        <time>2021-10-09T10:07:54Z</time>
      </trkpt>
      <trkpt lat="44.96672" lon="5.45754">
        <ele>1302.4</ele>
        <time>2021-10-09T10:07:55Z</time>
      </trkpt>
      <trkpt lat="44.96675" lon="5.45749">
        <ele>1303</ele>
        <time>2021-10-09T10:07:56Z</time>
      </trkpt>
      <trkpt lat="44.96677" lon="5.45744">
        <ele>1303</ele>
        <time>2021-10-09T10:07:57Z</time>
      </trkpt>
      <trkpt lat="44.9668" lon="5.4574">
        <ele>1303</ele>
        <time>2021-10-09T10:07:58Z</time>
      </trkpt>
      <trkpt lat="44.96682" lon="5.45736">
        <ele>1303</ele>
        <time>2021-10-09T10:07:59Z</time>
      </trkpt>
      <trkpt lat="44.96684" lon="5.45732">
        <ele>1303.4</ele>
        <time>2021-10-09T10:08:00Z</time>
      </trkpt>
      <trkpt lat="44.96686" lon="5.45728">
        <ele>1303.4</ele>
        <time>2021-10-09T10:08:01Z</time>
      </trkpt>
      <trkpt lat="44.96689" lon="5.45724">
        <ele>1303.4</ele>
        <time>2021-10-09T10:08:02Z</time>
      </trkpt>
      <trkpt lat="44.96692" lon="5.4572">
        <ele>1303.6</ele>
        <time>2021-10-09T10:08:03Z</time>
      </trkpt>
      <trkpt lat="44.96694" lon="5.45716">
        <ele>1303.6</ele>
        <time>2021-10-09T10:08:04Z</time>
      </trkpt>
      <trkpt lat="44.96697" lon="5.45712">
        <ele>1303.6</ele>
        <time>2021-10-09T10:08:05Z</time>
      </trkpt>
      <trkpt lat="44.967" lon="5.45707">
        <ele>1303.6</ele>
        <time>2021-10-09T10:08:06Z</time>
      </trkpt>
      <trkpt lat="44.96702" lon="5.45703">
        <ele>1304</ele>
        <time>2021-10-09T10:08:07Z</time>
      </trkpt>
      <trkpt lat="44.96704" lon="5.45699">
        <ele>1304</ele>
        <time>2021-10-09T10:08:08Z</time>
      </trkpt>
      <trkpt lat="44.96707" lon="5.45694">
        <ele>1304</ele>
        <time>2021-10-09T10:08:09Z</time>
      </trkpt>
      <trkpt lat="44.96708" lon="5.45689">
        <ele>1304</ele>
        <time>2021-10-09T10:08:10Z</time>
      </trkpt>
      <trkpt lat="44.9671" lon="5.45685">
        <ele>1304</ele>
        <time>2021-10-09T10:08:11Z</time>
      </trkpt>
      <trkpt lat="44.96711" lon="5.45681">
        <ele>1303.6</ele>
        <time>2021-10-09T10:08:12Z</time>
      </trkpt>
      <trkpt lat="44.96712" lon="5.45677">
        <ele>1303.6</ele>
        <time>2021-10-09T10:08:13Z</time>
      </trkpt>
      <trkpt lat="44.96714" lon="5.45673">
        <ele>1303.6</ele>
        <time>2021-10-09T10:08:14Z</time>
      </trkpt>
      <trkpt lat="44.96716" lon="5.45669">
        <ele>1302.6</ele>
        <time>2021-10-09T10:08:15Z</time>
      </trkpt>
      <trkpt lat="44.96719" lon="5.45666">
        <ele>1302</ele>
        <time>2021-10-09T10:08:16Z</time>
      </trkpt>
      <trkpt lat="44.96722" lon="5.45661">
        <ele>1302</ele>
        <time>2021-10-09T10:08:17Z</time>
      </trkpt>
      <trkpt lat="44.96727" lon="5.4566">
        <ele>1302</ele>
        <time>2021-10-09T10:08:18Z</time>
      </trkpt>
      <trkpt lat="44.96731" lon="5.4566">
        <ele>1302.6</ele>
        <time>2021-10-09T10:08:19Z</time>
      </trkpt>
      <trkpt lat="44.96734" lon="5.45662">
        <ele>1303</ele>
        <time>2021-10-09T10:08:20Z</time>
      </trkpt>
      <trkpt lat="44.96737" lon="5.45665">
        <ele>1303</ele>
        <time>2021-10-09T10:08:21Z</time>
      </trkpt>
      <trkpt lat="44.9674" lon="5.45667">
        <ele>1303</ele>
        <time>2021-10-09T10:08:22Z</time>
      </trkpt>
      <trkpt lat="44.96743" lon="5.45669">
        <ele>1303</ele>
        <time>2021-10-09T10:08:23Z</time>
      </trkpt>
      <trkpt lat="44.96747" lon="5.45671">
        <ele>1303</ele>
        <time>2021-10-09T10:08:24Z</time>
      </trkpt>
      <trkpt lat="44.96751" lon="5.45674">
        <ele>1303</ele>
        <time>2021-10-09T10:08:25Z</time>
      </trkpt>
      <trkpt lat="44.96755" lon="5.45677">
        <ele>1303</ele>
        <time>2021-10-09T10:08:26Z</time>
      </trkpt>
      <trkpt lat="44.96758" lon="5.45679">
        <ele>1303</ele>
        <time>2021-10-09T10:08:27Z</time>
      </trkpt>
      <trkpt lat="44.96762" lon="5.45681">
        <ele>1303.4</ele>
        <time>2021-10-09T10:08:28Z</time>
      </trkpt>
      <trkpt lat="44.96765" lon="5.45683">
        <ele>1303.4</ele>
        <time>2021-10-09T10:08:29Z</time>
      </trkpt>
      <trkpt lat="44.96767" lon="5.45685">
        <ele>1303.4</ele>
        <time>2021-10-09T10:08:30Z</time>
      </trkpt>
      <trkpt lat="44.9677" lon="5.45687">
        <ele>1303.4</ele>
        <time>2021-10-09T10:08:31Z</time>
      </trkpt>
      <trkpt lat="44.96774" lon="5.45689">
        <ele>1303.4</ele>
        <time>2021-10-09T10:08:32Z</time>
      </trkpt>
      <trkpt lat="44.96777" lon="5.45691">
        <ele>1303.4</ele>
        <time>2021-10-09T10:08:33Z</time>
      </trkpt>
      <trkpt lat="44.9678" lon="5.45693">
        <ele>1303.4</ele>
        <time>2021-10-09T10:08:34Z</time>
      </trkpt>
      <trkpt lat="44.96783" lon="5.45696">
        <ele>1303.4</ele>
        <time>2021-10-09T10:08:35Z</time>
      </trkpt>
      <trkpt lat="44.96787" lon="5.45698">
        <ele>1303</ele>
        <time>2021-10-09T10:08:36Z</time>
      </trkpt>
      <trkpt lat="44.96789" lon="5.45702">
        <ele>1303</ele>
        <time>2021-10-09T10:08:37Z</time>
      </trkpt>
      <trkpt lat="44.96791" lon="5.45705">
        <ele>1303</ele>
        <time>2021-10-09T10:08:38Z</time>
      </trkpt>
      <trkpt lat="44.96794" lon="5.45709">
        <ele>1303.4</ele>
        <time>2021-10-09T10:08:39Z</time>
      </trkpt>
      <trkpt lat="44.96797" lon="5.45711">
        <ele>1303.8</ele>
        <time>2021-10-09T10:08:40Z</time>
      </trkpt>
      <trkpt lat="44.96799" lon="5.45715">
        <ele>1303.8</ele>
        <time>2021-10-09T10:08:41Z</time>
      </trkpt>
      <trkpt lat="44.96801" lon="5.45718">
        <ele>1303.8</ele>
        <time>2021-10-09T10:08:42Z</time>
      </trkpt>
      <trkpt lat="44.96803" lon="5.45721">
        <ele>1303.8</ele>
        <time>2021-10-09T10:08:43Z</time>
      </trkpt>
      <trkpt lat="44.96805" lon="5.45725">
        <ele>1304.6</ele>
        <time>2021-10-09T10:08:44Z</time>
      </trkpt>
      <trkpt lat="44.96806" lon="5.45728">
        <ele>1304.6</ele>
        <time>2021-10-09T10:08:45Z</time>
      </trkpt>
      <trkpt lat="44.96808" lon="5.45731">
        <ele>1304.6</ele>
        <time>2021-10-09T10:08:46Z</time>
      </trkpt>
      <trkpt lat="44.9681" lon="5.45734">
        <ele>1304.8</ele>
        <time>2021-10-09T10:08:47Z</time>
      </trkpt>
      <trkpt lat="44.96812" lon="5.45736">
        <ele>1305.6</ele>
        <time>2021-10-09T10:08:48Z</time>
      </trkpt>
      <trkpt lat="44.96814" lon="5.45739">
        <ele>1305.6</ele>
        <time>2021-10-09T10:08:49Z</time>
      </trkpt>
      <trkpt lat="44.96817" lon="5.45741">
        <ele>1305.6</ele>
        <time>2021-10-09T10:08:50Z</time>
      </trkpt>
      <trkpt lat="44.96819" lon="5.45743">
        <ele>1305.6</ele>
        <time>2021-10-09T10:08:51Z</time>
      </trkpt>
      <trkpt lat="44.96821" lon="5.45746">
        <ele>1305.2</ele>
        <time>2021-10-09T10:08:52Z</time>
      </trkpt>
      <trkpt lat="44.96822" lon="5.45747">
        <ele>1305.2</ele>
        <time>2021-10-09T10:08:53Z</time>
      </trkpt>
      <trkpt lat="44.96825" lon="5.4575">
        <ele>1305.2</ele>
        <time>2021-10-09T10:08:54Z</time>
      </trkpt>
      <trkpt lat="44.96828" lon="5.45752">
        <ele>1305.4</ele>
        <time>2021-10-09T10:08:55Z</time>
      </trkpt>
      <trkpt lat="44.9683" lon="5.45754">
        <ele>1306</ele>
        <time>2021-10-09T10:08:56Z</time>
      </trkpt>
      <trkpt lat="44.96832" lon="5.45757">
        <ele>1306</ele>
        <time>2021-10-09T10:08:57Z</time>
      </trkpt>
      <trkpt lat="44.96834" lon="5.45759">
        <ele>1306</ele>
        <time>2021-10-09T10:08:58Z</time>
      </trkpt>
      <trkpt lat="44.96835" lon="5.45761">
        <ele>1306.4</ele>
        <time>2021-10-09T10:08:59Z</time>
      </trkpt>
      <trkpt lat="44.96837" lon="5.45763">
        <ele>1306.2</ele>
        <time>2021-10-09T10:09:00Z</time>
      </trkpt>
      <trkpt lat="44.96839" lon="5.45766">
        <ele>1306.2</ele>
        <time>2021-10-09T10:09:01Z</time>
      </trkpt>
      <trkpt lat="44.9684" lon="5.45769">
        <ele>1306.2</ele>
        <time>2021-10-09T10:09:02Z</time>
      </trkpt>
      <trkpt lat="44.96841" lon="5.45772">
        <ele>1306.2</ele>
        <time>2021-10-09T10:09:03Z</time>
      </trkpt>
      <trkpt lat="44.96843" lon="5.45775">
        <ele>1306.6</ele>
        <time>2021-10-09T10:09:04Z</time>
      </trkpt>
      <trkpt lat="44.96844" lon="5.45778">
        <ele>1306.6</ele>
        <time>2021-10-09T10:09:05Z</time>
      </trkpt>
      <trkpt lat="44.96845" lon="5.45782">
        <ele>1306.6</ele>
        <time>2021-10-09T10:09:06Z</time>
      </trkpt>
      <trkpt lat="44.96846" lon="5.45785">
        <ele>1307.6</ele>
        <time>2021-10-09T10:09:07Z</time>
      </trkpt>
      <trkpt lat="44.96847" lon="5.45788">
        <ele>1308.4</ele>
        <time>2021-10-09T10:09:08Z</time>
      </trkpt>
      <trkpt lat="44.96849" lon="5.45791">
        <ele>1308.4</ele>
        <time>2021-10-09T10:09:09Z</time>
      </trkpt>
      <trkpt lat="44.9685" lon="5.45795">
        <ele>1308.4</ele>
        <time>2021-10-09T10:09:10Z</time>
      </trkpt>
      <trkpt lat="44.96851" lon="5.45798">
        <ele>1308.4</ele>
        <time>2021-10-09T10:09:11Z</time>
      </trkpt>
      <trkpt lat="44.96852" lon="5.45801">
        <ele>1308.4</ele>
        <time>2021-10-09T10:09:12Z</time>
      </trkpt>
      <trkpt lat="44.96853" lon="5.45805">
        <ele>1308.4</ele>
        <time>2021-10-09T10:09:13Z</time>
      </trkpt>
      <trkpt lat="44.96855" lon="5.45808">
        <ele>1308.4</ele>
        <time>2021-10-09T10:09:14Z</time>
      </trkpt>
      <trkpt lat="44.96856" lon="5.45811">
        <ele>1308.4</ele>
        <time>2021-10-09T10:09:15Z</time>
      </trkpt>
      <trkpt lat="44.96856" lon="5.45816">
        <ele>1309.6</ele>
        <time>2021-10-09T10:09:16Z</time>
      </trkpt>
      <trkpt lat="44.96857" lon="5.45819">
        <ele>1309.6</ele>
        <time>2021-10-09T10:09:17Z</time>
      </trkpt>
      <trkpt lat="44.96858" lon="5.45822">
        <ele>1309.6</ele>
        <time>2021-10-09T10:09:18Z</time>
      </trkpt>
      <trkpt lat="44.96859" lon="5.45825">
        <ele>1309.6</ele>
        <time>2021-10-09T10:09:19Z</time>
      </trkpt>
      <trkpt lat="44.9686" lon="5.45829">
        <ele>1310.2</ele>
        <time>2021-10-09T10:09:20Z</time>
      </trkpt>
      <trkpt lat="44.96861" lon="5.45832">
        <ele>1310.2</ele>
        <time>2021-10-09T10:09:21Z</time>
      </trkpt>
      <trkpt lat="44.96862" lon="5.45835">
        <ele>1310.2</ele>
        <time>2021-10-09T10:09:22Z</time>
      </trkpt>
      <trkpt lat="44.96864" lon="5.45838">
        <ele>1310.2</ele>
        <time>2021-10-09T10:09:23Z</time>
      </trkpt>
      <trkpt lat="44.96864" lon="5.45842">
        <ele>1310.4</ele>
        <time>2021-10-09T10:09:24Z</time>
      </trkpt>
      <trkpt lat="44.96865" lon="5.45844">
        <ele>1310.4</ele>
        <time>2021-10-09T10:09:25Z</time>
      </trkpt>
      <trkpt lat="44.96866" lon="5.45847">
        <ele>1310.4</ele>
        <time>2021-10-09T10:09:26Z</time>
      </trkpt>
      <trkpt lat="44.96867" lon="5.45849">
        <ele>1311</ele>
        <time>2021-10-09T10:09:27Z</time>
      </trkpt>
      <trkpt lat="44.96869" lon="5.45851">
        <ele>1310.6</ele>
        <time>2021-10-09T10:09:28Z</time>
      </trkpt>
      <trkpt lat="44.96872" lon="5.45853">
        <ele>1310.6</ele>
        <time>2021-10-09T10:09:29Z</time>
      </trkpt>
      <trkpt lat="44.96874" lon="5.45855">
        <ele>1310.6</ele>
        <time>2021-10-09T10:09:30Z</time>
      </trkpt>
      <trkpt lat="44.96876" lon="5.45858">
        <ele>1310.6</ele>
        <time>2021-10-09T10:09:31Z</time>
      </trkpt>
      <trkpt lat="44.96878" lon="5.4586">
        <ele>1310.8</ele>
        <time>2021-10-09T10:09:32Z</time>
      </trkpt>
      <trkpt lat="44.96881" lon="5.45863">
        <ele>1310.8</ele>
        <time>2021-10-09T10:09:33Z</time>
      </trkpt>
      <trkpt lat="44.96884" lon="5.45865">
        <ele>1310.8</ele>
        <time>2021-10-09T10:09:34Z</time>
      </trkpt>
      <trkpt lat="44.96886" lon="5.45867">
        <ele>1311.4</ele>
        <time>2021-10-09T10:09:35Z</time>
      </trkpt>
      <trkpt lat="44.96888" lon="5.45869">
        <ele>1311.6</ele>
        <time>2021-10-09T10:09:36Z</time>
      </trkpt>
      <trkpt lat="44.96891" lon="5.45871">
        <ele>1311.6</ele>
        <time>2021-10-09T10:09:37Z</time>
      </trkpt>
      <trkpt lat="44.96893" lon="5.45872">
        <ele>1311.6</ele>
        <time>2021-10-09T10:09:38Z</time>
      </trkpt>
      <trkpt lat="44.96896" lon="5.45874">
        <ele>1311.6</ele>
        <time>2021-10-09T10:09:39Z</time>
      </trkpt>
      <trkpt lat="44.96898" lon="5.45876">
        <ele>1312.6</ele>
        <time>2021-10-09T10:09:40Z</time>
      </trkpt>
      <trkpt lat="44.969" lon="5.45877">
        <ele>1312.6</ele>
        <time>2021-10-09T10:09:41Z</time>
      </trkpt>
      <trkpt lat="44.96903" lon="5.45879">
        <ele>1312.6</ele>
        <time>2021-10-09T10:09:42Z</time>
      </trkpt>
      <trkpt lat="44.96905" lon="5.45881">
        <ele>1312.4</ele>
        <time>2021-10-09T10:09:43Z</time>
      </trkpt>
      <trkpt lat="44.96907" lon="5.45883">
        <ele>1312.4</ele>
        <time>2021-10-09T10:09:44Z</time>
      </trkpt>
      <trkpt lat="44.96909" lon="5.45885">
        <ele>1312.4</ele>
        <time>2021-10-09T10:09:45Z</time>
      </trkpt>
      <trkpt lat="44.96912" lon="5.45887">
        <ele>1312.4</ele>
        <time>2021-10-09T10:09:46Z</time>
      </trkpt>
      <trkpt lat="44.96913" lon="5.45889">
        <ele>1312.8</ele>
        <time>2021-10-09T10:09:47Z</time>
      </trkpt>
      <trkpt lat="44.96916" lon="5.45892">
        <ele>1313.2</ele>
        <time>2021-10-09T10:09:48Z</time>
      </trkpt>
      <trkpt lat="44.96919" lon="5.45894">
        <ele>1313.2</ele>
        <time>2021-10-09T10:09:49Z</time>
      </trkpt>
      <trkpt lat="44.9692" lon="5.45898">
        <ele>1313.2</ele>
        <time>2021-10-09T10:09:50Z</time>
      </trkpt>
      <trkpt lat="44.96921" lon="5.459">
        <ele>1313.2</ele>
        <time>2021-10-09T10:09:51Z</time>
      </trkpt>
      <trkpt lat="44.96924" lon="5.45902">
        <ele>1313.6</ele>
        <time>2021-10-09T10:09:52Z</time>
      </trkpt>
      <trkpt lat="44.96926" lon="5.45905">
        <ele>1313.6</ele>
        <time>2021-10-09T10:09:53Z</time>
      </trkpt>
      <trkpt lat="44.96928" lon="5.45907">
        <ele>1313.6</ele>
        <time>2021-10-09T10:09:54Z</time>
      </trkpt>
      <trkpt lat="44.9693" lon="5.4591">
        <ele>1313.6</ele>
        <time>2021-10-09T10:09:55Z</time>
      </trkpt>
      <trkpt lat="44.96931" lon="5.45913">
        <ele>1314.2</ele>
        <time>2021-10-09T10:09:56Z</time>
      </trkpt>
      <trkpt lat="44.96934" lon="5.45914">
        <ele>1314.2</ele>
        <time>2021-10-09T10:09:57Z</time>
      </trkpt>
      <trkpt lat="44.96936" lon="5.45915">
        <ele>1314.2</ele>
        <time>2021-10-09T10:09:58Z</time>
      </trkpt>
      <trkpt lat="44.96938" lon="5.45916">
        <ele>1314.6</ele>
        <time>2021-10-09T10:09:59Z</time>
      </trkpt>
      <trkpt lat="44.96941" lon="5.45918">
        <ele>1314.4</ele>
        <time>2021-10-09T10:10:00Z</time>
      </trkpt>
      <trkpt lat="44.96944" lon="5.45919">
        <ele>1314.4</ele>
        <time>2021-10-09T10:10:01Z</time>
      </trkpt>
      <trkpt lat="44.96947" lon="5.45919">
        <ele>1314.4</ele>
        <time>2021-10-09T10:10:02Z</time>
      </trkpt>
      <trkpt lat="44.9695" lon="5.4592">
        <ele>1315</ele>
        <time>2021-10-09T10:10:03Z</time>
      </trkpt>
      <trkpt lat="44.96953" lon="5.45921">
        <ele>1315</ele>
        <time>2021-10-09T10:10:04Z</time>
      </trkpt>
      <trkpt lat="44.96955" lon="5.45922">
        <ele>1315</ele>
        <time>2021-10-09T10:10:05Z</time>
      </trkpt>
      <trkpt lat="44.96958" lon="5.45922">
        <ele>1315</ele>
        <time>2021-10-09T10:10:06Z</time>
      </trkpt>
      <trkpt lat="44.9696" lon="5.45922">
        <ele>1315</ele>
        <time>2021-10-09T10:10:07Z</time>
      </trkpt>
      <trkpt lat="44.96962" lon="5.45923">
        <ele>1315.4</ele>
        <time>2021-10-09T10:10:08Z</time>
      </trkpt>
      <trkpt lat="44.96965" lon="5.45925">
        <ele>1315.4</ele>
        <time>2021-10-09T10:10:09Z</time>
      </trkpt>
      <trkpt lat="44.96968" lon="5.45926">
        <ele>1315.4</ele>
        <time>2021-10-09T10:10:10Z</time>
      </trkpt>
      <trkpt lat="44.9697" lon="5.45926">
        <ele>1315</ele>
        <time>2021-10-09T10:10:11Z</time>
      </trkpt>
      <trkpt lat="44.96973" lon="5.45927">
        <ele>1315.6</ele>
        <time>2021-10-09T10:10:12Z</time>
      </trkpt>
      <trkpt lat="44.96975" lon="5.45928">
        <ele>1315.6</ele>
        <time>2021-10-09T10:10:13Z</time>
      </trkpt>
      <trkpt lat="44.96977" lon="5.45928">
        <ele>1315.6</ele>
        <time>2021-10-09T10:10:14Z</time>
      </trkpt>
      <trkpt lat="44.96979" lon="5.4593">
        <ele>1315.6</ele>
        <time>2021-10-09T10:10:15Z</time>
      </trkpt>
      <trkpt lat="44.96981" lon="5.45931">
        <ele>1316</ele>
        <time>2021-10-09T10:10:16Z</time>
      </trkpt>
      <trkpt lat="44.96984" lon="5.45932">
        <ele>1316</ele>
        <time>2021-10-09T10:10:17Z</time>
      </trkpt>
      <trkpt lat="44.96986" lon="5.45934">
        <ele>1316</ele>
        <time>2021-10-09T10:10:18Z</time>
      </trkpt>
      <trkpt lat="44.96989" lon="5.45936">
        <ele>1316</ele>
        <time>2021-10-09T10:10:19Z</time>
      </trkpt>
      <trkpt lat="44.96992" lon="5.45938">
        <ele>1315.8</ele>
        <time>2021-10-09T10:10:20Z</time>
      </trkpt>
      <trkpt lat="44.96994" lon="5.45942">
        <ele>1315.8</ele>
        <time>2021-10-09T10:10:21Z</time>
      </trkpt>
      <trkpt lat="44.96997" lon="5.45946">
        <ele>1315.8</ele>
        <time>2021-10-09T10:10:22Z</time>
      </trkpt>
      <trkpt lat="44.96999" lon="5.4595">
        <ele>1316.4</ele>
        <time>2021-10-09T10:10:23Z</time>
      </trkpt>
      <trkpt lat="44.97001" lon="5.45954">
        <ele>1316.4</ele>
        <time>2021-10-09T10:10:24Z</time>
      </trkpt>
      <trkpt lat="44.97004" lon="5.45957">
        <ele>1316.4</ele>
        <time>2021-10-09T10:10:25Z</time>
      </trkpt>
      <trkpt lat="44.97006" lon="5.45961">
        <ele>1316.4</ele>
        <time>2021-10-09T10:10:26Z</time>
      </trkpt>
      <trkpt lat="44.97008" lon="5.45963">
        <ele>1317.2</ele>
        <time>2021-10-09T10:10:27Z</time>
      </trkpt>
      <trkpt lat="44.9701" lon="5.45966">
        <ele>1316.2</ele>
        <time>2021-10-09T10:10:28Z</time>
      </trkpt>
      <trkpt lat="44.97013" lon="5.45968">
        <ele>1316.2</ele>
        <time>2021-10-09T10:10:29Z</time>
      </trkpt>
      <trkpt lat="44.97015" lon="5.4597">
        <ele>1316.2</ele>
        <time>2021-10-09T10:10:30Z</time>
      </trkpt>
      <trkpt lat="44.97017" lon="5.45972">
        <ele>1316.6</ele>
        <time>2021-10-09T10:10:31Z</time>
      </trkpt>
      <trkpt lat="44.9702" lon="5.45973">
        <ele>1316.8</ele>
        <time>2021-10-09T10:10:32Z</time>
      </trkpt>
      <trkpt lat="44.97023" lon="5.45976">
        <ele>1316.8</ele>
        <time>2021-10-09T10:10:33Z</time>
      </trkpt>
      <trkpt lat="44.97025" lon="5.45979">
        <ele>1316.8</ele>
        <time>2021-10-09T10:10:34Z</time>
      </trkpt>
      <trkpt lat="44.97028" lon="5.45982">
        <ele>1316.8</ele>
        <time>2021-10-09T10:10:35Z</time>
      </trkpt>
      <trkpt lat="44.97029" lon="5.45984">
        <ele>1317.4</ele>
        <time>2021-10-09T10:10:36Z</time>
      </trkpt>
      <trkpt lat="44.97032" lon="5.45986">
        <ele>1317.4</ele>
        <time>2021-10-09T10:10:37Z</time>
      </trkpt>
      <trkpt lat="44.97033" lon="5.45988">
        <ele>1317.4</ele>
        <time>2021-10-09T10:10:38Z</time>
      </trkpt>
      <trkpt lat="44.97036" lon="5.45991">
        <ele>1318</ele>
        <time>2021-10-09T10:10:39Z</time>
      </trkpt>
      <trkpt lat="44.97038" lon="5.45994">
        <ele>1317.6</ele>
        <time>2021-10-09T10:10:40Z</time>
      </trkpt>
      <trkpt lat="44.9704" lon="5.45997">
        <ele>1317.6</ele>
        <time>2021-10-09T10:10:41Z</time>
      </trkpt>
      <trkpt lat="44.97042" lon="5.46">
        <ele>1317.6</ele>
        <time>2021-10-09T10:10:42Z</time>
      </trkpt>
      <trkpt lat="44.97045" lon="5.46002">
        <ele>1317.6</ele>
        <time>2021-10-09T10:10:43Z</time>
      </trkpt>
      <trkpt lat="44.97047" lon="5.46005">
        <ele>1318.2</ele>
        <time>2021-10-09T10:10:44Z</time>
      </trkpt>
      <trkpt lat="44.9705" lon="5.46007">
        <ele>1318.2</ele>
        <time>2021-10-09T10:10:45Z</time>
      </trkpt>
      <trkpt lat="44.97051" lon="5.46009">
        <ele>1318.2</ele>
        <time>2021-10-09T10:10:46Z</time>
      </trkpt>
      <trkpt lat="44.97053" lon="5.4601">
        <ele>1318.2</ele>
        <time>2021-10-09T10:10:47Z</time>
      </trkpt>
      <trkpt lat="44.97055" lon="5.46012">
        <ele>1318.4</ele>
        <time>2021-10-09T10:10:48Z</time>
      </trkpt>
      <trkpt lat="44.97057" lon="5.46015">
        <ele>1318.4</ele>
        <time>2021-10-09T10:10:49Z</time>
      </trkpt>
      <trkpt lat="44.97059" lon="5.46018">
        <ele>1318.4</ele>
        <time>2021-10-09T10:10:50Z</time>
      </trkpt>
      <trkpt lat="44.97061" lon="5.46022">
        <ele>1318.4</ele>
        <time>2021-10-09T10:10:51Z</time>
      </trkpt>
      <trkpt lat="44.97063" lon="5.46026">
        <ele>1318.4</ele>
        <time>2021-10-09T10:10:52Z</time>
      </trkpt>
      <trkpt lat="44.97065" lon="5.46029">
        <ele>1318.4</ele>
        <time>2021-10-09T10:10:53Z</time>
      </trkpt>
      <trkpt lat="44.97066" lon="5.46033">
        <ele>1318.4</ele>
        <time>2021-10-09T10:10:54Z</time>
      </trkpt>
      <trkpt lat="44.97067" lon="5.46036">
        <ele>1319</ele>
        <time>2021-10-09T10:10:55Z</time>
      </trkpt>
      <trkpt lat="44.97068" lon="5.4604">
        <ele>1319.2</ele>
        <time>2021-10-09T10:10:56Z</time>
      </trkpt>
      <trkpt lat="44.97068" lon="5.46043">
        <ele>1319.2</ele>
        <time>2021-10-09T10:10:57Z</time>
      </trkpt>
      <trkpt lat="44.97067" lon="5.46046">
        <ele>1319.2</ele>
        <time>2021-10-09T10:10:58Z</time>
      </trkpt>
      <trkpt lat="44.97067" lon="5.46049">
        <ele>1319.4</ele>
        <time>2021-10-09T10:10:59Z</time>
      </trkpt>
      <trkpt lat="44.97067" lon="5.46052">
        <ele>1320</ele>
        <time>2021-10-09T10:11:00Z</time>
      </trkpt>
      <trkpt lat="44.97067" lon="5.46056">
        <ele>1320</ele>
        <time>2021-10-09T10:11:01Z</time>
      </trkpt>
      <trkpt lat="44.97067" lon="5.46058">
        <ele>1320</ele>
        <time>2021-10-09T10:11:02Z</time>
      </trkpt>
      <trkpt lat="44.97067" lon="5.46061">
        <ele>1320.4</ele>
        <time>2021-10-09T10:11:03Z</time>
      </trkpt>
      <trkpt lat="44.97067" lon="5.46064">
        <ele>1320.6</ele>
        <time>2021-10-09T10:11:04Z</time>
      </trkpt>
      <trkpt lat="44.97067" lon="5.46067">
        <ele>1320.6</ele>
        <time>2021-10-09T10:11:05Z</time>
      </trkpt>
      <trkpt lat="44.97067" lon="5.4607">
        <ele>1320.6</ele>
        <time>2021-10-09T10:11:06Z</time>
      </trkpt>
      <trkpt lat="44.97067" lon="5.46072">
        <ele>1321.2</ele>
        <time>2021-10-09T10:11:07Z</time>
      </trkpt>
      <trkpt lat="44.97068" lon="5.46076">
        <ele>1321.4</ele>
        <time>2021-10-09T10:11:08Z</time>
      </trkpt>
      <trkpt lat="44.97069" lon="5.4608">
        <ele>1321.4</ele>
        <time>2021-10-09T10:11:09Z</time>
      </trkpt>
      <trkpt lat="44.9707" lon="5.46084">
        <ele>1321.4</ele>
        <time>2021-10-09T10:11:10Z</time>
      </trkpt>
      <trkpt lat="44.9707" lon="5.46087">
        <ele>1322.2</ele>
        <time>2021-10-09T10:11:11Z</time>
      </trkpt>
      <trkpt lat="44.97071" lon="5.46092">
        <ele>1321.8</ele>
        <time>2021-10-09T10:11:12Z</time>
      </trkpt>
      <trkpt lat="44.97072" lon="5.46095">
        <ele>1321.8</ele>
        <time>2021-10-09T10:11:13Z</time>
      </trkpt>
      <trkpt lat="44.97073" lon="5.46099">
        <ele>1321.8</ele>
        <time>2021-10-09T10:11:14Z</time>
      </trkpt>
      <trkpt lat="44.97075" lon="5.461">
        <ele>1322.2</ele>
        <time>2021-10-09T10:11:15Z</time>
      </trkpt>
      <trkpt lat="44.97075" lon="5.46102">
        <ele>1322.8</ele>
        <time>2021-10-09T10:11:16Z</time>
      </trkpt>
      <trkpt lat="44.97076" lon="5.46105">
        <ele>1322.8</ele>
        <time>2021-10-09T10:11:17Z</time>
      </trkpt>
      <trkpt lat="44.97077" lon="5.46109">
        <ele>1322.8</ele>
        <time>2021-10-09T10:11:18Z</time>
      </trkpt>
      <trkpt lat="44.97079" lon="5.46112">
        <ele>1323.4</ele>
        <time>2021-10-09T10:11:19Z</time>
      </trkpt>
      <trkpt lat="44.9708" lon="5.46114">
        <ele>1323.4</ele>
        <time>2021-10-09T10:11:20Z</time>
      </trkpt>
      <trkpt lat="44.97082" lon="5.46117">
        <ele>1323.4</ele>
        <time>2021-10-09T10:11:21Z</time>
      </trkpt>
      <trkpt lat="44.97083" lon="5.46119">
        <ele>1323.4</ele>
        <time>2021-10-09T10:11:22Z</time>
      </trkpt>
      <trkpt lat="44.97085" lon="5.46122">
        <ele>1323.4</ele>
        <time>2021-10-09T10:11:23Z</time>
      </trkpt>
      <trkpt lat="44.97085" lon="5.46125">
        <ele>1324.2</ele>
        <time>2021-10-09T10:11:24Z</time>
      </trkpt>
      <trkpt lat="44.97087" lon="5.46126">
        <ele>1324.2</ele>
        <time>2021-10-09T10:11:25Z</time>
      </trkpt>
      <trkpt lat="44.97089" lon="5.46129">
        <ele>1324.2</ele>
        <time>2021-10-09T10:11:26Z</time>
      </trkpt>
      <trkpt lat="44.97091" lon="5.46131">
        <ele>1324.2</ele>
        <time>2021-10-09T10:11:27Z</time>
      </trkpt>
      <trkpt lat="44.97094" lon="5.46134">
        <ele>1325</ele>
        <time>2021-10-09T10:11:28Z</time>
      </trkpt>
      <trkpt lat="44.97096" lon="5.46137">
        <ele>1325</ele>
        <time>2021-10-09T10:11:29Z</time>
      </trkpt>
      <trkpt lat="44.97098" lon="5.46139">
        <ele>1325</ele>
        <time>2021-10-09T10:11:30Z</time>
      </trkpt>
      <trkpt lat="44.971" lon="5.46141">
        <ele>1325.6</ele>
        <time>2021-10-09T10:11:31Z</time>
      </trkpt>
      <trkpt lat="44.97101" lon="5.46143">
        <ele>1325.6</ele>
        <time>2021-10-09T10:11:32Z</time>
      </trkpt>
      <trkpt lat="44.97104" lon="5.46146">
        <ele>1325.6</ele>
        <time>2021-10-09T10:11:33Z</time>
      </trkpt>
      <trkpt lat="44.97106" lon="5.46148">
        <ele>1325.6</ele>
        <time>2021-10-09T10:11:34Z</time>
      </trkpt>
      <trkpt lat="44.97108" lon="5.4615">
        <ele>1325.6</ele>
        <time>2021-10-09T10:11:35Z</time>
      </trkpt>
      <trkpt lat="44.97109" lon="5.46153">
        <ele>1325.8</ele>
        <time>2021-10-09T10:11:36Z</time>
      </trkpt>
      <trkpt lat="44.97111" lon="5.46156">
        <ele>1325.8</ele>
        <time>2021-10-09T10:11:37Z</time>
      </trkpt>
      <trkpt lat="44.97112" lon="5.46157">
        <ele>1325.8</ele>
        <time>2021-10-09T10:11:38Z</time>
      </trkpt>
      <trkpt lat="44.97113" lon="5.46159">
        <ele>1326.2</ele>
        <time>2021-10-09T10:11:39Z</time>
      </trkpt>
      <trkpt lat="44.97115" lon="5.46162">
        <ele>1326.6</ele>
        <time>2021-10-09T10:11:40Z</time>
      </trkpt>
      <trkpt lat="44.97116" lon="5.46165">
        <ele>1326.6</ele>
        <time>2021-10-09T10:11:41Z</time>
      </trkpt>
      <trkpt lat="44.97119" lon="5.46168">
        <ele>1326.6</ele>
        <time>2021-10-09T10:11:42Z</time>
      </trkpt>
      <trkpt lat="44.97121" lon="5.46171">
        <ele>1326.6</ele>
        <time>2021-10-09T10:11:43Z</time>
      </trkpt>
      <trkpt lat="44.97122" lon="5.46174">
        <ele>1327.2</ele>
        <time>2021-10-09T10:11:44Z</time>
      </trkpt>
      <trkpt lat="44.97124" lon="5.46177">
        <ele>1327.2</ele>
        <time>2021-10-09T10:11:45Z</time>
      </trkpt>
      <trkpt lat="44.97127" lon="5.46179">
        <ele>1327.2</ele>
        <time>2021-10-09T10:11:46Z</time>
      </trkpt>
      <trkpt lat="44.97128" lon="5.46182">
        <ele>1328</ele>
        <time>2021-10-09T10:11:47Z</time>
      </trkpt>
      <trkpt lat="44.9713" lon="5.46184">
        <ele>1328.2</ele>
        <time>2021-10-09T10:11:48Z</time>
      </trkpt>
      <trkpt lat="44.97131" lon="5.46187">
        <ele>1328.2</ele>
        <time>2021-10-09T10:11:49Z</time>
      </trkpt>
      <trkpt lat="44.97133" lon="5.46189">
        <ele>1328.2</ele>
        <time>2021-10-09T10:11:50Z</time>
      </trkpt>
      <trkpt lat="44.97135" lon="5.46192">
        <ele>1328.2</ele>
        <time>2021-10-09T10:11:51Z</time>
      </trkpt>
      <trkpt lat="44.97137" lon="5.46195">
        <ele>1328</ele>
        <time>2021-10-09T10:11:52Z</time>
      </trkpt>
      <trkpt lat="44.97139" lon="5.46197">
        <ele>1328</ele>
        <time>2021-10-09T10:11:53Z</time>
      </trkpt>
      <trkpt lat="44.97141" lon="5.462">
        <ele>1328</ele>
        <time>2021-10-09T10:11:54Z</time>
      </trkpt>
      <trkpt lat="44.97142" lon="5.46202">
        <ele>1328.2</ele>
        <time>2021-10-09T10:11:55Z</time>
      </trkpt>
      <trkpt lat="44.97144" lon="5.46204">
        <ele>1328</ele>
        <time>2021-10-09T10:11:56Z</time>
      </trkpt>
      <trkpt lat="44.97146" lon="5.46207">
        <ele>1328</ele>
        <time>2021-10-09T10:11:57Z</time>
      </trkpt>
      <trkpt lat="44.97148" lon="5.46209">
        <ele>1328</ele>
        <time>2021-10-09T10:11:58Z</time>
      </trkpt>
      <trkpt lat="44.97151" lon="5.46211">
        <ele>1328.4</ele>
        <time>2021-10-09T10:11:59Z</time>
      </trkpt>
      <trkpt lat="44.97153" lon="5.46213">
        <ele>1328.6</ele>
        <time>2021-10-09T10:12:00Z</time>
      </trkpt>
      <trkpt lat="44.97155" lon="5.46215">
        <ele>1328.6</ele>
        <time>2021-10-09T10:12:01Z</time>
      </trkpt>
      <trkpt lat="44.97158" lon="5.46217">
        <ele>1328.6</ele>
        <time>2021-10-09T10:12:02Z</time>
      </trkpt>
      <trkpt lat="44.97159" lon="5.46218">
        <ele>1328.6</ele>
        <time>2021-10-09T10:12:03Z</time>
      </trkpt>
      <trkpt lat="44.97162" lon="5.4622">
        <ele>1328.8</ele>
        <time>2021-10-09T10:12:04Z</time>
      </trkpt>
      <trkpt lat="44.97164" lon="5.46222">
        <ele>1328.8</ele>
        <time>2021-10-09T10:12:05Z</time>
      </trkpt>
      <trkpt lat="44.97166" lon="5.46223">
        <ele>1328.8</ele>
        <time>2021-10-09T10:12:06Z</time>
      </trkpt>
      <trkpt lat="44.97168" lon="5.46224">
        <ele>1329.2</ele>
        <time>2021-10-09T10:12:07Z</time>
      </trkpt>
      <trkpt lat="44.9717" lon="5.46226">
        <ele>1329.2</ele>
        <time>2021-10-09T10:12:08Z</time>
      </trkpt>
      <trkpt lat="44.97172" lon="5.46228">
        <ele>1329.2</ele>
        <time>2021-10-09T10:12:09Z</time>
      </trkpt>
      <trkpt lat="44.97175" lon="5.46229">
        <ele>1329.2</ele>
        <time>2021-10-09T10:12:10Z</time>
      </trkpt>
      <trkpt lat="44.97178" lon="5.4623">
        <ele>1329.6</ele>
        <time>2021-10-09T10:12:11Z</time>
      </trkpt>
      <trkpt lat="44.97181" lon="5.46231">
        <ele>1329.8</ele>
        <time>2021-10-09T10:12:12Z</time>
      </trkpt>
      <trkpt lat="44.97183" lon="5.46232">
        <ele>1329.8</ele>
        <time>2021-10-09T10:12:13Z</time>
      </trkpt>
      <trkpt lat="44.97185" lon="5.46232">
        <ele>1329.8</ele>
        <time>2021-10-09T10:12:14Z</time>
      </trkpt>
      <trkpt lat="44.97186" lon="5.46232">
        <ele>1329.8</ele>
        <time>2021-10-09T10:12:15Z</time>
      </trkpt>
      <trkpt lat="44.97188" lon="5.46233">
        <ele>1330.6</ele>
        <time>2021-10-09T10:12:16Z</time>
      </trkpt>
      <trkpt lat="44.9719" lon="5.46233">
        <ele>1330.6</ele>
        <time>2021-10-09T10:12:17Z</time>
      </trkpt>
      <trkpt lat="44.97192" lon="5.46234">
        <ele>1330.6</ele>
        <time>2021-10-09T10:12:18Z</time>
      </trkpt>
      <trkpt lat="44.97194" lon="5.46235">
        <ele>1330.6</ele>
        <time>2021-10-09T10:12:19Z</time>
      </trkpt>
      <trkpt lat="44.97197" lon="5.46235">
        <ele>1331</ele>
        <time>2021-10-09T10:12:20Z</time>
      </trkpt>
      <trkpt lat="44.97199" lon="5.46235">
        <ele>1331</ele>
        <time>2021-10-09T10:12:21Z</time>
      </trkpt>
      <trkpt lat="44.97201" lon="5.46235">
        <ele>1331</ele>
        <time>2021-10-09T10:12:22Z</time>
      </trkpt>
      <trkpt lat="44.97204" lon="5.46236">
        <ele>1330.4</ele>
        <time>2021-10-09T10:12:23Z</time>
      </trkpt>
      <trkpt lat="44.97206" lon="5.46236">
        <ele>1330.4</ele>
        <time>2021-10-09T10:12:24Z</time>
      </trkpt>
      <trkpt lat="44.97209" lon="5.46236">
        <ele>1330.4</ele>
        <time>2021-10-09T10:12:25Z</time>
      </trkpt>
      <trkpt lat="44.97211" lon="5.46236">
        <ele>1330.4</ele>
        <time>2021-10-09T10:12:26Z</time>
      </trkpt>
      <trkpt lat="44.97214" lon="5.46236">
        <ele>1330.6</ele>
        <time>2021-10-09T10:12:27Z</time>
      </trkpt>
      <trkpt lat="44.97217" lon="5.46237">
        <ele>1331</ele>
        <time>2021-10-09T10:12:28Z</time>
      </trkpt>
      <trkpt lat="44.97219" lon="5.46237">
        <ele>1331</ele>
        <time>2021-10-09T10:12:29Z</time>
      </trkpt>
      <trkpt lat="44.97222" lon="5.46237">
        <ele>1331</ele>
        <time>2021-10-09T10:12:30Z</time>
      </trkpt>
      <trkpt lat="44.97225" lon="5.46237">
        <ele>1330.2</ele>
        <time>2021-10-09T10:12:31Z</time>
      </trkpt>
      <trkpt lat="44.97227" lon="5.46237">
        <ele>1330.4</ele>
        <time>2021-10-09T10:12:32Z</time>
      </trkpt>
      <trkpt lat="44.9723" lon="5.46236">
        <ele>1330.4</ele>
        <time>2021-10-09T10:12:33Z</time>
      </trkpt>
      <trkpt lat="44.97233" lon="5.46237">
        <ele>1330.4</ele>
        <time>2021-10-09T10:12:34Z</time>
      </trkpt>
      <trkpt lat="44.97236" lon="5.46237">
        <ele>1330.4</ele>
        <time>2021-10-09T10:12:35Z</time>
      </trkpt>
      <trkpt lat="44.97238" lon="5.46237">
        <ele>1330.4</ele>
        <time>2021-10-09T10:12:36Z</time>
      </trkpt>
      <trkpt lat="44.97239" lon="5.46236">
        <ele>1330.4</ele>
        <time>2021-10-09T10:12:37Z</time>
      </trkpt>
      <trkpt lat="44.97242" lon="5.46235">
        <ele>1330.4</ele>
        <time>2021-10-09T10:12:38Z</time>
      </trkpt>
      <trkpt lat="44.97244" lon="5.46235">
        <ele>1330.4</ele>
        <time>2021-10-09T10:12:39Z</time>
      </trkpt>
      <trkpt lat="44.97246" lon="5.46236">
        <ele>1330.6</ele>
        <time>2021-10-09T10:12:40Z</time>
      </trkpt>
      <trkpt lat="44.97249" lon="5.46236">
        <ele>1330.6</ele>
        <time>2021-10-09T10:12:41Z</time>
      </trkpt>
      <trkpt lat="44.97252" lon="5.46237">
        <ele>1330.6</ele>
        <time>2021-10-09T10:12:42Z</time>
      </trkpt>
      <trkpt lat="44.97254" lon="5.46237">
        <ele>1330.2</ele>
        <time>2021-10-09T10:12:43Z</time>
      </trkpt>
      <trkpt lat="44.97257" lon="5.46238">
        <ele>1330</ele>
        <time>2021-10-09T10:12:44Z</time>
      </trkpt>
      <trkpt lat="44.97259" lon="5.46239">
        <ele>1330</ele>
        <time>2021-10-09T10:12:45Z</time>
      </trkpt>
      <trkpt lat="44.97262" lon="5.4624">
        <ele>1330</ele>
        <time>2021-10-09T10:12:46Z</time>
      </trkpt>
      <trkpt lat="44.97265" lon="5.46242">
        <ele>1329</ele>
        <time>2021-10-09T10:12:47Z</time>
      </trkpt>
      <trkpt lat="44.97268" lon="5.46243">
        <ele>1328.8</ele>
        <time>2021-10-09T10:12:48Z</time>
      </trkpt>
      <trkpt lat="44.97272" lon="5.46245">
        <ele>1328.8</ele>
        <time>2021-10-09T10:12:49Z</time>
      </trkpt>
      <trkpt lat="44.97275" lon="5.46246">
        <ele>1328.8</ele>
        <time>2021-10-09T10:12:50Z</time>
      </trkpt>
      <trkpt lat="44.9728" lon="5.46248">
        <ele>1327.8</ele>
        <time>2021-10-09T10:12:51Z</time>
      </trkpt>
      <trkpt lat="44.97285" lon="5.46249">
        <ele>1326.8</ele>
        <time>2021-10-09T10:12:52Z</time>
      </trkpt>
      <trkpt lat="44.9729" lon="5.46251">
        <ele>1326.8</ele>
        <time>2021-10-09T10:12:53Z</time>
      </trkpt>
      <trkpt lat="44.97294" lon="5.46253">
        <ele>1326.8</ele>
        <time>2021-10-09T10:12:54Z</time>
      </trkpt>
      <trkpt lat="44.973" lon="5.46253">
        <ele>1326.8</ele>
        <time>2021-10-09T10:12:55Z</time>
      </trkpt>
      <trkpt lat="44.97305" lon="5.46252">
        <ele>1326.4</ele>
        <time>2021-10-09T10:12:56Z</time>
      </trkpt>
      <trkpt lat="44.97311" lon="5.46252">
        <ele>1326.4</ele>
        <time>2021-10-09T10:12:57Z</time>
      </trkpt>
      <trkpt lat="44.97316" lon="5.46252">
        <ele>1326.4</ele>
        <time>2021-10-09T10:12:58Z</time>
      </trkpt>
      <trkpt lat="44.97321" lon="5.46253">
        <ele>1326.4</ele>
        <time>2021-10-09T10:12:59Z</time>
      </trkpt>
      <trkpt lat="44.97325" lon="5.46252">
        <ele>1326</ele>
        <time>2021-10-09T10:13:00Z</time>
      </trkpt>
      <trkpt lat="44.97329" lon="5.46253">
        <ele>1326</ele>
        <time>2021-10-09T10:13:01Z</time>
      </trkpt>
      <trkpt lat="44.97334" lon="5.46253">
        <ele>1326</ele>
        <time>2021-10-09T10:13:02Z</time>
      </trkpt>
      <trkpt lat="44.97338" lon="5.46254">
        <ele>1325</ele>
        <time>2021-10-09T10:13:03Z</time>
      </trkpt>
      <trkpt lat="44.97343" lon="5.46255">
        <ele>1324.8</ele>
        <time>2021-10-09T10:13:04Z</time>
      </trkpt>
      <trkpt lat="44.97348" lon="5.46256">
        <ele>1324.8</ele>
        <time>2021-10-09T10:13:05Z</time>
      </trkpt>
      <trkpt lat="44.97352" lon="5.46257">
        <ele>1324.8</ele>
        <time>2021-10-09T10:13:06Z</time>
      </trkpt>
      <trkpt lat="44.97357" lon="5.46258">
        <ele>1323.8</ele>
        <time>2021-10-09T10:13:07Z</time>
      </trkpt>
      <trkpt lat="44.97362" lon="5.46258">
        <ele>1323.6</ele>
        <time>2021-10-09T10:13:08Z</time>
      </trkpt>
      <trkpt lat="44.97367" lon="5.46258">
        <ele>1323.6</ele>
        <time>2021-10-09T10:13:09Z</time>
      </trkpt>
      <trkpt lat="44.97372" lon="5.46257">
        <ele>1323.6</ele>
        <time>2021-10-09T10:13:10Z</time>
      </trkpt>
      <trkpt lat="44.97377" lon="5.46256">
        <ele>1322.6</ele>
        <time>2021-10-09T10:13:11Z</time>
      </trkpt>
      <trkpt lat="44.97383" lon="5.46254">
        <ele>1322.4</ele>
        <time>2021-10-09T10:13:12Z</time>
      </trkpt>
      <trkpt lat="44.97388" lon="5.46252">
        <ele>1322.4</ele>
        <time>2021-10-09T10:13:13Z</time>
      </trkpt>
      <trkpt lat="44.97394" lon="5.4625">
        <ele>1322.4</ele>
        <time>2021-10-09T10:13:14Z</time>
      </trkpt>
      <trkpt lat="44.97399" lon="5.46248">
        <ele>1321.4</ele>
        <time>2021-10-09T10:13:15Z</time>
      </trkpt>
      <trkpt lat="44.97406" lon="5.46246">
        <ele>1320.6</ele>
        <time>2021-10-09T10:13:16Z</time>
      </trkpt>
      <trkpt lat="44.97411" lon="5.46243">
        <ele>1320.6</ele>
        <time>2021-10-09T10:13:17Z</time>
      </trkpt>
      <trkpt lat="44.97416" lon="5.46242">
        <ele>1320.6</ele>
        <time>2021-10-09T10:13:18Z</time>
      </trkpt>
      <trkpt lat="44.97423" lon="5.46241">
        <ele>1319.6</ele>
        <time>2021-10-09T10:13:19Z</time>
      </trkpt>
      <trkpt lat="44.97429" lon="5.46238">
        <ele>1319</ele>
        <time>2021-10-09T10:13:20Z</time>
      </trkpt>
      <trkpt lat="44.97435" lon="5.46236">
        <ele>1319</ele>
        <time>2021-10-09T10:13:21Z</time>
      </trkpt>
      <trkpt lat="44.97441" lon="5.46236">
        <ele>1319</ele>
        <time>2021-10-09T10:13:22Z</time>
      </trkpt>
      <trkpt lat="44.97447" lon="5.46234">
        <ele>1318</ele>
        <time>2021-10-09T10:13:23Z</time>
      </trkpt>
      <trkpt lat="44.97453" lon="5.46233">
        <ele>1317.2</ele>
        <time>2021-10-09T10:13:24Z</time>
      </trkpt>
      <trkpt lat="44.9746" lon="5.46232">
        <ele>1317.2</ele>
        <time>2021-10-09T10:13:25Z</time>
      </trkpt>
      <trkpt lat="44.97465" lon="5.46231">
        <ele>1317.2</ele>
        <time>2021-10-09T10:13:26Z</time>
      </trkpt>
      <trkpt lat="44.97472" lon="5.46229">
        <ele>1316.2</ele>
        <time>2021-10-09T10:13:27Z</time>
      </trkpt>
      <trkpt lat="44.9748" lon="5.46228">
        <ele>1315</ele>
        <time>2021-10-09T10:13:28Z</time>
      </trkpt>
      <trkpt lat="44.97488" lon="5.46226">
        <ele>1315</ele>
        <time>2021-10-09T10:13:29Z</time>
      </trkpt>
      <trkpt lat="44.97494" lon="5.46225">
        <ele>1315</ele>
        <time>2021-10-09T10:13:30Z</time>
      </trkpt>
      <trkpt lat="44.97502" lon="5.46223">
        <ele>1314</ele>
        <time>2021-10-09T10:13:31Z</time>
      </trkpt>
      <trkpt lat="44.97509" lon="5.46222">
        <ele>1312.8</ele>
        <time>2021-10-09T10:13:32Z</time>
      </trkpt>
      <trkpt lat="44.97516" lon="5.4622">
        <ele>1312.8</ele>
        <time>2021-10-09T10:13:33Z</time>
      </trkpt>
      <trkpt lat="44.97523" lon="5.46219">
        <ele>1312.8</ele>
        <time>2021-10-09T10:13:34Z</time>
      </trkpt>
      <trkpt lat="44.97529" lon="5.46218">
        <ele>1312.8</ele>
        <time>2021-10-09T10:13:35Z</time>
      </trkpt>
      <trkpt lat="44.97535" lon="5.46218">
        <ele>1312</ele>
        <time>2021-10-09T10:13:36Z</time>
      </trkpt>
      <trkpt lat="44.9754" lon="5.46217">
        <ele>1312</ele>
        <time>2021-10-09T10:13:37Z</time>
      </trkpt>
      <trkpt lat="44.97546" lon="5.46217">
        <ele>1312</ele>
        <time>2021-10-09T10:13:38Z</time>
      </trkpt>
      <trkpt lat="44.97551" lon="5.46215">
        <ele>1311</ele>
        <time>2021-10-09T10:13:39Z</time>
      </trkpt>
      <trkpt lat="44.97557" lon="5.46215">
        <ele>1310.6</ele>
        <time>2021-10-09T10:13:40Z</time>
      </trkpt>
      <trkpt lat="44.97562" lon="5.46213">
        <ele>1310.6</ele>
        <time>2021-10-09T10:13:41Z</time>
      </trkpt>
      <trkpt lat="44.97567" lon="5.46212">
        <ele>1310.6</ele>
        <time>2021-10-09T10:13:42Z</time>
      </trkpt>
      <trkpt lat="44.97571" lon="5.46212">
        <ele>1310.6</ele>
        <time>2021-10-09T10:13:43Z</time>
      </trkpt>
      <trkpt lat="44.97576" lon="5.46213">
        <ele>1309.6</ele>
        <time>2021-10-09T10:13:44Z</time>
      </trkpt>
      <trkpt lat="44.97581" lon="5.46213">
        <ele>1309.6</ele>
        <time>2021-10-09T10:13:45Z</time>
      </trkpt>
      <trkpt lat="44.97585" lon="5.46214">
        <ele>1309.6</ele>
        <time>2021-10-09T10:13:46Z</time>
      </trkpt>
      <trkpt lat="44.9759" lon="5.46212">
        <ele>1308.8</ele>
        <time>2021-10-09T10:13:47Z</time>
      </trkpt>
      <trkpt lat="44.97594" lon="5.4621">
        <ele>1308.4</ele>
        <time>2021-10-09T10:13:48Z</time>
      </trkpt>
      <trkpt lat="44.97599" lon="5.46207">
        <ele>1308.4</ele>
        <time>2021-10-09T10:13:49Z</time>
      </trkpt>
      <trkpt lat="44.97605" lon="5.46203">
        <ele>1308.4</ele>
        <time>2021-10-09T10:13:50Z</time>
      </trkpt>
      <trkpt lat="44.97611" lon="5.46201">
        <ele>1307.6</ele>
        <time>2021-10-09T10:13:51Z</time>
      </trkpt>
      <trkpt lat="44.97616" lon="5.46197">
        <ele>1307.6</ele>
        <time>2021-10-09T10:13:52Z</time>
      </trkpt>
      <trkpt lat="44.97621" lon="5.46193">
        <ele>1307.6</ele>
        <time>2021-10-09T10:13:53Z</time>
      </trkpt>
      <trkpt lat="44.97626" lon="5.46189">
        <ele>1307.6</ele>
        <time>2021-10-09T10:13:54Z</time>
      </trkpt>
      <trkpt lat="44.97631" lon="5.46185">
        <ele>1307.6</ele>
        <time>2021-10-09T10:13:55Z</time>
      </trkpt>
      <trkpt lat="44.97636" lon="5.46182">
        <ele>1307.6</ele>
        <time>2021-10-09T10:13:56Z</time>
      </trkpt>
      <trkpt lat="44.9764" lon="5.46178">
        <ele>1307.6</ele>
        <time>2021-10-09T10:13:57Z</time>
      </trkpt>
      <trkpt lat="44.97644" lon="5.46175">
        <ele>1307.6</ele>
        <time>2021-10-09T10:13:58Z</time>
      </trkpt>
      <trkpt lat="44.97648" lon="5.4617">
        <ele>1308</ele>
        <time>2021-10-09T10:13:59Z</time>
      </trkpt>
      <trkpt lat="44.97652" lon="5.46166">
        <ele>1308.2</ele>
        <time>2021-10-09T10:14:00Z</time>
      </trkpt>
      <trkpt lat="44.97656" lon="5.46163">
        <ele>1308.2</ele>
        <time>2021-10-09T10:14:01Z</time>
      </trkpt>
      <trkpt lat="44.97659" lon="5.4616">
        <ele>1308.2</ele>
        <time>2021-10-09T10:14:02Z</time>
      </trkpt>
      <trkpt lat="44.97663" lon="5.46157">
        <ele>1308.2</ele>
        <time>2021-10-09T10:14:03Z</time>
      </trkpt>
      <trkpt lat="44.97666" lon="5.46154">
        <ele>1308.4</ele>
        <time>2021-10-09T10:14:04Z</time>
      </trkpt>
      <trkpt lat="44.97669" lon="5.46151">
        <ele>1308.4</ele>
        <time>2021-10-09T10:14:05Z</time>
      </trkpt>
      <trkpt lat="44.97672" lon="5.46148">
        <ele>1308.4</ele>
        <time>2021-10-09T10:14:06Z</time>
      </trkpt>
      <trkpt lat="44.97675" lon="5.46146">
        <ele>1308.8</ele>
        <time>2021-10-09T10:14:07Z</time>
      </trkpt>
      <trkpt lat="44.97678" lon="5.46143">
        <ele>1308.8</ele>
        <time>2021-10-09T10:14:08Z</time>
      </trkpt>
      <trkpt lat="44.9768" lon="5.4614">
        <ele>1308.8</ele>
        <time>2021-10-09T10:14:09Z</time>
      </trkpt>
      <trkpt lat="44.97683" lon="5.46138">
        <ele>1308.8</ele>
        <time>2021-10-09T10:14:10Z</time>
      </trkpt>
      <trkpt lat="44.97686" lon="5.46135">
        <ele>1308.6</ele>
        <time>2021-10-09T10:14:11Z</time>
      </trkpt>
      <trkpt lat="44.97688" lon="5.46132">
        <ele>1308.4</ele>
        <time>2021-10-09T10:14:12Z</time>
      </trkpt>
      <trkpt lat="44.9769" lon="5.4613">
        <ele>1308.4</ele>
        <time>2021-10-09T10:14:13Z</time>
      </trkpt>
      <trkpt lat="44.97693" lon="5.46126">
        <ele>1308.4</ele>
        <time>2021-10-09T10:14:14Z</time>
      </trkpt>
      <trkpt lat="44.97696" lon="5.46124">
        <ele>1308.4</ele>
        <time>2021-10-09T10:14:15Z</time>
      </trkpt>
      <trkpt lat="44.97699" lon="5.46121">
        <ele>1307.8</ele>
        <time>2021-10-09T10:14:16Z</time>
      </trkpt>
      <trkpt lat="44.977" lon="5.46118">
        <ele>1307.8</ele>
        <time>2021-10-09T10:14:17Z</time>
      </trkpt>
      <trkpt lat="44.97704" lon="5.46116">
        <ele>1307.8</ele>
        <time>2021-10-09T10:14:18Z</time>
      </trkpt>
      <trkpt lat="44.97706" lon="5.46114">
        <ele>1308</ele>
        <time>2021-10-09T10:14:19Z</time>
      </trkpt>
      <trkpt lat="44.97709" lon="5.46111">
        <ele>1307.6</ele>
        <time>2021-10-09T10:14:20Z</time>
      </trkpt>
      <trkpt lat="44.97712" lon="5.46109">
        <ele>1307.6</ele>
        <time>2021-10-09T10:14:21Z</time>
      </trkpt>
      <trkpt lat="44.97715" lon="5.46106">
        <ele>1307.6</ele>
        <time>2021-10-09T10:14:22Z</time>
      </trkpt>
      <trkpt lat="44.97717" lon="5.46103">
        <ele>1307.8</ele>
        <time>2021-10-09T10:14:23Z</time>
      </trkpt>
      <trkpt lat="44.97719" lon="5.46099">
        <ele>1307.4</ele>
        <time>2021-10-09T10:14:24Z</time>
      </trkpt>
      <trkpt lat="44.97722" lon="5.46095">
        <ele>1307.4</ele>
        <time>2021-10-09T10:14:25Z</time>
      </trkpt>
      <trkpt lat="44.97724" lon="5.4609">
        <ele>1307.4</ele>
        <time>2021-10-09T10:14:26Z</time>
      </trkpt>
      <trkpt lat="44.97727" lon="5.46086">
        <ele>1306.4</ele>
        <time>2021-10-09T10:14:27Z</time>
      </trkpt>
      <trkpt lat="44.97729" lon="5.46082">
        <ele>1306</ele>
        <time>2021-10-09T10:14:28Z</time>
      </trkpt>
      <trkpt lat="44.97731" lon="5.46076">
        <ele>1306</ele>
        <time>2021-10-09T10:14:29Z</time>
      </trkpt>
      <trkpt lat="44.97734" lon="5.46072">
        <ele>1306</ele>
        <time>2021-10-09T10:14:30Z</time>
      </trkpt>
      <trkpt lat="44.97736" lon="5.46067">
        <ele>1306</ele>
        <time>2021-10-09T10:14:31Z</time>
      </trkpt>
      <trkpt lat="44.97739" lon="5.46061">
        <ele>1305</ele>
        <time>2021-10-09T10:14:32Z</time>
      </trkpt>
      <trkpt lat="44.97741" lon="5.46056">
        <ele>1305</ele>
        <time>2021-10-09T10:14:33Z</time>
      </trkpt>
      <trkpt lat="44.97743" lon="5.4605">
        <ele>1305</ele>
        <time>2021-10-09T10:14:34Z</time>
      </trkpt>
      <trkpt lat="44.97746" lon="5.46045">
        <ele>1304.4</ele>
        <time>2021-10-09T10:14:35Z</time>
      </trkpt>
      <trkpt lat="44.97749" lon="5.46039">
        <ele>1304.4</ele>
        <time>2021-10-09T10:14:36Z</time>
      </trkpt>
      <trkpt lat="44.97752" lon="5.46033">
        <ele>1304.4</ele>
        <time>2021-10-09T10:14:37Z</time>
      </trkpt>
      <trkpt lat="44.97754" lon="5.46026">
        <ele>1304.4</ele>
        <time>2021-10-09T10:14:38Z</time>
      </trkpt>
      <trkpt lat="44.97756" lon="5.4602">
        <ele>1303.6</ele>
        <time>2021-10-09T10:14:39Z</time>
      </trkpt>
      <trkpt lat="44.97759" lon="5.46013">
        <ele>1303</ele>
        <time>2021-10-09T10:14:40Z</time>
      </trkpt>
      <trkpt lat="44.97761" lon="5.46007">
        <ele>1303</ele>
        <time>2021-10-09T10:14:41Z</time>
      </trkpt>
      <trkpt lat="44.97763" lon="5.46">
        <ele>1303</ele>
        <time>2021-10-09T10:14:42Z</time>
      </trkpt>
      <trkpt lat="44.97764" lon="5.45993">
        <ele>1303</ele>
        <time>2021-10-09T10:14:43Z</time>
      </trkpt>
      <trkpt lat="44.97767" lon="5.45987">
        <ele>1302.2</ele>
        <time>2021-10-09T10:14:44Z</time>
      </trkpt>
      <trkpt lat="44.97769" lon="5.4598">
        <ele>1302.2</ele>
        <time>2021-10-09T10:14:45Z</time>
      </trkpt>
      <trkpt lat="44.97771" lon="5.45972">
        <ele>1302.2</ele>
        <time>2021-10-09T10:14:46Z</time>
      </trkpt>
      <trkpt lat="44.97773" lon="5.45965">
        <ele>1302.8</ele>
        <time>2021-10-09T10:14:47Z</time>
      </trkpt>
      <trkpt lat="44.97775" lon="5.45958">
        <ele>1302.2</ele>
        <time>2021-10-09T10:14:48Z</time>
      </trkpt>
      <trkpt lat="44.97778" lon="5.45952">
        <ele>1302.2</ele>
        <time>2021-10-09T10:14:49Z</time>
      </trkpt>
      <trkpt lat="44.97781" lon="5.45946">
        <ele>1302.2</ele>
        <time>2021-10-09T10:14:50Z</time>
      </trkpt>
      <trkpt lat="44.97783" lon="5.45941">
        <ele>1303</ele>
        <time>2021-10-09T10:14:51Z</time>
      </trkpt>
      <trkpt lat="44.97785" lon="5.45935">
        <ele>1303.2</ele>
        <time>2021-10-09T10:14:52Z</time>
      </trkpt>
      <trkpt lat="44.97787" lon="5.45931">
        <ele>1303.2</ele>
        <time>2021-10-09T10:14:53Z</time>
      </trkpt>
      <trkpt lat="44.97789" lon="5.45927">
        <ele>1303.2</ele>
        <time>2021-10-09T10:14:54Z</time>
      </trkpt>
      <trkpt lat="44.97791" lon="5.45924">
        <ele>1303.2</ele>
        <time>2021-10-09T10:14:55Z</time>
      </trkpt>
      <trkpt lat="44.97791" lon="5.45922">
        <ele>1303.2</ele>
        <time>2021-10-09T10:14:56Z</time>
      </trkpt>
      <trkpt lat="44.97792" lon="5.4592">
        <ele>1303.2</ele>
        <time>2021-10-09T10:14:57Z</time>
      </trkpt>
      <trkpt lat="44.97793" lon="5.45919">
        <ele>1303.2</ele>
        <time>2021-10-09T10:14:58Z</time>
      </trkpt>
      <trkpt lat="44.97795" lon="5.45918">
        <ele>1303.2</ele>
        <time>2021-10-09T10:14:59Z</time>
      </trkpt>
      <trkpt lat="44.97796" lon="5.45917">
        <ele>1303.2</ele>
        <time>2021-10-09T10:15:00Z</time>
      </trkpt>
      <trkpt lat="44.97797" lon="5.45915">
        <ele>1303.2</ele>
        <time>2021-10-09T10:15:01Z</time>
      </trkpt>
      <trkpt lat="44.97799" lon="5.45914">
        <ele>1303.2</ele>
        <time>2021-10-09T10:15:02Z</time>
      </trkpt>
      <trkpt lat="44.978" lon="5.45914">
        <ele>1302.6</ele>
        <time>2021-10-09T10:15:03Z</time>
      </trkpt>
      <trkpt lat="44.97802" lon="5.45914">
        <ele>1302</ele>
        <time>2021-10-09T10:15:04Z</time>
      </trkpt>
      <trkpt lat="44.97805" lon="5.45913">
        <ele>1302</ele>
        <time>2021-10-09T10:15:05Z</time>
      </trkpt>
      <trkpt lat="44.97808" lon="5.45912">
        <ele>1302</ele>
        <time>2021-10-09T10:15:06Z</time>
      </trkpt>
      <trkpt lat="44.97811" lon="5.45911">
        <ele>1301</ele>
        <time>2021-10-09T10:15:07Z</time>
      </trkpt>
      <trkpt lat="44.97815" lon="5.45909">
        <ele>1300.6</ele>
        <time>2021-10-09T10:15:08Z</time>
      </trkpt>
      <trkpt lat="44.97818" lon="5.45908">
        <ele>1300.6</ele>
        <time>2021-10-09T10:15:09Z</time>
      </trkpt>
      <trkpt lat="44.97821" lon="5.45908">
        <ele>1300.6</ele>
        <time>2021-10-09T10:15:10Z</time>
      </trkpt>
      <trkpt lat="44.97825" lon="5.45908">
        <ele>1299.6</ele>
        <time>2021-10-09T10:15:11Z</time>
      </trkpt>
      <trkpt lat="44.97829" lon="5.45908">
        <ele>1299.2</ele>
        <time>2021-10-09T10:15:12Z</time>
      </trkpt>
      <trkpt lat="44.97833" lon="5.45909">
        <ele>1299.2</ele>
        <time>2021-10-09T10:15:13Z</time>
      </trkpt>
      <trkpt lat="44.97837" lon="5.45908">
        <ele>1299.2</ele>
        <time>2021-10-09T10:15:14Z</time>
      </trkpt>
      <trkpt lat="44.97841" lon="5.45908">
        <ele>1298.2</ele>
        <time>2021-10-09T10:15:15Z</time>
      </trkpt>
      <trkpt lat="44.97845" lon="5.45908">
        <ele>1296.6</ele>
        <time>2021-10-09T10:15:16Z</time>
      </trkpt>
      <trkpt lat="44.97849" lon="5.45907">
        <ele>1296.6</ele>
        <time>2021-10-09T10:15:17Z</time>
      </trkpt>
      <trkpt lat="44.97854" lon="5.45906">
        <ele>1296.6</ele>
        <time>2021-10-09T10:15:18Z</time>
      </trkpt>
      <trkpt lat="44.97857" lon="5.45905">
        <ele>1296.6</ele>
        <time>2021-10-09T10:15:19Z</time>
      </trkpt>
      <trkpt lat="44.97861" lon="5.45904">
        <ele>1295</ele>
        <time>2021-10-09T10:15:20Z</time>
      </trkpt>
      <trkpt lat="44.97866" lon="5.45903">
        <ele>1295</ele>
        <time>2021-10-09T10:15:21Z</time>
      </trkpt>
      <trkpt lat="44.9787" lon="5.45902">
        <ele>1295</ele>
        <time>2021-10-09T10:15:22Z</time>
      </trkpt>
      <trkpt lat="44.97873" lon="5.45902">
        <ele>1295</ele>
        <time>2021-10-09T10:15:23Z</time>
      </trkpt>
      <trkpt lat="44.97877" lon="5.459">
        <ele>1292.4</ele>
        <time>2021-10-09T10:15:24Z</time>
      </trkpt>
      <trkpt lat="44.97882" lon="5.45899">
        <ele>1292.4</ele>
        <time>2021-10-09T10:15:25Z</time>
      </trkpt>
      <trkpt lat="44.97888" lon="5.45899">
        <ele>1292.4</ele>
        <time>2021-10-09T10:15:26Z</time>
      </trkpt>
      <trkpt lat="44.97894" lon="5.459">
        <ele>1292.4</ele>
        <time>2021-10-09T10:15:27Z</time>
      </trkpt>
      <trkpt lat="44.979" lon="5.459">
        <ele>1291.2</ele>
        <time>2021-10-09T10:15:28Z</time>
      </trkpt>
      <trkpt lat="44.97907" lon="5.45899">
        <ele>1291.2</ele>
        <time>2021-10-09T10:15:29Z</time>
      </trkpt>
      <trkpt lat="44.97914" lon="5.45899">
        <ele>1291.2</ele>
        <time>2021-10-09T10:15:30Z</time>
      </trkpt>
      <trkpt lat="44.97921" lon="5.45899">
        <ele>1290.2</ele>
        <time>2021-10-09T10:15:31Z</time>
      </trkpt>
      <trkpt lat="44.97928" lon="5.45899">
        <ele>1289.6</ele>
        <time>2021-10-09T10:15:32Z</time>
      </trkpt>
      <trkpt lat="44.97935" lon="5.45899">
        <ele>1289.6</ele>
        <time>2021-10-09T10:15:33Z</time>
      </trkpt>
      <trkpt lat="44.97942" lon="5.45899">
        <ele>1289.6</ele>
        <time>2021-10-09T10:15:34Z</time>
      </trkpt>
      <trkpt lat="44.97949" lon="5.45899">
        <ele>1288.6</ele>
        <time>2021-10-09T10:15:35Z</time>
      </trkpt>
      <trkpt lat="44.97956" lon="5.45898">
        <ele>1288.2</ele>
        <time>2021-10-09T10:15:36Z</time>
      </trkpt>
      <trkpt lat="44.97963" lon="5.45898">
        <ele>1288.2</ele>
        <time>2021-10-09T10:15:37Z</time>
      </trkpt>
      <trkpt lat="44.97969" lon="5.45896">
        <ele>1288.2</ele>
        <time>2021-10-09T10:15:38Z</time>
      </trkpt>
      <trkpt lat="44.97975" lon="5.45895">
        <ele>1288.2</ele>
        <time>2021-10-09T10:15:39Z</time>
      </trkpt>
      <trkpt lat="44.97981" lon="5.45896">
        <ele>1288.8</ele>
        <time>2021-10-09T10:15:40Z</time>
      </trkpt>
      <trkpt lat="44.97985" lon="5.45896">
        <ele>1288.8</ele>
        <time>2021-10-09T10:15:41Z</time>
      </trkpt>
      <trkpt lat="44.97989" lon="5.45898">
        <ele>1288.8</ele>
        <time>2021-10-09T10:15:42Z</time>
      </trkpt>
      <trkpt lat="44.97993" lon="5.45899">
        <ele>1288.8</ele>
        <time>2021-10-09T10:15:43Z</time>
      </trkpt>
      <trkpt lat="44.97998" lon="5.45899">
        <ele>1288.8</ele>
        <time>2021-10-09T10:15:44Z</time>
      </trkpt>
      <trkpt lat="44.98002" lon="5.45898">
        <ele>1288.8</ele>
        <time>2021-10-09T10:15:45Z</time>
      </trkpt>
      <trkpt lat="44.98005" lon="5.45898">
        <ele>1288.8</ele>
        <time>2021-10-09T10:15:46Z</time>
      </trkpt>
      <trkpt lat="44.98008" lon="5.45897">
        <ele>1288.8</ele>
        <time>2021-10-09T10:15:47Z</time>
      </trkpt>
      <trkpt lat="44.9801" lon="5.45897">
        <ele>1289.6</ele>
        <time>2021-10-09T10:15:48Z</time>
      </trkpt>
      <trkpt lat="44.9801" lon="5.45897">
        <ele>1289.6</ele>
        <time>2021-10-09T10:15:49Z</time>
      </trkpt>
      <trkpt lat="44.9806" lon="5.45905">
        <ele>1289.2</ele>
        <time>2021-10-09T10:52:41Z</time>
      </trkpt>
      <trkpt lat="44.98058" lon="5.45904">
        <ele>1289.2</ele>
        <time>2021-10-09T10:52:42Z</time>
      </trkpt>
      <trkpt lat="44.98056" lon="5.45904">
        <ele>1289</ele>
        <time>2021-10-09T10:52:43Z</time>
      </trkpt>
      <trkpt lat="44.98053" lon="5.45904">
        <ele>1288.6</ele>
        <time>2021-10-09T10:52:44Z</time>
      </trkpt>
      <trkpt lat="44.98049" lon="5.45904">
        <ele>1288.6</ele>
        <time>2021-10-09T10:52:45Z</time>
      </trkpt>
      <trkpt lat="44.98046" lon="5.45904">
        <ele>1288.6</ele>
        <time>2021-10-09T10:52:46Z</time>
      </trkpt>
      <trkpt lat="44.98043" lon="5.45902">
        <ele>1288.6</ele>
        <time>2021-10-09T10:52:47Z</time>
      </trkpt>
      <trkpt lat="44.98039" lon="5.45901">
        <ele>1287.4</ele>
        <time>2021-10-09T10:52:48Z</time>
      </trkpt>
      <trkpt lat="44.98036" lon="5.459">
        <ele>1287.4</ele>
        <time>2021-10-09T10:52:49Z</time>
      </trkpt>
      <trkpt lat="44.98032" lon="5.459">
        <ele>1287.4</ele>
        <time>2021-10-09T10:52:50Z</time>
      </trkpt>
      <trkpt lat="44.9803" lon="5.459">
        <ele>1287.4</ele>
        <time>2021-10-09T10:52:51Z</time>
      </trkpt>
      <trkpt lat="44.98027" lon="5.459">
        <ele>1288.4</ele>
        <time>2021-10-09T10:52:52Z</time>
      </trkpt>
      <trkpt lat="44.98024" lon="5.459">
        <ele>1288.4</ele>
        <time>2021-10-09T10:52:53Z</time>
      </trkpt>
      <trkpt lat="44.98022" lon="5.45902">
        <ele>1288.4</ele>
        <time>2021-10-09T10:52:54Z</time>
      </trkpt>
      <trkpt lat="44.98021" lon="5.45904">
        <ele>1288.8</ele>
        <time>2021-10-09T10:52:55Z</time>
      </trkpt>
      <trkpt lat="44.9802" lon="5.45906">
        <ele>1289.2</ele>
        <time>2021-10-09T10:52:56Z</time>
      </trkpt>
      <trkpt lat="44.98019" lon="5.45907">
        <ele>1289.2</ele>
        <time>2021-10-09T10:52:57Z</time>
      </trkpt>
      <trkpt lat="44.98018" lon="5.45909">
        <ele>1289.2</ele>
        <time>2021-10-09T10:52:58Z</time>
      </trkpt>
      <trkpt lat="44.98018" lon="5.45911">
        <ele>1289.6</ele>
        <time>2021-10-09T10:52:59Z</time>
      </trkpt>
      <trkpt lat="44.98017" lon="5.45913">
        <ele>1289.6</ele>
        <time>2021-10-09T10:53:00Z</time>
      </trkpt>
      <trkpt lat="44.98017" lon="5.45915">
        <ele>1289.6</ele>
        <time>2021-10-09T10:53:01Z</time>
      </trkpt>
      <trkpt lat="44.98016" lon="5.45916">
        <ele>1289.6</ele>
        <time>2021-10-09T10:53:02Z</time>
      </trkpt>
      <trkpt lat="44.98016" lon="5.45918">
        <ele>1289.8</ele>
        <time>2021-10-09T10:53:03Z</time>
      </trkpt>
      <trkpt lat="44.98016" lon="5.4592">
        <ele>1289.6</ele>
        <time>2021-10-09T10:53:04Z</time>
      </trkpt>
      <trkpt lat="44.98016" lon="5.45922">
        <ele>1289.6</ele>
        <time>2021-10-09T10:53:05Z</time>
      </trkpt>
      <trkpt lat="44.98016" lon="5.45924">
        <ele>1289.6</ele>
        <time>2021-10-09T10:53:06Z</time>
      </trkpt>
      <trkpt lat="44.98016" lon="5.45926">
        <ele>1289.8</ele>
        <time>2021-10-09T10:53:07Z</time>
      </trkpt>
      <trkpt lat="44.98016" lon="5.45927">
        <ele>1290.2</ele>
        <time>2021-10-09T10:53:08Z</time>
      </trkpt>
      <trkpt lat="44.98016" lon="5.45929">
        <ele>1290.2</ele>
        <time>2021-10-09T10:53:09Z</time>
      </trkpt>
      <trkpt lat="44.98016" lon="5.4593">
        <ele>1290.2</ele>
        <time>2021-10-09T10:53:10Z</time>
      </trkpt>
      <trkpt lat="44.98016" lon="5.45932">
        <ele>1291</ele>
        <time>2021-10-09T10:53:11Z</time>
      </trkpt>
      <trkpt lat="44.98017" lon="5.45934">
        <ele>1291.2</ele>
        <time>2021-10-09T10:53:12Z</time>
      </trkpt>
      <trkpt lat="44.98018" lon="5.45936">
        <ele>1291.2</ele>
        <time>2021-10-09T10:53:13Z</time>
      </trkpt>
      <trkpt lat="44.98018" lon="5.45937">
        <ele>1291.2</ele>
        <time>2021-10-09T10:53:14Z</time>
      </trkpt>
      <trkpt lat="44.98019" lon="5.45939">
        <ele>1291.2</ele>
        <time>2021-10-09T10:53:15Z</time>
      </trkpt>
      <trkpt lat="44.98019" lon="5.45939">
        <ele>1292</ele>
        <time>2021-10-09T10:53:16Z</time>
      </trkpt>
      <trkpt lat="44.98019" lon="5.45941">
        <ele>1292</ele>
        <time>2021-10-09T10:53:17Z</time>
      </trkpt>
      <trkpt lat="44.98019" lon="5.45943">
        <ele>1292</ele>
        <time>2021-10-09T10:53:18Z</time>
      </trkpt>
      <trkpt lat="44.98019" lon="5.45944">
        <ele>1293</ele>
        <time>2021-10-09T10:53:19Z</time>
      </trkpt>
      <trkpt lat="44.98019" lon="5.45945">
        <ele>1293.4</ele>
        <time>2021-10-09T10:53:20Z</time>
      </trkpt>
      <trkpt lat="44.98019" lon="5.45946">
        <ele>1293.4</ele>
        <time>2021-10-09T10:53:21Z</time>
      </trkpt>
      <trkpt lat="44.9802" lon="5.45948">
        <ele>1293.4</ele>
        <time>2021-10-09T10:53:22Z</time>
      </trkpt>
      <trkpt lat="44.9802" lon="5.45949">
        <ele>1293.4</ele>
        <time>2021-10-09T10:53:23Z</time>
      </trkpt>
      <trkpt lat="44.98021" lon="5.45951">
        <ele>1293.8</ele>
        <time>2021-10-09T10:53:24Z</time>
      </trkpt>
      <trkpt lat="44.98021" lon="5.45952">
        <ele>1293.8</ele>
        <time>2021-10-09T10:53:25Z</time>
      </trkpt>
      <trkpt lat="44.98022" lon="5.45954">
        <ele>1293.8</ele>
        <time>2021-10-09T10:53:26Z</time>
      </trkpt>
      <trkpt lat="44.98022" lon="5.45955">
        <ele>1294.6</ele>
        <time>2021-10-09T10:53:27Z</time>
      </trkpt>
      <trkpt lat="44.98022" lon="5.45957">
        <ele>1294.4</ele>
        <time>2021-10-09T10:53:28Z</time>
      </trkpt>
      <trkpt lat="44.98022" lon="5.45958">
        <ele>1294.4</ele>
        <time>2021-10-09T10:53:29Z</time>
      </trkpt>
      <trkpt lat="44.98022" lon="5.4596">
        <ele>1294.4</ele>
        <time>2021-10-09T10:53:30Z</time>
      </trkpt>
      <trkpt lat="44.98022" lon="5.4596">
        <ele>1295</ele>
        <time>2021-10-09T10:53:31Z</time>
      </trkpt>
      <trkpt lat="44.98023" lon="5.45962">
        <ele>1295</ele>
        <time>2021-10-09T10:53:32Z</time>
      </trkpt>
      <trkpt lat="44.98023" lon="5.45962">
        <ele>1295</ele>
        <time>2021-10-09T10:53:33Z</time>
      </trkpt>
      <trkpt lat="44.98023" lon="5.45964">
        <ele>1295</ele>
        <time>2021-10-09T10:53:34Z</time>
      </trkpt>
      <trkpt lat="44.98024" lon="5.45965">
        <ele>1295.2</ele>
        <time>2021-10-09T10:53:35Z</time>
      </trkpt>
      <trkpt lat="44.98024" lon="5.45967">
        <ele>1295.8</ele>
        <time>2021-10-09T10:53:36Z</time>
      </trkpt>
      <trkpt lat="44.98025" lon="5.45968">
        <ele>1295.8</ele>
        <time>2021-10-09T10:53:37Z</time>
      </trkpt>
      <trkpt lat="44.98024" lon="5.4597">
        <ele>1295.8</ele>
        <time>2021-10-09T10:53:38Z</time>
      </trkpt>
      <trkpt lat="44.98025" lon="5.45971">
        <ele>1295.8</ele>
        <time>2021-10-09T10:53:39Z</time>
      </trkpt>
      <trkpt lat="44.98025" lon="5.45972">
        <ele>1296</ele>
        <time>2021-10-09T10:53:40Z</time>
      </trkpt>
      <trkpt lat="44.98026" lon="5.45973">
        <ele>1296</ele>
        <time>2021-10-09T10:53:41Z</time>
      </trkpt>
      <trkpt lat="44.98026" lon="5.45975">
        <ele>1296</ele>
        <time>2021-10-09T10:53:42Z</time>
      </trkpt>
      <trkpt lat="44.98026" lon="5.45976">
        <ele>1296</ele>
        <time>2021-10-09T10:53:43Z</time>
      </trkpt>
      <trkpt lat="44.98027" lon="5.45978">
        <ele>1296.2</ele>
        <time>2021-10-09T10:53:44Z</time>
      </trkpt>
      <trkpt lat="44.98027" lon="5.45979">
        <ele>1296.2</ele>
        <time>2021-10-09T10:53:45Z</time>
      </trkpt>
      <trkpt lat="44.98028" lon="5.4598">
        <ele>1296.2</ele>
        <time>2021-10-09T10:53:46Z</time>
      </trkpt>
      <trkpt lat="44.98028" lon="5.45982">
        <ele>1296.8</ele>
        <time>2021-10-09T10:53:47Z</time>
      </trkpt>
      <trkpt lat="44.98029" lon="5.45984">
        <ele>1296.8</ele>
        <time>2021-10-09T10:53:48Z</time>
      </trkpt>
      <trkpt lat="44.9803" lon="5.45985">
        <ele>1296.6</ele>
        <time>2021-10-09T10:53:49Z</time>
      </trkpt>
      <trkpt lat="44.98031" lon="5.45988">
        <ele>1296.6</ele>
        <time>2021-10-09T10:53:50Z</time>
      </trkpt>
      <trkpt lat="44.98031" lon="5.4599">
        <ele>1296.6</ele>
        <time>2021-10-09T10:53:51Z</time>
      </trkpt>
      <trkpt lat="44.98032" lon="5.45991">
        <ele>1297</ele>
        <time>2021-10-09T10:53:52Z</time>
      </trkpt>
      <trkpt lat="44.98032" lon="5.45993">
        <ele>1297</ele>
        <time>2021-10-09T10:53:53Z</time>
      </trkpt>
      <trkpt lat="44.98031" lon="5.45995">
        <ele>1297</ele>
        <time>2021-10-09T10:53:54Z</time>
      </trkpt>
      <trkpt lat="44.98032" lon="5.45997">
        <ele>1297.4</ele>
        <time>2021-10-09T10:53:55Z</time>
      </trkpt>
      <trkpt lat="44.98032" lon="5.45998">
        <ele>1297.6</ele>
        <time>2021-10-09T10:53:56Z</time>
      </trkpt>
      <trkpt lat="44.98032" lon="5.46001">
        <ele>1297.6</ele>
        <time>2021-10-09T10:53:57Z</time>
      </trkpt>
      <trkpt lat="44.98033" lon="5.46002">
        <ele>1297.6</ele>
        <time>2021-10-09T10:53:58Z</time>
      </trkpt>
      <trkpt lat="44.98033" lon="5.46003">
        <ele>1297.6</ele>
        <time>2021-10-09T10:53:59Z</time>
      </trkpt>
      <trkpt lat="44.98033" lon="5.46005">
        <ele>1298</ele>
        <time>2021-10-09T10:54:00Z</time>
      </trkpt>
      <trkpt lat="44.98034" lon="5.46007">
        <ele>1298</ele>
        <time>2021-10-09T10:54:01Z</time>
      </trkpt>
      <trkpt lat="44.98034" lon="5.46009">
        <ele>1298</ele>
        <time>2021-10-09T10:54:02Z</time>
      </trkpt>
      <trkpt lat="44.98034" lon="5.4601">
        <ele>1298.4</ele>
        <time>2021-10-09T10:54:03Z</time>
      </trkpt>
      <trkpt lat="44.98035" lon="5.46012">
        <ele>1298.4</ele>
        <time>2021-10-09T10:54:04Z</time>
      </trkpt>
      <trkpt lat="44.98035" lon="5.46014">
        <ele>1298.4</ele>
        <time>2021-10-09T10:54:05Z</time>
      </trkpt>
      <trkpt lat="44.98036" lon="5.46015">
        <ele>1298.4</ele>
        <time>2021-10-09T10:54:06Z</time>
      </trkpt>
      <trkpt lat="44.98036" lon="5.46017">
        <ele>1299</ele>
        <time>2021-10-09T10:54:07Z</time>
      </trkpt>
      <trkpt lat="44.98036" lon="5.46018">
        <ele>1299.2</ele>
        <time>2021-10-09T10:54:08Z</time>
      </trkpt>
      <trkpt lat="44.98036" lon="5.4602">
        <ele>1299.2</ele>
        <time>2021-10-09T10:54:09Z</time>
      </trkpt>
      <trkpt lat="44.98036" lon="5.46023">
        <ele>1299.2</ele>
        <time>2021-10-09T10:54:10Z</time>
      </trkpt>
      <trkpt lat="44.98037" lon="5.46024">
        <ele>1299.8</ele>
        <time>2021-10-09T10:54:11Z</time>
      </trkpt>
      <trkpt lat="44.98036" lon="5.46026">
        <ele>1299.8</ele>
        <time>2021-10-09T10:54:12Z</time>
      </trkpt>
      <trkpt lat="44.98036" lon="5.46028">
        <ele>1299.8</ele>
        <time>2021-10-09T10:54:13Z</time>
      </trkpt>
      <trkpt lat="44.98037" lon="5.46029">
        <ele>1299.8</ele>
        <time>2021-10-09T10:54:14Z</time>
      </trkpt>
      <trkpt lat="44.98038" lon="5.46031">
        <ele>1299.8</ele>
        <time>2021-10-09T10:54:15Z</time>
      </trkpt>
      <trkpt lat="44.98039" lon="5.46032">
        <ele>1300.4</ele>
        <time>2021-10-09T10:54:16Z</time>
      </trkpt>
      <trkpt lat="44.98039" lon="5.46034">
        <ele>1300.4</ele>
        <time>2021-10-09T10:54:17Z</time>
      </trkpt>
      <trkpt lat="44.98039" lon="5.46035">
        <ele>1300.4</ele>
        <time>2021-10-09T10:54:18Z</time>
      </trkpt>
      <trkpt lat="44.9804" lon="5.46036">
        <ele>1300.4</ele>
        <time>2021-10-09T10:54:19Z</time>
      </trkpt>
      <trkpt lat="44.9804" lon="5.46038">
        <ele>1301.6</ele>
        <time>2021-10-09T10:54:20Z</time>
      </trkpt>
      <trkpt lat="44.9804" lon="5.46039">
        <ele>1301.6</ele>
        <time>2021-10-09T10:54:21Z</time>
      </trkpt>
      <trkpt lat="44.9804" lon="5.4604">
        <ele>1301.6</ele>
        <time>2021-10-09T10:54:22Z</time>
      </trkpt>
      <trkpt lat="44.98058" lon="5.46215">
        <ele>1319.8</ele>
        <time>2021-10-09T10:56:16Z</time>
      </trkpt>
      <trkpt lat="44.98058" lon="5.46217">
        <ele>1319.8</ele>
        <time>2021-10-09T10:56:17Z</time>
      </trkpt>
      <trkpt lat="44.98058" lon="5.46219">
        <ele>1319.8</ele>
        <time>2021-10-09T10:56:18Z</time>
      </trkpt>
      <trkpt lat="44.98059" lon="5.4622">
        <ele>1320.2</ele>
        <time>2021-10-09T10:56:19Z</time>
      </trkpt>
      <trkpt lat="44.98059" lon="5.46221">
        <ele>1320.4</ele>
        <time>2021-10-09T10:56:20Z</time>
      </trkpt>
      <trkpt lat="44.9806" lon="5.46223">
        <ele>1320.4</ele>
        <time>2021-10-09T10:56:21Z</time>
      </trkpt>
      <trkpt lat="44.9806" lon="5.46224">
        <ele>1320.4</ele>
        <time>2021-10-09T10:56:22Z</time>
      </trkpt>
      <trkpt lat="44.98061" lon="5.46225">
        <ele>1321.4</ele>
        <time>2021-10-09T10:56:23Z</time>
      </trkpt>
      <trkpt lat="44.98061" lon="5.46228">
        <ele>1321.8</ele>
        <time>2021-10-09T10:56:24Z</time>
      </trkpt>
      <trkpt lat="44.98062" lon="5.46228">
        <ele>1321.8</ele>
        <time>2021-10-09T10:56:25Z</time>
      </trkpt>
      <trkpt lat="44.98063" lon="5.4623">
        <ele>1321.8</ele>
        <time>2021-10-09T10:56:26Z</time>
      </trkpt>
      <trkpt lat="44.98063" lon="5.46231">
        <ele>1321.8</ele>
        <time>2021-10-09T10:56:27Z</time>
      </trkpt>
      <trkpt lat="44.98063" lon="5.46233">
        <ele>1322.2</ele>
        <time>2021-10-09T10:56:28Z</time>
      </trkpt>
      <trkpt lat="44.98064" lon="5.46234">
        <ele>1322.2</ele>
        <time>2021-10-09T10:56:29Z</time>
      </trkpt>
      <trkpt lat="44.98064" lon="5.46235">
        <ele>1322.2</ele>
        <time>2021-10-09T10:56:30Z</time>
      </trkpt>
      <trkpt lat="44.98065" lon="5.46236">
        <ele>1323</ele>
        <time>2021-10-09T10:56:31Z</time>
      </trkpt>
      <trkpt lat="44.98065" lon="5.46237">
        <ele>1323</ele>
        <time>2021-10-09T10:56:32Z</time>
      </trkpt>
      <trkpt lat="44.98066" lon="5.46238">
        <ele>1323</ele>
        <time>2021-10-09T10:56:33Z</time>
      </trkpt>
      <trkpt lat="44.98067" lon="5.46238">
        <ele>1323</ele>
        <time>2021-10-09T10:56:34Z</time>
      </trkpt>
      <trkpt lat="44.98068" lon="5.46239">
        <ele>1323.6</ele>
        <time>2021-10-09T10:56:35Z</time>
      </trkpt>
      <trkpt lat="44.98069" lon="5.4624">
        <ele>1323.6</ele>
        <time>2021-10-09T10:56:36Z</time>
      </trkpt>
      <trkpt lat="44.9807" lon="5.4624">
        <ele>1323.6</ele>
        <time>2021-10-09T10:56:37Z</time>
      </trkpt>
      <trkpt lat="44.98071" lon="5.4624">
        <ele>1323.6</ele>
        <time>2021-10-09T10:56:38Z</time>
      </trkpt>
      <trkpt lat="44.98072" lon="5.4624">
        <ele>1324.4</ele>
        <time>2021-10-09T10:56:39Z</time>
      </trkpt>
      <trkpt lat="44.98072" lon="5.46239">
        <ele>1324.2</ele>
        <time>2021-10-09T10:56:40Z</time>
      </trkpt>
      <trkpt lat="44.98073" lon="5.46239">
        <ele>1324.2</ele>
        <time>2021-10-09T10:56:41Z</time>
      </trkpt>
      <trkpt lat="44.98074" lon="5.46239">
        <ele>1324.2</ele>
        <time>2021-10-09T10:56:42Z</time>
      </trkpt>
      <trkpt lat="44.98074" lon="5.46239">
        <ele>1324.8</ele>
        <time>2021-10-09T10:56:43Z</time>
      </trkpt>
      <trkpt lat="44.98075" lon="5.46238">
        <ele>1325.2</ele>
        <time>2021-10-09T10:56:44Z</time>
      </trkpt>
      <trkpt lat="44.98076" lon="5.46238">
        <ele>1325.2</ele>
        <time>2021-10-09T10:56:45Z</time>
      </trkpt>
      <trkpt lat="44.98076" lon="5.46237">
        <ele>1325.2</ele>
        <time>2021-10-09T10:56:46Z</time>
      </trkpt>
      <trkpt lat="44.98078" lon="5.46237">
        <ele>1325.6</ele>
        <time>2021-10-09T10:56:47Z</time>
      </trkpt>
      <trkpt lat="44.98079" lon="5.46236">
        <ele>1325.8</ele>
        <time>2021-10-09T10:56:48Z</time>
      </trkpt>
      <trkpt lat="44.9808" lon="5.46235">
        <ele>1325.8</ele>
        <time>2021-10-09T10:56:49Z</time>
      </trkpt>
      <trkpt lat="44.98081" lon="5.46235">
        <ele>1325.8</ele>
        <time>2021-10-09T10:56:50Z</time>
      </trkpt>
      <trkpt lat="44.98081" lon="5.46234">
        <ele>1326.2</ele>
        <time>2021-10-09T10:56:51Z</time>
      </trkpt>
      <trkpt lat="44.98082" lon="5.46234">
        <ele>1326.2</ele>
        <time>2021-10-09T10:56:52Z</time>
      </trkpt>
      <trkpt lat="44.98083" lon="5.46234">
        <ele>1326.2</ele>
        <time>2021-10-09T10:56:53Z</time>
      </trkpt>
      <trkpt lat="44.98083" lon="5.46234">
        <ele>1326.2</ele>
        <time>2021-10-09T10:56:54Z</time>
      </trkpt>
      <trkpt lat="44.98084" lon="5.46233">
        <ele>1326.8</ele>
        <time>2021-10-09T10:56:55Z</time>
      </trkpt>
      <trkpt lat="44.98084" lon="5.46232">
        <ele>1327</ele>
        <time>2021-10-09T10:56:56Z</time>
      </trkpt>
      <trkpt lat="44.98085" lon="5.46232">
        <ele>1327</ele>
        <time>2021-10-09T10:56:57Z</time>
      </trkpt>
      <trkpt lat="44.98086" lon="5.46231">
        <ele>1327</ele>
        <time>2021-10-09T10:56:58Z</time>
      </trkpt>
      <trkpt lat="44.98087" lon="5.46231">
        <ele>1327.6</ele>
        <time>2021-10-09T10:56:59Z</time>
      </trkpt>
      <trkpt lat="44.98089" lon="5.46231">
        <ele>1327.4</ele>
        <time>2021-10-09T10:57:00Z</time>
      </trkpt>
      <trkpt lat="44.9809" lon="5.46231">
        <ele>1327.4</ele>
        <time>2021-10-09T10:57:01Z</time>
      </trkpt>
      <trkpt lat="44.98091" lon="5.46231">
        <ele>1327.4</ele>
        <time>2021-10-09T10:57:02Z</time>
      </trkpt>
      <trkpt lat="44.98092" lon="5.46232">
        <ele>1328</ele>
        <time>2021-10-09T10:57:03Z</time>
      </trkpt>
      <trkpt lat="44.98093" lon="5.46231">
        <ele>1328.6</ele>
        <time>2021-10-09T10:57:04Z</time>
      </trkpt>
      <trkpt lat="44.98094" lon="5.46232">
        <ele>1328.6</ele>
        <time>2021-10-09T10:57:05Z</time>
      </trkpt>
      <trkpt lat="44.98096" lon="5.46232">
        <ele>1328.6</ele>
        <time>2021-10-09T10:57:06Z</time>
      </trkpt>
      <trkpt lat="44.98098" lon="5.46232">
        <ele>1329</ele>
        <time>2021-10-09T10:57:07Z</time>
      </trkpt>
      <trkpt lat="44.98099" lon="5.46233">
        <ele>1329.4</ele>
        <time>2021-10-09T10:57:08Z</time>
      </trkpt>
      <trkpt lat="44.981" lon="5.46234">
        <ele>1329.4</ele>
        <time>2021-10-09T10:57:09Z</time>
      </trkpt>
      <trkpt lat="44.98101" lon="5.46234">
        <ele>1329.4</ele>
        <time>2021-10-09T10:57:10Z</time>
      </trkpt>
      <trkpt lat="44.98102" lon="5.46234">
        <ele>1330</ele>
        <time>2021-10-09T10:57:11Z</time>
      </trkpt>
      <trkpt lat="44.98103" lon="5.46235">
        <ele>1330.4</ele>
        <time>2021-10-09T10:57:12Z</time>
      </trkpt>
      <trkpt lat="44.98104" lon="5.46235">
        <ele>1330.4</ele>
        <time>2021-10-09T10:57:13Z</time>
      </trkpt>
      <trkpt lat="44.98105" lon="5.46236">
        <ele>1330.4</ele>
        <time>2021-10-09T10:57:14Z</time>
      </trkpt>
      <trkpt lat="44.98105" lon="5.46237">
        <ele>1330.4</ele>
        <time>2021-10-09T10:57:15Z</time>
      </trkpt>
      <trkpt lat="44.98106" lon="5.46237">
        <ele>1331</ele>
        <time>2021-10-09T10:57:16Z</time>
      </trkpt>
      <trkpt lat="44.98108" lon="5.46238">
        <ele>1331</ele>
        <time>2021-10-09T10:57:17Z</time>
      </trkpt>
      <trkpt lat="44.9811" lon="5.46238">
        <ele>1331</ele>
        <time>2021-10-09T10:57:18Z</time>
      </trkpt>
      <trkpt lat="44.9811" lon="5.46239">
        <ele>1331.6</ele>
        <time>2021-10-09T10:57:19Z</time>
      </trkpt>
      <trkpt lat="44.98111" lon="5.4624">
        <ele>1331.8</ele>
        <time>2021-10-09T10:57:20Z</time>
      </trkpt>
      <trkpt lat="44.98111" lon="5.46242">
        <ele>1331.8</ele>
        <time>2021-10-09T10:57:21Z</time>
      </trkpt>
      <trkpt lat="44.98112" lon="5.46243">
        <ele>1331.8</ele>
        <time>2021-10-09T10:57:22Z</time>
      </trkpt>
      <trkpt lat="44.98113" lon="5.46245">
        <ele>1331.8</ele>
        <time>2021-10-09T10:57:23Z</time>
      </trkpt>
      <trkpt lat="44.98114" lon="5.46247">
        <ele>1332.6</ele>
        <time>2021-10-09T10:57:24Z</time>
      </trkpt>
      <trkpt lat="44.98115" lon="5.46249">
        <ele>1332.6</ele>
        <time>2021-10-09T10:57:25Z</time>
      </trkpt>
      <trkpt lat="44.98115" lon="5.4625">
        <ele>1332.6</ele>
        <time>2021-10-09T10:57:26Z</time>
      </trkpt>
      <trkpt lat="44.98117" lon="5.46251">
        <ele>1333.2</ele>
        <time>2021-10-09T10:57:27Z</time>
      </trkpt>
      <trkpt lat="44.98118" lon="5.46252">
        <ele>1333.4</ele>
        <time>2021-10-09T10:57:28Z</time>
      </trkpt>
      <trkpt lat="44.98118" lon="5.46253">
        <ele>1333.4</ele>
        <time>2021-10-09T10:57:29Z</time>
      </trkpt>
      <trkpt lat="44.98119" lon="5.46254">
        <ele>1333.4</ele>
        <time>2021-10-09T10:57:30Z</time>
      </trkpt>
      <trkpt lat="44.9812" lon="5.46254">
        <ele>1333.4</ele>
        <time>2021-10-09T10:57:31Z</time>
      </trkpt>
      <trkpt lat="44.98121" lon="5.46255">
        <ele>1334</ele>
        <time>2021-10-09T10:57:32Z</time>
      </trkpt>
      <trkpt lat="44.98122" lon="5.46256">
        <ele>1334</ele>
        <time>2021-10-09T10:57:33Z</time>
      </trkpt>
      <trkpt lat="44.98122" lon="5.46257">
        <ele>1334</ele>
        <time>2021-10-09T10:57:34Z</time>
      </trkpt>
      <trkpt lat="44.98123" lon="5.46258">
        <ele>1335</ele>
        <time>2021-10-09T10:57:35Z</time>
      </trkpt>
      <trkpt lat="44.98123" lon="5.46259">
        <ele>1335</ele>
        <time>2021-10-09T10:57:36Z</time>
      </trkpt>
      <trkpt lat="44.98124" lon="5.4626">
        <ele>1335</ele>
        <time>2021-10-09T10:57:37Z</time>
      </trkpt>
      <trkpt lat="44.98125" lon="5.46261">
        <ele>1335</ele>
        <time>2021-10-09T10:57:38Z</time>
      </trkpt>
      <trkpt lat="44.98126" lon="5.46262">
        <ele>1336</ele>
        <time>2021-10-09T10:57:39Z</time>
      </trkpt>
      <trkpt lat="44.98127" lon="5.46263">
        <ele>1336</ele>
        <time>2021-10-09T10:57:40Z</time>
      </trkpt>
      <trkpt lat="44.98128" lon="5.46265">
        <ele>1336</ele>
        <time>2021-10-09T10:57:41Z</time>
      </trkpt>
      <trkpt lat="44.98129" lon="5.46265">
        <ele>1336</ele>
        <time>2021-10-09T10:57:42Z</time>
      </trkpt>
      <trkpt lat="44.9813" lon="5.46267">
        <ele>1337</ele>
        <time>2021-10-09T10:57:43Z</time>
      </trkpt>
      <trkpt lat="44.98131" lon="5.46268">
        <ele>1336.8</ele>
        <time>2021-10-09T10:57:44Z</time>
      </trkpt>
      <trkpt lat="44.98132" lon="5.46269">
        <ele>1336.8</ele>
        <time>2021-10-09T10:57:45Z</time>
      </trkpt>
      <trkpt lat="44.98132" lon="5.46271">
        <ele>1336.8</ele>
        <time>2021-10-09T10:57:46Z</time>
      </trkpt>
      <trkpt lat="44.98133" lon="5.46272">
        <ele>1337.2</ele>
        <time>2021-10-09T10:57:47Z</time>
      </trkpt>
      <trkpt lat="44.98134" lon="5.46274">
        <ele>1337.4</ele>
        <time>2021-10-09T10:57:48Z</time>
      </trkpt>
      <trkpt lat="44.98134" lon="5.46275">
        <ele>1337.4</ele>
        <time>2021-10-09T10:57:49Z</time>
      </trkpt>
      <trkpt lat="44.98135" lon="5.46277">
        <ele>1337.4</ele>
        <time>2021-10-09T10:57:50Z</time>
      </trkpt>
      <trkpt lat="44.98136" lon="5.46278">
        <ele>1337.8</ele>
        <time>2021-10-09T10:57:51Z</time>
      </trkpt>
      <trkpt lat="44.98136" lon="5.4628">
        <ele>1338.6</ele>
        <time>2021-10-09T10:57:52Z</time>
      </trkpt>
      <trkpt lat="44.98137" lon="5.46281">
        <ele>1338.6</ele>
        <time>2021-10-09T10:57:53Z</time>
      </trkpt>
      <trkpt lat="44.98138" lon="5.46282">
        <ele>1338.6</ele>
        <time>2021-10-09T10:57:54Z</time>
      </trkpt>
      <trkpt lat="44.98139" lon="5.46283">
        <ele>1338.6</ele>
        <time>2021-10-09T10:57:55Z</time>
      </trkpt>
      <trkpt lat="44.98139" lon="5.46285">
        <ele>1339</ele>
        <time>2021-10-09T10:57:56Z</time>
      </trkpt>
      <trkpt lat="44.9814" lon="5.46286">
        <ele>1339</ele>
        <time>2021-10-09T10:57:57Z</time>
      </trkpt>
      <trkpt lat="44.9814" lon="5.46288">
        <ele>1339</ele>
        <time>2021-10-09T10:57:58Z</time>
      </trkpt>
      <trkpt lat="44.98141" lon="5.46289">
        <ele>1339</ele>
        <time>2021-10-09T10:57:59Z</time>
      </trkpt>
      <trkpt lat="44.98142" lon="5.4629">
        <ele>1339.6</ele>
        <time>2021-10-09T10:58:00Z</time>
      </trkpt>
      <trkpt lat="44.98143" lon="5.46291">
        <ele>1339.6</ele>
        <time>2021-10-09T10:58:01Z</time>
      </trkpt>
      <trkpt lat="44.98143" lon="5.46292">
        <ele>1339.6</ele>
        <time>2021-10-09T10:58:02Z</time>
      </trkpt>
      <trkpt lat="44.98144" lon="5.46293">
        <ele>1339.6</ele>
        <time>2021-10-09T10:58:03Z</time>
      </trkpt>
      <trkpt lat="44.98145" lon="5.46294">
        <ele>1340.2</ele>
        <time>2021-10-09T10:58:04Z</time>
      </trkpt>
      <trkpt lat="44.98145" lon="5.46295">
        <ele>1340.2</ele>
        <time>2021-10-09T10:58:05Z</time>
      </trkpt>
      <trkpt lat="44.98146" lon="5.46297">
        <ele>1340.2</ele>
        <time>2021-10-09T10:58:06Z</time>
      </trkpt>
      <trkpt lat="44.98147" lon="5.46298">
        <ele>1340.2</ele>
        <time>2021-10-09T10:58:07Z</time>
      </trkpt>
      <trkpt lat="44.98147" lon="5.463">
        <ele>1340.6</ele>
        <time>2021-10-09T10:58:08Z</time>
      </trkpt>
      <trkpt lat="44.98147" lon="5.46301">
        <ele>1340.6</ele>
        <time>2021-10-09T10:58:09Z</time>
      </trkpt>
      <trkpt lat="44.98147" lon="5.46302">
        <ele>1340.6</ele>
        <time>2021-10-09T10:58:10Z</time>
      </trkpt>
      <trkpt lat="44.98148" lon="5.46303">
        <ele>1340.6</ele>
        <time>2021-10-09T10:58:11Z</time>
      </trkpt>
      <trkpt lat="44.98149" lon="5.46304">
        <ele>1340.8</ele>
        <time>2021-10-09T10:58:12Z</time>
      </trkpt>
      <trkpt lat="44.9815" lon="5.46305">
        <ele>1340.8</ele>
        <time>2021-10-09T10:58:13Z</time>
      </trkpt>
      <trkpt lat="44.9815" lon="5.46307">
        <ele>1340.8</ele>
        <time>2021-10-09T10:58:14Z</time>
      </trkpt>
      <trkpt lat="44.98151" lon="5.46308">
        <ele>1340.8</ele>
        <time>2021-10-09T10:58:15Z</time>
      </trkpt>
      <trkpt lat="44.98151" lon="5.46309">
        <ele>1341.2</ele>
        <time>2021-10-09T10:58:16Z</time>
      </trkpt>
      <trkpt lat="44.98152" lon="5.46311">
        <ele>1341.2</ele>
        <time>2021-10-09T10:58:17Z</time>
      </trkpt>
      <trkpt lat="44.98153" lon="5.46312">
        <ele>1341.2</ele>
        <time>2021-10-09T10:58:18Z</time>
      </trkpt>
      <trkpt lat="44.98153" lon="5.46314">
        <ele>1341.4</ele>
        <time>2021-10-09T10:58:19Z</time>
      </trkpt>
      <trkpt lat="44.98154" lon="5.46315">
        <ele>1342</ele>
        <time>2021-10-09T10:58:20Z</time>
      </trkpt>
      <trkpt lat="44.98155" lon="5.46316">
        <ele>1342</ele>
        <time>2021-10-09T10:58:21Z</time>
      </trkpt>
      <trkpt lat="44.98155" lon="5.46318">
        <ele>1342</ele>
        <time>2021-10-09T10:58:22Z</time>
      </trkpt>
      <trkpt lat="44.98156" lon="5.46319">
        <ele>1342</ele>
        <time>2021-10-09T10:58:23Z</time>
      </trkpt>
      <trkpt lat="44.98157" lon="5.46321">
        <ele>1342.4</ele>
        <time>2021-10-09T10:58:24Z</time>
      </trkpt>
      <trkpt lat="44.98158" lon="5.46322">
        <ele>1342.4</ele>
        <time>2021-10-09T10:58:25Z</time>
      </trkpt>
      <trkpt lat="44.98159" lon="5.46323">
        <ele>1342.4</ele>
        <time>2021-10-09T10:58:26Z</time>
      </trkpt>
      <trkpt lat="44.9816" lon="5.46324">
        <ele>1342.4</ele>
        <time>2021-10-09T10:58:27Z</time>
      </trkpt>
      <trkpt lat="44.98161" lon="5.46325">
        <ele>1342.6</ele>
        <time>2021-10-09T10:58:28Z</time>
      </trkpt>
      <trkpt lat="44.98162" lon="5.46327">
        <ele>1342.6</ele>
        <time>2021-10-09T10:58:29Z</time>
      </trkpt>
      <trkpt lat="44.98162" lon="5.46329">
        <ele>1342.6</ele>
        <time>2021-10-09T10:58:30Z</time>
      </trkpt>
      <trkpt lat="44.98163" lon="5.46331">
        <ele>1342.6</ele>
        <time>2021-10-09T10:58:31Z</time>
      </trkpt>
      <trkpt lat="44.98163" lon="5.46332">
        <ele>1343</ele>
        <time>2021-10-09T10:58:32Z</time>
      </trkpt>
      <trkpt lat="44.98164" lon="5.46334">
        <ele>1343</ele>
        <time>2021-10-09T10:58:33Z</time>
      </trkpt>
      <trkpt lat="44.98164" lon="5.46335">
        <ele>1343</ele>
        <time>2021-10-09T10:58:34Z</time>
      </trkpt>
      <trkpt lat="44.98165" lon="5.46337">
        <ele>1343.6</ele>
        <time>2021-10-09T10:58:35Z</time>
      </trkpt>
      <trkpt lat="44.98166" lon="5.46339">
        <ele>1344</ele>
        <time>2021-10-09T10:58:36Z</time>
      </trkpt>
      <trkpt lat="44.98166" lon="5.4634">
        <ele>1344</ele>
        <time>2021-10-09T10:58:37Z</time>
      </trkpt>
      <trkpt lat="44.98167" lon="5.46342">
        <ele>1344</ele>
        <time>2021-10-09T10:58:38Z</time>
      </trkpt>
      <trkpt lat="44.98168" lon="5.46343">
        <ele>1344</ele>
        <time>2021-10-09T10:58:39Z</time>
      </trkpt>
      <trkpt lat="44.98168" lon="5.46345">
        <ele>1344.4</ele>
        <time>2021-10-09T10:58:40Z</time>
      </trkpt>
      <trkpt lat="44.98169" lon="5.46346">
        <ele>1344.4</ele>
        <time>2021-10-09T10:58:41Z</time>
      </trkpt>
      <trkpt lat="44.9817" lon="5.46347">
        <ele>1344.4</ele>
        <time>2021-10-09T10:58:42Z</time>
      </trkpt>
      <trkpt lat="44.98171" lon="5.46349">
        <ele>1344.8</ele>
        <time>2021-10-09T10:58:43Z</time>
      </trkpt>
      <trkpt lat="44.98172" lon="5.4635">
        <ele>1344.6</ele>
        <time>2021-10-09T10:58:44Z</time>
      </trkpt>
      <trkpt lat="44.98173" lon="5.46351">
        <ele>1344.6</ele>
        <time>2021-10-09T10:58:45Z</time>
      </trkpt>
      <trkpt lat="44.98173" lon="5.46352">
        <ele>1344.6</ele>
        <time>2021-10-09T10:58:46Z</time>
      </trkpt>
      <trkpt lat="44.98175" lon="5.46353">
        <ele>1345.2</ele>
        <time>2021-10-09T10:58:47Z</time>
      </trkpt>
      <trkpt lat="44.98176" lon="5.46354">
        <ele>1345.2</ele>
        <time>2021-10-09T10:58:48Z</time>
      </trkpt>
      <trkpt lat="44.98176" lon="5.46356">
        <ele>1345.2</ele>
        <time>2021-10-09T10:58:49Z</time>
      </trkpt>
      <trkpt lat="44.98177" lon="5.46358">
        <ele>1345.2</ele>
        <time>2021-10-09T10:58:50Z</time>
      </trkpt>
      <trkpt lat="44.98177" lon="5.46359">
        <ele>1345.2</ele>
        <time>2021-10-09T10:58:51Z</time>
      </trkpt>
      <trkpt lat="44.98179" lon="5.4636">
        <ele>1345.6</ele>
        <time>2021-10-09T10:58:52Z</time>
      </trkpt>
      <trkpt lat="44.98179" lon="5.46361">
        <ele>1345.6</ele>
        <time>2021-10-09T10:58:53Z</time>
      </trkpt>
      <trkpt lat="44.9818" lon="5.46363">
        <ele>1345.6</ele>
        <time>2021-10-09T10:58:54Z</time>
      </trkpt>
      <trkpt lat="44.98181" lon="5.46364">
        <ele>1346.2</ele>
        <time>2021-10-09T10:58:55Z</time>
      </trkpt>
      <trkpt lat="44.98182" lon="5.46365">
        <ele>1346.6</ele>
        <time>2021-10-09T10:58:56Z</time>
      </trkpt>
      <trkpt lat="44.98183" lon="5.46367">
        <ele>1346.6</ele>
        <time>2021-10-09T10:58:57Z</time>
      </trkpt>
      <trkpt lat="44.98184" lon="5.46368">
        <ele>1346.6</ele>
        <time>2021-10-09T10:58:58Z</time>
      </trkpt>
      <trkpt lat="44.98185" lon="5.4637">
        <ele>1346.6</ele>
        <time>2021-10-09T10:58:59Z</time>
      </trkpt>
      <trkpt lat="44.98185" lon="5.46371">
        <ele>1346.2</ele>
        <time>2021-10-09T10:59:00Z</time>
      </trkpt>
      <trkpt lat="44.98186" lon="5.46372">
        <ele>1346.2</ele>
        <time>2021-10-09T10:59:01Z</time>
      </trkpt>
      <trkpt lat="44.98187" lon="5.46374">
        <ele>1346.2</ele>
        <time>2021-10-09T10:59:02Z</time>
      </trkpt>
      <trkpt lat="44.98188" lon="5.46375">
        <ele>1346.6</ele>
        <time>2021-10-09T10:59:03Z</time>
      </trkpt>
      <trkpt lat="44.98189" lon="5.46377">
        <ele>1347.2</ele>
        <time>2021-10-09T10:59:04Z</time>
      </trkpt>
      <trkpt lat="44.9819" lon="5.46378">
        <ele>1347.2</ele>
        <time>2021-10-09T10:59:05Z</time>
      </trkpt>
      <trkpt lat="44.9819" lon="5.4638">
        <ele>1347.2</ele>
        <time>2021-10-09T10:59:06Z</time>
      </trkpt>
      <trkpt lat="44.98191" lon="5.46381">
        <ele>1348.2</ele>
        <time>2021-10-09T10:59:07Z</time>
      </trkpt>
      <trkpt lat="44.98192" lon="5.46382">
        <ele>1348.2</ele>
        <time>2021-10-09T10:59:08Z</time>
      </trkpt>
      <trkpt lat="44.98193" lon="5.46383">
        <ele>1348.2</ele>
        <time>2021-10-09T10:59:09Z</time>
      </trkpt>
      <trkpt lat="44.98194" lon="5.46384">
        <ele>1348.2</ele>
        <time>2021-10-09T10:59:10Z</time>
      </trkpt>
      <trkpt lat="44.98194" lon="5.46386">
        <ele>1348.2</ele>
        <time>2021-10-09T10:59:11Z</time>
      </trkpt>
      <trkpt lat="44.98195" lon="5.46387">
        <ele>1349</ele>
        <time>2021-10-09T10:59:12Z</time>
      </trkpt>
      <trkpt lat="44.98196" lon="5.46389">
        <ele>1349</ele>
        <time>2021-10-09T10:59:13Z</time>
      </trkpt>
      <trkpt lat="44.98196" lon="5.4639">
        <ele>1349</ele>
        <time>2021-10-09T10:59:14Z</time>
      </trkpt>
      <trkpt lat="44.98198" lon="5.46391">
        <ele>1349</ele>
        <time>2021-10-09T10:59:15Z</time>
      </trkpt>
      <trkpt lat="44.98199" lon="5.46392">
        <ele>1349.4</ele>
        <time>2021-10-09T10:59:16Z</time>
      </trkpt>
      <trkpt lat="44.982" lon="5.46393">
        <ele>1349.4</ele>
        <time>2021-10-09T10:59:17Z</time>
      </trkpt>
      <trkpt lat="44.982" lon="5.46395">
        <ele>1349.4</ele>
        <time>2021-10-09T10:59:18Z</time>
      </trkpt>
      <trkpt lat="44.98201" lon="5.46396">
        <ele>1349.8</ele>
        <time>2021-10-09T10:59:19Z</time>
      </trkpt>
      <trkpt lat="44.98202" lon="5.46397">
        <ele>1349.8</ele>
        <time>2021-10-09T10:59:20Z</time>
      </trkpt>
      <trkpt lat="44.98202" lon="5.46399">
        <ele>1349.8</ele>
        <time>2021-10-09T10:59:21Z</time>
      </trkpt>
      <trkpt lat="44.98203" lon="5.464">
        <ele>1349.8</ele>
        <time>2021-10-09T10:59:22Z</time>
      </trkpt>
      <trkpt lat="44.98204" lon="5.46401">
        <ele>1349.8</ele>
        <time>2021-10-09T10:59:23Z</time>
      </trkpt>
      <trkpt lat="44.98205" lon="5.46403">
        <ele>1350.6</ele>
        <time>2021-10-09T10:59:24Z</time>
      </trkpt>
      <trkpt lat="44.98206" lon="5.46404">
        <ele>1350.6</ele>
        <time>2021-10-09T10:59:25Z</time>
      </trkpt>
      <trkpt lat="44.98207" lon="5.46405">
        <ele>1350.6</ele>
        <time>2021-10-09T10:59:26Z</time>
      </trkpt>
      <trkpt lat="44.98208" lon="5.46406">
        <ele>1351.6</ele>
        <time>2021-10-09T10:59:27Z</time>
      </trkpt>
      <trkpt lat="44.98209" lon="5.46407">
        <ele>1351.4</ele>
        <time>2021-10-09T10:59:28Z</time>
      </trkpt>
      <trkpt lat="44.98209" lon="5.46408">
        <ele>1351.4</ele>
        <time>2021-10-09T10:59:29Z</time>
      </trkpt>
      <trkpt lat="44.98211" lon="5.46409">
        <ele>1351.4</ele>
        <time>2021-10-09T10:59:30Z</time>
      </trkpt>
      <trkpt lat="44.98212" lon="5.4641">
        <ele>1352.2</ele>
        <time>2021-10-09T10:59:31Z</time>
      </trkpt>
      <trkpt lat="44.98213" lon="5.46411">
        <ele>1352.2</ele>
        <time>2021-10-09T10:59:32Z</time>
      </trkpt>
      <trkpt lat="44.98213" lon="5.46412">
        <ele>1352.2</ele>
        <time>2021-10-09T10:59:33Z</time>
      </trkpt>
      <trkpt lat="44.98214" lon="5.46413">
        <ele>1352.2</ele>
        <time>2021-10-09T10:59:34Z</time>
      </trkpt>
      <trkpt lat="44.98216" lon="5.46414">
        <ele>1352.2</ele>
        <time>2021-10-09T10:59:35Z</time>
      </trkpt>
      <trkpt lat="44.98217" lon="5.46415">
        <ele>1352.4</ele>
        <time>2021-10-09T10:59:36Z</time>
      </trkpt>
      <trkpt lat="44.98218" lon="5.46416">
        <ele>1352.4</ele>
        <time>2021-10-09T10:59:37Z</time>
      </trkpt>
      <trkpt lat="44.98218" lon="5.46417">
        <ele>1352.4</ele>
        <time>2021-10-09T10:59:38Z</time>
      </trkpt>
      <trkpt lat="44.98219" lon="5.46419">
        <ele>1353.4</ele>
        <time>2021-10-09T10:59:39Z</time>
      </trkpt>
      <trkpt lat="44.9822" lon="5.4642">
        <ele>1353.4</ele>
        <time>2021-10-09T10:59:40Z</time>
      </trkpt>
      <trkpt lat="44.9822" lon="5.46422">
        <ele>1353.4</ele>
        <time>2021-10-09T10:59:41Z</time>
      </trkpt>
      <trkpt lat="44.98221" lon="5.46423">
        <ele>1353.4</ele>
        <time>2021-10-09T10:59:42Z</time>
      </trkpt>
      <trkpt lat="44.98222" lon="5.46425">
        <ele>1354.2</ele>
        <time>2021-10-09T10:59:43Z</time>
      </trkpt>
      <trkpt lat="44.98222" lon="5.46426">
        <ele>1354.2</ele>
        <time>2021-10-09T10:59:44Z</time>
      </trkpt>
      <trkpt lat="44.98223" lon="5.46427">
        <ele>1354.2</ele>
        <time>2021-10-09T10:59:45Z</time>
      </trkpt>
      <trkpt lat="44.98224" lon="5.46428">
        <ele>1354.2</ele>
        <time>2021-10-09T10:59:46Z</time>
      </trkpt>
      <trkpt lat="44.98224" lon="5.4643">
        <ele>1355.2</ele>
        <time>2021-10-09T10:59:47Z</time>
      </trkpt>
      <trkpt lat="44.98225" lon="5.46431">
        <ele>1355.2</ele>
        <time>2021-10-09T10:59:48Z</time>
      </trkpt>
      <trkpt lat="44.98225" lon="5.46432">
        <ele>1355.2</ele>
        <time>2021-10-09T10:59:49Z</time>
      </trkpt>
      <trkpt lat="44.98225" lon="5.46434">
        <ele>1355.2</ele>
        <time>2021-10-09T10:59:50Z</time>
      </trkpt>
      <trkpt lat="44.98226" lon="5.46435">
        <ele>1355.8</ele>
        <time>2021-10-09T10:59:51Z</time>
      </trkpt>
      <trkpt lat="44.98227" lon="5.46436">
        <ele>1355.8</ele>
        <time>2021-10-09T10:59:52Z</time>
      </trkpt>
      <trkpt lat="44.98227" lon="5.46438">
        <ele>1355.8</ele>
        <time>2021-10-09T10:59:53Z</time>
      </trkpt>
      <trkpt lat="44.98228" lon="5.46439">
        <ele>1355.8</ele>
        <time>2021-10-09T10:59:54Z</time>
      </trkpt>
      <trkpt lat="44.98229" lon="5.46441">
        <ele>1355.8</ele>
        <time>2021-10-09T10:59:55Z</time>
      </trkpt>
      <trkpt lat="44.9823" lon="5.46442">
        <ele>1357.2</ele>
        <time>2021-10-09T10:59:56Z</time>
      </trkpt>
      <trkpt lat="44.9823" lon="5.46443">
        <ele>1357.2</ele>
        <time>2021-10-09T10:59:57Z</time>
      </trkpt>
      <trkpt lat="44.98231" lon="5.46443">
        <ele>1357.2</ele>
        <time>2021-10-09T10:59:58Z</time>
      </trkpt>
      <trkpt lat="44.98232" lon="5.46444">
        <ele>1357.2</ele>
        <time>2021-10-09T10:59:59Z</time>
      </trkpt>
      <trkpt lat="44.98234" lon="5.46445">
        <ele>1357.2</ele>
        <time>2021-10-09T11:00:00Z</time>
      </trkpt>
      <trkpt lat="44.98235" lon="5.46446">
        <ele>1357.2</ele>
        <time>2021-10-09T11:00:01Z</time>
      </trkpt>
      <trkpt lat="44.98236" lon="5.46447">
        <ele>1357.2</ele>
        <time>2021-10-09T11:00:02Z</time>
      </trkpt>
      <trkpt lat="44.98237" lon="5.46448">
        <ele>1357.6</ele>
        <time>2021-10-09T11:00:03Z</time>
      </trkpt>
      <trkpt lat="44.98238" lon="5.46449">
        <ele>1357.8</ele>
        <time>2021-10-09T11:00:04Z</time>
      </trkpt>
      <trkpt lat="44.98239" lon="5.46449">
        <ele>1357.8</ele>
        <time>2021-10-09T11:00:05Z</time>
      </trkpt>
      <trkpt lat="44.9824" lon="5.46451">
        <ele>1357.8</ele>
        <time>2021-10-09T11:00:06Z</time>
      </trkpt>
      <trkpt lat="44.9824" lon="5.46452">
        <ele>1358.8</ele>
        <time>2021-10-09T11:00:07Z</time>
      </trkpt>
      <trkpt lat="44.98241" lon="5.46452">
        <ele>1359</ele>
        <time>2021-10-09T11:00:08Z</time>
      </trkpt>
      <trkpt lat="44.98242" lon="5.46453">
        <ele>1359</ele>
        <time>2021-10-09T11:00:09Z</time>
      </trkpt>
      <trkpt lat="44.98243" lon="5.46454">
        <ele>1359</ele>
        <time>2021-10-09T11:00:10Z</time>
      </trkpt>
      <trkpt lat="44.98244" lon="5.46456">
        <ele>1359</ele>
        <time>2021-10-09T11:00:11Z</time>
      </trkpt>
      <trkpt lat="44.98245" lon="5.46457">
        <ele>1359.4</ele>
        <time>2021-10-09T11:00:12Z</time>
      </trkpt>
      <trkpt lat="44.98245" lon="5.46458">
        <ele>1359.4</ele>
        <time>2021-10-09T11:00:13Z</time>
      </trkpt>
      <trkpt lat="44.98246" lon="5.46459">
        <ele>1359.4</ele>
        <time>2021-10-09T11:00:14Z</time>
      </trkpt>
      <trkpt lat="44.98247" lon="5.4646">
        <ele>1360</ele>
        <time>2021-10-09T11:00:15Z</time>
      </trkpt>
      <trkpt lat="44.98248" lon="5.46461">
        <ele>1360</ele>
        <time>2021-10-09T11:00:16Z</time>
      </trkpt>
      <trkpt lat="44.98249" lon="5.46462">
        <ele>1360</ele>
        <time>2021-10-09T11:00:17Z</time>
      </trkpt>
      <trkpt lat="44.9825" lon="5.46463">
        <ele>1360</ele>
        <time>2021-10-09T11:00:18Z</time>
      </trkpt>
      <trkpt lat="44.9825" lon="5.46464">
        <ele>1360</ele>
        <time>2021-10-09T11:00:19Z</time>
      </trkpt>
      <trkpt lat="44.98251" lon="5.46465">
        <ele>1360.8</ele>
        <time>2021-10-09T11:00:20Z</time>
      </trkpt>
      <trkpt lat="44.98252" lon="5.46466">
        <ele>1360.8</ele>
        <time>2021-10-09T11:00:21Z</time>
      </trkpt>
      <trkpt lat="44.98253" lon="5.46467">
        <ele>1360.8</ele>
        <time>2021-10-09T11:00:22Z</time>
      </trkpt>
      <trkpt lat="44.98254" lon="5.46468">
        <ele>1360.8</ele>
        <time>2021-10-09T11:00:23Z</time>
      </trkpt>
      <trkpt lat="44.98255" lon="5.46469">
        <ele>1361.4</ele>
        <time>2021-10-09T11:00:24Z</time>
      </trkpt>
      <trkpt lat="44.98256" lon="5.46471">
        <ele>1361.4</ele>
        <time>2021-10-09T11:00:25Z</time>
      </trkpt>
      <trkpt lat="44.98256" lon="5.46472">
        <ele>1361.4</ele>
        <time>2021-10-09T11:00:26Z</time>
      </trkpt>
      <trkpt lat="44.98257" lon="5.46473">
        <ele>1361.4</ele>
        <time>2021-10-09T11:00:27Z</time>
      </trkpt>
      <trkpt lat="44.98258" lon="5.46474">
        <ele>1361.8</ele>
        <time>2021-10-09T11:00:28Z</time>
      </trkpt>
      <trkpt lat="44.98259" lon="5.46475">
        <ele>1361.8</ele>
        <time>2021-10-09T11:00:29Z</time>
      </trkpt>
      <trkpt lat="44.9826" lon="5.46476">
        <ele>1361.8</ele>
        <time>2021-10-09T11:00:30Z</time>
      </trkpt>
      <trkpt lat="44.98261" lon="5.46477">
        <ele>1361.8</ele>
        <time>2021-10-09T11:00:31Z</time>
      </trkpt>
      <trkpt lat="44.98262" lon="5.46478">
        <ele>1362.4</ele>
        <time>2021-10-09T11:00:32Z</time>
      </trkpt>
      <trkpt lat="44.98262" lon="5.4648">
        <ele>1362.4</ele>
        <time>2021-10-09T11:00:33Z</time>
      </trkpt>
      <trkpt lat="44.98263" lon="5.46481">
        <ele>1362.4</ele>
        <time>2021-10-09T11:00:34Z</time>
      </trkpt>
      <trkpt lat="44.98263" lon="5.46482">
        <ele>1362.4</ele>
        <time>2021-10-09T11:00:35Z</time>
      </trkpt>
      <trkpt lat="44.98264" lon="5.46483">
        <ele>1363.2</ele>
        <time>2021-10-09T11:00:36Z</time>
      </trkpt>
      <trkpt lat="44.98265" lon="5.46485">
        <ele>1363.2</ele>
        <time>2021-10-09T11:00:37Z</time>
      </trkpt>
      <trkpt lat="44.98265" lon="5.46486">
        <ele>1363.2</ele>
        <time>2021-10-09T11:00:38Z</time>
      </trkpt>
      <trkpt lat="44.98266" lon="5.46487">
        <ele>1363.4</ele>
        <time>2021-10-09T11:00:39Z</time>
      </trkpt>
      <trkpt lat="44.98266" lon="5.46489">
        <ele>1363.6</ele>
        <time>2021-10-09T11:00:40Z</time>
      </trkpt>
      <trkpt lat="44.98267" lon="5.4649">
        <ele>1363.6</ele>
        <time>2021-10-09T11:00:41Z</time>
      </trkpt>
      <trkpt lat="44.98267" lon="5.46492">
        <ele>1363.6</ele>
        <time>2021-10-09T11:00:42Z</time>
      </trkpt>
      <trkpt lat="44.98268" lon="5.46493">
        <ele>1363.6</ele>
        <time>2021-10-09T11:00:43Z</time>
      </trkpt>
      <trkpt lat="44.98268" lon="5.46495">
        <ele>1364.2</ele>
        <time>2021-10-09T11:00:44Z</time>
      </trkpt>
      <trkpt lat="44.98268" lon="5.46496">
        <ele>1364.2</ele>
        <time>2021-10-09T11:00:45Z</time>
      </trkpt>
      <trkpt lat="44.98269" lon="5.46498">
        <ele>1364.2</ele>
        <time>2021-10-09T11:00:46Z</time>
      </trkpt>
      <trkpt lat="44.98269" lon="5.46499">
        <ele>1365</ele>
        <time>2021-10-09T11:00:47Z</time>
      </trkpt>
      <trkpt lat="44.9827" lon="5.465">
        <ele>1364.4</ele>
        <time>2021-10-09T11:00:48Z</time>
      </trkpt>
      <trkpt lat="44.9827" lon="5.46502">
        <ele>1364.4</ele>
        <time>2021-10-09T11:00:49Z</time>
      </trkpt>
      <trkpt lat="44.98271" lon="5.46503">
        <ele>1364.4</ele>
        <time>2021-10-09T11:00:50Z</time>
      </trkpt>
      <trkpt lat="44.98271" lon="5.46505">
        <ele>1364.8</ele>
        <time>2021-10-09T11:00:51Z</time>
      </trkpt>
      <trkpt lat="44.98272" lon="5.46506">
        <ele>1365.2</ele>
        <time>2021-10-09T11:00:52Z</time>
      </trkpt>
      <trkpt lat="44.98273" lon="5.46507">
        <ele>1365.2</ele>
        <time>2021-10-09T11:00:53Z</time>
      </trkpt>
      <trkpt lat="44.98273" lon="5.46509">
        <ele>1365.2</ele>
        <time>2021-10-09T11:00:54Z</time>
      </trkpt>
      <trkpt lat="44.98274" lon="5.4651">
        <ele>1365.2</ele>
        <time>2021-10-09T11:00:55Z</time>
      </trkpt>
      <trkpt lat="44.98275" lon="5.46512">
        <ele>1366.4</ele>
        <time>2021-10-09T11:00:56Z</time>
      </trkpt>
      <trkpt lat="44.98276" lon="5.46513">
        <ele>1366.4</ele>
        <time>2021-10-09T11:00:57Z</time>
      </trkpt>
      <trkpt lat="44.98277" lon="5.46514">
        <ele>1366.4</ele>
        <time>2021-10-09T11:00:58Z</time>
      </trkpt>
      <trkpt lat="44.98277" lon="5.46515">
        <ele>1366.4</ele>
        <time>2021-10-09T11:00:59Z</time>
      </trkpt>
      <trkpt lat="44.98278" lon="5.46516">
        <ele>1366.8</ele>
        <time>2021-10-09T11:01:00Z</time>
      </trkpt>
      <trkpt lat="44.98279" lon="5.46517">
        <ele>1366.8</ele>
        <time>2021-10-09T11:01:01Z</time>
      </trkpt>
      <trkpt lat="44.9828" lon="5.46517">
        <ele>1366.8</ele>
        <time>2021-10-09T11:01:02Z</time>
      </trkpt>
      <trkpt lat="44.98282" lon="5.46518">
        <ele>1367.2</ele>
        <time>2021-10-09T11:01:03Z</time>
      </trkpt>
      <trkpt lat="44.98283" lon="5.46519">
        <ele>1367.4</ele>
        <time>2021-10-09T11:01:04Z</time>
      </trkpt>
      <trkpt lat="44.98283" lon="5.4652">
        <ele>1367.4</ele>
        <time>2021-10-09T11:01:05Z</time>
      </trkpt>
      <trkpt lat="44.98284" lon="5.46521">
        <ele>1367.4</ele>
        <time>2021-10-09T11:01:06Z</time>
      </trkpt>
      <trkpt lat="44.98285" lon="5.46522">
        <ele>1367.8</ele>
        <time>2021-10-09T11:01:07Z</time>
      </trkpt>
      <trkpt lat="44.98286" lon="5.46523">
        <ele>1368</ele>
        <time>2021-10-09T11:01:08Z</time>
      </trkpt>
      <trkpt lat="44.98287" lon="5.46524">
        <ele>1368</ele>
        <time>2021-10-09T11:01:09Z</time>
      </trkpt>
      <trkpt lat="44.98288" lon="5.46525">
        <ele>1368</ele>
        <time>2021-10-09T11:01:10Z</time>
      </trkpt>
      <trkpt lat="44.98288" lon="5.46526">
        <ele>1369</ele>
        <time>2021-10-09T11:01:11Z</time>
      </trkpt>
      <trkpt lat="44.98289" lon="5.46527">
        <ele>1369</ele>
        <time>2021-10-09T11:01:12Z</time>
      </trkpt>
      <trkpt lat="44.9829" lon="5.46528">
        <ele>1369</ele>
        <time>2021-10-09T11:01:13Z</time>
      </trkpt>
      <trkpt lat="44.98291" lon="5.46529">
        <ele>1369</ele>
        <time>2021-10-09T11:01:14Z</time>
      </trkpt>
      <trkpt lat="44.98292" lon="5.4653">
        <ele>1369.2</ele>
        <time>2021-10-09T11:01:15Z</time>
      </trkpt>
      <trkpt lat="44.98292" lon="5.46532">
        <ele>1369.6</ele>
        <time>2021-10-09T11:01:16Z</time>
      </trkpt>
      <trkpt lat="44.98294" lon="5.46533">
        <ele>1369.6</ele>
        <time>2021-10-09T11:01:17Z</time>
      </trkpt>
      <trkpt lat="44.98295" lon="5.46534">
        <ele>1369.6</ele>
        <time>2021-10-09T11:01:18Z</time>
      </trkpt>
      <trkpt lat="44.98295" lon="5.46535">
        <ele>1370.6</ele>
        <time>2021-10-09T11:01:19Z</time>
      </trkpt>
      <trkpt lat="44.98296" lon="5.46536">
        <ele>1371.2</ele>
        <time>2021-10-09T11:01:20Z</time>
      </trkpt>
      <trkpt lat="44.98297" lon="5.46537">
        <ele>1371.2</ele>
        <time>2021-10-09T11:01:21Z</time>
      </trkpt>
      <trkpt lat="44.98298" lon="5.46538">
        <ele>1371.2</ele>
        <time>2021-10-09T11:01:22Z</time>
      </trkpt>
      <trkpt lat="44.98299" lon="5.46539">
        <ele>1371.2</ele>
        <time>2021-10-09T11:01:23Z</time>
      </trkpt>
      <trkpt lat="44.983" lon="5.4654">
        <ele>1371.4</ele>
        <time>2021-10-09T11:01:24Z</time>
      </trkpt>
      <trkpt lat="44.98302" lon="5.4654">
        <ele>1371.4</ele>
        <time>2021-10-09T11:01:25Z</time>
      </trkpt>
      <trkpt lat="44.98303" lon="5.46542">
        <ele>1371.4</ele>
        <time>2021-10-09T11:01:26Z</time>
      </trkpt>
      <trkpt lat="44.98304" lon="5.46543">
        <ele>1371.4</ele>
        <time>2021-10-09T11:01:27Z</time>
      </trkpt>
      <trkpt lat="44.98304" lon="5.46544">
        <ele>1372.4</ele>
        <time>2021-10-09T11:01:28Z</time>
      </trkpt>
      <trkpt lat="44.98306" lon="5.46545">
        <ele>1372.4</ele>
        <time>2021-10-09T11:01:29Z</time>
      </trkpt>
      <trkpt lat="44.98306" lon="5.46546">
        <ele>1372.4</ele>
        <time>2021-10-09T11:01:30Z</time>
      </trkpt>
      <trkpt lat="44.98307" lon="5.46547">
        <ele>1372.8</ele>
        <time>2021-10-09T11:01:31Z</time>
      </trkpt>
      <trkpt lat="44.98308" lon="5.46548">
        <ele>1373.2</ele>
        <time>2021-10-09T11:01:32Z</time>
      </trkpt>
      <trkpt lat="44.98309" lon="5.4655">
        <ele>1373.2</ele>
        <time>2021-10-09T11:01:33Z</time>
      </trkpt>
      <trkpt lat="44.98309" lon="5.46551">
        <ele>1373.2</ele>
        <time>2021-10-09T11:01:34Z</time>
      </trkpt>
      <trkpt lat="44.9831" lon="5.46552">
        <ele>1374.2</ele>
        <time>2021-10-09T11:01:35Z</time>
      </trkpt>
      <trkpt lat="44.98311" lon="5.46553">
        <ele>1374.2</ele>
        <time>2021-10-09T11:01:36Z</time>
      </trkpt>
      <trkpt lat="44.98312" lon="5.46553">
        <ele>1374.2</ele>
        <time>2021-10-09T11:01:37Z</time>
      </trkpt>
      <trkpt lat="44.98313" lon="5.46555">
        <ele>1374.2</ele>
        <time>2021-10-09T11:01:38Z</time>
      </trkpt>
      <trkpt lat="44.98313" lon="5.46556">
        <ele>1374.4</ele>
        <time>2021-10-09T11:01:39Z</time>
      </trkpt>
      <trkpt lat="44.98314" lon="5.46557">
        <ele>1374.6</ele>
        <time>2021-10-09T11:01:40Z</time>
      </trkpt>
      <trkpt lat="44.98314" lon="5.46559">
        <ele>1374.6</ele>
        <time>2021-10-09T11:01:41Z</time>
      </trkpt>
      <trkpt lat="44.98315" lon="5.46559">
        <ele>1374.6</ele>
        <time>2021-10-09T11:01:42Z</time>
      </trkpt>
      <trkpt lat="44.98316" lon="5.4656">
        <ele>1375</ele>
        <time>2021-10-09T11:01:43Z</time>
      </trkpt>
      <trkpt lat="44.98317" lon="5.46561">
        <ele>1375.2</ele>
        <time>2021-10-09T11:01:44Z</time>
      </trkpt>
      <trkpt lat="44.98317" lon="5.46562">
        <ele>1375.2</ele>
        <time>2021-10-09T11:01:45Z</time>
      </trkpt>
      <trkpt lat="44.98318" lon="5.46564">
        <ele>1375.2</ele>
        <time>2021-10-09T11:01:46Z</time>
      </trkpt>
      <trkpt lat="44.98319" lon="5.46565">
        <ele>1375.2</ele>
        <time>2021-10-09T11:01:47Z</time>
      </trkpt>
      <trkpt lat="44.9832" lon="5.46566">
        <ele>1375.8</ele>
        <time>2021-10-09T11:01:48Z</time>
      </trkpt>
      <trkpt lat="44.98321" lon="5.46568">
        <ele>1375.8</ele>
        <time>2021-10-09T11:01:49Z</time>
      </trkpt>
      <trkpt lat="44.98322" lon="5.46569">
        <ele>1375.8</ele>
        <time>2021-10-09T11:01:50Z</time>
      </trkpt>
      <trkpt lat="44.98322" lon="5.4657">
        <ele>1376.6</ele>
        <time>2021-10-09T11:01:51Z</time>
      </trkpt>
      <trkpt lat="44.98323" lon="5.46571">
        <ele>1376.6</ele>
        <time>2021-10-09T11:01:52Z</time>
      </trkpt>
      <trkpt lat="44.98324" lon="5.46573">
        <ele>1376.8</ele>
        <time>2021-10-09T11:01:53Z</time>
      </trkpt>
      <trkpt lat="44.98325" lon="5.46574">
        <ele>1376.8</ele>
        <time>2021-10-09T11:01:54Z</time>
      </trkpt>
      <trkpt lat="44.98325" lon="5.46575">
        <ele>1376.8</ele>
        <time>2021-10-09T11:01:55Z</time>
      </trkpt>
      <trkpt lat="44.98326" lon="5.46576">
        <ele>1377.4</ele>
        <time>2021-10-09T11:01:56Z</time>
      </trkpt>
      <trkpt lat="44.98327" lon="5.46578">
        <ele>1377.4</ele>
        <time>2021-10-09T11:01:57Z</time>
      </trkpt>
      <trkpt lat="44.98328" lon="5.46579">
        <ele>1377.4</ele>
        <time>2021-10-09T11:01:58Z</time>
      </trkpt>
      <trkpt lat="44.98329" lon="5.4658">
        <ele>1377.4</ele>
        <time>2021-10-09T11:01:59Z</time>
      </trkpt>
      <trkpt lat="44.98329" lon="5.46581">
        <ele>1378.4</ele>
        <time>2021-10-09T11:02:00Z</time>
      </trkpt>
      <trkpt lat="44.9833" lon="5.46582">
        <ele>1378.4</ele>
        <time>2021-10-09T11:02:01Z</time>
      </trkpt>
      <trkpt lat="44.9833" lon="5.46584">
        <ele>1378.4</ele>
        <time>2021-10-09T11:02:02Z</time>
      </trkpt>
      <trkpt lat="44.98331" lon="5.46585">
        <ele>1378.4</ele>
        <time>2021-10-09T11:02:03Z</time>
      </trkpt>
      <trkpt lat="44.98332" lon="5.46586">
        <ele>1379.2</ele>
        <time>2021-10-09T11:02:04Z</time>
      </trkpt>
      <trkpt lat="44.98332" lon="5.46588">
        <ele>1379.2</ele>
        <time>2021-10-09T11:02:05Z</time>
      </trkpt>
      <trkpt lat="44.98333" lon="5.46589">
        <ele>1379.2</ele>
        <time>2021-10-09T11:02:06Z</time>
      </trkpt>
      <trkpt lat="44.98333" lon="5.4659">
        <ele>1379.6</ele>
        <time>2021-10-09T11:02:07Z</time>
      </trkpt>
      <trkpt lat="44.98335" lon="5.46591">
        <ele>1380.4</ele>
        <time>2021-10-09T11:02:08Z</time>
      </trkpt>
      <trkpt lat="44.98335" lon="5.46592">
        <ele>1380.4</ele>
        <time>2021-10-09T11:02:09Z</time>
      </trkpt>
      <trkpt lat="44.98336" lon="5.46594">
        <ele>1380.4</ele>
        <time>2021-10-09T11:02:10Z</time>
      </trkpt>
      <trkpt lat="44.98337" lon="5.46595">
        <ele>1381.4</ele>
        <time>2021-10-09T11:02:11Z</time>
      </trkpt>
      <trkpt lat="44.98338" lon="5.46596">
        <ele>1380.8</ele>
        <time>2021-10-09T11:02:12Z</time>
      </trkpt>
      <trkpt lat="44.98338" lon="5.46597">
        <ele>1380.8</ele>
        <time>2021-10-09T11:02:13Z</time>
      </trkpt>
      <trkpt lat="44.98338" lon="5.46599">
        <ele>1380.8</ele>
        <time>2021-10-09T11:02:14Z</time>
      </trkpt>
      <trkpt lat="44.98339" lon="5.466">
        <ele>1381.8</ele>
        <time>2021-10-09T11:02:15Z</time>
      </trkpt>
      <trkpt lat="44.9834" lon="5.466">
        <ele>1382</ele>
        <time>2021-10-09T11:02:16Z</time>
      </trkpt>
      <trkpt lat="44.98342" lon="5.46601">
        <ele>1382</ele>
        <time>2021-10-09T11:02:17Z</time>
      </trkpt>
      <trkpt lat="44.98343" lon="5.46603">
        <ele>1382</ele>
        <time>2021-10-09T11:02:18Z</time>
      </trkpt>
      <trkpt lat="44.98344" lon="5.46603">
        <ele>1382</ele>
        <time>2021-10-09T11:02:19Z</time>
      </trkpt>
      <trkpt lat="44.98345" lon="5.46604">
        <ele>1382.6</ele>
        <time>2021-10-09T11:02:20Z</time>
      </trkpt>
      <trkpt lat="44.98347" lon="5.46605">
        <ele>1382.6</ele>
        <time>2021-10-09T11:02:21Z</time>
      </trkpt>
      <trkpt lat="44.98348" lon="5.46607">
        <ele>1382.6</ele>
        <time>2021-10-09T11:02:22Z</time>
      </trkpt>
      <trkpt lat="44.98348" lon="5.46608">
        <ele>1383.4</ele>
        <time>2021-10-09T11:02:23Z</time>
      </trkpt>
      <trkpt lat="44.98349" lon="5.46609">
        <ele>1383.4</ele>
        <time>2021-10-09T11:02:24Z</time>
      </trkpt>
      <trkpt lat="44.98349" lon="5.4661">
        <ele>1383.4</ele>
        <time>2021-10-09T11:02:25Z</time>
      </trkpt>
      <trkpt lat="44.9835" lon="5.46611">
        <ele>1383.4</ele>
        <time>2021-10-09T11:02:26Z</time>
      </trkpt>
      <trkpt lat="44.98351" lon="5.46613">
        <ele>1383.6</ele>
        <time>2021-10-09T11:02:27Z</time>
      </trkpt>
      <trkpt lat="44.98351" lon="5.46614">
        <ele>1384.6</ele>
        <time>2021-10-09T11:02:28Z</time>
      </trkpt>
      <trkpt lat="44.98351" lon="5.46615">
        <ele>1384.6</ele>
        <time>2021-10-09T11:02:29Z</time>
      </trkpt>
      <trkpt lat="44.98352" lon="5.46617">
        <ele>1384.6</ele>
        <time>2021-10-09T11:02:30Z</time>
      </trkpt>
      <trkpt lat="44.98352" lon="5.46618">
        <ele>1384.6</ele>
        <time>2021-10-09T11:02:31Z</time>
      </trkpt>
      <trkpt lat="44.98353" lon="5.46618">
        <ele>1384.6</ele>
        <time>2021-10-09T11:02:32Z</time>
      </trkpt>
      <trkpt lat="44.98353" lon="5.46619">
        <ele>1384.6</ele>
        <time>2021-10-09T11:02:33Z</time>
      </trkpt>
      <trkpt lat="44.98354" lon="5.4662">
        <ele>1384.6</ele>
        <time>2021-10-09T11:02:34Z</time>
      </trkpt>
      <trkpt lat="44.98355" lon="5.46621">
        <ele>1384.8</ele>
        <time>2021-10-09T11:02:35Z</time>
      </trkpt>
      <trkpt lat="44.98356" lon="5.46622">
        <ele>1384.8</ele>
        <time>2021-10-09T11:02:36Z</time>
      </trkpt>
      <trkpt lat="44.98356" lon="5.46623">
        <ele>1384.8</ele>
        <time>2021-10-09T11:02:37Z</time>
      </trkpt>
      <trkpt lat="44.98357" lon="5.46624">
        <ele>1384.8</ele>
        <time>2021-10-09T11:02:38Z</time>
      </trkpt>
      <trkpt lat="44.98358" lon="5.46625">
        <ele>1384.8</ele>
        <time>2021-10-09T11:02:39Z</time>
      </trkpt>
      <trkpt lat="44.98358" lon="5.46626">
        <ele>1385.6</ele>
        <time>2021-10-09T11:02:40Z</time>
      </trkpt>
      <trkpt lat="44.98359" lon="5.46627">
        <ele>1385.6</ele>
        <time>2021-10-09T11:02:41Z</time>
      </trkpt>
      <trkpt lat="44.9836" lon="5.46627">
        <ele>1385.6</ele>
        <time>2021-10-09T11:02:42Z</time>
      </trkpt>
      <trkpt lat="44.9836" lon="5.46629">
        <ele>1385.6</ele>
        <time>2021-10-09T11:02:43Z</time>
      </trkpt>
      <trkpt lat="44.98361" lon="5.4663">
        <ele>1385.8</ele>
        <time>2021-10-09T11:02:44Z</time>
      </trkpt>
      <trkpt lat="44.98361" lon="5.46631">
        <ele>1385.8</ele>
        <time>2021-10-09T11:02:45Z</time>
      </trkpt>
      <trkpt lat="44.98362" lon="5.46632">
        <ele>1385.8</ele>
        <time>2021-10-09T11:02:46Z</time>
      </trkpt>
      <trkpt lat="44.98363" lon="5.46634">
        <ele>1385.8</ele>
        <time>2021-10-09T11:02:47Z</time>
      </trkpt>
      <trkpt lat="44.98364" lon="5.46635">
        <ele>1385.8</ele>
        <time>2021-10-09T11:02:48Z</time>
      </trkpt>
      <trkpt lat="44.98365" lon="5.46636">
        <ele>1385.8</ele>
        <time>2021-10-09T11:02:49Z</time>
      </trkpt>
      <trkpt lat="44.98366" lon="5.46637">
        <ele>1385.8</ele>
        <time>2021-10-09T11:02:50Z</time>
      </trkpt>
      <trkpt lat="44.98367" lon="5.46638">
        <ele>1385.8</ele>
        <time>2021-10-09T11:02:51Z</time>
      </trkpt>
      <trkpt lat="44.98368" lon="5.46639">
        <ele>1386.6</ele>
        <time>2021-10-09T11:02:52Z</time>
      </trkpt>
      <trkpt lat="44.98369" lon="5.46641">
        <ele>1386.6</ele>
        <time>2021-10-09T11:02:53Z</time>
      </trkpt>
      <trkpt lat="44.9837" lon="5.46642">
        <ele>1386.6</ele>
        <time>2021-10-09T11:02:54Z</time>
      </trkpt>
      <trkpt lat="44.9837" lon="5.46644">
        <ele>1387.2</ele>
        <time>2021-10-09T11:02:55Z</time>
      </trkpt>
      <trkpt lat="44.98371" lon="5.46646">
        <ele>1387.4</ele>
        <time>2021-10-09T11:02:56Z</time>
      </trkpt>
      <trkpt lat="44.98372" lon="5.46647">
        <ele>1387.4</ele>
        <time>2021-10-09T11:02:57Z</time>
      </trkpt>
      <trkpt lat="44.98373" lon="5.46649">
        <ele>1387.4</ele>
        <time>2021-10-09T11:02:58Z</time>
      </trkpt>
      <trkpt lat="44.98373" lon="5.4665">
        <ele>1388.2</ele>
        <time>2021-10-09T11:02:59Z</time>
      </trkpt>
      <trkpt lat="44.98373" lon="5.46652">
        <ele>1389.4</ele>
        <time>2021-10-09T11:03:00Z</time>
      </trkpt>
      <trkpt lat="44.98374" lon="5.46654">
        <ele>1389.4</ele>
        <time>2021-10-09T11:03:01Z</time>
      </trkpt>
      <trkpt lat="44.98374" lon="5.46655">
        <ele>1389.4</ele>
        <time>2021-10-09T11:03:02Z</time>
      </trkpt>
      <trkpt lat="44.98375" lon="5.46657">
        <ele>1389.4</ele>
        <time>2021-10-09T11:03:03Z</time>
      </trkpt>
      <trkpt lat="44.98376" lon="5.46658">
        <ele>1390</ele>
        <time>2021-10-09T11:03:04Z</time>
      </trkpt>
      <trkpt lat="44.98376" lon="5.4666">
        <ele>1390</ele>
        <time>2021-10-09T11:03:05Z</time>
      </trkpt>
      <trkpt lat="44.98377" lon="5.46661">
        <ele>1390</ele>
        <time>2021-10-09T11:03:06Z</time>
      </trkpt>
      <trkpt lat="44.98377" lon="5.46663">
        <ele>1391</ele>
        <time>2021-10-09T11:03:07Z</time>
      </trkpt>
      <trkpt lat="44.98378" lon="5.46664">
        <ele>1391.6</ele>
        <time>2021-10-09T11:03:08Z</time>
      </trkpt>
      <trkpt lat="44.98378" lon="5.46666">
        <ele>1391.6</ele>
        <time>2021-10-09T11:03:09Z</time>
      </trkpt>
      <trkpt lat="44.98377" lon="5.46667">
        <ele>1391.6</ele>
        <time>2021-10-09T11:03:10Z</time>
      </trkpt>
      <trkpt lat="44.98378" lon="5.46668">
        <ele>1392.2</ele>
        <time>2021-10-09T11:03:11Z</time>
      </trkpt>
      <trkpt lat="44.98379" lon="5.46669">
        <ele>1392.4</ele>
        <time>2021-10-09T11:03:12Z</time>
      </trkpt>
      <trkpt lat="44.98381" lon="5.46671">
        <ele>1392.4</ele>
        <time>2021-10-09T11:03:13Z</time>
      </trkpt>
      <trkpt lat="44.98381" lon="5.46673">
        <ele>1392.4</ele>
        <time>2021-10-09T11:03:14Z</time>
      </trkpt>
      <trkpt lat="44.98381" lon="5.46674">
        <ele>1393.2</ele>
        <time>2021-10-09T11:03:15Z</time>
      </trkpt>
      <trkpt lat="44.98382" lon="5.46675">
        <ele>1393.6</ele>
        <time>2021-10-09T11:03:16Z</time>
      </trkpt>
      <trkpt lat="44.98382" lon="5.46676">
        <ele>1393.6</ele>
        <time>2021-10-09T11:03:17Z</time>
      </trkpt>
      <trkpt lat="44.98381" lon="5.46678">
        <ele>1393.6</ele>
        <time>2021-10-09T11:03:18Z</time>
      </trkpt>
      <trkpt lat="44.98381" lon="5.4668">
        <ele>1393.6</ele>
        <time>2021-10-09T11:03:19Z</time>
      </trkpt>
      <trkpt lat="44.98382" lon="5.46681">
        <ele>1393.8</ele>
        <time>2021-10-09T11:03:20Z</time>
      </trkpt>
      <trkpt lat="44.98382" lon="5.46684">
        <ele>1393.8</ele>
        <time>2021-10-09T11:03:21Z</time>
      </trkpt>
      <trkpt lat="44.98383" lon="5.46685">
        <ele>1393.8</ele>
        <time>2021-10-09T11:03:22Z</time>
      </trkpt>
      <trkpt lat="44.98383" lon="5.46687">
        <ele>1394.4</ele>
        <time>2021-10-09T11:03:23Z</time>
      </trkpt>
      <trkpt lat="44.98384" lon="5.46688">
        <ele>1394.8</ele>
        <time>2021-10-09T11:03:24Z</time>
      </trkpt>
      <trkpt lat="44.98384" lon="5.46689">
        <ele>1394.8</ele>
        <time>2021-10-09T11:03:25Z</time>
      </trkpt>
      <trkpt lat="44.98384" lon="5.4669">
        <ele>1394.8</ele>
        <time>2021-10-09T11:03:26Z</time>
      </trkpt>
      <trkpt lat="44.98384" lon="5.46692">
        <ele>1394.8</ele>
        <time>2021-10-09T11:03:27Z</time>
      </trkpt>
      <trkpt lat="44.98384" lon="5.46693">
        <ele>1395</ele>
        <time>2021-10-09T11:03:28Z</time>
      </trkpt>
      <trkpt lat="44.98385" lon="5.46694">
        <ele>1395</ele>
        <time>2021-10-09T11:03:29Z</time>
      </trkpt>
      <trkpt lat="44.98385" lon="5.46696">
        <ele>1395</ele>
        <time>2021-10-09T11:03:30Z</time>
      </trkpt>
      <trkpt lat="44.98386" lon="5.46696">
        <ele>1395</ele>
        <time>2021-10-09T11:03:31Z</time>
      </trkpt>
      <trkpt lat="44.98386" lon="5.46698">
        <ele>1395.4</ele>
        <time>2021-10-09T11:03:32Z</time>
      </trkpt>
      <trkpt lat="44.98387" lon="5.46699">
        <ele>1395.4</ele>
        <time>2021-10-09T11:03:33Z</time>
      </trkpt>
      <trkpt lat="44.98387" lon="5.467">
        <ele>1395.4</ele>
        <time>2021-10-09T11:03:34Z</time>
      </trkpt>
      <trkpt lat="44.98388" lon="5.46701">
        <ele>1396.2</ele>
        <time>2021-10-09T11:03:35Z</time>
      </trkpt>
      <trkpt lat="44.98388" lon="5.46702">
        <ele>1396</ele>
        <time>2021-10-09T11:03:36Z</time>
      </trkpt>
      <trkpt lat="44.98388" lon="5.46703">
        <ele>1396</ele>
        <time>2021-10-09T11:03:37Z</time>
      </trkpt>
      <trkpt lat="44.98391" lon="5.46726">
        <ele>1394.8</ele>
        <time>2021-10-09T11:05:44Z</time>
      </trkpt>
      <trkpt lat="44.98392" lon="5.46729">
        <ele>1394.8</ele>
        <time>2021-10-09T11:05:45Z</time>
      </trkpt>
      <trkpt lat="44.98393" lon="5.46731">
        <ele>1394.8</ele>
        <time>2021-10-09T11:05:46Z</time>
      </trkpt>
      <trkpt lat="44.98394" lon="5.46734">
        <ele>1394.8</ele>
        <time>2021-10-09T11:05:47Z</time>
      </trkpt>
      <trkpt lat="44.98395" lon="5.46736">
        <ele>1395.4</ele>
        <time>2021-10-09T11:05:48Z</time>
      </trkpt>
      <trkpt lat="44.98396" lon="5.46739">
        <ele>1395.4</ele>
        <time>2021-10-09T11:05:49Z</time>
      </trkpt>
      <trkpt lat="44.98397" lon="5.4674">
        <ele>1395.4</ele>
        <time>2021-10-09T11:05:50Z</time>
      </trkpt>
      <trkpt lat="44.98398" lon="5.46743">
        <ele>1395.4</ele>
        <time>2021-10-09T11:05:51Z</time>
      </trkpt>
      <trkpt lat="44.98399" lon="5.46745">
        <ele>1396</ele>
        <time>2021-10-09T11:05:52Z</time>
      </trkpt>
      <trkpt lat="44.984" lon="5.46746">
        <ele>1396</ele>
        <time>2021-10-09T11:05:53Z</time>
      </trkpt>
      <trkpt lat="44.98401" lon="5.46747">
        <ele>1396</ele>
        <time>2021-10-09T11:05:54Z</time>
      </trkpt>
      <trkpt lat="44.98403" lon="5.46748">
        <ele>1395.6</ele>
        <time>2021-10-09T11:05:55Z</time>
      </trkpt>
      <trkpt lat="44.98404" lon="5.46749">
        <ele>1396</ele>
        <time>2021-10-09T11:05:56Z</time>
      </trkpt>
      <trkpt lat="44.98405" lon="5.46749">
        <ele>1396</ele>
        <time>2021-10-09T11:05:57Z</time>
      </trkpt>
      <trkpt lat="44.98407" lon="5.4675">
        <ele>1396</ele>
        <time>2021-10-09T11:05:58Z</time>
      </trkpt>
      <trkpt lat="44.98409" lon="5.46751">
        <ele>1395</ele>
        <time>2021-10-09T11:05:59Z</time>
      </trkpt>
      <trkpt lat="44.98411" lon="5.46753">
        <ele>1394.8</ele>
        <time>2021-10-09T11:06:00Z</time>
      </trkpt>
      <trkpt lat="44.98413" lon="5.46755">
        <ele>1394.8</ele>
        <time>2021-10-09T11:06:01Z</time>
      </trkpt>
      <trkpt lat="44.98415" lon="5.46758">
        <ele>1394.8</ele>
        <time>2021-10-09T11:06:02Z</time>
      </trkpt>
      <trkpt lat="44.98416" lon="5.46761">
        <ele>1394.8</ele>
        <time>2021-10-09T11:06:03Z</time>
      </trkpt>
      <trkpt lat="44.98418" lon="5.46764">
        <ele>1393.8</ele>
        <time>2021-10-09T11:06:04Z</time>
      </trkpt>
      <trkpt lat="44.9842" lon="5.46766">
        <ele>1393.8</ele>
        <time>2021-10-09T11:06:05Z</time>
      </trkpt>
      <trkpt lat="44.98422" lon="5.46769">
        <ele>1393.8</ele>
        <time>2021-10-09T11:06:06Z</time>
      </trkpt>
      <trkpt lat="44.98423" lon="5.46771">
        <ele>1393.8</ele>
        <time>2021-10-09T11:06:07Z</time>
      </trkpt>
      <trkpt lat="44.98424" lon="5.46772">
        <ele>1393.2</ele>
        <time>2021-10-09T11:06:08Z</time>
      </trkpt>
      <trkpt lat="44.98425" lon="5.46774">
        <ele>1393.2</ele>
        <time>2021-10-09T11:06:09Z</time>
      </trkpt>
      <trkpt lat="44.98426" lon="5.46775">
        <ele>1393.2</ele>
        <time>2021-10-09T11:06:10Z</time>
      </trkpt>
      <trkpt lat="44.98426" lon="5.46775">
        <ele>1393</ele>
        <time>2021-10-09T11:06:11Z</time>
      </trkpt>
      <trkpt lat="44.98435" lon="5.46799">
        <ele>1389.4</ele>
        <time>2021-10-09T11:06:45Z</time>
      </trkpt>
      <trkpt lat="44.98436" lon="5.46801">
        <ele>1389.4</ele>
        <time>2021-10-09T11:06:46Z</time>
      </trkpt>
      <trkpt lat="44.98436" lon="5.46804">
        <ele>1388.4</ele>
        <time>2021-10-09T11:06:47Z</time>
      </trkpt>
      <trkpt lat="44.98437" lon="5.46807">
        <ele>1387.8</ele>
        <time>2021-10-09T11:06:48Z</time>
      </trkpt>
      <trkpt lat="44.98438" lon="5.46809">
        <ele>1387.8</ele>
        <time>2021-10-09T11:06:49Z</time>
      </trkpt>
      <trkpt lat="44.98438" lon="5.46812">
        <ele>1387.8</ele>
        <time>2021-10-09T11:06:50Z</time>
      </trkpt>
      <trkpt lat="44.98439" lon="5.46816">
        <ele>1386.8</ele>
        <time>2021-10-09T11:06:51Z</time>
      </trkpt>
      <trkpt lat="44.9844" lon="5.46819">
        <ele>1386.6</ele>
        <time>2021-10-09T11:06:52Z</time>
      </trkpt>
      <trkpt lat="44.98439" lon="5.46823">
        <ele>1386.6</ele>
        <time>2021-10-09T11:06:53Z</time>
      </trkpt>
      <trkpt lat="44.9844" lon="5.46826">
        <ele>1386.6</ele>
        <time>2021-10-09T11:06:54Z</time>
      </trkpt>
      <trkpt lat="44.9844" lon="5.46829">
        <ele>1386.6</ele>
        <time>2021-10-09T11:06:55Z</time>
      </trkpt>
      <trkpt lat="44.98441" lon="5.46832">
        <ele>1388.6</ele>
        <time>2021-10-09T11:06:56Z</time>
      </trkpt>
      <trkpt lat="44.98441" lon="5.46835">
        <ele>1388.6</ele>
        <time>2021-10-09T11:06:57Z</time>
      </trkpt>
      <trkpt lat="44.98442" lon="5.46837">
        <ele>1388.6</ele>
        <time>2021-10-09T11:06:58Z</time>
      </trkpt>
      <trkpt lat="44.98443" lon="5.4684">
        <ele>1389</ele>
        <time>2021-10-09T11:06:59Z</time>
      </trkpt>
      <trkpt lat="44.98444" lon="5.46842">
        <ele>1389.6</ele>
        <time>2021-10-09T11:07:00Z</time>
      </trkpt>
      <trkpt lat="44.98444" lon="5.46845">
        <ele>1389.6</ele>
        <time>2021-10-09T11:07:01Z</time>
      </trkpt>
      <trkpt lat="44.98445" lon="5.46848">
        <ele>1389.6</ele>
        <time>2021-10-09T11:07:02Z</time>
      </trkpt>
      <trkpt lat="44.98444" lon="5.46853">
        <ele>1389</ele>
        <time>2021-10-09T11:07:03Z</time>
      </trkpt>
      <trkpt lat="44.98445" lon="5.46857">
        <ele>1389</ele>
        <time>2021-10-09T11:07:04Z</time>
      </trkpt>
      <trkpt lat="44.98446" lon="5.4686">
        <ele>1389</ele>
        <time>2021-10-09T11:07:05Z</time>
      </trkpt>
      <trkpt lat="44.98447" lon="5.46864">
        <ele>1389</ele>
        <time>2021-10-09T11:07:06Z</time>
      </trkpt>
      <trkpt lat="44.98447" lon="5.46869">
        <ele>1389</ele>
        <time>2021-10-09T11:07:07Z</time>
      </trkpt>
      <trkpt lat="44.98448" lon="5.46874">
        <ele>1389.6</ele>
        <time>2021-10-09T11:07:08Z</time>
      </trkpt>
      <trkpt lat="44.98449" lon="5.46877">
        <ele>1389.6</ele>
        <time>2021-10-09T11:07:09Z</time>
      </trkpt>
      <trkpt lat="44.9845" lon="5.4688">
        <ele>1389.6</ele>
        <time>2021-10-09T11:07:10Z</time>
      </trkpt>
      <trkpt lat="44.98451" lon="5.46883">
        <ele>1389.6</ele>
        <time>2021-10-09T11:07:11Z</time>
      </trkpt>
      <trkpt lat="44.98451" lon="5.46887">
        <ele>1389.2</ele>
        <time>2021-10-09T11:07:12Z</time>
      </trkpt>
      <trkpt lat="44.98452" lon="5.46891">
        <ele>1389.2</ele>
        <time>2021-10-09T11:07:13Z</time>
      </trkpt>
      <trkpt lat="44.98453" lon="5.46896">
        <ele>1389.2</ele>
        <time>2021-10-09T11:07:14Z</time>
      </trkpt>
      <trkpt lat="44.98454" lon="5.46902">
        <ele>1388.2</ele>
        <time>2021-10-09T11:07:15Z</time>
      </trkpt>
      <trkpt lat="44.98455" lon="5.46908">
        <ele>1387</ele>
        <time>2021-10-09T11:07:16Z</time>
      </trkpt>
      <trkpt lat="44.98456" lon="5.46914">
        <ele>1387</ele>
        <time>2021-10-09T11:07:17Z</time>
      </trkpt>
      <trkpt lat="44.98457" lon="5.4692">
        <ele>1387</ele>
        <time>2021-10-09T11:07:18Z</time>
      </trkpt>
      <trkpt lat="44.98457" lon="5.46925">
        <ele>1387</ele>
        <time>2021-10-09T11:07:19Z</time>
      </trkpt>
      <trkpt lat="44.98458" lon="5.4693">
        <ele>1387.6</ele>
        <time>2021-10-09T11:07:20Z</time>
      </trkpt>
      <trkpt lat="44.98459" lon="5.46934">
        <ele>1387.6</ele>
        <time>2021-10-09T11:07:21Z</time>
      </trkpt>
      <trkpt lat="44.98461" lon="5.46939">
        <ele>1387.6</ele>
        <time>2021-10-09T11:07:22Z</time>
      </trkpt>
      <trkpt lat="44.98462" lon="5.46943">
        <ele>1387.6</ele>
        <time>2021-10-09T11:07:23Z</time>
      </trkpt>
      <trkpt lat="44.98462" lon="5.46948">
        <ele>1386.4</ele>
        <time>2021-10-09T11:07:24Z</time>
      </trkpt>
      <trkpt lat="44.98464" lon="5.46952">
        <ele>1386.4</ele>
        <time>2021-10-09T11:07:25Z</time>
      </trkpt>
      <trkpt lat="44.98465" lon="5.46956">
        <ele>1386.4</ele>
        <time>2021-10-09T11:07:26Z</time>
      </trkpt>
      <trkpt lat="44.98465" lon="5.4696">
        <ele>1386.8</ele>
        <time>2021-10-09T11:07:27Z</time>
      </trkpt>
      <trkpt lat="44.98465" lon="5.46964">
        <ele>1387.6</ele>
        <time>2021-10-09T11:07:28Z</time>
      </trkpt>
      <trkpt lat="44.98464" lon="5.46969">
        <ele>1387.6</ele>
        <time>2021-10-09T11:07:29Z</time>
      </trkpt>
      <trkpt lat="44.98464" lon="5.46973">
        <ele>1387.6</ele>
        <time>2021-10-09T11:07:30Z</time>
      </trkpt>
      <trkpt lat="44.98464" lon="5.46978">
        <ele>1387.6</ele>
        <time>2021-10-09T11:07:31Z</time>
      </trkpt>
      <trkpt lat="44.98466" lon="5.46982">
        <ele>1387.4</ele>
        <time>2021-10-09T11:07:32Z</time>
      </trkpt>
      <trkpt lat="44.98466" lon="5.46986">
        <ele>1387.4</ele>
        <time>2021-10-09T11:07:33Z</time>
      </trkpt>
      <trkpt lat="44.98468" lon="5.46989">
        <ele>1387.4</ele>
        <time>2021-10-09T11:07:34Z</time>
      </trkpt>
      <trkpt lat="44.98469" lon="5.46993">
        <ele>1387.4</ele>
        <time>2021-10-09T11:07:35Z</time>
      </trkpt>
      <trkpt lat="44.98471" lon="5.46996">
        <ele>1387</ele>
        <time>2021-10-09T11:07:36Z</time>
      </trkpt>
      <trkpt lat="44.98475" lon="5.46999">
        <ele>1387</ele>
        <time>2021-10-09T11:07:37Z</time>
      </trkpt>
      <trkpt lat="44.98478" lon="5.47002">
        <ele>1387</ele>
        <time>2021-10-09T11:07:38Z</time>
      </trkpt>
      <trkpt lat="44.9848" lon="5.47006">
        <ele>1386</ele>
        <time>2021-10-09T11:07:39Z</time>
      </trkpt>
      <trkpt lat="44.98482" lon="5.4701">
        <ele>1383</ele>
        <time>2021-10-09T11:07:40Z</time>
      </trkpt>
      <trkpt lat="44.98484" lon="5.47015">
        <ele>1383</ele>
        <time>2021-10-09T11:07:41Z</time>
      </trkpt>
      <trkpt lat="44.98488" lon="5.4702">
        <ele>1383</ele>
        <time>2021-10-09T11:07:42Z</time>
      </trkpt>
      <trkpt lat="44.98491" lon="5.47024">
        <ele>1383</ele>
        <time>2021-10-09T11:07:43Z</time>
      </trkpt>
      <trkpt lat="44.98494" lon="5.47027">
        <ele>1384.8</ele>
        <time>2021-10-09T11:07:44Z</time>
      </trkpt>
      <trkpt lat="44.98497" lon="5.47028">
        <ele>1384.8</ele>
        <time>2021-10-09T11:07:45Z</time>
      </trkpt>
      <trkpt lat="44.98499" lon="5.4703">
        <ele>1384.8</ele>
        <time>2021-10-09T11:07:46Z</time>
      </trkpt>
      <trkpt lat="44.98502" lon="5.47033">
        <ele>1384.8</ele>
        <time>2021-10-09T11:07:47Z</time>
      </trkpt>
      <trkpt lat="44.98505" lon="5.47035">
        <ele>1384.2</ele>
        <time>2021-10-09T11:07:48Z</time>
      </trkpt>
      <trkpt lat="44.98508" lon="5.47035">
        <ele>1384.2</ele>
        <time>2021-10-09T11:07:49Z</time>
      </trkpt>
      <trkpt lat="44.98511" lon="5.47035">
        <ele>1384.2</ele>
        <time>2021-10-09T11:07:50Z</time>
      </trkpt>
      <trkpt lat="44.98514" lon="5.47035">
        <ele>1384.2</ele>
        <time>2021-10-09T11:07:51Z</time>
      </trkpt>
      <trkpt lat="44.98517" lon="5.47035">
        <ele>1382.4</ele>
        <time>2021-10-09T11:07:52Z</time>
      </trkpt>
      <trkpt lat="44.9852" lon="5.47035">
        <ele>1382.4</ele>
        <time>2021-10-09T11:07:53Z</time>
      </trkpt>
      <trkpt lat="44.98523" lon="5.47037">
        <ele>1382.4</ele>
        <time>2021-10-09T11:07:54Z</time>
      </trkpt>
      <trkpt lat="44.98525" lon="5.47039">
        <ele>1383.4</ele>
        <time>2021-10-09T11:07:55Z</time>
      </trkpt>
      <trkpt lat="44.98526" lon="5.47041">
        <ele>1386.6</ele>
        <time>2021-10-09T11:07:56Z</time>
      </trkpt>
      <trkpt lat="44.98528" lon="5.47043">
        <ele>1386.6</ele>
        <time>2021-10-09T11:07:57Z</time>
      </trkpt>
      <trkpt lat="44.98529" lon="5.47045">
        <ele>1386.6</ele>
        <time>2021-10-09T11:07:58Z</time>
      </trkpt>
      <trkpt lat="44.9853" lon="5.47048">
        <ele>1386.6</ele>
        <time>2021-10-09T11:07:59Z</time>
      </trkpt>
      <trkpt lat="44.98531" lon="5.47052">
        <ele>1386.2</ele>
        <time>2021-10-09T11:08:00Z</time>
      </trkpt>
      <trkpt lat="44.98532" lon="5.47055">
        <ele>1386.2</ele>
        <time>2021-10-09T11:08:01Z</time>
      </trkpt>
      <trkpt lat="44.98533" lon="5.47058">
        <ele>1386.2</ele>
        <time>2021-10-09T11:08:02Z</time>
      </trkpt>
      <trkpt lat="44.98536" lon="5.4706">
        <ele>1386.2</ele>
        <time>2021-10-09T11:08:03Z</time>
      </trkpt>
      <trkpt lat="44.98536" lon="5.47064">
        <ele>1385.8</ele>
        <time>2021-10-09T11:08:04Z</time>
      </trkpt>
      <trkpt lat="44.98537" lon="5.47068">
        <ele>1385.8</ele>
        <time>2021-10-09T11:08:05Z</time>
      </trkpt>
      <trkpt lat="44.98538" lon="5.4707">
        <ele>1385.8</ele>
        <time>2021-10-09T11:08:06Z</time>
      </trkpt>
      <trkpt lat="44.9854" lon="5.47073">
        <ele>1385.8</ele>
        <time>2021-10-09T11:08:07Z</time>
      </trkpt>
      <trkpt lat="44.98543" lon="5.47075">
        <ele>1385</ele>
        <time>2021-10-09T11:08:08Z</time>
      </trkpt>
      <trkpt lat="44.98547" lon="5.47076">
        <ele>1385</ele>
        <time>2021-10-09T11:08:09Z</time>
      </trkpt>
      <trkpt lat="44.98551" lon="5.47078">
        <ele>1385</ele>
        <time>2021-10-09T11:08:10Z</time>
      </trkpt>
      <trkpt lat="44.98554" lon="5.47079">
        <ele>1384</ele>
        <time>2021-10-09T11:08:11Z</time>
      </trkpt>
      <trkpt lat="44.98558" lon="5.47081">
        <ele>1381.8</ele>
        <time>2021-10-09T11:08:12Z</time>
      </trkpt>
      <trkpt lat="44.98563" lon="5.47082">
        <ele>1381.8</ele>
        <time>2021-10-09T11:08:13Z</time>
      </trkpt>
      <trkpt lat="44.98568" lon="5.47083">
        <ele>1381.8</ele>
        <time>2021-10-09T11:08:14Z</time>
      </trkpt>
      <trkpt lat="44.98571" lon="5.47084">
        <ele>1380.8</ele>
        <time>2021-10-09T11:08:15Z</time>
      </trkpt>
      <trkpt lat="44.98576" lon="5.47085">
        <ele>1381.8</ele>
        <time>2021-10-09T11:08:16Z</time>
      </trkpt>
      <trkpt lat="44.98581" lon="5.47086">
        <ele>1381.8</ele>
        <time>2021-10-09T11:08:17Z</time>
      </trkpt>
      <trkpt lat="44.98585" lon="5.47089">
        <ele>1381.8</ele>
        <time>2021-10-09T11:08:18Z</time>
      </trkpt>
      <trkpt lat="44.98588" lon="5.47092">
        <ele>1380.8</ele>
        <time>2021-10-09T11:08:19Z</time>
      </trkpt>
      <trkpt lat="44.98592" lon="5.47095">
        <ele>1380.4</ele>
        <time>2021-10-09T11:08:20Z</time>
      </trkpt>
      <trkpt lat="44.98595" lon="5.47098">
        <ele>1380.4</ele>
        <time>2021-10-09T11:08:21Z</time>
      </trkpt>
      <trkpt lat="44.986" lon="5.47102">
        <ele>1380.4</ele>
        <time>2021-10-09T11:08:22Z</time>
      </trkpt>
      <trkpt lat="44.98602" lon="5.47107">
        <ele>1380</ele>
        <time>2021-10-09T11:08:23Z</time>
      </trkpt>
      <trkpt lat="44.98605" lon="5.47112">
        <ele>1380.6</ele>
        <time>2021-10-09T11:08:24Z</time>
      </trkpt>
      <trkpt lat="44.98608" lon="5.47115">
        <ele>1380.6</ele>
        <time>2021-10-09T11:08:25Z</time>
      </trkpt>
      <trkpt lat="44.9861" lon="5.47119">
        <ele>1380.6</ele>
        <time>2021-10-09T11:08:26Z</time>
      </trkpt>
      <trkpt lat="44.98613" lon="5.47122">
        <ele>1380.2</ele>
        <time>2021-10-09T11:08:27Z</time>
      </trkpt>
      <trkpt lat="44.98615" lon="5.47126">
        <ele>1380.2</ele>
        <time>2021-10-09T11:08:28Z</time>
      </trkpt>
      <trkpt lat="44.98617" lon="5.47129">
        <ele>1380.2</ele>
        <time>2021-10-09T11:08:29Z</time>
      </trkpt>
      <trkpt lat="44.98619" lon="5.47132">
        <ele>1380.2</ele>
        <time>2021-10-09T11:08:30Z</time>
      </trkpt>
      <trkpt lat="44.9862" lon="5.47134">
        <ele>1379.2</ele>
        <time>2021-10-09T11:08:31Z</time>
      </trkpt>
      <trkpt lat="44.98622" lon="5.47136">
        <ele>1378.4</ele>
        <time>2021-10-09T11:08:32Z</time>
      </trkpt>
      <trkpt lat="44.98624" lon="5.47137">
        <ele>1378.4</ele>
        <time>2021-10-09T11:08:33Z</time>
      </trkpt>
      <trkpt lat="44.98624" lon="5.47138">
        <ele>1378.4</ele>
        <time>2021-10-09T11:08:34Z</time>
      </trkpt>
      <trkpt lat="44.98626" lon="5.4714">
        <ele>1377.4</ele>
        <time>2021-10-09T11:08:35Z</time>
      </trkpt>
      <trkpt lat="44.98627" lon="5.4714">
        <ele>1376.2</ele>
        <time>2021-10-09T11:08:36Z</time>
      </trkpt>
      <trkpt lat="44.98628" lon="5.47142">
        <ele>1376.2</ele>
        <time>2021-10-09T11:08:37Z</time>
      </trkpt>
      <trkpt lat="44.9863" lon="5.47143">
        <ele>1376.2</ele>
        <time>2021-10-09T11:08:38Z</time>
      </trkpt>
      <trkpt lat="44.98633" lon="5.47142">
        <ele>1375.2</ele>
        <time>2021-10-09T11:08:39Z</time>
      </trkpt>
      <trkpt lat="44.98637" lon="5.47142">
        <ele>1372.8</ele>
        <time>2021-10-09T11:08:40Z</time>
      </trkpt>
      <trkpt lat="44.9864" lon="5.47142">
        <ele>1372.8</ele>
        <time>2021-10-09T11:08:41Z</time>
      </trkpt>
      <trkpt lat="44.98643" lon="5.47143">
        <ele>1372.8</ele>
        <time>2021-10-09T11:08:42Z</time>
      </trkpt>
      <trkpt lat="44.98648" lon="5.47144">
        <ele>1371.8</ele>
        <time>2021-10-09T11:08:43Z</time>
      </trkpt>
      <trkpt lat="44.98654" lon="5.47146">
        <ele>1370.8</ele>
        <time>2021-10-09T11:08:44Z</time>
      </trkpt>
      <trkpt lat="44.98658" lon="5.47151">
        <ele>1370.8</ele>
        <time>2021-10-09T11:08:45Z</time>
      </trkpt>
      <trkpt lat="44.98662" lon="5.47155">
        <ele>1370.8</ele>
        <time>2021-10-09T11:08:46Z</time>
      </trkpt>
      <trkpt lat="44.98665" lon="5.47159">
        <ele>1371.8</ele>
        <time>2021-10-09T11:08:47Z</time>
      </trkpt>
      <trkpt lat="44.98666" lon="5.47162">
        <ele>1373.4</ele>
        <time>2021-10-09T11:08:48Z</time>
      </trkpt>
      <trkpt lat="44.98667" lon="5.47164">
        <ele>1373.4</ele>
        <time>2021-10-09T11:08:49Z</time>
      </trkpt>
      <trkpt lat="44.98668" lon="5.47166">
        <ele>1373.4</ele>
        <time>2021-10-09T11:08:50Z</time>
      </trkpt>
      <trkpt lat="44.98668" lon="5.47168">
        <ele>1373.4</ele>
        <time>2021-10-09T11:08:51Z</time>
      </trkpt>
      <trkpt lat="44.98668" lon="5.4717">
        <ele>1372</ele>
        <time>2021-10-09T11:08:52Z</time>
      </trkpt>
      <trkpt lat="44.98669" lon="5.47172">
        <ele>1372</ele>
        <time>2021-10-09T11:08:53Z</time>
      </trkpt>
      <trkpt lat="44.98669" lon="5.47174">
        <ele>1372</ele>
        <time>2021-10-09T11:08:54Z</time>
      </trkpt>
      <trkpt lat="44.9867" lon="5.47176">
        <ele>1371</ele>
        <time>2021-10-09T11:08:55Z</time>
      </trkpt>
      <trkpt lat="44.98671" lon="5.47179">
        <ele>1368.4</ele>
        <time>2021-10-09T11:08:56Z</time>
      </trkpt>
      <trkpt lat="44.98672" lon="5.47182">
        <ele>1368.4</ele>
        <time>2021-10-09T11:08:57Z</time>
      </trkpt>
      <trkpt lat="44.98674" lon="5.47185">
        <ele>1368.4</ele>
        <time>2021-10-09T11:08:58Z</time>
      </trkpt>
      <trkpt lat="44.98674" lon="5.47188">
        <ele>1367.4</ele>
        <time>2021-10-09T11:08:59Z</time>
      </trkpt>
      <trkpt lat="44.98675" lon="5.47191">
        <ele>1366.2</ele>
        <time>2021-10-09T11:09:00Z</time>
      </trkpt>
      <trkpt lat="44.98676" lon="5.47194">
        <ele>1366.2</ele>
        <time>2021-10-09T11:09:01Z</time>
      </trkpt>
      <trkpt lat="44.98677" lon="5.47196">
        <ele>1366.2</ele>
        <time>2021-10-09T11:09:02Z</time>
      </trkpt>
      <trkpt lat="44.98677" lon="5.47198">
        <ele>1365.6</ele>
        <time>2021-10-09T11:09:03Z</time>
      </trkpt>
      <trkpt lat="44.98678" lon="5.47199">
        <ele>1365.2</ele>
        <time>2021-10-09T11:09:04Z</time>
      </trkpt>
      <trkpt lat="44.98678" lon="5.47201">
        <ele>1365.2</ele>
        <time>2021-10-09T11:09:05Z</time>
      </trkpt>
      <trkpt lat="44.98678" lon="5.47202">
        <ele>1365.2</ele>
        <time>2021-10-09T11:09:06Z</time>
      </trkpt>
      <trkpt lat="44.98692" lon="5.47232">
        <ele>1360.8</ele>
        <time>2021-10-09T11:09:31Z</time>
      </trkpt>
      <trkpt lat="44.98694" lon="5.47233">
        <ele>1357.4</ele>
        <time>2021-10-09T11:09:32Z</time>
      </trkpt>
      <trkpt lat="44.98695" lon="5.47235">
        <ele>1357.4</ele>
        <time>2021-10-09T11:09:33Z</time>
      </trkpt>
      <trkpt lat="44.98697" lon="5.47238">
        <ele>1357.4</ele>
        <time>2021-10-09T11:09:34Z</time>
      </trkpt>
      <trkpt lat="44.987" lon="5.47242">
        <ele>1357.4</ele>
        <time>2021-10-09T11:09:35Z</time>
      </trkpt>
      <trkpt lat="44.98702" lon="5.47246">
        <ele>1355</ele>
        <time>2021-10-09T11:09:36Z</time>
      </trkpt>
      <trkpt lat="44.98705" lon="5.4725">
        <ele>1355</ele>
        <time>2021-10-09T11:09:37Z</time>
      </trkpt>
      <trkpt lat="44.98708" lon="5.47254">
        <ele>1355</ele>
        <time>2021-10-09T11:09:38Z</time>
      </trkpt>
      <trkpt lat="44.98711" lon="5.47257">
        <ele>1354</ele>
        <time>2021-10-09T11:09:39Z</time>
      </trkpt>
      <trkpt lat="44.98715" lon="5.4726">
        <ele>1352</ele>
        <time>2021-10-09T11:09:40Z</time>
      </trkpt>
      <trkpt lat="44.98719" lon="5.47264">
        <ele>1352</ele>
        <time>2021-10-09T11:09:41Z</time>
      </trkpt>
      <trkpt lat="44.98723" lon="5.4727">
        <ele>1352</ele>
        <time>2021-10-09T11:09:42Z</time>
      </trkpt>
      <trkpt lat="44.98726" lon="5.47274">
        <ele>1352</ele>
        <time>2021-10-09T11:09:43Z</time>
      </trkpt>
      <trkpt lat="44.98729" lon="5.47277">
        <ele>1354.2</ele>
        <time>2021-10-09T11:09:44Z</time>
      </trkpt>
      <trkpt lat="44.98731" lon="5.47279">
        <ele>1354.2</ele>
        <time>2021-10-09T11:09:45Z</time>
      </trkpt>
      <trkpt lat="44.98732" lon="5.47281">
        <ele>1354.2</ele>
        <time>2021-10-09T11:09:46Z</time>
      </trkpt>
      <trkpt lat="44.98734" lon="5.47284">
        <ele>1355</ele>
        <time>2021-10-09T11:09:47Z</time>
      </trkpt>
      <trkpt lat="44.98735" lon="5.47286">
        <ele>1355</ele>
        <time>2021-10-09T11:09:48Z</time>
      </trkpt>
      <trkpt lat="44.98737" lon="5.47288">
        <ele>1355</ele>
        <time>2021-10-09T11:09:49Z</time>
      </trkpt>
      <trkpt lat="44.98738" lon="5.4729">
        <ele>1355</ele>
        <time>2021-10-09T11:09:50Z</time>
      </trkpt>
      <trkpt lat="44.9874" lon="5.47293">
        <ele>1355</ele>
        <time>2021-10-09T11:09:51Z</time>
      </trkpt>
      <trkpt lat="44.98741" lon="5.47296">
        <ele>1354.4</ele>
        <time>2021-10-09T11:09:52Z</time>
      </trkpt>
      <trkpt lat="44.98743" lon="5.473">
        <ele>1354.4</ele>
        <time>2021-10-09T11:09:53Z</time>
      </trkpt>
      <trkpt lat="44.98743" lon="5.47305">
        <ele>1354.4</ele>
        <time>2021-10-09T11:09:54Z</time>
      </trkpt>
      <trkpt lat="44.98744" lon="5.47309">
        <ele>1354.4</ele>
        <time>2021-10-09T11:09:55Z</time>
      </trkpt>
      <trkpt lat="44.98745" lon="5.47314">
        <ele>1355.4</ele>
        <time>2021-10-09T11:09:56Z</time>
      </trkpt>
      <trkpt lat="44.98746" lon="5.47318">
        <ele>1355.4</ele>
        <time>2021-10-09T11:09:57Z</time>
      </trkpt>
      <trkpt lat="44.98747" lon="5.47322">
        <ele>1355.4</ele>
        <time>2021-10-09T11:09:58Z</time>
      </trkpt>
      <trkpt lat="44.98749" lon="5.47325">
        <ele>1355.4</ele>
        <time>2021-10-09T11:09:59Z</time>
      </trkpt>
      <trkpt lat="44.98751" lon="5.47329">
        <ele>1355.8</ele>
        <time>2021-10-09T11:10:00Z</time>
      </trkpt>
      <trkpt lat="44.98753" lon="5.47332">
        <ele>1355.8</ele>
        <time>2021-10-09T11:10:01Z</time>
      </trkpt>
      <trkpt lat="44.98754" lon="5.47336">
        <ele>1355.8</ele>
        <time>2021-10-09T11:10:02Z</time>
      </trkpt>
      <trkpt lat="44.98755" lon="5.47339">
        <ele>1355.8</ele>
        <time>2021-10-09T11:10:03Z</time>
      </trkpt>
      <trkpt lat="44.98757" lon="5.47343">
        <ele>1356.2</ele>
        <time>2021-10-09T11:10:04Z</time>
      </trkpt>
      <trkpt lat="44.98759" lon="5.47346">
        <ele>1356.2</ele>
        <time>2021-10-09T11:10:05Z</time>
      </trkpt>
      <trkpt lat="44.98761" lon="5.47349">
        <ele>1356.2</ele>
        <time>2021-10-09T11:10:06Z</time>
      </trkpt>
      <trkpt lat="44.98763" lon="5.47353">
        <ele>1355.2</ele>
        <time>2021-10-09T11:10:07Z</time>
      </trkpt>
      <trkpt lat="44.98765" lon="5.47356">
        <ele>1355.2</ele>
        <time>2021-10-09T11:10:08Z</time>
      </trkpt>
      <trkpt lat="44.98767" lon="5.47359">
        <ele>1355.2</ele>
        <time>2021-10-09T11:10:09Z</time>
      </trkpt>
      <trkpt lat="44.98768" lon="5.47363">
        <ele>1355.2</ele>
        <time>2021-10-09T11:10:10Z</time>
      </trkpt>
      <trkpt lat="44.98769" lon="5.47367">
        <ele>1355.2</ele>
        <time>2021-10-09T11:10:11Z</time>
      </trkpt>
      <trkpt lat="44.98771" lon="5.47371">
        <ele>1355.6</ele>
        <time>2021-10-09T11:10:12Z</time>
      </trkpt>
      <trkpt lat="44.98773" lon="5.47374">
        <ele>1355.6</ele>
        <time>2021-10-09T11:10:13Z</time>
      </trkpt>
      <trkpt lat="44.98774" lon="5.47377">
        <ele>1355.6</ele>
        <time>2021-10-09T11:10:14Z</time>
      </trkpt>
      <trkpt lat="44.98775" lon="5.47379">
        <ele>1356.6</ele>
        <time>2021-10-09T11:10:15Z</time>
      </trkpt>
      <trkpt lat="44.98777" lon="5.47383">
        <ele>1357.4</ele>
        <time>2021-10-09T11:10:16Z</time>
      </trkpt>
      <trkpt lat="44.98778" lon="5.47386">
        <ele>1357.4</ele>
        <time>2021-10-09T11:10:17Z</time>
      </trkpt>
      <trkpt lat="44.98778" lon="5.47391">
        <ele>1357.4</ele>
        <time>2021-10-09T11:10:18Z</time>
      </trkpt>
      <trkpt lat="44.98779" lon="5.47393">
        <ele>1358.4</ele>
        <time>2021-10-09T11:10:19Z</time>
      </trkpt>
      <trkpt lat="44.9878" lon="5.47396">
        <ele>1359.4</ele>
        <time>2021-10-09T11:10:20Z</time>
      </trkpt>
      <trkpt lat="44.9878" lon="5.47398">
        <ele>1359.4</ele>
        <time>2021-10-09T11:10:21Z</time>
      </trkpt>
      <trkpt lat="44.98781" lon="5.474">
        <ele>1359.4</ele>
        <time>2021-10-09T11:10:22Z</time>
      </trkpt>
      <trkpt lat="44.98781" lon="5.47402">
        <ele>1360.2</ele>
        <time>2021-10-09T11:10:23Z</time>
      </trkpt>
      <trkpt lat="44.9878" lon="5.47404">
        <ele>1360.2</ele>
        <time>2021-10-09T11:10:24Z</time>
      </trkpt>
      <trkpt lat="44.98781" lon="5.47407">
        <ele>1360.2</ele>
        <time>2021-10-09T11:10:25Z</time>
      </trkpt>
      <trkpt lat="44.98781" lon="5.47408">
        <ele>1360.2</ele>
        <time>2021-10-09T11:10:26Z</time>
      </trkpt>
      <trkpt lat="44.98781" lon="5.47411">
        <ele>1360.8</ele>
        <time>2021-10-09T11:10:27Z</time>
      </trkpt>
      <trkpt lat="44.98781" lon="5.47413">
        <ele>1360.2</ele>
        <time>2021-10-09T11:10:28Z</time>
      </trkpt>
      <trkpt lat="44.98781" lon="5.47415">
        <ele>1360.2</ele>
        <time>2021-10-09T11:10:29Z</time>
      </trkpt>
      <trkpt lat="44.98782" lon="5.47416">
        <ele>1360.2</ele>
        <time>2021-10-09T11:10:30Z</time>
      </trkpt>
      <trkpt lat="44.98783" lon="5.47417">
        <ele>1360.4</ele>
        <time>2021-10-09T11:10:31Z</time>
      </trkpt>
      <trkpt lat="44.98783" lon="5.47417">
        <ele>1360.6</ele>
        <time>2021-10-09T11:10:32Z</time>
      </trkpt>
      <trkpt lat="44.98783" lon="5.47417">
        <ele>1360.6</ele>
        <time>2021-10-09T11:10:33Z</time>
      </trkpt>
      <trkpt lat="44.98795" lon="5.4743">
        <ele>1360.2</ele>
        <time>2021-10-09T11:11:32Z</time>
      </trkpt>
      <trkpt lat="44.98796" lon="5.47431">
        <ele>1360.2</ele>
        <time>2021-10-09T11:11:33Z</time>
      </trkpt>
      <trkpt lat="44.98797" lon="5.47431">
        <ele>1360.2</ele>
        <time>2021-10-09T11:11:34Z</time>
      </trkpt>
      <trkpt lat="44.98797" lon="5.47431">
        <ele>1360.2</ele>
        <time>2021-10-09T11:11:35Z</time>
      </trkpt>
      <trkpt lat="44.98797" lon="5.47431">
        <ele>1360.2</ele>
        <time>2021-10-09T11:11:36Z</time>
      </trkpt>
      <trkpt lat="44.9883" lon="5.47395">
        <ele>1364</ele>
        <time>2021-10-09T11:13:01Z</time>
      </trkpt>
      <trkpt lat="44.98831" lon="5.47397">
        <ele>1364</ele>
        <time>2021-10-09T11:13:02Z</time>
      </trkpt>
      <trkpt lat="44.98834" lon="5.47398">
        <ele>1364</ele>
        <time>2021-10-09T11:13:03Z</time>
      </trkpt>
      <trkpt lat="44.98836" lon="5.47399">
        <ele>1364</ele>
        <time>2021-10-09T11:13:04Z</time>
      </trkpt>
      <trkpt lat="44.98839" lon="5.474">
        <ele>1364</ele>
        <time>2021-10-09T11:13:05Z</time>
      </trkpt>
      <trkpt lat="44.98841" lon="5.474">
        <ele>1364</ele>
        <time>2021-10-09T11:13:06Z</time>
      </trkpt>
      <trkpt lat="44.98844" lon="5.47401">
        <ele>1363.6</ele>
        <time>2021-10-09T11:13:07Z</time>
      </trkpt>
      <trkpt lat="44.98846" lon="5.47401">
        <ele>1362.2</ele>
        <time>2021-10-09T11:13:08Z</time>
      </trkpt>
      <trkpt lat="44.98849" lon="5.47402">
        <ele>1362.2</ele>
        <time>2021-10-09T11:13:09Z</time>
      </trkpt>
      <trkpt lat="44.98852" lon="5.47403">
        <ele>1362.2</ele>
        <time>2021-10-09T11:13:10Z</time>
      </trkpt>
      <trkpt lat="44.98856" lon="5.47404">
        <ele>1363</ele>
        <time>2021-10-09T11:13:11Z</time>
      </trkpt>
      <trkpt lat="44.9886" lon="5.47405">
        <ele>1362.4</ele>
        <time>2021-10-09T11:13:12Z</time>
      </trkpt>
      <trkpt lat="44.98863" lon="5.47406">
        <ele>1362.4</ele>
        <time>2021-10-09T11:13:13Z</time>
      </trkpt>
      <trkpt lat="44.98867" lon="5.47408">
        <ele>1362.4</ele>
        <time>2021-10-09T11:13:14Z</time>
      </trkpt>
      <trkpt lat="44.9887" lon="5.4741">
        <ele>1362.2</ele>
        <time>2021-10-09T11:13:15Z</time>
      </trkpt>
      <trkpt lat="44.98874" lon="5.47412">
        <ele>1361.8</ele>
        <time>2021-10-09T11:13:16Z</time>
      </trkpt>
      <trkpt lat="44.98877" lon="5.47414">
        <ele>1361.8</ele>
        <time>2021-10-09T11:13:17Z</time>
      </trkpt>
      <trkpt lat="44.9888" lon="5.47416">
        <ele>1361.8</ele>
        <time>2021-10-09T11:13:18Z</time>
      </trkpt>
      <trkpt lat="44.98884" lon="5.47419">
        <ele>1361</ele>
        <time>2021-10-09T11:13:19Z</time>
      </trkpt>
      <trkpt lat="44.98888" lon="5.47421">
        <ele>1361.2</ele>
        <time>2021-10-09T11:13:20Z</time>
      </trkpt>
      <trkpt lat="44.98893" lon="5.47424">
        <ele>1361.2</ele>
        <time>2021-10-09T11:13:21Z</time>
      </trkpt>
      <trkpt lat="44.98897" lon="5.47427">
        <ele>1361.2</ele>
        <time>2021-10-09T11:13:22Z</time>
      </trkpt>
      <trkpt lat="44.98901" lon="5.47429">
        <ele>1361.2</ele>
        <time>2021-10-09T11:13:23Z</time>
      </trkpt>
      <trkpt lat="44.98905" lon="5.47431">
        <ele>1361.2</ele>
        <time>2021-10-09T11:13:24Z</time>
      </trkpt>
      <trkpt lat="44.9891" lon="5.47434">
        <ele>1359</ele>
        <time>2021-10-09T11:13:25Z</time>
      </trkpt>
      <trkpt lat="44.98914" lon="5.47437">
        <ele>1359</ele>
        <time>2021-10-09T11:13:26Z</time>
      </trkpt>
      <trkpt lat="44.98919" lon="5.4744">
        <ele>1359</ele>
        <time>2021-10-09T11:13:27Z</time>
      </trkpt>
      <trkpt lat="44.98924" lon="5.47443">
        <ele>1358</ele>
        <time>2021-10-09T11:13:28Z</time>
      </trkpt>
      <trkpt lat="44.9893" lon="5.47445">
        <ele>1358</ele>
        <time>2021-10-09T11:13:29Z</time>
      </trkpt>
      <trkpt lat="44.98935" lon="5.47448">
        <ele>1358</ele>
        <time>2021-10-09T11:13:30Z</time>
      </trkpt>
      <trkpt lat="44.9894" lon="5.47451">
        <ele>1358</ele>
        <time>2021-10-09T11:13:31Z</time>
      </trkpt>
      <trkpt lat="44.98945" lon="5.47453">
        <ele>1357.4</ele>
        <time>2021-10-09T11:13:32Z</time>
      </trkpt>
      <trkpt lat="44.9895" lon="5.47455">
        <ele>1357.4</ele>
        <time>2021-10-09T11:13:33Z</time>
      </trkpt>
      <trkpt lat="44.98955" lon="5.47458">
        <ele>1357.4</ele>
        <time>2021-10-09T11:13:34Z</time>
      </trkpt>
      <trkpt lat="44.9896" lon="5.47462">
        <ele>1356.4</ele>
        <time>2021-10-09T11:13:35Z</time>
      </trkpt>
      <trkpt lat="44.98964" lon="5.47467">
        <ele>1354.6</ele>
        <time>2021-10-09T11:13:36Z</time>
      </trkpt>
      <trkpt lat="44.98968" lon="5.4747">
        <ele>1354.6</ele>
        <time>2021-10-09T11:13:37Z</time>
      </trkpt>
      <trkpt lat="44.98972" lon="5.47474">
        <ele>1354.6</ele>
        <time>2021-10-09T11:13:38Z</time>
      </trkpt>
      <trkpt lat="44.98975" lon="5.47478">
        <ele>1354.8</ele>
        <time>2021-10-09T11:13:39Z</time>
      </trkpt>
      <trkpt lat="44.98977" lon="5.47483">
        <ele>1355.2</ele>
        <time>2021-10-09T11:13:40Z</time>
      </trkpt>
      <trkpt lat="44.9898" lon="5.4749">
        <ele>1355.2</ele>
        <time>2021-10-09T11:13:41Z</time>
      </trkpt>
      <trkpt lat="44.98981" lon="5.47496">
        <ele>1355.2</ele>
        <time>2021-10-09T11:13:42Z</time>
      </trkpt>
      <trkpt lat="44.98981" lon="5.47503">
        <ele>1355.2</ele>
        <time>2021-10-09T11:13:43Z</time>
      </trkpt>
      <trkpt lat="44.98982" lon="5.47509">
        <ele>1353.2</ele>
        <time>2021-10-09T11:13:44Z</time>
      </trkpt>
      <trkpt lat="44.98983" lon="5.47516">
        <ele>1353.2</ele>
        <time>2021-10-09T11:13:45Z</time>
      </trkpt>
      <trkpt lat="44.98984" lon="5.47521">
        <ele>1353.2</ele>
        <time>2021-10-09T11:13:46Z</time>
      </trkpt>
      <trkpt lat="44.98985" lon="5.47527">
        <ele>1353.2</ele>
        <time>2021-10-09T11:13:47Z</time>
      </trkpt>
      <trkpt lat="44.98986" lon="5.47533">
        <ele>1353</ele>
        <time>2021-10-09T11:13:48Z</time>
      </trkpt>
      <trkpt lat="44.98987" lon="5.47537">
        <ele>1353</ele>
        <time>2021-10-09T11:13:49Z</time>
      </trkpt>
      <trkpt lat="44.98988" lon="5.47541">
        <ele>1353</ele>
        <time>2021-10-09T11:13:50Z</time>
      </trkpt>
      <trkpt lat="44.98989" lon="5.47544">
        <ele>1352.2</ele>
        <time>2021-10-09T11:13:51Z</time>
      </trkpt>
      <trkpt lat="44.9899" lon="5.47547">
        <ele>1352.4</ele>
        <time>2021-10-09T11:13:52Z</time>
      </trkpt>
      <trkpt lat="44.9899" lon="5.4755">
        <ele>1352.4</ele>
        <time>2021-10-09T11:13:53Z</time>
      </trkpt>
      <trkpt lat="44.98991" lon="5.47554">
        <ele>1352.4</ele>
        <time>2021-10-09T11:13:54Z</time>
      </trkpt>
      <trkpt lat="44.98992" lon="5.47558">
        <ele>1351.6</ele>
        <time>2021-10-09T11:13:55Z</time>
      </trkpt>
      <trkpt lat="44.98993" lon="5.47561">
        <ele>1351.8</ele>
        <time>2021-10-09T11:13:56Z</time>
      </trkpt>
      <trkpt lat="44.98994" lon="5.47564">
        <ele>1351.8</ele>
        <time>2021-10-09T11:13:57Z</time>
      </trkpt>
      <trkpt lat="44.98995" lon="5.47567">
        <ele>1351.8</ele>
        <time>2021-10-09T11:13:58Z</time>
      </trkpt>
      <trkpt lat="44.98995" lon="5.47569">
        <ele>1351.8</ele>
        <time>2021-10-09T11:13:59Z</time>
      </trkpt>
      <trkpt lat="44.98995" lon="5.47571">
        <ele>1351.8</ele>
        <time>2021-10-09T11:14:00Z</time>
      </trkpt>
      <trkpt lat="44.98996" lon="5.47574">
        <ele>1351.8</ele>
        <time>2021-10-09T11:14:01Z</time>
      </trkpt>
      <trkpt lat="44.98996" lon="5.47576">
        <ele>1351.8</ele>
        <time>2021-10-09T11:14:02Z</time>
      </trkpt>
      <trkpt lat="44.98997" lon="5.47577">
        <ele>1351.2</ele>
        <time>2021-10-09T11:14:03Z</time>
      </trkpt>
      <trkpt lat="44.98998" lon="5.47579">
        <ele>1351.2</ele>
        <time>2021-10-09T11:14:04Z</time>
      </trkpt>
      <trkpt lat="44.98998" lon="5.47579">
        <ele>1351.2</ele>
        <time>2021-10-09T11:14:05Z</time>
      </trkpt>
      <trkpt lat="44.98999" lon="5.47581">
        <ele>1350.8</ele>
        <time>2021-10-09T11:14:13Z</time>
      </trkpt>
      <trkpt lat="44.98999" lon="5.47584">
        <ele>1350.8</ele>
        <time>2021-10-09T11:14:14Z</time>
      </trkpt>
      <trkpt lat="44.98999" lon="5.47589">
        <ele>1350.4</ele>
        <time>2021-10-09T11:14:15Z</time>
      </trkpt>
      <trkpt lat="44.98999" lon="5.47592">
        <ele>1350.4</ele>
        <time>2021-10-09T11:14:16Z</time>
      </trkpt>
      <trkpt lat="44.98999" lon="5.47595">
        <ele>1350.4</ele>
        <time>2021-10-09T11:14:17Z</time>
      </trkpt>
      <trkpt lat="44.98998" lon="5.47596">
        <ele>1350.4</ele>
        <time>2021-10-09T11:14:18Z</time>
      </trkpt>
      <trkpt lat="44.98998" lon="5.47597">
        <ele>1350.4</ele>
        <time>2021-10-09T11:14:19Z</time>
      </trkpt>
      <trkpt lat="44.98998" lon="5.47598">
        <ele>1350.4</ele>
        <time>2021-10-09T11:14:20Z</time>
      </trkpt>
      <trkpt lat="44.98998" lon="5.47598">
        <ele>1350.4</ele>
        <time>2021-10-09T11:14:21Z</time>
      </trkpt>
      <trkpt lat="44.98999" lon="5.47587">
        <ele>1351.2</ele>
        <time>2021-10-09T11:14:52Z</time>
      </trkpt>
      <trkpt lat="44.98999" lon="5.47585">
        <ele>1351.2</ele>
        <time>2021-10-09T11:14:53Z</time>
      </trkpt>
      <trkpt lat="44.98999" lon="5.47583">
        <ele>1351.2</ele>
        <time>2021-10-09T11:14:54Z</time>
      </trkpt>
      <trkpt lat="44.98999" lon="5.47581">
        <ele>1351.2</ele>
        <time>2021-10-09T11:14:55Z</time>
      </trkpt>
      <trkpt lat="44.98998" lon="5.47579">
        <ele>1351.4</ele>
        <time>2021-10-09T11:14:56Z</time>
      </trkpt>
      <trkpt lat="44.98998" lon="5.47576">
        <ele>1351.4</ele>
        <time>2021-10-09T11:14:57Z</time>
      </trkpt>
      <trkpt lat="44.98998" lon="5.47574">
        <ele>1351.4</ele>
        <time>2021-10-09T11:14:58Z</time>
      </trkpt>
      <trkpt lat="44.98997" lon="5.47572">
        <ele>1352.2</ele>
        <time>2021-10-09T11:14:59Z</time>
      </trkpt>
      <trkpt lat="44.98997" lon="5.47569">
        <ele>1352</ele>
        <time>2021-10-09T11:15:00Z</time>
      </trkpt>
      <trkpt lat="44.98998" lon="5.47567">
        <ele>1352</ele>
        <time>2021-10-09T11:15:01Z</time>
      </trkpt>
      <trkpt lat="44.98997" lon="5.47565">
        <ele>1352</ele>
        <time>2021-10-09T11:15:02Z</time>
      </trkpt>
      <trkpt lat="44.98997" lon="5.47563">
        <ele>1352.2</ele>
        <time>2021-10-09T11:15:03Z</time>
      </trkpt>
      <trkpt lat="44.98997" lon="5.47561">
        <ele>1352.4</ele>
        <time>2021-10-09T11:15:04Z</time>
      </trkpt>
      <trkpt lat="44.98996" lon="5.47559">
        <ele>1352.4</ele>
        <time>2021-10-09T11:15:05Z</time>
      </trkpt>
      <trkpt lat="44.98996" lon="5.47557">
        <ele>1352.4</ele>
        <time>2021-10-09T11:15:06Z</time>
      </trkpt>
      <trkpt lat="44.98994" lon="5.47556">
        <ele>1352.4</ele>
        <time>2021-10-09T11:15:07Z</time>
      </trkpt>
      <trkpt lat="44.98993" lon="5.47554">
        <ele>1352.6</ele>
        <time>2021-10-09T11:15:08Z</time>
      </trkpt>
      <trkpt lat="44.98992" lon="5.47553">
        <ele>1352.6</ele>
        <time>2021-10-09T11:15:09Z</time>
      </trkpt>
      <trkpt lat="44.98991" lon="5.47551">
        <ele>1352.6</ele>
        <time>2021-10-09T11:15:10Z</time>
      </trkpt>
      <trkpt lat="44.9899" lon="5.4755">
        <ele>1352.6</ele>
        <time>2021-10-09T11:15:11Z</time>
      </trkpt>
      <trkpt lat="44.98989" lon="5.47548">
        <ele>1352.2</ele>
        <time>2021-10-09T11:15:12Z</time>
      </trkpt>
      <trkpt lat="44.98987" lon="5.47547">
        <ele>1352.2</ele>
        <time>2021-10-09T11:15:13Z</time>
      </trkpt>
      <trkpt lat="44.98985" lon="5.47546">
        <ele>1352.2</ele>
        <time>2021-10-09T11:15:14Z</time>
      </trkpt>
      <trkpt lat="44.98983" lon="5.47545">
        <ele>1352.2</ele>
        <time>2021-10-09T11:15:15Z</time>
      </trkpt>
      <trkpt lat="44.98981" lon="5.47545">
        <ele>1352</ele>
        <time>2021-10-09T11:15:16Z</time>
      </trkpt>
      <trkpt lat="44.98979" lon="5.47545">
        <ele>1352</ele>
        <time>2021-10-09T11:15:17Z</time>
      </trkpt>
      <trkpt lat="44.98976" lon="5.47544">
        <ele>1352</ele>
        <time>2021-10-09T11:15:18Z</time>
      </trkpt>
      <trkpt lat="44.98974" lon="5.47545">
        <ele>1352</ele>
        <time>2021-10-09T11:15:19Z</time>
      </trkpt>
      <trkpt lat="44.98971" lon="5.47545">
        <ele>1351.4</ele>
        <time>2021-10-09T11:15:20Z</time>
      </trkpt>
      <trkpt lat="44.98968" lon="5.47547">
        <ele>1351.4</ele>
        <time>2021-10-09T11:15:21Z</time>
      </trkpt>
      <trkpt lat="44.98966" lon="5.47549">
        <ele>1351.4</ele>
        <time>2021-10-09T11:15:22Z</time>
      </trkpt>
      <trkpt lat="44.98965" lon="5.47551">
        <ele>1352.4</ele>
        <time>2021-10-09T11:15:23Z</time>
      </trkpt>
      <trkpt lat="44.98963" lon="5.47553">
        <ele>1354</ele>
        <time>2021-10-09T11:15:24Z</time>
      </trkpt>
      <trkpt lat="44.98962" lon="5.47554">
        <ele>1354</ele>
        <time>2021-10-09T11:15:25Z</time>
      </trkpt>
      <trkpt lat="44.98961" lon="5.47556">
        <ele>1354</ele>
        <time>2021-10-09T11:15:26Z</time>
      </trkpt>
      <trkpt lat="44.9896" lon="5.47557">
        <ele>1353.6</ele>
        <time>2021-10-09T11:15:27Z</time>
      </trkpt>
      <trkpt lat="44.9896" lon="5.47557">
        <ele>1353.4</ele>
        <time>2021-10-09T11:15:28Z</time>
      </trkpt>
      <trkpt lat="44.98959" lon="5.47558">
        <ele>1353.4</ele>
        <time>2021-10-09T11:15:29Z</time>
      </trkpt>
      <trkpt lat="44.98957" lon="5.47559">
        <ele>1353.4</ele>
        <time>2021-10-09T11:15:30Z</time>
      </trkpt>
      <trkpt lat="44.98956" lon="5.47561">
        <ele>1353.4</ele>
        <time>2021-10-09T11:15:31Z</time>
      </trkpt>
      <trkpt lat="44.98954" lon="5.47562">
        <ele>1352.4</ele>
        <time>2021-10-09T11:15:32Z</time>
      </trkpt>
      <trkpt lat="44.98951" lon="5.47564">
        <ele>1352.4</ele>
        <time>2021-10-09T11:15:33Z</time>
      </trkpt>
      <trkpt lat="44.9895" lon="5.47565">
        <ele>1352.4</ele>
        <time>2021-10-09T11:15:34Z</time>
      </trkpt>
      <trkpt lat="44.98948" lon="5.47567">
        <ele>1352.4</ele>
        <time>2021-10-09T11:15:35Z</time>
      </trkpt>
      <trkpt lat="44.98947" lon="5.4757">
        <ele>1352.2</ele>
        <time>2021-10-09T11:15:36Z</time>
      </trkpt>
      <trkpt lat="44.98945" lon="5.47576">
        <ele>1352.2</ele>
        <time>2021-10-09T11:15:37Z</time>
      </trkpt>
      <trkpt lat="44.98944" lon="5.47582">
        <ele>1352.2</ele>
        <time>2021-10-09T11:15:38Z</time>
      </trkpt>
      <trkpt lat="44.98941" lon="5.47588">
        <ele>1351.2</ele>
        <time>2021-10-09T11:15:39Z</time>
      </trkpt>
      <trkpt lat="44.98939" lon="5.47592">
        <ele>1350</ele>
        <time>2021-10-09T11:15:40Z</time>
      </trkpt>
      <trkpt lat="44.98938" lon="5.47598">
        <ele>1350</ele>
        <time>2021-10-09T11:15:41Z</time>
      </trkpt>
      <trkpt lat="44.98936" lon="5.47605">
        <ele>1350</ele>
        <time>2021-10-09T11:15:42Z</time>
      </trkpt>
      <trkpt lat="44.98936" lon="5.47613">
        <ele>1350</ele>
        <time>2021-10-09T11:15:43Z</time>
      </trkpt>
      <trkpt lat="44.98936" lon="5.4762">
        <ele>1348.8</ele>
        <time>2021-10-09T11:15:44Z</time>
      </trkpt>
      <trkpt lat="44.98934" lon="5.47626">
        <ele>1348.8</ele>
        <time>2021-10-09T11:15:45Z</time>
      </trkpt>
      <trkpt lat="44.98932" lon="5.47631">
        <ele>1348.8</ele>
        <time>2021-10-09T11:15:46Z</time>
      </trkpt>
      <trkpt lat="44.9893" lon="5.47636">
        <ele>1348.8</ele>
        <time>2021-10-09T11:15:47Z</time>
      </trkpt>
      <trkpt lat="44.98928" lon="5.47639">
        <ele>1350.4</ele>
        <time>2021-10-09T11:15:48Z</time>
      </trkpt>
      <trkpt lat="44.98927" lon="5.47642">
        <ele>1350.4</ele>
        <time>2021-10-09T11:15:49Z</time>
      </trkpt>
      <trkpt lat="44.98925" lon="5.47645">
        <ele>1350.4</ele>
        <time>2021-10-09T11:15:50Z</time>
      </trkpt>
      <trkpt lat="44.98923" lon="5.47648">
        <ele>1351.2</ele>
        <time>2021-10-09T11:15:51Z</time>
      </trkpt>
      <trkpt lat="44.98921" lon="5.47651">
        <ele>1351.4</ele>
        <time>2021-10-09T11:15:52Z</time>
      </trkpt>
      <trkpt lat="44.98919" lon="5.47654">
        <ele>1351.4</ele>
        <time>2021-10-09T11:15:53Z</time>
      </trkpt>
      <trkpt lat="44.98918" lon="5.47658">
        <ele>1351.4</ele>
        <time>2021-10-09T11:15:54Z</time>
      </trkpt>
      <trkpt lat="44.98916" lon="5.47662">
        <ele>1351.2</ele>
        <time>2021-10-09T11:15:55Z</time>
      </trkpt>
      <trkpt lat="44.98914" lon="5.47665">
        <ele>1351.8</ele>
        <time>2021-10-09T11:15:56Z</time>
      </trkpt>
      <trkpt lat="44.98912" lon="5.47669">
        <ele>1351.8</ele>
        <time>2021-10-09T11:15:57Z</time>
      </trkpt>
      <trkpt lat="44.98911" lon="5.47672">
        <ele>1351.8</ele>
        <time>2021-10-09T11:15:58Z</time>
      </trkpt>
      <trkpt lat="44.98911" lon="5.47674">
        <ele>1352.8</ele>
        <time>2021-10-09T11:15:59Z</time>
      </trkpt>
      <trkpt lat="44.9891" lon="5.47676">
        <ele>1353.4</ele>
        <time>2021-10-09T11:16:00Z</time>
      </trkpt>
      <trkpt lat="44.9891" lon="5.47679">
        <ele>1353.4</ele>
        <time>2021-10-09T11:16:01Z</time>
      </trkpt>
      <trkpt lat="44.9891" lon="5.47681">
        <ele>1353.4</ele>
        <time>2021-10-09T11:16:02Z</time>
      </trkpt>
      <trkpt lat="44.98909" lon="5.47684">
        <ele>1354.4</ele>
        <time>2021-10-09T11:16:03Z</time>
      </trkpt>
      <trkpt lat="44.98909" lon="5.47686">
        <ele>1354.8</ele>
        <time>2021-10-09T11:16:04Z</time>
      </trkpt>
      <trkpt lat="44.98909" lon="5.47689">
        <ele>1354.8</ele>
        <time>2021-10-09T11:16:05Z</time>
      </trkpt>
      <trkpt lat="44.98909" lon="5.47691">
        <ele>1354.8</ele>
        <time>2021-10-09T11:16:06Z</time>
      </trkpt>
      <trkpt lat="44.98909" lon="5.47693">
        <ele>1355.6</ele>
        <time>2021-10-09T11:16:07Z</time>
      </trkpt>
      <trkpt lat="44.98908" lon="5.47696">
        <ele>1355.8</ele>
        <time>2021-10-09T11:16:08Z</time>
      </trkpt>
      <trkpt lat="44.98908" lon="5.47698">
        <ele>1355.8</ele>
        <time>2021-10-09T11:16:09Z</time>
      </trkpt>
      <trkpt lat="44.98908" lon="5.477">
        <ele>1355.8</ele>
        <time>2021-10-09T11:16:10Z</time>
      </trkpt>
      <trkpt lat="44.98909" lon="5.47703">
        <ele>1355.8</ele>
        <time>2021-10-09T11:16:11Z</time>
      </trkpt>
      <trkpt lat="44.98909" lon="5.47705">
        <ele>1356.4</ele>
        <time>2021-10-09T11:16:12Z</time>
      </trkpt>
      <trkpt lat="44.98909" lon="5.47707">
        <ele>1356.4</ele>
        <time>2021-10-09T11:16:13Z</time>
      </trkpt>
      <trkpt lat="44.98909" lon="5.47709">
        <ele>1356.4</ele>
        <time>2021-10-09T11:16:14Z</time>
      </trkpt>
      <trkpt lat="44.98909" lon="5.47711">
        <ele>1357.2</ele>
        <time>2021-10-09T11:16:15Z</time>
      </trkpt>
      <trkpt lat="44.9891" lon="5.47713">
        <ele>1358</ele>
        <time>2021-10-09T11:16:16Z</time>
      </trkpt>
      <trkpt lat="44.9891" lon="5.47716">
        <ele>1358</ele>
        <time>2021-10-09T11:16:17Z</time>
      </trkpt>
      <trkpt lat="44.9891" lon="5.47718">
        <ele>1358</ele>
        <time>2021-10-09T11:16:18Z</time>
      </trkpt>
      <trkpt lat="44.98909" lon="5.4772">
        <ele>1358</ele>
        <time>2021-10-09T11:16:19Z</time>
      </trkpt>
      <trkpt lat="44.98909" lon="5.47722">
        <ele>1358.8</ele>
        <time>2021-10-09T11:16:20Z</time>
      </trkpt>
      <trkpt lat="44.98909" lon="5.47723">
        <ele>1358.8</ele>
        <time>2021-10-09T11:16:21Z</time>
      </trkpt>
      <trkpt lat="44.98909" lon="5.47725">
        <ele>1358.8</ele>
        <time>2021-10-09T11:16:22Z</time>
      </trkpt>
      <trkpt lat="44.98909" lon="5.47727">
        <ele>1359.4</ele>
        <time>2021-10-09T11:16:23Z</time>
      </trkpt>
      <trkpt lat="44.98908" lon="5.47729">
        <ele>1359.6</ele>
        <time>2021-10-09T11:16:24Z</time>
      </trkpt>
      <trkpt lat="44.98908" lon="5.47731">
        <ele>1359.6</ele>
        <time>2021-10-09T11:16:25Z</time>
      </trkpt>
      <trkpt lat="44.98907" lon="5.47733">
        <ele>1359.6</ele>
        <time>2021-10-09T11:16:26Z</time>
      </trkpt>
      <trkpt lat="44.98907" lon="5.47736">
        <ele>1360.2</ele>
        <time>2021-10-09T11:16:27Z</time>
      </trkpt>
      <trkpt lat="44.98907" lon="5.47738">
        <ele>1360.4</ele>
        <time>2021-10-09T11:16:28Z</time>
      </trkpt>
      <trkpt lat="44.98907" lon="5.4774">
        <ele>1360.4</ele>
        <time>2021-10-09T11:16:29Z</time>
      </trkpt>
      <trkpt lat="44.98907" lon="5.47742">
        <ele>1360.4</ele>
        <time>2021-10-09T11:16:30Z</time>
      </trkpt>
      <trkpt lat="44.98906" lon="5.47745">
        <ele>1360.4</ele>
        <time>2021-10-09T11:16:31Z</time>
      </trkpt>
      <trkpt lat="44.98906" lon="5.47747">
        <ele>1360.4</ele>
        <time>2021-10-09T11:16:32Z</time>
      </trkpt>
      <trkpt lat="44.98905" lon="5.47749">
        <ele>1360.4</ele>
        <time>2021-10-09T11:16:33Z</time>
      </trkpt>
      <trkpt lat="44.98904" lon="5.47751">
        <ele>1360.4</ele>
        <time>2021-10-09T11:16:34Z</time>
      </trkpt>
      <trkpt lat="44.98903" lon="5.47753">
        <ele>1360.4</ele>
        <time>2021-10-09T11:16:35Z</time>
      </trkpt>
      <trkpt lat="44.98901" lon="5.47756">
        <ele>1360.2</ele>
        <time>2021-10-09T11:16:36Z</time>
      </trkpt>
      <trkpt lat="44.989" lon="5.47759">
        <ele>1360.2</ele>
        <time>2021-10-09T11:16:37Z</time>
      </trkpt>
      <trkpt lat="44.98898" lon="5.47762">
        <ele>1360.2</ele>
        <time>2021-10-09T11:16:38Z</time>
      </trkpt>
      <trkpt lat="44.98897" lon="5.47764">
        <ele>1360.2</ele>
        <time>2021-10-09T11:16:39Z</time>
      </trkpt>
      <trkpt lat="44.98896" lon="5.47767">
        <ele>1360.4</ele>
        <time>2021-10-09T11:16:40Z</time>
      </trkpt>
      <trkpt lat="44.98895" lon="5.47768">
        <ele>1360.4</ele>
        <time>2021-10-09T11:16:41Z</time>
      </trkpt>
      <trkpt lat="44.98894" lon="5.47771">
        <ele>1360.4</ele>
        <time>2021-10-09T11:16:42Z</time>
      </trkpt>
      <trkpt lat="44.98894" lon="5.47774">
        <ele>1360.4</ele>
        <time>2021-10-09T11:16:43Z</time>
      </trkpt>
      <trkpt lat="44.98893" lon="5.47778">
        <ele>1360.2</ele>
        <time>2021-10-09T11:16:44Z</time>
      </trkpt>
      <trkpt lat="44.98891" lon="5.47781">
        <ele>1360.2</ele>
        <time>2021-10-09T11:16:45Z</time>
      </trkpt>
      <trkpt lat="44.9889" lon="5.47785">
        <ele>1360.2</ele>
        <time>2021-10-09T11:16:46Z</time>
      </trkpt>
      <trkpt lat="44.98889" lon="5.47789">
        <ele>1360.2</ele>
        <time>2021-10-09T11:16:47Z</time>
      </trkpt>
      <trkpt lat="44.98889" lon="5.47793">
        <ele>1360.4</ele>
        <time>2021-10-09T11:16:48Z</time>
      </trkpt>
      <trkpt lat="44.98889" lon="5.47797">
        <ele>1360.4</ele>
        <time>2021-10-09T11:16:49Z</time>
      </trkpt>
      <trkpt lat="44.98888" lon="5.478">
        <ele>1360.4</ele>
        <time>2021-10-09T11:16:50Z</time>
      </trkpt>
      <trkpt lat="44.98887" lon="5.47802">
        <ele>1361.4</ele>
        <time>2021-10-09T11:16:51Z</time>
      </trkpt>
      <trkpt lat="44.98886" lon="5.47803">
        <ele>1361.6</ele>
        <time>2021-10-09T11:16:52Z</time>
      </trkpt>
      <trkpt lat="44.98885" lon="5.47805">
        <ele>1361.6</ele>
        <time>2021-10-09T11:16:53Z</time>
      </trkpt>
      <trkpt lat="44.98884" lon="5.47806">
        <ele>1361.6</ele>
        <time>2021-10-09T11:16:54Z</time>
      </trkpt>
      <trkpt lat="44.98883" lon="5.47807">
        <ele>1361.6</ele>
        <time>2021-10-09T11:16:55Z</time>
      </trkpt>
      <trkpt lat="44.98882" lon="5.47808">
        <ele>1361.6</ele>
        <time>2021-10-09T11:16:56Z</time>
      </trkpt>
      <trkpt lat="44.9888" lon="5.47809">
        <ele>1361.6</ele>
        <time>2021-10-09T11:16:57Z</time>
      </trkpt>
      <trkpt lat="44.98879" lon="5.4781">
        <ele>1361.6</ele>
        <time>2021-10-09T11:16:58Z</time>
      </trkpt>
      <trkpt lat="44.98876" lon="5.47811">
        <ele>1361.6</ele>
        <time>2021-10-09T11:16:59Z</time>
      </trkpt>
      <trkpt lat="44.98874" lon="5.47812">
        <ele>1361.8</ele>
        <time>2021-10-09T11:17:00Z</time>
      </trkpt>
      <trkpt lat="44.98873" lon="5.47813">
        <ele>1361.8</ele>
        <time>2021-10-09T11:17:01Z</time>
      </trkpt>
      <trkpt lat="44.98871" lon="5.47814">
        <ele>1361.8</ele>
        <time>2021-10-09T11:17:02Z</time>
      </trkpt>
      <trkpt lat="44.98869" lon="5.47815">
        <ele>1361.8</ele>
        <time>2021-10-09T11:17:03Z</time>
      </trkpt>
      <trkpt lat="44.9887" lon="5.47829">
        <ele>1360.2</ele>
        <time>2021-10-09T11:19:49Z</time>
      </trkpt>
      <trkpt lat="44.98869" lon="5.47831">
        <ele>1360.2</ele>
        <time>2021-10-09T11:19:50Z</time>
      </trkpt>
      <trkpt lat="44.98868" lon="5.47834">
        <ele>1360.2</ele>
        <time>2021-10-09T11:19:51Z</time>
      </trkpt>
      <trkpt lat="44.98867" lon="5.47836">
        <ele>1359.4</ele>
        <time>2021-10-09T11:19:52Z</time>
      </trkpt>
      <trkpt lat="44.98866" lon="5.47839">
        <ele>1359.4</ele>
        <time>2021-10-09T11:19:53Z</time>
      </trkpt>
      <trkpt lat="44.98867" lon="5.47842">
        <ele>1359.4</ele>
        <time>2021-10-09T11:19:54Z</time>
      </trkpt>
      <trkpt lat="44.98867" lon="5.47844">
        <ele>1358.4</ele>
        <time>2021-10-09T11:19:55Z</time>
      </trkpt>
      <trkpt lat="44.98867" lon="5.47847">
        <ele>1358</ele>
        <time>2021-10-09T11:19:56Z</time>
      </trkpt>
      <trkpt lat="44.98867" lon="5.4785">
        <ele>1358</ele>
        <time>2021-10-09T11:19:57Z</time>
      </trkpt>
      <trkpt lat="44.98868" lon="5.47852">
        <ele>1358</ele>
        <time>2021-10-09T11:19:58Z</time>
      </trkpt>
      <trkpt lat="44.98868" lon="5.47855">
        <ele>1357</ele>
        <time>2021-10-09T11:19:59Z</time>
      </trkpt>
      <trkpt lat="44.98869" lon="5.47858">
        <ele>1356.4</ele>
        <time>2021-10-09T11:20:00Z</time>
      </trkpt>
      <trkpt lat="44.98869" lon="5.47861">
        <ele>1356.4</ele>
        <time>2021-10-09T11:20:01Z</time>
      </trkpt>
      <trkpt lat="44.9887" lon="5.47865">
        <ele>1356.4</ele>
        <time>2021-10-09T11:20:02Z</time>
      </trkpt>
      <trkpt lat="44.98871" lon="5.47869">
        <ele>1355.4</ele>
        <time>2021-10-09T11:20:03Z</time>
      </trkpt>
      <trkpt lat="44.98872" lon="5.47873">
        <ele>1353.4</ele>
        <time>2021-10-09T11:20:04Z</time>
      </trkpt>
      <trkpt lat="44.98873" lon="5.47877">
        <ele>1353.4</ele>
        <time>2021-10-09T11:20:05Z</time>
      </trkpt>
      <trkpt lat="44.98874" lon="5.4788">
        <ele>1353.4</ele>
        <time>2021-10-09T11:20:06Z</time>
      </trkpt>
      <trkpt lat="44.98875" lon="5.47884">
        <ele>1352.6</ele>
        <time>2021-10-09T11:20:07Z</time>
      </trkpt>
      <trkpt lat="44.98876" lon="5.47888">
        <ele>1352</ele>
        <time>2021-10-09T11:20:08Z</time>
      </trkpt>
      <trkpt lat="44.98878" lon="5.47891">
        <ele>1352</ele>
        <time>2021-10-09T11:20:09Z</time>
      </trkpt>
      <trkpt lat="44.98878" lon="5.47895">
        <ele>1352</ele>
        <time>2021-10-09T11:20:10Z</time>
      </trkpt>
      <trkpt lat="44.98879" lon="5.47898">
        <ele>1352</ele>
        <time>2021-10-09T11:20:11Z</time>
      </trkpt>
      <trkpt lat="44.9888" lon="5.47901">
        <ele>1350</ele>
        <time>2021-10-09T11:20:12Z</time>
      </trkpt>
      <trkpt lat="44.9888" lon="5.47905">
        <ele>1350</ele>
        <time>2021-10-09T11:20:13Z</time>
      </trkpt>
      <trkpt lat="44.9888" lon="5.47908">
        <ele>1350</ele>
        <time>2021-10-09T11:20:14Z</time>
      </trkpt>
      <trkpt lat="44.98879" lon="5.47912">
        <ele>1349</ele>
        <time>2021-10-09T11:20:15Z</time>
      </trkpt>
      <trkpt lat="44.98879" lon="5.47916">
        <ele>1347.6</ele>
        <time>2021-10-09T11:20:16Z</time>
      </trkpt>
      <trkpt lat="44.98878" lon="5.47919">
        <ele>1347.6</ele>
        <time>2021-10-09T11:20:17Z</time>
      </trkpt>
      <trkpt lat="44.98877" lon="5.47923">
        <ele>1347.6</ele>
        <time>2021-10-09T11:20:18Z</time>
      </trkpt>
      <trkpt lat="44.98877" lon="5.47926">
        <ele>1346.6</ele>
        <time>2021-10-09T11:20:19Z</time>
      </trkpt>
      <trkpt lat="44.98875" lon="5.47929">
        <ele>1347.4</ele>
        <time>2021-10-09T11:20:20Z</time>
      </trkpt>
      <trkpt lat="44.98873" lon="5.47932">
        <ele>1347.4</ele>
        <time>2021-10-09T11:20:21Z</time>
      </trkpt>
      <trkpt lat="44.98869" lon="5.47935">
        <ele>1347.4</ele>
        <time>2021-10-09T11:20:22Z</time>
      </trkpt>
      <trkpt lat="44.98864" lon="5.47938">
        <ele>1346.4</ele>
        <time>2021-10-09T11:20:23Z</time>
      </trkpt>
      <trkpt lat="44.98858" lon="5.47941">
        <ele>1340.8</ele>
        <time>2021-10-09T11:20:24Z</time>
      </trkpt>
      <trkpt lat="44.98852" lon="5.47945">
        <ele>1340.8</ele>
        <time>2021-10-09T11:20:25Z</time>
      </trkpt>
      <trkpt lat="44.98846" lon="5.47947">
        <ele>1340.8</ele>
        <time>2021-10-09T11:20:26Z</time>
      </trkpt>
      <trkpt lat="44.9884" lon="5.47949">
        <ele>1340.8</ele>
        <time>2021-10-09T11:20:27Z</time>
      </trkpt>
      <trkpt lat="44.98835" lon="5.4795">
        <ele>1342.4</ele>
        <time>2021-10-09T11:20:28Z</time>
      </trkpt>
      <trkpt lat="44.98831" lon="5.47952">
        <ele>1342.4</ele>
        <time>2021-10-09T11:20:29Z</time>
      </trkpt>
      <trkpt lat="44.98827" lon="5.47953">
        <ele>1342.4</ele>
        <time>2021-10-09T11:20:30Z</time>
      </trkpt>
      <trkpt lat="44.98823" lon="5.47955">
        <ele>1343.2</ele>
        <time>2021-10-09T11:20:31Z</time>
      </trkpt>
      <trkpt lat="44.9882" lon="5.47956">
        <ele>1343.2</ele>
        <time>2021-10-09T11:20:32Z</time>
      </trkpt>
      <trkpt lat="44.98816" lon="5.47959">
        <ele>1343.2</ele>
        <time>2021-10-09T11:20:33Z</time>
      </trkpt>
      <trkpt lat="44.98813" lon="5.47961">
        <ele>1343.2</ele>
        <time>2021-10-09T11:20:34Z</time>
      </trkpt>
      <trkpt lat="44.9881" lon="5.47964">
        <ele>1342.2</ele>
        <time>2021-10-09T11:20:35Z</time>
      </trkpt>
      <trkpt lat="44.98807" lon="5.47966">
        <ele>1342.2</ele>
        <time>2021-10-09T11:20:36Z</time>
      </trkpt>
      <trkpt lat="44.98804" lon="5.47968">
        <ele>1341.8</ele>
        <time>2021-10-09T11:20:37Z</time>
      </trkpt>
      <trkpt lat="44.988" lon="5.4797">
        <ele>1341.8</ele>
        <time>2021-10-09T11:20:38Z</time>
      </trkpt>
      <trkpt lat="44.98796" lon="5.47973">
        <ele>1340.8</ele>
        <time>2021-10-09T11:20:39Z</time>
      </trkpt>
      <trkpt lat="44.98793" lon="5.47977">
        <ele>1340</ele>
        <time>2021-10-09T11:20:40Z</time>
      </trkpt>
      <trkpt lat="44.9879" lon="5.47982">
        <ele>1340</ele>
        <time>2021-10-09T11:20:41Z</time>
      </trkpt>
      <trkpt lat="44.98787" lon="5.47987">
        <ele>1340</ele>
        <time>2021-10-09T11:20:42Z</time>
      </trkpt>
      <trkpt lat="44.98784" lon="5.4799">
        <ele>1339</ele>
        <time>2021-10-09T11:20:43Z</time>
      </trkpt>
      <trkpt lat="44.98781" lon="5.47994">
        <ele>1338</ele>
        <time>2021-10-09T11:20:44Z</time>
      </trkpt>
      <trkpt lat="44.98777" lon="5.47997">
        <ele>1338</ele>
        <time>2021-10-09T11:20:45Z</time>
      </trkpt>
      <trkpt lat="44.98774" lon="5.48">
        <ele>1338</ele>
        <time>2021-10-09T11:20:46Z</time>
      </trkpt>
      <trkpt lat="44.98772" lon="5.48004">
        <ele>1337</ele>
        <time>2021-10-09T11:20:47Z</time>
      </trkpt>
      <trkpt lat="44.98769" lon="5.48009">
        <ele>1336</ele>
        <time>2021-10-09T11:20:48Z</time>
      </trkpt>
      <trkpt lat="44.98766" lon="5.48012">
        <ele>1336</ele>
        <time>2021-10-09T11:20:49Z</time>
      </trkpt>
      <trkpt lat="44.98763" lon="5.48017">
        <ele>1336</ele>
        <time>2021-10-09T11:20:50Z</time>
      </trkpt>
      <trkpt lat="44.98761" lon="5.48021">
        <ele>1335.4</ele>
        <time>2021-10-09T11:20:51Z</time>
      </trkpt>
      <trkpt lat="44.98758" lon="5.48025">
        <ele>1335.2</ele>
        <time>2021-10-09T11:20:52Z</time>
      </trkpt>
      <trkpt lat="44.98755" lon="5.48029">
        <ele>1335.2</ele>
        <time>2021-10-09T11:20:53Z</time>
      </trkpt>
      <trkpt lat="44.98752" lon="5.48033">
        <ele>1335.2</ele>
        <time>2021-10-09T11:20:54Z</time>
      </trkpt>
      <trkpt lat="44.9875" lon="5.48036">
        <ele>1336.2</ele>
        <time>2021-10-09T11:20:55Z</time>
      </trkpt>
      <trkpt lat="44.98747" lon="5.48039">
        <ele>1337.6</ele>
        <time>2021-10-09T11:20:56Z</time>
      </trkpt>
      <trkpt lat="44.98745" lon="5.48041">
        <ele>1337.6</ele>
        <time>2021-10-09T11:20:57Z</time>
      </trkpt>
      <trkpt lat="44.98743" lon="5.48043">
        <ele>1337.6</ele>
        <time>2021-10-09T11:20:58Z</time>
      </trkpt>
      <trkpt lat="44.98741" lon="5.48044">
        <ele>1338.6</ele>
        <time>2021-10-09T11:20:59Z</time>
      </trkpt>
      <trkpt lat="44.9874" lon="5.48045">
        <ele>1339</ele>
        <time>2021-10-09T11:21:00Z</time>
      </trkpt>
      <trkpt lat="44.98738" lon="5.48047">
        <ele>1339</ele>
        <time>2021-10-09T11:21:01Z</time>
      </trkpt>
      <trkpt lat="44.98737" lon="5.48049">
        <ele>1339</ele>
        <time>2021-10-09T11:21:02Z</time>
      </trkpt>
      <trkpt lat="44.98735" lon="5.4805">
        <ele>1340</ele>
        <time>2021-10-09T11:21:03Z</time>
      </trkpt>
      <trkpt lat="44.98733" lon="5.48052">
        <ele>1340.4</ele>
        <time>2021-10-09T11:21:04Z</time>
      </trkpt>
      <trkpt lat="44.98732" lon="5.48054">
        <ele>1340.4</ele>
        <time>2021-10-09T11:21:05Z</time>
      </trkpt>
      <trkpt lat="44.9873" lon="5.48056">
        <ele>1340.4</ele>
        <time>2021-10-09T11:21:06Z</time>
      </trkpt>
      <trkpt lat="44.98728" lon="5.48059">
        <ele>1340.4</ele>
        <time>2021-10-09T11:21:07Z</time>
      </trkpt>
      <trkpt lat="44.98726" lon="5.48061">
        <ele>1340.4</ele>
        <time>2021-10-09T11:21:08Z</time>
      </trkpt>
      <trkpt lat="44.98724" lon="5.48064">
        <ele>1340.4</ele>
        <time>2021-10-09T11:21:09Z</time>
      </trkpt>
      <trkpt lat="44.98722" lon="5.48067">
        <ele>1340.4</ele>
        <time>2021-10-09T11:21:10Z</time>
      </trkpt>
      <trkpt lat="44.9872" lon="5.48069">
        <ele>1341.4</ele>
        <time>2021-10-09T11:21:11Z</time>
      </trkpt>
      <trkpt lat="44.98719" lon="5.48072">
        <ele>1342.2</ele>
        <time>2021-10-09T11:21:12Z</time>
      </trkpt>
      <trkpt lat="44.98717" lon="5.48074">
        <ele>1342.2</ele>
        <time>2021-10-09T11:21:13Z</time>
      </trkpt>
      <trkpt lat="44.98715" lon="5.48075">
        <ele>1342.2</ele>
        <time>2021-10-09T11:21:14Z</time>
      </trkpt>
      <trkpt lat="44.98714" lon="5.48077">
        <ele>1343.2</ele>
        <time>2021-10-09T11:21:15Z</time>
      </trkpt>
      <trkpt lat="44.98713" lon="5.48079">
        <ele>1343.4</ele>
        <time>2021-10-09T11:21:16Z</time>
      </trkpt>
      <trkpt lat="44.98711" lon="5.4808">
        <ele>1343.4</ele>
        <time>2021-10-09T11:21:17Z</time>
      </trkpt>
      <trkpt lat="44.9871" lon="5.48081">
        <ele>1343.4</ele>
        <time>2021-10-09T11:21:18Z</time>
      </trkpt>
      <trkpt lat="44.98709" lon="5.48082">
        <ele>1343.8</ele>
        <time>2021-10-09T11:21:19Z</time>
      </trkpt>
      <trkpt lat="44.98708" lon="5.48083">
        <ele>1344.8</ele>
        <time>2021-10-09T11:21:20Z</time>
      </trkpt>
      <trkpt lat="44.98706" lon="5.48085">
        <ele>1344.8</ele>
        <time>2021-10-09T11:21:21Z</time>
      </trkpt>
      <trkpt lat="44.98705" lon="5.48087">
        <ele>1344.8</ele>
        <time>2021-10-09T11:21:22Z</time>
      </trkpt>
      <trkpt lat="44.98704" lon="5.48088">
        <ele>1345.2</ele>
        <time>2021-10-09T11:21:23Z</time>
      </trkpt>
      <trkpt lat="44.98703" lon="5.48089">
        <ele>1345.2</ele>
        <time>2021-10-09T11:21:24Z</time>
      </trkpt>
      <trkpt lat="44.98702" lon="5.48091">
        <ele>1345.2</ele>
        <time>2021-10-09T11:21:25Z</time>
      </trkpt>
      <trkpt lat="44.987" lon="5.48092">
        <ele>1345.2</ele>
        <time>2021-10-09T11:21:26Z</time>
      </trkpt>
      <trkpt lat="44.98699" lon="5.48094">
        <ele>1345.2</ele>
        <time>2021-10-09T11:21:27Z</time>
      </trkpt>
      <trkpt lat="44.98698" lon="5.48096">
        <ele>1344.6</ele>
        <time>2021-10-09T11:21:28Z</time>
      </trkpt>
      <trkpt lat="44.98696" lon="5.48098">
        <ele>1344.6</ele>
        <time>2021-10-09T11:21:29Z</time>
      </trkpt>
      <trkpt lat="44.98695" lon="5.48101">
        <ele>1344.6</ele>
        <time>2021-10-09T11:21:30Z</time>
      </trkpt>
      <trkpt lat="44.98692" lon="5.48104">
        <ele>1344.6</ele>
        <time>2021-10-09T11:21:31Z</time>
      </trkpt>
      <trkpt lat="44.9869" lon="5.48107">
        <ele>1342.2</ele>
        <time>2021-10-09T11:21:32Z</time>
      </trkpt>
      <trkpt lat="44.98686" lon="5.4811">
        <ele>1342.2</ele>
        <time>2021-10-09T11:21:33Z</time>
      </trkpt>
      <trkpt lat="44.98682" lon="5.48114">
        <ele>1342.2</ele>
        <time>2021-10-09T11:21:34Z</time>
      </trkpt>
      <trkpt lat="44.98677" lon="5.48118">
        <ele>1341.2</ele>
        <time>2021-10-09T11:21:35Z</time>
      </trkpt>
      <trkpt lat="44.98672" lon="5.48124">
        <ele>1340.8</ele>
        <time>2021-10-09T11:21:36Z</time>
      </trkpt>
      <trkpt lat="44.98667" lon="5.48129">
        <ele>1340.8</ele>
        <time>2021-10-09T11:21:37Z</time>
      </trkpt>
      <trkpt lat="44.98661" lon="5.48134">
        <ele>1340.8</ele>
        <time>2021-10-09T11:21:38Z</time>
      </trkpt>
      <trkpt lat="44.98655" lon="5.48138">
        <ele>1340.8</ele>
        <time>2021-10-09T11:21:39Z</time>
      </trkpt>
      <trkpt lat="44.9865" lon="5.48141">
        <ele>1341.8</ele>
        <time>2021-10-09T11:21:40Z</time>
      </trkpt>
      <trkpt lat="44.98646" lon="5.48143">
        <ele>1341.8</ele>
        <time>2021-10-09T11:21:41Z</time>
      </trkpt>
      <trkpt lat="44.98642" lon="5.48145">
        <ele>1341.8</ele>
        <time>2021-10-09T11:21:42Z</time>
      </trkpt>
      <trkpt lat="44.9864" lon="5.48147">
        <ele>1342.8</ele>
        <time>2021-10-09T11:21:43Z</time>
      </trkpt>
      <trkpt lat="44.98638" lon="5.48148">
        <ele>1343.6</ele>
        <time>2021-10-09T11:21:44Z</time>
      </trkpt>
      <trkpt lat="44.98638" lon="5.48148">
        <ele>1343.6</ele>
        <time>2021-10-09T11:21:45Z</time>
      </trkpt>
      <trkpt lat="44.98637" lon="5.48148">
        <ele>1343.6</ele>
        <time>2021-10-09T11:21:46Z</time>
      </trkpt>
      <trkpt lat="44.98636" lon="5.48149">
        <ele>1343.6</ele>
        <time>2021-10-09T11:21:47Z</time>
      </trkpt>
      <trkpt lat="44.98636" lon="5.48149">
        <ele>1343.8</ele>
        <time>2021-10-09T11:21:48Z</time>
      </trkpt>
      <trkpt lat="44.98634" lon="5.4815">
        <ele>1343.8</ele>
        <time>2021-10-09T11:21:49Z</time>
      </trkpt>
      <trkpt lat="44.98634" lon="5.4815">
        <ele>1343.8</ele>
        <time>2021-10-09T11:21:50Z</time>
      </trkpt>
      <trkpt lat="44.98633" lon="5.48151">
        <ele>1343.8</ele>
        <time>2021-10-09T11:21:51Z</time>
      </trkpt>
      <trkpt lat="44.98633" lon="5.48151">
        <ele>1344</ele>
        <time>2021-10-09T11:21:52Z</time>
      </trkpt>
      <trkpt lat="44.98632" lon="5.48151">
        <ele>1344</ele>
        <time>2021-10-09T11:21:53Z</time>
      </trkpt>
      <trkpt lat="44.98631" lon="5.48152">
        <ele>1344</ele>
        <time>2021-10-09T11:21:54Z</time>
      </trkpt>
      <trkpt lat="44.9863" lon="5.48152">
        <ele>1345</ele>
        <time>2021-10-09T11:21:55Z</time>
      </trkpt>
      <trkpt lat="44.9863" lon="5.48152">
        <ele>1345.4</ele>
        <time>2021-10-09T11:21:56Z</time>
      </trkpt>
      <trkpt lat="44.98629" lon="5.48153">
        <ele>1345.4</ele>
        <time>2021-10-09T11:21:57Z</time>
      </trkpt>
      <trkpt lat="44.98629" lon="5.48153">
        <ele>1345.4</ele>
        <time>2021-10-09T11:21:58Z</time>
      </trkpt>
      <trkpt lat="44.98628" lon="5.48154">
        <ele>1345.4</ele>
        <time>2021-10-09T11:21:59Z</time>
      </trkpt>
      <trkpt lat="44.98627" lon="5.48154">
        <ele>1345.4</ele>
        <time>2021-10-09T11:22:00Z</time>
      </trkpt>
      <trkpt lat="44.98626" lon="5.48155">
        <ele>1345.4</ele>
        <time>2021-10-09T11:22:01Z</time>
      </trkpt>
      <trkpt lat="44.98626" lon="5.48156">
        <ele>1345.4</ele>
        <time>2021-10-09T11:22:02Z</time>
      </trkpt>
      <trkpt lat="44.98625" lon="5.48156">
        <ele>1346.4</ele>
        <time>2021-10-09T11:22:03Z</time>
      </trkpt>
      <trkpt lat="44.98625" lon="5.48157">
        <ele>1346.2</ele>
        <time>2021-10-09T11:22:04Z</time>
      </trkpt>
      <trkpt lat="44.98624" lon="5.48157">
        <ele>1346.2</ele>
        <time>2021-10-09T11:22:05Z</time>
      </trkpt>
      <trkpt lat="44.98624" lon="5.48158">
        <ele>1346.2</ele>
        <time>2021-10-09T11:22:06Z</time>
      </trkpt>
      <trkpt lat="44.98623" lon="5.48159">
        <ele>1347</ele>
        <time>2021-10-09T11:22:07Z</time>
      </trkpt>
      <trkpt lat="44.98622" lon="5.48159">
        <ele>1347.2</ele>
        <time>2021-10-09T11:22:08Z</time>
      </trkpt>
      <trkpt lat="44.98622" lon="5.48159">
        <ele>1347.2</ele>
        <time>2021-10-09T11:22:09Z</time>
      </trkpt>
      <trkpt lat="44.98621" lon="5.4816">
        <ele>1347.2</ele>
        <time>2021-10-09T11:22:10Z</time>
      </trkpt>
      <trkpt lat="44.98621" lon="5.48161">
        <ele>1347.6</ele>
        <time>2021-10-09T11:22:11Z</time>
      </trkpt>
      <trkpt lat="44.98621" lon="5.48161">
        <ele>1348</ele>
        <time>2021-10-09T11:22:12Z</time>
      </trkpt>
      <trkpt lat="44.9862" lon="5.48162">
        <ele>1348</ele>
        <time>2021-10-09T11:22:13Z</time>
      </trkpt>
      <trkpt lat="44.98619" lon="5.48162">
        <ele>1348</ele>
        <time>2021-10-09T11:22:14Z</time>
      </trkpt>
      <trkpt lat="44.98619" lon="5.48163">
        <ele>1348</ele>
        <time>2021-10-09T11:22:15Z</time>
      </trkpt>
      <trkpt lat="44.98618" lon="5.48164">
        <ele>1348.6</ele>
        <time>2021-10-09T11:22:16Z</time>
      </trkpt>
      <trkpt lat="44.98618" lon="5.48164">
        <ele>1348.6</ele>
        <time>2021-10-09T11:22:17Z</time>
      </trkpt>
      <trkpt lat="44.98617" lon="5.48165">
        <ele>1348.6</ele>
        <time>2021-10-09T11:22:18Z</time>
      </trkpt>
      <trkpt lat="44.98617" lon="5.48165">
        <ele>1348.6</ele>
        <time>2021-10-09T11:22:19Z</time>
      </trkpt>
      <trkpt lat="44.98617" lon="5.48165">
        <ele>1349.2</ele>
        <time>2021-10-09T11:22:20Z</time>
      </trkpt>
      <trkpt lat="44.98616" lon="5.48166">
        <ele>1349.2</ele>
        <time>2021-10-09T11:22:21Z</time>
      </trkpt>
      <trkpt lat="44.98615" lon="5.48167">
        <ele>1349.2</ele>
        <time>2021-10-09T11:22:22Z</time>
      </trkpt>
      <trkpt lat="44.98615" lon="5.48168">
        <ele>1349.2</ele>
        <time>2021-10-09T11:22:23Z</time>
      </trkpt>
      <trkpt lat="44.98614" lon="5.48168">
        <ele>1349.6</ele>
        <time>2021-10-09T11:22:24Z</time>
      </trkpt>
      <trkpt lat="44.98597" lon="5.48183">
        <ele>1351.2</ele>
        <time>2021-10-09T11:23:44Z</time>
      </trkpt>
      <trkpt lat="44.98596" lon="5.48185">
        <ele>1351.2</ele>
        <time>2021-10-09T11:23:45Z</time>
      </trkpt>
      <trkpt lat="44.98594" lon="5.48186">
        <ele>1351.2</ele>
        <time>2021-10-09T11:23:46Z</time>
      </trkpt>
      <trkpt lat="44.98592" lon="5.48188">
        <ele>1350.2</ele>
        <time>2021-10-09T11:23:47Z</time>
      </trkpt>
      <trkpt lat="44.9859" lon="5.48189">
        <ele>1349.2</ele>
        <time>2021-10-09T11:23:48Z</time>
      </trkpt>
      <trkpt lat="44.98589" lon="5.48191">
        <ele>1349.2</ele>
        <time>2021-10-09T11:23:49Z</time>
      </trkpt>
      <trkpt lat="44.98587" lon="5.48192">
        <ele>1349.2</ele>
        <time>2021-10-09T11:23:50Z</time>
      </trkpt>
      <trkpt lat="44.98585" lon="5.48194">
        <ele>1348.2</ele>
        <time>2021-10-09T11:23:51Z</time>
      </trkpt>
      <trkpt lat="44.98583" lon="5.48195">
        <ele>1347.4</ele>
        <time>2021-10-09T11:23:52Z</time>
      </trkpt>
      <trkpt lat="44.98581" lon="5.48196">
        <ele>1347.4</ele>
        <time>2021-10-09T11:23:53Z</time>
      </trkpt>
      <trkpt lat="44.9858" lon="5.48198">
        <ele>1347.4</ele>
        <time>2021-10-09T11:23:54Z</time>
      </trkpt>
      <trkpt lat="44.98578" lon="5.48199">
        <ele>1347.4</ele>
        <time>2021-10-09T11:23:55Z</time>
      </trkpt>
      <trkpt lat="44.98577" lon="5.48201">
        <ele>1346</ele>
        <time>2021-10-09T11:23:56Z</time>
      </trkpt>
      <trkpt lat="44.98575" lon="5.48202">
        <ele>1346</ele>
        <time>2021-10-09T11:23:57Z</time>
      </trkpt>
      <trkpt lat="44.98573" lon="5.48205">
        <ele>1346</ele>
        <time>2021-10-09T11:23:58Z</time>
      </trkpt>
      <trkpt lat="44.9857" lon="5.4821">
        <ele>1345</ele>
        <time>2021-10-09T11:23:59Z</time>
      </trkpt>
      <trkpt lat="44.98568" lon="5.48215">
        <ele>1343.2</ele>
        <time>2021-10-09T11:24:00Z</time>
      </trkpt>
      <trkpt lat="44.98566" lon="5.48222">
        <ele>1343.2</ele>
        <time>2021-10-09T11:24:01Z</time>
      </trkpt>
      <trkpt lat="44.98565" lon="5.48227">
        <ele>1343.2</ele>
        <time>2021-10-09T11:24:02Z</time>
      </trkpt>
      <trkpt lat="44.98564" lon="5.48231">
        <ele>1343.8</ele>
        <time>2021-10-09T11:24:03Z</time>
      </trkpt>
      <trkpt lat="44.98563" lon="5.48233">
        <ele>1344.2</ele>
        <time>2021-10-09T11:24:04Z</time>
      </trkpt>
      <trkpt lat="44.98563" lon="5.48236">
        <ele>1344.2</ele>
        <time>2021-10-09T11:24:05Z</time>
      </trkpt>
      <trkpt lat="44.98562" lon="5.48239">
        <ele>1344.2</ele>
        <time>2021-10-09T11:24:06Z</time>
      </trkpt>
      <trkpt lat="44.98562" lon="5.48243">
        <ele>1343.2</ele>
        <time>2021-10-09T11:24:07Z</time>
      </trkpt>
      <trkpt lat="44.98561" lon="5.48248">
        <ele>1341.8</ele>
        <time>2021-10-09T11:24:08Z</time>
      </trkpt>
      <trkpt lat="44.98561" lon="5.48252">
        <ele>1341.8</ele>
        <time>2021-10-09T11:24:09Z</time>
      </trkpt>
      <trkpt lat="44.98562" lon="5.48256">
        <ele>1341.8</ele>
        <time>2021-10-09T11:24:10Z</time>
      </trkpt>
      <trkpt lat="44.98562" lon="5.4826">
        <ele>1341.8</ele>
        <time>2021-10-09T11:24:11Z</time>
      </trkpt>
      <trkpt lat="44.98561" lon="5.48264">
        <ele>1340.2</ele>
        <time>2021-10-09T11:24:12Z</time>
      </trkpt>
      <trkpt lat="44.98561" lon="5.48268">
        <ele>1340.2</ele>
        <time>2021-10-09T11:24:13Z</time>
      </trkpt>
      <trkpt lat="44.9856" lon="5.48273">
        <ele>1340.2</ele>
        <time>2021-10-09T11:24:14Z</time>
      </trkpt>
      <trkpt lat="44.9856" lon="5.4828">
        <ele>1339.2</ele>
        <time>2021-10-09T11:24:15Z</time>
      </trkpt>
      <trkpt lat="44.98559" lon="5.48286">
        <ele>1337.8</ele>
        <time>2021-10-09T11:24:16Z</time>
      </trkpt>
      <trkpt lat="44.98559" lon="5.48291">
        <ele>1337.8</ele>
        <time>2021-10-09T11:24:17Z</time>
      </trkpt>
      <trkpt lat="44.98558" lon="5.48295">
        <ele>1337.8</ele>
        <time>2021-10-09T11:24:18Z</time>
      </trkpt>
      <trkpt lat="44.98558" lon="5.483">
        <ele>1337.8</ele>
        <time>2021-10-09T11:24:19Z</time>
      </trkpt>
      <trkpt lat="44.98556" lon="5.48306">
        <ele>1334.6</ele>
        <time>2021-10-09T11:24:20Z</time>
      </trkpt>
      <trkpt lat="44.98554" lon="5.48311">
        <ele>1334.6</ele>
        <time>2021-10-09T11:24:21Z</time>
      </trkpt>
      <trkpt lat="44.98552" lon="5.48317">
        <ele>1334.6</ele>
        <time>2021-10-09T11:24:22Z</time>
      </trkpt>
      <trkpt lat="44.98551" lon="5.48322">
        <ele>1334.6</ele>
        <time>2021-10-09T11:24:23Z</time>
      </trkpt>
      <trkpt lat="44.9855" lon="5.48327">
        <ele>1334</ele>
        <time>2021-10-09T11:24:24Z</time>
      </trkpt>
      <trkpt lat="44.98549" lon="5.48331">
        <ele>1334</ele>
        <time>2021-10-09T11:24:25Z</time>
      </trkpt>
      <trkpt lat="44.98549" lon="5.48334">
        <ele>1334</ele>
        <time>2021-10-09T11:24:26Z</time>
      </trkpt>
      <trkpt lat="44.98549" lon="5.48338">
        <ele>1333</ele>
        <time>2021-10-09T11:24:27Z</time>
      </trkpt>
      <trkpt lat="44.98551" lon="5.48342">
        <ele>1331.4</ele>
        <time>2021-10-09T11:24:28Z</time>
      </trkpt>
      <trkpt lat="44.98554" lon="5.48346">
        <ele>1331.4</ele>
        <time>2021-10-09T11:24:29Z</time>
      </trkpt>
      <trkpt lat="44.98558" lon="5.48351">
        <ele>1331.4</ele>
        <time>2021-10-09T11:24:30Z</time>
      </trkpt>
      <trkpt lat="44.98561" lon="5.48354">
        <ele>1331.4</ele>
        <time>2021-10-09T11:24:31Z</time>
      </trkpt>
      <trkpt lat="44.98565" lon="5.48356">
        <ele>1332.2</ele>
        <time>2021-10-09T11:24:32Z</time>
      </trkpt>
      <trkpt lat="44.98567" lon="5.48357">
        <ele>1332.2</ele>
        <time>2021-10-09T11:24:33Z</time>
      </trkpt>
      <trkpt lat="44.98571" lon="5.48358">
        <ele>1332.2</ele>
        <time>2021-10-09T11:24:34Z</time>
      </trkpt>
      <trkpt lat="44.98574" lon="5.4836">
        <ele>1332.2</ele>
        <time>2021-10-09T11:24:35Z</time>
      </trkpt>
      <trkpt lat="44.98578" lon="5.48363">
        <ele>1332.6</ele>
        <time>2021-10-09T11:24:36Z</time>
      </trkpt>
      <trkpt lat="44.98581" lon="5.48365">
        <ele>1332.6</ele>
        <time>2021-10-09T11:24:37Z</time>
      </trkpt>
      <trkpt lat="44.98584" lon="5.48367">
        <ele>1332.6</ele>
        <time>2021-10-09T11:24:38Z</time>
      </trkpt>
      <trkpt lat="44.98588" lon="5.48369">
        <ele>1332.6</ele>
        <time>2021-10-09T11:24:39Z</time>
      </trkpt>
      <trkpt lat="44.9859" lon="5.4837">
        <ele>1333.4</ele>
        <time>2021-10-09T11:24:40Z</time>
      </trkpt>
      <trkpt lat="44.98592" lon="5.48371">
        <ele>1333.4</ele>
        <time>2021-10-09T11:24:41Z</time>
      </trkpt>
      <trkpt lat="44.98595" lon="5.48373">
        <ele>1333.4</ele>
        <time>2021-10-09T11:24:42Z</time>
      </trkpt>
      <trkpt lat="44.98598" lon="5.48376">
        <ele>1333.4</ele>
        <time>2021-10-09T11:24:43Z</time>
      </trkpt>
      <trkpt lat="44.98602" lon="5.48381">
        <ele>1330.6</ele>
        <time>2021-10-09T11:24:44Z</time>
      </trkpt>
      <trkpt lat="44.98605" lon="5.48386">
        <ele>1330.6</ele>
        <time>2021-10-09T11:24:45Z</time>
      </trkpt>
      <trkpt lat="44.98609" lon="5.48391">
        <ele>1330.6</ele>
        <time>2021-10-09T11:24:46Z</time>
      </trkpt>
      <trkpt lat="44.98614" lon="5.48396">
        <ele>1330.6</ele>
        <time>2021-10-09T11:24:47Z</time>
      </trkpt>
      <trkpt lat="44.98618" lon="5.48399">
        <ele>1329.2</ele>
        <time>2021-10-09T11:24:48Z</time>
      </trkpt>
      <trkpt lat="44.98621" lon="5.48402">
        <ele>1329.2</ele>
        <time>2021-10-09T11:24:49Z</time>
      </trkpt>
      <trkpt lat="44.98625" lon="5.48405">
        <ele>1329.2</ele>
        <time>2021-10-09T11:24:50Z</time>
      </trkpt>
      <trkpt lat="44.98628" lon="5.4841">
        <ele>1329.2</ele>
        <time>2021-10-09T11:24:51Z</time>
      </trkpt>
      <trkpt lat="44.98629" lon="5.48417">
        <ele>1328.2</ele>
        <time>2021-10-09T11:24:52Z</time>
      </trkpt>
      <trkpt lat="44.98628" lon="5.48425">
        <ele>1328.2</ele>
        <time>2021-10-09T11:24:53Z</time>
      </trkpt>
      <trkpt lat="44.98627" lon="5.48433">
        <ele>1328.2</ele>
        <time>2021-10-09T11:24:54Z</time>
      </trkpt>
      <trkpt lat="44.98627" lon="5.48439">
        <ele>1328.2</ele>
        <time>2021-10-09T11:24:55Z</time>
      </trkpt>
      <trkpt lat="44.98627" lon="5.48443">
        <ele>1329.8</ele>
        <time>2021-10-09T11:24:56Z</time>
      </trkpt>
      <trkpt lat="44.98627" lon="5.48445">
        <ele>1329.8</ele>
        <time>2021-10-09T11:24:57Z</time>
      </trkpt>
      <trkpt lat="44.98627" lon="5.4845">
        <ele>1329.8</ele>
        <time>2021-10-09T11:24:58Z</time>
      </trkpt>
      <trkpt lat="44.98627" lon="5.48455">
        <ele>1329.6</ele>
        <time>2021-10-09T11:24:59Z</time>
      </trkpt>
      <trkpt lat="44.98627" lon="5.4846">
        <ele>1329.4</ele>
        <time>2021-10-09T11:25:00Z</time>
      </trkpt>
      <trkpt lat="44.98627" lon="5.48464">
        <ele>1329.4</ele>
        <time>2021-10-09T11:25:01Z</time>
      </trkpt>
      <trkpt lat="44.98628" lon="5.48468">
        <ele>1329.4</ele>
        <time>2021-10-09T11:25:02Z</time>
      </trkpt>
      <trkpt lat="44.98629" lon="5.48472">
        <ele>1330.4</ele>
        <time>2021-10-09T11:25:03Z</time>
      </trkpt>
      <trkpt lat="44.98629" lon="5.48476">
        <ele>1332</ele>
        <time>2021-10-09T11:25:04Z</time>
      </trkpt>
      <trkpt lat="44.98629" lon="5.48479">
        <ele>1332</ele>
        <time>2021-10-09T11:25:05Z</time>
      </trkpt>
      <trkpt lat="44.98629" lon="5.48483">
        <ele>1332</ele>
        <time>2021-10-09T11:25:06Z</time>
      </trkpt>
      <trkpt lat="44.98629" lon="5.48485">
        <ele>1332</ele>
        <time>2021-10-09T11:25:07Z</time>
      </trkpt>
      <trkpt lat="44.98629" lon="5.48488">
        <ele>1332.4</ele>
        <time>2021-10-09T11:25:08Z</time>
      </trkpt>
      <trkpt lat="44.98629" lon="5.48491">
        <ele>1332.4</ele>
        <time>2021-10-09T11:25:09Z</time>
      </trkpt>
      <trkpt lat="44.98629" lon="5.48495">
        <ele>1332.4</ele>
        <time>2021-10-09T11:25:10Z</time>
      </trkpt>
      <trkpt lat="44.98628" lon="5.48499">
        <ele>1331.4</ele>
        <time>2021-10-09T11:25:11Z</time>
      </trkpt>
      <trkpt lat="44.98628" lon="5.48505">
        <ele>1330.2</ele>
        <time>2021-10-09T11:25:12Z</time>
      </trkpt>
      <trkpt lat="44.9863" lon="5.48512">
        <ele>1330.2</ele>
        <time>2021-10-09T11:25:13Z</time>
      </trkpt>
      <trkpt lat="44.98632" lon="5.48518">
        <ele>1330.2</ele>
        <time>2021-10-09T11:25:14Z</time>
      </trkpt>
      <trkpt lat="44.98634" lon="5.48525">
        <ele>1329.2</ele>
        <time>2021-10-09T11:25:15Z</time>
      </trkpt>
      <trkpt lat="44.98637" lon="5.4853">
        <ele>1330.4</ele>
        <time>2021-10-09T11:25:16Z</time>
      </trkpt>
      <trkpt lat="44.9864" lon="5.48534">
        <ele>1330.4</ele>
        <time>2021-10-09T11:25:17Z</time>
      </trkpt>
      <trkpt lat="44.98643" lon="5.48537">
        <ele>1330.4</ele>
        <time>2021-10-09T11:25:18Z</time>
      </trkpt>
      <trkpt lat="44.98646" lon="5.48539">
        <ele>1330.4</ele>
        <time>2021-10-09T11:25:19Z</time>
      </trkpt>
      <trkpt lat="44.98649" lon="5.48541">
        <ele>1332.2</ele>
        <time>2021-10-09T11:25:20Z</time>
      </trkpt>
      <trkpt lat="44.98652" lon="5.48543">
        <ele>1332.2</ele>
        <time>2021-10-09T11:25:21Z</time>
      </trkpt>
      <trkpt lat="44.98655" lon="5.48545">
        <ele>1332.2</ele>
        <time>2021-10-09T11:25:22Z</time>
      </trkpt>
      <trkpt lat="44.9866" lon="5.48548">
        <ele>1331.2</ele>
        <time>2021-10-09T11:25:23Z</time>
      </trkpt>
      <trkpt lat="44.98664" lon="5.48551">
        <ele>1327.8</ele>
        <time>2021-10-09T11:25:24Z</time>
      </trkpt>
      <trkpt lat="44.98669" lon="5.48554">
        <ele>1327.8</ele>
        <time>2021-10-09T11:25:25Z</time>
      </trkpt>
      <trkpt lat="44.98673" lon="5.48558">
        <ele>1327.8</ele>
        <time>2021-10-09T11:25:26Z</time>
      </trkpt>
      <trkpt lat="44.98677" lon="5.48562">
        <ele>1328.8</ele>
        <time>2021-10-09T11:25:27Z</time>
      </trkpt>
      <trkpt lat="44.98681" lon="5.48565">
        <ele>1328.4</ele>
        <time>2021-10-09T11:25:28Z</time>
      </trkpt>
      <trkpt lat="44.98685" lon="5.48568">
        <ele>1328.4</ele>
        <time>2021-10-09T11:25:29Z</time>
      </trkpt>
      <trkpt lat="44.98688" lon="5.48571">
        <ele>1328.4</ele>
        <time>2021-10-09T11:25:30Z</time>
      </trkpt>
      <trkpt lat="44.98691" lon="5.48573">
        <ele>1329</ele>
        <time>2021-10-09T11:25:31Z</time>
      </trkpt>
      <trkpt lat="44.98694" lon="5.48574">
        <ele>1329</ele>
        <time>2021-10-09T11:25:32Z</time>
      </trkpt>
      <trkpt lat="44.98697" lon="5.48576">
        <ele>1329</ele>
        <time>2021-10-09T11:25:33Z</time>
      </trkpt>
      <trkpt lat="44.98701" lon="5.48577">
        <ele>1329</ele>
        <time>2021-10-09T11:25:34Z</time>
      </trkpt>
      <trkpt lat="44.98705" lon="5.48578">
        <ele>1329</ele>
        <time>2021-10-09T11:25:35Z</time>
      </trkpt>
      <trkpt lat="44.98709" lon="5.48579">
        <ele>1328.2</ele>
        <time>2021-10-09T11:25:36Z</time>
      </trkpt>
      <trkpt lat="44.98714" lon="5.4858">
        <ele>1328.2</ele>
        <time>2021-10-09T11:25:37Z</time>
      </trkpt>
      <trkpt lat="44.98717" lon="5.48579">
        <ele>1328.2</ele>
        <time>2021-10-09T11:25:38Z</time>
      </trkpt>
      <trkpt lat="44.98721" lon="5.48579">
        <ele>1328.2</ele>
        <time>2021-10-09T11:25:39Z</time>
      </trkpt>
      <trkpt lat="44.98725" lon="5.48578">
        <ele>1328</ele>
        <time>2021-10-09T11:25:40Z</time>
      </trkpt>
      <trkpt lat="44.98729" lon="5.48577">
        <ele>1328</ele>
        <time>2021-10-09T11:25:41Z</time>
      </trkpt>
      <trkpt lat="44.98734" lon="5.48577">
        <ele>1328</ele>
        <time>2021-10-09T11:25:42Z</time>
      </trkpt>
      <trkpt lat="44.98739" lon="5.48577">
        <ele>1327.8</ele>
        <time>2021-10-09T11:25:43Z</time>
      </trkpt>
      <trkpt lat="44.98744" lon="5.48577">
        <ele>1328.4</ele>
        <time>2021-10-09T11:25:44Z</time>
      </trkpt>
      <trkpt lat="44.98749" lon="5.48579">
        <ele>1328.4</ele>
        <time>2021-10-09T11:25:45Z</time>
      </trkpt>
      <trkpt lat="44.98755" lon="5.4858">
        <ele>1328.4</ele>
        <time>2021-10-09T11:25:46Z</time>
      </trkpt>
      <trkpt lat="44.9876" lon="5.48581">
        <ele>1328</ele>
        <time>2021-10-09T11:25:47Z</time>
      </trkpt>
      <trkpt lat="44.98765" lon="5.48583">
        <ele>1327.4</ele>
        <time>2021-10-09T11:25:48Z</time>
      </trkpt>
      <trkpt lat="44.9877" lon="5.48583">
        <ele>1327.4</ele>
        <time>2021-10-09T11:25:49Z</time>
      </trkpt>
      <trkpt lat="44.98775" lon="5.48584">
        <ele>1327.4</ele>
        <time>2021-10-09T11:25:50Z</time>
      </trkpt>
      <trkpt lat="44.9878" lon="5.48584">
        <ele>1327.4</ele>
        <time>2021-10-09T11:25:51Z</time>
      </trkpt>
      <trkpt lat="44.98785" lon="5.48583">
        <ele>1328.6</ele>
        <time>2021-10-09T11:25:52Z</time>
      </trkpt>
      <trkpt lat="44.98789" lon="5.48583">
        <ele>1328.6</ele>
        <time>2021-10-09T11:25:53Z</time>
      </trkpt>
      <trkpt lat="44.98791" lon="5.48583">
        <ele>1328.6</ele>
        <time>2021-10-09T11:25:54Z</time>
      </trkpt>
      <trkpt lat="44.98793" lon="5.48583">
        <ele>1329.2</ele>
        <time>2021-10-09T11:25:55Z</time>
      </trkpt>
      <trkpt lat="44.98795" lon="5.48583">
        <ele>1328.8</ele>
        <time>2021-10-09T11:25:56Z</time>
      </trkpt>
      <trkpt lat="44.98796" lon="5.48583">
        <ele>1328.8</ele>
        <time>2021-10-09T11:25:57Z</time>
      </trkpt>
      <trkpt lat="44.98797" lon="5.48583">
        <ele>1328.8</ele>
        <time>2021-10-09T11:25:58Z</time>
      </trkpt>
      <trkpt lat="44.98799" lon="5.48583">
        <ele>1329.4</ele>
        <time>2021-10-09T11:25:59Z</time>
      </trkpt>
      <trkpt lat="44.988" lon="5.48583">
        <ele>1329.6</ele>
        <time>2021-10-09T11:26:00Z</time>
      </trkpt>
      <trkpt lat="44.98802" lon="5.48583">
        <ele>1329.6</ele>
        <time>2021-10-09T11:26:01Z</time>
      </trkpt>
      <trkpt lat="44.98804" lon="5.48583">
        <ele>1329.6</ele>
        <time>2021-10-09T11:26:02Z</time>
      </trkpt>
      <trkpt lat="44.98805" lon="5.48583">
        <ele>1329.6</ele>
        <time>2021-10-09T11:26:03Z</time>
      </trkpt>
      <trkpt lat="44.98808" lon="5.48583">
        <ele>1327.8</ele>
        <time>2021-10-09T11:26:04Z</time>
      </trkpt>
      <trkpt lat="44.98809" lon="5.48583">
        <ele>1327.8</ele>
        <time>2021-10-09T11:26:05Z</time>
      </trkpt>
      <trkpt lat="44.98812" lon="5.48583">
        <ele>1327.8</ele>
        <time>2021-10-09T11:26:06Z</time>
      </trkpt>
      <trkpt lat="44.98814" lon="5.48584">
        <ele>1327.8</ele>
        <time>2021-10-09T11:26:07Z</time>
      </trkpt>
      <trkpt lat="44.98817" lon="5.48586">
        <ele>1326.8</ele>
        <time>2021-10-09T11:26:08Z</time>
      </trkpt>
      <trkpt lat="44.98819" lon="5.48586">
        <ele>1326.8</ele>
        <time>2021-10-09T11:26:09Z</time>
      </trkpt>
      <trkpt lat="44.98822" lon="5.48588">
        <ele>1326.8</ele>
        <time>2021-10-09T11:26:10Z</time>
      </trkpt>
      <trkpt lat="44.98825" lon="5.48589">
        <ele>1325.8</ele>
        <time>2021-10-09T11:26:11Z</time>
      </trkpt>
      <trkpt lat="44.98829" lon="5.48592">
        <ele>1323</ele>
        <time>2021-10-09T11:26:12Z</time>
      </trkpt>
      <trkpt lat="44.98834" lon="5.48593">
        <ele>1323</ele>
        <time>2021-10-09T11:26:13Z</time>
      </trkpt>
      <trkpt lat="44.98838" lon="5.48593">
        <ele>1323</ele>
        <time>2021-10-09T11:26:14Z</time>
      </trkpt>
      <trkpt lat="44.98842" lon="5.48592">
        <ele>1322.2</ele>
        <time>2021-10-09T11:26:15Z</time>
      </trkpt>
      <trkpt lat="44.98847" lon="5.48591">
        <ele>1319.8</ele>
        <time>2021-10-09T11:26:16Z</time>
      </trkpt>
      <trkpt lat="44.98852" lon="5.48591">
        <ele>1319.8</ele>
        <time>2021-10-09T11:26:17Z</time>
      </trkpt>
      <trkpt lat="44.98856" lon="5.48589">
        <ele>1319.8</ele>
        <time>2021-10-09T11:26:18Z</time>
      </trkpt>
      <trkpt lat="44.98862" lon="5.48588">
        <ele>1320.2</ele>
        <time>2021-10-09T11:26:19Z</time>
      </trkpt>
      <trkpt lat="44.98867" lon="5.48587">
        <ele>1319.6</ele>
        <time>2021-10-09T11:26:20Z</time>
      </trkpt>
      <trkpt lat="44.98873" lon="5.48587">
        <ele>1319.6</ele>
        <time>2021-10-09T11:26:21Z</time>
      </trkpt>
      <trkpt lat="44.98877" lon="5.48587">
        <ele>1319.6</ele>
        <time>2021-10-09T11:26:22Z</time>
      </trkpt>
      <trkpt lat="44.98882" lon="5.48587">
        <ele>1318.6</ele>
        <time>2021-10-09T11:26:23Z</time>
      </trkpt>
      <trkpt lat="44.98887" lon="5.48588">
        <ele>1319.4</ele>
        <time>2021-10-09T11:26:24Z</time>
      </trkpt>
      <trkpt lat="44.98892" lon="5.48589">
        <ele>1319.4</ele>
        <time>2021-10-09T11:26:25Z</time>
      </trkpt>
      <trkpt lat="44.98898" lon="5.48589">
        <ele>1319.4</ele>
        <time>2021-10-09T11:26:26Z</time>
      </trkpt>
      <trkpt lat="44.98903" lon="5.48588">
        <ele>1318.4</ele>
        <time>2021-10-09T11:26:27Z</time>
      </trkpt>
      <trkpt lat="44.98908" lon="5.48587">
        <ele>1319.4</ele>
        <time>2021-10-09T11:26:28Z</time>
      </trkpt>
      <trkpt lat="44.98914" lon="5.48586">
        <ele>1319.4</ele>
        <time>2021-10-09T11:26:29Z</time>
      </trkpt>
      <trkpt lat="44.98919" lon="5.48585">
        <ele>1319.4</ele>
        <time>2021-10-09T11:26:30Z</time>
      </trkpt>
      <trkpt lat="44.98924" lon="5.48584">
        <ele>1319.4</ele>
        <time>2021-10-09T11:26:31Z</time>
      </trkpt>
      <trkpt lat="44.98929" lon="5.48583">
        <ele>1319.2</ele>
        <time>2021-10-09T11:26:32Z</time>
      </trkpt>
      <trkpt lat="44.98932" lon="5.48582">
        <ele>1319.2</ele>
        <time>2021-10-09T11:26:33Z</time>
      </trkpt>
      <trkpt lat="44.98934" lon="5.48582">
        <ele>1319.2</ele>
        <time>2021-10-09T11:26:34Z</time>
      </trkpt>
      <trkpt lat="44.98939" lon="5.48579">
        <ele>1318.2</ele>
        <time>2021-10-09T11:26:35Z</time>
      </trkpt>
      <trkpt lat="44.98945" lon="5.48576">
        <ele>1313.6</ele>
        <time>2021-10-09T11:26:36Z</time>
      </trkpt>
      <trkpt lat="44.98951" lon="5.48574">
        <ele>1313.6</ele>
        <time>2021-10-09T11:26:37Z</time>
      </trkpt>
      <trkpt lat="44.98957" lon="5.48571">
        <ele>1313.6</ele>
        <time>2021-10-09T11:26:38Z</time>
      </trkpt>
      <trkpt lat="44.98963" lon="5.4857">
        <ele>1314.6</ele>
        <time>2021-10-09T11:26:39Z</time>
      </trkpt>
      <trkpt lat="44.98969" lon="5.48568">
        <ele>1316.6</ele>
        <time>2021-10-09T11:26:40Z</time>
      </trkpt>
      <trkpt lat="44.98975" lon="5.48566">
        <ele>1316.6</ele>
        <time>2021-10-09T11:26:41Z</time>
      </trkpt>
      <trkpt lat="44.9898" lon="5.48565">
        <ele>1316.6</ele>
        <time>2021-10-09T11:26:42Z</time>
      </trkpt>
      <trkpt lat="44.98985" lon="5.48564">
        <ele>1316.6</ele>
        <time>2021-10-09T11:26:43Z</time>
      </trkpt>
      <trkpt lat="44.98989" lon="5.48563">
        <ele>1316.8</ele>
        <time>2021-10-09T11:26:44Z</time>
      </trkpt>
      <trkpt lat="44.98993" lon="5.48561">
        <ele>1316.8</ele>
        <time>2021-10-09T11:26:45Z</time>
      </trkpt>
      <trkpt lat="44.98997" lon="5.48559">
        <ele>1316.8</ele>
        <time>2021-10-09T11:26:46Z</time>
      </trkpt>
      <trkpt lat="44.99002" lon="5.48557">
        <ele>1316.8</ele>
        <time>2021-10-09T11:26:47Z</time>
      </trkpt>
      <trkpt lat="44.99007" lon="5.48556">
        <ele>1317.8</ele>
        <time>2021-10-09T11:26:48Z</time>
      </trkpt>
      <trkpt lat="44.99011" lon="5.48557">
        <ele>1317.8</ele>
        <time>2021-10-09T11:26:49Z</time>
      </trkpt>
      <trkpt lat="44.99016" lon="5.48559">
        <ele>1317.8</ele>
        <time>2021-10-09T11:26:50Z</time>
      </trkpt>
      <trkpt lat="44.99019" lon="5.48561">
        <ele>1317.8</ele>
        <time>2021-10-09T11:26:51Z</time>
      </trkpt>
      <trkpt lat="44.99023" lon="5.48563">
        <ele>1319</ele>
        <time>2021-10-09T11:26:52Z</time>
      </trkpt>
      <trkpt lat="44.99026" lon="5.48564">
        <ele>1319</ele>
        <time>2021-10-09T11:26:53Z</time>
      </trkpt>
      <trkpt lat="44.99029" lon="5.48565">
        <ele>1319</ele>
        <time>2021-10-09T11:26:54Z</time>
      </trkpt>
      <trkpt lat="44.99033" lon="5.48565">
        <ele>1319.8</ele>
        <time>2021-10-09T11:26:55Z</time>
      </trkpt>
      <trkpt lat="44.99037" lon="5.48565">
        <ele>1319.6</ele>
        <time>2021-10-09T11:26:56Z</time>
      </trkpt>
      <trkpt lat="44.99041" lon="5.48565">
        <ele>1319.6</ele>
        <time>2021-10-09T11:26:57Z</time>
      </trkpt>
      <trkpt lat="44.99044" lon="5.48567">
        <ele>1319.6</ele>
        <time>2021-10-09T11:26:58Z</time>
      </trkpt>
      <trkpt lat="44.99047" lon="5.4857">
        <ele>1319.6</ele>
        <time>2021-10-09T11:26:59Z</time>
      </trkpt>
      <trkpt lat="44.9905" lon="5.48572">
        <ele>1320.6</ele>
        <time>2021-10-09T11:27:00Z</time>
      </trkpt>
      <trkpt lat="44.99054" lon="5.48575">
        <ele>1320.6</ele>
        <time>2021-10-09T11:27:01Z</time>
      </trkpt>
      <trkpt lat="44.99057" lon="5.48577">
        <ele>1320.6</ele>
        <time>2021-10-09T11:27:02Z</time>
      </trkpt>
      <trkpt lat="44.9906" lon="5.4858">
        <ele>1320</ele>
        <time>2021-10-09T11:27:03Z</time>
      </trkpt>
      <trkpt lat="44.99063" lon="5.48583">
        <ele>1319.6</ele>
        <time>2021-10-09T11:27:04Z</time>
      </trkpt>
      <trkpt lat="44.99067" lon="5.48586">
        <ele>1319.6</ele>
        <time>2021-10-09T11:27:05Z</time>
      </trkpt>
      <trkpt lat="44.99071" lon="5.48587">
        <ele>1319.6</ele>
        <time>2021-10-09T11:27:06Z</time>
      </trkpt>
      <trkpt lat="44.99075" lon="5.48588">
        <ele>1320.6</ele>
        <time>2021-10-09T11:27:07Z</time>
      </trkpt>
      <trkpt lat="44.99078" lon="5.48589">
        <ele>1321.2</ele>
        <time>2021-10-09T11:27:08Z</time>
      </trkpt>
      <trkpt lat="44.99081" lon="5.4859">
        <ele>1321.2</ele>
        <time>2021-10-09T11:27:09Z</time>
      </trkpt>
      <trkpt lat="44.99084" lon="5.48592">
        <ele>1321.2</ele>
        <time>2021-10-09T11:27:10Z</time>
      </trkpt>
      <trkpt lat="44.99087" lon="5.48594">
        <ele>1321.2</ele>
        <time>2021-10-09T11:27:11Z</time>
      </trkpt>
      <trkpt lat="44.9909" lon="5.48596">
        <ele>1322</ele>
        <time>2021-10-09T11:27:12Z</time>
      </trkpt>
      <trkpt lat="44.99092" lon="5.48598">
        <ele>1322</ele>
        <time>2021-10-09T11:27:13Z</time>
      </trkpt>
      <trkpt lat="44.99094" lon="5.486">
        <ele>1322</ele>
        <time>2021-10-09T11:27:14Z</time>
      </trkpt>
      <trkpt lat="44.99096" lon="5.48601">
        <ele>1322</ele>
        <time>2021-10-09T11:27:15Z</time>
      </trkpt>
      <trkpt lat="44.99099" lon="5.48603">
        <ele>1323</ele>
        <time>2021-10-09T11:27:16Z</time>
      </trkpt>
      <trkpt lat="44.99101" lon="5.48605">
        <ele>1323</ele>
        <time>2021-10-09T11:27:17Z</time>
      </trkpt>
      <trkpt lat="44.99103" lon="5.48607">
        <ele>1323</ele>
        <time>2021-10-09T11:27:18Z</time>
      </trkpt>
      <trkpt lat="44.99105" lon="5.48609">
        <ele>1324</ele>
        <time>2021-10-09T11:27:19Z</time>
      </trkpt>
      <trkpt lat="44.99106" lon="5.48611">
        <ele>1324.2</ele>
        <time>2021-10-09T11:27:20Z</time>
      </trkpt>
      <trkpt lat="44.99109" lon="5.48612">
        <ele>1324.2</ele>
        <time>2021-10-09T11:27:21Z</time>
      </trkpt>
      <trkpt lat="44.9911" lon="5.48614">
        <ele>1324.2</ele>
        <time>2021-10-09T11:27:22Z</time>
      </trkpt>
      <trkpt lat="44.99112" lon="5.48616">
        <ele>1324.2</ele>
        <time>2021-10-09T11:27:23Z</time>
      </trkpt>
      <trkpt lat="44.99113" lon="5.48618">
        <ele>1325.6</ele>
        <time>2021-10-09T11:27:24Z</time>
      </trkpt>
      <trkpt lat="44.99114" lon="5.4862">
        <ele>1325.6</ele>
        <time>2021-10-09T11:27:25Z</time>
      </trkpt>
      <trkpt lat="44.99115" lon="5.48623">
        <ele>1325.6</ele>
        <time>2021-10-09T11:27:26Z</time>
      </trkpt>
      <trkpt lat="44.99117" lon="5.48627">
        <ele>1324.6</ele>
        <time>2021-10-09T11:27:27Z</time>
      </trkpt>
      <trkpt lat="44.9912" lon="5.4863">
        <ele>1322.6</ele>
        <time>2021-10-09T11:27:28Z</time>
      </trkpt>
      <trkpt lat="44.99123" lon="5.48634">
        <ele>1322.6</ele>
        <time>2021-10-09T11:27:29Z</time>
      </trkpt>
      <trkpt lat="44.99129" lon="5.48636">
        <ele>1322.6</ele>
        <time>2021-10-09T11:27:30Z</time>
      </trkpt>
      <trkpt lat="44.99133" lon="5.48638">
        <ele>1321.8</ele>
        <time>2021-10-09T11:27:31Z</time>
      </trkpt>
      <trkpt lat="44.99137" lon="5.4864">
        <ele>1322.6</ele>
        <time>2021-10-09T11:27:32Z</time>
      </trkpt>
      <trkpt lat="44.9914" lon="5.48641">
        <ele>1322.6</ele>
        <time>2021-10-09T11:27:33Z</time>
      </trkpt>
      <trkpt lat="44.99143" lon="5.48643">
        <ele>1322.6</ele>
        <time>2021-10-09T11:27:34Z</time>
      </trkpt>
      <trkpt lat="44.99146" lon="5.48645">
        <ele>1323.4</ele>
        <time>2021-10-09T11:27:35Z</time>
      </trkpt>
      <trkpt lat="44.99149" lon="5.48647">
        <ele>1322.8</ele>
        <time>2021-10-09T11:27:36Z</time>
      </trkpt>
      <trkpt lat="44.99151" lon="5.4865">
        <ele>1322.8</ele>
        <time>2021-10-09T11:27:37Z</time>
      </trkpt>
      <trkpt lat="44.99152" lon="5.48653">
        <ele>1322.8</ele>
        <time>2021-10-09T11:27:38Z</time>
      </trkpt>
      <trkpt lat="44.99154" lon="5.48656">
        <ele>1323.4</ele>
        <time>2021-10-09T11:27:39Z</time>
      </trkpt>
      <trkpt lat="44.99157" lon="5.48659">
        <ele>1322.8</ele>
        <time>2021-10-09T11:27:40Z</time>
      </trkpt>
      <trkpt lat="44.99159" lon="5.48662">
        <ele>1322.8</ele>
        <time>2021-10-09T11:27:41Z</time>
      </trkpt>
      <trkpt lat="44.99162" lon="5.48666">
        <ele>1322.8</ele>
        <time>2021-10-09T11:27:42Z</time>
      </trkpt>
      <trkpt lat="44.99164" lon="5.4867">
        <ele>1322.8</ele>
        <time>2021-10-09T11:27:43Z</time>
      </trkpt>
      <trkpt lat="44.99168" lon="5.48672">
        <ele>1321</ele>
        <time>2021-10-09T11:27:44Z</time>
      </trkpt>
      <trkpt lat="44.99171" lon="5.48677">
        <ele>1321</ele>
        <time>2021-10-09T11:27:45Z</time>
      </trkpt>
      <trkpt lat="44.99173" lon="5.48684">
        <ele>1321</ele>
        <time>2021-10-09T11:27:46Z</time>
      </trkpt>
      <trkpt lat="44.99175" lon="5.48691">
        <ele>1320.4</ele>
        <time>2021-10-09T11:27:47Z</time>
      </trkpt>
      <trkpt lat="44.99177" lon="5.48697">
        <ele>1320.4</ele>
        <time>2021-10-09T11:27:48Z</time>
      </trkpt>
      <trkpt lat="44.9918" lon="5.48702">
        <ele>1320.4</ele>
        <time>2021-10-09T11:27:49Z</time>
      </trkpt>
      <trkpt lat="44.99181" lon="5.48706">
        <ele>1320.4</ele>
        <time>2021-10-09T11:27:50Z</time>
      </trkpt>
      <trkpt lat="44.99182" lon="5.4871">
        <ele>1321.4</ele>
        <time>2021-10-09T11:27:51Z</time>
      </trkpt>
      <trkpt lat="44.99184" lon="5.48714">
        <ele>1321</ele>
        <time>2021-10-09T11:27:52Z</time>
      </trkpt>
      <trkpt lat="44.99185" lon="5.48717">
        <ele>1321</ele>
        <time>2021-10-09T11:27:53Z</time>
      </trkpt>
      <trkpt lat="44.99187" lon="5.4872">
        <ele>1321</ele>
        <time>2021-10-09T11:27:54Z</time>
      </trkpt>
      <trkpt lat="44.99189" lon="5.48724">
        <ele>1321</ele>
        <time>2021-10-09T11:27:55Z</time>
      </trkpt>
      <trkpt lat="44.99191" lon="5.48727">
        <ele>1321</ele>
        <time>2021-10-09T11:27:56Z</time>
      </trkpt>
      <trkpt lat="44.99193" lon="5.48731">
        <ele>1321</ele>
        <time>2021-10-09T11:27:57Z</time>
      </trkpt>
      <trkpt lat="44.99195" lon="5.48735">
        <ele>1321</ele>
        <time>2021-10-09T11:27:58Z</time>
      </trkpt>
      <trkpt lat="44.99198" lon="5.4874">
        <ele>1320</ele>
        <time>2021-10-09T11:27:59Z</time>
      </trkpt>
      <trkpt lat="44.992" lon="5.48745">
        <ele>1318.8</ele>
        <time>2021-10-09T11:28:00Z</time>
      </trkpt>
      <trkpt lat="44.99203" lon="5.48751">
        <ele>1318.8</ele>
        <time>2021-10-09T11:28:01Z</time>
      </trkpt>
      <trkpt lat="44.99207" lon="5.48757">
        <ele>1318.8</ele>
        <time>2021-10-09T11:28:02Z</time>
      </trkpt>
      <trkpt lat="44.99211" lon="5.48762">
        <ele>1317.8</ele>
        <time>2021-10-09T11:28:03Z</time>
      </trkpt>
      <trkpt lat="44.99215" lon="5.48767">
        <ele>1316.6</ele>
        <time>2021-10-09T11:28:04Z</time>
      </trkpt>
      <trkpt lat="44.99219" lon="5.48772">
        <ele>1316.6</ele>
        <time>2021-10-09T11:28:05Z</time>
      </trkpt>
      <trkpt lat="44.99223" lon="5.48775">
        <ele>1316.6</ele>
        <time>2021-10-09T11:28:06Z</time>
      </trkpt>
      <trkpt lat="44.99227" lon="5.48778">
        <ele>1317.2</ele>
        <time>2021-10-09T11:28:07Z</time>
      </trkpt>
      <trkpt lat="44.9923" lon="5.48779">
        <ele>1318.2</ele>
        <time>2021-10-09T11:28:08Z</time>
      </trkpt>
      <trkpt lat="44.99234" lon="5.48781">
        <ele>1318.2</ele>
        <time>2021-10-09T11:28:09Z</time>
      </trkpt>
      <trkpt lat="44.99237" lon="5.48783">
        <ele>1318.2</ele>
        <time>2021-10-09T11:28:10Z</time>
      </trkpt>
      <trkpt lat="44.99241" lon="5.48784">
        <ele>1318.6</ele>
        <time>2021-10-09T11:28:11Z</time>
      </trkpt>
      <trkpt lat="44.99244" lon="5.48785">
        <ele>1318.8</ele>
        <time>2021-10-09T11:28:12Z</time>
      </trkpt>
      <trkpt lat="44.99247" lon="5.48786">
        <ele>1318.8</ele>
        <time>2021-10-09T11:28:13Z</time>
      </trkpt>
      <trkpt lat="44.9925" lon="5.48788">
        <ele>1318.8</ele>
        <time>2021-10-09T11:28:14Z</time>
      </trkpt>
      <trkpt lat="44.99253" lon="5.48789">
        <ele>1319.6</ele>
        <time>2021-10-09T11:28:15Z</time>
      </trkpt>
      <trkpt lat="44.99256" lon="5.48791">
        <ele>1320.2</ele>
        <time>2021-10-09T11:28:16Z</time>
      </trkpt>
      <trkpt lat="44.99259" lon="5.48792">
        <ele>1320.2</ele>
        <time>2021-10-09T11:28:17Z</time>
      </trkpt>
      <trkpt lat="44.99261" lon="5.48794">
        <ele>1320.2</ele>
        <time>2021-10-09T11:28:18Z</time>
      </trkpt>
      <trkpt lat="44.99263" lon="5.48796">
        <ele>1319.6</ele>
        <time>2021-10-09T11:28:19Z</time>
      </trkpt>
      <trkpt lat="44.99265" lon="5.48799">
        <ele>1319.4</ele>
        <time>2021-10-09T11:28:20Z</time>
      </trkpt>
      <trkpt lat="44.99266" lon="5.48801">
        <ele>1319.4</ele>
        <time>2021-10-09T11:28:21Z</time>
      </trkpt>
      <trkpt lat="44.99267" lon="5.48805">
        <ele>1319.4</ele>
        <time>2021-10-09T11:28:22Z</time>
      </trkpt>
      <trkpt lat="44.99268" lon="5.48808">
        <ele>1319.4</ele>
        <time>2021-10-09T11:28:23Z</time>
      </trkpt>
      <trkpt lat="44.99269" lon="5.48812">
        <ele>1319.8</ele>
        <time>2021-10-09T11:28:24Z</time>
      </trkpt>
      <trkpt lat="44.9927" lon="5.48815">
        <ele>1319.8</ele>
        <time>2021-10-09T11:28:25Z</time>
      </trkpt>
      <trkpt lat="44.99271" lon="5.48818">
        <ele>1319.8</ele>
        <time>2021-10-09T11:28:26Z</time>
      </trkpt>
      <trkpt lat="44.99272" lon="5.48822">
        <ele>1319.8</ele>
        <time>2021-10-09T11:28:27Z</time>
      </trkpt>
      <trkpt lat="44.99273" lon="5.48825">
        <ele>1320.4</ele>
        <time>2021-10-09T11:28:28Z</time>
      </trkpt>
      <trkpt lat="44.99274" lon="5.48829">
        <ele>1320.4</ele>
        <time>2021-10-09T11:28:29Z</time>
      </trkpt>
      <trkpt lat="44.99276" lon="5.48832">
        <ele>1320.4</ele>
        <time>2021-10-09T11:28:30Z</time>
      </trkpt>
      <trkpt lat="44.99278" lon="5.48834">
        <ele>1320.4</ele>
        <time>2021-10-09T11:28:31Z</time>
      </trkpt>
      <trkpt lat="44.99279" lon="5.48838">
        <ele>1320.4</ele>
        <time>2021-10-09T11:28:32Z</time>
      </trkpt>
      <trkpt lat="44.99281" lon="5.4884">
        <ele>1320.4</ele>
        <time>2021-10-09T11:28:33Z</time>
      </trkpt>
      <trkpt lat="44.99282" lon="5.48843">
        <ele>1320.4</ele>
        <time>2021-10-09T11:28:34Z</time>
      </trkpt>
      <trkpt lat="44.99284" lon="5.48846">
        <ele>1320.4</ele>
        <time>2021-10-09T11:28:35Z</time>
      </trkpt>
      <trkpt lat="44.99285" lon="5.48848">
        <ele>1321</ele>
        <time>2021-10-09T11:28:36Z</time>
      </trkpt>
      <trkpt lat="44.99287" lon="5.4885">
        <ele>1321</ele>
        <time>2021-10-09T11:28:37Z</time>
      </trkpt>
      <trkpt lat="44.99289" lon="5.48852">
        <ele>1321</ele>
        <time>2021-10-09T11:28:38Z</time>
      </trkpt>
      <trkpt lat="44.99291" lon="5.48853">
        <ele>1321</ele>
        <time>2021-10-09T11:28:39Z</time>
      </trkpt>
      <trkpt lat="44.99292" lon="5.48853">
        <ele>1321.8</ele>
        <time>2021-10-09T11:28:40Z</time>
      </trkpt>
      <trkpt lat="44.99294" lon="5.48854">
        <ele>1321.8</ele>
        <time>2021-10-09T11:28:41Z</time>
      </trkpt>
      <trkpt lat="44.99295" lon="5.48854">
        <ele>1321.8</ele>
        <time>2021-10-09T11:28:42Z</time>
      </trkpt>
      <trkpt lat="44.99296" lon="5.48853">
        <ele>1321.8</ele>
        <time>2021-10-09T11:28:43Z</time>
      </trkpt>
      <trkpt lat="44.99297" lon="5.48852">
        <ele>1323.2</ele>
        <time>2021-10-09T11:28:44Z</time>
      </trkpt>
      <trkpt lat="44.99298" lon="5.48851">
        <ele>1323.2</ele>
        <time>2021-10-09T11:28:45Z</time>
      </trkpt>
      <trkpt lat="44.99299" lon="5.48849">
        <ele>1323.2</ele>
        <time>2021-10-09T11:28:46Z</time>
      </trkpt>
      <trkpt lat="44.993" lon="5.48848">
        <ele>1323.2</ele>
        <time>2021-10-09T11:28:47Z</time>
      </trkpt>
      <trkpt lat="44.993" lon="5.48847">
        <ele>1323.6</ele>
        <time>2021-10-09T11:28:48Z</time>
      </trkpt>
      <trkpt lat="44.99302" lon="5.48847">
        <ele>1323.6</ele>
        <time>2021-10-09T11:28:49Z</time>
      </trkpt>
      <trkpt lat="44.99304" lon="5.48846">
        <ele>1323.6</ele>
        <time>2021-10-09T11:28:50Z</time>
      </trkpt>
      <trkpt lat="44.99305" lon="5.48847">
        <ele>1324.2</ele>
        <time>2021-10-09T11:28:51Z</time>
      </trkpt>
      <trkpt lat="44.99307" lon="5.48847">
        <ele>1324.2</ele>
        <time>2021-10-09T11:28:52Z</time>
      </trkpt>
      <trkpt lat="44.99309" lon="5.48848">
        <ele>1324.2</ele>
        <time>2021-10-09T11:28:53Z</time>
      </trkpt>
      <trkpt lat="44.99311" lon="5.48849">
        <ele>1324.2</ele>
        <time>2021-10-09T11:28:54Z</time>
      </trkpt>
      <trkpt lat="44.99313" lon="5.48849">
        <ele>1324.2</ele>
        <time>2021-10-09T11:28:55Z</time>
      </trkpt>
      <trkpt lat="44.99314" lon="5.4885">
        <ele>1324.4</ele>
        <time>2021-10-09T11:28:56Z</time>
      </trkpt>
      <trkpt lat="44.99316" lon="5.48851">
        <ele>1324.4</ele>
        <time>2021-10-09T11:28:57Z</time>
      </trkpt>
      <trkpt lat="44.99318" lon="5.48851">
        <ele>1324.4</ele>
        <time>2021-10-09T11:28:58Z</time>
      </trkpt>
      <trkpt lat="44.9932" lon="5.48852">
        <ele>1324.4</ele>
        <time>2021-10-09T11:28:59Z</time>
      </trkpt>
      <trkpt lat="44.99322" lon="5.48852">
        <ele>1324.8</ele>
        <time>2021-10-09T11:29:00Z</time>
      </trkpt>
      <trkpt lat="44.99324" lon="5.48852">
        <ele>1324.8</ele>
        <time>2021-10-09T11:29:01Z</time>
      </trkpt>
      <trkpt lat="44.99326" lon="5.48851">
        <ele>1324.8</ele>
        <time>2021-10-09T11:29:02Z</time>
      </trkpt>
      <trkpt lat="44.99327" lon="5.4885">
        <ele>1325</ele>
        <time>2021-10-09T11:29:03Z</time>
      </trkpt>
      <trkpt lat="44.99329" lon="5.48849">
        <ele>1325.4</ele>
        <time>2021-10-09T11:29:04Z</time>
      </trkpt>
      <trkpt lat="44.99331" lon="5.48848">
        <ele>1325.4</ele>
        <time>2021-10-09T11:29:05Z</time>
      </trkpt>
      <trkpt lat="44.99333" lon="5.48847">
        <ele>1325.4</ele>
        <time>2021-10-09T11:29:06Z</time>
      </trkpt>
      <trkpt lat="44.99335" lon="5.48846">
        <ele>1325.4</ele>
        <time>2021-10-09T11:29:07Z</time>
      </trkpt>
      <trkpt lat="44.99336" lon="5.48844">
        <ele>1325.2</ele>
        <time>2021-10-09T11:29:08Z</time>
      </trkpt>
      <trkpt lat="44.99338" lon="5.48843">
        <ele>1325.2</ele>
        <time>2021-10-09T11:29:09Z</time>
      </trkpt>
      <trkpt lat="44.9934" lon="5.48841">
        <ele>1325.2</ele>
        <time>2021-10-09T11:29:10Z</time>
      </trkpt>
      <trkpt lat="44.99341" lon="5.4884">
        <ele>1325.2</ele>
        <time>2021-10-09T11:29:11Z</time>
      </trkpt>
      <trkpt lat="44.99343" lon="5.48839">
        <ele>1325.8</ele>
        <time>2021-10-09T11:29:12Z</time>
      </trkpt>
      <trkpt lat="44.99345" lon="5.48837">
        <ele>1325.8</ele>
        <time>2021-10-09T11:29:13Z</time>
      </trkpt>
      <trkpt lat="44.99347" lon="5.48836">
        <ele>1325.8</ele>
        <time>2021-10-09T11:29:14Z</time>
      </trkpt>
      <trkpt lat="44.99348" lon="5.48835">
        <ele>1325.8</ele>
        <time>2021-10-09T11:29:15Z</time>
      </trkpt>
      <trkpt lat="44.99349" lon="5.48834">
        <ele>1325.6</ele>
        <time>2021-10-09T11:29:16Z</time>
      </trkpt>
      <trkpt lat="44.99351" lon="5.48833">
        <ele>1325.6</ele>
        <time>2021-10-09T11:29:17Z</time>
      </trkpt>
      <trkpt lat="44.99352" lon="5.48832">
        <ele>1325.6</ele>
        <time>2021-10-09T11:29:18Z</time>
      </trkpt>
      <trkpt lat="44.99354" lon="5.48831">
        <ele>1325.6</ele>
        <time>2021-10-09T11:29:19Z</time>
      </trkpt>
      <trkpt lat="44.99355" lon="5.4883">
        <ele>1327</ele>
        <time>2021-10-09T11:29:20Z</time>
      </trkpt>
      <trkpt lat="44.99357" lon="5.4883">
        <ele>1327</ele>
        <time>2021-10-09T11:29:21Z</time>
      </trkpt>
      <trkpt lat="44.99358" lon="5.48829">
        <ele>1327</ele>
        <time>2021-10-09T11:29:22Z</time>
      </trkpt>
      <trkpt lat="44.9936" lon="5.48828">
        <ele>1327</ele>
        <time>2021-10-09T11:29:23Z</time>
      </trkpt>
      <trkpt lat="44.99363" lon="5.48827">
        <ele>1327.8</ele>
        <time>2021-10-09T11:29:24Z</time>
      </trkpt>
      <trkpt lat="44.99365" lon="5.48827">
        <ele>1327.8</ele>
        <time>2021-10-09T11:29:25Z</time>
      </trkpt>
      <trkpt lat="44.99366" lon="5.48826">
        <ele>1327.8</ele>
        <time>2021-10-09T11:29:26Z</time>
      </trkpt>
      <trkpt lat="44.99368" lon="5.48826">
        <ele>1327.8</ele>
        <time>2021-10-09T11:29:27Z</time>
      </trkpt>
      <trkpt lat="44.9937" lon="5.48826">
        <ele>1328.4</ele>
        <time>2021-10-09T11:29:28Z</time>
      </trkpt>
      <trkpt lat="44.99373" lon="5.48825">
        <ele>1328.4</ele>
        <time>2021-10-09T11:29:29Z</time>
      </trkpt>
      <trkpt lat="44.99375" lon="5.48825">
        <ele>1328.4</ele>
        <time>2021-10-09T11:29:30Z</time>
      </trkpt>
      <trkpt lat="44.99377" lon="5.48825">
        <ele>1328.4</ele>
        <time>2021-10-09T11:29:31Z</time>
      </trkpt>
      <trkpt lat="44.99379" lon="5.48825">
        <ele>1328.4</ele>
        <time>2021-10-09T11:29:32Z</time>
      </trkpt>
      <trkpt lat="44.99382" lon="5.48825">
        <ele>1328.4</ele>
        <time>2021-10-09T11:29:33Z</time>
      </trkpt>
      <trkpt lat="44.99384" lon="5.48826">
        <ele>1328.4</ele>
        <time>2021-10-09T11:29:34Z</time>
      </trkpt>
      <trkpt lat="44.99385" lon="5.48826">
        <ele>1329</ele>
        <time>2021-10-09T11:29:35Z</time>
      </trkpt>
      <trkpt lat="44.99388" lon="5.48826">
        <ele>1329.2</ele>
        <time>2021-10-09T11:29:36Z</time>
      </trkpt>
      <trkpt lat="44.9939" lon="5.48826">
        <ele>1329.2</ele>
        <time>2021-10-09T11:29:37Z</time>
      </trkpt>
      <trkpt lat="44.99391" lon="5.48826">
        <ele>1329.2</ele>
        <time>2021-10-09T11:29:38Z</time>
      </trkpt>
      <trkpt lat="44.99393" lon="5.48827">
        <ele>1329.8</ele>
        <time>2021-10-09T11:29:39Z</time>
      </trkpt>
      <trkpt lat="44.99395" lon="5.48827">
        <ele>1329.6</ele>
        <time>2021-10-09T11:29:40Z</time>
      </trkpt>
      <trkpt lat="44.99397" lon="5.48827">
        <ele>1329.6</ele>
        <time>2021-10-09T11:29:41Z</time>
      </trkpt>
      <trkpt lat="44.99398" lon="5.48826">
        <ele>1329.6</ele>
        <time>2021-10-09T11:29:42Z</time>
      </trkpt>
      <trkpt lat="44.994" lon="5.48826">
        <ele>1330.4</ele>
        <time>2021-10-09T11:29:43Z</time>
      </trkpt>
      <trkpt lat="44.99402" lon="5.48825">
        <ele>1330.4</ele>
        <time>2021-10-09T11:29:44Z</time>
      </trkpt>
      <trkpt lat="44.99404" lon="5.48825">
        <ele>1330.4</ele>
        <time>2021-10-09T11:29:45Z</time>
      </trkpt>
      <trkpt lat="44.99407" lon="5.48825">
        <ele>1330.4</ele>
        <time>2021-10-09T11:29:46Z</time>
      </trkpt>
      <trkpt lat="44.99409" lon="5.48825">
        <ele>1330.6</ele>
        <time>2021-10-09T11:29:47Z</time>
      </trkpt>
      <trkpt lat="44.9941" lon="5.48825">
        <ele>1331.4</ele>
        <time>2021-10-09T11:29:48Z</time>
      </trkpt>
      <trkpt lat="44.99411" lon="5.48826">
        <ele>1331.4</ele>
        <time>2021-10-09T11:29:49Z</time>
      </trkpt>
      <trkpt lat="44.99414" lon="5.48826">
        <ele>1331.4</ele>
        <time>2021-10-09T11:29:50Z</time>
      </trkpt>
      <trkpt lat="44.99417" lon="5.48826">
        <ele>1331.4</ele>
        <time>2021-10-09T11:29:51Z</time>
      </trkpt>
      <trkpt lat="44.99419" lon="5.48826">
        <ele>1331.8</ele>
        <time>2021-10-09T11:29:52Z</time>
      </trkpt>
      <trkpt lat="44.99421" lon="5.48827">
        <ele>1331.8</ele>
        <time>2021-10-09T11:29:53Z</time>
      </trkpt>
      <trkpt lat="44.99423" lon="5.48827">
        <ele>1331.8</ele>
        <time>2021-10-09T11:29:54Z</time>
      </trkpt>
      <trkpt lat="44.99425" lon="5.48827">
        <ele>1332</ele>
        <time>2021-10-09T11:29:55Z</time>
      </trkpt>
      <trkpt lat="44.99428" lon="5.48828">
        <ele>1332.2</ele>
        <time>2021-10-09T11:29:56Z</time>
      </trkpt>
      <trkpt lat="44.9943" lon="5.48829">
        <ele>1332.2</ele>
        <time>2021-10-09T11:29:57Z</time>
      </trkpt>
      <trkpt lat="44.99433" lon="5.48829">
        <ele>1332.2</ele>
        <time>2021-10-09T11:29:58Z</time>
      </trkpt>
      <trkpt lat="44.99435" lon="5.48829">
        <ele>1332.2</ele>
        <time>2021-10-09T11:29:59Z</time>
      </trkpt>
      <trkpt lat="44.99438" lon="5.4883">
        <ele>1333</ele>
        <time>2021-10-09T11:30:00Z</time>
      </trkpt>
      <trkpt lat="44.9944" lon="5.4883">
        <ele>1333</ele>
        <time>2021-10-09T11:30:01Z</time>
      </trkpt>
      <trkpt lat="44.99443" lon="5.4883">
        <ele>1333</ele>
        <time>2021-10-09T11:30:02Z</time>
      </trkpt>
      <trkpt lat="44.99445" lon="5.4883">
        <ele>1332.4</ele>
        <time>2021-10-09T11:30:03Z</time>
      </trkpt>
      <trkpt lat="44.99448" lon="5.48831">
        <ele>1332.2</ele>
        <time>2021-10-09T11:30:04Z</time>
      </trkpt>
      <trkpt lat="44.99451" lon="5.48831">
        <ele>1332.2</ele>
        <time>2021-10-09T11:30:05Z</time>
      </trkpt>
      <trkpt lat="44.99454" lon="5.48831">
        <ele>1332.2</ele>
        <time>2021-10-09T11:30:06Z</time>
      </trkpt>
      <trkpt lat="44.99457" lon="5.4883">
        <ele>1332.2</ele>
        <time>2021-10-09T11:30:07Z</time>
      </trkpt>
      <trkpt lat="44.9946" lon="5.4883">
        <ele>1332.6</ele>
        <time>2021-10-09T11:30:08Z</time>
      </trkpt>
      <trkpt lat="44.99462" lon="5.4883">
        <ele>1332.6</ele>
        <time>2021-10-09T11:30:09Z</time>
      </trkpt>
      <trkpt lat="44.99465" lon="5.48829">
        <ele>1332.6</ele>
        <time>2021-10-09T11:30:10Z</time>
      </trkpt>
      <trkpt lat="44.99468" lon="5.48829">
        <ele>1332</ele>
        <time>2021-10-09T11:30:11Z</time>
      </trkpt>
      <trkpt lat="44.9947" lon="5.48828">
        <ele>1331</ele>
        <time>2021-10-09T11:30:12Z</time>
      </trkpt>
      <trkpt lat="44.99472" lon="5.48829">
        <ele>1331</ele>
        <time>2021-10-09T11:30:13Z</time>
      </trkpt>
      <trkpt lat="44.99475" lon="5.48829">
        <ele>1331</ele>
        <time>2021-10-09T11:30:14Z</time>
      </trkpt>
      <trkpt lat="44.99478" lon="5.48828">
        <ele>1331.4</ele>
        <time>2021-10-09T11:30:15Z</time>
      </trkpt>
      <trkpt lat="44.99481" lon="5.48827">
        <ele>1331</ele>
        <time>2021-10-09T11:30:16Z</time>
      </trkpt>
      <trkpt lat="44.99484" lon="5.48827">
        <ele>1331</ele>
        <time>2021-10-09T11:30:17Z</time>
      </trkpt>
      <trkpt lat="44.99487" lon="5.48826">
        <ele>1331</ele>
        <time>2021-10-09T11:30:18Z</time>
      </trkpt>
      <trkpt lat="44.99491" lon="5.48825">
        <ele>1330.2</ele>
        <time>2021-10-09T11:30:19Z</time>
      </trkpt>
      <trkpt lat="44.99495" lon="5.48825">
        <ele>1329</ele>
        <time>2021-10-09T11:30:20Z</time>
      </trkpt>
      <trkpt lat="44.99499" lon="5.48824">
        <ele>1329</ele>
        <time>2021-10-09T11:30:21Z</time>
      </trkpt>
      <trkpt lat="44.99503" lon="5.48825">
        <ele>1329</ele>
        <time>2021-10-09T11:30:22Z</time>
      </trkpt>
      <trkpt lat="44.99507" lon="5.48826">
        <ele>1329.2</ele>
        <time>2021-10-09T11:30:23Z</time>
      </trkpt>
      <trkpt lat="44.99512" lon="5.48826">
        <ele>1330</ele>
        <time>2021-10-09T11:30:24Z</time>
      </trkpt>
      <trkpt lat="44.99516" lon="5.48827">
        <ele>1330</ele>
        <time>2021-10-09T11:30:25Z</time>
      </trkpt>
      <trkpt lat="44.9952" lon="5.48827">
        <ele>1330</ele>
        <time>2021-10-09T11:30:26Z</time>
      </trkpt>
      <trkpt lat="44.99523" lon="5.48826">
        <ele>1329.6</ele>
        <time>2021-10-09T11:30:27Z</time>
      </trkpt>
      <trkpt lat="44.99526" lon="5.48826">
        <ele>1329.8</ele>
        <time>2021-10-09T11:30:28Z</time>
      </trkpt>
      <trkpt lat="44.9953" lon="5.48826">
        <ele>1329.8</ele>
        <time>2021-10-09T11:30:29Z</time>
      </trkpt>
      <trkpt lat="44.99533" lon="5.48825">
        <ele>1329.8</ele>
        <time>2021-10-09T11:30:30Z</time>
      </trkpt>
      <trkpt lat="44.99537" lon="5.48825">
        <ele>1329.8</ele>
        <time>2021-10-09T11:30:31Z</time>
      </trkpt>
      <trkpt lat="44.9954" lon="5.48824">
        <ele>1329.6</ele>
        <time>2021-10-09T11:30:32Z</time>
      </trkpt>
      <trkpt lat="44.99544" lon="5.48824">
        <ele>1329.6</ele>
        <time>2021-10-09T11:30:33Z</time>
      </trkpt>
      <trkpt lat="44.99548" lon="5.48823">
        <ele>1329.6</ele>
        <time>2021-10-09T11:30:34Z</time>
      </trkpt>
      <trkpt lat="44.99551" lon="5.48822">
        <ele>1329.6</ele>
        <time>2021-10-09T11:30:35Z</time>
      </trkpt>
      <trkpt lat="44.99555" lon="5.48821">
        <ele>1330.2</ele>
        <time>2021-10-09T11:30:36Z</time>
      </trkpt>
      <trkpt lat="44.99558" lon="5.4882">
        <ele>1330.2</ele>
        <time>2021-10-09T11:30:37Z</time>
      </trkpt>
      <trkpt lat="44.99561" lon="5.4882">
        <ele>1330.2</ele>
        <time>2021-10-09T11:30:38Z</time>
      </trkpt>
      <trkpt lat="44.99565" lon="5.4882">
        <ele>1330.2</ele>
        <time>2021-10-09T11:30:39Z</time>
      </trkpt>
      <trkpt lat="44.99567" lon="5.48819">
        <ele>1330.8</ele>
        <time>2021-10-09T11:30:40Z</time>
      </trkpt>
      <trkpt lat="44.9957" lon="5.48819">
        <ele>1330.8</ele>
        <time>2021-10-09T11:30:41Z</time>
      </trkpt>
      <trkpt lat="44.99574" lon="5.48819">
        <ele>1330.8</ele>
        <time>2021-10-09T11:30:42Z</time>
      </trkpt>
      <trkpt lat="44.99578" lon="5.48819">
        <ele>1330.8</ele>
        <time>2021-10-09T11:30:43Z</time>
      </trkpt>
      <trkpt lat="44.99581" lon="5.48819">
        <ele>1330.8</ele>
        <time>2021-10-09T11:30:44Z</time>
      </trkpt>
      <trkpt lat="44.99584" lon="5.48819">
        <ele>1330.8</ele>
        <time>2021-10-09T11:30:45Z</time>
      </trkpt>
      <trkpt lat="44.99587" lon="5.4882">
        <ele>1330.8</ele>
        <time>2021-10-09T11:30:46Z</time>
      </trkpt>
      <trkpt lat="44.9959" lon="5.48821">
        <ele>1331.2</ele>
        <time>2021-10-09T11:30:47Z</time>
      </trkpt>
      <trkpt lat="44.99592" lon="5.48822">
        <ele>1331.8</ele>
        <time>2021-10-09T11:30:48Z</time>
      </trkpt>
      <trkpt lat="44.99594" lon="5.48824">
        <ele>1331.8</ele>
        <time>2021-10-09T11:30:49Z</time>
      </trkpt>
      <trkpt lat="44.99596" lon="5.48825">
        <ele>1331.8</ele>
        <time>2021-10-09T11:30:50Z</time>
      </trkpt>
      <trkpt lat="44.99599" lon="5.48826">
        <ele>1331.8</ele>
        <time>2021-10-09T11:30:51Z</time>
      </trkpt>
      <trkpt lat="44.996" lon="5.48828">
        <ele>1331.6</ele>
        <time>2021-10-09T11:30:52Z</time>
      </trkpt>
      <trkpt lat="44.99603" lon="5.48829">
        <ele>1331.6</ele>
        <time>2021-10-09T11:30:53Z</time>
      </trkpt>
      <trkpt lat="44.99604" lon="5.4883">
        <ele>1331.6</ele>
        <time>2021-10-09T11:30:54Z</time>
      </trkpt>
      <trkpt lat="44.99605" lon="5.48832">
        <ele>1332</ele>
        <time>2021-10-09T11:30:55Z</time>
      </trkpt>
      <trkpt lat="44.99607" lon="5.48833">
        <ele>1332.4</ele>
        <time>2021-10-09T11:30:56Z</time>
      </trkpt>
      <trkpt lat="44.99609" lon="5.48834">
        <ele>1332.4</ele>
        <time>2021-10-09T11:30:57Z</time>
      </trkpt>
      <trkpt lat="44.99611" lon="5.48835">
        <ele>1332.4</ele>
        <time>2021-10-09T11:30:58Z</time>
      </trkpt>
      <trkpt lat="44.99612" lon="5.48836">
        <ele>1332.8</ele>
        <time>2021-10-09T11:30:59Z</time>
      </trkpt>
      <trkpt lat="44.99613" lon="5.48837">
        <ele>1333.2</ele>
        <time>2021-10-09T11:31:00Z</time>
      </trkpt>
      <trkpt lat="44.99614" lon="5.48838">
        <ele>1333.2</ele>
        <time>2021-10-09T11:31:01Z</time>
      </trkpt>
      <trkpt lat="44.99616" lon="5.48839">
        <ele>1333.2</ele>
        <time>2021-10-09T11:31:02Z</time>
      </trkpt>
      <trkpt lat="44.99617" lon="5.4884">
        <ele>1333.2</ele>
        <time>2021-10-09T11:31:03Z</time>
      </trkpt>
      <trkpt lat="44.99618" lon="5.48841">
        <ele>1333.4</ele>
        <time>2021-10-09T11:31:04Z</time>
      </trkpt>
      <trkpt lat="44.9962" lon="5.48842">
        <ele>1333.4</ele>
        <time>2021-10-09T11:31:05Z</time>
      </trkpt>
      <trkpt lat="44.99621" lon="5.48841">
        <ele>1333.4</ele>
        <time>2021-10-09T11:31:06Z</time>
      </trkpt>
      <trkpt lat="44.99621" lon="5.48841">
        <ele>1333.4</ele>
        <time>2021-10-09T11:31:07Z</time>
      </trkpt>
      <trkpt lat="44.99622" lon="5.48842">
        <ele>1333.6</ele>
        <time>2021-10-09T11:31:08Z</time>
      </trkpt>
      <trkpt lat="44.99623" lon="5.48843">
        <ele>1333.6</ele>
        <time>2021-10-09T11:31:09Z</time>
      </trkpt>
      <trkpt lat="44.99624" lon="5.48843">
        <ele>1333.6</ele>
        <time>2021-10-09T11:31:10Z</time>
      </trkpt>
      <trkpt lat="44.99625" lon="5.48844">
        <ele>1334.2</ele>
        <time>2021-10-09T11:31:11Z</time>
      </trkpt>
      <trkpt lat="44.99627" lon="5.48844">
        <ele>1334.8</ele>
        <time>2021-10-09T11:31:12Z</time>
      </trkpt>
      <trkpt lat="44.99628" lon="5.48846">
        <ele>1334.8</ele>
        <time>2021-10-09T11:31:13Z</time>
      </trkpt>
      <trkpt lat="44.99628" lon="5.48847">
        <ele>1334.8</ele>
        <time>2021-10-09T11:31:14Z</time>
      </trkpt>
      <trkpt lat="44.9963" lon="5.48846">
        <ele>1335.8</ele>
        <time>2021-10-09T11:31:15Z</time>
      </trkpt>
      <trkpt lat="44.99631" lon="5.48847">
        <ele>1336</ele>
        <time>2021-10-09T11:31:16Z</time>
      </trkpt>
      <trkpt lat="44.99632" lon="5.48847">
        <ele>1336</ele>
        <time>2021-10-09T11:31:17Z</time>
      </trkpt>
      <trkpt lat="44.99632" lon="5.48847">
        <ele>1336</ele>
        <time>2021-10-09T11:31:18Z</time>
      </trkpt>
      <trkpt lat="44.9984" lon="5.48842">
        <ele>1374.2</ele>
        <time>2021-10-09T11:35:50Z</time>
      </trkpt>
      <trkpt lat="44.99841" lon="5.4884">
        <ele>1374.2</ele>
        <time>2021-10-09T11:35:51Z</time>
      </trkpt>
      <trkpt lat="44.99843" lon="5.4884">
        <ele>1374.4</ele>
        <time>2021-10-09T11:35:52Z</time>
      </trkpt>
      <trkpt lat="44.99844" lon="5.48838">
        <ele>1374.4</ele>
        <time>2021-10-09T11:35:53Z</time>
      </trkpt>
      <trkpt lat="44.99845" lon="5.48837">
        <ele>1374.4</ele>
        <time>2021-10-09T11:35:54Z</time>
      </trkpt>
      <trkpt lat="44.99846" lon="5.48836">
        <ele>1374.4</ele>
        <time>2021-10-09T11:35:55Z</time>
      </trkpt>
      <trkpt lat="44.99847" lon="5.48835">
        <ele>1374.6</ele>
        <time>2021-10-09T11:35:56Z</time>
      </trkpt>
      <trkpt lat="44.99848" lon="5.48834">
        <ele>1374.6</ele>
        <time>2021-10-09T11:35:57Z</time>
      </trkpt>
      <trkpt lat="44.99848" lon="5.48833">
        <ele>1374.6</ele>
        <time>2021-10-09T11:35:58Z</time>
      </trkpt>
      <trkpt lat="44.99849" lon="5.48832">
        <ele>1374.6</ele>
        <time>2021-10-09T11:35:59Z</time>
      </trkpt>
      <trkpt lat="44.9985" lon="5.48831">
        <ele>1374.6</ele>
        <time>2021-10-09T11:36:00Z</time>
      </trkpt>
      <trkpt lat="44.9985" lon="5.4883">
        <ele>1374.6</ele>
        <time>2021-10-09T11:36:01Z</time>
      </trkpt>
      <trkpt lat="44.99852" lon="5.48829">
        <ele>1374.6</ele>
        <time>2021-10-09T11:36:02Z</time>
      </trkpt>
      <trkpt lat="44.99853" lon="5.48829">
        <ele>1375.4</ele>
        <time>2021-10-09T11:36:03Z</time>
      </trkpt>
      <trkpt lat="44.99854" lon="5.48828">
        <ele>1375.4</ele>
        <time>2021-10-09T11:36:04Z</time>
      </trkpt>
      <trkpt lat="44.99856" lon="5.48828">
        <ele>1375.4</ele>
        <time>2021-10-09T11:36:05Z</time>
      </trkpt>
      <trkpt lat="44.99857" lon="5.48828">
        <ele>1375.4</ele>
        <time>2021-10-09T11:36:06Z</time>
      </trkpt>
      <trkpt lat="44.99859" lon="5.48827">
        <ele>1376.4</ele>
        <time>2021-10-09T11:36:07Z</time>
      </trkpt>
      <trkpt lat="44.99859" lon="5.48826">
        <ele>1376</ele>
        <time>2021-10-09T11:36:08Z</time>
      </trkpt>
      <trkpt lat="44.99861" lon="5.48824">
        <ele>1376</ele>
        <time>2021-10-09T11:36:09Z</time>
      </trkpt>
      <trkpt lat="44.99862" lon="5.48824">
        <ele>1376</ele>
        <time>2021-10-09T11:36:10Z</time>
      </trkpt>
      <trkpt lat="44.99863" lon="5.48823">
        <ele>1376.8</ele>
        <time>2021-10-09T11:36:11Z</time>
      </trkpt>
      <trkpt lat="44.99863" lon="5.48822">
        <ele>1376.8</ele>
        <time>2021-10-09T11:36:12Z</time>
      </trkpt>
      <trkpt lat="44.99864" lon="5.48821">
        <ele>1376.8</ele>
        <time>2021-10-09T11:36:13Z</time>
      </trkpt>
      <trkpt lat="44.99866" lon="5.48819">
        <ele>1376.8</ele>
        <time>2021-10-09T11:36:14Z</time>
      </trkpt>
      <trkpt lat="44.99867" lon="5.48818">
        <ele>1377.2</ele>
        <time>2021-10-09T11:36:15Z</time>
      </trkpt>
      <trkpt lat="44.99868" lon="5.48817">
        <ele>1377.4</ele>
        <time>2021-10-09T11:36:16Z</time>
      </trkpt>
      <trkpt lat="44.99869" lon="5.48816">
        <ele>1377.4</ele>
        <time>2021-10-09T11:36:17Z</time>
      </trkpt>
      <trkpt lat="44.9987" lon="5.48815">
        <ele>1377.4</ele>
        <time>2021-10-09T11:36:18Z</time>
      </trkpt>
      <trkpt lat="44.99872" lon="5.48813">
        <ele>1377.8</ele>
        <time>2021-10-09T11:36:19Z</time>
      </trkpt>
      <trkpt lat="44.99872" lon="5.48812">
        <ele>1377.8</ele>
        <time>2021-10-09T11:36:20Z</time>
      </trkpt>
      <trkpt lat="44.99873" lon="5.48811">
        <ele>1377.8</ele>
        <time>2021-10-09T11:36:21Z</time>
      </trkpt>
      <trkpt lat="44.99873" lon="5.48811">
        <ele>1377.8</ele>
        <time>2021-10-09T11:36:22Z</time>
      </trkpt>
      <trkpt lat="44.99874" lon="5.4881">
        <ele>1378.2</ele>
        <time>2021-10-09T11:36:23Z</time>
      </trkpt>
      <trkpt lat="44.99876" lon="5.48809">
        <ele>1378.4</ele>
        <time>2021-10-09T11:36:24Z</time>
      </trkpt>
      <trkpt lat="44.99877" lon="5.48807">
        <ele>1378.4</ele>
        <time>2021-10-09T11:36:25Z</time>
      </trkpt>
      <trkpt lat="44.99878" lon="5.48807">
        <ele>1378.4</ele>
        <time>2021-10-09T11:36:26Z</time>
      </trkpt>
      <trkpt lat="44.9988" lon="5.48805">
        <ele>1378.6</ele>
        <time>2021-10-09T11:36:27Z</time>
      </trkpt>
      <trkpt lat="44.99881" lon="5.48803">
        <ele>1378.8</ele>
        <time>2021-10-09T11:36:28Z</time>
      </trkpt>
      <trkpt lat="44.99882" lon="5.48802">
        <ele>1378.8</ele>
        <time>2021-10-09T11:36:29Z</time>
      </trkpt>
      <trkpt lat="44.99884" lon="5.48801">
        <ele>1378.8</ele>
        <time>2021-10-09T11:36:30Z</time>
      </trkpt>
      <trkpt lat="44.99885" lon="5.488">
        <ele>1379.4</ele>
        <time>2021-10-09T11:36:31Z</time>
      </trkpt>
      <trkpt lat="44.99886" lon="5.488">
        <ele>1379.6</ele>
        <time>2021-10-09T11:36:32Z</time>
      </trkpt>
      <trkpt lat="44.99888" lon="5.48799">
        <ele>1379.6</ele>
        <time>2021-10-09T11:36:33Z</time>
      </trkpt>
      <trkpt lat="44.99889" lon="5.48799">
        <ele>1379.6</ele>
        <time>2021-10-09T11:36:34Z</time>
      </trkpt>
      <trkpt lat="44.9989" lon="5.48798">
        <ele>1379.8</ele>
        <time>2021-10-09T11:36:35Z</time>
      </trkpt>
      <trkpt lat="44.99891" lon="5.48797">
        <ele>1380.4</ele>
        <time>2021-10-09T11:36:36Z</time>
      </trkpt>
      <trkpt lat="44.99891" lon="5.48797">
        <ele>1380.4</ele>
        <time>2021-10-09T11:36:37Z</time>
      </trkpt>
      <trkpt lat="44.99936" lon="5.4877">
        <ele>1384.6</ele>
        <time>2021-10-09T11:37:06Z</time>
      </trkpt>
      <trkpt lat="44.99937" lon="5.4877">
        <ele>1384.6</ele>
        <time>2021-10-09T11:37:07Z</time>
      </trkpt>
      <trkpt lat="44.99938" lon="5.48769">
        <ele>1384.8</ele>
        <time>2021-10-09T11:37:08Z</time>
      </trkpt>
      <trkpt lat="44.99939" lon="5.48769">
        <ele>1384.8</ele>
        <time>2021-10-09T11:37:09Z</time>
      </trkpt>
      <trkpt lat="44.9994" lon="5.48769">
        <ele>1384.8</ele>
        <time>2021-10-09T11:37:10Z</time>
      </trkpt>
      <trkpt lat="44.99941" lon="5.48769">
        <ele>1384.8</ele>
        <time>2021-10-09T11:37:11Z</time>
      </trkpt>
      <trkpt lat="44.99943" lon="5.48768">
        <ele>1385</ele>
        <time>2021-10-09T11:37:12Z</time>
      </trkpt>
      <trkpt lat="44.99944" lon="5.48768">
        <ele>1385</ele>
        <time>2021-10-09T11:37:13Z</time>
      </trkpt>
      <trkpt lat="44.99946" lon="5.48768">
        <ele>1385</ele>
        <time>2021-10-09T11:37:14Z</time>
      </trkpt>
      <trkpt lat="44.99948" lon="5.48767">
        <ele>1384.8</ele>
        <time>2021-10-09T11:37:15Z</time>
      </trkpt>
      <trkpt lat="44.99949" lon="5.48767">
        <ele>1384.2</ele>
        <time>2021-10-09T11:37:16Z</time>
      </trkpt>
      <trkpt lat="44.99951" lon="5.48766">
        <ele>1384.2</ele>
        <time>2021-10-09T11:37:17Z</time>
      </trkpt>
      <trkpt lat="44.99953" lon="5.48765">
        <ele>1384.2</ele>
        <time>2021-10-09T11:37:18Z</time>
      </trkpt>
      <trkpt lat="44.99954" lon="5.48765">
        <ele>1384.2</ele>
        <time>2021-10-09T11:37:19Z</time>
      </trkpt>
      <trkpt lat="44.99956" lon="5.48764">
        <ele>1384.2</ele>
        <time>2021-10-09T11:37:20Z</time>
      </trkpt>
      <trkpt lat="44.99958" lon="5.48764">
        <ele>1384.2</ele>
        <time>2021-10-09T11:37:21Z</time>
      </trkpt>
      <trkpt lat="44.9996" lon="5.48763">
        <ele>1384.2</ele>
        <time>2021-10-09T11:37:22Z</time>
      </trkpt>
      <trkpt lat="44.99963" lon="5.48762">
        <ele>1384.2</ele>
        <time>2021-10-09T11:37:23Z</time>
      </trkpt>
      <trkpt lat="44.99965" lon="5.48761">
        <ele>1384.4</ele>
        <time>2021-10-09T11:37:24Z</time>
      </trkpt>
      <trkpt lat="44.99967" lon="5.4876">
        <ele>1384.4</ele>
        <time>2021-10-09T11:37:25Z</time>
      </trkpt>
      <trkpt lat="44.9997" lon="5.48759">
        <ele>1384.4</ele>
        <time>2021-10-09T11:37:26Z</time>
      </trkpt>
      <trkpt lat="44.99972" lon="5.48759">
        <ele>1384.4</ele>
        <time>2021-10-09T11:37:27Z</time>
      </trkpt>
      <trkpt lat="44.99974" lon="5.48758">
        <ele>1384</ele>
        <time>2021-10-09T11:37:28Z</time>
      </trkpt>
      <trkpt lat="44.99977" lon="5.48758">
        <ele>1384</ele>
        <time>2021-10-09T11:37:29Z</time>
      </trkpt>
      <trkpt lat="44.99978" lon="5.48758">
        <ele>1384</ele>
        <time>2021-10-09T11:37:30Z</time>
      </trkpt>
      <trkpt lat="44.99981" lon="5.48757">
        <ele>1384.4</ele>
        <time>2021-10-09T11:37:31Z</time>
      </trkpt>
      <trkpt lat="44.99983" lon="5.48756">
        <ele>1384.8</ele>
        <time>2021-10-09T11:37:32Z</time>
      </trkpt>
      <trkpt lat="44.99984" lon="5.48757">
        <ele>1384.8</ele>
        <time>2021-10-09T11:37:33Z</time>
      </trkpt>
      <trkpt lat="44.99987" lon="5.48756">
        <ele>1384.8</ele>
        <time>2021-10-09T11:37:34Z</time>
      </trkpt>
      <trkpt lat="44.99989" lon="5.48753">
        <ele>1384.8</ele>
        <time>2021-10-09T11:37:35Z</time>
      </trkpt>
      <trkpt lat="44.99991" lon="5.48752">
        <ele>1385.6</ele>
        <time>2021-10-09T11:37:36Z</time>
      </trkpt>
      <trkpt lat="44.99992" lon="5.48751">
        <ele>1385.6</ele>
        <time>2021-10-09T11:37:37Z</time>
      </trkpt>
      <trkpt lat="44.99994" lon="5.4875">
        <ele>1385.6</ele>
        <time>2021-10-09T11:37:38Z</time>
      </trkpt>
      <trkpt lat="44.99995" lon="5.4875">
        <ele>1386.4</ele>
        <time>2021-10-09T11:37:39Z</time>
      </trkpt>
      <trkpt lat="44.99997" lon="5.48749">
        <ele>1386.6</ele>
        <time>2021-10-09T11:37:40Z</time>
      </trkpt>
      <trkpt lat="45" lon="5.48748">
        <ele>1386.6</ele>
        <time>2021-10-09T11:37:41Z</time>
      </trkpt>
      <trkpt lat="45.00003" lon="5.48746">
        <ele>1386.6</ele>
        <time>2021-10-09T11:37:42Z</time>
      </trkpt>
      <trkpt lat="45.00005" lon="5.48745">
        <ele>1386.4</ele>
        <time>2021-10-09T11:37:43Z</time>
      </trkpt>
      <trkpt lat="45.00007" lon="5.48742">
        <ele>1386.8</ele>
        <time>2021-10-09T11:37:44Z</time>
      </trkpt>
      <trkpt lat="45.00009" lon="5.4874">
        <ele>1386.8</ele>
        <time>2021-10-09T11:37:45Z</time>
      </trkpt>
      <trkpt lat="45.00011" lon="5.48738">
        <ele>1386.8</ele>
        <time>2021-10-09T11:37:46Z</time>
      </trkpt>
      <trkpt lat="45.00013" lon="5.48736">
        <ele>1386.4</ele>
        <time>2021-10-09T11:37:47Z</time>
      </trkpt>
      <trkpt lat="45.00015" lon="5.48734">
        <ele>1387</ele>
        <time>2021-10-09T11:37:48Z</time>
      </trkpt>
      <trkpt lat="45.00017" lon="5.48731">
        <ele>1387</ele>
        <time>2021-10-09T11:37:49Z</time>
      </trkpt>
      <trkpt lat="45.00019" lon="5.48729">
        <ele>1387</ele>
        <time>2021-10-09T11:37:50Z</time>
      </trkpt>
      <trkpt lat="45.00022" lon="5.48727">
        <ele>1386.8</ele>
        <time>2021-10-09T11:37:51Z</time>
      </trkpt>
      <trkpt lat="45.00024" lon="5.48726">
        <ele>1386.4</ele>
        <time>2021-10-09T11:37:52Z</time>
      </trkpt>
      <trkpt lat="45.00026" lon="5.48723">
        <ele>1386.4</ele>
        <time>2021-10-09T11:37:53Z</time>
      </trkpt>
      <trkpt lat="45.00028" lon="5.48721">
        <ele>1386.4</ele>
        <time>2021-10-09T11:37:54Z</time>
      </trkpt>
      <trkpt lat="45.00029" lon="5.48719">
        <ele>1386.4</ele>
        <time>2021-10-09T11:37:55Z</time>
      </trkpt>
      <trkpt lat="45.00031" lon="5.48717">
        <ele>1386.6</ele>
        <time>2021-10-09T11:37:56Z</time>
      </trkpt>
      <trkpt lat="45.00033" lon="5.48715">
        <ele>1386.6</ele>
        <time>2021-10-09T11:37:57Z</time>
      </trkpt>
      <trkpt lat="45.00035" lon="5.48713">
        <ele>1386.6</ele>
        <time>2021-10-09T11:37:58Z</time>
      </trkpt>
      <trkpt lat="45.00037" lon="5.48711">
        <ele>1386.6</ele>
        <time>2021-10-09T11:37:59Z</time>
      </trkpt>
      <trkpt lat="45.00039" lon="5.48709">
        <ele>1386.8</ele>
        <time>2021-10-09T11:38:00Z</time>
      </trkpt>
      <trkpt lat="45.0004" lon="5.48708">
        <ele>1386.8</ele>
        <time>2021-10-09T11:38:01Z</time>
      </trkpt>
      <trkpt lat="45.00042" lon="5.48706">
        <ele>1386.8</ele>
        <time>2021-10-09T11:38:02Z</time>
      </trkpt>
      <trkpt lat="45.00044" lon="5.48703">
        <ele>1386.8</ele>
        <time>2021-10-09T11:38:03Z</time>
      </trkpt>
      <trkpt lat="45.00045" lon="5.487">
        <ele>1387.4</ele>
        <time>2021-10-09T11:38:04Z</time>
      </trkpt>
      <trkpt lat="45.00046" lon="5.48697">
        <ele>1387.4</ele>
        <time>2021-10-09T11:38:05Z</time>
      </trkpt>
      <trkpt lat="45.00048" lon="5.48695">
        <ele>1387.4</ele>
        <time>2021-10-09T11:38:06Z</time>
      </trkpt>
      <trkpt lat="45.0005" lon="5.48693">
        <ele>1387.8</ele>
        <time>2021-10-09T11:38:07Z</time>
      </trkpt>
      <trkpt lat="45.00051" lon="5.48692">
        <ele>1388</ele>
        <time>2021-10-09T11:38:08Z</time>
      </trkpt>
      <trkpt lat="45.00053" lon="5.4869">
        <ele>1388</ele>
        <time>2021-10-09T11:38:09Z</time>
      </trkpt>
      <trkpt lat="45.00055" lon="5.48689">
        <ele>1388</ele>
        <time>2021-10-09T11:38:10Z</time>
      </trkpt>
      <trkpt lat="45.00057" lon="5.48687">
        <ele>1388.4</ele>
        <time>2021-10-09T11:38:11Z</time>
      </trkpt>
      <trkpt lat="45.00059" lon="5.48686">
        <ele>1388.4</ele>
        <time>2021-10-09T11:38:12Z</time>
      </trkpt>
      <trkpt lat="45.00059" lon="5.48683">
        <ele>1388.4</ele>
        <time>2021-10-09T11:38:13Z</time>
      </trkpt>
      <trkpt lat="45.00062" lon="5.48681">
        <ele>1388.4</ele>
        <time>2021-10-09T11:38:14Z</time>
      </trkpt>
      <trkpt lat="45.00064" lon="5.48679">
        <ele>1389.4</ele>
        <time>2021-10-09T11:38:15Z</time>
      </trkpt>
      <trkpt lat="45.00066" lon="5.48678">
        <ele>1388.6</ele>
        <time>2021-10-09T11:38:16Z</time>
      </trkpt>
      <trkpt lat="45.00068" lon="5.48676">
        <ele>1388.6</ele>
        <time>2021-10-09T11:38:17Z</time>
      </trkpt>
      <trkpt lat="45.0007" lon="5.48676">
        <ele>1388.6</ele>
        <time>2021-10-09T11:38:18Z</time>
      </trkpt>
      <trkpt lat="45.00072" lon="5.48675">
        <ele>1389.6</ele>
        <time>2021-10-09T11:38:19Z</time>
      </trkpt>
      <trkpt lat="45.00074" lon="5.48672">
        <ele>1390</ele>
        <time>2021-10-09T11:38:20Z</time>
      </trkpt>
      <trkpt lat="45.00076" lon="5.48671">
        <ele>1390</ele>
        <time>2021-10-09T11:38:21Z</time>
      </trkpt>
      <trkpt lat="45.00077" lon="5.48669">
        <ele>1390</ele>
        <time>2021-10-09T11:38:22Z</time>
      </trkpt>
      <trkpt lat="45.00079" lon="5.48667">
        <ele>1390.2</ele>
        <time>2021-10-09T11:38:23Z</time>
      </trkpt>
      <trkpt lat="45.0008" lon="5.48665">
        <ele>1390</ele>
        <time>2021-10-09T11:38:24Z</time>
      </trkpt>
      <trkpt lat="45.00083" lon="5.48663">
        <ele>1390</ele>
        <time>2021-10-09T11:38:25Z</time>
      </trkpt>
      <trkpt lat="45.00084" lon="5.48662">
        <ele>1390</ele>
        <time>2021-10-09T11:38:26Z</time>
      </trkpt>
      <trkpt lat="45.00085" lon="5.4866">
        <ele>1390</ele>
        <time>2021-10-09T11:38:27Z</time>
      </trkpt>
      <trkpt lat="45.00086" lon="5.48659">
        <ele>1390.8</ele>
        <time>2021-10-09T11:38:28Z</time>
      </trkpt>
      <trkpt lat="45.00088" lon="5.48657">
        <ele>1390.8</ele>
        <time>2021-10-09T11:38:29Z</time>
      </trkpt>
      <trkpt lat="45.0009" lon="5.48654">
        <ele>1390.8</ele>
        <time>2021-10-09T11:38:30Z</time>
      </trkpt>
      <trkpt lat="45.00093" lon="5.48652">
        <ele>1390.8</ele>
        <time>2021-10-09T11:38:31Z</time>
      </trkpt>
      <trkpt lat="45.00095" lon="5.4865">
        <ele>1391.4</ele>
        <time>2021-10-09T11:38:32Z</time>
      </trkpt>
      <trkpt lat="45.00097" lon="5.48648">
        <ele>1391.4</ele>
        <time>2021-10-09T11:38:33Z</time>
      </trkpt>
      <trkpt lat="45.00099" lon="5.48646">
        <ele>1391.4</ele>
        <time>2021-10-09T11:38:34Z</time>
      </trkpt>
      <trkpt lat="45.00101" lon="5.48643">
        <ele>1391.4</ele>
        <time>2021-10-09T11:38:35Z</time>
      </trkpt>
      <trkpt lat="45.00102" lon="5.48641">
        <ele>1391.6</ele>
        <time>2021-10-09T11:38:36Z</time>
      </trkpt>
      <trkpt lat="45.00103" lon="5.48639">
        <ele>1391.6</ele>
        <time>2021-10-09T11:38:37Z</time>
      </trkpt>
      <trkpt lat="45.00105" lon="5.48637">
        <ele>1391.6</ele>
        <time>2021-10-09T11:38:38Z</time>
      </trkpt>
      <trkpt lat="45.00106" lon="5.48634">
        <ele>1391.6</ele>
        <time>2021-10-09T11:38:39Z</time>
      </trkpt>
      <trkpt lat="45.00107" lon="5.48631">
        <ele>1391.6</ele>
        <time>2021-10-09T11:38:40Z</time>
      </trkpt>
      <trkpt lat="45.00109" lon="5.48628">
        <ele>1391.6</ele>
        <time>2021-10-09T11:38:41Z</time>
      </trkpt>
      <trkpt lat="45.00111" lon="5.48625">
        <ele>1391.6</ele>
        <time>2021-10-09T11:38:42Z</time>
      </trkpt>
      <trkpt lat="45.00112" lon="5.48622">
        <ele>1392.6</ele>
        <time>2021-10-09T11:38:43Z</time>
      </trkpt>
      <trkpt lat="45.00113" lon="5.48619">
        <ele>1392.4</ele>
        <time>2021-10-09T11:38:44Z</time>
      </trkpt>
      <trkpt lat="45.00115" lon="5.48616">
        <ele>1392.4</ele>
        <time>2021-10-09T11:38:45Z</time>
      </trkpt>
      <trkpt lat="45.00117" lon="5.48614">
        <ele>1392.4</ele>
        <time>2021-10-09T11:38:46Z</time>
      </trkpt>
      <trkpt lat="45.00119" lon="5.48613">
        <ele>1393.2</ele>
        <time>2021-10-09T11:38:47Z</time>
      </trkpt>
      <trkpt lat="45.00121" lon="5.48611">
        <ele>1393.2</ele>
        <time>2021-10-09T11:38:48Z</time>
      </trkpt>
      <trkpt lat="45.00122" lon="5.48609">
        <ele>1393.2</ele>
        <time>2021-10-09T11:38:49Z</time>
      </trkpt>
      <trkpt lat="45.00124" lon="5.48607">
        <ele>1393.2</ele>
        <time>2021-10-09T11:38:50Z</time>
      </trkpt>
      <trkpt lat="45.00126" lon="5.48605">
        <ele>1393.2</ele>
        <time>2021-10-09T11:38:51Z</time>
      </trkpt>
      <trkpt lat="45.00127" lon="5.48603">
        <ele>1393.4</ele>
        <time>2021-10-09T11:38:52Z</time>
      </trkpt>
      <trkpt lat="45.00129" lon="5.48601">
        <ele>1393.4</ele>
        <time>2021-10-09T11:38:53Z</time>
      </trkpt>
      <trkpt lat="45.00131" lon="5.486">
        <ele>1393.4</ele>
        <time>2021-10-09T11:38:54Z</time>
      </trkpt>
      <trkpt lat="45.00133" lon="5.48598">
        <ele>1393.4</ele>
        <time>2021-10-09T11:38:55Z</time>
      </trkpt>
      <trkpt lat="45.00135" lon="5.48595">
        <ele>1393.4</ele>
        <time>2021-10-09T11:38:56Z</time>
      </trkpt>
      <trkpt lat="45.00136" lon="5.48594">
        <ele>1393.4</ele>
        <time>2021-10-09T11:38:57Z</time>
      </trkpt>
      <trkpt lat="45.00137" lon="5.48592">
        <ele>1393.4</ele>
        <time>2021-10-09T11:38:58Z</time>
      </trkpt>
      <trkpt lat="45.00139" lon="5.4859">
        <ele>1394.2</ele>
        <time>2021-10-09T11:38:59Z</time>
      </trkpt>
      <trkpt lat="45.0014" lon="5.48588">
        <ele>1394</ele>
        <time>2021-10-09T11:39:00Z</time>
      </trkpt>
      <trkpt lat="45.00141" lon="5.48588">
        <ele>1394</ele>
        <time>2021-10-09T11:39:01Z</time>
      </trkpt>
      <trkpt lat="45.00141" lon="5.48586">
        <ele>1394</ele>
        <time>2021-10-09T11:39:02Z</time>
      </trkpt>
      <trkpt lat="45.00142" lon="5.48586">
        <ele>1394.8</ele>
        <time>2021-10-09T11:39:03Z</time>
      </trkpt>
      <trkpt lat="45.00143" lon="5.48585">
        <ele>1395</ele>
        <time>2021-10-09T11:39:04Z</time>
      </trkpt>
      <trkpt lat="45.00144" lon="5.48584">
        <ele>1395</ele>
        <time>2021-10-09T11:39:05Z</time>
      </trkpt>
      <trkpt lat="45.00144" lon="5.48584">
        <ele>1395</ele>
        <time>2021-10-09T11:39:06Z</time>
      </trkpt>
      <trkpt lat="45.00146" lon="5.48583">
        <ele>1395</ele>
        <time>2021-10-09T11:39:07Z</time>
      </trkpt>
      <trkpt lat="45.00147" lon="5.48582">
        <ele>1396</ele>
        <time>2021-10-09T11:39:08Z</time>
      </trkpt>
      <trkpt lat="45.00149" lon="5.48581">
        <ele>1396</ele>
        <time>2021-10-09T11:39:09Z</time>
      </trkpt>
      <trkpt lat="45.00149" lon="5.4858">
        <ele>1396</ele>
        <time>2021-10-09T11:39:10Z</time>
      </trkpt>
      <trkpt lat="45.0015" lon="5.4858">
        <ele>1396</ele>
        <time>2021-10-09T11:39:11Z</time>
      </trkpt>
      <trkpt lat="45.00151" lon="5.48581">
        <ele>1397</ele>
        <time>2021-10-09T11:39:12Z</time>
      </trkpt>
      <trkpt lat="45.00152" lon="5.4858">
        <ele>1397</ele>
        <time>2021-10-09T11:39:13Z</time>
      </trkpt>
      <trkpt lat="45.00152" lon="5.4858">
        <ele>1397</ele>
        <time>2021-10-09T11:39:14Z</time>
      </trkpt>
      <trkpt lat="45.00153" lon="5.48579">
        <ele>1397.4</ele>
        <time>2021-10-09T11:39:15Z</time>
      </trkpt>
      <trkpt lat="45.00154" lon="5.48579">
        <ele>1398</ele>
        <time>2021-10-09T11:39:16Z</time>
      </trkpt>
      <trkpt lat="45.00154" lon="5.48579">
        <ele>1398</ele>
        <time>2021-10-09T11:39:17Z</time>
      </trkpt>
      <trkpt lat="45.00155" lon="5.48578">
        <ele>1398</ele>
        <time>2021-10-09T11:39:18Z</time>
      </trkpt>
      <trkpt lat="45.00255" lon="5.48628">
        <ele>1430.8</ele>
        <time>2021-10-09T11:45:27Z</time>
      </trkpt>
      <trkpt lat="45.00254" lon="5.48632">
        <ele>1429.8</ele>
        <time>2021-10-09T11:45:28Z</time>
      </trkpt>
      <trkpt lat="45.00254" lon="5.48637">
        <ele>1429.8</ele>
        <time>2021-10-09T11:45:29Z</time>
      </trkpt>
      <trkpt lat="45.00254" lon="5.48642">
        <ele>1429.8</ele>
        <time>2021-10-09T11:45:30Z</time>
      </trkpt>
      <trkpt lat="45.00254" lon="5.48646">
        <ele>1428.8</ele>
        <time>2021-10-09T11:45:31Z</time>
      </trkpt>
      <trkpt lat="45.00253" lon="5.4865">
        <ele>1427.6</ele>
        <time>2021-10-09T11:45:32Z</time>
      </trkpt>
      <trkpt lat="45.00254" lon="5.48654">
        <ele>1427.6</ele>
        <time>2021-10-09T11:45:33Z</time>
      </trkpt>
      <trkpt lat="45.00255" lon="5.48658">
        <ele>1427.6</ele>
        <time>2021-10-09T11:45:34Z</time>
      </trkpt>
      <trkpt lat="45.00256" lon="5.48664">
        <ele>1426.6</ele>
        <time>2021-10-09T11:45:35Z</time>
      </trkpt>
      <trkpt lat="45.00257" lon="5.4867">
        <ele>1425.4</ele>
        <time>2021-10-09T11:45:36Z</time>
      </trkpt>
      <trkpt lat="45.00259" lon="5.48674">
        <ele>1425.4</ele>
        <time>2021-10-09T11:45:37Z</time>
      </trkpt>
      <trkpt lat="45.00261" lon="5.48677">
        <ele>1425.4</ele>
        <time>2021-10-09T11:45:38Z</time>
      </trkpt>
      <trkpt lat="45.00263" lon="5.4868">
        <ele>1424.6</ele>
        <time>2021-10-09T11:45:39Z</time>
      </trkpt>
      <trkpt lat="45.00265" lon="5.48684">
        <ele>1424.4</ele>
        <time>2021-10-09T11:45:40Z</time>
      </trkpt>
      <trkpt lat="45.00267" lon="5.48686">
        <ele>1424.4</ele>
        <time>2021-10-09T11:45:41Z</time>
      </trkpt>
      <trkpt lat="45.00269" lon="5.48689">
        <ele>1424.4</ele>
        <time>2021-10-09T11:45:42Z</time>
      </trkpt>
      <trkpt lat="45.00269" lon="5.48692">
        <ele>1424.4</ele>
        <time>2021-10-09T11:45:43Z</time>
      </trkpt>
      <trkpt lat="45.00271" lon="5.48694">
        <ele>1423.8</ele>
        <time>2021-10-09T11:45:44Z</time>
      </trkpt>
      <trkpt lat="45.00274" lon="5.48694">
        <ele>1423.8</ele>
        <time>2021-10-09T11:45:45Z</time>
      </trkpt>
      <trkpt lat="45.00274" lon="5.48697">
        <ele>1423.8</ele>
        <time>2021-10-09T11:45:46Z</time>
      </trkpt>
      <trkpt lat="45.00276" lon="5.48698">
        <ele>1423.8</ele>
        <time>2021-10-09T11:45:47Z</time>
      </trkpt>
      <trkpt lat="45.00279" lon="5.48699">
        <ele>1423.6</ele>
        <time>2021-10-09T11:45:48Z</time>
      </trkpt>
      <trkpt lat="45.00281" lon="5.487">
        <ele>1423.6</ele>
        <time>2021-10-09T11:45:49Z</time>
      </trkpt>
      <trkpt lat="45.00283" lon="5.48701">
        <ele>1423.6</ele>
        <time>2021-10-09T11:45:50Z</time>
      </trkpt>
      <trkpt lat="45.00285" lon="5.48702">
        <ele>1423.6</ele>
        <time>2021-10-09T11:45:51Z</time>
      </trkpt>
      <trkpt lat="45.00286" lon="5.48701">
        <ele>1423</ele>
        <time>2021-10-09T11:45:52Z</time>
      </trkpt>
      <trkpt lat="45.00288" lon="5.48702">
        <ele>1423</ele>
        <time>2021-10-09T11:45:53Z</time>
      </trkpt>
      <trkpt lat="45.0029" lon="5.48701">
        <ele>1423</ele>
        <time>2021-10-09T11:45:54Z</time>
      </trkpt>
      <trkpt lat="45.00294" lon="5.487">
        <ele>1422</ele>
        <time>2021-10-09T11:45:55Z</time>
      </trkpt>
      <trkpt lat="45.00297" lon="5.48698">
        <ele>1421.8</ele>
        <time>2021-10-09T11:45:56Z</time>
      </trkpt>
      <trkpt lat="45.003" lon="5.48697">
        <ele>1421.8</ele>
        <time>2021-10-09T11:45:57Z</time>
      </trkpt>
      <trkpt lat="45.00303" lon="5.48695">
        <ele>1421.8</ele>
        <time>2021-10-09T11:45:58Z</time>
      </trkpt>
      <trkpt lat="45.00307" lon="5.48693">
        <ele>1421.8</ele>
        <time>2021-10-09T11:45:59Z</time>
      </trkpt>
      <trkpt lat="45.0031" lon="5.48692">
        <ele>1419.2</ele>
        <time>2021-10-09T11:46:00Z</time>
      </trkpt>
      <trkpt lat="45.00314" lon="5.48689">
        <ele>1419.2</ele>
        <time>2021-10-09T11:46:01Z</time>
      </trkpt>
      <trkpt lat="45.00318" lon="5.48686">
        <ele>1419.2</ele>
        <time>2021-10-09T11:46:02Z</time>
      </trkpt>
      <trkpt lat="45.00322" lon="5.48683">
        <ele>1418.2</ele>
        <time>2021-10-09T11:46:03Z</time>
      </trkpt>
      <trkpt lat="45.00326" lon="5.4868">
        <ele>1418.6</ele>
        <time>2021-10-09T11:46:04Z</time>
      </trkpt>
      <trkpt lat="45.0033" lon="5.48675">
        <ele>1418.6</ele>
        <time>2021-10-09T11:46:05Z</time>
      </trkpt>
      <trkpt lat="45.00334" lon="5.48671">
        <ele>1418.6</ele>
        <time>2021-10-09T11:46:06Z</time>
      </trkpt>
      <trkpt lat="45.00338" lon="5.48665">
        <ele>1417.6</ele>
        <time>2021-10-09T11:46:07Z</time>
      </trkpt>
      <trkpt lat="45.00341" lon="5.48659">
        <ele>1416.2</ele>
        <time>2021-10-09T11:46:08Z</time>
      </trkpt>
      <trkpt lat="45.00345" lon="5.48653">
        <ele>1416.2</ele>
        <time>2021-10-09T11:46:09Z</time>
      </trkpt>
      <trkpt lat="45.00347" lon="5.48649">
        <ele>1416.2</ele>
        <time>2021-10-09T11:46:10Z</time>
      </trkpt>
      <trkpt lat="45.00351" lon="5.48644">
        <ele>1417.2</ele>
        <time>2021-10-09T11:46:11Z</time>
      </trkpt>
      <trkpt lat="45.00353" lon="5.4864">
        <ele>1418</ele>
        <time>2021-10-09T11:46:12Z</time>
      </trkpt>
      <trkpt lat="45.00356" lon="5.48637">
        <ele>1418</ele>
        <time>2021-10-09T11:46:13Z</time>
      </trkpt>
      <trkpt lat="45.00359" lon="5.48634">
        <ele>1418</ele>
        <time>2021-10-09T11:46:14Z</time>
      </trkpt>
      <trkpt lat="45.00362" lon="5.48631">
        <ele>1418.8</ele>
        <time>2021-10-09T11:46:15Z</time>
      </trkpt>
      <trkpt lat="45.00364" lon="5.48629">
        <ele>1418.8</ele>
        <time>2021-10-09T11:46:16Z</time>
      </trkpt>
      <trkpt lat="45.00366" lon="5.48626">
        <ele>1418.8</ele>
        <time>2021-10-09T11:46:17Z</time>
      </trkpt>
      <trkpt lat="45.00369" lon="5.48625">
        <ele>1418.8</ele>
        <time>2021-10-09T11:46:18Z</time>
      </trkpt>
      <trkpt lat="45.00371" lon="5.48623">
        <ele>1418.8</ele>
        <time>2021-10-09T11:46:19Z</time>
      </trkpt>
      <trkpt lat="45.00373" lon="5.48621">
        <ele>1418.8</ele>
        <time>2021-10-09T11:46:20Z</time>
      </trkpt>
      <trkpt lat="45.00374" lon="5.48621">
        <ele>1418.8</ele>
        <time>2021-10-09T11:46:21Z</time>
      </trkpt>
      <trkpt lat="45.00376" lon="5.48619">
        <ele>1418.8</ele>
        <time>2021-10-09T11:46:22Z</time>
      </trkpt>
      <trkpt lat="45.0038" lon="5.48617">
        <ele>1418.8</ele>
        <time>2021-10-09T11:46:23Z</time>
      </trkpt>
      <trkpt lat="45.00383" lon="5.48616">
        <ele>1417.4</ele>
        <time>2021-10-09T11:46:24Z</time>
      </trkpt>
      <trkpt lat="45.00387" lon="5.48615">
        <ele>1417.4</ele>
        <time>2021-10-09T11:46:25Z</time>
      </trkpt>
      <trkpt lat="45.00391" lon="5.48614">
        <ele>1417.4</ele>
        <time>2021-10-09T11:46:26Z</time>
      </trkpt>
      <trkpt lat="45.00395" lon="5.48612">
        <ele>1416.4</ele>
        <time>2021-10-09T11:46:27Z</time>
      </trkpt>
      <trkpt lat="45.00401" lon="5.4861">
        <ele>1415</ele>
        <time>2021-10-09T11:46:28Z</time>
      </trkpt>
      <trkpt lat="45.00406" lon="5.48607">
        <ele>1415</ele>
        <time>2021-10-09T11:46:29Z</time>
      </trkpt>
      <trkpt lat="45.00412" lon="5.48604">
        <ele>1415</ele>
        <time>2021-10-09T11:46:30Z</time>
      </trkpt>
      <trkpt lat="45.00417" lon="5.48602">
        <ele>1414</ele>
        <time>2021-10-09T11:46:31Z</time>
      </trkpt>
      <trkpt lat="45.00421" lon="5.48598">
        <ele>1413.6</ele>
        <time>2021-10-09T11:46:32Z</time>
      </trkpt>
      <trkpt lat="45.00425" lon="5.48594">
        <ele>1413.6</ele>
        <time>2021-10-09T11:46:33Z</time>
      </trkpt>
      <trkpt lat="45.0043" lon="5.48591">
        <ele>1413.6</ele>
        <time>2021-10-09T11:46:34Z</time>
      </trkpt>
      <trkpt lat="45.00435" lon="5.48587">
        <ele>1413.6</ele>
        <time>2021-10-09T11:46:35Z</time>
      </trkpt>
      <trkpt lat="45.00439" lon="5.48585">
        <ele>1413.2</ele>
        <time>2021-10-09T11:46:36Z</time>
      </trkpt>
      <trkpt lat="45.00442" lon="5.4858">
        <ele>1413.2</ele>
        <time>2021-10-09T11:46:37Z</time>
      </trkpt>
      <trkpt lat="45.00445" lon="5.48576">
        <ele>1413.2</ele>
        <time>2021-10-09T11:46:38Z</time>
      </trkpt>
      <trkpt lat="45.00449" lon="5.48575">
        <ele>1412.2</ele>
        <time>2021-10-09T11:46:39Z</time>
      </trkpt>
      <trkpt lat="45.00453" lon="5.48573">
        <ele>1410</ele>
        <time>2021-10-09T11:46:40Z</time>
      </trkpt>
      <trkpt lat="45.00457" lon="5.48568">
        <ele>1410</ele>
        <time>2021-10-09T11:46:41Z</time>
      </trkpt>
      <trkpt lat="45.00458" lon="5.48565">
        <ele>1410</ele>
        <time>2021-10-09T11:46:42Z</time>
      </trkpt>
      <trkpt lat="45.00461" lon="5.48561">
        <ele>1409</ele>
        <time>2021-10-09T11:46:43Z</time>
      </trkpt>
      <trkpt lat="45.00467" lon="5.48557">
        <ele>1408.6</ele>
        <time>2021-10-09T11:46:44Z</time>
      </trkpt>
      <trkpt lat="45.00472" lon="5.48555">
        <ele>1408.6</ele>
        <time>2021-10-09T11:46:45Z</time>
      </trkpt>
      <trkpt lat="45.00477" lon="5.48553">
        <ele>1408.6</ele>
        <time>2021-10-09T11:46:46Z</time>
      </trkpt>
      <trkpt lat="45.00484" lon="5.48554">
        <ele>1407.6</ele>
        <time>2021-10-09T11:46:47Z</time>
      </trkpt>
      <trkpt lat="45.00489" lon="5.48553">
        <ele>1405</ele>
        <time>2021-10-09T11:46:48Z</time>
      </trkpt>
      <trkpt lat="45.00493" lon="5.48552">
        <ele>1405</ele>
        <time>2021-10-09T11:46:49Z</time>
      </trkpt>
      <trkpt lat="45.00496" lon="5.48551">
        <ele>1405</ele>
        <time>2021-10-09T11:46:50Z</time>
      </trkpt>
      <trkpt lat="45.00501" lon="5.4855">
        <ele>1404</ele>
        <time>2021-10-09T11:46:51Z</time>
      </trkpt>
      <trkpt lat="45.00508" lon="5.4855">
        <ele>1402.8</ele>
        <time>2021-10-09T11:46:52Z</time>
      </trkpt>
      <trkpt lat="45.00516" lon="5.48547">
        <ele>1402.8</ele>
        <time>2021-10-09T11:46:53Z</time>
      </trkpt>
      <trkpt lat="45.00524" lon="5.48544">
        <ele>1402.8</ele>
        <time>2021-10-09T11:46:54Z</time>
      </trkpt>
      <trkpt lat="45.00531" lon="5.48544">
        <ele>1401.8</ele>
        <time>2021-10-09T11:46:55Z</time>
      </trkpt>
      <trkpt lat="45.00538" lon="5.48545">
        <ele>1400.2</ele>
        <time>2021-10-09T11:46:56Z</time>
      </trkpt>
      <trkpt lat="45.00545" lon="5.48548">
        <ele>1400.2</ele>
        <time>2021-10-09T11:46:57Z</time>
      </trkpt>
      <trkpt lat="45.00553" lon="5.48552">
        <ele>1400.2</ele>
        <time>2021-10-09T11:46:58Z</time>
      </trkpt>
      <trkpt lat="45.00559" lon="5.48558">
        <ele>1400.2</ele>
        <time>2021-10-09T11:46:59Z</time>
      </trkpt>
      <trkpt lat="45.00564" lon="5.48564">
        <ele>1401.4</ele>
        <time>2021-10-09T11:47:00Z</time>
      </trkpt>
      <trkpt lat="45.0057" lon="5.48568">
        <ele>1401.4</ele>
        <time>2021-10-09T11:47:01Z</time>
      </trkpt>
      <trkpt lat="45.00574" lon="5.48573">
        <ele>1401.4</ele>
        <time>2021-10-09T11:47:02Z</time>
      </trkpt>
      <trkpt lat="45.00577" lon="5.48578">
        <ele>1402.4</ele>
        <time>2021-10-09T11:47:03Z</time>
      </trkpt>
      <trkpt lat="45.00582" lon="5.48581">
        <ele>1402.8</ele>
        <time>2021-10-09T11:47:04Z</time>
      </trkpt>
      <trkpt lat="45.00587" lon="5.48585">
        <ele>1402.8</ele>
        <time>2021-10-09T11:47:05Z</time>
      </trkpt>
      <trkpt lat="45.00592" lon="5.48587">
        <ele>1402.8</ele>
        <time>2021-10-09T11:47:06Z</time>
      </trkpt>
      <trkpt lat="45.00596" lon="5.4859">
        <ele>1402.8</ele>
        <time>2021-10-09T11:47:07Z</time>
      </trkpt>
      <trkpt lat="45.00601" lon="5.48593">
        <ele>1402.4</ele>
        <time>2021-10-09T11:47:08Z</time>
      </trkpt>
      <trkpt lat="45.00604" lon="5.48597">
        <ele>1402.4</ele>
        <time>2021-10-09T11:47:09Z</time>
      </trkpt>
      <trkpt lat="45.00606" lon="5.48602">
        <ele>1402.4</ele>
        <time>2021-10-09T11:47:10Z</time>
      </trkpt>
      <trkpt lat="45.00609" lon="5.48605">
        <ele>1401.4</ele>
        <time>2021-10-09T11:47:11Z</time>
      </trkpt>
      <trkpt lat="45.00614" lon="5.48609">
        <ele>1399.6</ele>
        <time>2021-10-09T11:47:12Z</time>
      </trkpt>
      <trkpt lat="45.00619" lon="5.48616">
        <ele>1399.6</ele>
        <time>2021-10-09T11:47:13Z</time>
      </trkpt>
      <trkpt lat="45.00626" lon="5.48622">
        <ele>1399.6</ele>
        <time>2021-10-09T11:47:14Z</time>
      </trkpt>
      <trkpt lat="45.00631" lon="5.48629">
        <ele>1399.6</ele>
        <time>2021-10-09T11:47:15Z</time>
      </trkpt>
      <trkpt lat="45.00636" lon="5.48635">
        <ele>1395.8</ele>
        <time>2021-10-09T11:47:16Z</time>
      </trkpt>
      <trkpt lat="45.00642" lon="5.48642">
        <ele>1395.8</ele>
        <time>2021-10-09T11:47:17Z</time>
      </trkpt>
      <trkpt lat="45.00648" lon="5.48649">
        <ele>1395.8</ele>
        <time>2021-10-09T11:47:18Z</time>
      </trkpt>
      <trkpt lat="45.00654" lon="5.48657">
        <ele>1394.8</ele>
        <time>2021-10-09T11:47:19Z</time>
      </trkpt>
      <trkpt lat="45.0066" lon="5.48663">
        <ele>1392.6</ele>
        <time>2021-10-09T11:47:20Z</time>
      </trkpt>
      <trkpt lat="45.00666" lon="5.48671">
        <ele>1392.6</ele>
        <time>2021-10-09T11:47:21Z</time>
      </trkpt>
      <trkpt lat="45.00671" lon="5.48678">
        <ele>1392.6</ele>
        <time>2021-10-09T11:47:22Z</time>
      </trkpt>
      <trkpt lat="45.00676" lon="5.48686">
        <ele>1393.4</ele>
        <time>2021-10-09T11:47:23Z</time>
      </trkpt>
      <trkpt lat="45.00679" lon="5.48695">
        <ele>1392.6</ele>
        <time>2021-10-09T11:47:24Z</time>
      </trkpt>
      <trkpt lat="45.00682" lon="5.48702">
        <ele>1392.6</ele>
        <time>2021-10-09T11:47:25Z</time>
      </trkpt>
      <trkpt lat="45.00685" lon="5.4871">
        <ele>1392.6</ele>
        <time>2021-10-09T11:47:26Z</time>
      </trkpt>
      <trkpt lat="45.00687" lon="5.48716">
        <ele>1393.6</ele>
        <time>2021-10-09T11:47:27Z</time>
      </trkpt>
      <trkpt lat="45.00689" lon="5.48722">
        <ele>1395</ele>
        <time>2021-10-09T11:47:28Z</time>
      </trkpt>
      <trkpt lat="45.00691" lon="5.48728">
        <ele>1395</ele>
        <time>2021-10-09T11:47:29Z</time>
      </trkpt>
      <trkpt lat="45.00694" lon="5.48733">
        <ele>1395</ele>
        <time>2021-10-09T11:47:30Z</time>
      </trkpt>
      <trkpt lat="45.00696" lon="5.48739">
        <ele>1394</ele>
        <time>2021-10-09T11:47:31Z</time>
      </trkpt>
      <trkpt lat="45.00699" lon="5.48745">
        <ele>1393.2</ele>
        <time>2021-10-09T11:47:32Z</time>
      </trkpt>
      <trkpt lat="45.00701" lon="5.48753">
        <ele>1393.2</ele>
        <time>2021-10-09T11:47:33Z</time>
      </trkpt>
      <trkpt lat="45.00704" lon="5.48761">
        <ele>1393.2</ele>
        <time>2021-10-09T11:47:34Z</time>
      </trkpt>
      <trkpt lat="45.00707" lon="5.4877">
        <ele>1392.2</ele>
        <time>2021-10-09T11:47:35Z</time>
      </trkpt>
      <trkpt lat="45.00709" lon="5.48779">
        <ele>1389.6</ele>
        <time>2021-10-09T11:47:36Z</time>
      </trkpt>
      <trkpt lat="45.0071" lon="5.48789">
        <ele>1389.6</ele>
        <time>2021-10-09T11:47:37Z</time>
      </trkpt>
      <trkpt lat="45.00711" lon="5.488">
        <ele>1389.6</ele>
        <time>2021-10-09T11:47:38Z</time>
      </trkpt>
      <trkpt lat="45.00713" lon="5.4881">
        <ele>1389.2</ele>
        <time>2021-10-09T11:47:39Z</time>
      </trkpt>
      <trkpt lat="45.00714" lon="5.48818">
        <ele>1391</ele>
        <time>2021-10-09T11:47:40Z</time>
      </trkpt>
      <trkpt lat="45.00717" lon="5.48824">
        <ele>1391</ele>
        <time>2021-10-09T11:47:41Z</time>
      </trkpt>
      <trkpt lat="45.00721" lon="5.4883">
        <ele>1391</ele>
        <time>2021-10-09T11:47:42Z</time>
      </trkpt>
      <trkpt lat="45.00725" lon="5.48834">
        <ele>1391</ele>
        <time>2021-10-09T11:47:43Z</time>
      </trkpt>
      <trkpt lat="45.00729" lon="5.48836">
        <ele>1391.2</ele>
        <time>2021-10-09T11:47:44Z</time>
      </trkpt>
      <trkpt lat="45.00734" lon="5.48836">
        <ele>1391.2</ele>
        <time>2021-10-09T11:47:45Z</time>
      </trkpt>
      <trkpt lat="45.00737" lon="5.48836">
        <ele>1391.2</ele>
        <time>2021-10-09T11:47:46Z</time>
      </trkpt>
      <trkpt lat="45.0074" lon="5.48834">
        <ele>1392.2</ele>
        <time>2021-10-09T11:47:47Z</time>
      </trkpt>
      <trkpt lat="45.00743" lon="5.48832">
        <ele>1393.6</ele>
        <time>2021-10-09T11:47:48Z</time>
      </trkpt>
      <trkpt lat="45.00745" lon="5.4883">
        <ele>1393.6</ele>
        <time>2021-10-09T11:47:49Z</time>
      </trkpt>
      <trkpt lat="45.00747" lon="5.48828">
        <ele>1393.6</ele>
        <time>2021-10-09T11:47:50Z</time>
      </trkpt>
      <trkpt lat="45.00749" lon="5.48827">
        <ele>1394.6</ele>
        <time>2021-10-09T11:47:51Z</time>
      </trkpt>
      <trkpt lat="45.00751" lon="5.48825">
        <ele>1395.4</ele>
        <time>2021-10-09T11:47:52Z</time>
      </trkpt>
      <trkpt lat="45.00754" lon="5.48824">
        <ele>1395.4</ele>
        <time>2021-10-09T11:47:53Z</time>
      </trkpt>
      <trkpt lat="45.00756" lon="5.48823">
        <ele>1395.4</ele>
        <time>2021-10-09T11:47:54Z</time>
      </trkpt>
      <trkpt lat="45.00758" lon="5.48822">
        <ele>1396.4</ele>
        <time>2021-10-09T11:47:55Z</time>
      </trkpt>
      <trkpt lat="45.00761" lon="5.48821">
        <ele>1397</ele>
        <time>2021-10-09T11:47:56Z</time>
      </trkpt>
      <trkpt lat="45.00763" lon="5.4882">
        <ele>1397</ele>
        <time>2021-10-09T11:47:57Z</time>
      </trkpt>
      <trkpt lat="45.00766" lon="5.48819">
        <ele>1397</ele>
        <time>2021-10-09T11:47:58Z</time>
      </trkpt>
      <trkpt lat="45.00769" lon="5.48818">
        <ele>1397</ele>
        <time>2021-10-09T11:47:59Z</time>
      </trkpt>
      <trkpt lat="45.00771" lon="5.48817">
        <ele>1397.8</ele>
        <time>2021-10-09T11:48:00Z</time>
      </trkpt>
      <trkpt lat="45.00774" lon="5.48816">
        <ele>1397.8</ele>
        <time>2021-10-09T11:48:01Z</time>
      </trkpt>
      <trkpt lat="45.00777" lon="5.48815">
        <ele>1397.8</ele>
        <time>2021-10-09T11:48:02Z</time>
      </trkpt>
      <trkpt lat="45.00779" lon="5.48814">
        <ele>1398.4</ele>
        <time>2021-10-09T11:48:03Z</time>
      </trkpt>
      <trkpt lat="45.00782" lon="5.48811">
        <ele>1398.6</ele>
        <time>2021-10-09T11:48:04Z</time>
      </trkpt>
      <trkpt lat="45.00784" lon="5.4881">
        <ele>1398.6</ele>
        <time>2021-10-09T11:48:05Z</time>
      </trkpt>
      <trkpt lat="45.00786" lon="5.48809">
        <ele>1398.6</ele>
        <time>2021-10-09T11:48:06Z</time>
      </trkpt>
      <trkpt lat="45.00789" lon="5.48808">
        <ele>1398.6</ele>
        <time>2021-10-09T11:48:07Z</time>
      </trkpt>
      <trkpt lat="45.00791" lon="5.48806">
        <ele>1399.4</ele>
        <time>2021-10-09T11:48:08Z</time>
      </trkpt>
      <trkpt lat="45.00793" lon="5.48805">
        <ele>1399.4</ele>
        <time>2021-10-09T11:48:09Z</time>
      </trkpt>
      <trkpt lat="45.00796" lon="5.48804">
        <ele>1399.4</ele>
        <time>2021-10-09T11:48:10Z</time>
      </trkpt>
      <trkpt lat="45.00798" lon="5.48803">
        <ele>1399.4</ele>
        <time>2021-10-09T11:48:11Z</time>
      </trkpt>
      <trkpt lat="45.00801" lon="5.48803">
        <ele>1399.2</ele>
        <time>2021-10-09T11:48:12Z</time>
      </trkpt>
      <trkpt lat="45.00804" lon="5.48803">
        <ele>1399.2</ele>
        <time>2021-10-09T11:48:13Z</time>
      </trkpt>
      <trkpt lat="45.00806" lon="5.48803">
        <ele>1399.2</ele>
        <time>2021-10-09T11:48:14Z</time>
      </trkpt>
      <trkpt lat="45.00809" lon="5.48802">
        <ele>1399.2</ele>
        <time>2021-10-09T11:48:15Z</time>
      </trkpt>
      <trkpt lat="45.00812" lon="5.48801">
        <ele>1399.4</ele>
        <time>2021-10-09T11:48:16Z</time>
      </trkpt>
      <trkpt lat="45.00815" lon="5.48801">
        <ele>1399.4</ele>
        <time>2021-10-09T11:48:17Z</time>
      </trkpt>
      <trkpt lat="45.00818" lon="5.488">
        <ele>1399.4</ele>
        <time>2021-10-09T11:48:18Z</time>
      </trkpt>
      <trkpt lat="45.00821" lon="5.488">
        <ele>1399.4</ele>
        <time>2021-10-09T11:48:19Z</time>
      </trkpt>
      <trkpt lat="45.00823" lon="5.48799">
        <ele>1399.4</ele>
        <time>2021-10-09T11:48:20Z</time>
      </trkpt>
      <trkpt lat="45.00826" lon="5.48799">
        <ele>1399.4</ele>
        <time>2021-10-09T11:48:21Z</time>
      </trkpt>
      <trkpt lat="45.00829" lon="5.48798">
        <ele>1399.4</ele>
        <time>2021-10-09T11:48:22Z</time>
      </trkpt>
      <trkpt lat="45.00832" lon="5.48797">
        <ele>1399.4</ele>
        <time>2021-10-09T11:48:23Z</time>
      </trkpt>
      <trkpt lat="45.00833" lon="5.48795">
        <ele>1399.6</ele>
        <time>2021-10-09T11:48:24Z</time>
      </trkpt>
      <trkpt lat="45.00836" lon="5.48794">
        <ele>1399.6</ele>
        <time>2021-10-09T11:48:25Z</time>
      </trkpt>
      <trkpt lat="45.00838" lon="5.48793">
        <ele>1399.6</ele>
        <time>2021-10-09T11:48:26Z</time>
      </trkpt>
      <trkpt lat="45.00841" lon="5.48793">
        <ele>1400.2</ele>
        <time>2021-10-09T11:48:27Z</time>
      </trkpt>
      <trkpt lat="45.00843" lon="5.48792">
        <ele>1400.2</ele>
        <time>2021-10-09T11:48:28Z</time>
      </trkpt>
      <trkpt lat="45.00845" lon="5.4879">
        <ele>1400.2</ele>
        <time>2021-10-09T11:48:29Z</time>
      </trkpt>
      <trkpt lat="45.00847" lon="5.48789">
        <ele>1400.2</ele>
        <time>2021-10-09T11:48:30Z</time>
      </trkpt>
      <trkpt lat="45.0085" lon="5.48787">
        <ele>1401.2</ele>
        <time>2021-10-09T11:48:31Z</time>
      </trkpt>
      <trkpt lat="45.00853" lon="5.48786">
        <ele>1401</ele>
        <time>2021-10-09T11:48:32Z</time>
      </trkpt>
      <trkpt lat="45.00855" lon="5.48784">
        <ele>1401</ele>
        <time>2021-10-09T11:48:33Z</time>
      </trkpt>
      <trkpt lat="45.00858" lon="5.48782">
        <ele>1401</ele>
        <time>2021-10-09T11:48:34Z</time>
      </trkpt>
      <trkpt lat="45.00861" lon="5.4878">
        <ele>1401</ele>
        <time>2021-10-09T11:48:35Z</time>
      </trkpt>
      <trkpt lat="45.00863" lon="5.4878">
        <ele>1401.4</ele>
        <time>2021-10-09T11:48:36Z</time>
      </trkpt>
      <trkpt lat="45.00866" lon="5.48779">
        <ele>1401.4</ele>
        <time>2021-10-09T11:48:37Z</time>
      </trkpt>
      <trkpt lat="45.00868" lon="5.48777">
        <ele>1401.4</ele>
        <time>2021-10-09T11:48:38Z</time>
      </trkpt>
      <trkpt lat="45.0087" lon="5.48776">
        <ele>1401.2</ele>
        <time>2021-10-09T11:48:39Z</time>
      </trkpt>
      <trkpt lat="45.00872" lon="5.48775">
        <ele>1401.6</ele>
        <time>2021-10-09T11:48:40Z</time>
      </trkpt>
      <trkpt lat="45.00876" lon="5.48773">
        <ele>1401.6</ele>
        <time>2021-10-09T11:48:41Z</time>
      </trkpt>
      <trkpt lat="45.00879" lon="5.48771">
        <ele>1401.6</ele>
        <time>2021-10-09T11:48:42Z</time>
      </trkpt>
      <trkpt lat="45.00881" lon="5.48769">
        <ele>1401.6</ele>
        <time>2021-10-09T11:48:43Z</time>
      </trkpt>
      <trkpt lat="45.00884" lon="5.48767">
        <ele>1401.8</ele>
        <time>2021-10-09T11:48:44Z</time>
      </trkpt>
      <trkpt lat="45.00886" lon="5.48766">
        <ele>1401.8</ele>
        <time>2021-10-09T11:48:45Z</time>
      </trkpt>
      <trkpt lat="45.00888" lon="5.48765">
        <ele>1401.8</ele>
        <time>2021-10-09T11:48:46Z</time>
      </trkpt>
      <trkpt lat="45.00891" lon="5.48763">
        <ele>1401.4</ele>
        <time>2021-10-09T11:48:47Z</time>
      </trkpt>
      <trkpt lat="45.00893" lon="5.48761">
        <ele>1401.6</ele>
        <time>2021-10-09T11:48:48Z</time>
      </trkpt>
      <trkpt lat="45.00896" lon="5.4876">
        <ele>1401.6</ele>
        <time>2021-10-09T11:48:49Z</time>
      </trkpt>
      <trkpt lat="45.00898" lon="5.48758">
        <ele>1401.6</ele>
        <time>2021-10-09T11:48:50Z</time>
      </trkpt>
      <trkpt lat="45.009" lon="5.48756">
        <ele>1401.6</ele>
        <time>2021-10-09T11:48:51Z</time>
      </trkpt>
      <trkpt lat="45.00903" lon="5.48755">
        <ele>1401.2</ele>
        <time>2021-10-09T11:48:52Z</time>
      </trkpt>
      <trkpt lat="45.00906" lon="5.48754">
        <ele>1401.2</ele>
        <time>2021-10-09T11:48:53Z</time>
      </trkpt>
      <trkpt lat="45.00909" lon="5.48753">
        <ele>1401.2</ele>
        <time>2021-10-09T11:48:54Z</time>
      </trkpt>
      <trkpt lat="45.00912" lon="5.48752">
        <ele>1401.2</ele>
        <time>2021-10-09T11:48:55Z</time>
      </trkpt>
      <trkpt lat="45.00916" lon="5.48752">
        <ele>1401</ele>
        <time>2021-10-09T11:48:56Z</time>
      </trkpt>
      <trkpt lat="45.0092" lon="5.48753">
        <ele>1401</ele>
        <time>2021-10-09T11:48:57Z</time>
      </trkpt>
      <trkpt lat="45.00924" lon="5.48755">
        <ele>1401</ele>
        <time>2021-10-09T11:48:58Z</time>
      </trkpt>
      <trkpt lat="45.00927" lon="5.48757">
        <ele>1400</ele>
        <time>2021-10-09T11:48:59Z</time>
      </trkpt>
      <trkpt lat="45.00932" lon="5.48758">
        <ele>1396.4</ele>
        <time>2021-10-09T11:49:00Z</time>
      </trkpt>
      <trkpt lat="45.00938" lon="5.4876">
        <ele>1396.4</ele>
        <time>2021-10-09T11:49:01Z</time>
      </trkpt>
      <trkpt lat="45.00943" lon="5.48761">
        <ele>1396.4</ele>
        <time>2021-10-09T11:49:02Z</time>
      </trkpt>
      <trkpt lat="45.00949" lon="5.48764">
        <ele>1395.4</ele>
        <time>2021-10-09T11:49:03Z</time>
      </trkpt>
      <trkpt lat="45.00955" lon="5.48765">
        <ele>1396.4</ele>
        <time>2021-10-09T11:49:04Z</time>
      </trkpt>
      <trkpt lat="45.00961" lon="5.48768">
        <ele>1396.4</ele>
        <time>2021-10-09T11:49:05Z</time>
      </trkpt>
      <trkpt lat="45.00965" lon="5.4877">
        <ele>1396.4</ele>
        <time>2021-10-09T11:49:06Z</time>
      </trkpt>
      <trkpt lat="45.00969" lon="5.48772">
        <ele>1396.4</ele>
        <time>2021-10-09T11:49:07Z</time>
      </trkpt>
      <trkpt lat="45.00973" lon="5.48775">
        <ele>1398.6</ele>
        <time>2021-10-09T11:49:08Z</time>
      </trkpt>
      <trkpt lat="45.00977" lon="5.48777">
        <ele>1398.6</ele>
        <time>2021-10-09T11:49:09Z</time>
      </trkpt>
      <trkpt lat="45.0098" lon="5.48778">
        <ele>1398.6</ele>
        <time>2021-10-09T11:49:10Z</time>
      </trkpt>
      <trkpt lat="45.00984" lon="5.4878">
        <ele>1398.6</ele>
        <time>2021-10-09T11:49:11Z</time>
      </trkpt>
      <trkpt lat="45.00987" lon="5.48783">
        <ele>1398.4</ele>
        <time>2021-10-09T11:49:12Z</time>
      </trkpt>
      <trkpt lat="45.00989" lon="5.48785">
        <ele>1398.4</ele>
        <time>2021-10-09T11:49:13Z</time>
      </trkpt>
      <trkpt lat="45.00992" lon="5.48787">
        <ele>1398.4</ele>
        <time>2021-10-09T11:49:14Z</time>
      </trkpt>
      <trkpt lat="45.00994" lon="5.48789">
        <ele>1399.4</ele>
        <time>2021-10-09T11:49:15Z</time>
      </trkpt>
      <trkpt lat="45.00996" lon="5.48792">
        <ele>1400</ele>
        <time>2021-10-09T11:49:16Z</time>
      </trkpt>
      <trkpt lat="45.00999" lon="5.48794">
        <ele>1400</ele>
        <time>2021-10-09T11:49:17Z</time>
      </trkpt>
      <trkpt lat="45.01001" lon="5.48797">
        <ele>1400</ele>
        <time>2021-10-09T11:49:18Z</time>
      </trkpt>
      <trkpt lat="45.01003" lon="5.488">
        <ele>1400</ele>
        <time>2021-10-09T11:49:19Z</time>
      </trkpt>
      <trkpt lat="45.01004" lon="5.48803">
        <ele>1399.4</ele>
        <time>2021-10-09T11:49:20Z</time>
      </trkpt>
      <trkpt lat="45.01006" lon="5.48807">
        <ele>1399.4</ele>
        <time>2021-10-09T11:49:21Z</time>
      </trkpt>
      <trkpt lat="45.01008" lon="5.48811">
        <ele>1399.4</ele>
        <time>2021-10-09T11:49:22Z</time>
      </trkpt>
      <trkpt lat="45.01009" lon="5.48814">
        <ele>1399.6</ele>
        <time>2021-10-09T11:49:23Z</time>
      </trkpt>
      <trkpt lat="45.01011" lon="5.48818">
        <ele>1399.8</ele>
        <time>2021-10-09T11:49:24Z</time>
      </trkpt>
      <trkpt lat="45.01012" lon="5.48822">
        <ele>1399.8</ele>
        <time>2021-10-09T11:49:25Z</time>
      </trkpt>
      <trkpt lat="45.01013" lon="5.48825">
        <ele>1399.8</ele>
        <time>2021-10-09T11:49:26Z</time>
      </trkpt>
      <trkpt lat="45.01013" lon="5.48829">
        <ele>1399.8</ele>
        <time>2021-10-09T11:49:27Z</time>
      </trkpt>
      <trkpt lat="45.01013" lon="5.48832">
        <ele>1400.2</ele>
        <time>2021-10-09T11:49:28Z</time>
      </trkpt>
      <trkpt lat="45.01014" lon="5.48835">
        <ele>1400.2</ele>
        <time>2021-10-09T11:49:29Z</time>
      </trkpt>
      <trkpt lat="45.01015" lon="5.48837">
        <ele>1400.2</ele>
        <time>2021-10-09T11:49:30Z</time>
      </trkpt>
      <trkpt lat="45.01016" lon="5.48839">
        <ele>1400.8</ele>
        <time>2021-10-09T11:49:31Z</time>
      </trkpt>
      <trkpt lat="45.01016" lon="5.48841">
        <ele>1401</ele>
        <time>2021-10-09T11:49:32Z</time>
      </trkpt>
      <trkpt lat="45.01016" lon="5.48843">
        <ele>1401</ele>
        <time>2021-10-09T11:49:33Z</time>
      </trkpt>
      <trkpt lat="45.01016" lon="5.48845">
        <ele>1401</ele>
        <time>2021-10-09T11:49:34Z</time>
      </trkpt>
      <trkpt lat="45.01015" lon="5.48848">
        <ele>1401</ele>
        <time>2021-10-09T11:49:35Z</time>
      </trkpt>
      <trkpt lat="45.01014" lon="5.48851">
        <ele>1400.8</ele>
        <time>2021-10-09T11:49:36Z</time>
      </trkpt>
      <trkpt lat="45.01014" lon="5.48854">
        <ele>1400.8</ele>
        <time>2021-10-09T11:49:37Z</time>
      </trkpt>
      <trkpt lat="45.01014" lon="5.48858">
        <ele>1400.8</ele>
        <time>2021-10-09T11:49:38Z</time>
      </trkpt>
      <trkpt lat="45.01015" lon="5.4886">
        <ele>1400.8</ele>
        <time>2021-10-09T11:49:39Z</time>
      </trkpt>
      <trkpt lat="45.01017" lon="5.48863">
        <ele>1401.2</ele>
        <time>2021-10-09T11:49:40Z</time>
      </trkpt>
      <trkpt lat="45.01018" lon="5.48866">
        <ele>1401.2</ele>
        <time>2021-10-09T11:49:41Z</time>
      </trkpt>
      <trkpt lat="45.01018" lon="5.48869">
        <ele>1401.2</ele>
        <time>2021-10-09T11:49:42Z</time>
      </trkpt>
      <trkpt lat="45.01017" lon="5.48873">
        <ele>1401.8</ele>
        <time>2021-10-09T11:49:43Z</time>
      </trkpt>
      <trkpt lat="45.01017" lon="5.48877">
        <ele>1402</ele>
        <time>2021-10-09T11:49:44Z</time>
      </trkpt>
      <trkpt lat="45.01018" lon="5.4888">
        <ele>1402</ele>
        <time>2021-10-09T11:49:45Z</time>
      </trkpt>
      <trkpt lat="45.0102" lon="5.48882">
        <ele>1402</ele>
        <time>2021-10-09T11:49:46Z</time>
      </trkpt>
      <trkpt lat="45.01021" lon="5.48885">
        <ele>1402.4</ele>
        <time>2021-10-09T11:49:47Z</time>
      </trkpt>
      <trkpt lat="45.0102" lon="5.48889">
        <ele>1401.8</ele>
        <time>2021-10-09T11:49:48Z</time>
      </trkpt>
      <trkpt lat="45.01021" lon="5.48893">
        <ele>1401.8</ele>
        <time>2021-10-09T11:49:49Z</time>
      </trkpt>
      <trkpt lat="45.01021" lon="5.48896">
        <ele>1401.8</ele>
        <time>2021-10-09T11:49:50Z</time>
      </trkpt>
      <trkpt lat="45.01023" lon="5.48899">
        <ele>1402.6</ele>
        <time>2021-10-09T11:49:51Z</time>
      </trkpt>
      <trkpt lat="45.01025" lon="5.48902">
        <ele>1402.2</ele>
        <time>2021-10-09T11:49:52Z</time>
      </trkpt>
      <trkpt lat="45.01026" lon="5.48907">
        <ele>1402.2</ele>
        <time>2021-10-09T11:49:53Z</time>
      </trkpt>
      <trkpt lat="45.01026" lon="5.48911">
        <ele>1402.2</ele>
        <time>2021-10-09T11:49:54Z</time>
      </trkpt>
      <trkpt lat="45.01026" lon="5.48915">
        <ele>1403</ele>
        <time>2021-10-09T11:49:55Z</time>
      </trkpt>
      <trkpt lat="45.01025" lon="5.48919">
        <ele>1402.8</ele>
        <time>2021-10-09T11:49:56Z</time>
      </trkpt>
      <trkpt lat="45.01025" lon="5.48923">
        <ele>1402.8</ele>
        <time>2021-10-09T11:49:57Z</time>
      </trkpt>
      <trkpt lat="45.01026" lon="5.48928">
        <ele>1402.8</ele>
        <time>2021-10-09T11:49:58Z</time>
      </trkpt>
      <trkpt lat="45.01026" lon="5.48932">
        <ele>1403.4</ele>
        <time>2021-10-09T11:49:59Z</time>
      </trkpt>
      <trkpt lat="45.01026" lon="5.48935">
        <ele>1403.2</ele>
        <time>2021-10-09T11:50:00Z</time>
      </trkpt>
      <trkpt lat="45.01024" lon="5.48939">
        <ele>1403.2</ele>
        <time>2021-10-09T11:50:01Z</time>
      </trkpt>
      <trkpt lat="45.01024" lon="5.48943">
        <ele>1403.2</ele>
        <time>2021-10-09T11:50:02Z</time>
      </trkpt>
      <trkpt lat="45.01023" lon="5.48947">
        <ele>1403.2</ele>
        <time>2021-10-09T11:50:03Z</time>
      </trkpt>
      <trkpt lat="45.01022" lon="5.48951">
        <ele>1403.2</ele>
        <time>2021-10-09T11:50:04Z</time>
      </trkpt>
      <trkpt lat="45.01022" lon="5.48955">
        <ele>1403.2</ele>
        <time>2021-10-09T11:50:05Z</time>
      </trkpt>
      <trkpt lat="45.01022" lon="5.48961">
        <ele>1403.2</ele>
        <time>2021-10-09T11:50:06Z</time>
      </trkpt>
      <trkpt lat="45.01024" lon="5.48966">
        <ele>1403.2</ele>
        <time>2021-10-09T11:50:07Z</time>
      </trkpt>
      <trkpt lat="45.01025" lon="5.4897">
        <ele>1403.6</ele>
        <time>2021-10-09T11:50:08Z</time>
      </trkpt>
      <trkpt lat="45.01026" lon="5.48974">
        <ele>1403.6</ele>
        <time>2021-10-09T11:50:09Z</time>
      </trkpt>
      <trkpt lat="45.01026" lon="5.48979">
        <ele>1403.6</ele>
        <time>2021-10-09T11:50:10Z</time>
      </trkpt>
      <trkpt lat="45.01027" lon="5.48983">
        <ele>1404.2</ele>
        <time>2021-10-09T11:50:11Z</time>
      </trkpt>
      <trkpt lat="45.01028" lon="5.48987">
        <ele>1404.8</ele>
        <time>2021-10-09T11:50:12Z</time>
      </trkpt>
      <trkpt lat="45.01029" lon="5.48991">
        <ele>1404.8</ele>
        <time>2021-10-09T11:50:13Z</time>
      </trkpt>
      <trkpt lat="45.0103" lon="5.48994">
        <ele>1404.8</ele>
        <time>2021-10-09T11:50:14Z</time>
      </trkpt>
      <trkpt lat="45.01032" lon="5.48996">
        <ele>1404.8</ele>
        <time>2021-10-09T11:50:15Z</time>
      </trkpt>
      <trkpt lat="45.01033" lon="5.48997">
        <ele>1405.6</ele>
        <time>2021-10-09T11:50:16Z</time>
      </trkpt>
      <trkpt lat="45.01035" lon="5.48998">
        <ele>1405.6</ele>
        <time>2021-10-09T11:50:17Z</time>
      </trkpt>
      <trkpt lat="45.01036" lon="5.48998">
        <ele>1405.6</ele>
        <time>2021-10-09T11:50:18Z</time>
      </trkpt>
      <trkpt lat="45.01037" lon="5.48998">
        <ele>1405.6</ele>
        <time>2021-10-09T11:50:19Z</time>
      </trkpt>
      <trkpt lat="45.01038" lon="5.48999">
        <ele>1406.2</ele>
        <time>2021-10-09T11:50:20Z</time>
      </trkpt>
      <trkpt lat="45.01039" lon="5.48999">
        <ele>1406.2</ele>
        <time>2021-10-09T11:50:21Z</time>
      </trkpt>
      <trkpt lat="45.0104" lon="5.48999">
        <ele>1406.2</ele>
        <time>2021-10-09T11:50:22Z</time>
      </trkpt>
      <trkpt lat="45.01042" lon="5.48998">
        <ele>1406.6</ele>
        <time>2021-10-09T11:50:23Z</time>
      </trkpt>
      <trkpt lat="45.01043" lon="5.48998">
        <ele>1406.6</ele>
        <time>2021-10-09T11:50:24Z</time>
      </trkpt>
      <trkpt lat="45.01045" lon="5.48998">
        <ele>1406.6</ele>
        <time>2021-10-09T11:50:25Z</time>
      </trkpt>
      <trkpt lat="45.01046" lon="5.48998">
        <ele>1406.6</ele>
        <time>2021-10-09T11:50:26Z</time>
      </trkpt>
      <trkpt lat="45.01048" lon="5.48998">
        <ele>1407.6</ele>
        <time>2021-10-09T11:50:27Z</time>
      </trkpt>
      <trkpt lat="45.01049" lon="5.48998">
        <ele>1408</ele>
        <time>2021-10-09T11:50:28Z</time>
      </trkpt>
      <trkpt lat="45.0105" lon="5.48999">
        <ele>1408</ele>
        <time>2021-10-09T11:50:29Z</time>
      </trkpt>
      <trkpt lat="45.01052" lon="5.49">
        <ele>1408</ele>
        <time>2021-10-09T11:50:30Z</time>
      </trkpt>
      <trkpt lat="45.01054" lon="5.49">
        <ele>1408.8</ele>
        <time>2021-10-09T11:50:31Z</time>
      </trkpt>
      <trkpt lat="45.01055" lon="5.49001">
        <ele>1408.8</ele>
        <time>2021-10-09T11:50:32Z</time>
      </trkpt>
      <trkpt lat="45.01057" lon="5.49001">
        <ele>1408.8</ele>
        <time>2021-10-09T11:50:33Z</time>
      </trkpt>
      <trkpt lat="45.01058" lon="5.49002">
        <ele>1408.8</ele>
        <time>2021-10-09T11:50:34Z</time>
      </trkpt>
      <trkpt lat="45.01059" lon="5.49003">
        <ele>1408.8</ele>
        <time>2021-10-09T11:50:35Z</time>
      </trkpt>
      <trkpt lat="45.0106" lon="5.49004">
        <ele>1409.2</ele>
        <time>2021-10-09T11:50:36Z</time>
      </trkpt>
      <trkpt lat="45.01063" lon="5.49003">
        <ele>1409.2</ele>
        <time>2021-10-09T11:50:37Z</time>
      </trkpt>
      <trkpt lat="45.01064" lon="5.49004">
        <ele>1409.2</ele>
        <time>2021-10-09T11:50:38Z</time>
      </trkpt>
      <trkpt lat="45.01065" lon="5.49005">
        <ele>1409.6</ele>
        <time>2021-10-09T11:50:39Z</time>
      </trkpt>
      <trkpt lat="45.01067" lon="5.49006">
        <ele>1410</ele>
        <time>2021-10-09T11:50:40Z</time>
      </trkpt>
      <trkpt lat="45.01068" lon="5.49007">
        <ele>1410</ele>
        <time>2021-10-09T11:50:41Z</time>
      </trkpt>
      <trkpt lat="45.01069" lon="5.49008">
        <ele>1410</ele>
        <time>2021-10-09T11:50:42Z</time>
      </trkpt>
      <trkpt lat="45.01069" lon="5.49009">
        <ele>1410.4</ele>
        <time>2021-10-09T11:50:43Z</time>
      </trkpt>
      <trkpt lat="45.01071" lon="5.4901">
        <ele>1410.2</ele>
        <time>2021-10-09T11:50:44Z</time>
      </trkpt>
      <trkpt lat="45.01072" lon="5.49011">
        <ele>1410.2</ele>
        <time>2021-10-09T11:50:45Z</time>
      </trkpt>
      <trkpt lat="45.01072" lon="5.49013">
        <ele>1410.2</ele>
        <time>2021-10-09T11:50:46Z</time>
      </trkpt>
      <trkpt lat="45.01073" lon="5.49014">
        <ele>1410.6</ele>
        <time>2021-10-09T11:50:47Z</time>
      </trkpt>
      <trkpt lat="45.01074" lon="5.49016">
        <ele>1411</ele>
        <time>2021-10-09T11:50:48Z</time>
      </trkpt>
      <trkpt lat="45.01074" lon="5.49019">
        <ele>1411</ele>
        <time>2021-10-09T11:50:49Z</time>
      </trkpt>
      <trkpt lat="45.01076" lon="5.49021">
        <ele>1411</ele>
        <time>2021-10-09T11:50:50Z</time>
      </trkpt>
      <trkpt lat="45.01077" lon="5.49023">
        <ele>1410.8</ele>
        <time>2021-10-09T11:50:51Z</time>
      </trkpt>
      <trkpt lat="45.01078" lon="5.49025">
        <ele>1411</ele>
        <time>2021-10-09T11:50:52Z</time>
      </trkpt>
      <trkpt lat="45.01079" lon="5.49027">
        <ele>1411</ele>
        <time>2021-10-09T11:50:53Z</time>
      </trkpt>
      <trkpt lat="45.0108" lon="5.4903">
        <ele>1411</ele>
        <time>2021-10-09T11:50:54Z</time>
      </trkpt>
      <trkpt lat="45.01081" lon="5.49032">
        <ele>1411</ele>
        <time>2021-10-09T11:50:55Z</time>
      </trkpt>
      <trkpt lat="45.01081" lon="5.49035">
        <ele>1411.2</ele>
        <time>2021-10-09T11:50:56Z</time>
      </trkpt>
      <trkpt lat="45.01083" lon="5.49038">
        <ele>1411.2</ele>
        <time>2021-10-09T11:50:57Z</time>
      </trkpt>
      <trkpt lat="45.01083" lon="5.49041">
        <ele>1411.2</ele>
        <time>2021-10-09T11:50:58Z</time>
      </trkpt>
      <trkpt lat="45.01084" lon="5.49044">
        <ele>1411.2</ele>
        <time>2021-10-09T11:50:59Z</time>
      </trkpt>
      <trkpt lat="45.01084" lon="5.49047">
        <ele>1410.8</ele>
        <time>2021-10-09T11:51:00Z</time>
      </trkpt>
      <trkpt lat="45.01085" lon="5.4905">
        <ele>1410.8</ele>
        <time>2021-10-09T11:51:01Z</time>
      </trkpt>
      <trkpt lat="45.01087" lon="5.49053">
        <ele>1410.8</ele>
        <time>2021-10-09T11:51:02Z</time>
      </trkpt>
      <trkpt lat="45.01087" lon="5.49057">
        <ele>1411.2</ele>
        <time>2021-10-09T11:51:03Z</time>
      </trkpt>
      <trkpt lat="45.01089" lon="5.4906">
        <ele>1410.8</ele>
        <time>2021-10-09T11:51:04Z</time>
      </trkpt>
      <trkpt lat="45.0109" lon="5.49063">
        <ele>1410.8</ele>
        <time>2021-10-09T11:51:05Z</time>
      </trkpt>
      <trkpt lat="45.0109" lon="5.49066">
        <ele>1410.8</ele>
        <time>2021-10-09T11:51:06Z</time>
      </trkpt>
      <trkpt lat="45.01091" lon="5.49069">
        <ele>1410.8</ele>
        <time>2021-10-09T11:51:07Z</time>
      </trkpt>
      <trkpt lat="45.01093" lon="5.49071">
        <ele>1411</ele>
        <time>2021-10-09T11:51:08Z</time>
      </trkpt>
      <trkpt lat="45.01094" lon="5.49074">
        <ele>1411</ele>
        <time>2021-10-09T11:51:09Z</time>
      </trkpt>
      <trkpt lat="45.01094" lon="5.49076">
        <ele>1411</ele>
        <time>2021-10-09T11:51:10Z</time>
      </trkpt>
      <trkpt lat="45.01095" lon="5.49078">
        <ele>1410.8</ele>
        <time>2021-10-09T11:51:11Z</time>
      </trkpt>
      <trkpt lat="45.01096" lon="5.4908">
        <ele>1410.8</ele>
        <time>2021-10-09T11:51:12Z</time>
      </trkpt>
      <trkpt lat="45.01097" lon="5.49083">
        <ele>1410.8</ele>
        <time>2021-10-09T11:51:13Z</time>
      </trkpt>
      <trkpt lat="45.01097" lon="5.49086">
        <ele>1410.8</ele>
        <time>2021-10-09T11:51:14Z</time>
      </trkpt>
      <trkpt lat="45.01098" lon="5.49089">
        <ele>1409.8</ele>
        <time>2021-10-09T11:51:15Z</time>
      </trkpt>
      <trkpt lat="45.01099" lon="5.49094">
        <ele>1409.6</ele>
        <time>2021-10-09T11:51:16Z</time>
      </trkpt>
      <trkpt lat="45.01101" lon="5.49098">
        <ele>1409.6</ele>
        <time>2021-10-09T11:51:17Z</time>
      </trkpt>
      <trkpt lat="45.01102" lon="5.49103">
        <ele>1409.6</ele>
        <time>2021-10-09T11:51:18Z</time>
      </trkpt>
      <trkpt lat="45.01101" lon="5.49108">
        <ele>1408.6</ele>
        <time>2021-10-09T11:51:19Z</time>
      </trkpt>
      <trkpt lat="45.011" lon="5.49112">
        <ele>1407.8</ele>
        <time>2021-10-09T11:51:20Z</time>
      </trkpt>
      <trkpt lat="45.01099" lon="5.49116">
        <ele>1407.8</ele>
        <time>2021-10-09T11:51:21Z</time>
      </trkpt>
      <trkpt lat="45.01096" lon="5.49119">
        <ele>1407.8</ele>
        <time>2021-10-09T11:51:22Z</time>
      </trkpt>
      <trkpt lat="45.01093" lon="5.49122">
        <ele>1407.8</ele>
        <time>2021-10-09T11:51:23Z</time>
      </trkpt>
      <trkpt lat="45.0109" lon="5.49124">
        <ele>1405.8</ele>
        <time>2021-10-09T11:51:24Z</time>
      </trkpt>
      <trkpt lat="45.01088" lon="5.49126">
        <ele>1405.8</ele>
        <time>2021-10-09T11:51:25Z</time>
      </trkpt>
      <trkpt lat="45.01085" lon="5.49128">
        <ele>1405.8</ele>
        <time>2021-10-09T11:51:26Z</time>
      </trkpt>
      <trkpt lat="45.01082" lon="5.4913">
        <ele>1404.8</ele>
        <time>2021-10-09T11:51:27Z</time>
      </trkpt>
      <trkpt lat="45.01078" lon="5.49133">
        <ele>1403.6</ele>
        <time>2021-10-09T11:51:28Z</time>
      </trkpt>
      <trkpt lat="45.01074" lon="5.49136">
        <ele>1403.6</ele>
        <time>2021-10-09T11:51:29Z</time>
      </trkpt>
      <trkpt lat="45.01072" lon="5.4914">
        <ele>1403.6</ele>
        <time>2021-10-09T11:51:30Z</time>
      </trkpt>
      <trkpt lat="45.01069" lon="5.49144">
        <ele>1402.6</ele>
        <time>2021-10-09T11:51:31Z</time>
      </trkpt>
      <trkpt lat="45.01065" lon="5.49148">
        <ele>1402.2</ele>
        <time>2021-10-09T11:51:32Z</time>
      </trkpt>
      <trkpt lat="45.01061" lon="5.49154">
        <ele>1402.2</ele>
        <time>2021-10-09T11:51:33Z</time>
      </trkpt>
      <trkpt lat="45.01057" lon="5.4916">
        <ele>1402.2</ele>
        <time>2021-10-09T11:51:34Z</time>
      </trkpt>
      <trkpt lat="45.01053" lon="5.49165">
        <ele>1401.2</ele>
        <time>2021-10-09T11:51:35Z</time>
      </trkpt>
      <trkpt lat="45.01049" lon="5.49173">
        <ele>1399</ele>
        <time>2021-10-09T11:51:36Z</time>
      </trkpt>
      <trkpt lat="45.01045" lon="5.4918">
        <ele>1399</ele>
        <time>2021-10-09T11:51:37Z</time>
      </trkpt>
      <trkpt lat="45.01043" lon="5.49188">
        <ele>1399</ele>
        <time>2021-10-09T11:51:38Z</time>
      </trkpt>
      <trkpt lat="45.0104" lon="5.49195">
        <ele>1398</ele>
        <time>2021-10-09T11:51:39Z</time>
      </trkpt>
      <trkpt lat="45.01037" lon="5.49202">
        <ele>1397.6</ele>
        <time>2021-10-09T11:51:40Z</time>
      </trkpt>
      <trkpt lat="45.01035" lon="5.49208">
        <ele>1397.6</ele>
        <time>2021-10-09T11:51:41Z</time>
      </trkpt>
      <trkpt lat="45.01033" lon="5.49215">
        <ele>1397.6</ele>
        <time>2021-10-09T11:51:42Z</time>
      </trkpt>
      <trkpt lat="45.01032" lon="5.49222">
        <ele>1396.6</ele>
        <time>2021-10-09T11:51:43Z</time>
      </trkpt>
      <trkpt lat="45.0103" lon="5.49227">
        <ele>1394.2</ele>
        <time>2021-10-09T11:51:44Z</time>
      </trkpt>
      <trkpt lat="45.01028" lon="5.49233">
        <ele>1394.2</ele>
        <time>2021-10-09T11:51:45Z</time>
      </trkpt>
      <trkpt lat="45.01026" lon="5.49238">
        <ele>1394.2</ele>
        <time>2021-10-09T11:51:46Z</time>
      </trkpt>
      <trkpt lat="45.01024" lon="5.49243">
        <ele>1394.2</ele>
        <time>2021-10-09T11:51:47Z</time>
      </trkpt>
      <trkpt lat="45.01021" lon="5.49247">
        <ele>1392.4</ele>
        <time>2021-10-09T11:51:48Z</time>
      </trkpt>
      <trkpt lat="45.01018" lon="5.49251">
        <ele>1392.4</ele>
        <time>2021-10-09T11:51:49Z</time>
      </trkpt>
      <trkpt lat="45.01014" lon="5.49254">
        <ele>1392.4</ele>
        <time>2021-10-09T11:51:50Z</time>
      </trkpt>
      <trkpt lat="45.0101" lon="5.49257">
        <ele>1391.4</ele>
        <time>2021-10-09T11:51:51Z</time>
      </trkpt>
      <trkpt lat="45.01005" lon="5.4926">
        <ele>1391.2</ele>
        <time>2021-10-09T11:51:52Z</time>
      </trkpt>
      <trkpt lat="45.01" lon="5.49263">
        <ele>1391.2</ele>
        <time>2021-10-09T11:51:53Z</time>
      </trkpt>
      <trkpt lat="45.00996" lon="5.49265">
        <ele>1391.2</ele>
        <time>2021-10-09T11:51:54Z</time>
      </trkpt>
      <trkpt lat="45.00992" lon="5.49267">
        <ele>1390.2</ele>
        <time>2021-10-09T11:51:55Z</time>
      </trkpt>
      <trkpt lat="45.00988" lon="5.49269">
        <ele>1389.2</ele>
        <time>2021-10-09T11:51:56Z</time>
      </trkpt>
      <trkpt lat="45.00984" lon="5.49271">
        <ele>1389.2</ele>
        <time>2021-10-09T11:51:57Z</time>
      </trkpt>
      <trkpt lat="45.00981" lon="5.49273">
        <ele>1389.2</ele>
        <time>2021-10-09T11:51:58Z</time>
      </trkpt>
      <trkpt lat="45.00976" lon="5.49274">
        <ele>1388.2</ele>
        <time>2021-10-09T11:51:59Z</time>
      </trkpt>
      <trkpt lat="45.00972" lon="5.49275">
        <ele>1386.2</ele>
        <time>2021-10-09T11:52:00Z</time>
      </trkpt>
      <trkpt lat="45.00967" lon="5.49276">
        <ele>1386.2</ele>
        <time>2021-10-09T11:52:01Z</time>
      </trkpt>
      <trkpt lat="45.00962" lon="5.49276">
        <ele>1386.2</ele>
        <time>2021-10-09T11:52:02Z</time>
      </trkpt>
      <trkpt lat="45.00957" lon="5.49276">
        <ele>1385.2</ele>
        <time>2021-10-09T11:52:03Z</time>
      </trkpt>
      <trkpt lat="45.00952" lon="5.49275">
        <ele>1382.6</ele>
        <time>2021-10-09T11:52:04Z</time>
      </trkpt>
      <trkpt lat="45.00945" lon="5.49275">
        <ele>1382.6</ele>
        <time>2021-10-09T11:52:05Z</time>
      </trkpt>
      <trkpt lat="45.00939" lon="5.49277">
        <ele>1382.6</ele>
        <time>2021-10-09T11:52:06Z</time>
      </trkpt>
      <trkpt lat="45.00932" lon="5.49279">
        <ele>1381.6</ele>
        <time>2021-10-09T11:52:07Z</time>
      </trkpt>
      <trkpt lat="45.00927" lon="5.49281">
        <ele>1379.8</ele>
        <time>2021-10-09T11:52:08Z</time>
      </trkpt>
      <trkpt lat="45.00921" lon="5.49285">
        <ele>1379.8</ele>
        <time>2021-10-09T11:52:09Z</time>
      </trkpt>
      <trkpt lat="45.00916" lon="5.49288">
        <ele>1379.8</ele>
        <time>2021-10-09T11:52:10Z</time>
      </trkpt>
      <trkpt lat="45.00912" lon="5.49291">
        <ele>1378.8</ele>
        <time>2021-10-09T11:52:11Z</time>
      </trkpt>
      <trkpt lat="45.00908" lon="5.49294">
        <ele>1376</ele>
        <time>2021-10-09T11:52:12Z</time>
      </trkpt>
      <trkpt lat="45.00904" lon="5.49297">
        <ele>1376</ele>
        <time>2021-10-09T11:52:13Z</time>
      </trkpt>
      <trkpt lat="45.009" lon="5.49301">
        <ele>1376</ele>
        <time>2021-10-09T11:52:14Z</time>
      </trkpt>
      <trkpt lat="45.00895" lon="5.49306">
        <ele>1375</ele>
        <time>2021-10-09T11:52:15Z</time>
      </trkpt>
      <trkpt lat="45.0089" lon="5.49314">
        <ele>1371.6</ele>
        <time>2021-10-09T11:52:16Z</time>
      </trkpt>
      <trkpt lat="45.00883" lon="5.49325">
        <ele>1371.6</ele>
        <time>2021-10-09T11:52:17Z</time>
      </trkpt>
      <trkpt lat="45.00876" lon="5.49336">
        <ele>1371.6</ele>
        <time>2021-10-09T11:52:18Z</time>
      </trkpt>
      <trkpt lat="45.00871" lon="5.49346">
        <ele>1371.2</ele>
        <time>2021-10-09T11:52:19Z</time>
      </trkpt>
      <trkpt lat="45.00864" lon="5.49357">
        <ele>1371.4</ele>
        <time>2021-10-09T11:52:20Z</time>
      </trkpt>
      <trkpt lat="45.00858" lon="5.49366">
        <ele>1371.4</ele>
        <time>2021-10-09T11:52:21Z</time>
      </trkpt>
      <trkpt lat="45.00855" lon="5.49376">
        <ele>1371.4</ele>
        <time>2021-10-09T11:52:22Z</time>
      </trkpt>
      <trkpt lat="45.00851" lon="5.49384">
        <ele>1371.4</ele>
        <time>2021-10-09T11:52:23Z</time>
      </trkpt>
      <trkpt lat="45.00847" lon="5.49392">
        <ele>1369.6</ele>
        <time>2021-10-09T11:52:24Z</time>
      </trkpt>
      <trkpt lat="45.00843" lon="5.49401">
        <ele>1369.6</ele>
        <time>2021-10-09T11:52:25Z</time>
      </trkpt>
      <trkpt lat="45.00838" lon="5.4941">
        <ele>1369.6</ele>
        <time>2021-10-09T11:52:26Z</time>
      </trkpt>
      <trkpt lat="45.00834" lon="5.4942">
        <ele>1369.6</ele>
        <time>2021-10-09T11:52:27Z</time>
      </trkpt>
      <trkpt lat="45.00827" lon="5.49428">
        <ele>1370.2</ele>
        <time>2021-10-09T11:52:28Z</time>
      </trkpt>
      <trkpt lat="45.00823" lon="5.49435">
        <ele>1370.2</ele>
        <time>2021-10-09T11:52:29Z</time>
      </trkpt>
      <trkpt lat="45.00817" lon="5.49443">
        <ele>1370.2</ele>
        <time>2021-10-09T11:52:30Z</time>
      </trkpt>
      <trkpt lat="45.00813" lon="5.49449">
        <ele>1370.2</ele>
        <time>2021-10-09T11:52:31Z</time>
      </trkpt>
      <trkpt lat="45.00807" lon="5.49458">
        <ele>1369.4</ele>
        <time>2021-10-09T11:52:32Z</time>
      </trkpt>
      <trkpt lat="45.00802" lon="5.49466">
        <ele>1369.4</ele>
        <time>2021-10-09T11:52:33Z</time>
      </trkpt>
      <trkpt lat="45.00796" lon="5.49473">
        <ele>1369.4</ele>
        <time>2021-10-09T11:52:34Z</time>
      </trkpt>
      <trkpt lat="45.0079" lon="5.4948">
        <ele>1368.6</ele>
        <time>2021-10-09T11:52:35Z</time>
      </trkpt>
      <trkpt lat="45.00784" lon="5.49487">
        <ele>1367.6</ele>
        <time>2021-10-09T11:52:36Z</time>
      </trkpt>
      <trkpt lat="45.00777" lon="5.49493">
        <ele>1367.6</ele>
        <time>2021-10-09T11:52:37Z</time>
      </trkpt>
      <trkpt lat="45.00773" lon="5.49498">
        <ele>1367.6</ele>
        <time>2021-10-09T11:52:38Z</time>
      </trkpt>
      <trkpt lat="45.00767" lon="5.49504">
        <ele>1366.6</ele>
        <time>2021-10-09T11:52:39Z</time>
      </trkpt>
      <trkpt lat="45.00762" lon="5.49508">
        <ele>1365.8</ele>
        <time>2021-10-09T11:52:40Z</time>
      </trkpt>
      <trkpt lat="45.00758" lon="5.49514">
        <ele>1365.8</ele>
        <time>2021-10-09T11:52:41Z</time>
      </trkpt>
      <trkpt lat="45.00757" lon="5.49519">
        <ele>1365.8</ele>
        <time>2021-10-09T11:52:42Z</time>
      </trkpt>
      <trkpt lat="45.00754" lon="5.49528">
        <ele>1365.8</ele>
        <time>2021-10-09T11:52:43Z</time>
      </trkpt>
      <trkpt lat="45.00754" lon="5.49534">
        <ele>1364.8</ele>
        <time>2021-10-09T11:52:44Z</time>
      </trkpt>
      <trkpt lat="45.00757" lon="5.49539">
        <ele>1364.8</ele>
        <time>2021-10-09T11:52:45Z</time>
      </trkpt>
      <trkpt lat="45.0076" lon="5.49544">
        <ele>1364.8</ele>
        <time>2021-10-09T11:52:46Z</time>
      </trkpt>
      <trkpt lat="45.00765" lon="5.49546">
        <ele>1363.8</ele>
        <time>2021-10-09T11:52:47Z</time>
      </trkpt>
      <trkpt lat="45.00769" lon="5.49548">
        <ele>1363</ele>
        <time>2021-10-09T11:52:48Z</time>
      </trkpt>
      <trkpt lat="45.00773" lon="5.49549">
        <ele>1363</ele>
        <time>2021-10-09T11:52:49Z</time>
      </trkpt>
      <trkpt lat="45.00777" lon="5.49551">
        <ele>1363</ele>
        <time>2021-10-09T11:52:50Z</time>
      </trkpt>
      <trkpt lat="45.0078" lon="5.49553">
        <ele>1363</ele>
        <time>2021-10-09T11:52:51Z</time>
      </trkpt>
      <trkpt lat="45.00783" lon="5.49555">
        <ele>1361.8</ele>
        <time>2021-10-09T11:52:52Z</time>
      </trkpt>
      <trkpt lat="45.00788" lon="5.49557">
        <ele>1361.8</ele>
        <time>2021-10-09T11:52:53Z</time>
      </trkpt>
      <trkpt lat="45.00792" lon="5.49561">
        <ele>1361.8</ele>
        <time>2021-10-09T11:52:54Z</time>
      </trkpt>
      <trkpt lat="45.00798" lon="5.49565">
        <ele>1360.8</ele>
        <time>2021-10-09T11:52:55Z</time>
      </trkpt>
      <trkpt lat="45.00803" lon="5.4957">
        <ele>1356.2</ele>
        <time>2021-10-09T11:52:56Z</time>
      </trkpt>
      <trkpt lat="45.00809" lon="5.49577">
        <ele>1356.2</ele>
        <time>2021-10-09T11:52:57Z</time>
      </trkpt>
      <trkpt lat="45.00812" lon="5.49584">
        <ele>1356.2</ele>
        <time>2021-10-09T11:52:58Z</time>
      </trkpt>
      <trkpt lat="45.00815" lon="5.49591">
        <ele>1355.6</ele>
        <time>2021-10-09T11:52:59Z</time>
      </trkpt>
      <trkpt lat="45.00816" lon="5.49599">
        <ele>1353.8</ele>
        <time>2021-10-09T11:53:00Z</time>
      </trkpt>
      <trkpt lat="45.0082" lon="5.49606">
        <ele>1353.8</ele>
        <time>2021-10-09T11:53:01Z</time>
      </trkpt>
      <trkpt lat="45.00824" lon="5.49612">
        <ele>1353.8</ele>
        <time>2021-10-09T11:53:02Z</time>
      </trkpt>
      <trkpt lat="45.00827" lon="5.49619">
        <ele>1354.2</ele>
        <time>2021-10-09T11:53:03Z</time>
      </trkpt>
      <trkpt lat="45.00831" lon="5.49625">
        <ele>1353.2</ele>
        <time>2021-10-09T11:53:04Z</time>
      </trkpt>
      <trkpt lat="45.00834" lon="5.4963">
        <ele>1353.2</ele>
        <time>2021-10-09T11:53:05Z</time>
      </trkpt>
      <trkpt lat="45.00838" lon="5.49633">
        <ele>1353.2</ele>
        <time>2021-10-09T11:53:06Z</time>
      </trkpt>
      <trkpt lat="45.0084" lon="5.49637">
        <ele>1352.6</ele>
        <time>2021-10-09T11:53:07Z</time>
      </trkpt>
      <trkpt lat="45.00844" lon="5.4964">
        <ele>1352.6</ele>
        <time>2021-10-09T11:53:08Z</time>
      </trkpt>
      <trkpt lat="45.00846" lon="5.49645">
        <ele>1352.6</ele>
        <time>2021-10-09T11:53:09Z</time>
      </trkpt>
      <trkpt lat="45.00847" lon="5.4965">
        <ele>1352.6</ele>
        <time>2021-10-09T11:53:10Z</time>
      </trkpt>
      <trkpt lat="45.0085" lon="5.49654">
        <ele>1351.6</ele>
        <time>2021-10-09T11:53:11Z</time>
      </trkpt>
      <trkpt lat="45.00854" lon="5.49658">
        <ele>1350.4</ele>
        <time>2021-10-09T11:53:12Z</time>
      </trkpt>
      <trkpt lat="45.00858" lon="5.49661">
        <ele>1350.4</ele>
        <time>2021-10-09T11:53:13Z</time>
      </trkpt>
      <trkpt lat="45.00863" lon="5.49665">
        <ele>1350.4</ele>
        <time>2021-10-09T11:53:14Z</time>
      </trkpt>
      <trkpt lat="45.00868" lon="5.49667">
        <ele>1349.4</ele>
        <time>2021-10-09T11:53:15Z</time>
      </trkpt>
      <trkpt lat="45.00872" lon="5.4967">
        <ele>1349</ele>
        <time>2021-10-09T11:53:16Z</time>
      </trkpt>
      <trkpt lat="45.00876" lon="5.49672">
        <ele>1349</ele>
        <time>2021-10-09T11:53:17Z</time>
      </trkpt>
      <trkpt lat="45.0088" lon="5.49674">
        <ele>1349</ele>
        <time>2021-10-09T11:53:18Z</time>
      </trkpt>
      <trkpt lat="45.00884" lon="5.49675">
        <ele>1348</ele>
        <time>2021-10-09T11:53:19Z</time>
      </trkpt>
      <trkpt lat="45.00888" lon="5.49676">
        <ele>1346</ele>
        <time>2021-10-09T11:53:20Z</time>
      </trkpt>
      <trkpt lat="45.00892" lon="5.49678">
        <ele>1346</ele>
        <time>2021-10-09T11:53:21Z</time>
      </trkpt>
      <trkpt lat="45.00896" lon="5.49679">
        <ele>1346</ele>
        <time>2021-10-09T11:53:22Z</time>
      </trkpt>
      <trkpt lat="45.009" lon="5.49681">
        <ele>1345</ele>
        <time>2021-10-09T11:53:23Z</time>
      </trkpt>
      <trkpt lat="45.00903" lon="5.49683">
        <ele>1344.8</ele>
        <time>2021-10-09T11:53:24Z</time>
      </trkpt>
      <trkpt lat="45.00906" lon="5.49685">
        <ele>1344.8</ele>
        <time>2021-10-09T11:53:25Z</time>
      </trkpt>
      <trkpt lat="45.00908" lon="5.49687">
        <ele>1344.8</ele>
        <time>2021-10-09T11:53:26Z</time>
      </trkpt>
      <trkpt lat="45.00909" lon="5.4969">
        <ele>1344.4</ele>
        <time>2021-10-09T11:53:27Z</time>
      </trkpt>
      <trkpt lat="45.00909" lon="5.49692">
        <ele>1343.8</ele>
        <time>2021-10-09T11:53:28Z</time>
      </trkpt>
      <trkpt lat="45.0091" lon="5.49694">
        <ele>1343.8</ele>
        <time>2021-10-09T11:53:29Z</time>
      </trkpt>
      <trkpt lat="45.0091" lon="5.49695">
        <ele>1343.8</ele>
        <time>2021-10-09T11:53:30Z</time>
      </trkpt>
      <trkpt lat="45.00911" lon="5.49695">
        <ele>1343.8</ele>
        <time>2021-10-09T11:53:31Z</time>
      </trkpt>
      <trkpt lat="45.00912" lon="5.49695">
        <ele>1343.8</ele>
        <time>2021-10-09T11:53:32Z</time>
      </trkpt>
      <trkpt lat="45.00911" lon="5.49702">
        <ele>1342.8</ele>
        <time>2021-10-09T11:53:41Z</time>
      </trkpt>
      <trkpt lat="45.0091" lon="5.49704">
        <ele>1342.8</ele>
        <time>2021-10-09T11:53:42Z</time>
      </trkpt>
      <trkpt lat="45.00909" lon="5.49707">
        <ele>1341.8</ele>
        <time>2021-10-09T11:53:43Z</time>
      </trkpt>
      <trkpt lat="45.00908" lon="5.49712">
        <ele>1341</ele>
        <time>2021-10-09T11:53:44Z</time>
      </trkpt>
      <trkpt lat="45.00908" lon="5.49717">
        <ele>1341</ele>
        <time>2021-10-09T11:53:45Z</time>
      </trkpt>
      <trkpt lat="45.00907" lon="5.49722">
        <ele>1341</ele>
        <time>2021-10-09T11:53:46Z</time>
      </trkpt>
      <trkpt lat="45.00906" lon="5.49726">
        <ele>1340.4</ele>
        <time>2021-10-09T11:53:47Z</time>
      </trkpt>
      <trkpt lat="45.00905" lon="5.49732">
        <ele>1340.2</ele>
        <time>2021-10-09T11:53:48Z</time>
      </trkpt>
      <trkpt lat="45.00905" lon="5.49737">
        <ele>1340.2</ele>
        <time>2021-10-09T11:53:49Z</time>
      </trkpt>
      <trkpt lat="45.00903" lon="5.49742">
        <ele>1340.2</ele>
        <time>2021-10-09T11:53:50Z</time>
      </trkpt>
      <trkpt lat="45.00902" lon="5.49746">
        <ele>1340.6</ele>
        <time>2021-10-09T11:53:51Z</time>
      </trkpt>
      <trkpt lat="45.009" lon="5.49752">
        <ele>1340.8</ele>
        <time>2021-10-09T11:53:52Z</time>
      </trkpt>
      <trkpt lat="45.00899" lon="5.49757">
        <ele>1340.8</ele>
        <time>2021-10-09T11:53:53Z</time>
      </trkpt>
      <trkpt lat="45.00898" lon="5.49761">
        <ele>1340.8</ele>
        <time>2021-10-09T11:53:54Z</time>
      </trkpt>
      <trkpt lat="45.00897" lon="5.49764">
        <ele>1340.8</ele>
        <time>2021-10-09T11:53:55Z</time>
      </trkpt>
      <trkpt lat="45.00895" lon="5.49768">
        <ele>1342.4</ele>
        <time>2021-10-09T11:53:56Z</time>
      </trkpt>
      <trkpt lat="45.00895" lon="5.49772">
        <ele>1342.4</ele>
        <time>2021-10-09T11:53:57Z</time>
      </trkpt>
      <trkpt lat="45.00893" lon="5.49775">
        <ele>1342.4</ele>
        <time>2021-10-09T11:53:58Z</time>
      </trkpt>
      <trkpt lat="45.00894" lon="5.49779">
        <ele>1342.4</ele>
        <time>2021-10-09T11:53:59Z</time>
      </trkpt>
      <trkpt lat="45.00895" lon="5.49784">
        <ele>1342</ele>
        <time>2021-10-09T11:54:00Z</time>
      </trkpt>
      <trkpt lat="45.00896" lon="5.49789">
        <ele>1342</ele>
        <time>2021-10-09T11:54:01Z</time>
      </trkpt>
      <trkpt lat="45.00901" lon="5.49793">
        <ele>1342</ele>
        <time>2021-10-09T11:54:02Z</time>
      </trkpt>
      <trkpt lat="45.00903" lon="5.49799">
        <ele>1342</ele>
        <time>2021-10-09T11:54:03Z</time>
      </trkpt>
      <trkpt lat="45.00907" lon="5.49803">
        <ele>1340</ele>
        <time>2021-10-09T11:54:04Z</time>
      </trkpt>
      <trkpt lat="45.00911" lon="5.49805">
        <ele>1340</ele>
        <time>2021-10-09T11:54:05Z</time>
      </trkpt>
      <trkpt lat="45.00914" lon="5.49808">
        <ele>1340</ele>
        <time>2021-10-09T11:54:06Z</time>
      </trkpt>
      <trkpt lat="45.00918" lon="5.49809">
        <ele>1339</ele>
        <time>2021-10-09T11:54:07Z</time>
      </trkpt>
      <trkpt lat="45.00921" lon="5.49812">
        <ele>1336.6</ele>
        <time>2021-10-09T11:54:08Z</time>
      </trkpt>
      <trkpt lat="45.00926" lon="5.49816">
        <ele>1336.6</ele>
        <time>2021-10-09T11:54:09Z</time>
      </trkpt>
      <trkpt lat="45.00928" lon="5.49824">
        <ele>1336.6</ele>
        <time>2021-10-09T11:54:10Z</time>
      </trkpt>
      <trkpt lat="45.00929" lon="5.49832">
        <ele>1336.6</ele>
        <time>2021-10-09T11:54:11Z</time>
      </trkpt>
      <trkpt lat="45.00929" lon="5.49841">
        <ele>1334.4</ele>
        <time>2021-10-09T11:54:12Z</time>
      </trkpt>
      <trkpt lat="45.00929" lon="5.4985">
        <ele>1334.4</ele>
        <time>2021-10-09T11:54:13Z</time>
      </trkpt>
      <trkpt lat="45.00928" lon="5.49859">
        <ele>1334.4</ele>
        <time>2021-10-09T11:54:14Z</time>
      </trkpt>
      <trkpt lat="45.00928" lon="5.49868">
        <ele>1333.4</ele>
        <time>2021-10-09T11:54:15Z</time>
      </trkpt>
      <trkpt lat="45.00929" lon="5.49878">
        <ele>1333.2</ele>
        <time>2021-10-09T11:54:16Z</time>
      </trkpt>
      <trkpt lat="45.00927" lon="5.49886">
        <ele>1333.2</ele>
        <time>2021-10-09T11:54:17Z</time>
      </trkpt>
      <trkpt lat="45.00927" lon="5.49894">
        <ele>1333.2</ele>
        <time>2021-10-09T11:54:18Z</time>
      </trkpt>
      <trkpt lat="45.00929" lon="5.49902">
        <ele>1332.2</ele>
        <time>2021-10-09T11:54:19Z</time>
      </trkpt>
      <trkpt lat="45.0093" lon="5.4991">
        <ele>1327.8</ele>
        <time>2021-10-09T11:54:20Z</time>
      </trkpt>
      <trkpt lat="45.00932" lon="5.49916">
        <ele>1327.8</ele>
        <time>2021-10-09T11:54:21Z</time>
      </trkpt>
      <trkpt lat="45.00934" lon="5.49922">
        <ele>1327.8</ele>
        <time>2021-10-09T11:54:22Z</time>
      </trkpt>
      <trkpt lat="45.00933" lon="5.4993">
        <ele>1326.8</ele>
        <time>2021-10-09T11:54:23Z</time>
      </trkpt>
      <trkpt lat="45.00933" lon="5.49936">
        <ele>1325</ele>
        <time>2021-10-09T11:54:24Z</time>
      </trkpt>
      <trkpt lat="45.00931" lon="5.49943">
        <ele>1325</ele>
        <time>2021-10-09T11:54:25Z</time>
      </trkpt>
      <trkpt lat="45.00931" lon="5.4995">
        <ele>1325</ele>
        <time>2021-10-09T11:54:26Z</time>
      </trkpt>
      <trkpt lat="45.00928" lon="5.49958">
        <ele>1324</ele>
        <time>2021-10-09T11:54:27Z</time>
      </trkpt>
      <trkpt lat="45.00926" lon="5.49968">
        <ele>1317.8</ele>
        <time>2021-10-09T11:54:28Z</time>
      </trkpt>
      <trkpt lat="45.00924" lon="5.49979">
        <ele>1317.8</ele>
        <time>2021-10-09T11:54:29Z</time>
      </trkpt>
      <trkpt lat="45.00919" lon="5.49988">
        <ele>1317.8</ele>
        <time>2021-10-09T11:54:30Z</time>
      </trkpt>
      <trkpt lat="45.00917" lon="5.49998">
        <ele>1316.8</ele>
        <time>2021-10-09T11:54:31Z</time>
      </trkpt>
      <trkpt lat="45.00914" lon="5.50006">
        <ele>1310.8</ele>
        <time>2021-10-09T11:54:32Z</time>
      </trkpt>
      <trkpt lat="45.00911" lon="5.50017">
        <ele>1310.8</ele>
        <time>2021-10-09T11:54:33Z</time>
      </trkpt>
      <trkpt lat="45.00909" lon="5.50029">
        <ele>1310.8</ele>
        <time>2021-10-09T11:54:34Z</time>
      </trkpt>
      <trkpt lat="45.00907" lon="5.50043">
        <ele>1309.8</ele>
        <time>2021-10-09T11:54:35Z</time>
      </trkpt>
      <trkpt lat="45.00907" lon="5.50055">
        <ele>1307.4</ele>
        <time>2021-10-09T11:54:36Z</time>
      </trkpt>
      <trkpt lat="45.00907" lon="5.50065">
        <ele>1307.4</ele>
        <time>2021-10-09T11:54:37Z</time>
      </trkpt>
      <trkpt lat="45.00904" lon="5.50075">
        <ele>1307.4</ele>
        <time>2021-10-09T11:54:38Z</time>
      </trkpt>
      <trkpt lat="45.009" lon="5.50083">
        <ele>1307.4</ele>
        <time>2021-10-09T11:54:39Z</time>
      </trkpt>
      <trkpt lat="45.00897" lon="5.50089">
        <ele>1306.8</ele>
        <time>2021-10-09T11:54:40Z</time>
      </trkpt>
      <trkpt lat="45.00891" lon="5.50096">
        <ele>1306.8</ele>
        <time>2021-10-09T11:54:41Z</time>
      </trkpt>
      <trkpt lat="45.00889" lon="5.501">
        <ele>1306.8</ele>
        <time>2021-10-09T11:54:42Z</time>
      </trkpt>
      <trkpt lat="45.00886" lon="5.50104">
        <ele>1305.8</ele>
        <time>2021-10-09T11:54:43Z</time>
      </trkpt>
      <trkpt lat="45.00884" lon="5.5011">
        <ele>1304.6</ele>
        <time>2021-10-09T11:54:44Z</time>
      </trkpt>
      <trkpt lat="45.00881" lon="5.50119">
        <ele>1304.6</ele>
        <time>2021-10-09T11:54:45Z</time>
      </trkpt>
      <trkpt lat="45.00877" lon="5.50131">
        <ele>1304.6</ele>
        <time>2021-10-09T11:54:46Z</time>
      </trkpt>
      <trkpt lat="45.00873" lon="5.50142">
        <ele>1304.6</ele>
        <time>2021-10-09T11:54:47Z</time>
      </trkpt>
      <trkpt lat="45.0087" lon="5.50152">
        <ele>1304.6</ele>
        <time>2021-10-09T11:54:48Z</time>
      </trkpt>
      <trkpt lat="45.0087" lon="5.50161">
        <ele>1300</ele>
        <time>2021-10-09T11:54:49Z</time>
      </trkpt>
      <trkpt lat="45.00869" lon="5.5017">
        <ele>1300</ele>
        <time>2021-10-09T11:54:50Z</time>
      </trkpt>
      <trkpt lat="45.00871" lon="5.50179">
        <ele>1299</ele>
        <time>2021-10-09T11:54:51Z</time>
      </trkpt>
      <trkpt lat="45.00871" lon="5.50187">
        <ele>1295.6</ele>
        <time>2021-10-09T11:54:52Z</time>
      </trkpt>
      <trkpt lat="45.00872" lon="5.50196">
        <ele>1295.6</ele>
        <time>2021-10-09T11:54:53Z</time>
      </trkpt>
      <trkpt lat="45.00874" lon="5.50204">
        <ele>1295.6</ele>
        <time>2021-10-09T11:54:54Z</time>
      </trkpt>
      <trkpt lat="45.00876" lon="5.50215">
        <ele>1294.6</ele>
        <time>2021-10-09T11:54:55Z</time>
      </trkpt>
      <trkpt lat="45.00879" lon="5.50224">
        <ele>1291.8</ele>
        <time>2021-10-09T11:54:56Z</time>
      </trkpt>
      <trkpt lat="45.0088" lon="5.50234">
        <ele>1291.8</ele>
        <time>2021-10-09T11:54:57Z</time>
      </trkpt>
      <trkpt lat="45.00881" lon="5.50242">
        <ele>1291.8</ele>
        <time>2021-10-09T11:54:58Z</time>
      </trkpt>
      <trkpt lat="45.00883" lon="5.50248">
        <ele>1291.8</ele>
        <time>2021-10-09T11:54:59Z</time>
      </trkpt>
      <trkpt lat="45.00885" lon="5.50254">
        <ele>1289.6</ele>
        <time>2021-10-09T11:55:00Z</time>
      </trkpt>
      <trkpt lat="45.00886" lon="5.50258">
        <ele>1289.6</ele>
        <time>2021-10-09T11:55:01Z</time>
      </trkpt>
      <trkpt lat="45.00889" lon="5.50263">
        <ele>1289.6</ele>
        <time>2021-10-09T11:55:02Z</time>
      </trkpt>
      <trkpt lat="45.00893" lon="5.50268">
        <ele>1288.6</ele>
        <time>2021-10-09T11:55:03Z</time>
      </trkpt>
      <trkpt lat="45.00897" lon="5.50274">
        <ele>1286.4</ele>
        <time>2021-10-09T11:55:04Z</time>
      </trkpt>
      <trkpt lat="45.009" lon="5.5028">
        <ele>1286.4</ele>
        <time>2021-10-09T11:55:05Z</time>
      </trkpt>
      <trkpt lat="45.00904" lon="5.50286">
        <ele>1286.4</ele>
        <time>2021-10-09T11:55:06Z</time>
      </trkpt>
      <trkpt lat="45.00907" lon="5.50291">
        <ele>1285.4</ele>
        <time>2021-10-09T11:55:07Z</time>
      </trkpt>
      <trkpt lat="45.00911" lon="5.50297">
        <ele>1284.8</ele>
        <time>2021-10-09T11:55:08Z</time>
      </trkpt>
      <trkpt lat="45.00914" lon="5.503">
        <ele>1284.8</ele>
        <time>2021-10-09T11:55:09Z</time>
      </trkpt>
      <trkpt lat="45.0092" lon="5.50302">
        <ele>1284.8</ele>
        <time>2021-10-09T11:55:10Z</time>
      </trkpt>
      <trkpt lat="45.00926" lon="5.50303">
        <ele>1283.8</ele>
        <time>2021-10-09T11:55:11Z</time>
      </trkpt>
      <trkpt lat="45.00931" lon="5.50305">
        <ele>1280</ele>
        <time>2021-10-09T11:55:12Z</time>
      </trkpt>
      <trkpt lat="45.00937" lon="5.50307">
        <ele>1280</ele>
        <time>2021-10-09T11:55:13Z</time>
      </trkpt>
      <trkpt lat="45.00945" lon="5.5031">
        <ele>1280</ele>
        <time>2021-10-09T11:55:14Z</time>
      </trkpt>
      <trkpt lat="45.00954" lon="5.50314">
        <ele>1279</ele>
        <time>2021-10-09T11:55:15Z</time>
      </trkpt>
      <trkpt lat="45.00961" lon="5.50323">
        <ele>1276</ele>
        <time>2021-10-09T11:55:16Z</time>
      </trkpt>
      <trkpt lat="45.00967" lon="5.5033">
        <ele>1276</ele>
        <time>2021-10-09T11:55:17Z</time>
      </trkpt>
      <trkpt lat="45.00974" lon="5.50338">
        <ele>1276</ele>
        <time>2021-10-09T11:55:18Z</time>
      </trkpt>
      <trkpt lat="45.00981" lon="5.50346">
        <ele>1275.4</ele>
        <time>2021-10-09T11:55:19Z</time>
      </trkpt>
      <trkpt lat="45.00988" lon="5.50353">
        <ele>1275.8</ele>
        <time>2021-10-09T11:55:20Z</time>
      </trkpt>
      <trkpt lat="45.00993" lon="5.50358">
        <ele>1275.8</ele>
        <time>2021-10-09T11:55:21Z</time>
      </trkpt>
      <trkpt lat="45.00999" lon="5.50361">
        <ele>1275.8</ele>
        <time>2021-10-09T11:55:22Z</time>
      </trkpt>
      <trkpt lat="45.01005" lon="5.50363">
        <ele>1276.8</ele>
        <time>2021-10-09T11:55:23Z</time>
      </trkpt>
      <trkpt lat="45.01011" lon="5.50366">
        <ele>1276</ele>
        <time>2021-10-09T11:55:24Z</time>
      </trkpt>
      <trkpt lat="45.01017" lon="5.50368">
        <ele>1276</ele>
        <time>2021-10-09T11:55:25Z</time>
      </trkpt>
      <trkpt lat="45.01023" lon="5.50369">
        <ele>1276</ele>
        <time>2021-10-09T11:55:26Z</time>
      </trkpt>
      <trkpt lat="45.01029" lon="5.50371">
        <ele>1276.4</ele>
        <time>2021-10-09T11:55:27Z</time>
      </trkpt>
      <trkpt lat="45.01038" lon="5.5037">
        <ele>1276.4</ele>
        <time>2021-10-09T11:55:28Z</time>
      </trkpt>
      <trkpt lat="45.01044" lon="5.50375">
        <ele>1276.4</ele>
        <time>2021-10-09T11:55:29Z</time>
      </trkpt>
      <trkpt lat="45.0105" lon="5.50379">
        <ele>1276.4</ele>
        <time>2021-10-09T11:55:30Z</time>
      </trkpt>
      <trkpt lat="45.01056" lon="5.50381">
        <ele>1275.4</ele>
        <time>2021-10-09T11:55:31Z</time>
      </trkpt>
      <trkpt lat="45.01063" lon="5.50384">
        <ele>1274.6</ele>
        <time>2021-10-09T11:55:32Z</time>
      </trkpt>
      <trkpt lat="45.01069" lon="5.50388">
        <ele>1274.6</ele>
        <time>2021-10-09T11:55:33Z</time>
      </trkpt>
      <trkpt lat="45.01075" lon="5.50392">
        <ele>1274.6</ele>
        <time>2021-10-09T11:55:34Z</time>
      </trkpt>
      <trkpt lat="45.01082" lon="5.50396">
        <ele>1274.6</ele>
        <time>2021-10-09T11:55:35Z</time>
      </trkpt>
      <trkpt lat="45.01088" lon="5.50399">
        <ele>1274.8</ele>
        <time>2021-10-09T11:55:36Z</time>
      </trkpt>
      <trkpt lat="45.01095" lon="5.50402">
        <ele>1274.8</ele>
        <time>2021-10-09T11:55:37Z</time>
      </trkpt>
      <trkpt lat="45.01102" lon="5.50404">
        <ele>1274.8</ele>
        <time>2021-10-09T11:55:38Z</time>
      </trkpt>
      <trkpt lat="45.01109" lon="5.50407">
        <ele>1273.8</ele>
        <time>2021-10-09T11:55:39Z</time>
      </trkpt>
      <trkpt lat="45.01115" lon="5.50409">
        <ele>1272</ele>
        <time>2021-10-09T11:55:40Z</time>
      </trkpt>
      <trkpt lat="45.01121" lon="5.50413">
        <ele>1272</ele>
        <time>2021-10-09T11:55:41Z</time>
      </trkpt>
      <trkpt lat="45.01129" lon="5.50419">
        <ele>1272</ele>
        <time>2021-10-09T11:55:42Z</time>
      </trkpt>
      <trkpt lat="45.01136" lon="5.50424">
        <ele>1271</ele>
        <time>2021-10-09T11:55:43Z</time>
      </trkpt>
      <trkpt lat="45.01144" lon="5.50429">
        <ele>1264.4</ele>
        <time>2021-10-09T11:55:44Z</time>
      </trkpt>
      <trkpt lat="45.01153" lon="5.50435">
        <ele>1264.4</ele>
        <time>2021-10-09T11:55:45Z</time>
      </trkpt>
      <trkpt lat="45.01161" lon="5.5044">
        <ele>1264.4</ele>
        <time>2021-10-09T11:55:46Z</time>
      </trkpt>
      <trkpt lat="45.01169" lon="5.50445">
        <ele>1263.4</ele>
        <time>2021-10-09T11:55:47Z</time>
      </trkpt>
      <trkpt lat="45.01178" lon="5.5045">
        <ele>1258.2</ele>
        <time>2021-10-09T11:55:48Z</time>
      </trkpt>
      <trkpt lat="45.01186" lon="5.50456">
        <ele>1258.2</ele>
        <time>2021-10-09T11:55:49Z</time>
      </trkpt>
      <trkpt lat="45.01194" lon="5.50462">
        <ele>1258.2</ele>
        <time>2021-10-09T11:55:50Z</time>
      </trkpt>
      <trkpt lat="45.01203" lon="5.50469">
        <ele>1257.2</ele>
        <time>2021-10-09T11:55:51Z</time>
      </trkpt>
      <trkpt lat="45.01212" lon="5.50475">
        <ele>1249.8</ele>
        <time>2021-10-09T11:55:52Z</time>
      </trkpt>
      <trkpt lat="45.01221" lon="5.50482">
        <ele>1249.8</ele>
        <time>2021-10-09T11:55:53Z</time>
      </trkpt>
      <trkpt lat="45.0123" lon="5.50488">
        <ele>1249.8</ele>
        <time>2021-10-09T11:55:54Z</time>
      </trkpt>
      <trkpt lat="45.0124" lon="5.50495">
        <ele>1248.8</ele>
        <time>2021-10-09T11:55:55Z</time>
      </trkpt>
      <trkpt lat="45.0125" lon="5.505">
        <ele>1246.4</ele>
        <time>2021-10-09T11:55:56Z</time>
      </trkpt>
      <trkpt lat="45.01259" lon="5.50504">
        <ele>1246.4</ele>
        <time>2021-10-09T11:55:57Z</time>
      </trkpt>
      <trkpt lat="45.01268" lon="5.50509">
        <ele>1246.4</ele>
        <time>2021-10-09T11:55:58Z</time>
      </trkpt>
      <trkpt lat="45.01275" lon="5.50513">
        <ele>1246.4</ele>
        <time>2021-10-09T11:55:59Z</time>
      </trkpt>
      <trkpt lat="45.01282" lon="5.50516">
        <ele>1245.6</ele>
        <time>2021-10-09T11:56:00Z</time>
      </trkpt>
      <trkpt lat="45.01288" lon="5.5052">
        <ele>1245.6</ele>
        <time>2021-10-09T11:56:01Z</time>
      </trkpt>
      <trkpt lat="45.01294" lon="5.50523">
        <ele>1245.6</ele>
        <time>2021-10-09T11:56:02Z</time>
      </trkpt>
      <trkpt lat="45.01301" lon="5.50526">
        <ele>1244.6</ele>
        <time>2021-10-09T11:56:03Z</time>
      </trkpt>
      <trkpt lat="45.01308" lon="5.5053">
        <ele>1239.8</ele>
        <time>2021-10-09T11:56:04Z</time>
      </trkpt>
      <trkpt lat="45.01314" lon="5.50534">
        <ele>1239.8</ele>
        <time>2021-10-09T11:56:05Z</time>
      </trkpt>
      <trkpt lat="45.01323" lon="5.50539">
        <ele>1239.8</ele>
        <time>2021-10-09T11:56:06Z</time>
      </trkpt>
      <trkpt lat="45.01332" lon="5.50547">
        <ele>1238.8</ele>
        <time>2021-10-09T11:56:07Z</time>
      </trkpt>
      <trkpt lat="45.01339" lon="5.50553">
        <ele>1229.8</ele>
        <time>2021-10-09T11:56:08Z</time>
      </trkpt>
      <trkpt lat="45.01349" lon="5.5056">
        <ele>1229.8</ele>
        <time>2021-10-09T11:56:09Z</time>
      </trkpt>
      <trkpt lat="45.01358" lon="5.50567">
        <ele>1229.8</ele>
        <time>2021-10-09T11:56:10Z</time>
      </trkpt>
      <trkpt lat="45.01366" lon="5.50574">
        <ele>1228.8</ele>
        <time>2021-10-09T11:56:11Z</time>
      </trkpt>
      <trkpt lat="45.01374" lon="5.50581">
        <ele>1228</ele>
        <time>2021-10-09T11:56:12Z</time>
      </trkpt>
      <trkpt lat="45.01382" lon="5.50587">
        <ele>1228</ele>
        <time>2021-10-09T11:56:13Z</time>
      </trkpt>
      <trkpt lat="45.01388" lon="5.50594">
        <ele>1228</ele>
        <time>2021-10-09T11:56:14Z</time>
      </trkpt>
      <trkpt lat="45.01395" lon="5.50601">
        <ele>1227</ele>
        <time>2021-10-09T11:56:15Z</time>
      </trkpt>
      <trkpt lat="45.01402" lon="5.50608">
        <ele>1223.6</ele>
        <time>2021-10-09T11:56:16Z</time>
      </trkpt>
      <trkpt lat="45.0141" lon="5.50615">
        <ele>1223.6</ele>
        <time>2021-10-09T11:56:17Z</time>
      </trkpt>
      <trkpt lat="45.01416" lon="5.50624">
        <ele>1223.6</ele>
        <time>2021-10-09T11:56:18Z</time>
      </trkpt>
      <trkpt lat="45.01424" lon="5.50634">
        <ele>1222.6</ele>
        <time>2021-10-09T11:56:19Z</time>
      </trkpt>
      <trkpt lat="45.01432" lon="5.50644">
        <ele>1220</ele>
        <time>2021-10-09T11:56:20Z</time>
      </trkpt>
      <trkpt lat="45.0144" lon="5.50653">
        <ele>1220</ele>
        <time>2021-10-09T11:56:21Z</time>
      </trkpt>
      <trkpt lat="45.0145" lon="5.50663">
        <ele>1220</ele>
        <time>2021-10-09T11:56:22Z</time>
      </trkpt>
      <trkpt lat="45.01459" lon="5.50672">
        <ele>1219</ele>
        <time>2021-10-09T11:56:23Z</time>
      </trkpt>
      <trkpt lat="45.01469" lon="5.50681">
        <ele>1215.8</ele>
        <time>2021-10-09T11:56:24Z</time>
      </trkpt>
      <trkpt lat="45.01476" lon="5.50689">
        <ele>1215.8</ele>
        <time>2021-10-09T11:56:25Z</time>
      </trkpt>
      <trkpt lat="45.01484" lon="5.50698">
        <ele>1215.8</ele>
        <time>2021-10-09T11:56:26Z</time>
      </trkpt>
      <trkpt lat="45.01491" lon="5.50708">
        <ele>1214.8</ele>
        <time>2021-10-09T11:56:27Z</time>
      </trkpt>
      <trkpt lat="45.01497" lon="5.50718">
        <ele>1212.6</ele>
        <time>2021-10-09T11:56:28Z</time>
      </trkpt>
      <trkpt lat="45.01503" lon="5.50728">
        <ele>1212.6</ele>
        <time>2021-10-09T11:56:29Z</time>
      </trkpt>
      <trkpt lat="45.01508" lon="5.50739">
        <ele>1212.6</ele>
        <time>2021-10-09T11:56:30Z</time>
      </trkpt>
      <trkpt lat="45.01516" lon="5.50746">
        <ele>1211.6</ele>
        <time>2021-10-09T11:56:31Z</time>
      </trkpt>
      <trkpt lat="45.01523" lon="5.50754">
        <ele>1208.6</ele>
        <time>2021-10-09T11:56:32Z</time>
      </trkpt>
      <trkpt lat="45.01529" lon="5.50763">
        <ele>1208.6</ele>
        <time>2021-10-09T11:56:33Z</time>
      </trkpt>
      <trkpt lat="45.01538" lon="5.5077">
        <ele>1208.6</ele>
        <time>2021-10-09T11:56:34Z</time>
      </trkpt>
      <trkpt lat="45.01546" lon="5.50776">
        <ele>1207.6</ele>
        <time>2021-10-09T11:56:35Z</time>
      </trkpt>
      <trkpt lat="45.01555" lon="5.50782">
        <ele>1207.4</ele>
        <time>2021-10-09T11:56:36Z</time>
      </trkpt>
      <trkpt lat="45.01564" lon="5.50788">
        <ele>1207.4</ele>
        <time>2021-10-09T11:56:37Z</time>
      </trkpt>
      <trkpt lat="45.01571" lon="5.50793">
        <ele>1207.4</ele>
        <time>2021-10-09T11:56:38Z</time>
      </trkpt>
      <trkpt lat="45.01579" lon="5.50799">
        <ele>1207.4</ele>
        <time>2021-10-09T11:56:39Z</time>
      </trkpt>
      <trkpt lat="45.01586" lon="5.50804">
        <ele>1207.8</ele>
        <time>2021-10-09T11:56:40Z</time>
      </trkpt>
      <trkpt lat="45.01591" lon="5.50807">
        <ele>1207.8</ele>
        <time>2021-10-09T11:56:41Z</time>
      </trkpt>
      <trkpt lat="45.01596" lon="5.5081">
        <ele>1207.8</ele>
        <time>2021-10-09T11:56:42Z</time>
      </trkpt>
      <trkpt lat="45.01601" lon="5.50812">
        <ele>1207.2</ele>
        <time>2021-10-09T11:56:43Z</time>
      </trkpt>
      <trkpt lat="45.01606" lon="5.50814">
        <ele>1205.8</ele>
        <time>2021-10-09T11:56:44Z</time>
      </trkpt>
      <trkpt lat="45.0161" lon="5.50819">
        <ele>1205.8</ele>
        <time>2021-10-09T11:56:45Z</time>
      </trkpt>
      <trkpt lat="45.01615" lon="5.50825">
        <ele>1205.8</ele>
        <time>2021-10-09T11:56:46Z</time>
      </trkpt>
      <trkpt lat="45.0162" lon="5.50829">
        <ele>1204.8</ele>
        <time>2021-10-09T11:56:47Z</time>
      </trkpt>
      <trkpt lat="45.01624" lon="5.50834">
        <ele>1204.4</ele>
        <time>2021-10-09T11:56:48Z</time>
      </trkpt>
      <trkpt lat="45.01628" lon="5.50838">
        <ele>1204.4</ele>
        <time>2021-10-09T11:56:49Z</time>
      </trkpt>
      <trkpt lat="45.01633" lon="5.50842">
        <ele>1204.4</ele>
        <time>2021-10-09T11:56:50Z</time>
      </trkpt>
      <trkpt lat="45.01638" lon="5.50845">
        <ele>1204.4</ele>
        <time>2021-10-09T11:56:51Z</time>
      </trkpt>
      <trkpt lat="45.01643" lon="5.50849">
        <ele>1203.6</ele>
        <time>2021-10-09T11:56:52Z</time>
      </trkpt>
      <trkpt lat="45.01647" lon="5.50853">
        <ele>1203.6</ele>
        <time>2021-10-09T11:56:53Z</time>
      </trkpt>
      <trkpt lat="45.01651" lon="5.50857">
        <ele>1203.6</ele>
        <time>2021-10-09T11:56:54Z</time>
      </trkpt>
      <trkpt lat="45.01653" lon="5.50861">
        <ele>1204.6</ele>
        <time>2021-10-09T11:56:55Z</time>
      </trkpt>
      <trkpt lat="45.01655" lon="5.50863">
        <ele>1205</ele>
        <time>2021-10-09T11:56:56Z</time>
      </trkpt>
      <trkpt lat="45.01658" lon="5.50865">
        <ele>1205</ele>
        <time>2021-10-09T11:56:57Z</time>
      </trkpt>
      <trkpt lat="45.01661" lon="5.50866">
        <ele>1205</ele>
        <time>2021-10-09T11:56:58Z</time>
      </trkpt>
      <trkpt lat="45.01664" lon="5.50869">
        <ele>1205</ele>
        <time>2021-10-09T11:56:59Z</time>
      </trkpt>
      <trkpt lat="45.01667" lon="5.50872">
        <ele>1204.6</ele>
        <time>2021-10-09T11:57:00Z</time>
      </trkpt>
      <trkpt lat="45.01669" lon="5.50874">
        <ele>1204.6</ele>
        <time>2021-10-09T11:57:01Z</time>
      </trkpt>
      <trkpt lat="45.01671" lon="5.50875">
        <ele>1204.6</ele>
        <time>2021-10-09T11:57:02Z</time>
      </trkpt>
      <trkpt lat="45.01673" lon="5.50876">
        <ele>1204.6</ele>
        <time>2021-10-09T11:57:03Z</time>
      </trkpt>
      <trkpt lat="45.01673" lon="5.50877">
        <ele>1204.8</ele>
        <time>2021-10-09T11:57:04Z</time>
      </trkpt>
      <trkpt lat="45.01692" lon="5.50887">
        <ele>1204.6</ele>
        <time>2021-10-09T11:58:28Z</time>
      </trkpt>
      <trkpt lat="45.01694" lon="5.50888">
        <ele>1204.6</ele>
        <time>2021-10-09T11:58:29Z</time>
      </trkpt>
      <trkpt lat="45.01696" lon="5.50888">
        <ele>1204.6</ele>
        <time>2021-10-09T11:58:30Z</time>
      </trkpt>
      <trkpt lat="45.01697" lon="5.50889">
        <ele>1204.6</ele>
        <time>2021-10-09T11:58:31Z</time>
      </trkpt>
      <trkpt lat="45.01699" lon="5.5089">
        <ele>1204.2</ele>
        <time>2021-10-09T11:58:32Z</time>
      </trkpt>
      <trkpt lat="45.01701" lon="5.50891">
        <ele>1204.2</ele>
        <time>2021-10-09T11:58:33Z</time>
      </trkpt>
      <trkpt lat="45.01704" lon="5.50891">
        <ele>1204.2</ele>
        <time>2021-10-09T11:58:34Z</time>
      </trkpt>
      <trkpt lat="45.01706" lon="5.50891">
        <ele>1204</ele>
        <time>2021-10-09T11:58:35Z</time>
      </trkpt>
      <trkpt lat="45.01708" lon="5.50893">
        <ele>1204.2</ele>
        <time>2021-10-09T11:58:36Z</time>
      </trkpt>
      <trkpt lat="45.0171" lon="5.50895">
        <ele>1204.2</ele>
        <time>2021-10-09T11:58:37Z</time>
      </trkpt>
      <trkpt lat="45.01712" lon="5.50896">
        <ele>1204.2</ele>
        <time>2021-10-09T11:58:38Z</time>
      </trkpt>
      <trkpt lat="45.01714" lon="5.50898">
        <ele>1203.8</ele>
        <time>2021-10-09T11:58:39Z</time>
      </trkpt>
      <trkpt lat="45.01717" lon="5.50899">
        <ele>1203.6</ele>
        <time>2021-10-09T11:58:40Z</time>
      </trkpt>
      <trkpt lat="45.0172" lon="5.50901">
        <ele>1203.6</ele>
        <time>2021-10-09T11:58:41Z</time>
      </trkpt>
      <trkpt lat="45.01721" lon="5.50903">
        <ele>1203.6</ele>
        <time>2021-10-09T11:58:42Z</time>
      </trkpt>
      <trkpt lat="45.01723" lon="5.50906">
        <ele>1202.8</ele>
        <time>2021-10-09T11:58:43Z</time>
      </trkpt>
      <trkpt lat="45.01726" lon="5.50908">
        <ele>1203.4</ele>
        <time>2021-10-09T11:58:44Z</time>
      </trkpt>
      <trkpt lat="45.01728" lon="5.5091">
        <ele>1203.4</ele>
        <time>2021-10-09T11:58:45Z</time>
      </trkpt>
      <trkpt lat="45.0173" lon="5.50913">
        <ele>1203.4</ele>
        <time>2021-10-09T11:58:46Z</time>
      </trkpt>
      <trkpt lat="45.01732" lon="5.50915">
        <ele>1203.2</ele>
        <time>2021-10-09T11:58:47Z</time>
      </trkpt>
      <trkpt lat="45.01733" lon="5.50917">
        <ele>1202.8</ele>
        <time>2021-10-09T11:58:48Z</time>
      </trkpt>
      <trkpt lat="45.01734" lon="5.50919">
        <ele>1202.8</ele>
        <time>2021-10-09T11:58:49Z</time>
      </trkpt>
      <trkpt lat="45.01735" lon="5.50921">
        <ele>1202.8</ele>
        <time>2021-10-09T11:58:50Z</time>
      </trkpt>
      <trkpt lat="45.01737" lon="5.50924">
        <ele>1203.2</ele>
        <time>2021-10-09T11:58:51Z</time>
      </trkpt>
      <trkpt lat="45.01738" lon="5.50926">
        <ele>1203.2</ele>
        <time>2021-10-09T11:58:52Z</time>
      </trkpt>
      <trkpt lat="45.01738" lon="5.50929">
        <ele>1203.2</ele>
        <time>2021-10-09T11:58:53Z</time>
      </trkpt>
      <trkpt lat="45.01739" lon="5.50931">
        <ele>1203.2</ele>
        <time>2021-10-09T11:58:54Z</time>
      </trkpt>
      <trkpt lat="45.01741" lon="5.50933">
        <ele>1202.8</ele>
        <time>2021-10-09T11:58:55Z</time>
      </trkpt>
      <trkpt lat="45.01742" lon="5.50936">
        <ele>1202.4</ele>
        <time>2021-10-09T11:58:56Z</time>
      </trkpt>
      <trkpt lat="45.01742" lon="5.50939">
        <ele>1202.4</ele>
        <time>2021-10-09T11:58:57Z</time>
      </trkpt>
      <trkpt lat="45.01744" lon="5.50941">
        <ele>1202.4</ele>
        <time>2021-10-09T11:58:58Z</time>
      </trkpt>
      <trkpt lat="45.01746" lon="5.50945">
        <ele>1202.4</ele>
        <time>2021-10-09T11:58:59Z</time>
      </trkpt>
      <trkpt lat="45.01747" lon="5.50948">
        <ele>1201.8</ele>
        <time>2021-10-09T11:59:00Z</time>
      </trkpt>
      <trkpt lat="45.01748" lon="5.50951">
        <ele>1201.8</ele>
        <time>2021-10-09T11:59:01Z</time>
      </trkpt>
      <trkpt lat="45.0175" lon="5.50954">
        <ele>1201.8</ele>
        <time>2021-10-09T11:59:02Z</time>
      </trkpt>
      <trkpt lat="45.01752" lon="5.50957">
        <ele>1201.8</ele>
        <time>2021-10-09T11:59:03Z</time>
      </trkpt>
      <trkpt lat="45.01753" lon="5.5096">
        <ele>1200.8</ele>
        <time>2021-10-09T11:59:04Z</time>
      </trkpt>
      <trkpt lat="45.01755" lon="5.50963">
        <ele>1200.8</ele>
        <time>2021-10-09T11:59:05Z</time>
      </trkpt>
      <trkpt lat="45.01756" lon="5.50967">
        <ele>1200.8</ele>
        <time>2021-10-09T11:59:06Z</time>
      </trkpt>
      <trkpt lat="45.01757" lon="5.5097">
        <ele>1199.8</ele>
        <time>2021-10-09T11:59:07Z</time>
      </trkpt>
      <trkpt lat="45.01759" lon="5.50973">
        <ele>1199.2</ele>
        <time>2021-10-09T11:59:08Z</time>
      </trkpt>
      <trkpt lat="45.01759" lon="5.50977">
        <ele>1199.2</ele>
        <time>2021-10-09T11:59:09Z</time>
      </trkpt>
      <trkpt lat="45.01761" lon="5.5098">
        <ele>1199.2</ele>
        <time>2021-10-09T11:59:10Z</time>
      </trkpt>
      <trkpt lat="45.01762" lon="5.50984">
        <ele>1198.2</ele>
        <time>2021-10-09T11:59:11Z</time>
      </trkpt>
      <trkpt lat="45.01764" lon="5.50988">
        <ele>1197.4</ele>
        <time>2021-10-09T11:59:12Z</time>
      </trkpt>
      <trkpt lat="45.01765" lon="5.50993">
        <ele>1197.4</ele>
        <time>2021-10-09T11:59:13Z</time>
      </trkpt>
      <trkpt lat="45.01766" lon="5.50998">
        <ele>1197.4</ele>
        <time>2021-10-09T11:59:14Z</time>
      </trkpt>
      <trkpt lat="45.01767" lon="5.51002">
        <ele>1196.4</ele>
        <time>2021-10-09T11:59:15Z</time>
      </trkpt>
      <trkpt lat="45.01768" lon="5.51007">
        <ele>1195.2</ele>
        <time>2021-10-09T11:59:16Z</time>
      </trkpt>
      <trkpt lat="45.01769" lon="5.51012">
        <ele>1195.2</ele>
        <time>2021-10-09T11:59:17Z</time>
      </trkpt>
      <trkpt lat="45.0177" lon="5.51017">
        <ele>1195.2</ele>
        <time>2021-10-09T11:59:18Z</time>
      </trkpt>
      <trkpt lat="45.01771" lon="5.51022">
        <ele>1194.2</ele>
        <time>2021-10-09T11:59:19Z</time>
      </trkpt>
      <trkpt lat="45.01772" lon="5.51027">
        <ele>1191.6</ele>
        <time>2021-10-09T11:59:20Z</time>
      </trkpt>
      <trkpt lat="45.01774" lon="5.51031">
        <ele>1191.6</ele>
        <time>2021-10-09T11:59:21Z</time>
      </trkpt>
      <trkpt lat="45.01776" lon="5.51036">
        <ele>1191.6</ele>
        <time>2021-10-09T11:59:22Z</time>
      </trkpt>
      <trkpt lat="45.01778" lon="5.51041">
        <ele>1190.6</ele>
        <time>2021-10-09T11:59:23Z</time>
      </trkpt>
      <trkpt lat="45.01781" lon="5.51047">
        <ele>1188</ele>
        <time>2021-10-09T11:59:24Z</time>
      </trkpt>
      <trkpt lat="45.01785" lon="5.51052">
        <ele>1188</ele>
        <time>2021-10-09T11:59:25Z</time>
      </trkpt>
      <trkpt lat="45.0179" lon="5.51058">
        <ele>1188</ele>
        <time>2021-10-09T11:59:26Z</time>
      </trkpt>
      <trkpt lat="45.01794" lon="5.51063">
        <ele>1187</ele>
        <time>2021-10-09T11:59:27Z</time>
      </trkpt>
      <trkpt lat="45.01799" lon="5.51069">
        <ele>1184</ele>
        <time>2021-10-09T11:59:28Z</time>
      </trkpt>
      <trkpt lat="45.01803" lon="5.51075">
        <ele>1184</ele>
        <time>2021-10-09T11:59:29Z</time>
      </trkpt>
      <trkpt lat="45.01808" lon="5.51081">
        <ele>1184</ele>
        <time>2021-10-09T11:59:30Z</time>
      </trkpt>
      <trkpt lat="45.01812" lon="5.51088">
        <ele>1183</ele>
        <time>2021-10-09T11:59:31Z</time>
      </trkpt>
      <trkpt lat="45.01817" lon="5.51093">
        <ele>1181.2</ele>
        <time>2021-10-09T11:59:32Z</time>
      </trkpt>
      <trkpt lat="45.01821" lon="5.51099">
        <ele>1181.2</ele>
        <time>2021-10-09T11:59:33Z</time>
      </trkpt>
      <trkpt lat="45.01825" lon="5.51104">
        <ele>1181.2</ele>
        <time>2021-10-09T11:59:34Z</time>
      </trkpt>
      <trkpt lat="45.01829" lon="5.51108">
        <ele>1180.2</ele>
        <time>2021-10-09T11:59:35Z</time>
      </trkpt>
      <trkpt lat="45.01831" lon="5.51113">
        <ele>1179.2</ele>
        <time>2021-10-09T11:59:36Z</time>
      </trkpt>
      <trkpt lat="45.01833" lon="5.51116">
        <ele>1179.2</ele>
        <time>2021-10-09T11:59:37Z</time>
      </trkpt>
      <trkpt lat="45.01834" lon="5.51118">
        <ele>1179.2</ele>
        <time>2021-10-09T11:59:38Z</time>
      </trkpt>
      <trkpt lat="45.01835" lon="5.51121">
        <ele>1179.2</ele>
        <time>2021-10-09T11:59:39Z</time>
      </trkpt>
      <trkpt lat="45.01837" lon="5.51123">
        <ele>1179</ele>
        <time>2021-10-09T11:59:40Z</time>
      </trkpt>
      <trkpt lat="45.01839" lon="5.51126">
        <ele>1179</ele>
        <time>2021-10-09T11:59:41Z</time>
      </trkpt>
      <trkpt lat="45.01841" lon="5.51127">
        <ele>1179</ele>
        <time>2021-10-09T11:59:42Z</time>
      </trkpt>
      <trkpt lat="45.01843" lon="5.51129">
        <ele>1179</ele>
        <time>2021-10-09T11:59:43Z</time>
      </trkpt>
      <trkpt lat="45.01846" lon="5.51131">
        <ele>1178.4</ele>
        <time>2021-10-09T11:59:44Z</time>
      </trkpt>
      <trkpt lat="45.01848" lon="5.51133">
        <ele>1178.4</ele>
        <time>2021-10-09T11:59:45Z</time>
      </trkpt>
      <trkpt lat="45.01852" lon="5.51135">
        <ele>1178.4</ele>
        <time>2021-10-09T11:59:46Z</time>
      </trkpt>
      <trkpt lat="45.01854" lon="5.51136">
        <ele>1178.4</ele>
        <time>2021-10-09T11:59:47Z</time>
      </trkpt>
      <trkpt lat="45.01855" lon="5.51136">
        <ele>1179.2</ele>
        <time>2021-10-09T11:59:48Z</time>
      </trkpt>
      <trkpt lat="45.01855" lon="5.51136">
        <ele>1179.2</ele>
        <time>2021-10-09T11:59:49Z</time>
      </trkpt>
      <trkpt lat="45.01855" lon="5.51136">
        <ele>1179.2</ele>
        <time>2021-10-09T11:59:50Z</time>
      </trkpt>
      <trkpt lat="45.01853" lon="5.51137">
        <ele>1179</ele>
        <time>2021-10-09T11:59:58Z</time>
      </trkpt>
      <trkpt lat="45.01852" lon="5.51137">
        <ele>1178.8</ele>
        <time>2021-10-09T11:59:59Z</time>
      </trkpt>
      <trkpt lat="45.0185" lon="5.51136">
        <ele>1179</ele>
        <time>2021-10-09T12:00:00Z</time>
      </trkpt>
      <trkpt lat="45.01848" lon="5.51136">
        <ele>1179</ele>
        <time>2021-10-09T12:00:01Z</time>
      </trkpt>
      <trkpt lat="45.01846" lon="5.51137">
        <ele>1179</ele>
        <time>2021-10-09T12:00:02Z</time>
      </trkpt>
      <trkpt lat="45.01845" lon="5.51139">
        <ele>1178.2</ele>
        <time>2021-10-09T12:00:03Z</time>
      </trkpt>
      <trkpt lat="45.01845" lon="5.51143">
        <ele>1177.2</ele>
        <time>2021-10-09T12:00:04Z</time>
      </trkpt>
      <trkpt lat="45.01845" lon="5.51148">
        <ele>1177.2</ele>
        <time>2021-10-09T12:00:05Z</time>
      </trkpt>
      <trkpt lat="45.01846" lon="5.51154">
        <ele>1177.2</ele>
        <time>2021-10-09T12:00:06Z</time>
      </trkpt>
      <trkpt lat="45.01847" lon="5.51161">
        <ele>1177.2</ele>
        <time>2021-10-09T12:00:07Z</time>
      </trkpt>
      <trkpt lat="45.01847" lon="5.51168">
        <ele>1176.2</ele>
        <time>2021-10-09T12:00:08Z</time>
      </trkpt>
      <trkpt lat="45.01847" lon="5.51175">
        <ele>1176.2</ele>
        <time>2021-10-09T12:00:09Z</time>
      </trkpt>
      <trkpt lat="45.01847" lon="5.5118">
        <ele>1176.2</ele>
        <time>2021-10-09T12:00:10Z</time>
      </trkpt>
      <trkpt lat="45.01847" lon="5.51183">
        <ele>1176.2</ele>
        <time>2021-10-09T12:00:11Z</time>
      </trkpt>
      <trkpt lat="45.01847" lon="5.51184">
        <ele>1176.4</ele>
        <time>2021-10-09T12:00:12Z</time>
      </trkpt>
      <trkpt lat="45.01846" lon="5.51183">
        <ele>1176.2</ele>
        <time>2021-10-09T12:00:19Z</time>
      </trkpt>
      <trkpt lat="45.01846" lon="5.51183">
        <ele>1176.4</ele>
        <time>2021-10-09T12:00:20Z</time>
      </trkpt>
      <trkpt lat="45.01845" lon="5.51181">
        <ele>1176.4</ele>
        <time>2021-10-09T12:00:21Z</time>
      </trkpt>
      <trkpt lat="45.01845" lon="5.5118">
        <ele>1176.4</ele>
        <time>2021-10-09T12:00:22Z</time>
      </trkpt>
      <trkpt lat="45.01844" lon="5.51179">
        <ele>1176.6</ele>
        <time>2021-10-09T12:00:23Z</time>
      </trkpt>
      <trkpt lat="45.01844" lon="5.51178">
        <ele>1177</ele>
        <time>2021-10-09T12:00:24Z</time>
      </trkpt>
      <trkpt lat="45.01845" lon="5.51176">
        <ele>1177</ele>
        <time>2021-10-09T12:00:25Z</time>
      </trkpt>
      <trkpt lat="45.01845" lon="5.51174">
        <ele>1177</ele>
        <time>2021-10-09T12:00:26Z</time>
      </trkpt>
      <trkpt lat="45.01845" lon="5.51173">
        <ele>1177.6</ele>
        <time>2021-10-09T12:00:27Z</time>
      </trkpt>
      <trkpt lat="45.01845" lon="5.51171">
        <ele>1177.4</ele>
        <time>2021-10-09T12:00:28Z</time>
      </trkpt>
      <trkpt lat="45.01845" lon="5.51169">
        <ele>1177.4</ele>
        <time>2021-10-09T12:00:29Z</time>
      </trkpt>
      <trkpt lat="45.01845" lon="5.51168">
        <ele>1177.4</ele>
        <time>2021-10-09T12:00:30Z</time>
      </trkpt>
      <trkpt lat="45.01845" lon="5.51166">
        <ele>1177.2</ele>
        <time>2021-10-09T12:00:31Z</time>
      </trkpt>
      <trkpt lat="45.01845" lon="5.51164">
        <ele>1177.6</ele>
        <time>2021-10-09T12:00:32Z</time>
      </trkpt>
      <trkpt lat="45.01845" lon="5.51163">
        <ele>1177.6</ele>
        <time>2021-10-09T12:00:33Z</time>
      </trkpt>
      <trkpt lat="45.01845" lon="5.51162">
        <ele>1177.6</ele>
        <time>2021-10-09T12:00:34Z</time>
      </trkpt>
      <trkpt lat="45.01845" lon="5.5116">
        <ele>1177.6</ele>
        <time>2021-10-09T12:00:35Z</time>
      </trkpt>
      <trkpt lat="45.01845" lon="5.51159">
        <ele>1178</ele>
        <time>2021-10-09T12:00:36Z</time>
      </trkpt>
      <trkpt lat="45.01845" lon="5.51158">
        <ele>1178</ele>
        <time>2021-10-09T12:00:37Z</time>
      </trkpt>
      <trkpt lat="45.01845" lon="5.51157">
        <ele>1178</ele>
        <time>2021-10-09T12:00:38Z</time>
      </trkpt>
      <trkpt lat="45.01845" lon="5.51157">
        <ele>1178</ele>
        <time>2021-10-09T12:00:39Z</time>
      </trkpt>
      <trkpt lat="45.01844" lon="5.51158">
        <ele>1177.6</ele>
        <time>2021-10-09T12:00:40Z</time>
      </trkpt>
      <trkpt lat="45.01845" lon="5.51163">
        <ele>1176.8</ele>
        <time>2021-10-09T12:01:16Z</time>
      </trkpt>
      <trkpt lat="45.01845" lon="5.51166">
        <ele>1176.8</ele>
        <time>2021-10-09T12:01:17Z</time>
      </trkpt>
      <trkpt lat="45.01845" lon="5.51169">
        <ele>1176.8</ele>
        <time>2021-10-09T12:01:18Z</time>
      </trkpt>
      <trkpt lat="45.01846" lon="5.51174">
        <ele>1176.8</ele>
        <time>2021-10-09T12:01:19Z</time>
      </trkpt>
      <trkpt lat="45.01846" lon="5.51178">
        <ele>1175.4</ele>
        <time>2021-10-09T12:01:20Z</time>
      </trkpt>
      <trkpt lat="45.01847" lon="5.51184">
        <ele>1175.4</ele>
        <time>2021-10-09T12:01:21Z</time>
      </trkpt>
      <trkpt lat="45.01848" lon="5.51189">
        <ele>1175.4</ele>
        <time>2021-10-09T12:01:22Z</time>
      </trkpt>
      <trkpt lat="45.0185" lon="5.51196">
        <ele>1174.4</ele>
        <time>2021-10-09T12:01:23Z</time>
      </trkpt>
      <trkpt lat="45.01852" lon="5.51203">
        <ele>1172.6</ele>
        <time>2021-10-09T12:01:24Z</time>
      </trkpt>
      <trkpt lat="45.01856" lon="5.5121">
        <ele>1172.6</ele>
        <time>2021-10-09T12:01:25Z</time>
      </trkpt>
      <trkpt lat="45.0186" lon="5.51216">
        <ele>1172.6</ele>
        <time>2021-10-09T12:01:26Z</time>
      </trkpt>
      <trkpt lat="45.01865" lon="5.51221">
        <ele>1171.8</ele>
        <time>2021-10-09T12:01:27Z</time>
      </trkpt>
      <trkpt lat="45.0187" lon="5.51226">
        <ele>1171.6</ele>
        <time>2021-10-09T12:01:28Z</time>
      </trkpt>
      <trkpt lat="45.01875" lon="5.51231">
        <ele>1171.6</ele>
        <time>2021-10-09T12:01:29Z</time>
      </trkpt>
      <trkpt lat="45.0188" lon="5.51237">
        <ele>1171.6</ele>
        <time>2021-10-09T12:01:30Z</time>
      </trkpt>
      <trkpt lat="45.01886" lon="5.51242">
        <ele>1170.6</ele>
        <time>2021-10-09T12:01:31Z</time>
      </trkpt>
      <trkpt lat="45.01891" lon="5.51248">
        <ele>1170.6</ele>
        <time>2021-10-09T12:01:32Z</time>
      </trkpt>
      <trkpt lat="45.01896" lon="5.51253">
        <ele>1170.6</ele>
        <time>2021-10-09T12:01:33Z</time>
      </trkpt>
      <trkpt lat="45.01901" lon="5.51258">
        <ele>1170.6</ele>
        <time>2021-10-09T12:01:34Z</time>
      </trkpt>
      <trkpt lat="45.01906" lon="5.51263">
        <ele>1170.6</ele>
        <time>2021-10-09T12:01:35Z</time>
      </trkpt>
      <trkpt lat="45.01911" lon="5.51269">
        <ele>1169.8</ele>
        <time>2021-10-09T12:01:36Z</time>
      </trkpt>
      <trkpt lat="45.01917" lon="5.51274">
        <ele>1169.8</ele>
        <time>2021-10-09T12:01:37Z</time>
      </trkpt>
      <trkpt lat="45.01922" lon="5.51279">
        <ele>1169.8</ele>
        <time>2021-10-09T12:01:38Z</time>
      </trkpt>
      <trkpt lat="45.01927" lon="5.51285">
        <ele>1169.8</ele>
        <time>2021-10-09T12:01:39Z</time>
      </trkpt>
      <trkpt lat="45.01932" lon="5.51289">
        <ele>1169.2</ele>
        <time>2021-10-09T12:01:40Z</time>
      </trkpt>
      <trkpt lat="45.01937" lon="5.51294">
        <ele>1169.2</ele>
        <time>2021-10-09T12:01:41Z</time>
      </trkpt>
      <trkpt lat="45.01941" lon="5.513">
        <ele>1169.2</ele>
        <time>2021-10-09T12:01:42Z</time>
      </trkpt>
      <trkpt lat="45.01945" lon="5.51306">
        <ele>1169.2</ele>
        <time>2021-10-09T12:01:43Z</time>
      </trkpt>
      <trkpt lat="45.01947" lon="5.51314">
        <ele>1169.2</ele>
        <time>2021-10-09T12:01:44Z</time>
      </trkpt>
      <trkpt lat="45.01949" lon="5.51321">
        <ele>1169.2</ele>
        <time>2021-10-09T12:01:45Z</time>
      </trkpt>
      <trkpt lat="45.0195" lon="5.51329">
        <ele>1169.2</ele>
        <time>2021-10-09T12:01:46Z</time>
      </trkpt>
      <trkpt lat="45.01951" lon="5.51336">
        <ele>1169.6</ele>
        <time>2021-10-09T12:01:47Z</time>
      </trkpt>
      <trkpt lat="45.01951" lon="5.51344">
        <ele>1169.6</ele>
        <time>2021-10-09T12:01:48Z</time>
      </trkpt>
      <trkpt lat="45.01952" lon="5.51351">
        <ele>1169.6</ele>
        <time>2021-10-09T12:01:49Z</time>
      </trkpt>
      <trkpt lat="45.01953" lon="5.51359">
        <ele>1169.6</ele>
        <time>2021-10-09T12:01:50Z</time>
      </trkpt>
      <trkpt lat="45.01954" lon="5.51365">
        <ele>1169.6</ele>
        <time>2021-10-09T12:01:51Z</time>
      </trkpt>
      <trkpt lat="45.01955" lon="5.51372">
        <ele>1169.4</ele>
        <time>2021-10-09T12:01:52Z</time>
      </trkpt>
      <trkpt lat="45.01957" lon="5.51379">
        <ele>1169.4</ele>
        <time>2021-10-09T12:01:53Z</time>
      </trkpt>
      <trkpt lat="45.01958" lon="5.51386">
        <ele>1169.4</ele>
        <time>2021-10-09T12:01:54Z</time>
      </trkpt>
      <trkpt lat="45.0196" lon="5.51393">
        <ele>1169.4</ele>
        <time>2021-10-09T12:01:55Z</time>
      </trkpt>
      <trkpt lat="45.01962" lon="5.514">
        <ele>1170</ele>
        <time>2021-10-09T12:01:56Z</time>
      </trkpt>
      <trkpt lat="45.01963" lon="5.51407">
        <ele>1170</ele>
        <time>2021-10-09T12:01:57Z</time>
      </trkpt>
      <trkpt lat="45.01965" lon="5.51415">
        <ele>1170</ele>
        <time>2021-10-09T12:01:58Z</time>
      </trkpt>
      <trkpt lat="45.01966" lon="5.51422">
        <ele>1169</ele>
        <time>2021-10-09T12:01:59Z</time>
      </trkpt>
      <trkpt lat="45.01967" lon="5.51429">
        <ele>1168.8</ele>
        <time>2021-10-09T12:02:00Z</time>
      </trkpt>
      <trkpt lat="45.01969" lon="5.51436">
        <ele>1168.8</ele>
        <time>2021-10-09T12:02:01Z</time>
      </trkpt>
      <trkpt lat="45.01971" lon="5.51443">
        <ele>1168.8</ele>
        <time>2021-10-09T12:02:02Z</time>
      </trkpt>
      <trkpt lat="45.01974" lon="5.5145">
        <ele>1167.8</ele>
        <time>2021-10-09T12:02:03Z</time>
      </trkpt>
      <trkpt lat="45.01977" lon="5.51457">
        <ele>1167.8</ele>
        <time>2021-10-09T12:02:04Z</time>
      </trkpt>
      <trkpt lat="45.01979" lon="5.51464">
        <ele>1167.8</ele>
        <time>2021-10-09T12:02:05Z</time>
      </trkpt>
      <trkpt lat="45.01982" lon="5.51471">
        <ele>1167.8</ele>
        <time>2021-10-09T12:02:06Z</time>
      </trkpt>
      <trkpt lat="45.01986" lon="5.51478">
        <ele>1167.8</ele>
        <time>2021-10-09T12:02:07Z</time>
      </trkpt>
      <trkpt lat="45.01989" lon="5.51485">
        <ele>1167.8</ele>
        <time>2021-10-09T12:02:08Z</time>
      </trkpt>
      <trkpt lat="45.01992" lon="5.51491">
        <ele>1167.8</ele>
        <time>2021-10-09T12:02:09Z</time>
      </trkpt>
      <trkpt lat="45.01996" lon="5.51497">
        <ele>1167.8</ele>
        <time>2021-10-09T12:02:10Z</time>
      </trkpt>
      <trkpt lat="45.02" lon="5.51502">
        <ele>1167.8</ele>
        <time>2021-10-09T12:02:11Z</time>
      </trkpt>
      <trkpt lat="45.02004" lon="5.51507">
        <ele>1167.6</ele>
        <time>2021-10-09T12:02:12Z</time>
      </trkpt>
      <trkpt lat="45.02008" lon="5.51512">
        <ele>1167.6</ele>
        <time>2021-10-09T12:02:13Z</time>
      </trkpt>
      <trkpt lat="45.02011" lon="5.51517">
        <ele>1167.6</ele>
        <time>2021-10-09T12:02:14Z</time>
      </trkpt>
      <trkpt lat="45.02015" lon="5.51522">
        <ele>1167.6</ele>
        <time>2021-10-09T12:02:15Z</time>
      </trkpt>
      <trkpt lat="45.02018" lon="5.51527">
        <ele>1167.6</ele>
        <time>2021-10-09T12:02:16Z</time>
      </trkpt>
      <trkpt lat="45.02022" lon="5.51531">
        <ele>1167.6</ele>
        <time>2021-10-09T12:02:17Z</time>
      </trkpt>
      <trkpt lat="45.02026" lon="5.51535">
        <ele>1167.6</ele>
        <time>2021-10-09T12:02:18Z</time>
      </trkpt>
      <trkpt lat="45.02028" lon="5.51538">
        <ele>1167.6</ele>
        <time>2021-10-09T12:02:19Z</time>
      </trkpt>
      <trkpt lat="45.02029" lon="5.51541">
        <ele>1167.4</ele>
        <time>2021-10-09T12:02:20Z</time>
      </trkpt>
      <trkpt lat="45.0203" lon="5.51543">
        <ele>1167.4</ele>
        <time>2021-10-09T12:02:21Z</time>
      </trkpt>
      <trkpt lat="45.02031" lon="5.51545">
        <ele>1167.4</ele>
        <time>2021-10-09T12:02:22Z</time>
      </trkpt>
      <trkpt lat="45.02031" lon="5.51546">
        <ele>1167.8</ele>
        <time>2021-10-09T12:02:23Z</time>
      </trkpt>
      <trkpt lat="45.02032" lon="5.51547">
        <ele>1167.8</ele>
        <time>2021-10-09T12:02:24Z</time>
      </trkpt>
      <trkpt lat="45.02032" lon="5.51547">
        <ele>1167.8</ele>
        <time>2021-10-09T12:02:25Z</time>
      </trkpt>
      <trkpt lat="45.02033" lon="5.51548">
        <ele>1167.8</ele>
        <time>2021-10-09T12:02:26Z</time>
      </trkpt>
      <trkpt lat="45.02034" lon="5.51549">
        <ele>1167.8</ele>
        <time>2021-10-09T12:02:27Z</time>
      </trkpt>
      <trkpt lat="45.02035" lon="5.5155">
        <ele>1167</ele>
        <time>2021-10-09T12:02:28Z</time>
      </trkpt>
      <trkpt lat="45.02038" lon="5.51553">
        <ele>1167</ele>
        <time>2021-10-09T12:02:29Z</time>
      </trkpt>
      <trkpt lat="45.0204" lon="5.51555">
        <ele>1167</ele>
        <time>2021-10-09T12:02:30Z</time>
      </trkpt>
      <trkpt lat="45.02043" lon="5.51558">
        <ele>1166.4</ele>
        <time>2021-10-09T12:02:31Z</time>
      </trkpt>
      <trkpt lat="45.02046" lon="5.51561">
        <ele>1165.4</ele>
        <time>2021-10-09T12:02:32Z</time>
      </trkpt>
      <trkpt lat="45.02049" lon="5.51564">
        <ele>1165.4</ele>
        <time>2021-10-09T12:02:33Z</time>
      </trkpt>
      <trkpt lat="45.02053" lon="5.51566">
        <ele>1165.4</ele>
        <time>2021-10-09T12:02:34Z</time>
      </trkpt>
      <trkpt lat="45.02057" lon="5.51568">
        <ele>1164.4</ele>
        <time>2021-10-09T12:02:35Z</time>
      </trkpt>
      <trkpt lat="45.02061" lon="5.5157">
        <ele>1163.4</ele>
        <time>2021-10-09T12:02:36Z</time>
      </trkpt>
      <trkpt lat="45.02066" lon="5.51573">
        <ele>1163.4</ele>
        <time>2021-10-09T12:02:37Z</time>
      </trkpt>
      <trkpt lat="45.0207" lon="5.51577">
        <ele>1163.4</ele>
        <time>2021-10-09T12:02:38Z</time>
      </trkpt>
      <trkpt lat="45.02074" lon="5.51582">
        <ele>1163.4</ele>
        <time>2021-10-09T12:02:39Z</time>
      </trkpt>
      <trkpt lat="45.02078" lon="5.51587">
        <ele>1162.2</ele>
        <time>2021-10-09T12:02:40Z</time>
      </trkpt>
      <trkpt lat="45.02082" lon="5.51593">
        <ele>1162.2</ele>
        <time>2021-10-09T12:02:41Z</time>
      </trkpt>
      <trkpt lat="45.02084" lon="5.51601">
        <ele>1162.2</ele>
        <time>2021-10-09T12:02:42Z</time>
      </trkpt>
      <trkpt lat="45.02086" lon="5.51608">
        <ele>1162</ele>
        <time>2021-10-09T12:02:43Z</time>
      </trkpt>
      <trkpt lat="45.02087" lon="5.51616">
        <ele>1160.4</ele>
        <time>2021-10-09T12:02:44Z</time>
      </trkpt>
      <trkpt lat="45.02089" lon="5.51624">
        <ele>1160.4</ele>
        <time>2021-10-09T12:02:45Z</time>
      </trkpt>
      <trkpt lat="45.02092" lon="5.51632">
        <ele>1160.4</ele>
        <time>2021-10-09T12:02:46Z</time>
      </trkpt>
      <trkpt lat="45.02095" lon="5.51638">
        <ele>1160.4</ele>
        <time>2021-10-09T12:02:47Z</time>
      </trkpt>
      <trkpt lat="45.02099" lon="5.51643">
        <ele>1160.6</ele>
        <time>2021-10-09T12:02:48Z</time>
      </trkpt>
      <trkpt lat="45.02102" lon="5.51648">
        <ele>1160.6</ele>
        <time>2021-10-09T12:02:49Z</time>
      </trkpt>
      <trkpt lat="45.02106" lon="5.51652">
        <ele>1160.6</ele>
        <time>2021-10-09T12:02:50Z</time>
      </trkpt>
      <trkpt lat="45.0211" lon="5.51657">
        <ele>1159.6</ele>
        <time>2021-10-09T12:02:51Z</time>
      </trkpt>
      <trkpt lat="45.02114" lon="5.51661">
        <ele>1160.6</ele>
        <time>2021-10-09T12:02:52Z</time>
      </trkpt>
      <trkpt lat="45.02118" lon="5.51664">
        <ele>1160.6</ele>
        <time>2021-10-09T12:02:53Z</time>
      </trkpt>
      <trkpt lat="45.02123" lon="5.51666">
        <ele>1160.6</ele>
        <time>2021-10-09T12:02:54Z</time>
      </trkpt>
      <trkpt lat="45.02128" lon="5.51668">
        <ele>1160.6</ele>
        <time>2021-10-09T12:02:55Z</time>
      </trkpt>
      <trkpt lat="45.02133" lon="5.5167">
        <ele>1159.6</ele>
        <time>2021-10-09T12:02:56Z</time>
      </trkpt>
      <trkpt lat="45.02137" lon="5.51672">
        <ele>1159.6</ele>
        <time>2021-10-09T12:02:57Z</time>
      </trkpt>
      <trkpt lat="45.02142" lon="5.51674">
        <ele>1159.6</ele>
        <time>2021-10-09T12:02:58Z</time>
      </trkpt>
      <trkpt lat="45.02147" lon="5.51675">
        <ele>1159.6</ele>
        <time>2021-10-09T12:02:59Z</time>
      </trkpt>
      <trkpt lat="45.02152" lon="5.51676">
        <ele>1158.2</ele>
        <time>2021-10-09T12:03:00Z</time>
      </trkpt>
      <trkpt lat="45.02157" lon="5.51678">
        <ele>1158.2</ele>
        <time>2021-10-09T12:03:01Z</time>
      </trkpt>
      <trkpt lat="45.02162" lon="5.51681">
        <ele>1158.2</ele>
        <time>2021-10-09T12:03:02Z</time>
      </trkpt>
      <trkpt lat="45.02168" lon="5.51683">
        <ele>1158.2</ele>
        <time>2021-10-09T12:03:03Z</time>
      </trkpt>
      <trkpt lat="45.02174" lon="5.51685">
        <ele>1157</ele>
        <time>2021-10-09T12:03:04Z</time>
      </trkpt>
      <trkpt lat="45.0218" lon="5.51688">
        <ele>1157</ele>
        <time>2021-10-09T12:03:05Z</time>
      </trkpt>
      <trkpt lat="45.02185" lon="5.51691">
        <ele>1157</ele>
        <time>2021-10-09T12:03:06Z</time>
      </trkpt>
      <trkpt lat="45.02191" lon="5.51694">
        <ele>1157</ele>
        <time>2021-10-09T12:03:07Z</time>
      </trkpt>
      <trkpt lat="45.02197" lon="5.51697">
        <ele>1157</ele>
        <time>2021-10-09T12:03:08Z</time>
      </trkpt>
      <trkpt lat="45.02202" lon="5.517">
        <ele>1156.2</ele>
        <time>2021-10-09T12:03:09Z</time>
      </trkpt>
      <trkpt lat="45.02208" lon="5.51704">
        <ele>1156.2</ele>
        <time>2021-10-09T12:03:10Z</time>
      </trkpt>
      <trkpt lat="45.02213" lon="5.51708">
        <ele>1156.2</ele>
        <time>2021-10-09T12:03:11Z</time>
      </trkpt>
      <trkpt lat="45.02218" lon="5.51712">
        <ele>1154</ele>
        <time>2021-10-09T12:03:12Z</time>
      </trkpt>
      <trkpt lat="45.02224" lon="5.51715">
        <ele>1154</ele>
        <time>2021-10-09T12:03:13Z</time>
      </trkpt>
      <trkpt lat="45.02229" lon="5.51717">
        <ele>1154</ele>
        <time>2021-10-09T12:03:14Z</time>
      </trkpt>
      <trkpt lat="45.02235" lon="5.51719">
        <ele>1154.2</ele>
        <time>2021-10-09T12:03:15Z</time>
      </trkpt>
      <trkpt lat="45.02241" lon="5.5172">
        <ele>1154.8</ele>
        <time>2021-10-09T12:03:16Z</time>
      </trkpt>
      <trkpt lat="45.02246" lon="5.51721">
        <ele>1154.8</ele>
        <time>2021-10-09T12:03:17Z</time>
      </trkpt>
      <trkpt lat="45.02252" lon="5.5172">
        <ele>1154.8</ele>
        <time>2021-10-09T12:03:18Z</time>
      </trkpt>
      <trkpt lat="45.02257" lon="5.5172">
        <ele>1154.2</ele>
        <time>2021-10-09T12:03:19Z</time>
      </trkpt>
      <trkpt lat="45.02262" lon="5.5172">
        <ele>1153.8</ele>
        <time>2021-10-09T12:03:20Z</time>
      </trkpt>
      <trkpt lat="45.02266" lon="5.51721">
        <ele>1153.8</ele>
        <time>2021-10-09T12:03:21Z</time>
      </trkpt>
      <trkpt lat="45.0227" lon="5.51723">
        <ele>1153.8</ele>
        <time>2021-10-09T12:03:22Z</time>
      </trkpt>
      <trkpt lat="45.02274" lon="5.51724">
        <ele>1153.8</ele>
        <time>2021-10-09T12:03:23Z</time>
      </trkpt>
      <trkpt lat="45.02278" lon="5.51726">
        <ele>1153.2</ele>
        <time>2021-10-09T12:03:24Z</time>
      </trkpt>
      <trkpt lat="45.02282" lon="5.51728">
        <ele>1153.2</ele>
        <time>2021-10-09T12:03:25Z</time>
      </trkpt>
      <trkpt lat="45.02286" lon="5.5173">
        <ele>1153.2</ele>
        <time>2021-10-09T12:03:26Z</time>
      </trkpt>
      <trkpt lat="45.0229" lon="5.51732">
        <ele>1152.6</ele>
        <time>2021-10-09T12:03:27Z</time>
      </trkpt>
      <trkpt lat="45.02294" lon="5.51734">
        <ele>1152.2</ele>
        <time>2021-10-09T12:03:28Z</time>
      </trkpt>
      <trkpt lat="45.02297" lon="5.51736">
        <ele>1152.2</ele>
        <time>2021-10-09T12:03:29Z</time>
      </trkpt>
      <trkpt lat="45.02301" lon="5.51738">
        <ele>1152.2</ele>
        <time>2021-10-09T12:03:30Z</time>
      </trkpt>
      <trkpt lat="45.02305" lon="5.5174">
        <ele>1151.4</ele>
        <time>2021-10-09T12:03:31Z</time>
      </trkpt>
      <trkpt lat="45.02309" lon="5.51741">
        <ele>1150.2</ele>
        <time>2021-10-09T12:03:32Z</time>
      </trkpt>
      <trkpt lat="45.02314" lon="5.51742">
        <ele>1150.2</ele>
        <time>2021-10-09T12:03:33Z</time>
      </trkpt>
      <trkpt lat="45.02318" lon="5.51744">
        <ele>1150.2</ele>
        <time>2021-10-09T12:03:34Z</time>
      </trkpt>
      <trkpt lat="45.02322" lon="5.51746">
        <ele>1150.2</ele>
        <time>2021-10-09T12:03:35Z</time>
      </trkpt>
      <trkpt lat="45.02327" lon="5.51746">
        <ele>1149.4</ele>
        <time>2021-10-09T12:03:36Z</time>
      </trkpt>
      <trkpt lat="45.02331" lon="5.51746">
        <ele>1149.4</ele>
        <time>2021-10-09T12:03:37Z</time>
      </trkpt>
      <trkpt lat="45.02334" lon="5.51746">
        <ele>1149.4</ele>
        <time>2021-10-09T12:03:38Z</time>
      </trkpt>
      <trkpt lat="45.02337" lon="5.51746">
        <ele>1149.4</ele>
        <time>2021-10-09T12:03:39Z</time>
      </trkpt>
      <trkpt lat="45.02339" lon="5.51748">
        <ele>1149.6</ele>
        <time>2021-10-09T12:03:40Z</time>
      </trkpt>
      <trkpt lat="45.02342" lon="5.51749">
        <ele>1149.6</ele>
        <time>2021-10-09T12:03:41Z</time>
      </trkpt>
      <trkpt lat="45.02344" lon="5.51749">
        <ele>1149.6</ele>
        <time>2021-10-09T12:03:42Z</time>
      </trkpt>
      <trkpt lat="45.02347" lon="5.5175">
        <ele>1149.6</ele>
        <time>2021-10-09T12:03:43Z</time>
      </trkpt>
      <trkpt lat="45.02349" lon="5.51751">
        <ele>1148.8</ele>
        <time>2021-10-09T12:03:44Z</time>
      </trkpt>
      <trkpt lat="45.02351" lon="5.51751">
        <ele>1148.8</ele>
        <time>2021-10-09T12:03:45Z</time>
      </trkpt>
      <trkpt lat="45.02353" lon="5.51752">
        <ele>1148.8</ele>
        <time>2021-10-09T12:03:46Z</time>
      </trkpt>
      <trkpt lat="45.02354" lon="5.51752">
        <ele>1149</ele>
        <time>2021-10-09T12:03:47Z</time>
      </trkpt>
      <trkpt lat="45.02356" lon="5.51753">
        <ele>1149.2</ele>
        <time>2021-10-09T12:03:48Z</time>
      </trkpt>
      <trkpt lat="45.02359" lon="5.51753">
        <ele>1149.2</ele>
        <time>2021-10-09T12:03:49Z</time>
      </trkpt>
      <trkpt lat="45.02361" lon="5.51754">
        <ele>1149.2</ele>
        <time>2021-10-09T12:03:50Z</time>
      </trkpt>
      <trkpt lat="45.02364" lon="5.51754">
        <ele>1149.2</ele>
        <time>2021-10-09T12:03:51Z</time>
      </trkpt>
      <trkpt lat="45.02366" lon="5.51754">
        <ele>1148.8</ele>
        <time>2021-10-09T12:03:52Z</time>
      </trkpt>
      <trkpt lat="45.02368" lon="5.51754">
        <ele>1148.8</ele>
        <time>2021-10-09T12:03:53Z</time>
      </trkpt>
      <trkpt lat="45.02371" lon="5.51754">
        <ele>1148.8</ele>
        <time>2021-10-09T12:03:54Z</time>
      </trkpt>
      <trkpt lat="45.02373" lon="5.51754">
        <ele>1148.2</ele>
        <time>2021-10-09T12:03:55Z</time>
      </trkpt>
      <trkpt lat="45.02376" lon="5.51754">
        <ele>1148</ele>
        <time>2021-10-09T12:03:56Z</time>
      </trkpt>
      <trkpt lat="45.02378" lon="5.51754">
        <ele>1148</ele>
        <time>2021-10-09T12:03:57Z</time>
      </trkpt>
      <trkpt lat="45.0238" lon="5.51755">
        <ele>1148</ele>
        <time>2021-10-09T12:03:58Z</time>
      </trkpt>
      <trkpt lat="45.02383" lon="5.51755">
        <ele>1148</ele>
        <time>2021-10-09T12:03:59Z</time>
      </trkpt>
      <trkpt lat="45.02384" lon="5.51755">
        <ele>1148</ele>
        <time>2021-10-09T12:04:00Z</time>
      </trkpt>
      <trkpt lat="45.02386" lon="5.51755">
        <ele>1148</ele>
        <time>2021-10-09T12:04:01Z</time>
      </trkpt>
      <trkpt lat="45.02388" lon="5.51756">
        <ele>1148</ele>
        <time>2021-10-09T12:04:02Z</time>
      </trkpt>
      <trkpt lat="45.0239" lon="5.51756">
        <ele>1147.8</ele>
        <time>2021-10-09T12:04:03Z</time>
      </trkpt>
      <trkpt lat="45.02391" lon="5.51756">
        <ele>1147.2</ele>
        <time>2021-10-09T12:04:04Z</time>
      </trkpt>
      <trkpt lat="45.02394" lon="5.51757">
        <ele>1147.2</ele>
        <time>2021-10-09T12:04:05Z</time>
      </trkpt>
      <trkpt lat="45.02396" lon="5.51757">
        <ele>1147.2</ele>
        <time>2021-10-09T12:04:06Z</time>
      </trkpt>
      <trkpt lat="45.02399" lon="5.51758">
        <ele>1146.2</ele>
        <time>2021-10-09T12:04:07Z</time>
      </trkpt>
      <trkpt lat="45.02402" lon="5.51759">
        <ele>1146.2</ele>
        <time>2021-10-09T12:04:08Z</time>
      </trkpt>
      <trkpt lat="45.02404" lon="5.5176">
        <ele>1146.2</ele>
        <time>2021-10-09T12:04:09Z</time>
      </trkpt>
      <trkpt lat="45.02408" lon="5.51761">
        <ele>1146.2</ele>
        <time>2021-10-09T12:04:10Z</time>
      </trkpt>
      <trkpt lat="45.02411" lon="5.51763">
        <ele>1146.2</ele>
        <time>2021-10-09T12:04:11Z</time>
      </trkpt>
      <trkpt lat="45.02414" lon="5.51764">
        <ele>1145.2</ele>
        <time>2021-10-09T12:04:12Z</time>
      </trkpt>
      <trkpt lat="45.02418" lon="5.51767">
        <ele>1145.2</ele>
        <time>2021-10-09T12:04:13Z</time>
      </trkpt>
      <trkpt lat="45.02421" lon="5.5177">
        <ele>1145.2</ele>
        <time>2021-10-09T12:04:14Z</time>
      </trkpt>
      <trkpt lat="45.02424" lon="5.51772">
        <ele>1145.2</ele>
        <time>2021-10-09T12:04:15Z</time>
      </trkpt>
      <trkpt lat="45.02428" lon="5.51775">
        <ele>1144.8</ele>
        <time>2021-10-09T12:04:16Z</time>
      </trkpt>
      <trkpt lat="45.02432" lon="5.51778">
        <ele>1144.8</ele>
        <time>2021-10-09T12:04:17Z</time>
      </trkpt>
      <trkpt lat="45.02435" lon="5.51782">
        <ele>1144.8</ele>
        <time>2021-10-09T12:04:18Z</time>
      </trkpt>
      <trkpt lat="45.02438" lon="5.51786">
        <ele>1144.8</ele>
        <time>2021-10-09T12:04:19Z</time>
      </trkpt>
      <trkpt lat="45.0244" lon="5.5179">
        <ele>1143.4</ele>
        <time>2021-10-09T12:04:20Z</time>
      </trkpt>
      <trkpt lat="45.02443" lon="5.51793">
        <ele>1143.4</ele>
        <time>2021-10-09T12:04:21Z</time>
      </trkpt>
      <trkpt lat="45.02446" lon="5.51796">
        <ele>1143.4</ele>
        <time>2021-10-09T12:04:22Z</time>
      </trkpt>
      <trkpt lat="45.02448" lon="5.51798">
        <ele>1143.4</ele>
        <time>2021-10-09T12:04:23Z</time>
      </trkpt>
      <trkpt lat="45.02451" lon="5.51799">
        <ele>1143.6</ele>
        <time>2021-10-09T12:04:24Z</time>
      </trkpt>
      <trkpt lat="45.02454" lon="5.518">
        <ele>1143.6</ele>
        <time>2021-10-09T12:04:25Z</time>
      </trkpt>
      <trkpt lat="45.02457" lon="5.51801">
        <ele>1143.6</ele>
        <time>2021-10-09T12:04:26Z</time>
      </trkpt>
      <trkpt lat="45.02461" lon="5.51803">
        <ele>1142.6</ele>
        <time>2021-10-09T12:04:27Z</time>
      </trkpt>
      <trkpt lat="45.02465" lon="5.51805">
        <ele>1141.6</ele>
        <time>2021-10-09T12:04:28Z</time>
      </trkpt>
      <trkpt lat="45.02469" lon="5.51808">
        <ele>1141.6</ele>
        <time>2021-10-09T12:04:29Z</time>
      </trkpt>
      <trkpt lat="45.02473" lon="5.51811">
        <ele>1141.6</ele>
        <time>2021-10-09T12:04:30Z</time>
      </trkpt>
      <trkpt lat="45.02478" lon="5.51815">
        <ele>1140.6</ele>
        <time>2021-10-09T12:04:31Z</time>
      </trkpt>
      <trkpt lat="45.02483" lon="5.51819">
        <ele>1139.2</ele>
        <time>2021-10-09T12:04:32Z</time>
      </trkpt>
      <trkpt lat="45.02488" lon="5.51823">
        <ele>1139.2</ele>
        <time>2021-10-09T12:04:33Z</time>
      </trkpt>
      <trkpt lat="45.02494" lon="5.51828">
        <ele>1139.2</ele>
        <time>2021-10-09T12:04:34Z</time>
      </trkpt>
      <trkpt lat="45.025" lon="5.51833">
        <ele>1138.2</ele>
        <time>2021-10-09T12:04:35Z</time>
      </trkpt>
      <trkpt lat="45.02506" lon="5.51838">
        <ele>1135.8</ele>
        <time>2021-10-09T12:04:36Z</time>
      </trkpt>
      <trkpt lat="45.02513" lon="5.51844">
        <ele>1135.8</ele>
        <time>2021-10-09T12:04:37Z</time>
      </trkpt>
      <trkpt lat="45.02519" lon="5.5185">
        <ele>1135.8</ele>
        <time>2021-10-09T12:04:38Z</time>
      </trkpt>
      <trkpt lat="45.02525" lon="5.51856">
        <ele>1134.8</ele>
        <time>2021-10-09T12:04:39Z</time>
      </trkpt>
      <trkpt lat="45.02532" lon="5.51862">
        <ele>1133.2</ele>
        <time>2021-10-09T12:04:40Z</time>
      </trkpt>
      <trkpt lat="45.02539" lon="5.51869">
        <ele>1133.2</ele>
        <time>2021-10-09T12:04:41Z</time>
      </trkpt>
      <trkpt lat="45.02545" lon="5.51876">
        <ele>1133.2</ele>
        <time>2021-10-09T12:04:42Z</time>
      </trkpt>
      <trkpt lat="45.02552" lon="5.51883">
        <ele>1132.2</ele>
        <time>2021-10-09T12:04:43Z</time>
      </trkpt>
      <trkpt lat="45.02559" lon="5.51891">
        <ele>1130.2</ele>
        <time>2021-10-09T12:04:44Z</time>
      </trkpt>
      <trkpt lat="45.02565" lon="5.519">
        <ele>1130.2</ele>
        <time>2021-10-09T12:04:45Z</time>
      </trkpt>
      <trkpt lat="45.02571" lon="5.51911">
        <ele>1130.2</ele>
        <time>2021-10-09T12:04:46Z</time>
      </trkpt>
      <trkpt lat="45.02577" lon="5.51921">
        <ele>1129.2</ele>
        <time>2021-10-09T12:04:47Z</time>
      </trkpt>
      <trkpt lat="45.02583" lon="5.51932">
        <ele>1125.8</ele>
        <time>2021-10-09T12:04:48Z</time>
      </trkpt>
      <trkpt lat="45.0259" lon="5.51943">
        <ele>1125.8</ele>
        <time>2021-10-09T12:04:49Z</time>
      </trkpt>
      <trkpt lat="45.02596" lon="5.51954">
        <ele>1125.8</ele>
        <time>2021-10-09T12:04:50Z</time>
      </trkpt>
      <trkpt lat="45.02603" lon="5.51966">
        <ele>1124.8</ele>
        <time>2021-10-09T12:04:51Z</time>
      </trkpt>
      <trkpt lat="45.02609" lon="5.51979">
        <ele>1120.2</ele>
        <time>2021-10-09T12:04:52Z</time>
      </trkpt>
      <trkpt lat="45.02614" lon="5.51992">
        <ele>1120.2</ele>
        <time>2021-10-09T12:04:53Z</time>
      </trkpt>
      <trkpt lat="45.02618" lon="5.52006">
        <ele>1120.2</ele>
        <time>2021-10-09T12:04:54Z</time>
      </trkpt>
      <trkpt lat="45.02624" lon="5.52019">
        <ele>1119.2</ele>
        <time>2021-10-09T12:04:55Z</time>
      </trkpt>
      <trkpt lat="45.02629" lon="5.52033">
        <ele>1118</ele>
        <time>2021-10-09T12:04:56Z</time>
      </trkpt>
      <trkpt lat="45.02635" lon="5.52045">
        <ele>1118</ele>
        <time>2021-10-09T12:04:57Z</time>
      </trkpt>
      <trkpt lat="45.02642" lon="5.52056">
        <ele>1118</ele>
        <time>2021-10-09T12:04:58Z</time>
      </trkpt>
      <trkpt lat="45.02651" lon="5.52064">
        <ele>1117.4</ele>
        <time>2021-10-09T12:04:59Z</time>
      </trkpt>
      <trkpt lat="45.0266" lon="5.5207">
        <ele>1117.4</ele>
        <time>2021-10-09T12:05:00Z</time>
      </trkpt>
      <trkpt lat="45.02669" lon="5.52073">
        <ele>1117.4</ele>
        <time>2021-10-09T12:05:01Z</time>
      </trkpt>
      <trkpt lat="45.02679" lon="5.52076">
        <ele>1117.4</ele>
        <time>2021-10-09T12:05:02Z</time>
      </trkpt>
      <trkpt lat="45.02688" lon="5.52079">
        <ele>1116.4</ele>
        <time>2021-10-09T12:05:03Z</time>
      </trkpt>
      <trkpt lat="45.02697" lon="5.52083">
        <ele>1116.6</ele>
        <time>2021-10-09T12:05:04Z</time>
      </trkpt>
      <trkpt lat="45.02706" lon="5.52088">
        <ele>1116.6</ele>
        <time>2021-10-09T12:05:05Z</time>
      </trkpt>
      <trkpt lat="45.02715" lon="5.52094">
        <ele>1116.6</ele>
        <time>2021-10-09T12:05:06Z</time>
      </trkpt>
      <trkpt lat="45.02722" lon="5.52102">
        <ele>1115.6</ele>
        <time>2021-10-09T12:05:07Z</time>
      </trkpt>
      <trkpt lat="45.02729" lon="5.5211">
        <ele>1114.2</ele>
        <time>2021-10-09T12:05:08Z</time>
      </trkpt>
      <trkpt lat="45.02736" lon="5.52119">
        <ele>1114.2</ele>
        <time>2021-10-09T12:05:09Z</time>
      </trkpt>
      <trkpt lat="45.02743" lon="5.52127">
        <ele>1114.2</ele>
        <time>2021-10-09T12:05:10Z</time>
      </trkpt>
      <trkpt lat="45.0275" lon="5.52135">
        <ele>1114.2</ele>
        <time>2021-10-09T12:05:11Z</time>
      </trkpt>
      <trkpt lat="45.02756" lon="5.52143">
        <ele>1113.2</ele>
        <time>2021-10-09T12:05:12Z</time>
      </trkpt>
      <trkpt lat="45.02763" lon="5.52151">
        <ele>1113.2</ele>
        <time>2021-10-09T12:05:13Z</time>
      </trkpt>
      <trkpt lat="45.0277" lon="5.52159">
        <ele>1113.2</ele>
        <time>2021-10-09T12:05:14Z</time>
      </trkpt>
      <trkpt lat="45.02776" lon="5.52166">
        <ele>1113.4</ele>
        <time>2021-10-09T12:05:15Z</time>
      </trkpt>
      <trkpt lat="45.02782" lon="5.52174">
        <ele>1112.4</ele>
        <time>2021-10-09T12:05:16Z</time>
      </trkpt>
      <trkpt lat="45.02789" lon="5.52181">
        <ele>1112.4</ele>
        <time>2021-10-09T12:05:17Z</time>
      </trkpt>
      <trkpt lat="45.02795" lon="5.52188">
        <ele>1112.4</ele>
        <time>2021-10-09T12:05:18Z</time>
      </trkpt>
      <trkpt lat="45.02801" lon="5.52195">
        <ele>1113.2</ele>
        <time>2021-10-09T12:05:19Z</time>
      </trkpt>
      <trkpt lat="45.02806" lon="5.52203">
        <ele>1113</ele>
        <time>2021-10-09T12:05:20Z</time>
      </trkpt>
      <trkpt lat="45.02811" lon="5.52211">
        <ele>1113</ele>
        <time>2021-10-09T12:05:21Z</time>
      </trkpt>
      <trkpt lat="45.02814" lon="5.5222">
        <ele>1113</ele>
        <time>2021-10-09T12:05:22Z</time>
      </trkpt>
      <trkpt lat="45.02819" lon="5.52227">
        <ele>1114</ele>
        <time>2021-10-09T12:05:23Z</time>
      </trkpt>
      <trkpt lat="45.02823" lon="5.52234">
        <ele>1114.8</ele>
        <time>2021-10-09T12:05:24Z</time>
      </trkpt>
      <trkpt lat="45.02827" lon="5.52241">
        <ele>1114.8</ele>
        <time>2021-10-09T12:05:25Z</time>
      </trkpt>
      <trkpt lat="45.02831" lon="5.52247">
        <ele>1114.8</ele>
        <time>2021-10-09T12:05:26Z</time>
      </trkpt>
      <trkpt lat="45.02835" lon="5.52254">
        <ele>1114.8</ele>
        <time>2021-10-09T12:05:27Z</time>
      </trkpt>
      <trkpt lat="45.02839" lon="5.5226">
        <ele>1115</ele>
        <time>2021-10-09T12:05:28Z</time>
      </trkpt>
      <trkpt lat="45.02842" lon="5.52266">
        <ele>1115</ele>
        <time>2021-10-09T12:05:29Z</time>
      </trkpt>
      <trkpt lat="45.02846" lon="5.52273">
        <ele>1115</ele>
        <time>2021-10-09T12:05:30Z</time>
      </trkpt>
      <trkpt lat="45.0285" lon="5.52279">
        <ele>1114.2</ele>
        <time>2021-10-09T12:05:31Z</time>
      </trkpt>
      <trkpt lat="45.02853" lon="5.52285">
        <ele>1114.4</ele>
        <time>2021-10-09T12:05:32Z</time>
      </trkpt>
      <trkpt lat="45.02856" lon="5.52292">
        <ele>1114.4</ele>
        <time>2021-10-09T12:05:33Z</time>
      </trkpt>
      <trkpt lat="45.02859" lon="5.52299">
        <ele>1114.4</ele>
        <time>2021-10-09T12:05:34Z</time>
      </trkpt>
      <trkpt lat="45.02863" lon="5.52305">
        <ele>1114.4</ele>
        <time>2021-10-09T12:05:35Z</time>
      </trkpt>
      <trkpt lat="45.02866" lon="5.52312">
        <ele>1114.4</ele>
        <time>2021-10-09T12:05:36Z</time>
      </trkpt>
      <trkpt lat="45.02869" lon="5.52318">
        <ele>1114.4</ele>
        <time>2021-10-09T12:05:37Z</time>
      </trkpt>
      <trkpt lat="45.02873" lon="5.52324">
        <ele>1114.4</ele>
        <time>2021-10-09T12:05:38Z</time>
      </trkpt>
      <trkpt lat="45.02876" lon="5.5233">
        <ele>1114.4</ele>
        <time>2021-10-09T12:05:39Z</time>
      </trkpt>
      <trkpt lat="45.0288" lon="5.52336">
        <ele>1114.4</ele>
        <time>2021-10-09T12:05:40Z</time>
      </trkpt>
      <trkpt lat="45.02883" lon="5.52343">
        <ele>1114.4</ele>
        <time>2021-10-09T12:05:41Z</time>
      </trkpt>
      <trkpt lat="45.02886" lon="5.52349">
        <ele>1114.4</ele>
        <time>2021-10-09T12:05:42Z</time>
      </trkpt>
      <trkpt lat="45.02889" lon="5.52355">
        <ele>1114.4</ele>
        <time>2021-10-09T12:05:43Z</time>
      </trkpt>
      <trkpt lat="45.02891" lon="5.52362">
        <ele>1113.6</ele>
        <time>2021-10-09T12:05:44Z</time>
      </trkpt>
      <trkpt lat="45.02894" lon="5.52368">
        <ele>1113.6</ele>
        <time>2021-10-09T12:05:45Z</time>
      </trkpt>
      <trkpt lat="45.02897" lon="5.52375">
        <ele>1113.6</ele>
        <time>2021-10-09T12:05:46Z</time>
      </trkpt>
      <trkpt lat="45.029" lon="5.52381">
        <ele>1114.6</ele>
        <time>2021-10-09T12:05:47Z</time>
      </trkpt>
      <trkpt lat="45.02902" lon="5.52388">
        <ele>1114</ele>
        <time>2021-10-09T12:05:48Z</time>
      </trkpt>
      <trkpt lat="45.02905" lon="5.52394">
        <ele>1114</ele>
        <time>2021-10-09T12:05:49Z</time>
      </trkpt>
      <trkpt lat="45.02909" lon="5.524">
        <ele>1114</ele>
        <time>2021-10-09T12:05:50Z</time>
      </trkpt>
      <trkpt lat="45.02911" lon="5.52407">
        <ele>1113.6</ele>
        <time>2021-10-09T12:05:51Z</time>
      </trkpt>
      <trkpt lat="45.02915" lon="5.52413">
        <ele>1112.4</ele>
        <time>2021-10-09T12:05:52Z</time>
      </trkpt>
      <trkpt lat="45.02918" lon="5.52419">
        <ele>1112.4</ele>
        <time>2021-10-09T12:05:53Z</time>
      </trkpt>
      <trkpt lat="45.02921" lon="5.52425">
        <ele>1112.4</ele>
        <time>2021-10-09T12:05:54Z</time>
      </trkpt>
      <trkpt lat="45.02924" lon="5.52432">
        <ele>1111.8</ele>
        <time>2021-10-09T12:05:55Z</time>
      </trkpt>
      <trkpt lat="45.02928" lon="5.52438">
        <ele>1111.4</ele>
        <time>2021-10-09T12:05:56Z</time>
      </trkpt>
      <trkpt lat="45.02931" lon="5.52445">
        <ele>1111.4</ele>
        <time>2021-10-09T12:05:57Z</time>
      </trkpt>
      <trkpt lat="45.02935" lon="5.52452">
        <ele>1111.4</ele>
        <time>2021-10-09T12:05:58Z</time>
      </trkpt>
      <trkpt lat="45.02938" lon="5.52458">
        <ele>1110.4</ele>
        <time>2021-10-09T12:05:59Z</time>
      </trkpt>
      <trkpt lat="45.02942" lon="5.52465">
        <ele>1109.6</ele>
        <time>2021-10-09T12:06:00Z</time>
      </trkpt>
      <trkpt lat="45.02946" lon="5.52472">
        <ele>1109.6</ele>
        <time>2021-10-09T12:06:01Z</time>
      </trkpt>
      <trkpt lat="45.0295" lon="5.52479">
        <ele>1109.6</ele>
        <time>2021-10-09T12:06:02Z</time>
      </trkpt>
      <trkpt lat="45.02955" lon="5.52486">
        <ele>1109.6</ele>
        <time>2021-10-09T12:06:03Z</time>
      </trkpt>
      <trkpt lat="45.02959" lon="5.52492">
        <ele>1108.6</ele>
        <time>2021-10-09T12:06:04Z</time>
      </trkpt>
      <trkpt lat="45.02963" lon="5.525">
        <ele>1108.6</ele>
        <time>2021-10-09T12:06:05Z</time>
      </trkpt>
      <trkpt lat="45.02966" lon="5.52508">
        <ele>1108.6</ele>
        <time>2021-10-09T12:06:06Z</time>
      </trkpt>
      <trkpt lat="45.0297" lon="5.52516">
        <ele>1108.6</ele>
        <time>2021-10-09T12:06:07Z</time>
      </trkpt>
      <trkpt lat="45.02973" lon="5.52523">
        <ele>1108.4</ele>
        <time>2021-10-09T12:06:08Z</time>
      </trkpt>
      <trkpt lat="45.02978" lon="5.52529">
        <ele>1108.4</ele>
        <time>2021-10-09T12:06:09Z</time>
      </trkpt>
      <trkpt lat="45.02981" lon="5.52536">
        <ele>1108.4</ele>
        <time>2021-10-09T12:06:10Z</time>
      </trkpt>
      <trkpt lat="45.02985" lon="5.52542">
        <ele>1108.4</ele>
        <time>2021-10-09T12:06:11Z</time>
      </trkpt>
      <trkpt lat="45.02989" lon="5.52547">
        <ele>1108.6</ele>
        <time>2021-10-09T12:06:12Z</time>
      </trkpt>
      <trkpt lat="45.02992" lon="5.52552">
        <ele>1108.6</ele>
        <time>2021-10-09T12:06:13Z</time>
      </trkpt>
      <trkpt lat="45.02996" lon="5.52556">
        <ele>1108.6</ele>
        <time>2021-10-09T12:06:14Z</time>
      </trkpt>
      <trkpt lat="45.02998" lon="5.5256">
        <ele>1108.6</ele>
        <time>2021-10-09T12:06:15Z</time>
      </trkpt>
      <trkpt lat="45.03001" lon="5.52564">
        <ele>1109.2</ele>
        <time>2021-10-09T12:06:16Z</time>
      </trkpt>
      <trkpt lat="45.03003" lon="5.52567">
        <ele>1109.2</ele>
        <time>2021-10-09T12:06:17Z</time>
      </trkpt>
      <trkpt lat="45.03005" lon="5.52572">
        <ele>1109.2</ele>
        <time>2021-10-09T12:06:18Z</time>
      </trkpt>
      <trkpt lat="45.03007" lon="5.52576">
        <ele>1109.2</ele>
        <time>2021-10-09T12:06:19Z</time>
      </trkpt>
      <trkpt lat="45.03009" lon="5.5258">
        <ele>1110.2</ele>
        <time>2021-10-09T12:06:20Z</time>
      </trkpt>
      <trkpt lat="45.0301" lon="5.52583">
        <ele>1110.2</ele>
        <time>2021-10-09T12:06:21Z</time>
      </trkpt>
      <trkpt lat="45.03012" lon="5.52587">
        <ele>1110.2</ele>
        <time>2021-10-09T12:06:22Z</time>
      </trkpt>
      <trkpt lat="45.03015" lon="5.52589">
        <ele>1109.6</ele>
        <time>2021-10-09T12:06:23Z</time>
      </trkpt>
      <trkpt lat="45.03017" lon="5.52592">
        <ele>1109.8</ele>
        <time>2021-10-09T12:06:24Z</time>
      </trkpt>
      <trkpt lat="45.03019" lon="5.52594">
        <ele>1109.8</ele>
        <time>2021-10-09T12:06:25Z</time>
      </trkpt>
      <trkpt lat="45.03022" lon="5.52597">
        <ele>1109.8</ele>
        <time>2021-10-09T12:06:26Z</time>
      </trkpt>
      <trkpt lat="45.03024" lon="5.526">
        <ele>1109.8</ele>
        <time>2021-10-09T12:06:27Z</time>
      </trkpt>
      <trkpt lat="45.03027" lon="5.52604">
        <ele>1110.2</ele>
        <time>2021-10-09T12:06:28Z</time>
      </trkpt>
      <trkpt lat="45.0303" lon="5.52607">
        <ele>1110.2</ele>
        <time>2021-10-09T12:06:29Z</time>
      </trkpt>
      <trkpt lat="45.03033" lon="5.5261">
        <ele>1110.2</ele>
        <time>2021-10-09T12:06:30Z</time>
      </trkpt>
      <trkpt lat="45.03036" lon="5.52613">
        <ele>1110.2</ele>
        <time>2021-10-09T12:06:31Z</time>
      </trkpt>
      <trkpt lat="45.03039" lon="5.52615">
        <ele>1110.4</ele>
        <time>2021-10-09T12:06:32Z</time>
      </trkpt>
      <trkpt lat="45.03042" lon="5.52618">
        <ele>1110.4</ele>
        <time>2021-10-09T12:06:33Z</time>
      </trkpt>
      <trkpt lat="45.03045" lon="5.5262">
        <ele>1110.4</ele>
        <time>2021-10-09T12:06:34Z</time>
      </trkpt>
      <trkpt lat="45.03048" lon="5.52622">
        <ele>1110.4</ele>
        <time>2021-10-09T12:06:35Z</time>
      </trkpt>
      <trkpt lat="45.03051" lon="5.52624">
        <ele>1110.2</ele>
        <time>2021-10-09T12:06:36Z</time>
      </trkpt>
      <trkpt lat="45.03054" lon="5.52626">
        <ele>1110.2</ele>
        <time>2021-10-09T12:06:37Z</time>
      </trkpt>
      <trkpt lat="45.03057" lon="5.52628">
        <ele>1110.2</ele>
        <time>2021-10-09T12:06:38Z</time>
      </trkpt>
      <trkpt lat="45.0306" lon="5.5263">
        <ele>1110.2</ele>
        <time>2021-10-09T12:06:39Z</time>
      </trkpt>
      <trkpt lat="45.03063" lon="5.52632">
        <ele>1110.4</ele>
        <time>2021-10-09T12:06:40Z</time>
      </trkpt>
      <trkpt lat="45.03066" lon="5.52634">
        <ele>1110.4</ele>
        <time>2021-10-09T12:06:41Z</time>
      </trkpt>
      <trkpt lat="45.03069" lon="5.52636">
        <ele>1110.4</ele>
        <time>2021-10-09T12:06:42Z</time>
      </trkpt>
      <trkpt lat="45.03072" lon="5.52638">
        <ele>1110.4</ele>
        <time>2021-10-09T12:06:43Z</time>
      </trkpt>
      <trkpt lat="45.03075" lon="5.5264">
        <ele>1109.2</ele>
        <time>2021-10-09T12:06:44Z</time>
      </trkpt>
      <trkpt lat="45.03078" lon="5.52642">
        <ele>1109.2</ele>
        <time>2021-10-09T12:06:45Z</time>
      </trkpt>
      <trkpt lat="45.03081" lon="5.52644">
        <ele>1109.2</ele>
        <time>2021-10-09T12:06:46Z</time>
      </trkpt>
      <trkpt lat="45.03084" lon="5.52645">
        <ele>1109.6</ele>
        <time>2021-10-09T12:06:47Z</time>
      </trkpt>
      <trkpt lat="45.03087" lon="5.52647">
        <ele>1110.2</ele>
        <time>2021-10-09T12:06:48Z</time>
      </trkpt>
      <trkpt lat="45.03091" lon="5.52649">
        <ele>1110.2</ele>
        <time>2021-10-09T12:06:49Z</time>
      </trkpt>
      <trkpt lat="45.03094" lon="5.52651">
        <ele>1110.2</ele>
        <time>2021-10-09T12:06:50Z</time>
      </trkpt>
      <trkpt lat="45.03097" lon="5.52653">
        <ele>1109.2</ele>
        <time>2021-10-09T12:06:51Z</time>
      </trkpt>
      <trkpt lat="45.03101" lon="5.52655">
        <ele>1108.8</ele>
        <time>2021-10-09T12:06:52Z</time>
      </trkpt>
      <trkpt lat="45.03104" lon="5.52657">
        <ele>1108.8</ele>
        <time>2021-10-09T12:06:53Z</time>
      </trkpt>
      <trkpt lat="45.03107" lon="5.52659">
        <ele>1108.8</ele>
        <time>2021-10-09T12:06:54Z</time>
      </trkpt>
      <trkpt lat="45.0311" lon="5.52661">
        <ele>1108.8</ele>
        <time>2021-10-09T12:06:55Z</time>
      </trkpt>
      <trkpt lat="45.03112" lon="5.52663">
        <ele>1108.8</ele>
        <time>2021-10-09T12:06:56Z</time>
      </trkpt>
      <trkpt lat="45.03113" lon="5.52664">
        <ele>1108.8</ele>
        <time>2021-10-09T12:06:57Z</time>
      </trkpt>
      <trkpt lat="45.03115" lon="5.52665">
        <ele>1108.8</ele>
        <time>2021-10-09T12:06:58Z</time>
      </trkpt>
      <trkpt lat="45.03117" lon="5.52666">
        <ele>1108.8</ele>
        <time>2021-10-09T12:06:59Z</time>
      </trkpt>
      <trkpt lat="45.03119" lon="5.52667">
        <ele>1108.2</ele>
        <time>2021-10-09T12:07:00Z</time>
      </trkpt>
      <trkpt lat="45.03121" lon="5.52668">
        <ele>1108.2</ele>
        <time>2021-10-09T12:07:01Z</time>
      </trkpt>
      <trkpt lat="45.03123" lon="5.52669">
        <ele>1108.2</ele>
        <time>2021-10-09T12:07:02Z</time>
      </trkpt>
      <trkpt lat="45.03125" lon="5.5267">
        <ele>1109</ele>
        <time>2021-10-09T12:07:03Z</time>
      </trkpt>
      <trkpt lat="45.03126" lon="5.5267">
        <ele>1109</ele>
        <time>2021-10-09T12:07:04Z</time>
      </trkpt>
      <trkpt lat="45.03126" lon="5.52671">
        <ele>1109</ele>
        <time>2021-10-09T12:07:05Z</time>
      </trkpt>
      <trkpt lat="45.03126" lon="5.52671">
        <ele>1109</ele>
        <time>2021-10-09T12:07:06Z</time>
      </trkpt>
    </trkseg>
  </trk>
</gpx>